<?xml version="1.0" encoding="UTF-8"?>
<gpx version="1.1" creator="https://www.youtrack.es" xsi:schemaLocation="http://www.topografix.com/GPX/1/1 http://www.topografix.com/GPX/1/1/gpx.xsd http://www.garmin.com/xmlschemas/GpxExtensions/v3 http://www.garmin.com/xmlschemas/GpxExtensionsv3.xsd http://www.garmin.com/xmlschemas/TrackPointExtension/v1 http://www.garmin.com/xmlschemas/TrackPointExtensionv1.xsd" xmlns:gpxtpx="http://www.garmin.com/xmlschemas/TrackPointExtension/v1" xmlns:gpxx="http://www.garmin.com/xmlschemas/GpxExtensions/v3" xmlns:xsi="http://www.w3.org/2001/XMLSchema-instance">
  <metadata>
    <link href="https://www.youtrack.es">
      <text>YouTrack.es</text>
    </link>
    <time>2026-05-09T04:51:44Z</time>
  </metadata>
  <trk>
    <src>https://www.youtrack.es</src>
    <link href="https://www.youtrack.es/ruta/10031-proca2">
      <text>YouTrack.es</text>
    </link>
    <trkseg>
      <trkpt lat="39.5160610" lon="-0.4163590">
        <ele>47.4</ele>
        <time>2018-05-01T05:26:34Z</time>
      </trkpt>
      <trkpt lat="39.5160170" lon="-0.4163410">
        <ele>47.2</ele>
        <time>2018-05-01T05:26:35Z</time>
      </trkpt>
      <trkpt lat="39.5158470" lon="-0.4162930">
        <ele>47.0</ele>
        <time>2018-05-01T05:26:39Z</time>
      </trkpt>
      <trkpt lat="39.5158320" lon="-0.4162780">
        <ele>47.6</ele>
        <time>2018-05-01T05:26:41Z</time>
      </trkpt>
      <trkpt lat="39.5158340" lon="-0.4162660">
        <ele>47.6</ele>
        <time>2018-05-01T05:26:43Z</time>
      </trkpt>
      <trkpt lat="39.5158750" lon="-0.4162290">
        <ele>47.4</ele>
        <time>2018-05-01T05:26:46Z</time>
      </trkpt>
      <trkpt lat="39.5160300" lon="-0.4163170">
        <ele>46.8</ele>
        <time>2018-05-01T05:26:50Z</time>
      </trkpt>
      <trkpt lat="39.5161180" lon="-0.4163660">
        <ele>47.0</ele>
        <time>2018-05-01T05:26:52Z</time>
      </trkpt>
      <trkpt lat="39.5162140" lon="-0.4164070">
        <ele>47.0</ele>
        <time>2018-05-01T05:26:54Z</time>
      </trkpt>
      <trkpt lat="39.5163110" lon="-0.4164460">
        <ele>47.0</ele>
        <time>2018-05-01T05:26:56Z</time>
      </trkpt>
      <trkpt lat="39.5164110" lon="-0.4164850">
        <ele>47.2</ele>
        <time>2018-05-01T05:26:58Z</time>
      </trkpt>
      <trkpt lat="39.5165900" lon="-0.4165520">
        <ele>47.0</ele>
        <time>2018-05-01T05:27:02Z</time>
      </trkpt>
      <trkpt lat="39.5166670" lon="-0.4166000">
        <ele>47.0</ele>
        <time>2018-05-01T05:27:04Z</time>
      </trkpt>
      <trkpt lat="39.5168110" lon="-0.4166970">
        <ele>46.8</ele>
        <time>2018-05-01T05:27:08Z</time>
      </trkpt>
      <trkpt lat="39.5170050" lon="-0.4168000">
        <ele>46.8</ele>
        <time>2018-05-01T05:27:12Z</time>
      </trkpt>
      <trkpt lat="39.5171600" lon="-0.4168730">
        <ele>46.8</ele>
        <time>2018-05-01T05:27:15Z</time>
      </trkpt>
      <trkpt lat="39.5173440" lon="-0.4169670">
        <ele>46.4</ele>
        <time>2018-05-01T05:27:19Z</time>
      </trkpt>
      <trkpt lat="39.5178910" lon="-0.4171590">
        <ele>46.2</ele>
        <time>2018-05-01T05:27:28Z</time>
      </trkpt>
      <trkpt lat="39.5184760" lon="-0.4173450">
        <ele>46.2</ele>
        <time>2018-05-01T05:27:35Z</time>
      </trkpt>
      <trkpt lat="39.5186530" lon="-0.4174080">
        <ele>45.8</ele>
        <time>2018-05-01T05:27:37Z</time>
      </trkpt>
      <trkpt lat="39.5188590" lon="-0.4173680">
        <ele>45.4</ele>
        <time>2018-05-01T05:27:39Z</time>
      </trkpt>
      <trkpt lat="39.5189510" lon="-0.4173260">
        <ele>45.4</ele>
        <time>2018-05-01T05:27:40Z</time>
      </trkpt>
      <trkpt lat="39.5192210" lon="-0.4172090">
        <ele>44.6</ele>
        <time>2018-05-01T05:27:43Z</time>
      </trkpt>
      <trkpt lat="39.5193110" lon="-0.4171680">
        <ele>44.0</ele>
        <time>2018-05-01T05:27:44Z</time>
      </trkpt>
      <trkpt lat="39.5194000" lon="-0.4171310">
        <ele>42.8</ele>
        <time>2018-05-01T05:27:45Z</time>
      </trkpt>
      <trkpt lat="39.5194970" lon="-0.4171030">
        <ele>41.8</ele>
        <time>2018-05-01T05:27:46Z</time>
      </trkpt>
      <trkpt lat="39.5195860" lon="-0.4170660">
        <ele>41.4</ele>
        <time>2018-05-01T05:27:47Z</time>
      </trkpt>
      <trkpt lat="39.5197380" lon="-0.4169870">
        <ele>40.2</ele>
        <time>2018-05-01T05:27:49Z</time>
      </trkpt>
      <trkpt lat="39.5198150" lon="-0.4169600">
        <ele>39.4</ele>
        <time>2018-05-01T05:27:50Z</time>
      </trkpt>
      <trkpt lat="39.5198940" lon="-0.4169330">
        <ele>38.6</ele>
        <time>2018-05-01T05:27:51Z</time>
      </trkpt>
      <trkpt lat="39.5200380" lon="-0.4168700">
        <ele>36.8</ele>
        <time>2018-05-01T05:27:53Z</time>
      </trkpt>
      <trkpt lat="39.5201620" lon="-0.4168040">
        <ele>36.2</ele>
        <time>2018-05-01T05:27:55Z</time>
      </trkpt>
      <trkpt lat="39.5202190" lon="-0.4167830">
        <ele>36.0</ele>
        <time>2018-05-01T05:27:56Z</time>
      </trkpt>
      <trkpt lat="39.5204170" lon="-0.4169080">
        <ele>36.0</ele>
        <time>2018-05-01T05:28:00Z</time>
      </trkpt>
      <trkpt lat="39.5204920" lon="-0.4169970">
        <ele>36.0</ele>
        <time>2018-05-01T05:28:02Z</time>
      </trkpt>
      <trkpt lat="39.5205480" lon="-0.4170670">
        <ele>36.0</ele>
        <time>2018-05-01T05:28:04Z</time>
      </trkpt>
      <trkpt lat="39.5206740" lon="-0.4172390">
        <ele>36.0</ele>
        <time>2018-05-01T05:28:08Z</time>
      </trkpt>
      <trkpt lat="39.5207900" lon="-0.4173670">
        <ele>37.2</ele>
        <time>2018-05-01T05:28:11Z</time>
      </trkpt>
      <trkpt lat="39.5208160" lon="-0.4174070">
        <ele>37.8</ele>
        <time>2018-05-01T05:28:12Z</time>
      </trkpt>
      <trkpt lat="39.5208660" lon="-0.4174870">
        <ele>38.2</ele>
        <time>2018-05-01T05:28:14Z</time>
      </trkpt>
      <trkpt lat="39.5209540" lon="-0.4175960">
        <ele>38.6</ele>
        <time>2018-05-01T05:28:17Z</time>
      </trkpt>
      <trkpt lat="39.5210370" lon="-0.4176870">
        <ele>38.8</ele>
        <time>2018-05-01T05:28:20Z</time>
      </trkpt>
      <trkpt lat="39.5210950" lon="-0.4177860">
        <ele>39.8</ele>
        <time>2018-05-01T05:28:24Z</time>
      </trkpt>
      <trkpt lat="39.5211490" lon="-0.4178660">
        <ele>41.0</ele>
        <time>2018-05-01T05:28:27Z</time>
      </trkpt>
      <trkpt lat="39.5211730" lon="-0.4178790">
        <ele>41.2</ele>
        <time>2018-05-01T05:28:28Z</time>
      </trkpt>
      <trkpt lat="39.5212550" lon="-0.4178430">
        <ele>42.0</ele>
        <time>2018-05-01T05:28:30Z</time>
      </trkpt>
      <trkpt lat="39.5213760" lon="-0.4177110">
        <ele>43.0</ele>
        <time>2018-05-01T05:28:33Z</time>
      </trkpt>
      <trkpt lat="39.5217970" lon="-0.4172290">
        <ele>43.8</ele>
        <time>2018-05-01T05:28:42Z</time>
      </trkpt>
      <trkpt lat="39.5219410" lon="-0.4170680">
        <ele>42.6</ele>
        <time>2018-05-01T05:28:45Z</time>
      </trkpt>
      <trkpt lat="39.5220860" lon="-0.4169150">
        <ele>42.0</ele>
        <time>2018-05-01T05:28:48Z</time>
      </trkpt>
      <trkpt lat="39.5222240" lon="-0.4167710">
        <ele>42.0</ele>
        <time>2018-05-01T05:28:51Z</time>
      </trkpt>
      <trkpt lat="39.5222680" lon="-0.4167130">
        <ele>41.8</ele>
        <time>2018-05-01T05:28:52Z</time>
      </trkpt>
      <trkpt lat="39.5223210" lon="-0.4166540">
        <ele>41.8</ele>
        <time>2018-05-01T05:28:53Z</time>
      </trkpt>
      <trkpt lat="39.5225260" lon="-0.4163610">
        <ele>41.2</ele>
        <time>2018-05-01T05:28:57Z</time>
      </trkpt>
      <trkpt lat="39.5226240" lon="-0.4162140">
        <ele>41.2</ele>
        <time>2018-05-01T05:28:59Z</time>
      </trkpt>
      <trkpt lat="39.5226990" lon="-0.4160600">
        <ele>41.2</ele>
        <time>2018-05-01T05:29:01Z</time>
      </trkpt>
      <trkpt lat="39.5227500" lon="-0.4159790">
        <ele>40.6</ele>
        <time>2018-05-01T05:29:02Z</time>
      </trkpt>
      <trkpt lat="39.5228680" lon="-0.4158160">
        <ele>38.8</ele>
        <time>2018-05-01T05:29:04Z</time>
      </trkpt>
      <trkpt lat="39.5229870" lon="-0.4156500">
        <ele>37.2</ele>
        <time>2018-05-01T05:29:06Z</time>
      </trkpt>
      <trkpt lat="39.5230990" lon="-0.4155070">
        <ele>35.8</ele>
        <time>2018-05-01T05:29:08Z</time>
      </trkpt>
      <trkpt lat="39.5231390" lon="-0.4154540">
        <ele>35.0</ele>
        <time>2018-05-01T05:29:09Z</time>
      </trkpt>
      <trkpt lat="39.5231760" lon="-0.4154070">
        <ele>33.8</ele>
        <time>2018-05-01T05:29:10Z</time>
      </trkpt>
      <trkpt lat="39.5232180" lon="-0.4153670">
        <ele>32.8</ele>
        <time>2018-05-01T05:29:11Z</time>
      </trkpt>
      <trkpt lat="39.5232640" lon="-0.4153490">
        <ele>32.0</ele>
        <time>2018-05-01T05:29:12Z</time>
      </trkpt>
      <trkpt lat="39.5233760" lon="-0.4153530">
        <ele>30.8</ele>
        <time>2018-05-01T05:29:14Z</time>
      </trkpt>
      <trkpt lat="39.5235000" lon="-0.4153590">
        <ele>30.2</ele>
        <time>2018-05-01T05:29:16Z</time>
      </trkpt>
      <trkpt lat="39.5236910" lon="-0.4153790">
        <ele>29.8</ele>
        <time>2018-05-01T05:29:19Z</time>
      </trkpt>
      <trkpt lat="39.5237610" lon="-0.4153710">
        <ele>29.8</ele>
        <time>2018-05-01T05:29:20Z</time>
      </trkpt>
      <trkpt lat="39.5238290" lon="-0.4153340">
        <ele>29.8</ele>
        <time>2018-05-01T05:29:21Z</time>
      </trkpt>
      <trkpt lat="39.5241040" lon="-0.4150360">
        <ele>29.6</ele>
        <time>2018-05-01T05:29:26Z</time>
      </trkpt>
      <trkpt lat="39.5243800" lon="-0.4147250">
        <ele>28.6</ele>
        <time>2018-05-01T05:29:31Z</time>
      </trkpt>
      <trkpt lat="39.5244390" lon="-0.4146650">
        <ele>28.6</ele>
        <time>2018-05-01T05:29:32Z</time>
      </trkpt>
      <trkpt lat="39.5247600" lon="-0.4143100">
        <ele>27.8</ele>
        <time>2018-05-01T05:29:38Z</time>
      </trkpt>
      <trkpt lat="39.5250840" lon="-0.4139710">
        <ele>27.6</ele>
        <time>2018-05-01T05:29:44Z</time>
      </trkpt>
      <trkpt lat="39.5255370" lon="-0.4135400">
        <ele>26.2</ele>
        <time>2018-05-01T05:29:52Z</time>
      </trkpt>
      <trkpt lat="39.5256490" lon="-0.4134310">
        <ele>26.2</ele>
        <time>2018-05-01T05:29:54Z</time>
      </trkpt>
      <trkpt lat="39.5260060" lon="-0.4131020">
        <ele>25.8</ele>
        <time>2018-05-01T05:30:01Z</time>
      </trkpt>
      <trkpt lat="39.5263070" lon="-0.4128810">
        <ele>25.6</ele>
        <time>2018-05-01T05:30:06Z</time>
      </trkpt>
      <trkpt lat="39.5267040" lon="-0.4125320">
        <ele>25.2</ele>
        <time>2018-05-01T05:30:13Z</time>
      </trkpt>
      <trkpt lat="39.5271650" lon="-0.4120570">
        <ele>25.4</ele>
        <time>2018-05-01T05:30:22Z</time>
      </trkpt>
      <trkpt lat="39.5274350" lon="-0.4118440">
        <ele>25.8</ele>
        <time>2018-05-01T05:30:27Z</time>
      </trkpt>
      <trkpt lat="39.5276870" lon="-0.4115660">
        <ele>26.4</ele>
        <time>2018-05-01T05:30:33Z</time>
      </trkpt>
      <trkpt lat="39.5277350" lon="-0.4115270">
        <ele>26.4</ele>
        <time>2018-05-01T05:30:34Z</time>
      </trkpt>
      <trkpt lat="39.5278430" lon="-0.4114530">
        <ele>26.8</ele>
        <time>2018-05-01T05:30:36Z</time>
      </trkpt>
      <trkpt lat="39.5279080" lon="-0.4110150">
        <ele>27.2</ele>
        <time>2018-05-01T05:30:42Z</time>
      </trkpt>
      <trkpt lat="39.5278960" lon="-0.4109330">
        <ele>27.0</ele>
        <time>2018-05-01T05:30:43Z</time>
      </trkpt>
      <trkpt lat="39.5278660" lon="-0.4102200">
        <ele>27.0</ele>
        <time>2018-05-01T05:30:52Z</time>
      </trkpt>
      <trkpt lat="39.5278970" lon="-0.4098210">
        <ele>27.2</ele>
        <time>2018-05-01T05:30:57Z</time>
      </trkpt>
      <trkpt lat="39.5282760" lon="-0.4096400">
        <ele>27.0</ele>
        <time>2018-05-01T05:31:05Z</time>
      </trkpt>
      <trkpt lat="39.5285600" lon="-0.4096620">
        <ele>26.6</ele>
        <time>2018-05-01T05:31:10Z</time>
      </trkpt>
      <trkpt lat="39.5286810" lon="-0.4096640">
        <ele>26.4</ele>
        <time>2018-05-01T05:31:12Z</time>
      </trkpt>
      <trkpt lat="39.5288630" lon="-0.4097010">
        <ele>26.2</ele>
        <time>2018-05-01T05:31:15Z</time>
      </trkpt>
      <trkpt lat="39.5293590" lon="-0.4098980">
        <ele>25.6</ele>
        <time>2018-05-01T05:31:23Z</time>
      </trkpt>
      <trkpt lat="39.5295830" lon="-0.4099100">
        <ele>25.6</ele>
        <time>2018-05-01T05:31:27Z</time>
      </trkpt>
      <trkpt lat="39.5296230" lon="-0.4099020">
        <ele>25.6</ele>
        <time>2018-05-01T05:31:28Z</time>
      </trkpt>
      <trkpt lat="39.5301670" lon="-0.4098550">
        <ele>26.0</ele>
        <time>2018-05-01T05:31:37Z</time>
      </trkpt>
      <trkpt lat="39.5304660" lon="-0.4098200">
        <ele>26.2</ele>
        <time>2018-05-01T05:31:42Z</time>
      </trkpt>
      <trkpt lat="39.5305810" lon="-0.4098120">
        <ele>26.4</ele>
        <time>2018-05-01T05:31:44Z</time>
      </trkpt>
      <trkpt lat="39.5307220" lon="-0.4097970">
        <ele>27.0</ele>
        <time>2018-05-01T05:31:47Z</time>
      </trkpt>
      <trkpt lat="39.5308170" lon="-0.4097760">
        <ele>27.6</ele>
        <time>2018-05-01T05:31:50Z</time>
      </trkpt>
      <trkpt lat="39.5309440" lon="-0.4097660">
        <ele>28.2</ele>
        <time>2018-05-01T05:31:54Z</time>
      </trkpt>
      <trkpt lat="39.5310210" lon="-0.4097490">
        <ele>28.4</ele>
        <time>2018-05-01T05:31:56Z</time>
      </trkpt>
      <trkpt lat="39.5310430" lon="-0.4097430">
        <ele>28.6</ele>
        <time>2018-05-01T05:31:57Z</time>
      </trkpt>
      <trkpt lat="39.5311830" lon="-0.4097020">
        <ele>28.6</ele>
        <time>2018-05-01T05:32:01Z</time>
      </trkpt>
      <trkpt lat="39.5312880" lon="-0.4096930">
        <ele>28.6</ele>
        <time>2018-05-01T05:32:03Z</time>
      </trkpt>
      <trkpt lat="39.5314490" lon="-0.4096750">
        <ele>28.2</ele>
        <time>2018-05-01T05:32:05Z</time>
      </trkpt>
      <trkpt lat="39.5315110" lon="-0.4096550">
        <ele>28.0</ele>
        <time>2018-05-01T05:32:06Z</time>
      </trkpt>
      <trkpt lat="39.5316370" lon="-0.4095920">
        <ele>27.6</ele>
        <time>2018-05-01T05:32:08Z</time>
      </trkpt>
      <trkpt lat="39.5317630" lon="-0.4095130">
        <ele>27.2</ele>
        <time>2018-05-01T05:32:10Z</time>
      </trkpt>
      <trkpt lat="39.5318270" lon="-0.4094710">
        <ele>27.0</ele>
        <time>2018-05-01T05:32:11Z</time>
      </trkpt>
      <trkpt lat="39.5320280" lon="-0.4093560">
        <ele>26.8</ele>
        <time>2018-05-01T05:32:14Z</time>
      </trkpt>
      <trkpt lat="39.5325670" lon="-0.4090270">
        <ele>26.8</ele>
        <time>2018-05-01T05:32:22Z</time>
      </trkpt>
      <trkpt lat="39.5328820" lon="-0.4088670">
        <ele>26.8</ele>
        <time>2018-05-01T05:32:27Z</time>
      </trkpt>
      <trkpt lat="39.5331110" lon="-0.4087630">
        <ele>26.6</ele>
        <time>2018-05-01T05:32:31Z</time>
      </trkpt>
      <trkpt lat="39.5336910" lon="-0.4085650">
        <ele>25.8</ele>
        <time>2018-05-01T05:32:40Z</time>
      </trkpt>
      <trkpt lat="39.5338260" lon="-0.4085500">
        <ele>25.4</ele>
        <time>2018-05-01T05:32:42Z</time>
      </trkpt>
      <trkpt lat="39.5343930" lon="-0.4085850">
        <ele>25.0</ele>
        <time>2018-05-01T05:32:52Z</time>
      </trkpt>
      <trkpt lat="39.5349700" lon="-0.4085840">
        <ele>25.2</ele>
        <time>2018-05-01T05:33:01Z</time>
      </trkpt>
      <trkpt lat="39.5355450" lon="-0.4085660">
        <ele>24.6</ele>
        <time>2018-05-01T05:33:10Z</time>
      </trkpt>
      <trkpt lat="39.5356700" lon="-0.4085650">
        <ele>24.4</ele>
        <time>2018-05-01T05:33:12Z</time>
      </trkpt>
      <trkpt lat="39.5362520" lon="-0.4085460">
        <ele>24.2</ele>
        <time>2018-05-01T05:33:21Z</time>
      </trkpt>
      <trkpt lat="39.5368520" lon="-0.4085130">
        <ele>24.4</ele>
        <time>2018-05-01T05:33:32Z</time>
      </trkpt>
      <trkpt lat="39.5369700" lon="-0.4084880">
        <ele>24.4</ele>
        <time>2018-05-01T05:33:34Z</time>
      </trkpt>
      <trkpt lat="39.5374790" lon="-0.4081000">
        <ele>24.8</ele>
        <time>2018-05-01T05:33:44Z</time>
      </trkpt>
      <trkpt lat="39.5378660" lon="-0.4076090">
        <ele>25.2</ele>
        <time>2018-05-01T05:33:53Z</time>
      </trkpt>
      <trkpt lat="39.5379890" lon="-0.4074360">
        <ele>25.2</ele>
        <time>2018-05-01T05:33:56Z</time>
      </trkpt>
      <trkpt lat="39.5382000" lon="-0.4070610">
        <ele>25.2</ele>
        <time>2018-05-01T05:34:02Z</time>
      </trkpt>
      <trkpt lat="39.5384460" lon="-0.4064360">
        <ele>25.2</ele>
        <time>2018-05-01T05:34:11Z</time>
      </trkpt>
      <trkpt lat="39.5384920" lon="-0.4063190">
        <ele>25.4</ele>
        <time>2018-05-01T05:34:13Z</time>
      </trkpt>
      <trkpt lat="39.5385390" lon="-0.4062060">
        <ele>25.4</ele>
        <time>2018-05-01T05:34:15Z</time>
      </trkpt>
      <trkpt lat="39.5386320" lon="-0.4059600">
        <ele>25.6</ele>
        <time>2018-05-01T05:34:19Z</time>
      </trkpt>
      <trkpt lat="39.5387650" lon="-0.4056050">
        <ele>25.8</ele>
        <time>2018-05-01T05:34:24Z</time>
      </trkpt>
      <trkpt lat="39.5388550" lon="-0.4053610">
        <ele>25.8</ele>
        <time>2018-05-01T05:34:27Z</time>
      </trkpt>
      <trkpt lat="39.5388760" lon="-0.4052740">
        <ele>25.8</ele>
        <time>2018-05-01T05:34:28Z</time>
      </trkpt>
      <trkpt lat="39.5389170" lon="-0.4050080">
        <ele>25.8</ele>
        <time>2018-05-01T05:34:31Z</time>
      </trkpt>
      <trkpt lat="39.5390310" lon="-0.4042790">
        <ele>24.8</ele>
        <time>2018-05-01T05:34:39Z</time>
      </trkpt>
      <trkpt lat="39.5391220" lon="-0.4038480">
        <ele>24.2</ele>
        <time>2018-05-01T05:34:44Z</time>
      </trkpt>
      <trkpt lat="39.5391410" lon="-0.4037690">
        <ele>24.2</ele>
        <time>2018-05-01T05:34:45Z</time>
      </trkpt>
      <trkpt lat="39.5391910" lon="-0.4036250">
        <ele>24.0</ele>
        <time>2018-05-01T05:34:47Z</time>
      </trkpt>
      <trkpt lat="39.5392560" lon="-0.4035180">
        <ele>24.0</ele>
        <time>2018-05-01T05:34:49Z</time>
      </trkpt>
      <trkpt lat="39.5393060" lon="-0.4034440">
        <ele>24.2</ele>
        <time>2018-05-01T05:34:51Z</time>
      </trkpt>
      <trkpt lat="39.5393390" lon="-0.4034020">
        <ele>24.4</ele>
        <time>2018-05-01T05:34:53Z</time>
      </trkpt>
      <trkpt lat="39.5393630" lon="-0.4033640">
        <ele>24.4</ele>
        <time>2018-05-01T05:34:55Z</time>
      </trkpt>
      <trkpt lat="39.5393780" lon="-0.4033310">
        <ele>25.0</ele>
        <time>2018-05-01T05:34:58Z</time>
      </trkpt>
      <trkpt lat="39.5394120" lon="-0.4033200">
        <ele>26.2</ele>
        <time>2018-05-01T05:35:03Z</time>
      </trkpt>
      <trkpt lat="39.5394200" lon="-0.4033010">
        <ele>26.2</ele>
        <time>2018-05-01T05:35:04Z</time>
      </trkpt>
      <trkpt lat="39.5394250" lon="-0.4032730">
        <ele>26.4</ele>
        <time>2018-05-01T05:35:06Z</time>
      </trkpt>
      <trkpt lat="39.5394430" lon="-0.4032380">
        <ele>26.4</ele>
        <time>2018-05-01T05:35:08Z</time>
      </trkpt>
      <trkpt lat="39.5395180" lon="-0.4031740">
        <ele>26.4</ele>
        <time>2018-05-01T05:35:11Z</time>
      </trkpt>
      <trkpt lat="39.5396240" lon="-0.4030430">
        <ele>26.4</ele>
        <time>2018-05-01T05:35:16Z</time>
      </trkpt>
      <trkpt lat="39.5398380" lon="-0.4027810">
        <ele>25.8</ele>
        <time>2018-05-01T05:35:24Z</time>
      </trkpt>
      <trkpt lat="39.5399620" lon="-0.4026310">
        <ele>25.6</ele>
        <time>2018-05-01T05:35:27Z</time>
      </trkpt>
      <trkpt lat="39.5400090" lon="-0.4025760">
        <ele>25.6</ele>
        <time>2018-05-01T05:35:28Z</time>
      </trkpt>
      <trkpt lat="39.5401110" lon="-0.4024580">
        <ele>25.4</ele>
        <time>2018-05-01T05:35:30Z</time>
      </trkpt>
      <trkpt lat="39.5401640" lon="-0.4023970">
        <ele>25.4</ele>
        <time>2018-05-01T05:35:31Z</time>
      </trkpt>
      <trkpt lat="39.5402680" lon="-0.4022760">
        <ele>25.2</ele>
        <time>2018-05-01T05:35:33Z</time>
      </trkpt>
      <trkpt lat="39.5403680" lon="-0.4021590">
        <ele>24.8</ele>
        <time>2018-05-01T05:35:35Z</time>
      </trkpt>
      <trkpt lat="39.5405720" lon="-0.4019230">
        <ele>24.0</ele>
        <time>2018-05-01T05:35:39Z</time>
      </trkpt>
      <trkpt lat="39.5409530" lon="-0.4014150">
        <ele>24.0</ele>
        <time>2018-05-01T05:35:47Z</time>
      </trkpt>
      <trkpt lat="39.5410980" lon="-0.4012250">
        <ele>24.0</ele>
        <time>2018-05-01T05:35:50Z</time>
      </trkpt>
      <trkpt lat="39.5413170" lon="-0.4010030">
        <ele>24.0</ele>
        <time>2018-05-01T05:35:54Z</time>
      </trkpt>
      <trkpt lat="39.5415890" lon="-0.4007180">
        <ele>24.2</ele>
        <time>2018-05-01T05:35:59Z</time>
      </trkpt>
      <trkpt lat="39.5420100" lon="-0.4001660">
        <ele>24.2</ele>
        <time>2018-05-01T05:36:08Z</time>
      </trkpt>
      <trkpt lat="39.5424150" lon="-0.3996480">
        <ele>24.4</ele>
        <time>2018-05-01T05:36:17Z</time>
      </trkpt>
      <trkpt lat="39.5425890" lon="-0.3994290">
        <ele>24.4</ele>
        <time>2018-05-01T05:36:21Z</time>
      </trkpt>
      <trkpt lat="39.5427090" lon="-0.3992580">
        <ele>24.4</ele>
        <time>2018-05-01T05:36:24Z</time>
      </trkpt>
      <trkpt lat="39.5429180" lon="-0.3990360">
        <ele>24.6</ele>
        <time>2018-05-01T05:36:29Z</time>
      </trkpt>
      <trkpt lat="39.5430280" lon="-0.3989000">
        <ele>24.6</ele>
        <time>2018-05-01T05:36:32Z</time>
      </trkpt>
      <trkpt lat="39.5431470" lon="-0.3987800">
        <ele>24.4</ele>
        <time>2018-05-01T05:36:35Z</time>
      </trkpt>
      <trkpt lat="39.5431910" lon="-0.3987340">
        <ele>24.4</ele>
        <time>2018-05-01T05:36:36Z</time>
      </trkpt>
      <trkpt lat="39.5435880" lon="-0.3984020">
        <ele>24.2</ele>
        <time>2018-05-01T05:36:44Z</time>
      </trkpt>
      <trkpt lat="39.5438120" lon="-0.3982620">
        <ele>24.2</ele>
        <time>2018-05-01T05:36:48Z</time>
      </trkpt>
      <trkpt lat="39.5442070" lon="-0.3980450">
        <ele>24.2</ele>
        <time>2018-05-01T05:36:55Z</time>
      </trkpt>
      <trkpt lat="39.5443670" lon="-0.3980140">
        <ele>24.4</ele>
        <time>2018-05-01T05:36:58Z</time>
      </trkpt>
      <trkpt lat="39.5445320" lon="-0.3980370">
        <ele>24.6</ele>
        <time>2018-05-01T05:37:01Z</time>
      </trkpt>
      <trkpt lat="39.5447060" lon="-0.3980930">
        <ele>24.8</ele>
        <time>2018-05-01T05:37:04Z</time>
      </trkpt>
      <trkpt lat="39.5448150" lon="-0.3981200">
        <ele>24.8</ele>
        <time>2018-05-01T05:37:06Z</time>
      </trkpt>
      <trkpt lat="39.5449420" lon="-0.3979660">
        <ele>25.0</ele>
        <time>2018-05-01T05:37:10Z</time>
      </trkpt>
      <trkpt lat="39.5449330" lon="-0.3978110">
        <ele>25.2</ele>
        <time>2018-05-01T05:37:12Z</time>
      </trkpt>
      <trkpt lat="39.5449030" lon="-0.3970530">
        <ele>25.0</ele>
        <time>2018-05-01T05:37:21Z</time>
      </trkpt>
      <trkpt lat="39.5448690" lon="-0.3963590">
        <ele>24.4</ele>
        <time>2018-05-01T05:37:29Z</time>
      </trkpt>
      <trkpt lat="39.5447430" lon="-0.3956370">
        <ele>24.0</ele>
        <time>2018-05-01T05:37:37Z</time>
      </trkpt>
      <trkpt lat="39.5447090" lon="-0.3955030">
        <ele>24.0</ele>
        <time>2018-05-01T05:37:39Z</time>
      </trkpt>
      <trkpt lat="39.5447420" lon="-0.3954150">
        <ele>24.0</ele>
        <time>2018-05-01T05:37:41Z</time>
      </trkpt>
      <trkpt lat="39.5450140" lon="-0.3954680">
        <ele>23.8</ele>
        <time>2018-05-01T05:37:47Z</time>
      </trkpt>
      <trkpt lat="39.5452240" lon="-0.3955550">
        <ele>23.6</ele>
        <time>2018-05-01T05:37:51Z</time>
      </trkpt>
      <trkpt lat="39.5453780" lon="-0.3956190">
        <ele>23.6</ele>
        <time>2018-05-01T05:37:54Z</time>
      </trkpt>
      <trkpt lat="39.5455920" lon="-0.3957100">
        <ele>23.6</ele>
        <time>2018-05-01T05:37:57Z</time>
      </trkpt>
      <trkpt lat="39.5458660" lon="-0.3957000">
        <ele>23.4</ele>
        <time>2018-05-01T05:38:01Z</time>
      </trkpt>
      <trkpt lat="39.5460940" lon="-0.3956440">
        <ele>23.4</ele>
        <time>2018-05-01T05:38:04Z</time>
      </trkpt>
      <trkpt lat="39.5465290" lon="-0.3952360">
        <ele>23.4</ele>
        <time>2018-05-01T05:38:12Z</time>
      </trkpt>
      <trkpt lat="39.5466840" lon="-0.3949940">
        <ele>23.4</ele>
        <time>2018-05-01T05:38:16Z</time>
      </trkpt>
      <trkpt lat="39.5470510" lon="-0.3947850">
        <ele>23.6</ele>
        <time>2018-05-01T05:38:23Z</time>
      </trkpt>
      <trkpt lat="39.5472790" lon="-0.3947450">
        <ele>23.6</ele>
        <time>2018-05-01T05:38:27Z</time>
      </trkpt>
      <trkpt lat="39.5476280" lon="-0.3947510">
        <ele>23.8</ele>
        <time>2018-05-01T05:38:33Z</time>
      </trkpt>
      <trkpt lat="39.5479130" lon="-0.3948340">
        <ele>23.8</ele>
        <time>2018-05-01T05:38:38Z</time>
      </trkpt>
      <trkpt lat="39.5483350" lon="-0.3947860">
        <ele>24.0</ele>
        <time>2018-05-01T05:38:46Z</time>
      </trkpt>
      <trkpt lat="39.5485380" lon="-0.3948490">
        <ele>24.4</ele>
        <time>2018-05-01T05:38:50Z</time>
      </trkpt>
      <trkpt lat="39.5488000" lon="-0.3949550">
        <ele>24.6</ele>
        <time>2018-05-01T05:38:55Z</time>
      </trkpt>
      <trkpt lat="39.5491860" lon="-0.3951530">
        <ele>24.8</ele>
        <time>2018-05-01T05:39:02Z</time>
      </trkpt>
      <trkpt lat="39.5496990" lon="-0.3954120">
        <ele>25.2</ele>
        <time>2018-05-01T05:39:12Z</time>
      </trkpt>
      <trkpt lat="39.5500280" lon="-0.3955640">
        <ele>25.4</ele>
        <time>2018-05-01T05:39:18Z</time>
      </trkpt>
      <trkpt lat="39.5505720" lon="-0.3958350">
        <ele>26.0</ele>
        <time>2018-05-01T05:39:28Z</time>
      </trkpt>
      <trkpt lat="39.5508360" lon="-0.3959590">
        <ele>26.2</ele>
        <time>2018-05-01T05:39:33Z</time>
      </trkpt>
      <trkpt lat="39.5513620" lon="-0.3962950">
        <ele>26.8</ele>
        <time>2018-05-01T05:39:44Z</time>
      </trkpt>
      <trkpt lat="39.5514620" lon="-0.3963600">
        <ele>27.2</ele>
        <time>2018-05-01T05:39:46Z</time>
      </trkpt>
      <trkpt lat="39.5515120" lon="-0.3963930">
        <ele>27.4</ele>
        <time>2018-05-01T05:39:47Z</time>
      </trkpt>
      <trkpt lat="39.5517640" lon="-0.3965460">
        <ele>28.0</ele>
        <time>2018-05-01T05:39:53Z</time>
      </trkpt>
      <trkpt lat="39.5518240" lon="-0.3965780">
        <ele>28.2</ele>
        <time>2018-05-01T05:39:55Z</time>
      </trkpt>
      <trkpt lat="39.5518750" lon="-0.3966040">
        <ele>28.4</ele>
        <time>2018-05-01T05:39:57Z</time>
      </trkpt>
      <trkpt lat="39.5519210" lon="-0.3965690">
        <ele>28.4</ele>
        <time>2018-05-01T05:39:59Z</time>
      </trkpt>
      <trkpt lat="39.5519870" lon="-0.3965110">
        <ele>29.2</ele>
        <time>2018-05-01T05:40:02Z</time>
      </trkpt>
      <trkpt lat="39.5520040" lon="-0.3965260">
        <ele>29.6</ele>
        <time>2018-05-01T05:40:03Z</time>
      </trkpt>
      <trkpt lat="39.5519890" lon="-0.3965690">
        <ele>29.8</ele>
        <time>2018-05-01T05:40:05Z</time>
      </trkpt>
      <trkpt lat="39.5519500" lon="-0.3965640">
        <ele>30.0</ele>
        <time>2018-05-01T05:40:07Z</time>
      </trkpt>
      <trkpt lat="39.5519260" lon="-0.3965420">
        <ele>30.0</ele>
        <time>2018-05-01T05:40:09Z</time>
      </trkpt>
      <trkpt lat="39.5519360" lon="-0.3965090">
        <ele>30.2</ele>
        <time>2018-05-01T05:40:11Z</time>
      </trkpt>
      <trkpt lat="39.5520110" lon="-0.3960590">
        <ele>30.0</ele>
        <time>2018-05-01T05:40:22Z</time>
      </trkpt>
      <trkpt lat="39.5520210" lon="-0.3959650">
        <ele>30.0</ele>
        <time>2018-05-01T05:40:24Z</time>
      </trkpt>
      <trkpt lat="39.5520810" lon="-0.3953200">
        <ele>30.0</ele>
        <time>2018-05-01T05:40:37Z</time>
      </trkpt>
      <trkpt lat="39.5521030" lon="-0.3950900">
        <ele>30.0</ele>
        <time>2018-05-01T05:40:42Z</time>
      </trkpt>
      <trkpt lat="39.5521360" lon="-0.3947290">
        <ele>30.2</ele>
        <time>2018-05-01T05:40:49Z</time>
      </trkpt>
      <trkpt lat="39.5522080" lon="-0.3939910">
        <ele>30.2</ele>
        <time>2018-05-01T05:41:02Z</time>
      </trkpt>
      <trkpt lat="39.5522410" lon="-0.3935900">
        <ele>30.2</ele>
        <time>2018-05-01T05:41:10Z</time>
      </trkpt>
      <trkpt lat="39.5522400" lon="-0.3934060">
        <ele>30.8</ele>
        <time>2018-05-01T05:41:15Z</time>
      </trkpt>
      <trkpt lat="39.5522970" lon="-0.3930840">
        <ele>30.8</ele>
        <time>2018-05-01T05:41:22Z</time>
      </trkpt>
      <trkpt lat="39.5523000" lon="-0.3929710">
        <ele>30.8</ele>
        <time>2018-05-01T05:41:24Z</time>
      </trkpt>
      <trkpt lat="39.5523300" lon="-0.3926300">
        <ele>30.6</ele>
        <time>2018-05-01T05:41:29Z</time>
      </trkpt>
      <trkpt lat="39.5523590" lon="-0.3922960">
        <ele>29.6</ele>
        <time>2018-05-01T05:41:33Z</time>
      </trkpt>
      <trkpt lat="39.5523860" lon="-0.3920180">
        <ele>28.4</ele>
        <time>2018-05-01T05:41:36Z</time>
      </trkpt>
      <trkpt lat="39.5524130" lon="-0.3917190">
        <ele>27.0</ele>
        <time>2018-05-01T05:41:39Z</time>
      </trkpt>
      <trkpt lat="39.5524300" lon="-0.3915120">
        <ele>26.0</ele>
        <time>2018-05-01T05:41:41Z</time>
      </trkpt>
      <trkpt lat="39.5524540" lon="-0.3913080">
        <ele>24.8</ele>
        <time>2018-05-01T05:41:43Z</time>
      </trkpt>
      <trkpt lat="39.5524880" lon="-0.3911220">
        <ele>23.6</ele>
        <time>2018-05-01T05:41:45Z</time>
      </trkpt>
      <trkpt lat="39.5525130" lon="-0.3909470">
        <ele>22.2</ele>
        <time>2018-05-01T05:41:47Z</time>
      </trkpt>
      <trkpt lat="39.5525190" lon="-0.3907800">
        <ele>21.2</ele>
        <time>2018-05-01T05:41:49Z</time>
      </trkpt>
      <trkpt lat="39.5525630" lon="-0.3903720">
        <ele>20.8</ele>
        <time>2018-05-01T05:41:55Z</time>
      </trkpt>
      <trkpt lat="39.5525740" lon="-0.3903160">
        <ele>20.8</ele>
        <time>2018-05-01T05:41:56Z</time>
      </trkpt>
      <trkpt lat="39.5525820" lon="-0.3902620">
        <ele>20.8</ele>
        <time>2018-05-01T05:41:57Z</time>
      </trkpt>
      <trkpt lat="39.5525970" lon="-0.3901500">
        <ele>21.6</ele>
        <time>2018-05-01T05:41:59Z</time>
      </trkpt>
      <trkpt lat="39.5526030" lon="-0.3900920">
        <ele>22.6</ele>
        <time>2018-05-01T05:42:00Z</time>
      </trkpt>
      <trkpt lat="39.5526180" lon="-0.3899820">
        <ele>23.4</ele>
        <time>2018-05-01T05:42:02Z</time>
      </trkpt>
      <trkpt lat="39.5526300" lon="-0.3899300">
        <ele>23.8</ele>
        <time>2018-05-01T05:42:03Z</time>
      </trkpt>
      <trkpt lat="39.5526560" lon="-0.3898220">
        <ele>24.2</ele>
        <time>2018-05-01T05:42:05Z</time>
      </trkpt>
      <trkpt lat="39.5526790" lon="-0.3897100">
        <ele>24.8</ele>
        <time>2018-05-01T05:42:07Z</time>
      </trkpt>
      <trkpt lat="39.5527050" lon="-0.3896030">
        <ele>25.2</ele>
        <time>2018-05-01T05:42:09Z</time>
      </trkpt>
      <trkpt lat="39.5527370" lon="-0.3894980">
        <ele>25.8</ele>
        <time>2018-05-01T05:42:11Z</time>
      </trkpt>
      <trkpt lat="39.5527520" lon="-0.3894460">
        <ele>26.0</ele>
        <time>2018-05-01T05:42:12Z</time>
      </trkpt>
      <trkpt lat="39.5528050" lon="-0.3892710">
        <ele>26.8</ele>
        <time>2018-05-01T05:42:16Z</time>
      </trkpt>
      <trkpt lat="39.5528190" lon="-0.3892320">
        <ele>27.0</ele>
        <time>2018-05-01T05:42:17Z</time>
      </trkpt>
      <trkpt lat="39.5528680" lon="-0.3890750">
        <ele>28.0</ele>
        <time>2018-05-01T05:42:21Z</time>
      </trkpt>
      <trkpt lat="39.5529370" lon="-0.3888380">
        <ele>29.4</ele>
        <time>2018-05-01T05:42:26Z</time>
      </trkpt>
      <trkpt lat="39.5529420" lon="-0.3887860">
        <ele>29.4</ele>
        <time>2018-05-01T05:42:27Z</time>
      </trkpt>
      <trkpt lat="39.5529540" lon="-0.3885750">
        <ele>29.6</ele>
        <time>2018-05-01T05:42:31Z</time>
      </trkpt>
      <trkpt lat="39.5529780" lon="-0.3884770">
        <ele>29.6</ele>
        <time>2018-05-01T05:42:33Z</time>
      </trkpt>
      <trkpt lat="39.5530690" lon="-0.3883890">
        <ele>29.6</ele>
        <time>2018-05-01T05:42:36Z</time>
      </trkpt>
      <trkpt lat="39.5531840" lon="-0.3884290">
        <ele>29.6</ele>
        <time>2018-05-01T05:42:39Z</time>
      </trkpt>
      <trkpt lat="39.5532810" lon="-0.3886050">
        <ele>29.6</ele>
        <time>2018-05-01T05:42:43Z</time>
      </trkpt>
      <trkpt lat="39.5533760" lon="-0.3887330">
        <ele>29.6</ele>
        <time>2018-05-01T05:42:46Z</time>
      </trkpt>
      <trkpt lat="39.5534120" lon="-0.3887720">
        <ele>29.6</ele>
        <time>2018-05-01T05:42:47Z</time>
      </trkpt>
      <trkpt lat="39.5536020" lon="-0.3889440">
        <ele>29.6</ele>
        <time>2018-05-01T05:42:52Z</time>
      </trkpt>
      <trkpt lat="39.5537110" lon="-0.3890590">
        <ele>29.6</ele>
        <time>2018-05-01T05:42:55Z</time>
      </trkpt>
      <trkpt lat="39.5538590" lon="-0.3892910">
        <ele>29.4</ele>
        <time>2018-05-01T05:43:00Z</time>
      </trkpt>
      <trkpt lat="39.5539020" lon="-0.3893870">
        <ele>29.4</ele>
        <time>2018-05-01T05:43:02Z</time>
      </trkpt>
      <trkpt lat="39.5540050" lon="-0.3898170">
        <ele>29.6</ele>
        <time>2018-05-01T05:43:10Z</time>
      </trkpt>
      <trkpt lat="39.5540090" lon="-0.3900570">
        <ele>29.6</ele>
        <time>2018-05-01T05:43:14Z</time>
      </trkpt>
      <trkpt lat="39.5539870" lon="-0.3902740">
        <ele>29.8</ele>
        <time>2018-05-01T05:43:18Z</time>
      </trkpt>
      <trkpt lat="39.5539580" lon="-0.3905750">
        <ele>29.8</ele>
        <time>2018-05-01T05:43:23Z</time>
      </trkpt>
      <trkpt lat="39.5539320" lon="-0.3909610">
        <ele>29.8</ele>
        <time>2018-05-01T05:43:29Z</time>
      </trkpt>
      <trkpt lat="39.5540470" lon="-0.3913820">
        <ele>29.8</ele>
        <time>2018-05-01T05:43:36Z</time>
      </trkpt>
      <trkpt lat="39.5540760" lon="-0.3915110">
        <ele>29.8</ele>
        <time>2018-05-01T05:43:38Z</time>
      </trkpt>
      <trkpt lat="39.5542130" lon="-0.3917240">
        <ele>29.8</ele>
        <time>2018-05-01T05:43:42Z</time>
      </trkpt>
      <trkpt lat="39.5546950" lon="-0.3921080">
        <ele>29.8</ele>
        <time>2018-05-01T05:43:53Z</time>
      </trkpt>
      <trkpt lat="39.5552230" lon="-0.3924010">
        <ele>30.2</ele>
        <time>2018-05-01T05:44:05Z</time>
      </trkpt>
      <trkpt lat="39.5552960" lon="-0.3924400">
        <ele>30.4</ele>
        <time>2018-05-01T05:44:07Z</time>
      </trkpt>
      <trkpt lat="39.5553950" lon="-0.3924870">
        <ele>30.6</ele>
        <time>2018-05-01T05:44:10Z</time>
      </trkpt>
      <trkpt lat="39.5556550" lon="-0.3925990">
        <ele>31.6</ele>
        <time>2018-05-01T05:44:17Z</time>
      </trkpt>
      <trkpt lat="39.5557200" lon="-0.3924470">
        <ele>31.8</ele>
        <time>2018-05-01T05:44:21Z</time>
      </trkpt>
      <trkpt lat="39.5558310" lon="-0.3920200">
        <ele>32.0</ele>
        <time>2018-05-01T05:44:29Z</time>
      </trkpt>
      <trkpt lat="39.5558990" lon="-0.3918670">
        <ele>32.0</ele>
        <time>2018-05-01T05:44:32Z</time>
      </trkpt>
      <trkpt lat="39.5560100" lon="-0.3917570">
        <ele>31.8</ele>
        <time>2018-05-01T05:44:35Z</time>
      </trkpt>
      <trkpt lat="39.5561490" lon="-0.3917210">
        <ele>31.8</ele>
        <time>2018-05-01T05:44:38Z</time>
      </trkpt>
      <trkpt lat="39.5563260" lon="-0.3916870">
        <ele>31.8</ele>
        <time>2018-05-01T05:44:42Z</time>
      </trkpt>
      <trkpt lat="39.5564520" lon="-0.3915640">
        <ele>31.8</ele>
        <time>2018-05-01T05:44:46Z</time>
      </trkpt>
      <trkpt lat="39.5565520" lon="-0.3914870">
        <ele>31.8</ele>
        <time>2018-05-01T05:44:49Z</time>
      </trkpt>
      <trkpt lat="39.5565900" lon="-0.3914750">
        <ele>32.0</ele>
        <time>2018-05-01T05:44:50Z</time>
      </trkpt>
      <trkpt lat="39.5566760" lon="-0.3914740">
        <ele>32.6</ele>
        <time>2018-05-01T05:44:52Z</time>
      </trkpt>
      <trkpt lat="39.5567180" lon="-0.3914790">
        <ele>32.6</ele>
        <time>2018-05-01T05:44:53Z</time>
      </trkpt>
      <trkpt lat="39.5567560" lon="-0.3914870">
        <ele>32.8</ele>
        <time>2018-05-01T05:44:54Z</time>
      </trkpt>
      <trkpt lat="39.5569910" lon="-0.3914830">
        <ele>33.4</ele>
        <time>2018-05-01T05:45:00Z</time>
      </trkpt>
      <trkpt lat="39.5571440" lon="-0.3914320">
        <ele>33.8</ele>
        <time>2018-05-01T05:45:04Z</time>
      </trkpt>
      <trkpt lat="39.5575980" lon="-0.3912210">
        <ele>34.8</ele>
        <time>2018-05-01T05:45:17Z</time>
      </trkpt>
      <trkpt lat="39.5576870" lon="-0.3911830">
        <ele>35.4</ele>
        <time>2018-05-01T05:45:20Z</time>
      </trkpt>
      <trkpt lat="39.5579520" lon="-0.3910410">
        <ele>36.0</ele>
        <time>2018-05-01T05:45:28Z</time>
      </trkpt>
      <trkpt lat="39.5584260" lon="-0.3908910">
        <ele>36.4</ele>
        <time>2018-05-01T05:45:40Z</time>
      </trkpt>
      <trkpt lat="39.5586630" lon="-0.3908700">
        <ele>36.4</ele>
        <time>2018-05-01T05:45:45Z</time>
      </trkpt>
      <trkpt lat="39.5588630" lon="-0.3908660">
        <ele>36.4</ele>
        <time>2018-05-01T05:45:49Z</time>
      </trkpt>
      <trkpt lat="39.5590700" lon="-0.3908120">
        <ele>36.0</ele>
        <time>2018-05-01T05:45:53Z</time>
      </trkpt>
      <trkpt lat="39.5592670" lon="-0.3906990">
        <ele>35.0</ele>
        <time>2018-05-01T05:45:57Z</time>
      </trkpt>
      <trkpt lat="39.5593590" lon="-0.3906210">
        <ele>34.8</ele>
        <time>2018-05-01T05:45:59Z</time>
      </trkpt>
      <trkpt lat="39.5594860" lon="-0.3905020">
        <ele>34.6</ele>
        <time>2018-05-01T05:46:02Z</time>
      </trkpt>
      <trkpt lat="39.5595700" lon="-0.3904310">
        <ele>34.4</ele>
        <time>2018-05-01T05:46:04Z</time>
      </trkpt>
      <trkpt lat="39.5596170" lon="-0.3904040">
        <ele>34.2</ele>
        <time>2018-05-01T05:46:05Z</time>
      </trkpt>
      <trkpt lat="39.5597740" lon="-0.3904100">
        <ele>34.0</ele>
        <time>2018-05-01T05:46:08Z</time>
      </trkpt>
      <trkpt lat="39.5599060" lon="-0.3905310">
        <ele>33.8</ele>
        <time>2018-05-01T05:46:11Z</time>
      </trkpt>
      <trkpt lat="39.5599720" lon="-0.3906390">
        <ele>33.8</ele>
        <time>2018-05-01T05:46:13Z</time>
      </trkpt>
      <trkpt lat="39.5601380" lon="-0.3909570">
        <ele>33.8</ele>
        <time>2018-05-01T05:46:19Z</time>
      </trkpt>
      <trkpt lat="39.5603300" lon="-0.3913070">
        <ele>34.0</ele>
        <time>2018-05-01T05:46:26Z</time>
      </trkpt>
      <trkpt lat="39.5605240" lon="-0.3912550">
        <ele>34.0</ele>
        <time>2018-05-01T05:46:31Z</time>
      </trkpt>
      <trkpt lat="39.5606410" lon="-0.3911700">
        <ele>34.2</ele>
        <time>2018-05-01T05:46:34Z</time>
      </trkpt>
      <trkpt lat="39.5607230" lon="-0.3911220">
        <ele>34.4</ele>
        <time>2018-05-01T05:46:36Z</time>
      </trkpt>
      <trkpt lat="39.5609000" lon="-0.3910660">
        <ele>35.0</ele>
        <time>2018-05-01T05:46:40Z</time>
      </trkpt>
      <trkpt lat="39.5609460" lon="-0.3910650">
        <ele>35.0</ele>
        <time>2018-05-01T05:46:41Z</time>
      </trkpt>
      <trkpt lat="39.5613190" lon="-0.3911290">
        <ele>35.8</ele>
        <time>2018-05-01T05:46:50Z</time>
      </trkpt>
      <trkpt lat="39.5614430" lon="-0.3911850">
        <ele>36.2</ele>
        <time>2018-05-01T05:46:53Z</time>
      </trkpt>
      <trkpt lat="39.5618320" lon="-0.3913350">
        <ele>37.0</ele>
        <time>2018-05-01T05:47:02Z</time>
      </trkpt>
      <trkpt lat="39.5618790" lon="-0.3913390">
        <ele>37.0</ele>
        <time>2018-05-01T05:47:03Z</time>
      </trkpt>
      <trkpt lat="39.5620500" lon="-0.3910830">
        <ele>37.2</ele>
        <time>2018-05-01T05:47:09Z</time>
      </trkpt>
      <trkpt lat="39.5621240" lon="-0.3908400">
        <ele>37.2</ele>
        <time>2018-05-01T05:47:13Z</time>
      </trkpt>
      <trkpt lat="39.5622150" lon="-0.3905970">
        <ele>37.2</ele>
        <time>2018-05-01T05:47:17Z</time>
      </trkpt>
      <trkpt lat="39.5623670" lon="-0.3905440">
        <ele>37.0</ele>
        <time>2018-05-01T05:47:20Z</time>
      </trkpt>
      <trkpt lat="39.5624800" lon="-0.3906150">
        <ele>36.8</ele>
        <time>2018-05-01T05:47:22Z</time>
      </trkpt>
      <trkpt lat="39.5625330" lon="-0.3906560">
        <ele>36.6</ele>
        <time>2018-05-01T05:47:23Z</time>
      </trkpt>
      <trkpt lat="39.5626340" lon="-0.3907420">
        <ele>36.2</ele>
        <time>2018-05-01T05:47:25Z</time>
      </trkpt>
      <trkpt lat="39.5626840" lon="-0.3907810">
        <ele>35.8</ele>
        <time>2018-05-01T05:47:26Z</time>
      </trkpt>
      <trkpt lat="39.5627310" lon="-0.3908180">
        <ele>35.4</ele>
        <time>2018-05-01T05:47:27Z</time>
      </trkpt>
      <trkpt lat="39.5627780" lon="-0.3908540">
        <ele>34.8</ele>
        <time>2018-05-01T05:47:28Z</time>
      </trkpt>
      <trkpt lat="39.5628720" lon="-0.3909220">
        <ele>33.6</ele>
        <time>2018-05-01T05:47:30Z</time>
      </trkpt>
      <trkpt lat="39.5630560" lon="-0.3910580">
        <ele>33.2</ele>
        <time>2018-05-01T05:47:34Z</time>
      </trkpt>
      <trkpt lat="39.5632850" lon="-0.3911940">
        <ele>33.2</ele>
        <time>2018-05-01T05:47:39Z</time>
      </trkpt>
      <trkpt lat="39.5633330" lon="-0.3912100">
        <ele>33.2</ele>
        <time>2018-05-01T05:47:40Z</time>
      </trkpt>
      <trkpt lat="39.5634320" lon="-0.3912320">
        <ele>33.4</ele>
        <time>2018-05-01T05:47:42Z</time>
      </trkpt>
      <trkpt lat="39.5635350" lon="-0.3912550">
        <ele>33.4</ele>
        <time>2018-05-01T05:47:44Z</time>
      </trkpt>
      <trkpt lat="39.5638420" lon="-0.3913560">
        <ele>33.4</ele>
        <time>2018-05-01T05:47:50Z</time>
      </trkpt>
      <trkpt lat="39.5641730" lon="-0.3913930">
        <ele>33.4</ele>
        <time>2018-05-01T05:47:57Z</time>
      </trkpt>
      <trkpt lat="39.5643890" lon="-0.3914260">
        <ele>33.6</ele>
        <time>2018-05-01T05:48:02Z</time>
      </trkpt>
      <trkpt lat="39.5645170" lon="-0.3914540">
        <ele>33.8</ele>
        <time>2018-05-01T05:48:05Z</time>
      </trkpt>
      <trkpt lat="39.5648190" lon="-0.3912940">
        <ele>34.2</ele>
        <time>2018-05-01T05:48:12Z</time>
      </trkpt>
      <trkpt lat="39.5649570" lon="-0.3912800">
        <ele>34.2</ele>
        <time>2018-05-01T05:48:15Z</time>
      </trkpt>
      <trkpt lat="39.5650620" lon="-0.3910500">
        <ele>34.2</ele>
        <time>2018-05-01T05:48:20Z</time>
      </trkpt>
      <trkpt lat="39.5650910" lon="-0.3908570">
        <ele>34.0</ele>
        <time>2018-05-01T05:48:23Z</time>
      </trkpt>
      <trkpt lat="39.5653780" lon="-0.3907420">
        <ele>33.6</ele>
        <time>2018-05-01T05:48:30Z</time>
      </trkpt>
      <trkpt lat="39.5654220" lon="-0.3907520">
        <ele>33.6</ele>
        <time>2018-05-01T05:48:31Z</time>
      </trkpt>
      <trkpt lat="39.5656310" lon="-0.3908130">
        <ele>32.8</ele>
        <time>2018-05-01T05:48:36Z</time>
      </trkpt>
      <trkpt lat="39.5659590" lon="-0.3908210">
        <ele>32.8</ele>
        <time>2018-05-01T05:48:44Z</time>
      </trkpt>
      <trkpt lat="39.5660660" lon="-0.3908310">
        <ele>33.2</ele>
        <time>2018-05-01T05:48:47Z</time>
      </trkpt>
      <trkpt lat="39.5661810" lon="-0.3908520">
        <ele>33.8</ele>
        <time>2018-05-01T05:48:50Z</time>
      </trkpt>
      <trkpt lat="39.5666470" lon="-0.3908890">
        <ele>34.6</ele>
        <time>2018-05-01T05:49:02Z</time>
      </trkpt>
      <trkpt lat="39.5667940" lon="-0.3908920">
        <ele>34.8</ele>
        <time>2018-05-01T05:49:06Z</time>
      </trkpt>
      <trkpt lat="39.5669890" lon="-0.3909010">
        <ele>35.0</ele>
        <time>2018-05-01T05:49:12Z</time>
      </trkpt>
      <trkpt lat="39.5671090" lon="-0.3909180">
        <ele>35.6</ele>
        <time>2018-05-01T05:49:16Z</time>
      </trkpt>
      <trkpt lat="39.5672060" lon="-0.3909310">
        <ele>36.6</ele>
        <time>2018-05-01T05:49:19Z</time>
      </trkpt>
      <trkpt lat="39.5672730" lon="-0.3909410">
        <ele>37.0</ele>
        <time>2018-05-01T05:49:21Z</time>
      </trkpt>
      <trkpt lat="39.5675620" lon="-0.3909390">
        <ele>38.2</ele>
        <time>2018-05-01T05:49:30Z</time>
      </trkpt>
      <trkpt lat="39.5677700" lon="-0.3908100">
        <ele>39.4</ele>
        <time>2018-05-01T05:49:37Z</time>
      </trkpt>
      <trkpt lat="39.5679320" lon="-0.3906810">
        <ele>39.8</ele>
        <time>2018-05-01T05:49:42Z</time>
      </trkpt>
      <trkpt lat="39.5680330" lon="-0.3906140">
        <ele>40.2</ele>
        <time>2018-05-01T05:49:45Z</time>
      </trkpt>
      <trkpt lat="39.5681280" lon="-0.3904570">
        <ele>40.2</ele>
        <time>2018-05-01T05:49:49Z</time>
      </trkpt>
      <trkpt lat="39.5681420" lon="-0.3904060">
        <ele>40.4</ele>
        <time>2018-05-01T05:49:50Z</time>
      </trkpt>
      <trkpt lat="39.5682530" lon="-0.3898850">
        <ele>40.4</ele>
        <time>2018-05-01T05:49:59Z</time>
      </trkpt>
      <trkpt lat="39.5682780" lon="-0.3897600">
        <ele>40.4</ele>
        <time>2018-05-01T05:50:01Z</time>
      </trkpt>
      <trkpt lat="39.5683590" lon="-0.3893880">
        <ele>40.0</ele>
        <time>2018-05-01T05:50:07Z</time>
      </trkpt>
      <trkpt lat="39.5683860" lon="-0.3892600">
        <ele>40.0</ele>
        <time>2018-05-01T05:50:09Z</time>
      </trkpt>
      <trkpt lat="39.5684310" lon="-0.3890640">
        <ele>39.8</ele>
        <time>2018-05-01T05:50:12Z</time>
      </trkpt>
      <trkpt lat="39.5684760" lon="-0.3888550">
        <ele>39.8</ele>
        <time>2018-05-01T05:50:15Z</time>
      </trkpt>
      <trkpt lat="39.5685330" lon="-0.3885720">
        <ele>39.4</ele>
        <time>2018-05-01T05:50:19Z</time>
      </trkpt>
      <trkpt lat="39.5685450" lon="-0.3885020">
        <ele>39.2</ele>
        <time>2018-05-01T05:50:20Z</time>
      </trkpt>
      <trkpt lat="39.5685940" lon="-0.3882950">
        <ele>38.2</ele>
        <time>2018-05-01T05:50:23Z</time>
      </trkpt>
      <trkpt lat="39.5686690" lon="-0.3879390">
        <ele>37.8</ele>
        <time>2018-05-01T05:50:28Z</time>
      </trkpt>
      <trkpt lat="39.5687470" lon="-0.3875680">
        <ele>37.2</ele>
        <time>2018-05-01T05:50:33Z</time>
      </trkpt>
      <trkpt lat="39.5687780" lon="-0.3874190">
        <ele>37.0</ele>
        <time>2018-05-01T05:50:35Z</time>
      </trkpt>
      <trkpt lat="39.5688780" lon="-0.3869210">
        <ele>36.0</ele>
        <time>2018-05-01T05:50:42Z</time>
      </trkpt>
      <trkpt lat="39.5689040" lon="-0.3868190">
        <ele>36.0</ele>
        <time>2018-05-01T05:50:44Z</time>
      </trkpt>
      <trkpt lat="39.5689350" lon="-0.3867730">
        <ele>36.0</ele>
        <time>2018-05-01T05:50:46Z</time>
      </trkpt>
      <trkpt lat="39.5690220" lon="-0.3867740">
        <ele>35.8</ele>
        <time>2018-05-01T05:50:49Z</time>
      </trkpt>
      <trkpt lat="39.5691300" lon="-0.3868070">
        <ele>35.6</ele>
        <time>2018-05-01T05:50:52Z</time>
      </trkpt>
      <trkpt lat="39.5692100" lon="-0.3868380">
        <ele>35.6</ele>
        <time>2018-05-01T05:50:54Z</time>
      </trkpt>
      <trkpt lat="39.5694630" lon="-0.3869260">
        <ele>35.2</ele>
        <time>2018-05-01T05:51:00Z</time>
      </trkpt>
      <trkpt lat="39.5699710" lon="-0.3870930">
        <ele>35.2</ele>
        <time>2018-05-01T05:51:11Z</time>
      </trkpt>
      <trkpt lat="39.5701190" lon="-0.3871360">
        <ele>35.2</ele>
        <time>2018-05-01T05:51:14Z</time>
      </trkpt>
      <trkpt lat="39.5706230" lon="-0.3872100">
        <ele>35.6</ele>
        <time>2018-05-01T05:51:24Z</time>
      </trkpt>
      <trkpt lat="39.5710310" lon="-0.3872070">
        <ele>35.8</ele>
        <time>2018-05-01T05:51:32Z</time>
      </trkpt>
      <trkpt lat="39.5715320" lon="-0.3871890">
        <ele>36.2</ele>
        <time>2018-05-01T05:51:42Z</time>
      </trkpt>
      <trkpt lat="39.5716380" lon="-0.3871520">
        <ele>36.4</ele>
        <time>2018-05-01T05:51:45Z</time>
      </trkpt>
      <trkpt lat="39.5716580" lon="-0.3870630">
        <ele>36.6</ele>
        <time>2018-05-01T05:51:48Z</time>
      </trkpt>
      <trkpt lat="39.5716610" lon="-0.3870450">
        <ele>36.8</ele>
        <time>2018-05-01T05:51:49Z</time>
      </trkpt>
      <trkpt lat="39.5716670" lon="-0.3870120">
        <ele>37.0</ele>
        <time>2018-05-01T05:51:51Z</time>
      </trkpt>
      <trkpt lat="39.5718520" lon="-0.3863540">
        <ele>37.8</ele>
        <time>2018-05-01T05:52:06Z</time>
      </trkpt>
      <trkpt lat="39.5719200" lon="-0.3860940">
        <ele>37.8</ele>
        <time>2018-05-01T05:52:11Z</time>
      </trkpt>
      <trkpt lat="39.5719750" lon="-0.3859330">
        <ele>37.8</ele>
        <time>2018-05-01T05:52:15Z</time>
      </trkpt>
      <trkpt lat="39.5720620" lon="-0.3859330">
        <ele>38.2</ele>
        <time>2018-05-01T05:52:19Z</time>
      </trkpt>
      <trkpt lat="39.5721280" lon="-0.3859610">
        <ele>38.6</ele>
        <time>2018-05-01T05:52:21Z</time>
      </trkpt>
      <trkpt lat="39.5721960" lon="-0.3859860">
        <ele>39.2</ele>
        <time>2018-05-01T05:52:23Z</time>
      </trkpt>
      <trkpt lat="39.5727350" lon="-0.3859730">
        <ele>39.4</ele>
        <time>2018-05-01T05:52:36Z</time>
      </trkpt>
      <trkpt lat="39.5728720" lon="-0.3859640">
        <ele>39.0</ele>
        <time>2018-05-01T05:52:39Z</time>
      </trkpt>
      <trkpt lat="39.5731020" lon="-0.3857510">
        <ele>39.0</ele>
        <time>2018-05-01T05:52:46Z</time>
      </trkpt>
      <trkpt lat="39.5731810" lon="-0.3856570">
        <ele>39.0</ele>
        <time>2018-05-01T05:52:49Z</time>
      </trkpt>
      <trkpt lat="39.5732860" lon="-0.3855290">
        <ele>40.2</ele>
        <time>2018-05-01T05:52:53Z</time>
      </trkpt>
      <trkpt lat="39.5734420" lon="-0.3853540">
        <ele>41.4</ele>
        <time>2018-05-01T05:52:59Z</time>
      </trkpt>
      <trkpt lat="39.5736530" lon="-0.3852520">
        <ele>42.0</ele>
        <time>2018-05-01T05:53:05Z</time>
      </trkpt>
      <trkpt lat="39.5737340" lon="-0.3852130">
        <ele>42.0</ele>
        <time>2018-05-01T05:53:07Z</time>
      </trkpt>
      <trkpt lat="39.5739020" lon="-0.3849590">
        <ele>42.4</ele>
        <time>2018-05-01T05:53:13Z</time>
      </trkpt>
      <trkpt lat="39.5739200" lon="-0.3849080">
        <ele>42.4</ele>
        <time>2018-05-01T05:53:14Z</time>
      </trkpt>
      <trkpt lat="39.5739740" lon="-0.3847580">
        <ele>42.4</ele>
        <time>2018-05-01T05:53:17Z</time>
      </trkpt>
      <trkpt lat="39.5739930" lon="-0.3847110">
        <ele>42.4</ele>
        <time>2018-05-01T05:53:18Z</time>
      </trkpt>
      <trkpt lat="39.5742080" lon="-0.3845700">
        <ele>42.8</ele>
        <time>2018-05-01T05:53:24Z</time>
      </trkpt>
      <trkpt lat="39.5745860" lon="-0.3844160">
        <ele>42.8</ele>
        <time>2018-05-01T05:53:32Z</time>
      </trkpt>
      <trkpt lat="39.5748520" lon="-0.3843680">
        <ele>42.4</ele>
        <time>2018-05-01T05:53:37Z</time>
      </trkpt>
      <trkpt lat="39.5750150" lon="-0.3843350">
        <ele>42.0</ele>
        <time>2018-05-01T05:53:40Z</time>
      </trkpt>
      <trkpt lat="39.5750700" lon="-0.3843230">
        <ele>41.2</ele>
        <time>2018-05-01T05:53:41Z</time>
      </trkpt>
      <trkpt lat="39.5753440" lon="-0.3842730">
        <ele>40.6</ele>
        <time>2018-05-01T05:53:46Z</time>
      </trkpt>
      <trkpt lat="39.5756020" lon="-0.3842190">
        <ele>40.6</ele>
        <time>2018-05-01T05:53:51Z</time>
      </trkpt>
      <trkpt lat="39.5757520" lon="-0.3841940">
        <ele>40.4</ele>
        <time>2018-05-01T05:53:54Z</time>
      </trkpt>
      <trkpt lat="39.5758010" lon="-0.3841840">
        <ele>40.4</ele>
        <time>2018-05-01T05:53:55Z</time>
      </trkpt>
      <trkpt lat="39.5759310" lon="-0.3841510">
        <ele>40.2</ele>
        <time>2018-05-01T05:53:58Z</time>
      </trkpt>
      <trkpt lat="39.5760020" lon="-0.3839580">
        <ele>40.4</ele>
        <time>2018-05-01T05:54:03Z</time>
      </trkpt>
      <trkpt lat="39.5759900" lon="-0.3838510">
        <ele>40.4</ele>
        <time>2018-05-01T05:54:05Z</time>
      </trkpt>
      <trkpt lat="39.5759810" lon="-0.3836410">
        <ele>41.6</ele>
        <time>2018-05-01T05:54:09Z</time>
      </trkpt>
      <trkpt lat="39.5759730" lon="-0.3834610">
        <ele>42.0</ele>
        <time>2018-05-01T05:54:13Z</time>
      </trkpt>
      <trkpt lat="39.5759910" lon="-0.3833780">
        <ele>42.2</ele>
        <time>2018-05-01T05:54:15Z</time>
      </trkpt>
      <trkpt lat="39.5760380" lon="-0.3833250">
        <ele>42.8</ele>
        <time>2018-05-01T05:54:17Z</time>
      </trkpt>
      <trkpt lat="39.5761040" lon="-0.3833070">
        <ele>43.4</ele>
        <time>2018-05-01T05:54:19Z</time>
      </trkpt>
      <trkpt lat="39.5761780" lon="-0.3832940">
        <ele>43.8</ele>
        <time>2018-05-01T05:54:21Z</time>
      </trkpt>
      <trkpt lat="39.5764730" lon="-0.3831740">
        <ele>44.8</ele>
        <time>2018-05-01T05:54:29Z</time>
      </trkpt>
      <trkpt lat="39.5765100" lon="-0.3831490">
        <ele>44.8</ele>
        <time>2018-05-01T05:54:30Z</time>
      </trkpt>
      <trkpt lat="39.5765870" lon="-0.3830980">
        <ele>45.0</ele>
        <time>2018-05-01T05:54:32Z</time>
      </trkpt>
      <trkpt lat="39.5766680" lon="-0.3830470">
        <ele>45.2</ele>
        <time>2018-05-01T05:54:34Z</time>
      </trkpt>
      <trkpt lat="39.5768440" lon="-0.3829620">
        <ele>45.2</ele>
        <time>2018-05-01T05:54:38Z</time>
      </trkpt>
      <trkpt lat="39.5770770" lon="-0.3828640">
        <ele>45.0</ele>
        <time>2018-05-01T05:54:43Z</time>
      </trkpt>
      <trkpt lat="39.5775110" lon="-0.3826920">
        <ele>44.0</ele>
        <time>2018-05-01T05:54:52Z</time>
      </trkpt>
      <trkpt lat="39.5779730" lon="-0.3825340">
        <ele>43.2</ele>
        <time>2018-05-01T05:55:01Z</time>
      </trkpt>
      <trkpt lat="39.5781290" lon="-0.3825060">
        <ele>43.0</ele>
        <time>2018-05-01T05:55:04Z</time>
      </trkpt>
      <trkpt lat="39.5782310" lon="-0.3824820">
        <ele>42.8</ele>
        <time>2018-05-01T05:55:06Z</time>
      </trkpt>
      <trkpt lat="39.5787980" lon="-0.3825400">
        <ele>42.8</ele>
        <time>2018-05-01T05:55:17Z</time>
      </trkpt>
      <trkpt lat="39.5790480" lon="-0.3825660">
        <ele>42.4</ele>
        <time>2018-05-01T05:55:22Z</time>
      </trkpt>
      <trkpt lat="39.5793900" lon="-0.3825550">
        <ele>42.2</ele>
        <time>2018-05-01T05:55:29Z</time>
      </trkpt>
      <trkpt lat="39.5795270" lon="-0.3824920">
        <ele>42.2</ele>
        <time>2018-05-01T05:55:32Z</time>
      </trkpt>
      <trkpt lat="39.5800310" lon="-0.3822350">
        <ele>42.2</ele>
        <time>2018-05-01T05:55:43Z</time>
      </trkpt>
      <trkpt lat="39.5801310" lon="-0.3821980">
        <ele>42.4</ele>
        <time>2018-05-01T05:55:45Z</time>
      </trkpt>
      <trkpt lat="39.5803350" lon="-0.3821420">
        <ele>42.4</ele>
        <time>2018-05-01T05:55:49Z</time>
      </trkpt>
      <trkpt lat="39.5804890" lon="-0.3821150">
        <ele>42.4</ele>
        <time>2018-05-01T05:55:52Z</time>
      </trkpt>
      <trkpt lat="39.5806950" lon="-0.3820750">
        <ele>42.2</ele>
        <time>2018-05-01T05:55:56Z</time>
      </trkpt>
      <trkpt lat="39.5809470" lon="-0.3820790">
        <ele>42.2</ele>
        <time>2018-05-01T05:56:01Z</time>
      </trkpt>
      <trkpt lat="39.5814510" lon="-0.3820760">
        <ele>42.4</ele>
        <time>2018-05-01T05:56:11Z</time>
      </trkpt>
      <trkpt lat="39.5820140" lon="-0.3822220">
        <ele>43.0</ele>
        <time>2018-05-01T05:56:22Z</time>
      </trkpt>
      <trkpt lat="39.5822160" lon="-0.3822780">
        <ele>43.0</ele>
        <time>2018-05-01T05:56:26Z</time>
      </trkpt>
      <trkpt lat="39.5826150" lon="-0.3824210">
        <ele>43.0</ele>
        <time>2018-05-01T05:56:34Z</time>
      </trkpt>
      <trkpt lat="39.5828500" lon="-0.3825220">
        <ele>43.2</ele>
        <time>2018-05-01T05:56:39Z</time>
      </trkpt>
      <trkpt lat="39.5828980" lon="-0.3825420">
        <ele>43.2</ele>
        <time>2018-05-01T05:56:40Z</time>
      </trkpt>
      <trkpt lat="39.5833090" lon="-0.3827490">
        <ele>43.4</ele>
        <time>2018-05-01T05:56:49Z</time>
      </trkpt>
      <trkpt lat="39.5838190" lon="-0.3830020">
        <ele>43.2</ele>
        <time>2018-05-01T05:57:00Z</time>
      </trkpt>
      <trkpt lat="39.5839540" lon="-0.3830720">
        <ele>43.2</ele>
        <time>2018-05-01T05:57:03Z</time>
      </trkpt>
      <trkpt lat="39.5844600" lon="-0.3833200">
        <ele>43.2</ele>
        <time>2018-05-01T05:57:15Z</time>
      </trkpt>
      <trkpt lat="39.5846070" lon="-0.3834160">
        <ele>43.4</ele>
        <time>2018-05-01T05:57:19Z</time>
      </trkpt>
      <trkpt lat="39.5847970" lon="-0.3835770">
        <ele>43.4</ele>
        <time>2018-05-01T05:57:24Z</time>
      </trkpt>
      <trkpt lat="39.5848340" lon="-0.3836030">
        <ele>43.4</ele>
        <time>2018-05-01T05:57:25Z</time>
      </trkpt>
      <trkpt lat="39.5849840" lon="-0.3837170">
        <ele>43.4</ele>
        <time>2018-05-01T05:57:29Z</time>
      </trkpt>
      <trkpt lat="39.5853860" lon="-0.3840580">
        <ele>43.2</ele>
        <time>2018-05-01T05:57:39Z</time>
      </trkpt>
      <trkpt lat="39.5855110" lon="-0.3841630">
        <ele>43.0</ele>
        <time>2018-05-01T05:57:42Z</time>
      </trkpt>
      <trkpt lat="39.5860170" lon="-0.3844900">
        <ele>42.6</ele>
        <time>2018-05-01T05:57:53Z</time>
      </trkpt>
      <trkpt lat="39.5861440" lon="-0.3845770">
        <ele>42.6</ele>
        <time>2018-05-01T05:57:56Z</time>
      </trkpt>
      <trkpt lat="39.5862200" lon="-0.3846310">
        <ele>42.6</ele>
        <time>2018-05-01T05:57:58Z</time>
      </trkpt>
      <trkpt lat="39.5863300" lon="-0.3847130">
        <ele>42.6</ele>
        <time>2018-05-01T05:58:01Z</time>
      </trkpt>
      <trkpt lat="39.5864340" lon="-0.3847760">
        <ele>42.6</ele>
        <time>2018-05-01T05:58:04Z</time>
      </trkpt>
      <trkpt lat="39.5864950" lon="-0.3847900">
        <ele>42.4</ele>
        <time>2018-05-01T05:58:06Z</time>
      </trkpt>
      <trkpt lat="39.5865130" lon="-0.3848000">
        <ele>42.6</ele>
        <time>2018-05-01T05:58:07Z</time>
      </trkpt>
      <trkpt lat="39.5865200" lon="-0.3848050">
        <ele>42.6</ele>
        <time>2018-05-01T05:58:09Z</time>
      </trkpt>
      <trkpt lat="39.5865400" lon="-0.3848040">
        <ele>43.2</ele>
        <time>2018-05-01T05:59:59Z</time>
      </trkpt>
      <trkpt lat="39.5869170" lon="-0.3850470">
        <ele>42.2</ele>
        <time>2018-05-01T06:00:14Z</time>
      </trkpt>
      <trkpt lat="39.5869200" lon="-0.3852890">
        <ele>42.0</ele>
        <time>2018-05-01T06:00:18Z</time>
      </trkpt>
      <trkpt lat="39.5869030" lon="-0.3853530">
        <ele>41.8</ele>
        <time>2018-05-01T06:00:19Z</time>
      </trkpt>
      <trkpt lat="39.5868620" lon="-0.3854740">
        <ele>41.2</ele>
        <time>2018-05-01T06:00:21Z</time>
      </trkpt>
      <trkpt lat="39.5868230" lon="-0.3855990">
        <ele>40.8</ele>
        <time>2018-05-01T06:00:23Z</time>
      </trkpt>
      <trkpt lat="39.5867850" lon="-0.3857240">
        <ele>40.8</ele>
        <time>2018-05-01T06:00:25Z</time>
      </trkpt>
      <trkpt lat="39.5867280" lon="-0.3859070">
        <ele>40.6</ele>
        <time>2018-05-01T06:00:28Z</time>
      </trkpt>
      <trkpt lat="39.5866510" lon="-0.3861440">
        <ele>40.6</ele>
        <time>2018-05-01T06:00:32Z</time>
      </trkpt>
      <trkpt lat="39.5865870" lon="-0.3863780">
        <ele>40.8</ele>
        <time>2018-05-01T06:00:36Z</time>
      </trkpt>
      <trkpt lat="39.5866900" lon="-0.3865080">
        <ele>40.8</ele>
        <time>2018-05-01T06:00:40Z</time>
      </trkpt>
      <trkpt lat="39.5868120" lon="-0.3865380">
        <ele>41.2</ele>
        <time>2018-05-01T06:00:43Z</time>
      </trkpt>
      <trkpt lat="39.5870190" lon="-0.3865200">
        <ele>42.4</ele>
        <time>2018-05-01T06:00:48Z</time>
      </trkpt>
      <trkpt lat="39.5872210" lon="-0.3864770">
        <ele>42.8</ele>
        <time>2018-05-01T06:00:53Z</time>
      </trkpt>
      <trkpt lat="39.5873500" lon="-0.3864530">
        <ele>42.8</ele>
        <time>2018-05-01T06:00:56Z</time>
      </trkpt>
      <trkpt lat="39.5873930" lon="-0.3864410">
        <ele>42.8</ele>
        <time>2018-05-01T06:00:57Z</time>
      </trkpt>
      <trkpt lat="39.5876050" lon="-0.3863680">
        <ele>43.0</ele>
        <time>2018-05-01T06:01:02Z</time>
      </trkpt>
      <trkpt lat="39.5878170" lon="-0.3862980">
        <ele>43.0</ele>
        <time>2018-05-01T06:01:07Z</time>
      </trkpt>
      <trkpt lat="39.5879930" lon="-0.3862370">
        <ele>43.0</ele>
        <time>2018-05-01T06:01:11Z</time>
      </trkpt>
      <trkpt lat="39.5881630" lon="-0.3862030">
        <ele>43.0</ele>
        <time>2018-05-01T06:01:15Z</time>
      </trkpt>
      <trkpt lat="39.5883080" lon="-0.3862030">
        <ele>43.0</ele>
        <time>2018-05-01T06:01:18Z</time>
      </trkpt>
      <trkpt lat="39.5886310" lon="-0.3862490">
        <ele>42.4</ele>
        <time>2018-05-01T06:01:25Z</time>
      </trkpt>
      <trkpt lat="39.5887250" lon="-0.3862640">
        <ele>42.2</ele>
        <time>2018-05-01T06:01:27Z</time>
      </trkpt>
      <trkpt lat="39.5888160" lon="-0.3862800">
        <ele>42.2</ele>
        <time>2018-05-01T06:01:29Z</time>
      </trkpt>
      <trkpt lat="39.5889050" lon="-0.3862870">
        <ele>42.2</ele>
        <time>2018-05-01T06:01:31Z</time>
      </trkpt>
      <trkpt lat="39.5889480" lon="-0.3862820">
        <ele>42.2</ele>
        <time>2018-05-01T06:01:32Z</time>
      </trkpt>
      <trkpt lat="39.5891300" lon="-0.3862560">
        <ele>43.6</ele>
        <time>2018-05-01T06:01:36Z</time>
      </trkpt>
      <trkpt lat="39.5894160" lon="-0.3862210">
        <ele>44.0</ele>
        <time>2018-05-01T06:01:42Z</time>
      </trkpt>
      <trkpt lat="39.5895140" lon="-0.3862230">
        <ele>44.0</ele>
        <time>2018-05-01T06:01:44Z</time>
      </trkpt>
      <trkpt lat="39.5901000" lon="-0.3862520">
        <ele>44.2</ele>
        <time>2018-05-01T06:01:56Z</time>
      </trkpt>
      <trkpt lat="39.5902430" lon="-0.3862600">
        <ele>44.2</ele>
        <time>2018-05-01T06:01:59Z</time>
      </trkpt>
      <trkpt lat="39.5906180" lon="-0.3862930">
        <ele>44.6</ele>
        <time>2018-05-01T06:02:07Z</time>
      </trkpt>
      <trkpt lat="39.5907610" lon="-0.3863010">
        <ele>44.8</ele>
        <time>2018-05-01T06:02:10Z</time>
      </trkpt>
      <trkpt lat="39.5909480" lon="-0.3863300">
        <ele>45.0</ele>
        <time>2018-05-01T06:02:14Z</time>
      </trkpt>
      <trkpt lat="39.5914520" lon="-0.3864540">
        <ele>45.6</ele>
        <time>2018-05-01T06:02:25Z</time>
      </trkpt>
      <trkpt lat="39.5916860" lon="-0.3865060">
        <ele>46.4</ele>
        <time>2018-05-01T06:02:30Z</time>
      </trkpt>
      <trkpt lat="39.5917840" lon="-0.3865190">
        <ele>46.4</ele>
        <time>2018-05-01T06:02:32Z</time>
      </trkpt>
      <trkpt lat="39.5919270" lon="-0.3865490">
        <ele>46.6</ele>
        <time>2018-05-01T06:02:35Z</time>
      </trkpt>
      <trkpt lat="39.5921080" lon="-0.3866370">
        <ele>46.8</ele>
        <time>2018-05-01T06:02:39Z</time>
      </trkpt>
      <trkpt lat="39.5924630" lon="-0.3868090">
        <ele>47.0</ele>
        <time>2018-05-01T06:02:47Z</time>
      </trkpt>
      <trkpt lat="39.5926370" lon="-0.3868740">
        <ele>47.2</ele>
        <time>2018-05-01T06:02:51Z</time>
      </trkpt>
      <trkpt lat="39.5927690" lon="-0.3868950">
        <ele>47.2</ele>
        <time>2018-05-01T06:02:54Z</time>
      </trkpt>
      <trkpt lat="39.5929880" lon="-0.3869180">
        <ele>47.6</ele>
        <time>2018-05-01T06:02:59Z</time>
      </trkpt>
      <trkpt lat="39.5935310" lon="-0.3869370">
        <ele>48.4</ele>
        <time>2018-05-01T06:03:11Z</time>
      </trkpt>
      <trkpt lat="39.5935770" lon="-0.3869330">
        <ele>48.6</ele>
        <time>2018-05-01T06:03:12Z</time>
      </trkpt>
      <trkpt lat="39.5937520" lon="-0.3869160">
        <ele>48.8</ele>
        <time>2018-05-01T06:03:16Z</time>
      </trkpt>
      <trkpt lat="39.5938780" lon="-0.3868520">
        <ele>49.6</ele>
        <time>2018-05-01T06:03:19Z</time>
      </trkpt>
      <trkpt lat="39.5941080" lon="-0.3867700">
        <ele>50.2</ele>
        <time>2018-05-01T06:03:24Z</time>
      </trkpt>
      <trkpt lat="39.5943950" lon="-0.3867660">
        <ele>50.6</ele>
        <time>2018-05-01T06:03:30Z</time>
      </trkpt>
      <trkpt lat="39.5944420" lon="-0.3867710">
        <ele>50.6</ele>
        <time>2018-05-01T06:03:31Z</time>
      </trkpt>
      <trkpt lat="39.5950150" lon="-0.3869090">
        <ele>50.8</ele>
        <time>2018-05-01T06:03:43Z</time>
      </trkpt>
      <trkpt lat="39.5952040" lon="-0.3869310">
        <ele>51.0</ele>
        <time>2018-05-01T06:03:47Z</time>
      </trkpt>
      <trkpt lat="39.5954320" lon="-0.3869620">
        <ele>51.4</ele>
        <time>2018-05-01T06:03:52Z</time>
      </trkpt>
      <trkpt lat="39.5955230" lon="-0.3869640">
        <ele>51.6</ele>
        <time>2018-05-01T06:03:54Z</time>
      </trkpt>
      <trkpt lat="39.5955700" lon="-0.3869580">
        <ele>51.8</ele>
        <time>2018-05-01T06:03:55Z</time>
      </trkpt>
      <trkpt lat="39.5960850" lon="-0.3868560">
        <ele>52.8</ele>
        <time>2018-05-01T06:04:06Z</time>
      </trkpt>
      <trkpt lat="39.5961790" lon="-0.3868430">
        <ele>53.0</ele>
        <time>2018-05-01T06:04:08Z</time>
      </trkpt>
      <trkpt lat="39.5964700" lon="-0.3868310">
        <ele>53.2</ele>
        <time>2018-05-01T06:04:14Z</time>
      </trkpt>
      <trkpt lat="39.5967600" lon="-0.3868210">
        <ele>53.4</ele>
        <time>2018-05-01T06:04:20Z</time>
      </trkpt>
      <trkpt lat="39.5968980" lon="-0.3867790">
        <ele>53.6</ele>
        <time>2018-05-01T06:04:23Z</time>
      </trkpt>
      <trkpt lat="39.5969960" lon="-0.3866750">
        <ele>53.6</ele>
        <time>2018-05-01T06:04:26Z</time>
      </trkpt>
      <trkpt lat="39.5970360" lon="-0.3865060">
        <ele>53.8</ele>
        <time>2018-05-01T06:04:29Z</time>
      </trkpt>
      <trkpt lat="39.5970590" lon="-0.3864420">
        <ele>53.8</ele>
        <time>2018-05-01T06:04:30Z</time>
      </trkpt>
      <trkpt lat="39.5971330" lon="-0.3862120">
        <ele>53.8</ele>
        <time>2018-05-01T06:04:34Z</time>
      </trkpt>
      <trkpt lat="39.5970620" lon="-0.3858550">
        <ele>53.8</ele>
        <time>2018-05-01T06:04:41Z</time>
      </trkpt>
      <trkpt lat="39.5971650" lon="-0.3857090">
        <ele>53.6</ele>
        <time>2018-05-01T06:04:45Z</time>
      </trkpt>
      <trkpt lat="39.5973530" lon="-0.3854120">
        <ele>53.2</ele>
        <time>2018-05-01T06:04:52Z</time>
      </trkpt>
      <trkpt lat="39.5975940" lon="-0.3849640">
        <ele>53.2</ele>
        <time>2018-05-01T06:05:01Z</time>
      </trkpt>
      <trkpt lat="39.5979050" lon="-0.3843840">
        <ele>53.6</ele>
        <time>2018-05-01T06:05:12Z</time>
      </trkpt>
      <trkpt lat="39.5979850" lon="-0.3842210">
        <ele>53.6</ele>
        <time>2018-05-01T06:05:15Z</time>
      </trkpt>
      <trkpt lat="39.5980560" lon="-0.3840640">
        <ele>53.8</ele>
        <time>2018-05-01T06:05:18Z</time>
      </trkpt>
      <trkpt lat="39.5980710" lon="-0.3840040">
        <ele>53.8</ele>
        <time>2018-05-01T06:05:19Z</time>
      </trkpt>
      <trkpt lat="39.5980960" lon="-0.3836830">
        <ele>54.0</ele>
        <time>2018-05-01T06:05:24Z</time>
      </trkpt>
      <trkpt lat="39.5981450" lon="-0.3835050">
        <ele>54.2</ele>
        <time>2018-05-01T06:05:27Z</time>
      </trkpt>
      <trkpt lat="39.5982150" lon="-0.3833490">
        <ele>54.6</ele>
        <time>2018-05-01T06:05:30Z</time>
      </trkpt>
      <trkpt lat="39.5984480" lon="-0.3828630">
        <ele>54.6</ele>
        <time>2018-05-01T06:05:39Z</time>
      </trkpt>
      <trkpt lat="39.5985140" lon="-0.3826860">
        <ele>54.2</ele>
        <time>2018-05-01T06:05:42Z</time>
      </trkpt>
      <trkpt lat="39.5985710" lon="-0.3824970">
        <ele>54.2</ele>
        <time>2018-05-01T06:05:45Z</time>
      </trkpt>
      <trkpt lat="39.5986160" lon="-0.3823800">
        <ele>54.2</ele>
        <time>2018-05-01T06:05:47Z</time>
      </trkpt>
      <trkpt lat="39.5988850" lon="-0.3817390">
        <ele>54.6</ele>
        <time>2018-05-01T06:05:58Z</time>
      </trkpt>
      <trkpt lat="39.5989610" lon="-0.3815640">
        <ele>54.6</ele>
        <time>2018-05-01T06:06:01Z</time>
      </trkpt>
      <trkpt lat="39.5990600" lon="-0.3813330">
        <ele>54.6</ele>
        <time>2018-05-01T06:06:05Z</time>
      </trkpt>
      <trkpt lat="39.5991830" lon="-0.3810400">
        <ele>54.6</ele>
        <time>2018-05-01T06:06:10Z</time>
      </trkpt>
      <trkpt lat="39.5993060" lon="-0.3807540">
        <ele>54.8</ele>
        <time>2018-05-01T06:06:15Z</time>
      </trkpt>
      <trkpt lat="39.5994000" lon="-0.3805180">
        <ele>55.0</ele>
        <time>2018-05-01T06:06:19Z</time>
      </trkpt>
      <trkpt lat="39.5996380" lon="-0.3799730">
        <ele>55.8</ele>
        <time>2018-05-01T06:06:29Z</time>
      </trkpt>
      <trkpt lat="39.5997870" lon="-0.3799390">
        <ele>56.0</ele>
        <time>2018-05-01T06:06:33Z</time>
      </trkpt>
      <trkpt lat="39.5998250" lon="-0.3799630">
        <ele>56.0</ele>
        <time>2018-05-01T06:06:34Z</time>
      </trkpt>
      <trkpt lat="39.6001000" lon="-0.3801110">
        <ele>56.2</ele>
        <time>2018-05-01T06:06:40Z</time>
      </trkpt>
      <trkpt lat="39.6002740" lon="-0.3802120">
        <ele>56.2</ele>
        <time>2018-05-01T06:06:44Z</time>
      </trkpt>
      <trkpt lat="39.6004020" lon="-0.3802890">
        <ele>56.4</ele>
        <time>2018-05-01T06:06:47Z</time>
      </trkpt>
      <trkpt lat="39.6007680" lon="-0.3804980">
        <ele>56.6</ele>
        <time>2018-05-01T06:06:56Z</time>
      </trkpt>
      <trkpt lat="39.6008930" lon="-0.3805630">
        <ele>57.4</ele>
        <time>2018-05-01T06:06:59Z</time>
      </trkpt>
      <trkpt lat="39.6009710" lon="-0.3806000">
        <ele>57.6</ele>
        <time>2018-05-01T06:07:01Z</time>
      </trkpt>
      <trkpt lat="39.6010530" lon="-0.3806350">
        <ele>58.0</ele>
        <time>2018-05-01T06:07:03Z</time>
      </trkpt>
      <trkpt lat="39.6011650" lon="-0.3806620">
        <ele>58.4</ele>
        <time>2018-05-01T06:07:06Z</time>
      </trkpt>
      <trkpt lat="39.6012310" lon="-0.3806400">
        <ele>58.6</ele>
        <time>2018-05-01T06:07:08Z</time>
      </trkpt>
      <trkpt lat="39.6012740" lon="-0.3805970">
        <ele>59.0</ele>
        <time>2018-05-01T06:07:10Z</time>
      </trkpt>
      <trkpt lat="39.6012830" lon="-0.3805580">
        <ele>59.4</ele>
        <time>2018-05-01T06:07:12Z</time>
      </trkpt>
      <trkpt lat="39.6012620" lon="-0.3805530">
        <ele>59.8</ele>
        <time>2018-05-01T06:07:14Z</time>
      </trkpt>
      <trkpt lat="39.6012580" lon="-0.3807260">
        <ele>60.0</ele>
        <time>2018-05-01T06:07:18Z</time>
      </trkpt>
      <trkpt lat="39.6012800" lon="-0.3808410">
        <ele>60.4</ele>
        <time>2018-05-01T06:07:22Z</time>
      </trkpt>
      <trkpt lat="39.6012580" lon="-0.3808670">
        <ele>60.8</ele>
        <time>2018-05-01T06:07:31Z</time>
      </trkpt>
      <trkpt lat="39.6012170" lon="-0.3811150">
        <ele>60.8</ele>
        <time>2018-05-01T06:07:38Z</time>
      </trkpt>
      <trkpt lat="39.6012170" lon="-0.3812060">
        <ele>60.8</ele>
        <time>2018-05-01T06:07:40Z</time>
      </trkpt>
      <trkpt lat="39.6013010" lon="-0.3811860">
        <ele>60.8</ele>
        <time>2018-05-01T06:07:44Z</time>
      </trkpt>
      <trkpt lat="39.6013230" lon="-0.3810930">
        <ele>60.8</ele>
        <time>2018-05-01T06:07:46Z</time>
      </trkpt>
      <trkpt lat="39.6013490" lon="-0.3808610">
        <ele>60.8</ele>
        <time>2018-05-01T06:07:50Z</time>
      </trkpt>
      <trkpt lat="39.6013860" lon="-0.3803300">
        <ele>61.2</ele>
        <time>2018-05-01T06:07:58Z</time>
      </trkpt>
      <trkpt lat="39.6013460" lon="-0.3800660">
        <ele>61.2</ele>
        <time>2018-05-01T06:08:02Z</time>
      </trkpt>
      <trkpt lat="39.6011870" lon="-0.3797230">
        <ele>61.4</ele>
        <time>2018-05-01T06:08:08Z</time>
      </trkpt>
      <trkpt lat="39.6014110" lon="-0.3792270">
        <ele>61.6</ele>
        <time>2018-05-01T06:08:17Z</time>
      </trkpt>
      <trkpt lat="39.6014520" lon="-0.3791820">
        <ele>61.6</ele>
        <time>2018-05-01T06:08:18Z</time>
      </trkpt>
      <trkpt lat="39.6015270" lon="-0.3790750">
        <ele>61.8</ele>
        <time>2018-05-01T06:08:20Z</time>
      </trkpt>
      <trkpt lat="39.6016160" lon="-0.3788230">
        <ele>61.8</ele>
        <time>2018-05-01T06:08:24Z</time>
      </trkpt>
      <trkpt lat="39.6017220" lon="-0.3783050">
        <ele>61.4</ele>
        <time>2018-05-01T06:08:31Z</time>
      </trkpt>
      <trkpt lat="39.6019610" lon="-0.3777030">
        <ele>60.4</ele>
        <time>2018-05-01T06:08:39Z</time>
      </trkpt>
      <trkpt lat="39.6020750" lon="-0.3774010">
        <ele>59.8</ele>
        <time>2018-05-01T06:08:43Z</time>
      </trkpt>
      <trkpt lat="39.6022390" lon="-0.3767110">
        <ele>59.4</ele>
        <time>2018-05-01T06:08:52Z</time>
      </trkpt>
      <trkpt lat="39.6022640" lon="-0.3765470">
        <ele>59.4</ele>
        <time>2018-05-01T06:08:54Z</time>
      </trkpt>
      <trkpt lat="39.6022480" lon="-0.3760030">
        <ele>59.6</ele>
        <time>2018-05-01T06:09:01Z</time>
      </trkpt>
      <trkpt lat="39.6022230" lon="-0.3758610">
        <ele>59.6</ele>
        <time>2018-05-01T06:09:03Z</time>
      </trkpt>
      <trkpt lat="39.6022040" lon="-0.3757260">
        <ele>59.6</ele>
        <time>2018-05-01T06:09:05Z</time>
      </trkpt>
      <trkpt lat="39.6022010" lon="-0.3756620">
        <ele>59.6</ele>
        <time>2018-05-01T06:09:06Z</time>
      </trkpt>
      <trkpt lat="39.6023510" lon="-0.3755060">
        <ele>59.6</ele>
        <time>2018-05-01T06:09:10Z</time>
      </trkpt>
      <trkpt lat="39.6025300" lon="-0.3753690">
        <ele>60.0</ele>
        <time>2018-05-01T06:09:14Z</time>
      </trkpt>
      <trkpt lat="39.6026220" lon="-0.3752980">
        <ele>60.0</ele>
        <time>2018-05-01T06:09:16Z</time>
      </trkpt>
      <trkpt lat="39.6027500" lon="-0.3751670">
        <ele>60.2</ele>
        <time>2018-05-01T06:09:19Z</time>
      </trkpt>
      <trkpt lat="39.6029020" lon="-0.3749680">
        <ele>60.2</ele>
        <time>2018-05-01T06:09:23Z</time>
      </trkpt>
      <trkpt lat="39.6031670" lon="-0.3746240">
        <ele>60.4</ele>
        <time>2018-05-01T06:09:30Z</time>
      </trkpt>
      <trkpt lat="39.6033120" lon="-0.3744370">
        <ele>60.8</ele>
        <time>2018-05-01T06:09:34Z</time>
      </trkpt>
      <trkpt lat="39.6033530" lon="-0.3743930">
        <ele>60.8</ele>
        <time>2018-05-01T06:09:35Z</time>
      </trkpt>
      <trkpt lat="39.6034980" lon="-0.3742980">
        <ele>61.0</ele>
        <time>2018-05-01T06:09:38Z</time>
      </trkpt>
      <trkpt lat="39.6036660" lon="-0.3742740">
        <ele>61.0</ele>
        <time>2018-05-01T06:09:41Z</time>
      </trkpt>
      <trkpt lat="39.6038330" lon="-0.3743030">
        <ele>61.0</ele>
        <time>2018-05-01T06:09:44Z</time>
      </trkpt>
      <trkpt lat="39.6039370" lon="-0.3743460">
        <ele>61.0</ele>
        <time>2018-05-01T06:09:46Z</time>
      </trkpt>
      <trkpt lat="39.6042860" lon="-0.3746790">
        <ele>61.2</ele>
        <time>2018-05-01T06:09:54Z</time>
      </trkpt>
      <trkpt lat="39.6044920" lon="-0.3749920">
        <ele>61.2</ele>
        <time>2018-05-01T06:10:00Z</time>
      </trkpt>
      <trkpt lat="39.6046960" lon="-0.3752860">
        <ele>61.6</ele>
        <time>2018-05-01T06:10:06Z</time>
      </trkpt>
      <trkpt lat="39.6048800" lon="-0.3755070">
        <ele>62.0</ele>
        <time>2018-05-01T06:10:11Z</time>
      </trkpt>
      <trkpt lat="39.6051770" lon="-0.3758450">
        <ele>62.6</ele>
        <time>2018-05-01T06:10:19Z</time>
      </trkpt>
      <trkpt lat="39.6052180" lon="-0.3758760">
        <ele>62.8</ele>
        <time>2018-05-01T06:10:20Z</time>
      </trkpt>
      <trkpt lat="39.6054560" lon="-0.3758670">
        <ele>63.2</ele>
        <time>2018-05-01T06:10:25Z</time>
      </trkpt>
      <trkpt lat="39.6059120" lon="-0.3757230">
        <ele>63.6</ele>
        <time>2018-05-01T06:10:34Z</time>
      </trkpt>
      <trkpt lat="39.6059550" lon="-0.3756960">
        <ele>63.6</ele>
        <time>2018-05-01T06:10:35Z</time>
      </trkpt>
      <trkpt lat="39.6063600" lon="-0.3753730">
        <ele>64.8</ele>
        <time>2018-05-01T06:10:45Z</time>
      </trkpt>
      <trkpt lat="39.6066720" lon="-0.3751880">
        <ele>65.2</ele>
        <time>2018-05-01T06:10:52Z</time>
      </trkpt>
      <trkpt lat="39.6069630" lon="-0.3750240">
        <ele>65.8</ele>
        <time>2018-05-01T06:10:59Z</time>
      </trkpt>
      <trkpt lat="39.6075010" lon="-0.3747220">
        <ele>66.8</ele>
        <time>2018-05-01T06:11:11Z</time>
      </trkpt>
      <trkpt lat="39.6077290" lon="-0.3745920">
        <ele>66.8</ele>
        <time>2018-05-01T06:11:16Z</time>
      </trkpt>
      <trkpt lat="39.6079530" lon="-0.3744670">
        <ele>67.2</ele>
        <time>2018-05-01T06:11:21Z</time>
      </trkpt>
      <trkpt lat="39.6081720" lon="-0.3743420">
        <ele>68.0</ele>
        <time>2018-05-01T06:11:26Z</time>
      </trkpt>
      <trkpt lat="39.6084330" lon="-0.3741970">
        <ele>69.2</ele>
        <time>2018-05-01T06:11:32Z</time>
      </trkpt>
      <trkpt lat="39.6086020" lon="-0.3741150">
        <ele>69.4</ele>
        <time>2018-05-01T06:11:36Z</time>
      </trkpt>
      <trkpt lat="39.6086800" lon="-0.3740730">
        <ele>69.6</ele>
        <time>2018-05-01T06:11:38Z</time>
      </trkpt>
      <trkpt lat="39.6088270" lon="-0.3740030">
        <ele>70.0</ele>
        <time>2018-05-01T06:11:42Z</time>
      </trkpt>
      <trkpt lat="39.6088630" lon="-0.3739860">
        <ele>70.2</ele>
        <time>2018-05-01T06:11:43Z</time>
      </trkpt>
      <trkpt lat="39.6089060" lon="-0.3739770">
        <ele>70.4</ele>
        <time>2018-05-01T06:11:44Z</time>
      </trkpt>
      <trkpt lat="39.6090340" lon="-0.3739520">
        <ele>71.2</ele>
        <time>2018-05-01T06:11:47Z</time>
      </trkpt>
      <trkpt lat="39.6090760" lon="-0.3739390">
        <ele>71.4</ele>
        <time>2018-05-01T06:11:48Z</time>
      </trkpt>
      <trkpt lat="39.6093720" lon="-0.3738570">
        <ele>72.4</ele>
        <time>2018-05-01T06:11:55Z</time>
      </trkpt>
      <trkpt lat="39.6097650" lon="-0.3737240">
        <ele>73.6</ele>
        <time>2018-05-01T06:12:04Z</time>
      </trkpt>
      <trkpt lat="39.6101210" lon="-0.3736190">
        <ele>73.8</ele>
        <time>2018-05-01T06:12:12Z</time>
      </trkpt>
      <trkpt lat="39.6104700" lon="-0.3735020">
        <ele>74.6</ele>
        <time>2018-05-01T06:12:20Z</time>
      </trkpt>
      <trkpt lat="39.6108010" lon="-0.3734020">
        <ele>75.2</ele>
        <time>2018-05-01T06:12:28Z</time>
      </trkpt>
      <trkpt lat="39.6108800" lon="-0.3733700">
        <ele>75.2</ele>
        <time>2018-05-01T06:12:30Z</time>
      </trkpt>
      <trkpt lat="39.6109590" lon="-0.3733390">
        <ele>75.8</ele>
        <time>2018-05-01T06:12:32Z</time>
      </trkpt>
      <trkpt lat="39.6112160" lon="-0.3732500">
        <ele>76.8</ele>
        <time>2018-05-01T06:12:39Z</time>
      </trkpt>
      <trkpt lat="39.6113150" lon="-0.3732190">
        <ele>77.2</ele>
        <time>2018-05-01T06:12:42Z</time>
      </trkpt>
      <trkpt lat="39.6114080" lon="-0.3731880">
        <ele>78.0</ele>
        <time>2018-05-01T06:12:45Z</time>
      </trkpt>
      <trkpt lat="39.6115320" lon="-0.3731480">
        <ele>78.6</ele>
        <time>2018-05-01T06:12:49Z</time>
      </trkpt>
      <trkpt lat="39.6115640" lon="-0.3731380">
        <ele>79.0</ele>
        <time>2018-05-01T06:12:50Z</time>
      </trkpt>
      <trkpt lat="39.6116820" lon="-0.3731050">
        <ele>80.0</ele>
        <time>2018-05-01T06:12:54Z</time>
      </trkpt>
      <trkpt lat="39.6118630" lon="-0.3730500">
        <ele>81.2</ele>
        <time>2018-05-01T06:13:00Z</time>
      </trkpt>
      <trkpt lat="39.6120200" lon="-0.3729820">
        <ele>82.4</ele>
        <time>2018-05-01T06:13:05Z</time>
      </trkpt>
      <trkpt lat="39.6122220" lon="-0.3729150">
        <ele>83.6</ele>
        <time>2018-05-01T06:13:11Z</time>
      </trkpt>
      <trkpt lat="39.6124010" lon="-0.3728550">
        <ele>84.8</ele>
        <time>2018-05-01T06:13:16Z</time>
      </trkpt>
      <trkpt lat="39.6125260" lon="-0.3728080">
        <ele>85.0</ele>
        <time>2018-05-01T06:13:19Z</time>
      </trkpt>
      <trkpt lat="39.6126540" lon="-0.3727650">
        <ele>85.0</ele>
        <time>2018-05-01T06:13:22Z</time>
      </trkpt>
      <trkpt lat="39.6127940" lon="-0.3727130">
        <ele>85.0</ele>
        <time>2018-05-01T06:13:25Z</time>
      </trkpt>
      <trkpt lat="39.6129380" lon="-0.3726550">
        <ele>85.0</ele>
        <time>2018-05-01T06:13:28Z</time>
      </trkpt>
      <trkpt lat="39.6130300" lon="-0.3726070">
        <ele>84.6</ele>
        <time>2018-05-01T06:13:30Z</time>
      </trkpt>
      <trkpt lat="39.6131250" lon="-0.3725490">
        <ele>84.2</ele>
        <time>2018-05-01T06:13:32Z</time>
      </trkpt>
      <trkpt lat="39.6132240" lon="-0.3724710">
        <ele>84.0</ele>
        <time>2018-05-01T06:13:34Z</time>
      </trkpt>
      <trkpt lat="39.6132760" lon="-0.3724280">
        <ele>83.8</ele>
        <time>2018-05-01T06:13:35Z</time>
      </trkpt>
      <trkpt lat="39.6133290" lon="-0.3723850">
        <ele>83.8</ele>
        <time>2018-05-01T06:13:36Z</time>
      </trkpt>
      <trkpt lat="39.6133820" lon="-0.3723400">
        <ele>83.6</ele>
        <time>2018-05-01T06:13:37Z</time>
      </trkpt>
      <trkpt lat="39.6134360" lon="-0.3722930">
        <ele>83.6</ele>
        <time>2018-05-01T06:13:38Z</time>
      </trkpt>
      <trkpt lat="39.6134930" lon="-0.3722500">
        <ele>83.2</ele>
        <time>2018-05-01T06:13:39Z</time>
      </trkpt>
      <trkpt lat="39.6136060" lon="-0.3721620">
        <ele>82.4</ele>
        <time>2018-05-01T06:13:41Z</time>
      </trkpt>
      <trkpt lat="39.6137730" lon="-0.3720250">
        <ele>81.4</ele>
        <time>2018-05-01T06:13:44Z</time>
      </trkpt>
      <trkpt lat="39.6139470" lon="-0.3718870">
        <ele>80.2</ele>
        <time>2018-05-01T06:13:47Z</time>
      </trkpt>
      <trkpt lat="39.6142060" lon="-0.3716850">
        <ele>79.2</ele>
        <time>2018-05-01T06:13:51Z</time>
      </trkpt>
      <trkpt lat="39.6144760" lon="-0.3714730">
        <ele>78.0</ele>
        <time>2018-05-01T06:13:55Z</time>
      </trkpt>
      <trkpt lat="39.6146740" lon="-0.3713200">
        <ele>76.4</ele>
        <time>2018-05-01T06:13:58Z</time>
      </trkpt>
      <trkpt lat="39.6148000" lon="-0.3712210">
        <ele>75.4</ele>
        <time>2018-05-01T06:14:00Z</time>
      </trkpt>
      <trkpt lat="39.6149860" lon="-0.3710790">
        <ele>74.2</ele>
        <time>2018-05-01T06:14:03Z</time>
      </trkpt>
      <trkpt lat="39.6154480" lon="-0.3707130">
        <ele>73.4</ele>
        <time>2018-05-01T06:14:11Z</time>
      </trkpt>
      <trkpt lat="39.6156560" lon="-0.3705420">
        <ele>73.4</ele>
        <time>2018-05-01T06:14:15Z</time>
      </trkpt>
      <trkpt lat="39.6157570" lon="-0.3704610">
        <ele>73.4</ele>
        <time>2018-05-01T06:14:17Z</time>
      </trkpt>
      <trkpt lat="39.6158550" lon="-0.3703830">
        <ele>73.4</ele>
        <time>2018-05-01T06:14:19Z</time>
      </trkpt>
      <trkpt lat="39.6159940" lon="-0.3702640">
        <ele>73.6</ele>
        <time>2018-05-01T06:14:22Z</time>
      </trkpt>
      <trkpt lat="39.6160890" lon="-0.3701880">
        <ele>73.8</ele>
        <time>2018-05-01T06:14:24Z</time>
      </trkpt>
      <trkpt lat="39.6161850" lon="-0.3701120">
        <ele>74.2</ele>
        <time>2018-05-01T06:14:26Z</time>
      </trkpt>
      <trkpt lat="39.6162820" lon="-0.3700360">
        <ele>74.4</ele>
        <time>2018-05-01T06:14:28Z</time>
      </trkpt>
      <trkpt lat="39.6167790" lon="-0.3696570">
        <ele>75.0</ele>
        <time>2018-05-01T06:14:39Z</time>
      </trkpt>
      <trkpt lat="39.6168230" lon="-0.3696280">
        <ele>75.2</ele>
        <time>2018-05-01T06:14:40Z</time>
      </trkpt>
      <trkpt lat="39.6168690" lon="-0.3696030">
        <ele>75.2</ele>
        <time>2018-05-01T06:14:41Z</time>
      </trkpt>
      <trkpt lat="39.6169520" lon="-0.3695520">
        <ele>75.6</ele>
        <time>2018-05-01T06:14:43Z</time>
      </trkpt>
      <trkpt lat="39.6170210" lon="-0.3694890">
        <ele>75.8</ele>
        <time>2018-05-01T06:14:45Z</time>
      </trkpt>
      <trkpt lat="39.6170920" lon="-0.3694250">
        <ele>76.2</ele>
        <time>2018-05-01T06:14:47Z</time>
      </trkpt>
      <trkpt lat="39.6171670" lon="-0.3693640">
        <ele>76.6</ele>
        <time>2018-05-01T06:14:49Z</time>
      </trkpt>
      <trkpt lat="39.6172410" lon="-0.3692980">
        <ele>77.4</ele>
        <time>2018-05-01T06:14:51Z</time>
      </trkpt>
      <trkpt lat="39.6173510" lon="-0.3692050">
        <ele>78.2</ele>
        <time>2018-05-01T06:14:54Z</time>
      </trkpt>
      <trkpt lat="39.6174650" lon="-0.3691210">
        <ele>78.4</ele>
        <time>2018-05-01T06:14:57Z</time>
      </trkpt>
      <trkpt lat="39.6175410" lon="-0.3690680">
        <ele>79.0</ele>
        <time>2018-05-01T06:14:59Z</time>
      </trkpt>
      <trkpt lat="39.6176880" lon="-0.3689540">
        <ele>79.6</ele>
        <time>2018-05-01T06:15:03Z</time>
      </trkpt>
      <trkpt lat="39.6177230" lon="-0.3689220">
        <ele>79.8</ele>
        <time>2018-05-01T06:15:04Z</time>
      </trkpt>
      <trkpt lat="39.6178230" lon="-0.3688250">
        <ele>80.2</ele>
        <time>2018-05-01T06:15:07Z</time>
      </trkpt>
      <trkpt lat="39.6179220" lon="-0.3687150">
        <ele>80.8</ele>
        <time>2018-05-01T06:15:10Z</time>
      </trkpt>
      <trkpt lat="39.6181300" lon="-0.3684950">
        <ele>81.8</ele>
        <time>2018-05-01T06:15:16Z</time>
      </trkpt>
      <trkpt lat="39.6182340" lon="-0.3683820">
        <ele>82.0</ele>
        <time>2018-05-01T06:15:19Z</time>
      </trkpt>
      <trkpt lat="39.6183410" lon="-0.3682750">
        <ele>82.2</ele>
        <time>2018-05-01T06:15:22Z</time>
      </trkpt>
      <trkpt lat="39.6185490" lon="-0.3680460">
        <ele>82.8</ele>
        <time>2018-05-01T06:15:28Z</time>
      </trkpt>
      <trkpt lat="39.6187340" lon="-0.3678320">
        <ele>83.0</ele>
        <time>2018-05-01T06:15:33Z</time>
      </trkpt>
      <trkpt lat="39.6188120" lon="-0.3677340">
        <ele>83.0</ele>
        <time>2018-05-01T06:15:35Z</time>
      </trkpt>
      <trkpt lat="39.6188880" lon="-0.3676360">
        <ele>83.0</ele>
        <time>2018-05-01T06:15:37Z</time>
      </trkpt>
      <trkpt lat="39.6189550" lon="-0.3675260">
        <ele>83.0</ele>
        <time>2018-05-01T06:15:39Z</time>
      </trkpt>
      <trkpt lat="39.6190080" lon="-0.3674080">
        <ele>83.0</ele>
        <time>2018-05-01T06:15:41Z</time>
      </trkpt>
      <trkpt lat="39.6190580" lon="-0.3672820">
        <ele>82.6</ele>
        <time>2018-05-01T06:15:43Z</time>
      </trkpt>
      <trkpt lat="39.6191460" lon="-0.3670060">
        <ele>82.0</ele>
        <time>2018-05-01T06:15:47Z</time>
      </trkpt>
      <trkpt lat="39.6191950" lon="-0.3668720">
        <ele>81.6</ele>
        <time>2018-05-01T06:15:49Z</time>
      </trkpt>
      <trkpt lat="39.6192180" lon="-0.3668050">
        <ele>81.6</ele>
        <time>2018-05-01T06:15:50Z</time>
      </trkpt>
      <trkpt lat="39.6192810" lon="-0.3666010">
        <ele>81.2</ele>
        <time>2018-05-01T06:15:53Z</time>
      </trkpt>
      <trkpt lat="39.6193480" lon="-0.3663930">
        <ele>81.0</ele>
        <time>2018-05-01T06:15:56Z</time>
      </trkpt>
      <trkpt lat="39.6194310" lon="-0.3661160">
        <ele>80.6</ele>
        <time>2018-05-01T06:16:00Z</time>
      </trkpt>
      <trkpt lat="39.6194690" lon="-0.3659870">
        <ele>80.6</ele>
        <time>2018-05-01T06:16:02Z</time>
      </trkpt>
      <trkpt lat="39.6195070" lon="-0.3658660">
        <ele>80.6</ele>
        <time>2018-05-01T06:16:04Z</time>
      </trkpt>
      <trkpt lat="39.6195850" lon="-0.3656200">
        <ele>80.6</ele>
        <time>2018-05-01T06:16:08Z</time>
      </trkpt>
      <trkpt lat="39.6196880" lon="-0.3653030">
        <ele>81.2</ele>
        <time>2018-05-01T06:16:13Z</time>
      </trkpt>
      <trkpt lat="39.6198340" lon="-0.3648010">
        <ele>81.4</ele>
        <time>2018-05-01T06:16:21Z</time>
      </trkpt>
      <trkpt lat="39.6198740" lon="-0.3646910">
        <ele>81.6</ele>
        <time>2018-05-01T06:16:23Z</time>
      </trkpt>
      <trkpt lat="39.6200190" lon="-0.3642260">
        <ele>81.6</ele>
        <time>2018-05-01T06:16:30Z</time>
      </trkpt>
      <trkpt lat="39.6201020" lon="-0.3639540">
        <ele>81.4</ele>
        <time>2018-05-01T06:16:34Z</time>
      </trkpt>
      <trkpt lat="39.6202000" lon="-0.3636120">
        <ele>80.6</ele>
        <time>2018-05-01T06:16:39Z</time>
      </trkpt>
      <trkpt lat="39.6203700" lon="-0.3630600">
        <ele>80.4</ele>
        <time>2018-05-01T06:16:47Z</time>
      </trkpt>
      <trkpt lat="39.6205490" lon="-0.3624980">
        <ele>79.6</ele>
        <time>2018-05-01T06:16:55Z</time>
      </trkpt>
      <trkpt lat="39.6207000" lon="-0.3619970">
        <ele>78.8</ele>
        <time>2018-05-01T06:17:02Z</time>
      </trkpt>
      <trkpt lat="39.6207450" lon="-0.3618460">
        <ele>78.4</ele>
        <time>2018-05-01T06:17:04Z</time>
      </trkpt>
      <trkpt lat="39.6209180" lon="-0.3613190">
        <ele>77.4</ele>
        <time>2018-05-01T06:17:11Z</time>
      </trkpt>
      <trkpt lat="39.6211070" lon="-0.3607180">
        <ele>76.2</ele>
        <time>2018-05-01T06:17:19Z</time>
      </trkpt>
      <trkpt lat="39.6211560" lon="-0.3605750">
        <ele>76.2</ele>
        <time>2018-05-01T06:17:21Z</time>
      </trkpt>
      <trkpt lat="39.6213750" lon="-0.3598550">
        <ele>75.6</ele>
        <time>2018-05-01T06:17:31Z</time>
      </trkpt>
      <trkpt lat="39.6214250" lon="-0.3597160">
        <ele>75.6</ele>
        <time>2018-05-01T06:17:33Z</time>
      </trkpt>
      <trkpt lat="39.6214870" lon="-0.3595000">
        <ele>75.4</ele>
        <time>2018-05-01T06:17:36Z</time>
      </trkpt>
      <trkpt lat="39.6215340" lon="-0.3593590">
        <ele>75.2</ele>
        <time>2018-05-01T06:17:38Z</time>
      </trkpt>
      <trkpt lat="39.6216020" lon="-0.3591420">
        <ele>75.2</ele>
        <time>2018-05-01T06:17:41Z</time>
      </trkpt>
      <trkpt lat="39.6218050" lon="-0.3584900">
        <ele>74.4</ele>
        <time>2018-05-01T06:17:50Z</time>
      </trkpt>
      <trkpt lat="39.6218260" lon="-0.3584210">
        <ele>74.2</ele>
        <time>2018-05-01T06:17:51Z</time>
      </trkpt>
      <trkpt lat="39.6219560" lon="-0.3580160">
        <ele>73.8</ele>
        <time>2018-05-01T06:17:57Z</time>
      </trkpt>
      <trkpt lat="39.6220320" lon="-0.3579320">
        <ele>73.8</ele>
        <time>2018-05-01T06:17:59Z</time>
      </trkpt>
      <trkpt lat="39.6221270" lon="-0.3579180">
        <ele>73.8</ele>
        <time>2018-05-01T06:18:01Z</time>
      </trkpt>
      <trkpt lat="39.6222220" lon="-0.3579100">
        <ele>73.8</ele>
        <time>2018-05-01T06:18:04Z</time>
      </trkpt>
      <trkpt lat="39.6224100" lon="-0.3579820">
        <ele>73.8</ele>
        <time>2018-05-01T06:18:10Z</time>
      </trkpt>
      <trkpt lat="39.6229230" lon="-0.3583620">
        <ele>73.4</ele>
        <time>2018-05-01T06:18:19Z</time>
      </trkpt>
      <trkpt lat="39.6229890" lon="-0.3584190">
        <ele>72.8</ele>
        <time>2018-05-01T06:18:20Z</time>
      </trkpt>
      <trkpt lat="39.6230610" lon="-0.3584580">
        <ele>72.0</ele>
        <time>2018-05-01T06:18:21Z</time>
      </trkpt>
      <trkpt lat="39.6231380" lon="-0.3584670">
        <ele>71.2</ele>
        <time>2018-05-01T06:18:22Z</time>
      </trkpt>
      <trkpt lat="39.6232680" lon="-0.3583970">
        <ele>69.8</ele>
        <time>2018-05-01T06:18:24Z</time>
      </trkpt>
      <trkpt lat="39.6233140" lon="-0.3582630">
        <ele>68.4</ele>
        <time>2018-05-01T06:18:26Z</time>
      </trkpt>
      <trkpt lat="39.6233110" lon="-0.3580890">
        <ele>68.2</ele>
        <time>2018-05-01T06:18:29Z</time>
      </trkpt>
      <trkpt lat="39.6233120" lon="-0.3580390">
        <ele>68.2</ele>
        <time>2018-05-01T06:18:30Z</time>
      </trkpt>
      <trkpt lat="39.6233190" lon="-0.3579470">
        <ele>68.0</ele>
        <time>2018-05-01T06:18:32Z</time>
      </trkpt>
      <trkpt lat="39.6233370" lon="-0.3578680">
        <ele>68.0</ele>
        <time>2018-05-01T06:18:34Z</time>
      </trkpt>
      <trkpt lat="39.6233720" lon="-0.3578010">
        <ele>68.8</ele>
        <time>2018-05-01T06:18:36Z</time>
      </trkpt>
      <trkpt lat="39.6234270" lon="-0.3577670">
        <ele>70.2</ele>
        <time>2018-05-01T06:18:38Z</time>
      </trkpt>
      <trkpt lat="39.6234580" lon="-0.3577620">
        <ele>71.4</ele>
        <time>2018-05-01T06:18:39Z</time>
      </trkpt>
      <trkpt lat="39.6235180" lon="-0.3577660">
        <ele>72.4</ele>
        <time>2018-05-01T06:18:41Z</time>
      </trkpt>
      <trkpt lat="39.6235500" lon="-0.3577720">
        <ele>72.8</ele>
        <time>2018-05-01T06:18:42Z</time>
      </trkpt>
      <trkpt lat="39.6236080" lon="-0.3577870">
        <ele>73.4</ele>
        <time>2018-05-01T06:18:44Z</time>
      </trkpt>
      <trkpt lat="39.6236690" lon="-0.3577990">
        <ele>73.8</ele>
        <time>2018-05-01T06:18:46Z</time>
      </trkpt>
      <trkpt lat="39.6237910" lon="-0.3578320">
        <ele>74.6</ele>
        <time>2018-05-01T06:18:50Z</time>
      </trkpt>
      <trkpt lat="39.6238220" lon="-0.3578410">
        <ele>75.0</ele>
        <time>2018-05-01T06:18:51Z</time>
      </trkpt>
      <trkpt lat="39.6239990" lon="-0.3578680">
        <ele>76.0</ele>
        <time>2018-05-01T06:18:57Z</time>
      </trkpt>
      <trkpt lat="39.6241520" lon="-0.3578770">
        <ele>77.2</ele>
        <time>2018-05-01T06:19:02Z</time>
      </trkpt>
      <trkpt lat="39.6243320" lon="-0.3578580">
        <ele>78.2</ele>
        <time>2018-05-01T06:19:08Z</time>
      </trkpt>
      <trkpt lat="39.6245520" lon="-0.3578110">
        <ele>79.4</ele>
        <time>2018-05-01T06:19:15Z</time>
      </trkpt>
      <trkpt lat="39.6247800" lon="-0.3577620">
        <ele>80.6</ele>
        <time>2018-05-01T06:19:22Z</time>
      </trkpt>
      <trkpt lat="39.6249770" lon="-0.3577210">
        <ele>81.6</ele>
        <time>2018-05-01T06:19:28Z</time>
      </trkpt>
      <trkpt lat="39.6253230" lon="-0.3576590">
        <ele>82.6</ele>
        <time>2018-05-01T06:19:38Z</time>
      </trkpt>
      <trkpt lat="39.6254890" lon="-0.3576380">
        <ele>83.4</ele>
        <time>2018-05-01T06:19:43Z</time>
      </trkpt>
      <trkpt lat="39.6255530" lon="-0.3576320">
        <ele>83.8</ele>
        <time>2018-05-01T06:19:45Z</time>
      </trkpt>
      <trkpt lat="39.6256810" lon="-0.3576070">
        <ele>84.6</ele>
        <time>2018-05-01T06:19:49Z</time>
      </trkpt>
      <trkpt lat="39.6257560" lon="-0.3575880">
        <ele>84.8</ele>
        <time>2018-05-01T06:19:51Z</time>
      </trkpt>
      <trkpt lat="39.6258390" lon="-0.3575630">
        <ele>85.2</ele>
        <time>2018-05-01T06:19:53Z</time>
      </trkpt>
      <trkpt lat="39.6259880" lon="-0.3575410">
        <ele>85.6</ele>
        <time>2018-05-01T06:19:57Z</time>
      </trkpt>
      <trkpt lat="39.6260900" lon="-0.3575260">
        <ele>86.0</ele>
        <time>2018-05-01T06:20:00Z</time>
      </trkpt>
      <trkpt lat="39.6262760" lon="-0.3575370">
        <ele>87.0</ele>
        <time>2018-05-01T06:20:06Z</time>
      </trkpt>
      <trkpt lat="39.6264500" lon="-0.3575190">
        <ele>88.0</ele>
        <time>2018-05-01T06:20:12Z</time>
      </trkpt>
      <trkpt lat="39.6266600" lon="-0.3575050">
        <ele>89.4</ele>
        <time>2018-05-01T06:20:19Z</time>
      </trkpt>
      <trkpt lat="39.6268060" lon="-0.3574820">
        <ele>90.4</ele>
        <time>2018-05-01T06:20:24Z</time>
      </trkpt>
      <trkpt lat="39.6269830" lon="-0.3574890">
        <ele>91.6</ele>
        <time>2018-05-01T06:20:30Z</time>
      </trkpt>
      <trkpt lat="39.6271950" lon="-0.3574930">
        <ele>93.0</ele>
        <time>2018-05-01T06:20:37Z</time>
      </trkpt>
      <trkpt lat="39.6274110" lon="-0.3574770">
        <ele>94.0</ele>
        <time>2018-05-01T06:20:44Z</time>
      </trkpt>
      <trkpt lat="39.6275880" lon="-0.3575050">
        <ele>95.0</ele>
        <time>2018-05-01T06:20:50Z</time>
      </trkpt>
      <trkpt lat="39.6277730" lon="-0.3575810">
        <ele>96.0</ele>
        <time>2018-05-01T06:20:56Z</time>
      </trkpt>
      <trkpt lat="39.6279740" lon="-0.3576800">
        <ele>97.2</ele>
        <time>2018-05-01T06:21:03Z</time>
      </trkpt>
      <trkpt lat="39.6280890" lon="-0.3577440">
        <ele>98.2</ele>
        <time>2018-05-01T06:21:07Z</time>
      </trkpt>
      <trkpt lat="39.6283190" lon="-0.3578340">
        <ele>99.6</ele>
        <time>2018-05-01T06:21:14Z</time>
      </trkpt>
      <trkpt lat="39.6285590" lon="-0.3578820">
        <ele>100.4</ele>
        <time>2018-05-01T06:21:21Z</time>
      </trkpt>
      <trkpt lat="39.6285930" lon="-0.3578890">
        <ele>100.6</ele>
        <time>2018-05-01T06:21:22Z</time>
      </trkpt>
      <trkpt lat="39.6287300" lon="-0.3579180">
        <ele>100.8</ele>
        <time>2018-05-01T06:21:26Z</time>
      </trkpt>
      <trkpt lat="39.6289400" lon="-0.3579580">
        <ele>101.2</ele>
        <time>2018-05-01T06:21:32Z</time>
      </trkpt>
      <trkpt lat="39.6290100" lon="-0.3579680">
        <ele>101.4</ele>
        <time>2018-05-01T06:21:34Z</time>
      </trkpt>
      <trkpt lat="39.6290810" lon="-0.3579810">
        <ele>101.6</ele>
        <time>2018-05-01T06:21:36Z</time>
      </trkpt>
      <trkpt lat="39.6292610" lon="-0.3580170">
        <ele>101.8</ele>
        <time>2018-05-01T06:21:41Z</time>
      </trkpt>
      <trkpt lat="39.6293330" lon="-0.3580300">
        <ele>101.8</ele>
        <time>2018-05-01T06:21:43Z</time>
      </trkpt>
      <trkpt lat="39.6296790" lon="-0.3580330">
        <ele>102.2</ele>
        <time>2018-05-01T06:21:52Z</time>
      </trkpt>
      <trkpt lat="39.6297970" lon="-0.3580040">
        <ele>102.4</ele>
        <time>2018-05-01T06:21:55Z</time>
      </trkpt>
      <trkpt lat="39.6298360" lon="-0.3579960">
        <ele>102.4</ele>
        <time>2018-05-01T06:21:56Z</time>
      </trkpt>
      <trkpt lat="39.6299170" lon="-0.3579800">
        <ele>102.4</ele>
        <time>2018-05-01T06:21:58Z</time>
      </trkpt>
      <trkpt lat="39.6302050" lon="-0.3579770">
        <ele>102.6</ele>
        <time>2018-05-01T06:22:05Z</time>
      </trkpt>
      <trkpt lat="39.6304740" lon="-0.3579930">
        <ele>102.4</ele>
        <time>2018-05-01T06:22:11Z</time>
      </trkpt>
      <trkpt lat="39.6306100" lon="-0.3579820">
        <ele>102.4</ele>
        <time>2018-05-01T06:22:14Z</time>
      </trkpt>
      <trkpt lat="39.6306990" lon="-0.3579750">
        <ele>102.0</ele>
        <time>2018-05-01T06:22:16Z</time>
      </trkpt>
      <trkpt lat="39.6309250" lon="-0.3579570">
        <ele>101.4</ele>
        <time>2018-05-01T06:22:21Z</time>
      </trkpt>
      <trkpt lat="39.6313770" lon="-0.3578820">
        <ele>100.8</ele>
        <time>2018-05-01T06:22:31Z</time>
      </trkpt>
      <trkpt lat="39.6318830" lon="-0.3577910">
        <ele>100.4</ele>
        <time>2018-05-01T06:22:42Z</time>
      </trkpt>
      <trkpt lat="39.6319770" lon="-0.3577690">
        <ele>100.4</ele>
        <time>2018-05-01T06:22:44Z</time>
      </trkpt>
      <trkpt lat="39.6320690" lon="-0.3577420">
        <ele>100.2</ele>
        <time>2018-05-01T06:22:46Z</time>
      </trkpt>
      <trkpt lat="39.6324310" lon="-0.3577030">
        <ele>100.2</ele>
        <time>2018-05-01T06:22:54Z</time>
      </trkpt>
      <trkpt lat="39.6324750" lon="-0.3576980">
        <ele>100.4</ele>
        <time>2018-05-01T06:22:55Z</time>
      </trkpt>
      <trkpt lat="39.6330290" lon="-0.3576560">
        <ele>100.8</ele>
        <time>2018-05-01T06:23:07Z</time>
      </trkpt>
      <trkpt lat="39.6333220" lon="-0.3576360">
        <ele>100.8</ele>
        <time>2018-05-01T06:23:14Z</time>
      </trkpt>
      <trkpt lat="39.6334370" lon="-0.3576260">
        <ele>101.0</ele>
        <time>2018-05-01T06:23:17Z</time>
      </trkpt>
      <trkpt lat="39.6335450" lon="-0.3576110">
        <ele>101.6</ele>
        <time>2018-05-01T06:23:20Z</time>
      </trkpt>
      <trkpt lat="39.6335810" lon="-0.3576060">
        <ele>101.8</ele>
        <time>2018-05-01T06:23:21Z</time>
      </trkpt>
      <trkpt lat="39.6336920" lon="-0.3575930">
        <ele>102.4</ele>
        <time>2018-05-01T06:23:24Z</time>
      </trkpt>
      <trkpt lat="39.6337650" lon="-0.3575780">
        <ele>102.8</ele>
        <time>2018-05-01T06:23:26Z</time>
      </trkpt>
      <trkpt lat="39.6340750" lon="-0.3575300">
        <ele>104.0</ele>
        <time>2018-05-01T06:23:34Z</time>
      </trkpt>
      <trkpt lat="39.6344610" lon="-0.3574840">
        <ele>105.0</ele>
        <time>2018-05-01T06:23:44Z</time>
      </trkpt>
      <trkpt lat="39.6345020" lon="-0.3574800">
        <ele>105.0</ele>
        <time>2018-05-01T06:23:45Z</time>
      </trkpt>
      <trkpt lat="39.6350210" lon="-0.3573860">
        <ele>106.0</ele>
        <time>2018-05-01T06:23:58Z</time>
      </trkpt>
      <trkpt lat="39.6352400" lon="-0.3572790">
        <ele>106.8</ele>
        <time>2018-05-01T06:24:04Z</time>
      </trkpt>
      <trkpt lat="39.6353050" lon="-0.3572440">
        <ele>107.0</ele>
        <time>2018-05-01T06:24:06Z</time>
      </trkpt>
      <trkpt lat="39.6354340" lon="-0.3571620">
        <ele>107.2</ele>
        <time>2018-05-01T06:24:10Z</time>
      </trkpt>
      <trkpt lat="39.6356410" lon="-0.3570320">
        <ele>108.2</ele>
        <time>2018-05-01T06:24:16Z</time>
      </trkpt>
      <trkpt lat="39.6359000" lon="-0.3568360">
        <ele>109.2</ele>
        <time>2018-05-01T06:24:24Z</time>
      </trkpt>
      <trkpt lat="39.6359610" lon="-0.3567800">
        <ele>109.4</ele>
        <time>2018-05-01T06:24:26Z</time>
      </trkpt>
      <trkpt lat="39.6360730" lon="-0.3566450">
        <ele>109.6</ele>
        <time>2018-05-01T06:24:30Z</time>
      </trkpt>
      <trkpt lat="39.6362230" lon="-0.3564880">
        <ele>110.2</ele>
        <time>2018-05-01T06:24:35Z</time>
      </trkpt>
      <trkpt lat="39.6362810" lon="-0.3564230">
        <ele>110.4</ele>
        <time>2018-05-01T06:24:37Z</time>
      </trkpt>
      <trkpt lat="39.6365420" lon="-0.3561200">
        <ele>110.6</ele>
        <time>2018-05-01T06:24:46Z</time>
      </trkpt>
      <trkpt lat="39.6369620" lon="-0.3556510">
        <ele>111.4</ele>
        <time>2018-05-01T06:25:00Z</time>
      </trkpt>
      <trkpt lat="39.6369920" lon="-0.3556160">
        <ele>111.4</ele>
        <time>2018-05-01T06:25:01Z</time>
      </trkpt>
      <trkpt lat="39.6373670" lon="-0.3551590">
        <ele>112.6</ele>
        <time>2018-05-01T06:25:14Z</time>
      </trkpt>
      <trkpt lat="39.6376090" lon="-0.3548240">
        <ele>113.6</ele>
        <time>2018-05-01T06:25:23Z</time>
      </trkpt>
      <trkpt lat="39.6378830" lon="-0.3543940">
        <ele>114.4</ele>
        <time>2018-05-01T06:25:34Z</time>
      </trkpt>
      <trkpt lat="39.6379090" lon="-0.3543550">
        <ele>114.6</ele>
        <time>2018-05-01T06:25:35Z</time>
      </trkpt>
      <trkpt lat="39.6380000" lon="-0.3541880">
        <ele>115.0</ele>
        <time>2018-05-01T06:25:39Z</time>
      </trkpt>
      <trkpt lat="39.6381790" lon="-0.3538310">
        <ele>115.4</ele>
        <time>2018-05-01T06:25:47Z</time>
      </trkpt>
      <trkpt lat="39.6382240" lon="-0.3536860">
        <ele>115.6</ele>
        <time>2018-05-01T06:25:50Z</time>
      </trkpt>
      <trkpt lat="39.6383850" lon="-0.3532280">
        <ele>116.8</ele>
        <time>2018-05-01T06:26:00Z</time>
      </trkpt>
      <trkpt lat="39.6385230" lon="-0.3528760">
        <ele>117.6</ele>
        <time>2018-05-01T06:26:08Z</time>
      </trkpt>
      <trkpt lat="39.6385430" lon="-0.3528290">
        <ele>117.8</ele>
        <time>2018-05-01T06:26:09Z</time>
      </trkpt>
      <trkpt lat="39.6386080" lon="-0.3526490">
        <ele>118.2</ele>
        <time>2018-05-01T06:26:13Z</time>
      </trkpt>
      <trkpt lat="39.6387150" lon="-0.3523440">
        <ele>119.0</ele>
        <time>2018-05-01T06:26:20Z</time>
      </trkpt>
      <trkpt lat="39.6389170" lon="-0.3519940">
        <ele>120.2</ele>
        <time>2018-05-01T06:26:30Z</time>
      </trkpt>
      <trkpt lat="39.6389890" lon="-0.3518590">
        <ele>121.0</ele>
        <time>2018-05-01T06:26:34Z</time>
      </trkpt>
      <trkpt lat="39.6390310" lon="-0.3517930">
        <ele>121.4</ele>
        <time>2018-05-01T06:26:36Z</time>
      </trkpt>
      <trkpt lat="39.6391020" lon="-0.3516650">
        <ele>122.2</ele>
        <time>2018-05-01T06:26:40Z</time>
      </trkpt>
      <trkpt lat="39.6391210" lon="-0.3516330">
        <ele>122.4</ele>
        <time>2018-05-01T06:26:41Z</time>
      </trkpt>
      <trkpt lat="39.6391930" lon="-0.3515120">
        <ele>123.2</ele>
        <time>2018-05-01T06:26:45Z</time>
      </trkpt>
      <trkpt lat="39.6392290" lon="-0.3514530">
        <ele>123.8</ele>
        <time>2018-05-01T06:26:47Z</time>
      </trkpt>
      <trkpt lat="39.6393420" lon="-0.3512720">
        <ele>125.0</ele>
        <time>2018-05-01T06:26:53Z</time>
      </trkpt>
      <trkpt lat="39.6394830" lon="-0.3510570">
        <ele>126.0</ele>
        <time>2018-05-01T06:27:00Z</time>
      </trkpt>
      <trkpt lat="39.6395860" lon="-0.3509310">
        <ele>127.0</ele>
        <time>2018-05-01T06:27:05Z</time>
      </trkpt>
      <trkpt lat="39.6397930" lon="-0.3508370">
        <ele>128.2</ele>
        <time>2018-05-01T06:27:13Z</time>
      </trkpt>
      <trkpt lat="39.6399800" lon="-0.3508500">
        <ele>129.4</ele>
        <time>2018-05-01T06:27:20Z</time>
      </trkpt>
      <trkpt lat="39.6401530" lon="-0.3508980">
        <ele>130.6</ele>
        <time>2018-05-01T06:27:27Z</time>
      </trkpt>
      <trkpt lat="39.6402840" lon="-0.3509360">
        <ele>131.6</ele>
        <time>2018-05-01T06:27:32Z</time>
      </trkpt>
      <trkpt lat="39.6403860" lon="-0.3509630">
        <ele>132.6</ele>
        <time>2018-05-01T06:27:36Z</time>
      </trkpt>
      <trkpt lat="39.6404830" lon="-0.3510070">
        <ele>133.6</ele>
        <time>2018-05-01T06:27:40Z</time>
      </trkpt>
      <trkpt lat="39.6406070" lon="-0.3510470">
        <ele>134.6</ele>
        <time>2018-05-01T06:27:45Z</time>
      </trkpt>
      <trkpt lat="39.6407600" lon="-0.3510850">
        <ele>135.8</ele>
        <time>2018-05-01T06:27:51Z</time>
      </trkpt>
      <trkpt lat="39.6409080" lon="-0.3511310">
        <ele>137.0</ele>
        <time>2018-05-01T06:27:57Z</time>
      </trkpt>
      <trkpt lat="39.6410910" lon="-0.3511920">
        <ele>138.0</ele>
        <time>2018-05-01T06:28:04Z</time>
      </trkpt>
      <trkpt lat="39.6412210" lon="-0.3512350">
        <ele>138.8</ele>
        <time>2018-05-01T06:28:09Z</time>
      </trkpt>
      <trkpt lat="39.6413460" lon="-0.3512630">
        <ele>140.0</ele>
        <time>2018-05-01T06:28:14Z</time>
      </trkpt>
      <trkpt lat="39.6415350" lon="-0.3512740">
        <ele>141.0</ele>
        <time>2018-05-01T06:28:21Z</time>
      </trkpt>
      <trkpt lat="39.6416360" lon="-0.3512750">
        <ele>142.2</ele>
        <time>2018-05-01T06:28:25Z</time>
      </trkpt>
      <trkpt lat="39.6417820" lon="-0.3511560">
        <ele>143.2</ele>
        <time>2018-05-01T06:28:32Z</time>
      </trkpt>
      <trkpt lat="39.6418240" lon="-0.3510520">
        <ele>144.2</ele>
        <time>2018-05-01T06:28:36Z</time>
      </trkpt>
      <trkpt lat="39.6418400" lon="-0.3509480">
        <ele>145.4</ele>
        <time>2018-05-01T06:28:40Z</time>
      </trkpt>
      <trkpt lat="39.6418220" lon="-0.3508690">
        <ele>146.4</ele>
        <time>2018-05-01T06:28:43Z</time>
      </trkpt>
      <trkpt lat="39.6418150" lon="-0.3508420">
        <ele>146.6</ele>
        <time>2018-05-01T06:28:44Z</time>
      </trkpt>
      <trkpt lat="39.6417730" lon="-0.3506950">
        <ele>147.2</ele>
        <time>2018-05-01T06:28:49Z</time>
      </trkpt>
      <trkpt lat="39.6417620" lon="-0.3506680">
        <ele>147.4</ele>
        <time>2018-05-01T06:28:50Z</time>
      </trkpt>
      <trkpt lat="39.6417330" lon="-0.3505830">
        <ele>148.6</ele>
        <time>2018-05-01T06:28:53Z</time>
      </trkpt>
      <trkpt lat="39.6417240" lon="-0.3504480">
        <ele>149.6</ele>
        <time>2018-05-01T06:28:57Z</time>
      </trkpt>
      <trkpt lat="39.6417860" lon="-0.3502890">
        <ele>150.6</ele>
        <time>2018-05-01T06:29:02Z</time>
      </trkpt>
      <trkpt lat="39.6418260" lon="-0.3502040">
        <ele>151.2</ele>
        <time>2018-05-01T06:29:05Z</time>
      </trkpt>
      <trkpt lat="39.6418810" lon="-0.3500840">
        <ele>151.6</ele>
        <time>2018-05-01T06:29:09Z</time>
      </trkpt>
      <trkpt lat="39.6419150" lon="-0.3499940">
        <ele>152.0</ele>
        <time>2018-05-01T06:29:12Z</time>
      </trkpt>
      <trkpt lat="39.6419390" lon="-0.3499430">
        <ele>152.0</ele>
        <time>2018-05-01T06:29:14Z</time>
      </trkpt>
      <trkpt lat="39.6419840" lon="-0.3498790">
        <ele>152.8</ele>
        <time>2018-05-01T06:29:17Z</time>
      </trkpt>
      <trkpt lat="39.6421110" lon="-0.3497880">
        <ele>153.8</ele>
        <time>2018-05-01T06:29:24Z</time>
      </trkpt>
      <trkpt lat="39.6421860" lon="-0.3497790">
        <ele>154.8</ele>
        <time>2018-05-01T06:29:28Z</time>
      </trkpt>
      <trkpt lat="39.6422690" lon="-0.3497810">
        <ele>156.0</ele>
        <time>2018-05-01T06:29:32Z</time>
      </trkpt>
      <trkpt lat="39.6423540" lon="-0.3497970">
        <ele>157.0</ele>
        <time>2018-05-01T06:29:36Z</time>
      </trkpt>
      <trkpt lat="39.6423770" lon="-0.3497950">
        <ele>157.2</ele>
        <time>2018-05-01T06:29:37Z</time>
      </trkpt>
      <trkpt lat="39.6424200" lon="-0.3497970">
        <ele>157.8</ele>
        <time>2018-05-01T06:29:39Z</time>
      </trkpt>
      <trkpt lat="39.6424810" lon="-0.3498240">
        <ele>158.4</ele>
        <time>2018-05-01T06:29:42Z</time>
      </trkpt>
      <trkpt lat="39.6425860" lon="-0.3498750">
        <ele>159.4</ele>
        <time>2018-05-01T06:29:47Z</time>
      </trkpt>
      <trkpt lat="39.6427200" lon="-0.3499760">
        <ele>160.8</ele>
        <time>2018-05-01T06:29:53Z</time>
      </trkpt>
      <trkpt lat="39.6427870" lon="-0.3500200">
        <ele>161.6</ele>
        <time>2018-05-01T06:29:56Z</time>
      </trkpt>
      <trkpt lat="39.6428270" lon="-0.3500470">
        <ele>162.0</ele>
        <time>2018-05-01T06:29:58Z</time>
      </trkpt>
      <trkpt lat="39.6428840" lon="-0.3500850">
        <ele>162.4</ele>
        <time>2018-05-01T06:30:01Z</time>
      </trkpt>
      <trkpt lat="39.6429410" lon="-0.3501340">
        <ele>163.2</ele>
        <time>2018-05-01T06:30:04Z</time>
      </trkpt>
      <trkpt lat="39.6430400" lon="-0.3502170">
        <ele>164.2</ele>
        <time>2018-05-01T06:30:09Z</time>
      </trkpt>
      <trkpt lat="39.6431710" lon="-0.3502830">
        <ele>165.2</ele>
        <time>2018-05-01T06:30:15Z</time>
      </trkpt>
      <trkpt lat="39.6433210" lon="-0.3503130">
        <ele>166.4</ele>
        <time>2018-05-01T06:30:21Z</time>
      </trkpt>
      <trkpt lat="39.6434920" lon="-0.3503410">
        <ele>167.4</ele>
        <time>2018-05-01T06:30:27Z</time>
      </trkpt>
      <trkpt lat="39.6436900" lon="-0.3503150">
        <ele>167.8</ele>
        <time>2018-05-01T06:30:33Z</time>
      </trkpt>
      <trkpt lat="39.6437640" lon="-0.3502900">
        <ele>168.0</ele>
        <time>2018-05-01T06:30:35Z</time>
      </trkpt>
      <trkpt lat="39.6438340" lon="-0.3502520">
        <ele>168.0</ele>
        <time>2018-05-01T06:30:37Z</time>
      </trkpt>
      <trkpt lat="39.6440050" lon="-0.3501460">
        <ele>168.4</ele>
        <time>2018-05-01T06:30:42Z</time>
      </trkpt>
      <trkpt lat="39.6440460" lon="-0.3501410">
        <ele>168.4</ele>
        <time>2018-05-01T06:30:43Z</time>
      </trkpt>
      <trkpt lat="39.6441820" lon="-0.3502310">
        <ele>168.6</ele>
        <time>2018-05-01T06:30:47Z</time>
      </trkpt>
      <trkpt lat="39.6444070" lon="-0.3504380">
        <ele>169.0</ele>
        <time>2018-05-01T06:30:55Z</time>
      </trkpt>
      <trkpt lat="39.6445040" lon="-0.3504890">
        <ele>169.6</ele>
        <time>2018-05-01T06:30:58Z</time>
      </trkpt>
      <trkpt lat="39.6446630" lon="-0.3505660">
        <ele>170.8</ele>
        <time>2018-05-01T06:31:03Z</time>
      </trkpt>
      <trkpt lat="39.6448810" lon="-0.3506100">
        <ele>171.8</ele>
        <time>2018-05-01T06:31:10Z</time>
      </trkpt>
      <trkpt lat="39.6450520" lon="-0.3506180">
        <ele>173.0</ele>
        <time>2018-05-01T06:31:16Z</time>
      </trkpt>
      <trkpt lat="39.6452770" lon="-0.3505770">
        <ele>174.2</ele>
        <time>2018-05-01T06:31:23Z</time>
      </trkpt>
      <trkpt lat="39.6456670" lon="-0.3505080">
        <ele>175.2</ele>
        <time>2018-05-01T06:31:34Z</time>
      </trkpt>
      <trkpt lat="39.6457070" lon="-0.3505020">
        <ele>175.2</ele>
        <time>2018-05-01T06:31:35Z</time>
      </trkpt>
      <trkpt lat="39.6458720" lon="-0.3504640">
        <ele>175.6</ele>
        <time>2018-05-01T06:31:39Z</time>
      </trkpt>
      <trkpt lat="39.6460980" lon="-0.3504290">
        <ele>175.6</ele>
        <time>2018-05-01T06:31:44Z</time>
      </trkpt>
      <trkpt lat="39.6463130" lon="-0.3503910">
        <ele>175.0</ele>
        <time>2018-05-01T06:31:49Z</time>
      </trkpt>
      <trkpt lat="39.6464460" lon="-0.3504030">
        <ele>174.8</ele>
        <time>2018-05-01T06:31:52Z</time>
      </trkpt>
      <trkpt lat="39.6466670" lon="-0.3504540">
        <ele>174.8</ele>
        <time>2018-05-01T06:31:57Z</time>
      </trkpt>
      <trkpt lat="39.6468350" lon="-0.3505130">
        <ele>175.0</ele>
        <time>2018-05-01T06:32:01Z</time>
      </trkpt>
      <trkpt lat="39.6469230" lon="-0.3505710">
        <ele>175.0</ele>
        <time>2018-05-01T06:32:03Z</time>
      </trkpt>
      <trkpt lat="39.6470410" lon="-0.3506880">
        <ele>175.0</ele>
        <time>2018-05-01T06:32:06Z</time>
      </trkpt>
      <trkpt lat="39.6473140" lon="-0.3509730">
        <ele>175.6</ele>
        <time>2018-05-01T06:32:15Z</time>
      </trkpt>
      <trkpt lat="39.6475060" lon="-0.3510940">
        <ele>176.0</ele>
        <time>2018-05-01T06:32:20Z</time>
      </trkpt>
      <trkpt lat="39.6476260" lon="-0.3511750">
        <ele>176.4</ele>
        <time>2018-05-01T06:32:23Z</time>
      </trkpt>
      <trkpt lat="39.6478740" lon="-0.3513170">
        <ele>176.6</ele>
        <time>2018-05-01T06:32:29Z</time>
      </trkpt>
      <trkpt lat="39.6481960" lon="-0.3515350">
        <ele>176.6</ele>
        <time>2018-05-01T06:32:38Z</time>
      </trkpt>
      <trkpt lat="39.6483200" lon="-0.3516160">
        <ele>176.8</ele>
        <time>2018-05-01T06:32:42Z</time>
      </trkpt>
      <trkpt lat="39.6484100" lon="-0.3516680">
        <ele>177.2</ele>
        <time>2018-05-01T06:32:45Z</time>
      </trkpt>
      <trkpt lat="39.6484700" lon="-0.3517030">
        <ele>177.4</ele>
        <time>2018-05-01T06:32:47Z</time>
      </trkpt>
      <trkpt lat="39.6485330" lon="-0.3517360">
        <ele>177.8</ele>
        <time>2018-05-01T06:32:49Z</time>
      </trkpt>
      <trkpt lat="39.6486010" lon="-0.3517690">
        <ele>178.2</ele>
        <time>2018-05-01T06:32:51Z</time>
      </trkpt>
      <trkpt lat="39.6488040" lon="-0.3518560">
        <ele>179.4</ele>
        <time>2018-05-01T06:32:57Z</time>
      </trkpt>
      <trkpt lat="39.6490590" lon="-0.3519710">
        <ele>180.6</ele>
        <time>2018-05-01T06:33:05Z</time>
      </trkpt>
      <trkpt lat="39.6491880" lon="-0.3520810">
        <ele>181.8</ele>
        <time>2018-05-01T06:33:09Z</time>
      </trkpt>
      <trkpt lat="39.6493390" lon="-0.3524940">
        <ele>182.8</ele>
        <time>2018-05-01T06:33:19Z</time>
      </trkpt>
      <trkpt lat="39.6494040" lon="-0.3528030">
        <ele>183.8</ele>
        <time>2018-05-01T06:33:26Z</time>
      </trkpt>
      <trkpt lat="39.6494660" lon="-0.3529690">
        <ele>184.0</ele>
        <time>2018-05-01T06:33:30Z</time>
      </trkpt>
      <trkpt lat="39.6496710" lon="-0.3531230">
        <ele>184.0</ele>
        <time>2018-05-01T06:33:35Z</time>
      </trkpt>
      <trkpt lat="39.6497650" lon="-0.3531630">
        <ele>184.0</ele>
        <time>2018-05-01T06:33:37Z</time>
      </trkpt>
      <trkpt lat="39.6499020" lon="-0.3532170">
        <ele>182.8</ele>
        <time>2018-05-01T06:33:40Z</time>
      </trkpt>
      <trkpt lat="39.6499490" lon="-0.3532370">
        <ele>182.4</ele>
        <time>2018-05-01T06:33:41Z</time>
      </trkpt>
      <trkpt lat="39.6503310" lon="-0.3533880">
        <ele>182.2</ele>
        <time>2018-05-01T06:33:50Z</time>
      </trkpt>
      <trkpt lat="39.6504570" lon="-0.3534330">
        <ele>182.6</ele>
        <time>2018-05-01T06:33:53Z</time>
      </trkpt>
      <trkpt lat="39.6505880" lon="-0.3534650">
        <ele>182.6</ele>
        <time>2018-05-01T06:33:56Z</time>
      </trkpt>
      <trkpt lat="39.6507600" lon="-0.3534730">
        <ele>182.6</ele>
        <time>2018-05-01T06:34:00Z</time>
      </trkpt>
      <trkpt lat="39.6512150" lon="-0.3530870">
        <ele>183.4</ele>
        <time>2018-05-01T06:34:14Z</time>
      </trkpt>
      <trkpt lat="39.6512490" lon="-0.3530780">
        <ele>183.8</ele>
        <time>2018-05-01T06:34:15Z</time>
      </trkpt>
      <trkpt lat="39.6513520" lon="-0.3531070">
        <ele>184.2</ele>
        <time>2018-05-01T06:34:18Z</time>
      </trkpt>
      <trkpt lat="39.6514150" lon="-0.3531480">
        <ele>184.6</ele>
        <time>2018-05-01T06:34:20Z</time>
      </trkpt>
      <trkpt lat="39.6515010" lon="-0.3532130">
        <ele>184.8</ele>
        <time>2018-05-01T06:34:23Z</time>
      </trkpt>
      <trkpt lat="39.6516290" lon="-0.3532790">
        <ele>185.8</ele>
        <time>2018-05-01T06:34:27Z</time>
      </trkpt>
      <trkpt lat="39.6517400" lon="-0.3533240">
        <ele>187.0</ele>
        <time>2018-05-01T06:34:30Z</time>
      </trkpt>
      <trkpt lat="39.6519850" lon="-0.3534610">
        <ele>188.0</ele>
        <time>2018-05-01T06:34:37Z</time>
      </trkpt>
      <trkpt lat="39.6521320" lon="-0.3536000">
        <ele>188.0</ele>
        <time>2018-05-01T06:34:42Z</time>
      </trkpt>
      <trkpt lat="39.6526280" lon="-0.3536330">
        <ele>188.6</ele>
        <time>2018-05-01T06:34:57Z</time>
      </trkpt>
      <trkpt lat="39.6528420" lon="-0.3534350">
        <ele>189.2</ele>
        <time>2018-05-01T06:35:05Z</time>
      </trkpt>
      <trkpt lat="39.6530130" lon="-0.3533040">
        <ele>190.2</ele>
        <time>2018-05-01T06:35:12Z</time>
      </trkpt>
      <trkpt lat="39.6530830" lon="-0.3532490">
        <ele>190.4</ele>
        <time>2018-05-01T06:35:15Z</time>
      </trkpt>
      <trkpt lat="39.6531740" lon="-0.3531740">
        <ele>191.8</ele>
        <time>2018-05-01T06:35:19Z</time>
      </trkpt>
      <trkpt lat="39.6532250" lon="-0.3531480">
        <ele>192.8</ele>
        <time>2018-05-01T06:35:21Z</time>
      </trkpt>
      <trkpt lat="39.6533180" lon="-0.3530880">
        <ele>194.0</ele>
        <time>2018-05-01T06:35:25Z</time>
      </trkpt>
      <trkpt lat="39.6534100" lon="-0.3530280">
        <ele>195.0</ele>
        <time>2018-05-01T06:35:29Z</time>
      </trkpt>
      <trkpt lat="39.6535160" lon="-0.3529560">
        <ele>196.0</ele>
        <time>2018-05-01T06:35:34Z</time>
      </trkpt>
      <trkpt lat="39.6535360" lon="-0.3529400">
        <ele>196.4</ele>
        <time>2018-05-01T06:35:35Z</time>
      </trkpt>
      <trkpt lat="39.6536550" lon="-0.3528540">
        <ele>197.4</ele>
        <time>2018-05-01T06:35:41Z</time>
      </trkpt>
      <trkpt lat="39.6537330" lon="-0.3527770">
        <ele>198.4</ele>
        <time>2018-05-01T06:35:45Z</time>
      </trkpt>
      <trkpt lat="39.6538170" lon="-0.3526950">
        <ele>199.4</ele>
        <time>2018-05-01T06:35:49Z</time>
      </trkpt>
      <trkpt lat="39.6539160" lon="-0.3526230">
        <ele>200.4</ele>
        <time>2018-05-01T06:35:54Z</time>
      </trkpt>
      <trkpt lat="39.6539350" lon="-0.3526090">
        <ele>200.6</ele>
        <time>2018-05-01T06:35:55Z</time>
      </trkpt>
      <trkpt lat="39.6539730" lon="-0.3525840">
        <ele>201.6</ele>
        <time>2018-05-01T06:35:57Z</time>
      </trkpt>
      <trkpt lat="39.6540140" lon="-0.3525620">
        <ele>202.8</ele>
        <time>2018-05-01T06:35:59Z</time>
      </trkpt>
      <trkpt lat="39.6541040" lon="-0.3525020">
        <ele>203.6</ele>
        <time>2018-05-01T06:36:04Z</time>
      </trkpt>
      <trkpt lat="39.6541760" lon="-0.3524490">
        <ele>204.8</ele>
        <time>2018-05-01T06:36:08Z</time>
      </trkpt>
      <trkpt lat="39.6542920" lon="-0.3523410">
        <ele>205.8</ele>
        <time>2018-05-01T06:36:14Z</time>
      </trkpt>
      <trkpt lat="39.6543770" lon="-0.3522630">
        <ele>207.0</ele>
        <time>2018-05-01T06:36:18Z</time>
      </trkpt>
      <trkpt lat="39.6544630" lon="-0.3521880">
        <ele>208.0</ele>
        <time>2018-05-01T06:36:22Z</time>
      </trkpt>
      <trkpt lat="39.6545650" lon="-0.3520770">
        <ele>209.0</ele>
        <time>2018-05-01T06:36:27Z</time>
      </trkpt>
      <trkpt lat="39.6546660" lon="-0.3519770">
        <ele>210.2</ele>
        <time>2018-05-01T06:36:31Z</time>
      </trkpt>
      <trkpt lat="39.6547320" lon="-0.3518800">
        <ele>210.4</ele>
        <time>2018-05-01T06:36:34Z</time>
      </trkpt>
      <trkpt lat="39.6548130" lon="-0.3517380">
        <ele>210.4</ele>
        <time>2018-05-01T06:36:38Z</time>
      </trkpt>
      <trkpt lat="39.6548670" lon="-0.3516470">
        <ele>210.4</ele>
        <time>2018-05-01T06:36:41Z</time>
      </trkpt>
      <trkpt lat="39.6549210" lon="-0.3515170">
        <ele>210.4</ele>
        <time>2018-05-01T06:36:45Z</time>
      </trkpt>
      <trkpt lat="39.6549560" lon="-0.3513230">
        <ele>211.2</ele>
        <time>2018-05-01T06:36:50Z</time>
      </trkpt>
      <trkpt lat="39.6549820" lon="-0.3512110">
        <ele>211.4</ele>
        <time>2018-05-01T06:36:53Z</time>
      </trkpt>
      <trkpt lat="39.6550110" lon="-0.3511400">
        <ele>211.4</ele>
        <time>2018-05-01T06:36:55Z</time>
      </trkpt>
      <trkpt lat="39.6550400" lon="-0.3510150">
        <ele>211.4</ele>
        <time>2018-05-01T06:36:58Z</time>
      </trkpt>
      <trkpt lat="39.6550540" lon="-0.3509690">
        <ele>211.4</ele>
        <time>2018-05-01T06:36:59Z</time>
      </trkpt>
      <trkpt lat="39.6551080" lon="-0.3508670">
        <ele>211.4</ele>
        <time>2018-05-01T06:37:01Z</time>
      </trkpt>
      <trkpt lat="39.6551580" lon="-0.3508160">
        <ele>211.4</ele>
        <time>2018-05-01T06:37:02Z</time>
      </trkpt>
      <trkpt lat="39.6553080" lon="-0.3508040">
        <ele>211.2</ele>
        <time>2018-05-01T06:37:04Z</time>
      </trkpt>
      <trkpt lat="39.6553800" lon="-0.3508690">
        <ele>211.2</ele>
        <time>2018-05-01T06:37:05Z</time>
      </trkpt>
      <trkpt lat="39.6555020" lon="-0.3510430">
        <ele>210.2</ele>
        <time>2018-05-01T06:37:07Z</time>
      </trkpt>
      <trkpt lat="39.6555640" lon="-0.3511360">
        <ele>209.6</ele>
        <time>2018-05-01T06:37:08Z</time>
      </trkpt>
      <trkpt lat="39.6556360" lon="-0.3512200">
        <ele>208.6</ele>
        <time>2018-05-01T06:37:09Z</time>
      </trkpt>
      <trkpt lat="39.6557260" lon="-0.3512770">
        <ele>207.4</ele>
        <time>2018-05-01T06:37:10Z</time>
      </trkpt>
      <trkpt lat="39.6558190" lon="-0.3513090">
        <ele>206.2</ele>
        <time>2018-05-01T06:37:11Z</time>
      </trkpt>
      <trkpt lat="39.6559170" lon="-0.3513160">
        <ele>205.0</ele>
        <time>2018-05-01T06:37:12Z</time>
      </trkpt>
      <trkpt lat="39.6560150" lon="-0.3513100">
        <ele>203.4</ele>
        <time>2018-05-01T06:37:13Z</time>
      </trkpt>
      <trkpt lat="39.6561150" lon="-0.3513010">
        <ele>201.8</ele>
        <time>2018-05-01T06:37:14Z</time>
      </trkpt>
      <trkpt lat="39.6562150" lon="-0.3512890">
        <ele>200.2</ele>
        <time>2018-05-01T06:37:15Z</time>
      </trkpt>
      <trkpt lat="39.6563140" lon="-0.3512750">
        <ele>198.6</ele>
        <time>2018-05-01T06:37:16Z</time>
      </trkpt>
      <trkpt lat="39.6564090" lon="-0.3512580">
        <ele>197.2</ele>
        <time>2018-05-01T06:37:17Z</time>
      </trkpt>
      <trkpt lat="39.6565940" lon="-0.3512330">
        <ele>195.8</ele>
        <time>2018-05-01T06:37:19Z</time>
      </trkpt>
      <trkpt lat="39.6566820" lon="-0.3512250">
        <ele>194.6</ele>
        <time>2018-05-01T06:37:20Z</time>
      </trkpt>
      <trkpt lat="39.6567680" lon="-0.3512180">
        <ele>193.0</ele>
        <time>2018-05-01T06:37:21Z</time>
      </trkpt>
      <trkpt lat="39.6569220" lon="-0.3511890">
        <ele>191.4</ele>
        <time>2018-05-01T06:37:23Z</time>
      </trkpt>
      <trkpt lat="39.6570600" lon="-0.3511400">
        <ele>190.8</ele>
        <time>2018-05-01T06:37:25Z</time>
      </trkpt>
      <trkpt lat="39.6572260" lon="-0.3510050">
        <ele>190.4</ele>
        <time>2018-05-01T06:37:28Z</time>
      </trkpt>
      <trkpt lat="39.6574500" lon="-0.3507730">
        <ele>190.4</ele>
        <time>2018-05-01T06:37:33Z</time>
      </trkpt>
      <trkpt lat="39.6575230" lon="-0.3507110">
        <ele>190.4</ele>
        <time>2018-05-01T06:37:36Z</time>
      </trkpt>
      <trkpt lat="39.6575690" lon="-0.3506930">
        <ele>190.6</ele>
        <time>2018-05-01T06:37:39Z</time>
      </trkpt>
      <trkpt lat="39.6575500" lon="-0.3507300">
        <ele>191.0</ele>
        <time>2018-05-01T06:37:41Z</time>
      </trkpt>
      <trkpt lat="39.6575050" lon="-0.3507530">
        <ele>191.4</ele>
        <time>2018-05-01T06:37:43Z</time>
      </trkpt>
      <trkpt lat="39.6574670" lon="-0.3507870">
        <ele>191.6</ele>
        <time>2018-05-01T06:37:45Z</time>
      </trkpt>
      <trkpt lat="39.6574300" lon="-0.3508270">
        <ele>192.0</ele>
        <time>2018-05-01T06:37:47Z</time>
      </trkpt>
      <trkpt lat="39.6573860" lon="-0.3508600">
        <ele>192.6</ele>
        <time>2018-05-01T06:37:49Z</time>
      </trkpt>
      <trkpt lat="39.6573260" lon="-0.3509040">
        <ele>193.0</ele>
        <time>2018-05-01T06:37:52Z</time>
      </trkpt>
      <trkpt lat="39.6572580" lon="-0.3509850">
        <ele>193.4</ele>
        <time>2018-05-01T06:37:56Z</time>
      </trkpt>
      <trkpt lat="39.6572650" lon="-0.3510210">
        <ele>193.6</ele>
        <time>2018-05-01T06:37:58Z</time>
      </trkpt>
      <trkpt lat="39.6573220" lon="-0.3510400">
        <ele>193.8</ele>
        <time>2018-05-01T06:38:01Z</time>
      </trkpt>
      <trkpt lat="39.6574180" lon="-0.3510690">
        <ele>193.8</ele>
        <time>2018-05-01T06:38:05Z</time>
      </trkpt>
      <trkpt lat="39.6576190" lon="-0.3511940">
        <ele>193.8</ele>
        <time>2018-05-01T06:38:12Z</time>
      </trkpt>
      <trkpt lat="39.6576810" lon="-0.3512410">
        <ele>193.8</ele>
        <time>2018-05-01T06:38:14Z</time>
      </trkpt>
      <trkpt lat="39.6577400" lon="-0.3512990">
        <ele>193.8</ele>
        <time>2018-05-01T06:38:16Z</time>
      </trkpt>
      <trkpt lat="39.6578010" lon="-0.3513520">
        <ele>193.8</ele>
        <time>2018-05-01T06:38:18Z</time>
      </trkpt>
      <trkpt lat="39.6581250" lon="-0.3516590">
        <ele>194.8</ele>
        <time>2018-05-01T06:38:29Z</time>
      </trkpt>
      <trkpt lat="39.6581820" lon="-0.3517210">
        <ele>195.2</ele>
        <time>2018-05-01T06:38:31Z</time>
      </trkpt>
      <trkpt lat="39.6582970" lon="-0.3518420">
        <ele>195.6</ele>
        <time>2018-05-01T06:38:35Z</time>
      </trkpt>
      <trkpt lat="39.6583570" lon="-0.3518960">
        <ele>195.8</ele>
        <time>2018-05-01T06:38:37Z</time>
      </trkpt>
      <trkpt lat="39.6587500" lon="-0.3524310">
        <ele>196.2</ele>
        <time>2018-05-01T06:38:50Z</time>
      </trkpt>
      <trkpt lat="39.6588610" lon="-0.3527010">
        <ele>196.0</ele>
        <time>2018-05-01T06:38:55Z</time>
      </trkpt>
      <trkpt lat="39.6589090" lon="-0.3528110">
        <ele>196.0</ele>
        <time>2018-05-01T06:38:57Z</time>
      </trkpt>
      <trkpt lat="39.6589690" lon="-0.3529000">
        <ele>196.0</ele>
        <time>2018-05-01T06:38:59Z</time>
      </trkpt>
      <trkpt lat="39.6590140" lon="-0.3529140">
        <ele>196.0</ele>
        <time>2018-05-01T06:39:00Z</time>
      </trkpt>
      <trkpt lat="39.6591350" lon="-0.3526480">
        <ele>196.2</ele>
        <time>2018-05-01T06:39:08Z</time>
      </trkpt>
      <trkpt lat="39.6591510" lon="-0.3525110">
        <ele>197.0</ele>
        <time>2018-05-01T06:39:11Z</time>
      </trkpt>
      <trkpt lat="39.6591910" lon="-0.3523390">
        <ele>198.2</ele>
        <time>2018-05-01T06:39:14Z</time>
      </trkpt>
      <trkpt lat="39.6592630" lon="-0.3521280">
        <ele>198.4</ele>
        <time>2018-05-01T06:39:18Z</time>
      </trkpt>
      <trkpt lat="39.6595020" lon="-0.3521450">
        <ele>198.8</ele>
        <time>2018-05-01T06:39:28Z</time>
      </trkpt>
      <trkpt lat="39.6595120" lon="-0.3521830">
        <ele>199.0</ele>
        <time>2018-05-01T06:39:30Z</time>
      </trkpt>
      <trkpt lat="39.6595080" lon="-0.3522030">
        <ele>199.2</ele>
        <time>2018-05-01T06:39:31Z</time>
      </trkpt>
      <trkpt lat="39.6594940" lon="-0.3522040">
        <ele>199.4</ele>
        <time>2018-05-01T06:39:32Z</time>
      </trkpt>
      <trkpt lat="39.6594620" lon="-0.3521070">
        <ele>200.2</ele>
        <time>2018-05-01T06:39:36Z</time>
      </trkpt>
      <trkpt lat="39.6596570" lon="-0.3521840">
        <ele>200.8</ele>
        <time>2018-05-01T06:39:45Z</time>
      </trkpt>
      <trkpt lat="39.6598960" lon="-0.3520790">
        <ele>200.8</ele>
        <time>2018-05-01T06:39:52Z</time>
      </trkpt>
      <trkpt lat="39.6600100" lon="-0.3520230">
        <ele>200.8</ele>
        <time>2018-05-01T06:39:56Z</time>
      </trkpt>
      <trkpt lat="39.6600600" lon="-0.3519970">
        <ele>201.0</ele>
        <time>2018-05-01T06:39:58Z</time>
      </trkpt>
      <trkpt lat="39.6601140" lon="-0.3519790">
        <ele>201.0</ele>
        <time>2018-05-01T06:40:00Z</time>
      </trkpt>
      <trkpt lat="39.6602040" lon="-0.3519460">
        <ele>202.2</ele>
        <time>2018-05-01T06:40:03Z</time>
      </trkpt>
      <trkpt lat="39.6602660" lon="-0.3518980">
        <ele>202.6</ele>
        <time>2018-05-01T06:40:05Z</time>
      </trkpt>
      <trkpt lat="39.6603430" lon="-0.3518040">
        <ele>203.0</ele>
        <time>2018-05-01T06:40:08Z</time>
      </trkpt>
      <trkpt lat="39.6603700" lon="-0.3517750">
        <ele>203.2</ele>
        <time>2018-05-01T06:40:09Z</time>
      </trkpt>
      <trkpt lat="39.6604840" lon="-0.3515380">
        <ele>204.2</ele>
        <time>2018-05-01T06:40:16Z</time>
      </trkpt>
      <trkpt lat="39.6605230" lon="-0.3513920">
        <ele>205.4</ele>
        <time>2018-05-01T06:40:20Z</time>
      </trkpt>
      <trkpt lat="39.6605580" lon="-0.3511550">
        <ele>206.4</ele>
        <time>2018-05-01T06:40:26Z</time>
      </trkpt>
      <trkpt lat="39.6606950" lon="-0.3510280">
        <ele>207.4</ele>
        <time>2018-05-01T06:40:32Z</time>
      </trkpt>
      <trkpt lat="39.6609410" lon="-0.3509510">
        <ele>207.8</ele>
        <time>2018-05-01T06:40:38Z</time>
      </trkpt>
      <trkpt lat="39.6610400" lon="-0.3509720">
        <ele>207.8</ele>
        <time>2018-05-01T06:40:40Z</time>
      </trkpt>
      <trkpt lat="39.6611390" lon="-0.3509930">
        <ele>207.6</ele>
        <time>2018-05-01T06:40:42Z</time>
      </trkpt>
      <trkpt lat="39.6613340" lon="-0.3509760">
        <ele>206.4</ele>
        <time>2018-05-01T06:40:46Z</time>
      </trkpt>
      <trkpt lat="39.6615920" lon="-0.3508840">
        <ele>206.0</ele>
        <time>2018-05-01T06:40:52Z</time>
      </trkpt>
      <trkpt lat="39.6617170" lon="-0.3508460">
        <ele>206.0</ele>
        <time>2018-05-01T06:40:55Z</time>
      </trkpt>
      <trkpt lat="39.6618100" lon="-0.3508240">
        <ele>205.8</ele>
        <time>2018-05-01T06:40:57Z</time>
      </trkpt>
      <trkpt lat="39.6619130" lon="-0.3508160">
        <ele>205.8</ele>
        <time>2018-05-01T06:40:59Z</time>
      </trkpt>
      <trkpt lat="39.6620830" lon="-0.3508190">
        <ele>205.4</ele>
        <time>2018-05-01T06:41:02Z</time>
      </trkpt>
      <trkpt lat="39.6621440" lon="-0.3508370">
        <ele>205.2</ele>
        <time>2018-05-01T06:41:03Z</time>
      </trkpt>
      <trkpt lat="39.6622080" lon="-0.3508610">
        <ele>205.0</ele>
        <time>2018-05-01T06:41:04Z</time>
      </trkpt>
      <trkpt lat="39.6623290" lon="-0.3509380">
        <ele>205.0</ele>
        <time>2018-05-01T06:41:06Z</time>
      </trkpt>
      <trkpt lat="39.6625510" lon="-0.3511020">
        <ele>203.8</ele>
        <time>2018-05-01T06:41:10Z</time>
      </trkpt>
      <trkpt lat="39.6627850" lon="-0.3510400">
        <ele>203.2</ele>
        <time>2018-05-01T06:41:15Z</time>
      </trkpt>
      <trkpt lat="39.6628930" lon="-0.3509900">
        <ele>203.0</ele>
        <time>2018-05-01T06:41:18Z</time>
      </trkpt>
      <trkpt lat="39.6629560" lon="-0.3509650">
        <ele>203.2</ele>
        <time>2018-05-01T06:41:20Z</time>
      </trkpt>
      <trkpt lat="39.6630220" lon="-0.3509420">
        <ele>203.8</ele>
        <time>2018-05-01T06:41:22Z</time>
      </trkpt>
      <trkpt lat="39.6631620" lon="-0.3509340">
        <ele>204.4</ele>
        <time>2018-05-01T06:41:26Z</time>
      </trkpt>
      <trkpt lat="39.6631940" lon="-0.3509370">
        <ele>204.8</ele>
        <time>2018-05-01T06:41:27Z</time>
      </trkpt>
      <trkpt lat="39.6632910" lon="-0.3509610">
        <ele>205.8</ele>
        <time>2018-05-01T06:41:30Z</time>
      </trkpt>
      <trkpt lat="39.6634610" lon="-0.3509830">
        <ele>207.2</ele>
        <time>2018-05-01T06:41:35Z</time>
      </trkpt>
      <trkpt lat="39.6635950" lon="-0.3510110">
        <ele>208.4</ele>
        <time>2018-05-01T06:41:39Z</time>
      </trkpt>
      <trkpt lat="39.6637820" lon="-0.3510930">
        <ele>209.6</ele>
        <time>2018-05-01T06:41:45Z</time>
      </trkpt>
      <trkpt lat="39.6639690" lon="-0.3511610">
        <ele>210.6</ele>
        <time>2018-05-01T06:41:51Z</time>
      </trkpt>
      <trkpt lat="39.6643450" lon="-0.3512160">
        <ele>211.4</ele>
        <time>2018-05-01T06:42:02Z</time>
      </trkpt>
      <trkpt lat="39.6644830" lon="-0.3513070">
        <ele>211.6</ele>
        <time>2018-05-01T06:42:06Z</time>
      </trkpt>
      <trkpt lat="39.6645460" lon="-0.3513710">
        <ele>211.6</ele>
        <time>2018-05-01T06:42:08Z</time>
      </trkpt>
      <trkpt lat="39.6646040" lon="-0.3514130">
        <ele>211.6</ele>
        <time>2018-05-01T06:42:10Z</time>
      </trkpt>
      <trkpt lat="39.6646640" lon="-0.3514650">
        <ele>211.4</ele>
        <time>2018-05-01T06:42:12Z</time>
      </trkpt>
      <trkpt lat="39.6647400" lon="-0.3515300">
        <ele>211.4</ele>
        <time>2018-05-01T06:42:14Z</time>
      </trkpt>
      <trkpt lat="39.6649250" lon="-0.3516550">
        <ele>210.8</ele>
        <time>2018-05-01T06:42:18Z</time>
      </trkpt>
      <trkpt lat="39.6649690" lon="-0.3516740">
        <ele>210.4</ele>
        <time>2018-05-01T06:42:19Z</time>
      </trkpt>
      <trkpt lat="39.6650510" lon="-0.3516950">
        <ele>209.4</ele>
        <time>2018-05-01T06:42:21Z</time>
      </trkpt>
      <trkpt lat="39.6650860" lon="-0.3516940">
        <ele>208.8</ele>
        <time>2018-05-01T06:42:22Z</time>
      </trkpt>
      <trkpt lat="39.6651080" lon="-0.3516710">
        <ele>208.4</ele>
        <time>2018-05-01T06:42:23Z</time>
      </trkpt>
      <trkpt lat="39.6651340" lon="-0.3515890">
        <ele>207.2</ele>
        <time>2018-05-01T06:42:25Z</time>
      </trkpt>
      <trkpt lat="39.6651220" lon="-0.3514760">
        <ele>206.0</ele>
        <time>2018-05-01T06:42:28Z</time>
      </trkpt>
      <trkpt lat="39.6652110" lon="-0.3514110">
        <ele>204.6</ele>
        <time>2018-05-01T06:42:33Z</time>
      </trkpt>
      <trkpt lat="39.6653280" lon="-0.3513780">
        <ele>203.4</ele>
        <time>2018-05-01T06:42:36Z</time>
      </trkpt>
      <trkpt lat="39.6654770" lon="-0.3512530">
        <ele>202.2</ele>
        <time>2018-05-01T06:42:40Z</time>
      </trkpt>
      <trkpt lat="39.6655590" lon="-0.3512290">
        <ele>200.6</ele>
        <time>2018-05-01T06:42:42Z</time>
      </trkpt>
      <trkpt lat="39.6656350" lon="-0.3512070">
        <ele>198.8</ele>
        <time>2018-05-01T06:42:44Z</time>
      </trkpt>
      <trkpt lat="39.6656930" lon="-0.3511840">
        <ele>197.8</ele>
        <time>2018-05-01T06:42:46Z</time>
      </trkpt>
      <trkpt lat="39.6657370" lon="-0.3510870">
        <ele>196.6</ele>
        <time>2018-05-01T06:42:49Z</time>
      </trkpt>
      <trkpt lat="39.6657630" lon="-0.3510680">
        <ele>196.2</ele>
        <time>2018-05-01T06:42:50Z</time>
      </trkpt>
      <trkpt lat="39.6658000" lon="-0.3510180">
        <ele>195.2</ele>
        <time>2018-05-01T06:42:52Z</time>
      </trkpt>
      <trkpt lat="39.6658950" lon="-0.3509050">
        <ele>194.2</ele>
        <time>2018-05-01T06:42:56Z</time>
      </trkpt>
      <trkpt lat="39.6659520" lon="-0.3508790">
        <ele>193.2</ele>
        <time>2018-05-01T06:42:58Z</time>
      </trkpt>
      <trkpt lat="39.6660380" lon="-0.3508240">
        <ele>192.0</ele>
        <time>2018-05-01T06:43:01Z</time>
      </trkpt>
      <trkpt lat="39.6661160" lon="-0.3507460">
        <ele>190.6</ele>
        <time>2018-05-01T06:43:04Z</time>
      </trkpt>
      <trkpt lat="39.6661780" lon="-0.3507140">
        <ele>189.4</ele>
        <time>2018-05-01T06:43:06Z</time>
      </trkpt>
      <trkpt lat="39.6662770" lon="-0.3506940">
        <ele>188.2</ele>
        <time>2018-05-01T06:43:09Z</time>
      </trkpt>
      <trkpt lat="39.6663380" lon="-0.3507150">
        <ele>187.0</ele>
        <time>2018-05-01T06:43:11Z</time>
      </trkpt>
      <trkpt lat="39.6664440" lon="-0.3507600">
        <ele>185.6</ele>
        <time>2018-05-01T06:43:15Z</time>
      </trkpt>
      <trkpt lat="39.6664920" lon="-0.3507670">
        <ele>185.6</ele>
        <time>2018-05-01T06:43:17Z</time>
      </trkpt>
      <trkpt lat="39.6664750" lon="-0.3508170">
        <ele>185.6</ele>
        <time>2018-05-01T06:43:21Z</time>
      </trkpt>
      <trkpt lat="39.6663810" lon="-0.3507350">
        <ele>185.6</ele>
        <time>2018-05-01T06:43:27Z</time>
      </trkpt>
      <trkpt lat="39.6663730" lon="-0.3507300">
        <ele>185.6</ele>
        <time>2018-05-01T06:43:29Z</time>
      </trkpt>
      <trkpt lat="39.6663520" lon="-0.3507070">
        <ele>186.0</ele>
        <time>2018-05-01T06:43:46Z</time>
      </trkpt>
      <trkpt lat="39.6663380" lon="-0.3507060">
        <ele>186.0</ele>
        <time>2018-05-01T06:43:47Z</time>
      </trkpt>
      <trkpt lat="39.6663650" lon="-0.3503520">
        <ele>185.2</ele>
        <time>2018-05-01T06:43:57Z</time>
      </trkpt>
      <trkpt lat="39.6663890" lon="-0.3502980">
        <ele>184.8</ele>
        <time>2018-05-01T06:43:58Z</time>
      </trkpt>
      <trkpt lat="39.6664120" lon="-0.3502470">
        <ele>184.4</ele>
        <time>2018-05-01T06:43:59Z</time>
      </trkpt>
      <trkpt lat="39.6664730" lon="-0.3501520">
        <ele>184.0</ele>
        <time>2018-05-01T06:44:01Z</time>
      </trkpt>
      <trkpt lat="39.6665470" lon="-0.3499900">
        <ele>183.6</ele>
        <time>2018-05-01T06:44:04Z</time>
      </trkpt>
      <trkpt lat="39.6665740" lon="-0.3499280">
        <ele>183.2</ele>
        <time>2018-05-01T06:44:05Z</time>
      </trkpt>
      <trkpt lat="39.6666950" lon="-0.3496670">
        <ele>182.2</ele>
        <time>2018-05-01T06:44:09Z</time>
      </trkpt>
      <trkpt lat="39.6667550" lon="-0.3495030">
        <ele>181.6</ele>
        <time>2018-05-01T06:44:11Z</time>
      </trkpt>
      <trkpt lat="39.6667710" lon="-0.3494160">
        <ele>181.2</ele>
        <time>2018-05-01T06:44:12Z</time>
      </trkpt>
      <trkpt lat="39.6667740" lon="-0.3492700">
        <ele>179.8</ele>
        <time>2018-05-01T06:44:14Z</time>
      </trkpt>
      <trkpt lat="39.6667520" lon="-0.3491700">
        <ele>178.6</ele>
        <time>2018-05-01T06:44:16Z</time>
      </trkpt>
      <trkpt lat="39.6666930" lon="-0.3491250">
        <ele>177.0</ele>
        <time>2018-05-01T06:44:18Z</time>
      </trkpt>
      <trkpt lat="39.6666330" lon="-0.3491170">
        <ele>175.8</ele>
        <time>2018-05-01T06:44:20Z</time>
      </trkpt>
      <trkpt lat="39.6666070" lon="-0.3491150">
        <ele>175.6</ele>
        <time>2018-05-01T06:44:21Z</time>
      </trkpt>
      <trkpt lat="39.6665850" lon="-0.3491160">
        <ele>175.6</ele>
        <time>2018-05-01T06:44:22Z</time>
      </trkpt>
      <trkpt lat="39.6665670" lon="-0.3491180">
        <ele>175.6</ele>
        <time>2018-05-01T06:44:23Z</time>
      </trkpt>
      <trkpt lat="39.6665490" lon="-0.3491110">
        <ele>175.6</ele>
        <time>2018-05-01T06:44:24Z</time>
      </trkpt>
      <trkpt lat="39.6665390" lon="-0.3491020">
        <ele>175.6</ele>
        <time>2018-05-01T06:44:25Z</time>
      </trkpt>
      <trkpt lat="39.6665350" lon="-0.3490880">
        <ele>175.6</ele>
        <time>2018-05-01T06:44:26Z</time>
      </trkpt>
      <trkpt lat="39.6665320" lon="-0.3490690">
        <ele>175.6</ele>
        <time>2018-05-01T06:44:27Z</time>
      </trkpt>
      <trkpt lat="39.6665320" lon="-0.3490450">
        <ele>175.6</ele>
        <time>2018-05-01T06:44:28Z</time>
      </trkpt>
      <trkpt lat="39.6665280" lon="-0.3490250">
        <ele>175.8</ele>
        <time>2018-05-01T06:44:29Z</time>
      </trkpt>
      <trkpt lat="39.6665250" lon="-0.3490090">
        <ele>176.4</ele>
        <time>2018-05-01T06:44:30Z</time>
      </trkpt>
      <trkpt lat="39.6665200" lon="-0.3489980">
        <ele>177.0</ele>
        <time>2018-05-01T06:44:31Z</time>
      </trkpt>
      <trkpt lat="39.6665170" lon="-0.3489910">
        <ele>177.4</ele>
        <time>2018-05-01T06:44:32Z</time>
      </trkpt>
      <trkpt lat="39.6665080" lon="-0.3489480">
        <ele>180.8</ele>
        <time>2018-05-01T06:45:26Z</time>
      </trkpt>
      <trkpt lat="39.6665010" lon="-0.3489230">
        <ele>180.8</ele>
        <time>2018-05-01T06:45:27Z</time>
      </trkpt>
      <trkpt lat="39.6664910" lon="-0.3489010">
        <ele>180.8</ele>
        <time>2018-05-01T06:45:28Z</time>
      </trkpt>
      <trkpt lat="39.6664840" lon="-0.3488730">
        <ele>181.0</ele>
        <time>2018-05-01T06:45:30Z</time>
      </trkpt>
      <trkpt lat="39.6664860" lon="-0.3488700">
        <ele>181.0</ele>
        <time>2018-05-01T06:45:31Z</time>
      </trkpt>
      <trkpt lat="39.6664970" lon="-0.3488110">
        <ele>183.0</ele>
        <time>2018-05-01T06:46:12Z</time>
      </trkpt>
      <trkpt lat="39.6665020" lon="-0.3487780">
        <ele>183.0</ele>
        <time>2018-05-01T06:46:13Z</time>
      </trkpt>
      <trkpt lat="39.6665170" lon="-0.3487080">
        <ele>182.8</ele>
        <time>2018-05-01T06:46:15Z</time>
      </trkpt>
      <trkpt lat="39.6665420" lon="-0.3486470">
        <ele>182.8</ele>
        <time>2018-05-01T06:46:17Z</time>
      </trkpt>
      <trkpt lat="39.6666120" lon="-0.3484060">
        <ele>182.8</ele>
        <time>2018-05-01T06:46:25Z</time>
      </trkpt>
      <trkpt lat="39.6667570" lon="-0.3482130">
        <ele>182.6</ele>
        <time>2018-05-01T06:46:29Z</time>
      </trkpt>
      <trkpt lat="39.6668070" lon="-0.3481170">
        <ele>182.6</ele>
        <time>2018-05-01T06:46:31Z</time>
      </trkpt>
      <trkpt lat="39.6668510" lon="-0.3480390">
        <ele>182.0</ele>
        <time>2018-05-01T06:46:33Z</time>
      </trkpt>
      <trkpt lat="39.6668610" lon="-0.3479970">
        <ele>181.2</ele>
        <time>2018-05-01T06:46:34Z</time>
      </trkpt>
      <trkpt lat="39.6668760" lon="-0.3479220">
        <ele>179.2</ele>
        <time>2018-05-01T06:46:36Z</time>
      </trkpt>
      <trkpt lat="39.6668880" lon="-0.3478890">
        <ele>178.0</ele>
        <time>2018-05-01T06:46:37Z</time>
      </trkpt>
      <trkpt lat="39.6668960" lon="-0.3478480">
        <ele>177.6</ele>
        <time>2018-05-01T06:46:38Z</time>
      </trkpt>
      <trkpt lat="39.6668950" lon="-0.3477470">
        <ele>177.0</ele>
        <time>2018-05-01T06:46:41Z</time>
      </trkpt>
      <trkpt lat="39.6668450" lon="-0.3476620">
        <ele>176.4</ele>
        <time>2018-05-01T06:46:45Z</time>
      </trkpt>
      <trkpt lat="39.6667900" lon="-0.3476070">
        <ele>175.4</ele>
        <time>2018-05-01T06:46:47Z</time>
      </trkpt>
      <trkpt lat="39.6667600" lon="-0.3475760">
        <ele>175.0</ele>
        <time>2018-05-01T06:46:48Z</time>
      </trkpt>
      <trkpt lat="39.6667040" lon="-0.3475150">
        <ele>174.6</ele>
        <time>2018-05-01T06:46:50Z</time>
      </trkpt>
      <trkpt lat="39.6666550" lon="-0.3474600">
        <ele>174.4</ele>
        <time>2018-05-01T06:46:52Z</time>
      </trkpt>
      <trkpt lat="39.6666150" lon="-0.3474090">
        <ele>174.0</ele>
        <time>2018-05-01T06:46:54Z</time>
      </trkpt>
      <trkpt lat="39.6667030" lon="-0.3471690">
        <ele>173.6</ele>
        <time>2018-05-01T06:47:02Z</time>
      </trkpt>
      <trkpt lat="39.6667520" lon="-0.3471120">
        <ele>173.2</ele>
        <time>2018-05-01T06:47:04Z</time>
      </trkpt>
      <trkpt lat="39.6668260" lon="-0.3470770">
        <ele>171.8</ele>
        <time>2018-05-01T06:47:07Z</time>
      </trkpt>
      <trkpt lat="39.6668570" lon="-0.3471060">
        <ele>170.8</ele>
        <time>2018-05-01T06:47:09Z</time>
      </trkpt>
      <trkpt lat="39.6668690" lon="-0.3471260">
        <ele>170.2</ele>
        <time>2018-05-01T06:47:10Z</time>
      </trkpt>
      <trkpt lat="39.6669330" lon="-0.3472130">
        <ele>170.0</ele>
        <time>2018-05-01T06:47:14Z</time>
      </trkpt>
      <trkpt lat="39.6669730" lon="-0.3472760">
        <ele>170.0</ele>
        <time>2018-05-01T06:47:16Z</time>
      </trkpt>
      <trkpt lat="39.6670160" lon="-0.3473330">
        <ele>170.0</ele>
        <time>2018-05-01T06:47:18Z</time>
      </trkpt>
      <trkpt lat="39.6670640" lon="-0.3473880">
        <ele>170.2</ele>
        <time>2018-05-01T06:47:20Z</time>
      </trkpt>
      <trkpt lat="39.6671210" lon="-0.3474270">
        <ele>170.6</ele>
        <time>2018-05-01T06:47:22Z</time>
      </trkpt>
      <trkpt lat="39.6672200" lon="-0.3474710">
        <ele>171.2</ele>
        <time>2018-05-01T06:47:25Z</time>
      </trkpt>
      <trkpt lat="39.6672510" lon="-0.3474650">
        <ele>171.4</ele>
        <time>2018-05-01T06:47:26Z</time>
      </trkpt>
      <trkpt lat="39.6673530" lon="-0.3474160">
        <ele>171.6</ele>
        <time>2018-05-01T06:47:30Z</time>
      </trkpt>
      <trkpt lat="39.6673890" lon="-0.3474000">
        <ele>171.6</ele>
        <time>2018-05-01T06:47:33Z</time>
      </trkpt>
      <trkpt lat="39.6674630" lon="-0.3473510">
        <ele>171.2</ele>
        <time>2018-05-01T06:47:36Z</time>
      </trkpt>
      <trkpt lat="39.6674970" lon="-0.3473190">
        <ele>171.0</ele>
        <time>2018-05-01T06:47:37Z</time>
      </trkpt>
      <trkpt lat="39.6675860" lon="-0.3472530">
        <ele>170.8</ele>
        <time>2018-05-01T06:47:39Z</time>
      </trkpt>
      <trkpt lat="39.6677700" lon="-0.3471560">
        <ele>170.4</ele>
        <time>2018-05-01T06:47:42Z</time>
      </trkpt>
      <trkpt lat="39.6678290" lon="-0.3471290">
        <ele>170.2</ele>
        <time>2018-05-01T06:47:43Z</time>
      </trkpt>
      <trkpt lat="39.6678790" lon="-0.3471050">
        <ele>169.0</ele>
        <time>2018-05-01T06:47:44Z</time>
      </trkpt>
      <trkpt lat="39.6679210" lon="-0.3470870">
        <ele>168.0</ele>
        <time>2018-05-01T06:47:45Z</time>
      </trkpt>
      <trkpt lat="39.6679510" lon="-0.3470680">
        <ele>166.8</ele>
        <time>2018-05-01T06:47:46Z</time>
      </trkpt>
      <trkpt lat="39.6679730" lon="-0.3470450">
        <ele>165.4</ele>
        <time>2018-05-01T06:47:47Z</time>
      </trkpt>
      <trkpt lat="39.6679840" lon="-0.3470190">
        <ele>164.2</ele>
        <time>2018-05-01T06:47:48Z</time>
      </trkpt>
      <trkpt lat="39.6680090" lon="-0.3469900">
        <ele>162.4</ele>
        <time>2018-05-01T06:47:50Z</time>
      </trkpt>
      <trkpt lat="39.6680410" lon="-0.3469720">
        <ele>161.6</ele>
        <time>2018-05-01T06:47:52Z</time>
      </trkpt>
      <trkpt lat="39.6680640" lon="-0.3469510">
        <ele>161.4</ele>
        <time>2018-05-01T06:47:53Z</time>
      </trkpt>
      <trkpt lat="39.6681030" lon="-0.3468240">
        <ele>161.0</ele>
        <time>2018-05-01T06:47:57Z</time>
      </trkpt>
      <trkpt lat="39.6680890" lon="-0.3467570">
        <ele>160.8</ele>
        <time>2018-05-01T06:47:59Z</time>
      </trkpt>
      <trkpt lat="39.6680810" lon="-0.3467280">
        <ele>160.6</ele>
        <time>2018-05-01T06:48:00Z</time>
      </trkpt>
      <trkpt lat="39.6680640" lon="-0.3466340">
        <ele>160.4</ele>
        <time>2018-05-01T06:48:03Z</time>
      </trkpt>
      <trkpt lat="39.6680620" lon="-0.3464150">
        <ele>160.0</ele>
        <time>2018-05-01T06:48:08Z</time>
      </trkpt>
      <trkpt lat="39.6681350" lon="-0.3460660">
        <ele>159.8</ele>
        <time>2018-05-01T06:48:14Z</time>
      </trkpt>
      <trkpt lat="39.6681720" lon="-0.3459230">
        <ele>159.4</ele>
        <time>2018-05-01T06:48:16Z</time>
      </trkpt>
      <trkpt lat="39.6682120" lon="-0.3457670">
        <ele>159.0</ele>
        <time>2018-05-01T06:48:18Z</time>
      </trkpt>
      <trkpt lat="39.6682520" lon="-0.3456040">
        <ele>158.6</ele>
        <time>2018-05-01T06:48:20Z</time>
      </trkpt>
      <trkpt lat="39.6682960" lon="-0.3454390">
        <ele>157.8</ele>
        <time>2018-05-01T06:48:22Z</time>
      </trkpt>
      <trkpt lat="39.6683400" lon="-0.3452780">
        <ele>156.6</ele>
        <time>2018-05-01T06:48:24Z</time>
      </trkpt>
      <trkpt lat="39.6683830" lon="-0.3451210">
        <ele>155.6</ele>
        <time>2018-05-01T06:48:26Z</time>
      </trkpt>
      <trkpt lat="39.6684170" lon="-0.3449640">
        <ele>154.4</ele>
        <time>2018-05-01T06:48:28Z</time>
      </trkpt>
      <trkpt lat="39.6684480" lon="-0.3446490">
        <ele>153.4</ele>
        <time>2018-05-01T06:48:32Z</time>
      </trkpt>
      <trkpt lat="39.6684460" lon="-0.3445700">
        <ele>153.0</ele>
        <time>2018-05-01T06:48:33Z</time>
      </trkpt>
      <trkpt lat="39.6684390" lon="-0.3444920">
        <ele>152.8</ele>
        <time>2018-05-01T06:48:34Z</time>
      </trkpt>
      <trkpt lat="39.6684010" lon="-0.3443440">
        <ele>152.6</ele>
        <time>2018-05-01T06:48:36Z</time>
      </trkpt>
      <trkpt lat="39.6683630" lon="-0.3441960">
        <ele>152.4</ele>
        <time>2018-05-01T06:48:38Z</time>
      </trkpt>
      <trkpt lat="39.6683520" lon="-0.3441190">
        <ele>152.4</ele>
        <time>2018-05-01T06:48:39Z</time>
      </trkpt>
      <trkpt lat="39.6683430" lon="-0.3439510">
        <ele>152.4</ele>
        <time>2018-05-01T06:48:41Z</time>
      </trkpt>
      <trkpt lat="39.6683510" lon="-0.3437820">
        <ele>152.2</ele>
        <time>2018-05-01T06:48:43Z</time>
      </trkpt>
      <trkpt lat="39.6683810" lon="-0.3436430">
        <ele>152.0</ele>
        <time>2018-05-01T06:48:45Z</time>
      </trkpt>
      <trkpt lat="39.6684740" lon="-0.3433780">
        <ele>151.6</ele>
        <time>2018-05-01T06:48:49Z</time>
      </trkpt>
      <trkpt lat="39.6685220" lon="-0.3432730">
        <ele>150.8</ele>
        <time>2018-05-01T06:48:51Z</time>
      </trkpt>
      <trkpt lat="39.6685760" lon="-0.3431410">
        <ele>149.6</ele>
        <time>2018-05-01T06:48:54Z</time>
      </trkpt>
      <trkpt lat="39.6685970" lon="-0.3430970">
        <ele>149.2</ele>
        <time>2018-05-01T06:48:55Z</time>
      </trkpt>
      <trkpt lat="39.6686620" lon="-0.3429820">
        <ele>148.6</ele>
        <time>2018-05-01T06:48:57Z</time>
      </trkpt>
      <trkpt lat="39.6688570" lon="-0.3426800">
        <ele>147.2</ele>
        <time>2018-05-01T06:49:02Z</time>
      </trkpt>
      <trkpt lat="39.6689330" lon="-0.3425450">
        <ele>146.2</ele>
        <time>2018-05-01T06:49:04Z</time>
      </trkpt>
      <trkpt lat="39.6689900" lon="-0.3424020">
        <ele>144.8</ele>
        <time>2018-05-01T06:49:06Z</time>
      </trkpt>
      <trkpt lat="39.6690360" lon="-0.3422900">
        <ele>143.2</ele>
        <time>2018-05-01T06:49:08Z</time>
      </trkpt>
      <trkpt lat="39.6690820" lon="-0.3422870">
        <ele>141.4</ele>
        <time>2018-05-01T06:49:10Z</time>
      </trkpt>
      <trkpt lat="39.6691000" lon="-0.3423510">
        <ele>140.0</ele>
        <time>2018-05-01T06:49:12Z</time>
      </trkpt>
      <trkpt lat="39.6690930" lon="-0.3424050">
        <ele>138.8</ele>
        <time>2018-05-01T06:49:14Z</time>
      </trkpt>
      <trkpt lat="39.6690880" lon="-0.3424230">
        <ele>138.6</ele>
        <time>2018-05-01T06:49:15Z</time>
      </trkpt>
      <trkpt lat="39.6690850" lon="-0.3424400">
        <ele>138.4</ele>
        <time>2018-05-01T06:49:16Z</time>
      </trkpt>
      <trkpt lat="39.6690670" lon="-0.3427130">
        <ele>137.4</ele>
        <time>2018-05-01T06:50:15Z</time>
      </trkpt>
      <trkpt lat="39.6690720" lon="-0.3427630">
        <ele>137.4</ele>
        <time>2018-05-01T06:50:17Z</time>
      </trkpt>
      <trkpt lat="39.6690750" lon="-0.3427950">
        <ele>137.4</ele>
        <time>2018-05-01T06:50:18Z</time>
      </trkpt>
      <trkpt lat="39.6690750" lon="-0.3428220">
        <ele>137.4</ele>
        <time>2018-05-01T06:50:19Z</time>
      </trkpt>
      <trkpt lat="39.6690740" lon="-0.3428410">
        <ele>137.4</ele>
        <time>2018-05-01T06:50:20Z</time>
      </trkpt>
      <trkpt lat="39.6690730" lon="-0.3428600">
        <ele>137.4</ele>
        <time>2018-05-01T06:50:21Z</time>
      </trkpt>
      <trkpt lat="39.6690740" lon="-0.3429030">
        <ele>137.4</ele>
        <time>2018-05-01T06:50:23Z</time>
      </trkpt>
      <trkpt lat="39.6690770" lon="-0.3429610">
        <ele>137.4</ele>
        <time>2018-05-01T06:50:25Z</time>
      </trkpt>
      <trkpt lat="39.6690800" lon="-0.3429900">
        <ele>137.6</ele>
        <time>2018-05-01T06:50:26Z</time>
      </trkpt>
      <trkpt lat="39.6690960" lon="-0.3430420">
        <ele>138.0</ele>
        <time>2018-05-01T06:50:28Z</time>
      </trkpt>
      <trkpt lat="39.6691100" lon="-0.3430920">
        <ele>138.4</ele>
        <time>2018-05-01T06:50:30Z</time>
      </trkpt>
      <trkpt lat="39.6691120" lon="-0.3431170">
        <ele>138.6</ele>
        <time>2018-05-01T06:50:31Z</time>
      </trkpt>
      <trkpt lat="39.6691060" lon="-0.3432010">
        <ele>139.4</ele>
        <time>2018-05-01T06:50:34Z</time>
      </trkpt>
      <trkpt lat="39.6690970" lon="-0.3432570">
        <ele>140.0</ele>
        <time>2018-05-01T06:50:36Z</time>
      </trkpt>
      <trkpt lat="39.6690910" lon="-0.3433460">
        <ele>140.6</ele>
        <time>2018-05-01T06:50:39Z</time>
      </trkpt>
      <trkpt lat="39.6690680" lon="-0.3434900">
        <ele>141.4</ele>
        <time>2018-05-01T06:50:44Z</time>
      </trkpt>
      <trkpt lat="39.6690870" lon="-0.3436580">
        <ele>142.6</ele>
        <time>2018-05-01T06:50:50Z</time>
      </trkpt>
      <trkpt lat="39.6691180" lon="-0.3437980">
        <ele>144.0</ele>
        <time>2018-05-01T06:50:55Z</time>
      </trkpt>
      <trkpt lat="39.6691730" lon="-0.3440090">
        <ele>145.2</ele>
        <time>2018-05-01T06:51:03Z</time>
      </trkpt>
      <trkpt lat="39.6692220" lon="-0.3441140">
        <ele>146.0</ele>
        <time>2018-05-01T06:51:07Z</time>
      </trkpt>
      <trkpt lat="39.6692950" lon="-0.3442440">
        <ele>147.2</ele>
        <time>2018-05-01T06:51:13Z</time>
      </trkpt>
      <trkpt lat="39.6693800" lon="-0.3443600">
        <ele>148.2</ele>
        <time>2018-05-01T06:51:19Z</time>
      </trkpt>
      <trkpt lat="39.6694750" lon="-0.3444710">
        <ele>149.4</ele>
        <time>2018-05-01T06:51:25Z</time>
      </trkpt>
      <trkpt lat="39.6696270" lon="-0.3445960">
        <ele>150.4</ele>
        <time>2018-05-01T06:51:33Z</time>
      </trkpt>
      <trkpt lat="39.6697780" lon="-0.3447010">
        <ele>151.8</ele>
        <time>2018-05-01T06:51:40Z</time>
      </trkpt>
      <trkpt lat="39.6698830" lon="-0.3447730">
        <ele>152.4</ele>
        <time>2018-05-01T06:51:45Z</time>
      </trkpt>
      <trkpt lat="39.6699380" lon="-0.3448120">
        <ele>152.8</ele>
        <time>2018-05-01T06:51:48Z</time>
      </trkpt>
      <trkpt lat="39.6699960" lon="-0.3448710">
        <ele>154.0</ele>
        <time>2018-05-01T06:51:52Z</time>
      </trkpt>
      <trkpt lat="39.6700090" lon="-0.3448920">
        <ele>154.2</ele>
        <time>2018-05-01T06:51:53Z</time>
      </trkpt>
      <trkpt lat="39.6700490" lon="-0.3450140">
        <ele>155.0</ele>
        <time>2018-05-01T06:51:58Z</time>
      </trkpt>
      <trkpt lat="39.6701110" lon="-0.3452410">
        <ele>156.0</ele>
        <time>2018-05-01T06:52:06Z</time>
      </trkpt>
      <trkpt lat="39.6701670" lon="-0.3453460">
        <ele>156.6</ele>
        <time>2018-05-01T06:52:10Z</time>
      </trkpt>
      <trkpt lat="39.6702570" lon="-0.3454160">
        <ele>156.8</ele>
        <time>2018-05-01T06:52:14Z</time>
      </trkpt>
      <trkpt lat="39.6702990" lon="-0.3454460">
        <ele>156.8</ele>
        <time>2018-05-01T06:52:16Z</time>
      </trkpt>
      <trkpt lat="39.6703370" lon="-0.3454790">
        <ele>157.0</ele>
        <time>2018-05-01T06:52:18Z</time>
      </trkpt>
      <trkpt lat="39.6703540" lon="-0.3454970">
        <ele>157.2</ele>
        <time>2018-05-01T06:52:19Z</time>
      </trkpt>
      <trkpt lat="39.6704670" lon="-0.3456070">
        <ele>158.2</ele>
        <time>2018-05-01T06:52:26Z</time>
      </trkpt>
      <trkpt lat="39.6704860" lon="-0.3456220">
        <ele>158.4</ele>
        <time>2018-05-01T06:52:27Z</time>
      </trkpt>
      <trkpt lat="39.6705180" lon="-0.3456550">
        <ele>158.8</ele>
        <time>2018-05-01T06:52:29Z</time>
      </trkpt>
      <trkpt lat="39.6705440" lon="-0.3456910">
        <ele>159.4</ele>
        <time>2018-05-01T06:52:31Z</time>
      </trkpt>
      <trkpt lat="39.6705860" lon="-0.3457360">
        <ele>160.2</ele>
        <time>2018-05-01T06:52:34Z</time>
      </trkpt>
      <trkpt lat="39.6706490" lon="-0.3458120">
        <ele>161.4</ele>
        <time>2018-05-01T06:52:39Z</time>
      </trkpt>
      <trkpt lat="39.6707080" lon="-0.3458610">
        <ele>162.4</ele>
        <time>2018-05-01T06:52:43Z</time>
      </trkpt>
      <trkpt lat="39.6707600" lon="-0.3459220">
        <ele>163.6</ele>
        <time>2018-05-01T06:52:47Z</time>
      </trkpt>
      <trkpt lat="39.6707980" lon="-0.3459540">
        <ele>164.8</ele>
        <time>2018-05-01T06:52:50Z</time>
      </trkpt>
      <trkpt lat="39.6708280" lon="-0.3459700">
        <ele>165.2</ele>
        <time>2018-05-01T06:52:52Z</time>
      </trkpt>
      <trkpt lat="39.6708750" lon="-0.3460060">
        <ele>165.8</ele>
        <time>2018-05-01T06:52:55Z</time>
      </trkpt>
      <trkpt lat="39.6709620" lon="-0.3460740">
        <ele>167.0</ele>
        <time>2018-05-01T06:53:00Z</time>
      </trkpt>
      <trkpt lat="39.6710300" lon="-0.3461370">
        <ele>168.2</ele>
        <time>2018-05-01T06:53:04Z</time>
      </trkpt>
      <trkpt lat="39.6711090" lon="-0.3462060">
        <ele>169.4</ele>
        <time>2018-05-01T06:53:08Z</time>
      </trkpt>
      <trkpt lat="39.6711710" lon="-0.3462830">
        <ele>170.4</ele>
        <time>2018-05-01T06:53:12Z</time>
      </trkpt>
      <trkpt lat="39.6712420" lon="-0.3463840">
        <ele>171.6</ele>
        <time>2018-05-01T06:53:17Z</time>
      </trkpt>
      <trkpt lat="39.6713090" lon="-0.3464950">
        <ele>172.8</ele>
        <time>2018-05-01T06:53:22Z</time>
      </trkpt>
      <trkpt lat="39.6714020" lon="-0.3466240">
        <ele>174.0</ele>
        <time>2018-05-01T06:53:28Z</time>
      </trkpt>
      <trkpt lat="39.6715060" lon="-0.3467420">
        <ele>175.0</ele>
        <time>2018-05-01T06:53:34Z</time>
      </trkpt>
      <trkpt lat="39.6716240" lon="-0.3468760">
        <ele>176.0</ele>
        <time>2018-05-01T06:53:41Z</time>
      </trkpt>
      <trkpt lat="39.6717540" lon="-0.3470130">
        <ele>177.2</ele>
        <time>2018-05-01T06:53:48Z</time>
      </trkpt>
      <trkpt lat="39.6718320" lon="-0.3470770">
        <ele>177.6</ele>
        <time>2018-05-01T06:53:52Z</time>
      </trkpt>
      <trkpt lat="39.6719100" lon="-0.3471350">
        <ele>178.4</ele>
        <time>2018-05-01T06:53:56Z</time>
      </trkpt>
      <trkpt lat="39.6720910" lon="-0.3472300">
        <ele>179.4</ele>
        <time>2018-05-01T06:54:06Z</time>
      </trkpt>
      <trkpt lat="39.6721830" lon="-0.3472580">
        <ele>180.6</ele>
        <time>2018-05-01T06:54:11Z</time>
      </trkpt>
      <trkpt lat="39.6722800" lon="-0.3472700">
        <ele>181.8</ele>
        <time>2018-05-01T06:54:16Z</time>
      </trkpt>
      <trkpt lat="39.6723860" lon="-0.3472560">
        <ele>183.0</ele>
        <time>2018-05-01T06:54:22Z</time>
      </trkpt>
      <trkpt lat="39.6724680" lon="-0.3472690">
        <ele>184.2</ele>
        <time>2018-05-01T06:54:27Z</time>
      </trkpt>
      <trkpt lat="39.6725230" lon="-0.3472850">
        <ele>185.6</ele>
        <time>2018-05-01T06:54:30Z</time>
      </trkpt>
      <trkpt lat="39.6725870" lon="-0.3473160">
        <ele>186.8</ele>
        <time>2018-05-01T06:54:34Z</time>
      </trkpt>
      <trkpt lat="39.6726490" lon="-0.3473320">
        <ele>188.0</ele>
        <time>2018-05-01T06:54:38Z</time>
      </trkpt>
      <trkpt lat="39.6727130" lon="-0.3473500">
        <ele>189.0</ele>
        <time>2018-05-01T06:54:42Z</time>
      </trkpt>
      <trkpt lat="39.6727750" lon="-0.3473690">
        <ele>190.2</ele>
        <time>2018-05-01T06:54:46Z</time>
      </trkpt>
      <trkpt lat="39.6728350" lon="-0.3474080">
        <ele>191.2</ele>
        <time>2018-05-01T06:54:50Z</time>
      </trkpt>
      <trkpt lat="39.6728960" lon="-0.3474540">
        <ele>192.6</ele>
        <time>2018-05-01T06:54:54Z</time>
      </trkpt>
      <trkpt lat="39.6729560" lon="-0.3475040">
        <ele>193.6</ele>
        <time>2018-05-01T06:54:58Z</time>
      </trkpt>
      <trkpt lat="39.6729650" lon="-0.3475210">
        <ele>193.8</ele>
        <time>2018-05-01T06:54:59Z</time>
      </trkpt>
      <trkpt lat="39.6730090" lon="-0.3475620">
        <ele>194.8</ele>
        <time>2018-05-01T06:55:02Z</time>
      </trkpt>
      <trkpt lat="39.6730620" lon="-0.3476040">
        <ele>195.8</ele>
        <time>2018-05-01T06:55:06Z</time>
      </trkpt>
      <trkpt lat="39.6731230" lon="-0.3476400">
        <ele>196.8</ele>
        <time>2018-05-01T06:55:10Z</time>
      </trkpt>
      <trkpt lat="39.6732110" lon="-0.3477010">
        <ele>197.8</ele>
        <time>2018-05-01T06:55:15Z</time>
      </trkpt>
      <trkpt lat="39.6732610" lon="-0.3477700">
        <ele>199.0</ele>
        <time>2018-05-01T06:55:20Z</time>
      </trkpt>
      <trkpt lat="39.6733050" lon="-0.3478530">
        <ele>200.2</ele>
        <time>2018-05-01T06:55:25Z</time>
      </trkpt>
      <trkpt lat="39.6733180" lon="-0.3479150">
        <ele>201.4</ele>
        <time>2018-05-01T06:55:28Z</time>
      </trkpt>
      <trkpt lat="39.6733440" lon="-0.3479630">
        <ele>202.4</ele>
        <time>2018-05-01T06:55:31Z</time>
      </trkpt>
      <trkpt lat="39.6733590" lon="-0.3480210">
        <ele>203.4</ele>
        <time>2018-05-01T06:55:34Z</time>
      </trkpt>
      <trkpt lat="39.6733730" lon="-0.3480830">
        <ele>204.6</ele>
        <time>2018-05-01T06:55:37Z</time>
      </trkpt>
      <trkpt lat="39.6733970" lon="-0.3481360">
        <ele>205.8</ele>
        <time>2018-05-01T06:55:40Z</time>
      </trkpt>
      <trkpt lat="39.6734180" lon="-0.3482040">
        <ele>206.8</ele>
        <time>2018-05-01T06:55:43Z</time>
      </trkpt>
      <trkpt lat="39.6734430" lon="-0.3482660">
        <ele>208.0</ele>
        <time>2018-05-01T06:55:46Z</time>
      </trkpt>
      <trkpt lat="39.6734770" lon="-0.3483170">
        <ele>209.2</ele>
        <time>2018-05-01T06:55:49Z</time>
      </trkpt>
      <trkpt lat="39.6735040" lon="-0.3483450">
        <ele>210.0</ele>
        <time>2018-05-01T06:55:51Z</time>
      </trkpt>
      <trkpt lat="39.6735190" lon="-0.3483580">
        <ele>210.2</ele>
        <time>2018-05-01T06:55:52Z</time>
      </trkpt>
      <trkpt lat="39.6735580" lon="-0.3484070">
        <ele>211.6</ele>
        <time>2018-05-01T06:55:55Z</time>
      </trkpt>
      <trkpt lat="39.6735950" lon="-0.3484540">
        <ele>212.8</ele>
        <time>2018-05-01T06:55:58Z</time>
      </trkpt>
      <trkpt lat="39.6736310" lon="-0.3484930">
        <ele>214.0</ele>
        <time>2018-05-01T06:56:01Z</time>
      </trkpt>
      <trkpt lat="39.6736730" lon="-0.3485240">
        <ele>215.2</ele>
        <time>2018-05-01T06:56:04Z</time>
      </trkpt>
      <trkpt lat="39.6737200" lon="-0.3485650">
        <ele>216.4</ele>
        <time>2018-05-01T06:56:07Z</time>
      </trkpt>
      <trkpt lat="39.6737490" lon="-0.3485920">
        <ele>217.4</ele>
        <time>2018-05-01T06:56:09Z</time>
      </trkpt>
      <trkpt lat="39.6738400" lon="-0.3486450">
        <ele>218.6</ele>
        <time>2018-05-01T06:56:14Z</time>
      </trkpt>
      <trkpt lat="39.6739060" lon="-0.3486900">
        <ele>219.6</ele>
        <time>2018-05-01T06:56:18Z</time>
      </trkpt>
      <trkpt lat="39.6739590" lon="-0.3487650">
        <ele>221.0</ele>
        <time>2018-05-01T06:56:23Z</time>
      </trkpt>
      <trkpt lat="39.6739610" lon="-0.3487850">
        <ele>221.2</ele>
        <time>2018-05-01T06:56:24Z</time>
      </trkpt>
      <trkpt lat="39.6739320" lon="-0.3488400">
        <ele>222.2</ele>
        <time>2018-05-01T06:56:27Z</time>
      </trkpt>
      <trkpt lat="39.6738840" lon="-0.3488440">
        <ele>223.2</ele>
        <time>2018-05-01T06:56:30Z</time>
      </trkpt>
      <trkpt lat="39.6738640" lon="-0.3488370">
        <ele>223.4</ele>
        <time>2018-05-01T06:56:31Z</time>
      </trkpt>
      <trkpt lat="39.6737770" lon="-0.3487730">
        <ele>224.6</ele>
        <time>2018-05-01T06:56:35Z</time>
      </trkpt>
      <trkpt lat="39.6736210" lon="-0.3486930">
        <ele>225.4</ele>
        <time>2018-05-01T06:56:42Z</time>
      </trkpt>
      <trkpt lat="39.6736000" lon="-0.3486900">
        <ele>225.6</ele>
        <time>2018-05-01T06:56:43Z</time>
      </trkpt>
      <trkpt lat="39.6734510" lon="-0.3486790">
        <ele>226.4</ele>
        <time>2018-05-01T06:56:51Z</time>
      </trkpt>
      <trkpt lat="39.6733790" lon="-0.3486900">
        <ele>227.8</ele>
        <time>2018-05-01T06:56:55Z</time>
      </trkpt>
      <trkpt lat="39.6733060" lon="-0.3487140">
        <ele>229.0</ele>
        <time>2018-05-01T06:56:59Z</time>
      </trkpt>
      <trkpt lat="39.6732520" lon="-0.3487380">
        <ele>230.0</ele>
        <time>2018-05-01T06:57:02Z</time>
      </trkpt>
      <trkpt lat="39.6732120" lon="-0.3488150">
        <ele>231.2</ele>
        <time>2018-05-01T06:57:06Z</time>
      </trkpt>
      <trkpt lat="39.6731940" lon="-0.3489070">
        <ele>232.4</ele>
        <time>2018-05-01T06:57:10Z</time>
      </trkpt>
      <trkpt lat="39.6731840" lon="-0.3490060">
        <ele>233.4</ele>
        <time>2018-05-01T06:57:14Z</time>
      </trkpt>
      <trkpt lat="39.6731670" lon="-0.3490820">
        <ele>234.4</ele>
        <time>2018-05-01T06:57:17Z</time>
      </trkpt>
      <trkpt lat="39.6731450" lon="-0.3491940">
        <ele>235.6</ele>
        <time>2018-05-01T06:57:21Z</time>
      </trkpt>
      <trkpt lat="39.6731550" lon="-0.3493010">
        <ele>236.8</ele>
        <time>2018-05-01T06:57:25Z</time>
      </trkpt>
      <trkpt lat="39.6732030" lon="-0.3494070">
        <ele>238.2</ele>
        <time>2018-05-01T06:57:29Z</time>
      </trkpt>
      <trkpt lat="39.6733370" lon="-0.3495880">
        <ele>238.6</ele>
        <time>2018-05-01T06:57:37Z</time>
      </trkpt>
      <trkpt lat="39.6734650" lon="-0.3496260">
        <ele>239.0</ele>
        <time>2018-05-01T06:57:42Z</time>
      </trkpt>
      <trkpt lat="39.6735170" lon="-0.3496380">
        <ele>239.2</ele>
        <time>2018-05-01T06:57:44Z</time>
      </trkpt>
      <trkpt lat="39.6736300" lon="-0.3497120">
        <ele>239.6</ele>
        <time>2018-05-01T06:57:49Z</time>
      </trkpt>
      <trkpt lat="39.6737000" lon="-0.3498560">
        <ele>240.0</ele>
        <time>2018-05-01T06:57:54Z</time>
      </trkpt>
      <trkpt lat="39.6737170" lon="-0.3499830">
        <ele>240.0</ele>
        <time>2018-05-01T06:57:57Z</time>
      </trkpt>
      <trkpt lat="39.6737200" lon="-0.3500920">
        <ele>240.0</ele>
        <time>2018-05-01T06:57:59Z</time>
      </trkpt>
      <trkpt lat="39.6737260" lon="-0.3502950">
        <ele>240.0</ele>
        <time>2018-05-01T06:58:02Z</time>
      </trkpt>
      <trkpt lat="39.6737210" lon="-0.3504380">
        <ele>240.0</ele>
        <time>2018-05-01T06:58:04Z</time>
      </trkpt>
      <trkpt lat="39.6736650" lon="-0.3506070">
        <ele>238.0</ele>
        <time>2018-05-01T06:58:08Z</time>
      </trkpt>
      <trkpt lat="39.6736020" lon="-0.3506820">
        <ele>237.2</ele>
        <time>2018-05-01T06:58:11Z</time>
      </trkpt>
      <trkpt lat="39.6735440" lon="-0.3507420">
        <ele>237.2</ele>
        <time>2018-05-01T06:58:14Z</time>
      </trkpt>
      <trkpt lat="39.6734790" lon="-0.3508200">
        <ele>237.2</ele>
        <time>2018-05-01T06:58:18Z</time>
      </trkpt>
      <trkpt lat="39.6734290" lon="-0.3508710">
        <ele>237.6</ele>
        <time>2018-05-01T06:58:21Z</time>
      </trkpt>
      <trkpt lat="39.6733790" lon="-0.3509150">
        <ele>239.0</ele>
        <time>2018-05-01T06:58:24Z</time>
      </trkpt>
      <trkpt lat="39.6733660" lon="-0.3509330">
        <ele>239.2</ele>
        <time>2018-05-01T06:58:25Z</time>
      </trkpt>
      <trkpt lat="39.6733220" lon="-0.3510120">
        <ele>240.6</ele>
        <time>2018-05-01T06:58:29Z</time>
      </trkpt>
      <trkpt lat="39.6732990" lon="-0.3510690">
        <ele>241.2</ele>
        <time>2018-05-01T06:58:32Z</time>
      </trkpt>
      <trkpt lat="39.6732890" lon="-0.3511100">
        <ele>241.6</ele>
        <time>2018-05-01T06:58:34Z</time>
      </trkpt>
      <trkpt lat="39.6732770" lon="-0.3511990">
        <ele>243.0</ele>
        <time>2018-05-01T06:58:38Z</time>
      </trkpt>
      <trkpt lat="39.6732690" lon="-0.3512630">
        <ele>244.0</ele>
        <time>2018-05-01T06:58:41Z</time>
      </trkpt>
      <trkpt lat="39.6732710" lon="-0.3513530">
        <ele>245.2</ele>
        <time>2018-05-01T06:58:45Z</time>
      </trkpt>
      <trkpt lat="39.6733010" lon="-0.3514420">
        <ele>246.4</ele>
        <time>2018-05-01T06:58:49Z</time>
      </trkpt>
      <trkpt lat="39.6733420" lon="-0.3515250">
        <ele>247.8</ele>
        <time>2018-05-01T06:58:53Z</time>
      </trkpt>
      <trkpt lat="39.6733810" lon="-0.3516110">
        <ele>248.8</ele>
        <time>2018-05-01T06:58:57Z</time>
      </trkpt>
      <trkpt lat="39.6733990" lon="-0.3516520">
        <ele>250.0</ele>
        <time>2018-05-01T06:58:59Z</time>
      </trkpt>
      <trkpt lat="39.6734400" lon="-0.3517320">
        <ele>251.0</ele>
        <time>2018-05-01T06:59:03Z</time>
      </trkpt>
      <trkpt lat="39.6734800" lon="-0.3518230">
        <ele>252.2</ele>
        <time>2018-05-01T06:59:07Z</time>
      </trkpt>
      <trkpt lat="39.6735060" lon="-0.3519430">
        <ele>253.2</ele>
        <time>2018-05-01T06:59:11Z</time>
      </trkpt>
      <trkpt lat="39.6735790" lon="-0.3521960">
        <ele>253.6</ele>
        <time>2018-05-01T06:59:18Z</time>
      </trkpt>
      <trkpt lat="39.6736350" lon="-0.3523700">
        <ele>253.8</ele>
        <time>2018-05-01T06:59:22Z</time>
      </trkpt>
      <trkpt lat="39.6736650" lon="-0.3525240">
        <ele>253.8</ele>
        <time>2018-05-01T06:59:25Z</time>
      </trkpt>
      <trkpt lat="39.6736700" lon="-0.3525800">
        <ele>253.6</ele>
        <time>2018-05-01T06:59:26Z</time>
      </trkpt>
      <trkpt lat="39.6736690" lon="-0.3527510">
        <ele>253.2</ele>
        <time>2018-05-01T06:59:29Z</time>
      </trkpt>
      <trkpt lat="39.6736730" lon="-0.3528560">
        <ele>253.0</ele>
        <time>2018-05-01T06:59:31Z</time>
      </trkpt>
      <trkpt lat="39.6736630" lon="-0.3529840">
        <ele>252.8</ele>
        <time>2018-05-01T06:59:34Z</time>
      </trkpt>
      <trkpt lat="39.6737510" lon="-0.3535280">
        <ele>254.0</ele>
        <time>2018-05-01T06:59:49Z</time>
      </trkpt>
      <trkpt lat="39.6737650" lon="-0.3535640">
        <ele>254.0</ele>
        <time>2018-05-01T06:59:50Z</time>
      </trkpt>
      <trkpt lat="39.6738350" lon="-0.3539120">
        <ele>254.8</ele>
        <time>2018-05-01T06:59:58Z</time>
      </trkpt>
      <trkpt lat="39.6738570" lon="-0.3544210">
        <ele>255.2</ele>
        <time>2018-05-01T07:00:12Z</time>
      </trkpt>
      <trkpt lat="39.6738430" lon="-0.3545200">
        <ele>256.2</ele>
        <time>2018-05-01T07:00:15Z</time>
      </trkpt>
      <trkpt lat="39.6738370" lon="-0.3546210">
        <ele>257.2</ele>
        <time>2018-05-01T07:00:18Z</time>
      </trkpt>
      <trkpt lat="39.6738380" lon="-0.3546570">
        <ele>257.4</ele>
        <time>2018-05-01T07:00:19Z</time>
      </trkpt>
      <trkpt lat="39.6738510" lon="-0.3547680">
        <ele>258.2</ele>
        <time>2018-05-01T07:00:22Z</time>
      </trkpt>
      <trkpt lat="39.6738570" lon="-0.3548040">
        <ele>258.4</ele>
        <time>2018-05-01T07:00:23Z</time>
      </trkpt>
      <trkpt lat="39.6738660" lon="-0.3550800">
        <ele>259.6</ele>
        <time>2018-05-01T07:00:31Z</time>
      </trkpt>
      <trkpt lat="39.6738480" lon="-0.3552620">
        <ele>261.0</ele>
        <time>2018-05-01T07:00:38Z</time>
      </trkpt>
      <trkpt lat="39.6738410" lon="-0.3553480">
        <ele>262.2</ele>
        <time>2018-05-01T07:00:41Z</time>
      </trkpt>
      <trkpt lat="39.6738340" lon="-0.3554420">
        <ele>263.2</ele>
        <time>2018-05-01T07:00:44Z</time>
      </trkpt>
      <trkpt lat="39.6738190" lon="-0.3555350">
        <ele>264.2</ele>
        <time>2018-05-01T07:00:47Z</time>
      </trkpt>
      <trkpt lat="39.6738120" lon="-0.3555670">
        <ele>264.4</ele>
        <time>2018-05-01T07:00:48Z</time>
      </trkpt>
      <trkpt lat="39.6737900" lon="-0.3557060">
        <ele>265.4</ele>
        <time>2018-05-01T07:00:52Z</time>
      </trkpt>
      <trkpt lat="39.6737570" lon="-0.3560050">
        <ele>266.2</ele>
        <time>2018-05-01T07:01:01Z</time>
      </trkpt>
      <trkpt lat="39.6737400" lon="-0.3561170">
        <ele>266.8</ele>
        <time>2018-05-01T07:01:05Z</time>
      </trkpt>
      <trkpt lat="39.6737330" lon="-0.3562170">
        <ele>268.0</ele>
        <time>2018-05-01T07:01:09Z</time>
      </trkpt>
      <trkpt lat="39.6737340" lon="-0.3562890">
        <ele>269.6</ele>
        <time>2018-05-01T07:01:12Z</time>
      </trkpt>
      <trkpt lat="39.6737410" lon="-0.3563610">
        <ele>270.8</ele>
        <time>2018-05-01T07:01:15Z</time>
      </trkpt>
      <trkpt lat="39.6737570" lon="-0.3564560">
        <ele>272.0</ele>
        <time>2018-05-01T07:01:19Z</time>
      </trkpt>
      <trkpt lat="39.6737680" lon="-0.3565500">
        <ele>273.4</ele>
        <time>2018-05-01T07:01:23Z</time>
      </trkpt>
      <trkpt lat="39.6737740" lon="-0.3566200">
        <ele>274.8</ele>
        <time>2018-05-01T07:01:26Z</time>
      </trkpt>
      <trkpt lat="39.6737660" lon="-0.3566400">
        <ele>275.2</ele>
        <time>2018-05-01T07:01:27Z</time>
      </trkpt>
      <trkpt lat="39.6737400" lon="-0.3566650">
        <ele>275.8</ele>
        <time>2018-05-01T07:01:29Z</time>
      </trkpt>
      <trkpt lat="39.6736730" lon="-0.3566290">
        <ele>277.0</ele>
        <time>2018-05-01T07:01:33Z</time>
      </trkpt>
      <trkpt lat="39.6736460" lon="-0.3565940">
        <ele>277.6</ele>
        <time>2018-05-01T07:01:35Z</time>
      </trkpt>
      <trkpt lat="39.6736110" lon="-0.3565390">
        <ele>278.2</ele>
        <time>2018-05-01T07:01:38Z</time>
      </trkpt>
      <trkpt lat="39.6735400" lon="-0.3564670">
        <ele>279.4</ele>
        <time>2018-05-01T07:01:43Z</time>
      </trkpt>
      <trkpt lat="39.6734960" lon="-0.3564230">
        <ele>280.4</ele>
        <time>2018-05-01T07:01:46Z</time>
      </trkpt>
      <trkpt lat="39.6734350" lon="-0.3563740">
        <ele>281.6</ele>
        <time>2018-05-01T07:01:50Z</time>
      </trkpt>
      <trkpt lat="39.6733570" lon="-0.3563040">
        <ele>282.8</ele>
        <time>2018-05-01T07:01:55Z</time>
      </trkpt>
      <trkpt lat="39.6733030" lon="-0.3562670">
        <ele>283.8</ele>
        <time>2018-05-01T07:01:58Z</time>
      </trkpt>
      <trkpt lat="39.6732290" lon="-0.3562570">
        <ele>284.8</ele>
        <time>2018-05-01T07:02:02Z</time>
      </trkpt>
      <trkpt lat="39.6731300" lon="-0.3563200">
        <ele>286.0</ele>
        <time>2018-05-01T07:02:09Z</time>
      </trkpt>
      <trkpt lat="39.6730930" lon="-0.3563630">
        <ele>287.0</ele>
        <time>2018-05-01T07:02:12Z</time>
      </trkpt>
      <trkpt lat="39.6730780" lon="-0.3563730">
        <ele>287.4</ele>
        <time>2018-05-01T07:02:13Z</time>
      </trkpt>
      <trkpt lat="39.6730400" lon="-0.3564180">
        <ele>288.4</ele>
        <time>2018-05-01T07:02:16Z</time>
      </trkpt>
      <trkpt lat="39.6729990" lon="-0.3564630">
        <ele>289.6</ele>
        <time>2018-05-01T07:02:19Z</time>
      </trkpt>
      <trkpt lat="39.6729610" lon="-0.3565090">
        <ele>290.8</ele>
        <time>2018-05-01T07:02:22Z</time>
      </trkpt>
      <trkpt lat="39.6729140" lon="-0.3565430">
        <ele>292.0</ele>
        <time>2018-05-01T07:02:25Z</time>
      </trkpt>
      <trkpt lat="39.6728710" lon="-0.3565900">
        <ele>293.0</ele>
        <time>2018-05-01T07:02:28Z</time>
      </trkpt>
      <trkpt lat="39.6728010" lon="-0.3566480">
        <ele>294.2</ele>
        <time>2018-05-01T07:02:32Z</time>
      </trkpt>
      <trkpt lat="39.6727430" lon="-0.3567110">
        <ele>295.4</ele>
        <time>2018-05-01T07:02:36Z</time>
      </trkpt>
      <trkpt lat="39.6727080" lon="-0.3567610">
        <ele>296.4</ele>
        <time>2018-05-01T07:02:39Z</time>
      </trkpt>
      <trkpt lat="39.6726830" lon="-0.3568470">
        <ele>297.6</ele>
        <time>2018-05-01T07:02:43Z</time>
      </trkpt>
      <trkpt lat="39.6726960" lon="-0.3569280">
        <ele>298.8</ele>
        <time>2018-05-01T07:02:47Z</time>
      </trkpt>
      <trkpt lat="39.6727460" lon="-0.3569600">
        <ele>300.0</ele>
        <time>2018-05-01T07:02:50Z</time>
      </trkpt>
      <trkpt lat="39.6727900" lon="-0.3569680">
        <ele>300.6</ele>
        <time>2018-05-01T07:02:52Z</time>
      </trkpt>
      <trkpt lat="39.6728120" lon="-0.3569710">
        <ele>301.2</ele>
        <time>2018-05-01T07:02:53Z</time>
      </trkpt>
      <trkpt lat="39.6728930" lon="-0.3569960">
        <ele>302.4</ele>
        <time>2018-05-01T07:02:57Z</time>
      </trkpt>
      <trkpt lat="39.6729550" lon="-0.3571640">
        <ele>303.4</ele>
        <time>2018-05-01T07:03:05Z</time>
      </trkpt>
      <trkpt lat="39.6729520" lon="-0.3572850">
        <ele>304.4</ele>
        <time>2018-05-01T07:03:09Z</time>
      </trkpt>
      <trkpt lat="39.6729270" lon="-0.3573800">
        <ele>305.8</ele>
        <time>2018-05-01T07:03:13Z</time>
      </trkpt>
      <trkpt lat="39.6728940" lon="-0.3574720">
        <ele>307.0</ele>
        <time>2018-05-01T07:03:17Z</time>
      </trkpt>
      <trkpt lat="39.6728610" lon="-0.3575640">
        <ele>308.0</ele>
        <time>2018-05-01T07:03:21Z</time>
      </trkpt>
      <trkpt lat="39.6727990" lon="-0.3577320">
        <ele>309.0</ele>
        <time>2018-05-01T07:03:28Z</time>
      </trkpt>
      <trkpt lat="39.6727960" lon="-0.3577410">
        <ele>309.2</ele>
        <time>2018-05-01T07:03:30Z</time>
      </trkpt>
      <trkpt lat="39.6728250" lon="-0.3577820">
        <ele>310.8</ele>
        <time>2018-05-01T07:05:48Z</time>
      </trkpt>
      <trkpt lat="39.6728300" lon="-0.3578000">
        <ele>310.8</ele>
        <time>2018-05-01T07:05:49Z</time>
      </trkpt>
      <trkpt lat="39.6728320" lon="-0.3578460">
        <ele>310.8</ele>
        <time>2018-05-01T07:05:51Z</time>
      </trkpt>
      <trkpt lat="39.6728280" lon="-0.3579260">
        <ele>310.8</ele>
        <time>2018-05-01T07:05:54Z</time>
      </trkpt>
      <trkpt lat="39.6728310" lon="-0.3580170">
        <ele>311.0</ele>
        <time>2018-05-01T07:05:57Z</time>
      </trkpt>
      <trkpt lat="39.6728740" lon="-0.3582570">
        <ele>311.4</ele>
        <time>2018-05-01T07:06:05Z</time>
      </trkpt>
      <trkpt lat="39.6728880" lon="-0.3583140">
        <ele>311.6</ele>
        <time>2018-05-01T07:06:07Z</time>
      </trkpt>
      <trkpt lat="39.6729040" lon="-0.3583990">
        <ele>311.8</ele>
        <time>2018-05-01T07:06:10Z</time>
      </trkpt>
      <trkpt lat="39.6729070" lon="-0.3584490">
        <ele>312.2</ele>
        <time>2018-05-01T07:06:12Z</time>
      </trkpt>
      <trkpt lat="39.6729130" lon="-0.3584940">
        <ele>312.8</ele>
        <time>2018-05-01T07:06:14Z</time>
      </trkpt>
      <trkpt lat="39.6729120" lon="-0.3585170">
        <ele>313.0</ele>
        <time>2018-05-01T07:06:15Z</time>
      </trkpt>
      <trkpt lat="39.6728990" lon="-0.3585690">
        <ele>313.4</ele>
        <time>2018-05-01T07:06:17Z</time>
      </trkpt>
      <trkpt lat="39.6728920" lon="-0.3585940">
        <ele>313.8</ele>
        <time>2018-05-01T07:06:18Z</time>
      </trkpt>
      <trkpt lat="39.6728860" lon="-0.3586200">
        <ele>314.0</ele>
        <time>2018-05-01T07:06:19Z</time>
      </trkpt>
      <trkpt lat="39.6728810" lon="-0.3586460">
        <ele>314.4</ele>
        <time>2018-05-01T07:06:20Z</time>
      </trkpt>
      <trkpt lat="39.6728710" lon="-0.3586990">
        <ele>315.2</ele>
        <time>2018-05-01T07:06:22Z</time>
      </trkpt>
      <trkpt lat="39.6728580" lon="-0.3587470">
        <ele>315.8</ele>
        <time>2018-05-01T07:06:24Z</time>
      </trkpt>
      <trkpt lat="39.6728460" lon="-0.3588000">
        <ele>316.4</ele>
        <time>2018-05-01T07:06:26Z</time>
      </trkpt>
      <trkpt lat="39.6728220" lon="-0.3589090">
        <ele>317.4</ele>
        <time>2018-05-01T07:06:30Z</time>
      </trkpt>
      <trkpt lat="39.6727900" lon="-0.3590160">
        <ele>318.6</ele>
        <time>2018-05-01T07:06:34Z</time>
      </trkpt>
      <trkpt lat="39.6727340" lon="-0.3591670">
        <ele>319.8</ele>
        <time>2018-05-01T07:06:40Z</time>
      </trkpt>
      <trkpt lat="39.6726840" lon="-0.3592830">
        <ele>320.8</ele>
        <time>2018-05-01T07:06:45Z</time>
      </trkpt>
      <trkpt lat="39.6726470" lon="-0.3593850">
        <ele>322.0</ele>
        <time>2018-05-01T07:06:49Z</time>
      </trkpt>
      <trkpt lat="39.6726080" lon="-0.3595160">
        <ele>323.2</ele>
        <time>2018-05-01T07:06:54Z</time>
      </trkpt>
      <trkpt lat="39.6725760" lon="-0.3596230">
        <ele>324.2</ele>
        <time>2018-05-01T07:06:58Z</time>
      </trkpt>
      <trkpt lat="39.6725420" lon="-0.3597250">
        <ele>325.4</ele>
        <time>2018-05-01T07:07:02Z</time>
      </trkpt>
      <trkpt lat="39.6724780" lon="-0.3598310">
        <ele>326.4</ele>
        <time>2018-05-01T07:07:07Z</time>
      </trkpt>
      <trkpt lat="39.6723860" lon="-0.3599110">
        <ele>327.6</ele>
        <time>2018-05-01T07:07:13Z</time>
      </trkpt>
      <trkpt lat="39.6723160" lon="-0.3599640">
        <ele>328.6</ele>
        <time>2018-05-01T07:07:17Z</time>
      </trkpt>
      <trkpt lat="39.6722660" lon="-0.3600150">
        <ele>329.8</ele>
        <time>2018-05-01T07:07:20Z</time>
      </trkpt>
      <trkpt lat="39.6722160" lon="-0.3600510">
        <ele>330.8</ele>
        <time>2018-05-01T07:07:23Z</time>
      </trkpt>
      <trkpt lat="39.6721730" lon="-0.3600900">
        <ele>331.8</ele>
        <time>2018-05-01T07:07:26Z</time>
      </trkpt>
      <trkpt lat="39.6720900" lon="-0.3601430">
        <ele>333.0</ele>
        <time>2018-05-01T07:07:31Z</time>
      </trkpt>
      <trkpt lat="39.6720030" lon="-0.3601890">
        <ele>334.4</ele>
        <time>2018-05-01T07:07:35Z</time>
      </trkpt>
      <trkpt lat="39.6718610" lon="-0.3602600">
        <ele>335.0</ele>
        <time>2018-05-01T07:07:40Z</time>
      </trkpt>
      <trkpt lat="39.6718070" lon="-0.3604230">
        <ele>335.0</ele>
        <time>2018-05-01T07:07:43Z</time>
      </trkpt>
      <trkpt lat="39.6717980" lon="-0.3604820">
        <ele>335.0</ele>
        <time>2018-05-01T07:07:44Z</time>
      </trkpt>
      <trkpt lat="39.6717620" lon="-0.3606630">
        <ele>335.0</ele>
        <time>2018-05-01T07:07:47Z</time>
      </trkpt>
      <trkpt lat="39.6717520" lon="-0.3607290">
        <ele>334.8</ele>
        <time>2018-05-01T07:07:48Z</time>
      </trkpt>
      <trkpt lat="39.6717290" lon="-0.3609320">
        <ele>333.6</ele>
        <time>2018-05-01T07:07:51Z</time>
      </trkpt>
      <trkpt lat="39.6717210" lon="-0.3610660">
        <ele>333.2</ele>
        <time>2018-05-01T07:07:53Z</time>
      </trkpt>
      <trkpt lat="39.6717250" lon="-0.3612620">
        <ele>332.0</ele>
        <time>2018-05-01T07:07:56Z</time>
      </trkpt>
      <trkpt lat="39.6717440" lon="-0.3614710">
        <ele>331.6</ele>
        <time>2018-05-01T07:07:59Z</time>
      </trkpt>
      <trkpt lat="39.6717900" lon="-0.3617230">
        <ele>331.4</ele>
        <time>2018-05-01T07:08:03Z</time>
      </trkpt>
      <trkpt lat="39.6717150" lon="-0.3619180">
        <ele>331.4</ele>
        <time>2018-05-01T07:08:07Z</time>
      </trkpt>
      <trkpt lat="39.6716080" lon="-0.3624150">
        <ele>332.0</ele>
        <time>2018-05-01T07:08:21Z</time>
      </trkpt>
      <trkpt lat="39.6715540" lon="-0.3626270">
        <ele>332.4</ele>
        <time>2018-05-01T07:08:26Z</time>
      </trkpt>
      <trkpt lat="39.6715140" lon="-0.3627480">
        <ele>332.6</ele>
        <time>2018-05-01T07:08:29Z</time>
      </trkpt>
      <trkpt lat="39.6714720" lon="-0.3628620">
        <ele>332.8</ele>
        <time>2018-05-01T07:08:32Z</time>
      </trkpt>
      <trkpt lat="39.6714530" lon="-0.3630240">
        <ele>334.0</ele>
        <time>2018-05-01T07:08:36Z</time>
      </trkpt>
      <trkpt lat="39.6714640" lon="-0.3631400">
        <ele>334.4</ele>
        <time>2018-05-01T07:08:39Z</time>
      </trkpt>
      <trkpt lat="39.6714680" lon="-0.3632060">
        <ele>334.8</ele>
        <time>2018-05-01T07:08:41Z</time>
      </trkpt>
      <trkpt lat="39.6714660" lon="-0.3632680">
        <ele>335.0</ele>
        <time>2018-05-01T07:08:43Z</time>
      </trkpt>
      <trkpt lat="39.6713460" lon="-0.3636240">
        <ele>336.0</ele>
        <time>2018-05-01T07:08:58Z</time>
      </trkpt>
      <trkpt lat="39.6713320" lon="-0.3636950">
        <ele>337.0</ele>
        <time>2018-05-01T07:09:01Z</time>
      </trkpt>
      <trkpt lat="39.6713120" lon="-0.3637960">
        <ele>338.0</ele>
        <time>2018-05-01T07:09:06Z</time>
      </trkpt>
      <trkpt lat="39.6712720" lon="-0.3638640">
        <ele>339.4</ele>
        <time>2018-05-01T07:09:10Z</time>
      </trkpt>
      <trkpt lat="39.6711990" lon="-0.3639570">
        <ele>340.6</ele>
        <time>2018-05-01T07:09:15Z</time>
      </trkpt>
      <trkpt lat="39.6711160" lon="-0.3641890">
        <ele>341.8</ele>
        <time>2018-05-01T07:09:25Z</time>
      </trkpt>
      <trkpt lat="39.6710460" lon="-0.3643030">
        <ele>342.8</ele>
        <time>2018-05-01T07:09:31Z</time>
      </trkpt>
      <trkpt lat="39.6709810" lon="-0.3643380">
        <ele>344.4</ele>
        <time>2018-05-01T07:09:35Z</time>
      </trkpt>
      <trkpt lat="39.6709080" lon="-0.3643970">
        <ele>345.6</ele>
        <time>2018-05-01T07:09:40Z</time>
      </trkpt>
      <trkpt lat="39.6708770" lon="-0.3647430">
        <ele>346.2</ele>
        <time>2018-05-01T07:09:48Z</time>
      </trkpt>
      <trkpt lat="39.6708330" lon="-0.3648590">
        <ele>346.2</ele>
        <time>2018-05-01T07:09:50Z</time>
      </trkpt>
      <trkpt lat="39.6707940" lon="-0.3649500">
        <ele>346.2</ele>
        <time>2018-05-01T07:09:52Z</time>
      </trkpt>
      <trkpt lat="39.6707830" lon="-0.3649890">
        <ele>346.2</ele>
        <time>2018-05-01T07:09:53Z</time>
      </trkpt>
      <trkpt lat="39.6707670" lon="-0.3651120">
        <ele>345.4</ele>
        <time>2018-05-01T07:09:56Z</time>
      </trkpt>
      <trkpt lat="39.6708980" lon="-0.3655630">
        <ele>345.6</ele>
        <time>2018-05-01T07:10:06Z</time>
      </trkpt>
      <trkpt lat="39.6708990" lon="-0.3657190">
        <ele>346.0</ele>
        <time>2018-05-01T07:10:10Z</time>
      </trkpt>
      <trkpt lat="39.6710030" lon="-0.3658830">
        <ele>346.4</ele>
        <time>2018-05-01T07:10:16Z</time>
      </trkpt>
      <trkpt lat="39.6711090" lon="-0.3659340">
        <ele>347.0</ele>
        <time>2018-05-01T07:10:21Z</time>
      </trkpt>
      <trkpt lat="39.6711470" lon="-0.3659450">
        <ele>347.6</ele>
        <time>2018-05-01T07:10:23Z</time>
      </trkpt>
      <trkpt lat="39.6711920" lon="-0.3659480">
        <ele>348.6</ele>
        <time>2018-05-01T07:10:25Z</time>
      </trkpt>
      <trkpt lat="39.6712180" lon="-0.3659360">
        <ele>349.0</ele>
        <time>2018-05-01T07:10:26Z</time>
      </trkpt>
      <trkpt lat="39.6712840" lon="-0.3658630">
        <ele>350.0</ele>
        <time>2018-05-01T07:10:29Z</time>
      </trkpt>
      <trkpt lat="39.6712900" lon="-0.3658330">
        <ele>350.4</ele>
        <time>2018-05-01T07:10:30Z</time>
      </trkpt>
      <trkpt lat="39.6712650" lon="-0.3657350">
        <ele>351.4</ele>
        <time>2018-05-01T07:10:34Z</time>
      </trkpt>
      <trkpt lat="39.6712430" lon="-0.3657020">
        <ele>351.6</ele>
        <time>2018-05-01T07:10:36Z</time>
      </trkpt>
      <trkpt lat="39.6712120" lon="-0.3656430">
        <ele>351.8</ele>
        <time>2018-05-01T07:10:39Z</time>
      </trkpt>
      <trkpt lat="39.6711980" lon="-0.3655690">
        <ele>352.0</ele>
        <time>2018-05-01T07:10:42Z</time>
      </trkpt>
      <trkpt lat="39.6711950" lon="-0.3655400">
        <ele>352.4</ele>
        <time>2018-05-01T07:10:43Z</time>
      </trkpt>
      <trkpt lat="39.6711940" lon="-0.3654840">
        <ele>353.6</ele>
        <time>2018-05-01T07:10:45Z</time>
      </trkpt>
      <trkpt lat="39.6712060" lon="-0.3654060">
        <ele>354.6</ele>
        <time>2018-05-01T07:10:48Z</time>
      </trkpt>
      <trkpt lat="39.6712350" lon="-0.3653100">
        <ele>355.6</ele>
        <time>2018-05-01T07:10:52Z</time>
      </trkpt>
      <trkpt lat="39.6712610" lon="-0.3652460">
        <ele>356.8</ele>
        <time>2018-05-01T07:10:55Z</time>
      </trkpt>
      <trkpt lat="39.6713010" lon="-0.3651590">
        <ele>357.8</ele>
        <time>2018-05-01T07:10:59Z</time>
      </trkpt>
      <trkpt lat="39.6713340" lon="-0.3651050">
        <ele>359.0</ele>
        <time>2018-05-01T07:11:02Z</time>
      </trkpt>
      <trkpt lat="39.6713660" lon="-0.3650500">
        <ele>360.0</ele>
        <time>2018-05-01T07:11:05Z</time>
      </trkpt>
      <trkpt lat="39.6714460" lon="-0.3649800">
        <ele>361.2</ele>
        <time>2018-05-01T07:11:10Z</time>
      </trkpt>
      <trkpt lat="39.6715000" lon="-0.3649500">
        <ele>361.8</ele>
        <time>2018-05-01T07:11:13Z</time>
      </trkpt>
      <trkpt lat="39.6715400" lon="-0.3649540">
        <ele>362.4</ele>
        <time>2018-05-01T07:11:15Z</time>
      </trkpt>
      <trkpt lat="39.6715770" lon="-0.3649510">
        <ele>363.0</ele>
        <time>2018-05-01T07:11:17Z</time>
      </trkpt>
      <trkpt lat="39.6716110" lon="-0.3649460">
        <ele>363.4</ele>
        <time>2018-05-01T07:11:19Z</time>
      </trkpt>
      <trkpt lat="39.6716940" lon="-0.3649620">
        <ele>364.6</ele>
        <time>2018-05-01T07:11:24Z</time>
      </trkpt>
      <trkpt lat="39.6717890" lon="-0.3650050">
        <ele>365.6</ele>
        <time>2018-05-01T07:11:29Z</time>
      </trkpt>
      <trkpt lat="39.6718030" lon="-0.3650210">
        <ele>365.8</ele>
        <time>2018-05-01T07:11:30Z</time>
      </trkpt>
      <trkpt lat="39.6718870" lon="-0.3651380">
        <ele>366.8</ele>
        <time>2018-05-01T07:11:36Z</time>
      </trkpt>
      <trkpt lat="39.6719240" lon="-0.3652080">
        <ele>367.8</ele>
        <time>2018-05-01T07:11:40Z</time>
      </trkpt>
      <trkpt lat="39.6719440" lon="-0.3652500">
        <ele>368.6</ele>
        <time>2018-05-01T07:11:43Z</time>
      </trkpt>
      <trkpt lat="39.6719560" lon="-0.3652620">
        <ele>368.8</ele>
        <time>2018-05-01T07:11:44Z</time>
      </trkpt>
      <trkpt lat="39.6719800" lon="-0.3653020">
        <ele>369.6</ele>
        <time>2018-05-01T07:11:47Z</time>
      </trkpt>
      <trkpt lat="39.6719850" lon="-0.3653360">
        <ele>370.2</ele>
        <time>2018-05-01T07:11:49Z</time>
      </trkpt>
      <trkpt lat="39.6720000" lon="-0.3654080">
        <ele>371.4</ele>
        <time>2018-05-01T07:11:53Z</time>
      </trkpt>
      <trkpt lat="39.6720250" lon="-0.3655430">
        <ele>372.6</ele>
        <time>2018-05-01T07:11:59Z</time>
      </trkpt>
      <trkpt lat="39.6720390" lon="-0.3657190">
        <ele>374.0</ele>
        <time>2018-05-01T07:12:06Z</time>
      </trkpt>
      <trkpt lat="39.6720360" lon="-0.3657470">
        <ele>374.4</ele>
        <time>2018-05-01T07:12:07Z</time>
      </trkpt>
      <trkpt lat="39.6720400" lon="-0.3658060">
        <ele>375.2</ele>
        <time>2018-05-01T07:12:09Z</time>
      </trkpt>
      <trkpt lat="39.6720480" lon="-0.3659160">
        <ele>376.2</ele>
        <time>2018-05-01T07:12:13Z</time>
      </trkpt>
      <trkpt lat="39.6720840" lon="-0.3660530">
        <ele>377.4</ele>
        <time>2018-05-01T07:12:18Z</time>
      </trkpt>
      <trkpt lat="39.6721270" lon="-0.3662030">
        <ele>378.4</ele>
        <time>2018-05-01T07:12:23Z</time>
      </trkpt>
      <trkpt lat="39.6721650" lon="-0.3663690">
        <ele>379.4</ele>
        <time>2018-05-01T07:12:28Z</time>
      </trkpt>
      <trkpt lat="39.6722330" lon="-0.3665990">
        <ele>380.6</ele>
        <time>2018-05-01T07:12:35Z</time>
      </trkpt>
      <trkpt lat="39.6723070" lon="-0.3668500">
        <ele>381.6</ele>
        <time>2018-05-01T07:12:42Z</time>
      </trkpt>
      <trkpt lat="39.6723080" lon="-0.3668890">
        <ele>381.6</ele>
        <time>2018-05-01T07:12:43Z</time>
      </trkpt>
      <trkpt lat="39.6722150" lon="-0.3672620">
        <ele>382.6</ele>
        <time>2018-05-01T07:12:57Z</time>
      </trkpt>
      <trkpt lat="39.6721630" lon="-0.3672960">
        <ele>384.0</ele>
        <time>2018-05-01T07:13:00Z</time>
      </trkpt>
      <trkpt lat="39.6721200" lon="-0.3673470">
        <ele>385.0</ele>
        <time>2018-05-01T07:13:03Z</time>
      </trkpt>
      <trkpt lat="39.6720790" lon="-0.3674130">
        <ele>386.2</ele>
        <time>2018-05-01T07:13:06Z</time>
      </trkpt>
      <trkpt lat="39.6720490" lon="-0.3674810">
        <ele>387.2</ele>
        <time>2018-05-01T07:13:09Z</time>
      </trkpt>
      <trkpt lat="39.6720110" lon="-0.3675350">
        <ele>388.2</ele>
        <time>2018-05-01T07:13:12Z</time>
      </trkpt>
      <trkpt lat="39.6719300" lon="-0.3675940">
        <ele>389.4</ele>
        <time>2018-05-01T07:13:17Z</time>
      </trkpt>
      <trkpt lat="39.6718830" lon="-0.3676220">
        <ele>390.6</ele>
        <time>2018-05-01T07:13:20Z</time>
      </trkpt>
      <trkpt lat="39.6717970" lon="-0.3676030">
        <ele>391.8</ele>
        <time>2018-05-01T07:13:24Z</time>
      </trkpt>
      <trkpt lat="39.6717790" lon="-0.3676070">
        <ele>392.2</ele>
        <time>2018-05-01T07:13:25Z</time>
      </trkpt>
      <trkpt lat="39.6717460" lon="-0.3676230">
        <ele>393.0</ele>
        <time>2018-05-01T07:13:27Z</time>
      </trkpt>
      <trkpt lat="39.6716970" lon="-0.3676070">
        <ele>393.8</ele>
        <time>2018-05-01T07:13:30Z</time>
      </trkpt>
      <trkpt lat="39.6716850" lon="-0.3675990">
        <ele>394.2</ele>
        <time>2018-05-01T07:13:31Z</time>
      </trkpt>
      <trkpt lat="39.6716630" lon="-0.3675660">
        <ele>395.4</ele>
        <time>2018-05-01T07:13:34Z</time>
      </trkpt>
      <trkpt lat="39.6716650" lon="-0.3675580">
        <ele>395.8</ele>
        <time>2018-05-01T07:13:35Z</time>
      </trkpt>
      <trkpt lat="39.6717210" lon="-0.3675980">
        <ele>396.6</ele>
        <time>2018-05-01T07:14:09Z</time>
      </trkpt>
      <trkpt lat="39.6717590" lon="-0.3676330">
        <ele>396.6</ele>
        <time>2018-05-01T07:14:11Z</time>
      </trkpt>
      <trkpt lat="39.6718180" lon="-0.3676560">
        <ele>396.4</ele>
        <time>2018-05-01T07:14:13Z</time>
      </trkpt>
      <trkpt lat="39.6718610" lon="-0.3676570">
        <ele>396.4</ele>
        <time>2018-05-01T07:14:14Z</time>
      </trkpt>
      <trkpt lat="39.6719480" lon="-0.3676400">
        <ele>396.4</ele>
        <time>2018-05-01T07:14:16Z</time>
      </trkpt>
      <trkpt lat="39.6719920" lon="-0.3676290">
        <ele>396.4</ele>
        <time>2018-05-01T07:14:17Z</time>
      </trkpt>
      <trkpt lat="39.6720830" lon="-0.3676110">
        <ele>396.2</ele>
        <time>2018-05-01T07:14:19Z</time>
      </trkpt>
      <trkpt lat="39.6721760" lon="-0.3675900">
        <ele>395.8</ele>
        <time>2018-05-01T07:14:21Z</time>
      </trkpt>
      <trkpt lat="39.6722260" lon="-0.3675740">
        <ele>395.2</ele>
        <time>2018-05-01T07:14:22Z</time>
      </trkpt>
      <trkpt lat="39.6723270" lon="-0.3675530">
        <ele>394.2</ele>
        <time>2018-05-01T07:14:24Z</time>
      </trkpt>
      <trkpt lat="39.6726370" lon="-0.3674670">
        <ele>393.0</ele>
        <time>2018-05-01T07:14:29Z</time>
      </trkpt>
      <trkpt lat="39.6727510" lon="-0.3674000">
        <ele>392.2</ele>
        <time>2018-05-01T07:14:31Z</time>
      </trkpt>
      <trkpt lat="39.6728040" lon="-0.3673570">
        <ele>391.8</ele>
        <time>2018-05-01T07:14:32Z</time>
      </trkpt>
      <trkpt lat="39.6729010" lon="-0.3672670">
        <ele>391.0</ele>
        <time>2018-05-01T07:14:34Z</time>
      </trkpt>
      <trkpt lat="39.6729880" lon="-0.3671780">
        <ele>390.8</ele>
        <time>2018-05-01T07:14:36Z</time>
      </trkpt>
      <trkpt lat="39.6730620" lon="-0.3671000">
        <ele>390.8</ele>
        <time>2018-05-01T07:14:38Z</time>
      </trkpt>
      <trkpt lat="39.6731310" lon="-0.3670030">
        <ele>390.8</ele>
        <time>2018-05-01T07:14:40Z</time>
      </trkpt>
      <trkpt lat="39.6732330" lon="-0.3668490">
        <ele>391.4</ele>
        <time>2018-05-01T07:14:43Z</time>
      </trkpt>
      <trkpt lat="39.6733150" lon="-0.3667470">
        <ele>391.8</ele>
        <time>2018-05-01T07:14:45Z</time>
      </trkpt>
      <trkpt lat="39.6734870" lon="-0.3665330">
        <ele>392.0</ele>
        <time>2018-05-01T07:14:49Z</time>
      </trkpt>
      <trkpt lat="39.6736440" lon="-0.3663220">
        <ele>392.0</ele>
        <time>2018-05-01T07:14:53Z</time>
      </trkpt>
      <trkpt lat="39.6736940" lon="-0.3662150">
        <ele>392.0</ele>
        <time>2018-05-01T07:14:55Z</time>
      </trkpt>
      <trkpt lat="39.6737380" lon="-0.3661010">
        <ele>392.0</ele>
        <time>2018-05-01T07:14:57Z</time>
      </trkpt>
      <trkpt lat="39.6738090" lon="-0.3659270">
        <ele>392.2</ele>
        <time>2018-05-01T07:15:00Z</time>
      </trkpt>
      <trkpt lat="39.6738910" lon="-0.3657690">
        <ele>392.4</ele>
        <time>2018-05-01T07:15:03Z</time>
      </trkpt>
      <trkpt lat="39.6740720" lon="-0.3656250">
        <ele>392.8</ele>
        <time>2018-05-01T07:15:07Z</time>
      </trkpt>
      <trkpt lat="39.6741280" lon="-0.3655990">
        <ele>392.8</ele>
        <time>2018-05-01T07:15:08Z</time>
      </trkpt>
      <trkpt lat="39.6744040" lon="-0.3654750">
        <ele>392.8</ele>
        <time>2018-05-01T07:15:12Z</time>
      </trkpt>
      <trkpt lat="39.6745470" lon="-0.3654010">
        <ele>392.4</ele>
        <time>2018-05-01T07:15:14Z</time>
      </trkpt>
      <trkpt lat="39.6746810" lon="-0.3653650">
        <ele>391.8</ele>
        <time>2018-05-01T07:15:16Z</time>
      </trkpt>
      <trkpt lat="39.6748030" lon="-0.3653230">
        <ele>389.8</ele>
        <time>2018-05-01T07:15:18Z</time>
      </trkpt>
      <trkpt lat="39.6748650" lon="-0.3652910">
        <ele>389.2</ele>
        <time>2018-05-01T07:15:19Z</time>
      </trkpt>
      <trkpt lat="39.6749910" lon="-0.3652160">
        <ele>388.6</ele>
        <time>2018-05-01T07:15:21Z</time>
      </trkpt>
      <trkpt lat="39.6751290" lon="-0.3651390">
        <ele>388.0</ele>
        <time>2018-05-01T07:15:23Z</time>
      </trkpt>
      <trkpt lat="39.6752630" lon="-0.3650580">
        <ele>387.8</ele>
        <time>2018-05-01T07:15:25Z</time>
      </trkpt>
      <trkpt lat="39.6753260" lon="-0.3650280">
        <ele>387.6</ele>
        <time>2018-05-01T07:15:26Z</time>
      </trkpt>
      <trkpt lat="39.6753800" lon="-0.3650060">
        <ele>387.4</ele>
        <time>2018-05-01T07:15:27Z</time>
      </trkpt>
      <trkpt lat="39.6754580" lon="-0.3649830">
        <ele>387.0</ele>
        <time>2018-05-01T07:15:29Z</time>
      </trkpt>
      <trkpt lat="39.6755330" lon="-0.3649330">
        <ele>386.6</ele>
        <time>2018-05-01T07:15:32Z</time>
      </trkpt>
      <trkpt lat="39.6755970" lon="-0.3648870">
        <ele>386.4</ele>
        <time>2018-05-01T07:15:34Z</time>
      </trkpt>
      <trkpt lat="39.6756890" lon="-0.3648020">
        <ele>385.8</ele>
        <time>2018-05-01T07:15:37Z</time>
      </trkpt>
      <trkpt lat="39.6757480" lon="-0.3647590">
        <ele>385.4</ele>
        <time>2018-05-01T07:15:39Z</time>
      </trkpt>
      <trkpt lat="39.6757770" lon="-0.3647420">
        <ele>385.2</ele>
        <time>2018-05-01T07:15:40Z</time>
      </trkpt>
      <trkpt lat="39.6758180" lon="-0.3647190">
        <ele>385.0</ele>
        <time>2018-05-01T07:15:42Z</time>
      </trkpt>
      <trkpt lat="39.6758570" lon="-0.3646940">
        <ele>384.8</ele>
        <time>2018-05-01T07:15:44Z</time>
      </trkpt>
      <trkpt lat="39.6759180" lon="-0.3646450">
        <ele>383.6</ele>
        <time>2018-05-01T07:15:46Z</time>
      </trkpt>
      <trkpt lat="39.6760720" lon="-0.3644900">
        <ele>383.0</ele>
        <time>2018-05-01T07:15:50Z</time>
      </trkpt>
      <trkpt lat="39.6761720" lon="-0.3643610">
        <ele>382.0</ele>
        <time>2018-05-01T07:15:53Z</time>
      </trkpt>
      <trkpt lat="39.6762050" lon="-0.3643280">
        <ele>381.8</ele>
        <time>2018-05-01T07:15:54Z</time>
      </trkpt>
      <trkpt lat="39.6762410" lon="-0.3643010">
        <ele>381.0</ele>
        <time>2018-05-01T07:15:55Z</time>
      </trkpt>
      <trkpt lat="39.6763670" lon="-0.3641740">
        <ele>379.8</ele>
        <time>2018-05-01T07:15:59Z</time>
      </trkpt>
      <trkpt lat="39.6764650" lon="-0.3639650">
        <ele>379.4</ele>
        <time>2018-05-01T07:16:03Z</time>
      </trkpt>
      <trkpt lat="39.6765230" lon="-0.3637610">
        <ele>378.8</ele>
        <time>2018-05-01T07:16:06Z</time>
      </trkpt>
      <trkpt lat="39.6765460" lon="-0.3636990">
        <ele>378.2</ele>
        <time>2018-05-01T07:16:07Z</time>
      </trkpt>
      <trkpt lat="39.6765940" lon="-0.3636030">
        <ele>377.6</ele>
        <time>2018-05-01T07:16:09Z</time>
      </trkpt>
      <trkpt lat="39.6766360" lon="-0.3635500">
        <ele>377.4</ele>
        <time>2018-05-01T07:16:11Z</time>
      </trkpt>
      <trkpt lat="39.6766810" lon="-0.3634980">
        <ele>377.4</ele>
        <time>2018-05-01T07:16:14Z</time>
      </trkpt>
      <trkpt lat="39.6766960" lon="-0.3634830">
        <ele>377.4</ele>
        <time>2018-05-01T07:16:15Z</time>
      </trkpt>
      <trkpt lat="39.6767120" lon="-0.3634670">
        <ele>377.4</ele>
        <time>2018-05-01T07:16:16Z</time>
      </trkpt>
      <trkpt lat="39.6767390" lon="-0.3634360">
        <ele>377.4</ele>
        <time>2018-05-01T07:16:18Z</time>
      </trkpt>
      <trkpt lat="39.6767800" lon="-0.3634020">
        <ele>378.8</ele>
        <time>2018-05-01T07:16:21Z</time>
      </trkpt>
      <trkpt lat="39.6768580" lon="-0.3633340">
        <ele>380.2</ele>
        <time>2018-05-01T07:16:27Z</time>
      </trkpt>
      <trkpt lat="39.6768920" lon="-0.3633100">
        <ele>380.6</ele>
        <time>2018-05-01T07:16:29Z</time>
      </trkpt>
      <trkpt lat="39.6769600" lon="-0.3632450">
        <ele>381.0</ele>
        <time>2018-05-01T07:16:33Z</time>
      </trkpt>
      <trkpt lat="39.6769810" lon="-0.3632310">
        <ele>381.2</ele>
        <time>2018-05-01T07:16:34Z</time>
      </trkpt>
      <trkpt lat="39.6770670" lon="-0.3631990">
        <ele>381.8</ele>
        <time>2018-05-01T07:16:38Z</time>
      </trkpt>
      <trkpt lat="39.6771610" lon="-0.3631750">
        <ele>382.2</ele>
        <time>2018-05-01T07:16:42Z</time>
      </trkpt>
      <trkpt lat="39.6771840" lon="-0.3631720">
        <ele>382.2</ele>
        <time>2018-05-01T07:16:43Z</time>
      </trkpt>
      <trkpt lat="39.6774830" lon="-0.3632130">
        <ele>383.2</ele>
        <time>2018-05-01T07:16:54Z</time>
      </trkpt>
      <trkpt lat="39.6776530" lon="-0.3632380">
        <ele>383.4</ele>
        <time>2018-05-01T07:16:59Z</time>
      </trkpt>
      <trkpt lat="39.6777290" lon="-0.3632280">
        <ele>383.4</ele>
        <time>2018-05-01T07:17:01Z</time>
      </trkpt>
      <trkpt lat="39.6782470" lon="-0.3629650">
        <ele>384.2</ele>
        <time>2018-05-01T07:17:18Z</time>
      </trkpt>
      <trkpt lat="39.6783060" lon="-0.3629470">
        <ele>384.4</ele>
        <time>2018-05-01T07:17:20Z</time>
      </trkpt>
      <trkpt lat="39.6784750" lon="-0.3629230">
        <ele>385.2</ele>
        <time>2018-05-01T07:17:26Z</time>
      </trkpt>
      <trkpt lat="39.6785040" lon="-0.3629220">
        <ele>385.4</ele>
        <time>2018-05-01T07:17:27Z</time>
      </trkpt>
      <trkpt lat="39.6785900" lon="-0.3628960">
        <ele>386.0</ele>
        <time>2018-05-01T07:17:30Z</time>
      </trkpt>
      <trkpt lat="39.6786200" lon="-0.3626510">
        <ele>386.2</ele>
        <time>2018-05-01T07:17:36Z</time>
      </trkpt>
      <trkpt lat="39.6786080" lon="-0.3626170">
        <ele>386.2</ele>
        <time>2018-05-01T07:17:37Z</time>
      </trkpt>
      <trkpt lat="39.6785860" lon="-0.3625500">
        <ele>386.4</ele>
        <time>2018-05-01T07:17:39Z</time>
      </trkpt>
      <trkpt lat="39.6785230" lon="-0.3623770">
        <ele>386.8</ele>
        <time>2018-05-01T07:17:44Z</time>
      </trkpt>
      <trkpt lat="39.6784890" lon="-0.3622390">
        <ele>387.0</ele>
        <time>2018-05-01T07:17:48Z</time>
      </trkpt>
      <trkpt lat="39.6784680" lon="-0.3620820">
        <ele>387.6</ele>
        <time>2018-05-01T07:17:52Z</time>
      </trkpt>
      <trkpt lat="39.6784640" lon="-0.3614580">
        <ele>388.4</ele>
        <time>2018-05-01T07:18:05Z</time>
      </trkpt>
      <trkpt lat="39.6784380" lon="-0.3613690">
        <ele>388.6</ele>
        <time>2018-05-01T07:18:07Z</time>
      </trkpt>
      <trkpt lat="39.6780630" lon="-0.3612210">
        <ele>389.6</ele>
        <time>2018-05-01T07:18:20Z</time>
      </trkpt>
      <trkpt lat="39.6780110" lon="-0.3612380">
        <ele>390.2</ele>
        <time>2018-05-01T07:18:22Z</time>
      </trkpt>
      <trkpt lat="39.6779280" lon="-0.3612580">
        <ele>390.6</ele>
        <time>2018-05-01T07:18:25Z</time>
      </trkpt>
      <trkpt lat="39.6778620" lon="-0.3612710">
        <ele>391.2</ele>
        <time>2018-05-01T07:18:27Z</time>
      </trkpt>
      <trkpt lat="39.6777920" lon="-0.3612750">
        <ele>391.8</ele>
        <time>2018-05-01T07:18:29Z</time>
      </trkpt>
      <trkpt lat="39.6776800" lon="-0.3612670">
        <ele>392.2</ele>
        <time>2018-05-01T07:18:32Z</time>
      </trkpt>
      <trkpt lat="39.6772650" lon="-0.3610770">
        <ele>392.8</ele>
        <time>2018-05-01T07:18:45Z</time>
      </trkpt>
      <trkpt lat="39.6771830" lon="-0.3609670">
        <ele>393.2</ele>
        <time>2018-05-01T07:18:48Z</time>
      </trkpt>
      <trkpt lat="39.6771140" lon="-0.3608720">
        <ele>393.4</ele>
        <time>2018-05-01T07:18:50Z</time>
      </trkpt>
      <trkpt lat="39.6769590" lon="-0.3606230">
        <ele>393.4</ele>
        <time>2018-05-01T07:18:55Z</time>
      </trkpt>
      <trkpt lat="39.6768510" lon="-0.3604690">
        <ele>392.2</ele>
        <time>2018-05-01T07:18:59Z</time>
      </trkpt>
      <trkpt lat="39.6768310" lon="-0.3604210">
        <ele>391.2</ele>
        <time>2018-05-01T07:19:00Z</time>
      </trkpt>
      <trkpt lat="39.6768130" lon="-0.3603660">
        <ele>390.4</ele>
        <time>2018-05-01T07:19:01Z</time>
      </trkpt>
      <trkpt lat="39.6768010" lon="-0.3603010">
        <ele>389.4</ele>
        <time>2018-05-01T07:19:02Z</time>
      </trkpt>
      <trkpt lat="39.6768030" lon="-0.3601440">
        <ele>388.2</ele>
        <time>2018-05-01T07:19:04Z</time>
      </trkpt>
      <trkpt lat="39.6768790" lon="-0.3599460">
        <ele>386.6</ele>
        <time>2018-05-01T07:19:07Z</time>
      </trkpt>
      <trkpt lat="39.6769080" lon="-0.3598960">
        <ele>385.2</ele>
        <time>2018-05-01T07:19:08Z</time>
      </trkpt>
      <trkpt lat="39.6769350" lon="-0.3598530">
        <ele>384.0</ele>
        <time>2018-05-01T07:19:09Z</time>
      </trkpt>
      <trkpt lat="39.6769890" lon="-0.3597790">
        <ele>382.8</ele>
        <time>2018-05-01T07:19:11Z</time>
      </trkpt>
      <trkpt lat="39.6771600" lon="-0.3595750">
        <ele>382.6</ele>
        <time>2018-05-01T07:19:17Z</time>
      </trkpt>
      <trkpt lat="39.6774330" lon="-0.3592040">
        <ele>384.0</ele>
        <time>2018-05-01T07:19:27Z</time>
      </trkpt>
      <trkpt lat="39.6774730" lon="-0.3591120">
        <ele>384.2</ele>
        <time>2018-05-01T07:19:29Z</time>
      </trkpt>
      <trkpt lat="39.6775520" lon="-0.3585380">
        <ele>384.4</ele>
        <time>2018-05-01T07:19:38Z</time>
      </trkpt>
      <trkpt lat="39.6775520" lon="-0.3583650">
        <ele>384.4</ele>
        <time>2018-05-01T07:19:40Z</time>
      </trkpt>
      <trkpt lat="39.6775630" lon="-0.3581880">
        <ele>383.4</ele>
        <time>2018-05-01T07:19:42Z</time>
      </trkpt>
      <trkpt lat="39.6775820" lon="-0.3581060">
        <ele>382.6</ele>
        <time>2018-05-01T07:19:43Z</time>
      </trkpt>
      <trkpt lat="39.6776400" lon="-0.3579600">
        <ele>381.2</ele>
        <time>2018-05-01T07:19:45Z</time>
      </trkpt>
      <trkpt lat="39.6776730" lon="-0.3578930">
        <ele>380.8</ele>
        <time>2018-05-01T07:19:46Z</time>
      </trkpt>
      <trkpt lat="39.6777390" lon="-0.3577680">
        <ele>379.8</ele>
        <time>2018-05-01T07:19:48Z</time>
      </trkpt>
      <trkpt lat="39.6777930" lon="-0.3576550">
        <ele>379.2</ele>
        <time>2018-05-01T07:19:50Z</time>
      </trkpt>
      <trkpt lat="39.6779590" lon="-0.3573250">
        <ele>379.0</ele>
        <time>2018-05-01T07:19:56Z</time>
      </trkpt>
      <trkpt lat="39.6780670" lon="-0.3570570">
        <ele>378.8</ele>
        <time>2018-05-01T07:20:00Z</time>
      </trkpt>
      <trkpt lat="39.6781190" lon="-0.3569250">
        <ele>378.8</ele>
        <time>2018-05-01T07:20:02Z</time>
      </trkpt>
      <trkpt lat="39.6781460" lon="-0.3568650">
        <ele>378.6</ele>
        <time>2018-05-01T07:20:03Z</time>
      </trkpt>
      <trkpt lat="39.6781930" lon="-0.3567390">
        <ele>378.6</ele>
        <time>2018-05-01T07:20:05Z</time>
      </trkpt>
      <trkpt lat="39.6782120" lon="-0.3566750">
        <ele>378.0</ele>
        <time>2018-05-01T07:20:06Z</time>
      </trkpt>
      <trkpt lat="39.6782280" lon="-0.3566070">
        <ele>377.2</ele>
        <time>2018-05-01T07:20:07Z</time>
      </trkpt>
      <trkpt lat="39.6782640" lon="-0.3564650">
        <ele>376.0</ele>
        <time>2018-05-01T07:20:09Z</time>
      </trkpt>
      <trkpt lat="39.6783130" lon="-0.3563130">
        <ele>375.6</ele>
        <time>2018-05-01T07:20:11Z</time>
      </trkpt>
      <trkpt lat="39.6783830" lon="-0.3561450">
        <ele>375.4</ele>
        <time>2018-05-01T07:20:13Z</time>
      </trkpt>
      <trkpt lat="39.6784970" lon="-0.3557830">
        <ele>375.0</ele>
        <time>2018-05-01T07:20:17Z</time>
      </trkpt>
      <trkpt lat="39.6785150" lon="-0.3556920">
        <ele>374.8</ele>
        <time>2018-05-01T07:20:18Z</time>
      </trkpt>
      <trkpt lat="39.6785390" lon="-0.3555110">
        <ele>372.8</ele>
        <time>2018-05-01T07:20:20Z</time>
      </trkpt>
      <trkpt lat="39.6785590" lon="-0.3553480">
        <ele>371.0</ele>
        <time>2018-05-01T07:20:22Z</time>
      </trkpt>
      <trkpt lat="39.6785770" lon="-0.3552830">
        <ele>370.0</ele>
        <time>2018-05-01T07:20:23Z</time>
      </trkpt>
      <trkpt lat="39.6786050" lon="-0.3552240">
        <ele>369.2</ele>
        <time>2018-05-01T07:20:24Z</time>
      </trkpt>
      <trkpt lat="39.6786750" lon="-0.3551070">
        <ele>368.2</ele>
        <time>2018-05-01T07:20:26Z</time>
      </trkpt>
      <trkpt lat="39.6787140" lon="-0.3550610">
        <ele>367.8</ele>
        <time>2018-05-01T07:20:27Z</time>
      </trkpt>
      <trkpt lat="39.6787890" lon="-0.3550070">
        <ele>367.4</ele>
        <time>2018-05-01T07:20:29Z</time>
      </trkpt>
      <trkpt lat="39.6788400" lon="-0.3549450">
        <ele>366.4</ele>
        <time>2018-05-01T07:20:32Z</time>
      </trkpt>
      <trkpt lat="39.6788330" lon="-0.3548840">
        <ele>365.0</ele>
        <time>2018-05-01T07:20:34Z</time>
      </trkpt>
      <trkpt lat="39.6788330" lon="-0.3548130">
        <ele>364.2</ele>
        <time>2018-05-01T07:20:36Z</time>
      </trkpt>
      <trkpt lat="39.6788450" lon="-0.3546210">
        <ele>364.0</ele>
        <time>2018-05-01T07:20:40Z</time>
      </trkpt>
      <trkpt lat="39.6788500" lon="-0.3545600">
        <ele>363.8</ele>
        <time>2018-05-01T07:20:41Z</time>
      </trkpt>
      <trkpt lat="39.6788610" lon="-0.3544300">
        <ele>363.8</ele>
        <time>2018-05-01T07:20:43Z</time>
      </trkpt>
      <trkpt lat="39.6788840" lon="-0.3541600">
        <ele>362.6</ele>
        <time>2018-05-01T07:20:47Z</time>
      </trkpt>
      <trkpt lat="39.6788880" lon="-0.3540930">
        <ele>362.2</ele>
        <time>2018-05-01T07:20:48Z</time>
      </trkpt>
      <trkpt lat="39.6788890" lon="-0.3540260">
        <ele>361.4</ele>
        <time>2018-05-01T07:20:49Z</time>
      </trkpt>
      <trkpt lat="39.6788790" lon="-0.3538880">
        <ele>360.0</ele>
        <time>2018-05-01T07:20:51Z</time>
      </trkpt>
      <trkpt lat="39.6788820" lon="-0.3538170">
        <ele>359.4</ele>
        <time>2018-05-01T07:20:52Z</time>
      </trkpt>
      <trkpt lat="39.6788920" lon="-0.3537550">
        <ele>358.4</ele>
        <time>2018-05-01T07:20:53Z</time>
      </trkpt>
      <trkpt lat="39.6789140" lon="-0.3536390">
        <ele>356.8</ele>
        <time>2018-05-01T07:20:55Z</time>
      </trkpt>
      <trkpt lat="39.6789380" lon="-0.3535810">
        <ele>356.0</ele>
        <time>2018-05-01T07:20:56Z</time>
      </trkpt>
      <trkpt lat="39.6789570" lon="-0.3535190">
        <ele>355.6</ele>
        <time>2018-05-01T07:20:57Z</time>
      </trkpt>
      <trkpt lat="39.6790180" lon="-0.3533380">
        <ele>355.2</ele>
        <time>2018-05-01T07:21:00Z</time>
      </trkpt>
      <trkpt lat="39.6790860" lon="-0.3532040">
        <ele>355.2</ele>
        <time>2018-05-01T07:21:03Z</time>
      </trkpt>
      <trkpt lat="39.6791170" lon="-0.3531340">
        <ele>355.2</ele>
        <time>2018-05-01T07:21:05Z</time>
      </trkpt>
      <trkpt lat="39.6791740" lon="-0.3530430">
        <ele>355.2</ele>
        <time>2018-05-01T07:21:08Z</time>
      </trkpt>
      <trkpt lat="39.6792080" lon="-0.3529960">
        <ele>355.6</ele>
        <time>2018-05-01T07:21:10Z</time>
      </trkpt>
      <trkpt lat="39.6792390" lon="-0.3529560">
        <ele>356.4</ele>
        <time>2018-05-01T07:21:12Z</time>
      </trkpt>
      <trkpt lat="39.6792690" lon="-0.3529160">
        <ele>357.0</ele>
        <time>2018-05-01T07:21:14Z</time>
      </trkpt>
      <trkpt lat="39.6792950" lon="-0.3528740">
        <ele>357.8</ele>
        <time>2018-05-01T07:21:16Z</time>
      </trkpt>
      <trkpt lat="39.6793090" lon="-0.3528540">
        <ele>358.6</ele>
        <time>2018-05-01T07:21:17Z</time>
      </trkpt>
      <trkpt lat="39.6793540" lon="-0.3528090">
        <ele>359.8</ele>
        <time>2018-05-01T07:21:20Z</time>
      </trkpt>
      <trkpt lat="39.6794000" lon="-0.3527540">
        <ele>361.6</ele>
        <time>2018-05-01T07:21:23Z</time>
      </trkpt>
      <trkpt lat="39.6794820" lon="-0.3526800">
        <ele>362.8</ele>
        <time>2018-05-01T07:21:27Z</time>
      </trkpt>
      <trkpt lat="39.6795490" lon="-0.3525910">
        <ele>362.8</ele>
        <time>2018-05-01T07:21:30Z</time>
      </trkpt>
      <trkpt lat="39.6795490" lon="-0.3524710">
        <ele>362.8</ele>
        <time>2018-05-01T07:21:32Z</time>
      </trkpt>
      <trkpt lat="39.6795550" lon="-0.3524010">
        <ele>362.8</ele>
        <time>2018-05-01T07:21:33Z</time>
      </trkpt>
      <trkpt lat="39.6796210" lon="-0.3521670">
        <ele>362.8</ele>
        <time>2018-05-01T07:21:36Z</time>
      </trkpt>
      <trkpt lat="39.6796420" lon="-0.3520840">
        <ele>362.4</ele>
        <time>2018-05-01T07:21:37Z</time>
      </trkpt>
      <trkpt lat="39.6796560" lon="-0.3519990">
        <ele>361.8</ele>
        <time>2018-05-01T07:21:38Z</time>
      </trkpt>
      <trkpt lat="39.6796580" lon="-0.3519130">
        <ele>361.2</ele>
        <time>2018-05-01T07:21:39Z</time>
      </trkpt>
      <trkpt lat="39.6796590" lon="-0.3517430">
        <ele>359.8</ele>
        <time>2018-05-01T07:21:41Z</time>
      </trkpt>
      <trkpt lat="39.6796540" lon="-0.3515710">
        <ele>358.2</ele>
        <time>2018-05-01T07:21:43Z</time>
      </trkpt>
      <trkpt lat="39.6796410" lon="-0.3513740">
        <ele>356.8</ele>
        <time>2018-05-01T07:21:45Z</time>
      </trkpt>
      <trkpt lat="39.6796060" lon="-0.3511670">
        <ele>356.2</ele>
        <time>2018-05-01T07:21:47Z</time>
      </trkpt>
      <trkpt lat="39.6795640" lon="-0.3509510">
        <ele>356.0</ele>
        <time>2018-05-01T07:21:49Z</time>
      </trkpt>
      <trkpt lat="39.6795280" lon="-0.3507300">
        <ele>355.6</ele>
        <time>2018-05-01T07:21:51Z</time>
      </trkpt>
      <trkpt lat="39.6795140" lon="-0.3506160">
        <ele>355.2</ele>
        <time>2018-05-01T07:21:52Z</time>
      </trkpt>
      <trkpt lat="39.6794990" lon="-0.3504980">
        <ele>354.4</ele>
        <time>2018-05-01T07:21:53Z</time>
      </trkpt>
      <trkpt lat="39.6794750" lon="-0.3503810">
        <ele>353.4</ele>
        <time>2018-05-01T07:21:54Z</time>
      </trkpt>
      <trkpt lat="39.6794470" lon="-0.3502760">
        <ele>352.4</ele>
        <time>2018-05-01T07:21:55Z</time>
      </trkpt>
      <trkpt lat="39.6793680" lon="-0.3500730">
        <ele>350.4</ele>
        <time>2018-05-01T07:21:57Z</time>
      </trkpt>
      <trkpt lat="39.6793300" lon="-0.3498430">
        <ele>348.6</ele>
        <time>2018-05-01T07:21:59Z</time>
      </trkpt>
      <trkpt lat="39.6793340" lon="-0.3497270">
        <ele>347.2</ele>
        <time>2018-05-01T07:22:00Z</time>
      </trkpt>
      <trkpt lat="39.6793380" lon="-0.3496150">
        <ele>345.8</ele>
        <time>2018-05-01T07:22:01Z</time>
      </trkpt>
      <trkpt lat="39.6793490" lon="-0.3493830">
        <ele>344.2</ele>
        <time>2018-05-01T07:22:03Z</time>
      </trkpt>
      <trkpt lat="39.6793700" lon="-0.3491430">
        <ele>343.0</ele>
        <time>2018-05-01T07:22:05Z</time>
      </trkpt>
      <trkpt lat="39.6793750" lon="-0.3490240">
        <ele>342.0</ele>
        <time>2018-05-01T07:22:06Z</time>
      </trkpt>
      <trkpt lat="39.6793790" lon="-0.3489120">
        <ele>340.8</ele>
        <time>2018-05-01T07:22:07Z</time>
      </trkpt>
      <trkpt lat="39.6793870" lon="-0.3488120">
        <ele>339.6</ele>
        <time>2018-05-01T07:22:08Z</time>
      </trkpt>
      <trkpt lat="39.6794070" lon="-0.3487200">
        <ele>338.2</ele>
        <time>2018-05-01T07:22:09Z</time>
      </trkpt>
      <trkpt lat="39.6794740" lon="-0.3485460">
        <ele>337.0</ele>
        <time>2018-05-01T07:22:11Z</time>
      </trkpt>
      <trkpt lat="39.6796610" lon="-0.3483100">
        <ele>336.0</ele>
        <time>2018-05-01T07:22:15Z</time>
      </trkpt>
      <trkpt lat="39.6797490" lon="-0.3481980">
        <ele>335.4</ele>
        <time>2018-05-01T07:22:17Z</time>
      </trkpt>
      <trkpt lat="39.6798740" lon="-0.3479560">
        <ele>334.8</ele>
        <time>2018-05-01T07:22:20Z</time>
      </trkpt>
      <trkpt lat="39.6799030" lon="-0.3478610">
        <ele>334.8</ele>
        <time>2018-05-01T07:22:21Z</time>
      </trkpt>
      <trkpt lat="39.6799980" lon="-0.3474920">
        <ele>333.6</ele>
        <time>2018-05-01T07:22:25Z</time>
      </trkpt>
      <trkpt lat="39.6800470" lon="-0.3473430">
        <ele>331.6</ele>
        <time>2018-05-01T07:22:27Z</time>
      </trkpt>
      <trkpt lat="39.6800750" lon="-0.3472690">
        <ele>330.4</ele>
        <time>2018-05-01T07:22:28Z</time>
      </trkpt>
      <trkpt lat="39.6801620" lon="-0.3471490">
        <ele>329.0</ele>
        <time>2018-05-01T07:22:30Z</time>
      </trkpt>
      <trkpt lat="39.6802870" lon="-0.3471120">
        <ele>328.4</ele>
        <time>2018-05-01T07:22:32Z</time>
      </trkpt>
      <trkpt lat="39.6804060" lon="-0.3470790">
        <ele>328.2</ele>
        <time>2018-05-01T07:22:34Z</time>
      </trkpt>
      <trkpt lat="39.6804600" lon="-0.3470510">
        <ele>328.0</ele>
        <time>2018-05-01T07:22:35Z</time>
      </trkpt>
      <trkpt lat="39.6806270" lon="-0.3469920">
        <ele>326.8</ele>
        <time>2018-05-01T07:22:38Z</time>
      </trkpt>
      <trkpt lat="39.6807970" lon="-0.3469820">
        <ele>326.4</ele>
        <time>2018-05-01T07:22:41Z</time>
      </trkpt>
      <trkpt lat="39.6808440" lon="-0.3469850">
        <ele>325.8</ele>
        <time>2018-05-01T07:22:44Z</time>
      </trkpt>
      <trkpt lat="39.6808810" lon="-0.3470290">
        <ele>323.6</ele>
        <time>2018-05-01T07:22:48Z</time>
      </trkpt>
      <trkpt lat="39.6808530" lon="-0.3470760">
        <ele>322.8</ele>
        <time>2018-05-01T07:22:52Z</time>
      </trkpt>
      <trkpt lat="39.6808420" lon="-0.3470250">
        <ele>322.8</ele>
        <time>2018-05-01T07:22:56Z</time>
      </trkpt>
      <trkpt lat="39.6808570" lon="-0.3469690">
        <ele>323.0</ele>
        <time>2018-05-01T07:23:42Z</time>
      </trkpt>
      <trkpt lat="39.6808540" lon="-0.3469440">
        <ele>323.0</ele>
        <time>2018-05-01T07:23:43Z</time>
      </trkpt>
      <trkpt lat="39.6807710" lon="-0.3468230">
        <ele>322.8</ele>
        <time>2018-05-01T07:23:47Z</time>
      </trkpt>
      <trkpt lat="39.6807490" lon="-0.3467990">
        <ele>322.8</ele>
        <time>2018-05-01T07:23:48Z</time>
      </trkpt>
      <trkpt lat="39.6807270" lon="-0.3467820">
        <ele>322.8</ele>
        <time>2018-05-01T07:23:49Z</time>
      </trkpt>
      <trkpt lat="39.6806920" lon="-0.3467340">
        <ele>322.4</ele>
        <time>2018-05-01T07:23:51Z</time>
      </trkpt>
      <trkpt lat="39.6806810" lon="-0.3465940">
        <ele>321.4</ele>
        <time>2018-05-01T07:23:54Z</time>
      </trkpt>
      <trkpt lat="39.6806660" lon="-0.3464310">
        <ele>320.4</ele>
        <time>2018-05-01T07:23:57Z</time>
      </trkpt>
      <trkpt lat="39.6806640" lon="-0.3463720">
        <ele>320.2</ele>
        <time>2018-05-01T07:23:58Z</time>
      </trkpt>
      <trkpt lat="39.6806500" lon="-0.3462390">
        <ele>318.8</ele>
        <time>2018-05-01T07:24:01Z</time>
      </trkpt>
      <trkpt lat="39.6806080" lon="-0.3461690">
        <ele>317.4</ele>
        <time>2018-05-01T07:24:03Z</time>
      </trkpt>
      <trkpt lat="39.6805470" lon="-0.3460860">
        <ele>315.6</ele>
        <time>2018-05-01T07:24:05Z</time>
      </trkpt>
      <trkpt lat="39.6804710" lon="-0.3459240">
        <ele>314.4</ele>
        <time>2018-05-01T07:24:08Z</time>
      </trkpt>
      <trkpt lat="39.6803950" lon="-0.3457560">
        <ele>313.0</ele>
        <time>2018-05-01T07:24:11Z</time>
      </trkpt>
      <trkpt lat="39.6803700" lon="-0.3456950">
        <ele>312.6</ele>
        <time>2018-05-01T07:24:12Z</time>
      </trkpt>
      <trkpt lat="39.6803060" lon="-0.3455220">
        <ele>311.8</ele>
        <time>2018-05-01T07:24:15Z</time>
      </trkpt>
      <trkpt lat="39.6802760" lon="-0.3454690">
        <ele>311.6</ele>
        <time>2018-05-01T07:24:16Z</time>
      </trkpt>
      <trkpt lat="39.6802060" lon="-0.3453590">
        <ele>311.4</ele>
        <time>2018-05-01T07:24:18Z</time>
      </trkpt>
      <trkpt lat="39.6801060" lon="-0.3452140">
        <ele>310.8</ele>
        <time>2018-05-01T07:24:21Z</time>
      </trkpt>
      <trkpt lat="39.6800390" lon="-0.3451280">
        <ele>310.4</ele>
        <time>2018-05-01T07:24:23Z</time>
      </trkpt>
      <trkpt lat="39.6800100" lon="-0.3450700">
        <ele>310.0</ele>
        <time>2018-05-01T07:24:24Z</time>
      </trkpt>
      <trkpt lat="39.6799470" lon="-0.3449570">
        <ele>309.8</ele>
        <time>2018-05-01T07:24:26Z</time>
      </trkpt>
      <trkpt lat="39.6799000" lon="-0.3448490">
        <ele>309.4</ele>
        <time>2018-05-01T07:24:28Z</time>
      </trkpt>
      <trkpt lat="39.6798860" lon="-0.3447710">
        <ele>309.0</ele>
        <time>2018-05-01T07:24:30Z</time>
      </trkpt>
      <trkpt lat="39.6799070" lon="-0.3447010">
        <ele>308.6</ele>
        <time>2018-05-01T07:24:32Z</time>
      </trkpt>
      <trkpt lat="39.6799930" lon="-0.3445280">
        <ele>307.6</ele>
        <time>2018-05-01T07:24:36Z</time>
      </trkpt>
      <trkpt lat="39.6800530" lon="-0.3443370">
        <ele>307.0</ele>
        <time>2018-05-01T07:24:39Z</time>
      </trkpt>
      <trkpt lat="39.6800660" lon="-0.3442710">
        <ele>306.8</ele>
        <time>2018-05-01T07:24:40Z</time>
      </trkpt>
      <trkpt lat="39.6800690" lon="-0.3442080">
        <ele>306.6</ele>
        <time>2018-05-01T07:24:41Z</time>
      </trkpt>
      <trkpt lat="39.6800610" lon="-0.3440470">
        <ele>305.4</ele>
        <time>2018-05-01T07:24:44Z</time>
      </trkpt>
      <trkpt lat="39.6800660" lon="-0.3440050">
        <ele>304.6</ele>
        <time>2018-05-01T07:24:45Z</time>
      </trkpt>
      <trkpt lat="39.6800780" lon="-0.3439680">
        <ele>303.8</ele>
        <time>2018-05-01T07:24:46Z</time>
      </trkpt>
      <trkpt lat="39.6800980" lon="-0.3438880">
        <ele>302.4</ele>
        <time>2018-05-01T07:24:48Z</time>
      </trkpt>
      <trkpt lat="39.6801040" lon="-0.3438510">
        <ele>302.0</ele>
        <time>2018-05-01T07:24:49Z</time>
      </trkpt>
      <trkpt lat="39.6801030" lon="-0.3437690">
        <ele>301.6</ele>
        <time>2018-05-01T07:24:51Z</time>
      </trkpt>
      <trkpt lat="39.6801040" lon="-0.3437300">
        <ele>301.4</ele>
        <time>2018-05-01T07:24:52Z</time>
      </trkpt>
      <trkpt lat="39.6800980" lon="-0.3436920">
        <ele>301.4</ele>
        <time>2018-05-01T07:24:53Z</time>
      </trkpt>
      <trkpt lat="39.6800820" lon="-0.3436540">
        <ele>301.4</ele>
        <time>2018-05-01T07:24:54Z</time>
      </trkpt>
      <trkpt lat="39.6800560" lon="-0.3435880">
        <ele>301.2</ele>
        <time>2018-05-01T07:24:56Z</time>
      </trkpt>
      <trkpt lat="39.6800530" lon="-0.3435440">
        <ele>301.2</ele>
        <time>2018-05-01T07:24:57Z</time>
      </trkpt>
      <trkpt lat="39.6800700" lon="-0.3434510">
        <ele>301.0</ele>
        <time>2018-05-01T07:24:59Z</time>
      </trkpt>
      <trkpt lat="39.6801270" lon="-0.3433210">
        <ele>300.8</ele>
        <time>2018-05-01T07:25:02Z</time>
      </trkpt>
      <trkpt lat="39.6801250" lon="-0.3432390">
        <ele>300.6</ele>
        <time>2018-05-01T07:25:04Z</time>
      </trkpt>
      <trkpt lat="39.6801320" lon="-0.3431420">
        <ele>300.4</ele>
        <time>2018-05-01T07:25:06Z</time>
      </trkpt>
      <trkpt lat="39.6802240" lon="-0.3430220">
        <ele>299.2</ele>
        <time>2018-05-01T07:25:10Z</time>
      </trkpt>
      <trkpt lat="39.6802150" lon="-0.3429500">
        <ele>298.6</ele>
        <time>2018-05-01T07:25:12Z</time>
      </trkpt>
      <trkpt lat="39.6802140" lon="-0.3428490">
        <ele>298.2</ele>
        <time>2018-05-01T07:25:14Z</time>
      </trkpt>
      <trkpt lat="39.6802820" lon="-0.3427310">
        <ele>297.4</ele>
        <time>2018-05-01T07:25:17Z</time>
      </trkpt>
      <trkpt lat="39.6803270" lon="-0.3426680">
        <ele>297.2</ele>
        <time>2018-05-01T07:25:19Z</time>
      </trkpt>
      <trkpt lat="39.6805360" lon="-0.3424160">
        <ele>296.6</ele>
        <time>2018-05-01T07:25:25Z</time>
      </trkpt>
      <trkpt lat="39.6805660" lon="-0.3423750">
        <ele>296.6</ele>
        <time>2018-05-01T07:25:26Z</time>
      </trkpt>
      <trkpt lat="39.6805950" lon="-0.3423220">
        <ele>296.4</ele>
        <time>2018-05-01T07:25:27Z</time>
      </trkpt>
      <trkpt lat="39.6806690" lon="-0.3422180">
        <ele>296.0</ele>
        <time>2018-05-01T07:25:29Z</time>
      </trkpt>
      <trkpt lat="39.6808360" lon="-0.3419520">
        <ele>294.8</ele>
        <time>2018-05-01T07:25:35Z</time>
      </trkpt>
      <trkpt lat="39.6808860" lon="-0.3418240">
        <ele>294.2</ele>
        <time>2018-05-01T07:25:38Z</time>
      </trkpt>
      <trkpt lat="39.6809020" lon="-0.3417700">
        <ele>294.0</ele>
        <time>2018-05-01T07:25:39Z</time>
      </trkpt>
      <trkpt lat="39.6809210" lon="-0.3417210">
        <ele>293.8</ele>
        <time>2018-05-01T07:25:40Z</time>
      </trkpt>
      <trkpt lat="39.6809960" lon="-0.3415960">
        <ele>292.8</ele>
        <time>2018-05-01T07:25:44Z</time>
      </trkpt>
      <trkpt lat="39.6810000" lon="-0.3415270">
        <ele>291.0</ele>
        <time>2018-05-01T07:25:46Z</time>
      </trkpt>
      <trkpt lat="39.6810300" lon="-0.3414270">
        <ele>289.8</ele>
        <time>2018-05-01T07:25:49Z</time>
      </trkpt>
      <trkpt lat="39.6810800" lon="-0.3413180">
        <ele>288.4</ele>
        <time>2018-05-01T07:25:52Z</time>
      </trkpt>
      <trkpt lat="39.6811010" lon="-0.3412710">
        <ele>287.8</ele>
        <time>2018-05-01T07:25:53Z</time>
      </trkpt>
      <trkpt lat="39.6811280" lon="-0.3412200">
        <ele>287.2</ele>
        <time>2018-05-01T07:25:54Z</time>
      </trkpt>
      <trkpt lat="39.6812000" lon="-0.3411250">
        <ele>286.0</ele>
        <time>2018-05-01T07:25:56Z</time>
      </trkpt>
      <trkpt lat="39.6812830" lon="-0.3410430">
        <ele>284.0</ele>
        <time>2018-05-01T07:25:58Z</time>
      </trkpt>
      <trkpt lat="39.6813230" lon="-0.3410010">
        <ele>282.8</ele>
        <time>2018-05-01T07:25:59Z</time>
      </trkpt>
      <trkpt lat="39.6814070" lon="-0.3409130">
        <ele>280.6</ele>
        <time>2018-05-01T07:26:01Z</time>
      </trkpt>
      <trkpt lat="39.6814790" lon="-0.3408310">
        <ele>278.8</ele>
        <time>2018-05-01T07:26:03Z</time>
      </trkpt>
      <trkpt lat="39.6815080" lon="-0.3407890">
        <ele>277.8</ele>
        <time>2018-05-01T07:26:04Z</time>
      </trkpt>
      <trkpt lat="39.6815670" lon="-0.3407130">
        <ele>275.8</ele>
        <time>2018-05-01T07:26:06Z</time>
      </trkpt>
      <trkpt lat="39.6816020" lon="-0.3406780">
        <ele>275.0</ele>
        <time>2018-05-01T07:26:07Z</time>
      </trkpt>
      <trkpt lat="39.6816370" lon="-0.3406290">
        <ele>273.8</ele>
        <time>2018-05-01T07:26:08Z</time>
      </trkpt>
      <trkpt lat="39.6816710" lon="-0.3405730">
        <ele>272.2</ele>
        <time>2018-05-01T07:26:09Z</time>
      </trkpt>
      <trkpt lat="39.6817420" lon="-0.3404590">
        <ele>270.8</ele>
        <time>2018-05-01T07:26:11Z</time>
      </trkpt>
      <trkpt lat="39.6817860" lon="-0.3404030">
        <ele>270.0</ele>
        <time>2018-05-01T07:26:12Z</time>
      </trkpt>
      <trkpt lat="39.6818330" lon="-0.3403440">
        <ele>269.6</ele>
        <time>2018-05-01T07:26:13Z</time>
      </trkpt>
      <trkpt lat="39.6819280" lon="-0.3402360">
        <ele>268.4</ele>
        <time>2018-05-01T07:26:15Z</time>
      </trkpt>
      <trkpt lat="39.6820080" lon="-0.3401600">
        <ele>266.8</ele>
        <time>2018-05-01T07:26:17Z</time>
      </trkpt>
      <trkpt lat="39.6820390" lon="-0.3401430">
        <ele>266.4</ele>
        <time>2018-05-01T07:26:18Z</time>
      </trkpt>
      <trkpt lat="39.6820640" lon="-0.3401300">
        <ele>265.6</ele>
        <time>2018-05-01T07:26:19Z</time>
      </trkpt>
      <trkpt lat="39.6820770" lon="-0.3400720">
        <ele>264.0</ele>
        <time>2018-05-01T07:26:21Z</time>
      </trkpt>
      <trkpt lat="39.6820280" lon="-0.3400480">
        <ele>262.2</ele>
        <time>2018-05-01T07:26:23Z</time>
      </trkpt>
      <trkpt lat="39.6819530" lon="-0.3400860">
        <ele>261.0</ele>
        <time>2018-05-01T07:26:25Z</time>
      </trkpt>
      <trkpt lat="39.6818470" lon="-0.3401340">
        <ele>260.4</ele>
        <time>2018-05-01T07:26:27Z</time>
      </trkpt>
      <trkpt lat="39.6817840" lon="-0.3401600">
        <ele>260.0</ele>
        <time>2018-05-01T07:26:28Z</time>
      </trkpt>
      <trkpt lat="39.6815840" lon="-0.3402340">
        <ele>259.4</ele>
        <time>2018-05-01T07:26:31Z</time>
      </trkpt>
      <trkpt lat="39.6815150" lon="-0.3402640">
        <ele>259.0</ele>
        <time>2018-05-01T07:26:32Z</time>
      </trkpt>
      <trkpt lat="39.6813710" lon="-0.3403210">
        <ele>257.6</ele>
        <time>2018-05-01T07:26:34Z</time>
      </trkpt>
      <trkpt lat="39.6813040" lon="-0.3403490">
        <ele>256.2</ele>
        <time>2018-05-01T07:26:35Z</time>
      </trkpt>
      <trkpt lat="39.6812420" lon="-0.3403770">
        <ele>255.2</ele>
        <time>2018-05-01T07:26:36Z</time>
      </trkpt>
      <trkpt lat="39.6811820" lon="-0.3404000">
        <ele>254.2</ele>
        <time>2018-05-01T07:26:37Z</time>
      </trkpt>
      <trkpt lat="39.6811240" lon="-0.3404110">
        <ele>253.2</ele>
        <time>2018-05-01T07:26:38Z</time>
      </trkpt>
      <trkpt lat="39.6810690" lon="-0.3404140">
        <ele>252.0</ele>
        <time>2018-05-01T07:26:39Z</time>
      </trkpt>
      <trkpt lat="39.6810170" lon="-0.3404080">
        <ele>250.8</ele>
        <time>2018-05-01T07:26:40Z</time>
      </trkpt>
      <trkpt lat="39.6809160" lon="-0.3403890">
        <ele>248.8</ele>
        <time>2018-05-01T07:26:42Z</time>
      </trkpt>
      <trkpt lat="39.6808680" lon="-0.3403740">
        <ele>247.6</ele>
        <time>2018-05-01T07:26:43Z</time>
      </trkpt>
      <trkpt lat="39.6807740" lon="-0.3403280">
        <ele>246.0</ele>
        <time>2018-05-01T07:26:45Z</time>
      </trkpt>
      <trkpt lat="39.6806780" lon="-0.3403110">
        <ele>244.6</ele>
        <time>2018-05-01T07:26:47Z</time>
      </trkpt>
      <trkpt lat="39.6805940" lon="-0.3403550">
        <ele>243.2</ele>
        <time>2018-05-01T07:26:49Z</time>
      </trkpt>
      <trkpt lat="39.6805170" lon="-0.3404260">
        <ele>241.2</ele>
        <time>2018-05-01T07:26:51Z</time>
      </trkpt>
      <trkpt lat="39.6804760" lon="-0.3404640">
        <ele>240.6</ele>
        <time>2018-05-01T07:26:52Z</time>
      </trkpt>
      <trkpt lat="39.6804320" lon="-0.3405060">
        <ele>240.2</ele>
        <time>2018-05-01T07:26:53Z</time>
      </trkpt>
      <trkpt lat="39.6803880" lon="-0.3405570">
        <ele>239.8</ele>
        <time>2018-05-01T07:26:54Z</time>
      </trkpt>
      <trkpt lat="39.6801300" lon="-0.3408520">
        <ele>239.2</ele>
        <time>2018-05-01T07:26:59Z</time>
      </trkpt>
      <trkpt lat="39.6800640" lon="-0.3409020">
        <ele>238.8</ele>
        <time>2018-05-01T07:27:00Z</time>
      </trkpt>
      <trkpt lat="39.6799400" lon="-0.3410030">
        <ele>237.6</ele>
        <time>2018-05-01T07:27:02Z</time>
      </trkpt>
      <trkpt lat="39.6798710" lon="-0.3410430">
        <ele>236.6</ele>
        <time>2018-05-01T07:27:03Z</time>
      </trkpt>
      <trkpt lat="39.6797260" lon="-0.3411200">
        <ele>234.6</ele>
        <time>2018-05-01T07:27:05Z</time>
      </trkpt>
      <trkpt lat="39.6796590" lon="-0.3411760">
        <ele>233.2</ele>
        <time>2018-05-01T07:27:06Z</time>
      </trkpt>
      <trkpt lat="39.6796030" lon="-0.3412500">
        <ele>232.0</ele>
        <time>2018-05-01T07:27:07Z</time>
      </trkpt>
      <trkpt lat="39.6795660" lon="-0.3413390">
        <ele>230.6</ele>
        <time>2018-05-01T07:27:08Z</time>
      </trkpt>
      <trkpt lat="39.6795370" lon="-0.3414300">
        <ele>229.4</ele>
        <time>2018-05-01T07:27:09Z</time>
      </trkpt>
      <trkpt lat="39.6794670" lon="-0.3416070">
        <ele>227.8</ele>
        <time>2018-05-01T07:27:11Z</time>
      </trkpt>
      <trkpt lat="39.6793650" lon="-0.3417590">
        <ele>226.4</ele>
        <time>2018-05-01T07:27:13Z</time>
      </trkpt>
      <trkpt lat="39.6793080" lon="-0.3418270">
        <ele>226.0</ele>
        <time>2018-05-01T07:27:14Z</time>
      </trkpt>
      <trkpt lat="39.6791240" lon="-0.3420000">
        <ele>225.2</ele>
        <time>2018-05-01T07:27:17Z</time>
      </trkpt>
      <trkpt lat="39.6789570" lon="-0.3421640">
        <ele>224.0</ele>
        <time>2018-05-01T07:27:20Z</time>
      </trkpt>
      <trkpt lat="39.6787280" lon="-0.3421700">
        <ele>222.4</ele>
        <time>2018-05-01T07:27:24Z</time>
      </trkpt>
      <trkpt lat="39.6786650" lon="-0.3421490">
        <ele>222.2</ele>
        <time>2018-05-01T07:27:25Z</time>
      </trkpt>
      <trkpt lat="39.6785440" lon="-0.3421090">
        <ele>221.8</ele>
        <time>2018-05-01T07:27:27Z</time>
      </trkpt>
      <trkpt lat="39.6784420" lon="-0.3420780">
        <ele>221.2</ele>
        <time>2018-05-01T07:27:29Z</time>
      </trkpt>
      <trkpt lat="39.6783530" lon="-0.3420710">
        <ele>220.2</ele>
        <time>2018-05-01T07:27:31Z</time>
      </trkpt>
      <trkpt lat="39.6783110" lon="-0.3420620">
        <ele>219.6</ele>
        <time>2018-05-01T07:27:32Z</time>
      </trkpt>
      <trkpt lat="39.6782730" lon="-0.3420460">
        <ele>218.0</ele>
        <time>2018-05-01T07:27:33Z</time>
      </trkpt>
      <trkpt lat="39.6782440" lon="-0.3420040">
        <ele>216.4</ele>
        <time>2018-05-01T07:27:35Z</time>
      </trkpt>
      <trkpt lat="39.6782470" lon="-0.3420090">
        <ele>216.0</ele>
        <time>2018-05-01T07:27:36Z</time>
      </trkpt>
      <trkpt lat="39.6782560" lon="-0.3419420">
        <ele>212.6</ele>
        <time>2018-05-01T07:28:29Z</time>
      </trkpt>
      <trkpt lat="39.6782650" lon="-0.3419080">
        <ele>212.6</ele>
        <time>2018-05-01T07:28:30Z</time>
      </trkpt>
      <trkpt lat="39.6783190" lon="-0.3417910">
        <ele>212.4</ele>
        <time>2018-05-01T07:28:34Z</time>
      </trkpt>
      <trkpt lat="39.6783570" lon="-0.3417470">
        <ele>211.8</ele>
        <time>2018-05-01T07:28:36Z</time>
      </trkpt>
      <trkpt lat="39.6783740" lon="-0.3417310">
        <ele>211.4</ele>
        <time>2018-05-01T07:28:37Z</time>
      </trkpt>
      <trkpt lat="39.6784190" lon="-0.3416940">
        <ele>210.6</ele>
        <time>2018-05-01T07:28:39Z</time>
      </trkpt>
      <trkpt lat="39.6784490" lon="-0.3416810">
        <ele>209.8</ele>
        <time>2018-05-01T07:28:40Z</time>
      </trkpt>
      <trkpt lat="39.6786310" lon="-0.3416220">
        <ele>208.4</ele>
        <time>2018-05-01T07:28:45Z</time>
      </trkpt>
      <trkpt lat="39.6786990" lon="-0.3416040">
        <ele>207.2</ele>
        <time>2018-05-01T07:28:47Z</time>
      </trkpt>
      <trkpt lat="39.6787580" lon="-0.3415780">
        <ele>206.0</ele>
        <time>2018-05-01T07:28:49Z</time>
      </trkpt>
      <trkpt lat="39.6788210" lon="-0.3415340">
        <ele>205.2</ele>
        <time>2018-05-01T07:28:51Z</time>
      </trkpt>
      <trkpt lat="39.6788570" lon="-0.3415050">
        <ele>204.6</ele>
        <time>2018-05-01T07:28:52Z</time>
      </trkpt>
      <trkpt lat="39.6789220" lon="-0.3414210">
        <ele>203.4</ele>
        <time>2018-05-01T07:28:54Z</time>
      </trkpt>
      <trkpt lat="39.6789720" lon="-0.3412390">
        <ele>201.8</ele>
        <time>2018-05-01T07:28:57Z</time>
      </trkpt>
      <trkpt lat="39.6789720" lon="-0.3410660">
        <ele>201.0</ele>
        <time>2018-05-01T07:29:00Z</time>
      </trkpt>
      <trkpt lat="39.6789730" lon="-0.3410220">
        <ele>200.6</ele>
        <time>2018-05-01T07:29:01Z</time>
      </trkpt>
      <trkpt lat="39.6789930" lon="-0.3409410">
        <ele>199.6</ele>
        <time>2018-05-01T07:29:06Z</time>
      </trkpt>
      <trkpt lat="39.6789780" lon="-0.3410020">
        <ele>199.4</ele>
        <time>2018-05-01T07:29:10Z</time>
      </trkpt>
      <trkpt lat="39.6789720" lon="-0.3410880">
        <ele>199.4</ele>
        <time>2018-05-01T07:29:13Z</time>
      </trkpt>
      <trkpt lat="39.6789710" lon="-0.3412030">
        <ele>199.6</ele>
        <time>2018-05-01T07:29:16Z</time>
      </trkpt>
      <trkpt lat="39.6789630" lon="-0.3412920">
        <ele>199.6</ele>
        <time>2018-05-01T07:29:18Z</time>
      </trkpt>
      <trkpt lat="39.6789340" lon="-0.3413710">
        <ele>199.6</ele>
        <time>2018-05-01T07:29:20Z</time>
      </trkpt>
      <trkpt lat="39.6788900" lon="-0.3414360">
        <ele>199.6</ele>
        <time>2018-05-01T07:29:22Z</time>
      </trkpt>
      <trkpt lat="39.6788430" lon="-0.3414920">
        <ele>199.8</ele>
        <time>2018-05-01T07:29:24Z</time>
      </trkpt>
      <trkpt lat="39.6787850" lon="-0.3415300">
        <ele>200.0</ele>
        <time>2018-05-01T07:29:26Z</time>
      </trkpt>
      <trkpt lat="39.6787250" lon="-0.3415590">
        <ele>200.0</ele>
        <time>2018-05-01T07:29:28Z</time>
      </trkpt>
      <trkpt lat="39.6786640" lon="-0.3415790">
        <ele>200.6</ele>
        <time>2018-05-01T07:29:30Z</time>
      </trkpt>
      <trkpt lat="39.6786160" lon="-0.3415930">
        <ele>201.0</ele>
        <time>2018-05-01T07:29:32Z</time>
      </trkpt>
      <trkpt lat="39.6785740" lon="-0.3416040">
        <ele>201.4</ele>
        <time>2018-05-01T07:29:34Z</time>
      </trkpt>
      <trkpt lat="39.6785540" lon="-0.3416080">
        <ele>201.6</ele>
        <time>2018-05-01T07:29:35Z</time>
      </trkpt>
      <trkpt lat="39.6785350" lon="-0.3416120">
        <ele>201.8</ele>
        <time>2018-05-01T07:29:36Z</time>
      </trkpt>
      <trkpt lat="39.6784690" lon="-0.3416360">
        <ele>202.6</ele>
        <time>2018-05-01T07:29:39Z</time>
      </trkpt>
      <trkpt lat="39.6784460" lon="-0.3416460">
        <ele>203.0</ele>
        <time>2018-05-01T07:29:40Z</time>
      </trkpt>
      <trkpt lat="39.6783850" lon="-0.3416840">
        <ele>204.0</ele>
        <time>2018-05-01T07:29:43Z</time>
      </trkpt>
      <trkpt lat="39.6783690" lon="-0.3417010">
        <ele>204.2</ele>
        <time>2018-05-01T07:29:44Z</time>
      </trkpt>
      <trkpt lat="39.6783330" lon="-0.3417640">
        <ele>205.4</ele>
        <time>2018-05-01T07:29:47Z</time>
      </trkpt>
      <trkpt lat="39.6783050" lon="-0.3418170">
        <ele>206.4</ele>
        <time>2018-05-01T07:29:50Z</time>
      </trkpt>
      <trkpt lat="39.6782960" lon="-0.3418360">
        <ele>206.6</ele>
        <time>2018-05-01T07:29:51Z</time>
      </trkpt>
      <trkpt lat="39.6782660" lon="-0.3418970">
        <ele>207.6</ele>
        <time>2018-05-01T07:29:54Z</time>
      </trkpt>
      <trkpt lat="39.6782590" lon="-0.3419210">
        <ele>208.0</ele>
        <time>2018-05-01T07:29:55Z</time>
      </trkpt>
      <trkpt lat="39.6782460" lon="-0.3419680">
        <ele>209.2</ele>
        <time>2018-05-01T07:29:57Z</time>
      </trkpt>
      <trkpt lat="39.6782480" lon="-0.3419900">
        <ele>209.6</ele>
        <time>2018-05-01T07:29:58Z</time>
      </trkpt>
      <trkpt lat="39.6782690" lon="-0.3420220">
        <ele>210.6</ele>
        <time>2018-05-01T07:30:00Z</time>
      </trkpt>
      <trkpt lat="39.6782740" lon="-0.3420440">
        <ele>210.8</ele>
        <time>2018-05-01T07:30:01Z</time>
      </trkpt>
      <trkpt lat="39.6782550" lon="-0.3421100">
        <ele>211.6</ele>
        <time>2018-05-01T07:30:03Z</time>
      </trkpt>
      <trkpt lat="39.6782430" lon="-0.3421570">
        <ele>211.8</ele>
        <time>2018-05-01T07:30:04Z</time>
      </trkpt>
      <trkpt lat="39.6781440" lon="-0.3423740">
        <ele>211.8</ele>
        <time>2018-05-01T07:30:08Z</time>
      </trkpt>
      <trkpt lat="39.6780150" lon="-0.3425610">
        <ele>211.8</ele>
        <time>2018-05-01T07:30:13Z</time>
      </trkpt>
      <trkpt lat="39.6779190" lon="-0.3426860">
        <ele>211.8</ele>
        <time>2018-05-01T07:30:19Z</time>
      </trkpt>
      <trkpt lat="39.6778360" lon="-0.3427300">
        <ele>212.6</ele>
        <time>2018-05-01T07:30:24Z</time>
      </trkpt>
      <trkpt lat="39.6778220" lon="-0.3427240">
        <ele>212.8</ele>
        <time>2018-05-01T07:30:25Z</time>
      </trkpt>
      <trkpt lat="39.6777760" lon="-0.3426680">
        <ele>213.0</ele>
        <time>2018-05-01T07:30:28Z</time>
      </trkpt>
      <trkpt lat="39.6776810" lon="-0.3425220">
        <ele>213.0</ele>
        <time>2018-05-01T07:30:34Z</time>
      </trkpt>
      <trkpt lat="39.6776320" lon="-0.3423840">
        <ele>211.0</ele>
        <time>2018-05-01T07:30:38Z</time>
      </trkpt>
      <trkpt lat="39.6776050" lon="-0.3423210">
        <ele>209.4</ele>
        <time>2018-05-01T07:30:40Z</time>
      </trkpt>
      <trkpt lat="39.6775620" lon="-0.3422420">
        <ele>208.0</ele>
        <time>2018-05-01T07:30:42Z</time>
      </trkpt>
      <trkpt lat="39.6775380" lon="-0.3421990">
        <ele>207.2</ele>
        <time>2018-05-01T07:30:43Z</time>
      </trkpt>
      <trkpt lat="39.6775040" lon="-0.3421620">
        <ele>206.4</ele>
        <time>2018-05-01T07:30:44Z</time>
      </trkpt>
      <trkpt lat="39.6774250" lon="-0.3421190">
        <ele>204.8</ele>
        <time>2018-05-01T07:30:46Z</time>
      </trkpt>
      <trkpt lat="39.6773640" lon="-0.3420810">
        <ele>203.4</ele>
        <time>2018-05-01T07:30:48Z</time>
      </trkpt>
      <trkpt lat="39.6773460" lon="-0.3420480">
        <ele>202.2</ele>
        <time>2018-05-01T07:30:49Z</time>
      </trkpt>
      <trkpt lat="39.6773400" lon="-0.3420120">
        <ele>201.0</ele>
        <time>2018-05-01T07:30:50Z</time>
      </trkpt>
      <trkpt lat="39.6773650" lon="-0.3419360">
        <ele>199.4</ele>
        <time>2018-05-01T07:30:52Z</time>
      </trkpt>
      <trkpt lat="39.6773880" lon="-0.3418990">
        <ele>198.8</ele>
        <time>2018-05-01T07:30:53Z</time>
      </trkpt>
      <trkpt lat="39.6774040" lon="-0.3418680">
        <ele>197.6</ele>
        <time>2018-05-01T07:30:54Z</time>
      </trkpt>
      <trkpt lat="39.6774350" lon="-0.3418210">
        <ele>196.0</ele>
        <time>2018-05-01T07:30:56Z</time>
      </trkpt>
      <trkpt lat="39.6774580" lon="-0.3417830">
        <ele>195.4</ele>
        <time>2018-05-01T07:30:57Z</time>
      </trkpt>
      <trkpt lat="39.6774780" lon="-0.3417340">
        <ele>195.0</ele>
        <time>2018-05-01T07:30:58Z</time>
      </trkpt>
      <trkpt lat="39.6775000" lon="-0.3416250">
        <ele>193.8</ele>
        <time>2018-05-01T07:31:00Z</time>
      </trkpt>
      <trkpt lat="39.6775930" lon="-0.3414030">
        <ele>192.2</ele>
        <time>2018-05-01T07:31:04Z</time>
      </trkpt>
      <trkpt lat="39.6776260" lon="-0.3413380">
        <ele>191.2</ele>
        <time>2018-05-01T07:31:05Z</time>
      </trkpt>
      <trkpt lat="39.6776550" lon="-0.3412710">
        <ele>190.6</ele>
        <time>2018-05-01T07:31:06Z</time>
      </trkpt>
      <trkpt lat="39.6777110" lon="-0.3411530">
        <ele>189.8</ele>
        <time>2018-05-01T07:31:08Z</time>
      </trkpt>
      <trkpt lat="39.6777510" lon="-0.3411060">
        <ele>189.4</ele>
        <time>2018-05-01T07:31:09Z</time>
      </trkpt>
      <trkpt lat="39.6778680" lon="-0.3410440">
        <ele>188.0</ele>
        <time>2018-05-01T07:31:11Z</time>
      </trkpt>
      <trkpt lat="39.6779370" lon="-0.3410180">
        <ele>187.0</ele>
        <time>2018-05-01T07:31:12Z</time>
      </trkpt>
      <trkpt lat="39.6780040" lon="-0.3409760">
        <ele>185.8</ele>
        <time>2018-05-01T07:31:13Z</time>
      </trkpt>
      <trkpt lat="39.6780580" lon="-0.3409160">
        <ele>184.6</ele>
        <time>2018-05-01T07:31:14Z</time>
      </trkpt>
      <trkpt lat="39.6780990" lon="-0.3408440">
        <ele>183.4</ele>
        <time>2018-05-01T07:31:15Z</time>
      </trkpt>
      <trkpt lat="39.6781390" lon="-0.3407680">
        <ele>183.0</ele>
        <time>2018-05-01T07:31:16Z</time>
      </trkpt>
      <trkpt lat="39.6782280" lon="-0.3406280">
        <ele>182.0</ele>
        <time>2018-05-01T07:31:18Z</time>
      </trkpt>
      <trkpt lat="39.6783410" lon="-0.3405190">
        <ele>180.4</ele>
        <time>2018-05-01T07:31:20Z</time>
      </trkpt>
      <trkpt lat="39.6784530" lon="-0.3404250">
        <ele>178.8</ele>
        <time>2018-05-01T07:31:22Z</time>
      </trkpt>
      <trkpt lat="39.6785180" lon="-0.3402990">
        <ele>177.6</ele>
        <time>2018-05-01T07:31:24Z</time>
      </trkpt>
      <trkpt lat="39.6785450" lon="-0.3401750">
        <ele>177.2</ele>
        <time>2018-05-01T07:31:26Z</time>
      </trkpt>
      <trkpt lat="39.6785640" lon="-0.3401200">
        <ele>177.2</ele>
        <time>2018-05-01T07:31:27Z</time>
      </trkpt>
      <trkpt lat="39.6786450" lon="-0.3399530">
        <ele>176.8</ele>
        <time>2018-05-01T07:31:30Z</time>
      </trkpt>
      <trkpt lat="39.6787670" lon="-0.3398070">
        <ele>176.6</ele>
        <time>2018-05-01T07:31:33Z</time>
      </trkpt>
      <trkpt lat="39.6788110" lon="-0.3397640">
        <ele>176.6</ele>
        <time>2018-05-01T07:31:34Z</time>
      </trkpt>
      <trkpt lat="39.6788510" lon="-0.3397210">
        <ele>176.6</ele>
        <time>2018-05-01T07:31:35Z</time>
      </trkpt>
      <trkpt lat="39.6789470" lon="-0.3395910">
        <ele>176.6</ele>
        <time>2018-05-01T07:31:38Z</time>
      </trkpt>
      <trkpt lat="39.6791140" lon="-0.3393790">
        <ele>176.6</ele>
        <time>2018-05-01T07:31:45Z</time>
      </trkpt>
      <trkpt lat="39.6791360" lon="-0.3393460">
        <ele>176.6</ele>
        <time>2018-05-01T07:31:46Z</time>
      </trkpt>
      <trkpt lat="39.6791570" lon="-0.3393130">
        <ele>176.8</ele>
        <time>2018-05-01T07:31:47Z</time>
      </trkpt>
      <trkpt lat="39.6791800" lon="-0.3392860">
        <ele>177.0</ele>
        <time>2018-05-01T07:31:48Z</time>
      </trkpt>
      <trkpt lat="39.6792060" lon="-0.3392660">
        <ele>177.4</ele>
        <time>2018-05-01T07:31:49Z</time>
      </trkpt>
      <trkpt lat="39.6792300" lon="-0.3392470">
        <ele>177.6</ele>
        <time>2018-05-01T07:31:50Z</time>
      </trkpt>
      <trkpt lat="39.6792550" lon="-0.3392260">
        <ele>178.2</ele>
        <time>2018-05-01T07:31:51Z</time>
      </trkpt>
      <trkpt lat="39.6792800" lon="-0.3392030">
        <ele>178.8</ele>
        <time>2018-05-01T07:31:52Z</time>
      </trkpt>
      <trkpt lat="39.6793330" lon="-0.3391620">
        <ele>179.2</ele>
        <time>2018-05-01T07:31:54Z</time>
      </trkpt>
      <trkpt lat="39.6793950" lon="-0.3391380">
        <ele>180.2</ele>
        <time>2018-05-01T07:31:56Z</time>
      </trkpt>
      <trkpt lat="39.6794930" lon="-0.3391150">
        <ele>181.4</ele>
        <time>2018-05-01T07:31:59Z</time>
      </trkpt>
      <trkpt lat="39.6796800" lon="-0.3390510">
        <ele>182.6</ele>
        <time>2018-05-01T07:32:05Z</time>
      </trkpt>
      <trkpt lat="39.6798740" lon="-0.3388710">
        <ele>184.0</ele>
        <time>2018-05-01T07:32:13Z</time>
      </trkpt>
      <trkpt lat="39.6799280" lon="-0.3388070">
        <ele>184.4</ele>
        <time>2018-05-01T07:32:15Z</time>
      </trkpt>
      <trkpt lat="39.6800000" lon="-0.3387440">
        <ele>184.6</ele>
        <time>2018-05-01T07:32:17Z</time>
      </trkpt>
      <trkpt lat="39.6802460" lon="-0.3385720">
        <ele>184.6</ele>
        <time>2018-05-01T07:32:22Z</time>
      </trkpt>
      <trkpt lat="39.6803900" lon="-0.3384970">
        <ele>184.0</ele>
        <time>2018-05-01T07:32:24Z</time>
      </trkpt>
      <trkpt lat="39.6805410" lon="-0.3383930">
        <ele>182.6</ele>
        <time>2018-05-01T07:32:26Z</time>
      </trkpt>
      <trkpt lat="39.6806500" lon="-0.3383030">
        <ele>181.0</ele>
        <time>2018-05-01T07:32:28Z</time>
      </trkpt>
      <trkpt lat="39.6806860" lon="-0.3382680">
        <ele>179.8</ele>
        <time>2018-05-01T07:32:29Z</time>
      </trkpt>
      <trkpt lat="39.6807130" lon="-0.3382380">
        <ele>178.6</ele>
        <time>2018-05-01T07:32:30Z</time>
      </trkpt>
      <trkpt lat="39.6807600" lon="-0.3382300">
        <ele>177.8</ele>
        <time>2018-05-01T07:32:32Z</time>
      </trkpt>
      <trkpt lat="39.6807690" lon="-0.3382520">
        <ele>177.6</ele>
        <time>2018-05-01T07:32:33Z</time>
      </trkpt>
      <trkpt lat="39.6807250" lon="-0.3382690">
        <ele>177.6</ele>
        <time>2018-05-01T07:32:35Z</time>
      </trkpt>
      <trkpt lat="39.6806700" lon="-0.3383000">
        <ele>177.4</ele>
        <time>2018-05-01T07:32:37Z</time>
      </trkpt>
      <trkpt lat="39.6806400" lon="-0.3383330">
        <ele>177.4</ele>
        <time>2018-05-01T07:32:38Z</time>
      </trkpt>
      <trkpt lat="39.6806070" lon="-0.3383730">
        <ele>177.0</ele>
        <time>2018-05-01T07:32:39Z</time>
      </trkpt>
      <trkpt lat="39.6805720" lon="-0.3384100">
        <ele>176.8</ele>
        <time>2018-05-01T07:32:40Z</time>
      </trkpt>
      <trkpt lat="39.6805070" lon="-0.3384510">
        <ele>176.8</ele>
        <time>2018-05-01T07:32:42Z</time>
      </trkpt>
      <trkpt lat="39.6804800" lon="-0.3383630">
        <ele>176.8</ele>
        <time>2018-05-01T07:32:45Z</time>
      </trkpt>
      <trkpt lat="39.6805550" lon="-0.3380860">
        <ele>176.4</ele>
        <time>2018-05-01T07:32:48Z</time>
      </trkpt>
      <trkpt lat="39.6806000" lon="-0.3378810">
        <ele>175.2</ele>
        <time>2018-05-01T07:32:50Z</time>
      </trkpt>
      <trkpt lat="39.6806290" lon="-0.3377760">
        <ele>174.6</ele>
        <time>2018-05-01T07:32:51Z</time>
      </trkpt>
      <trkpt lat="39.6806600" lon="-0.3376770">
        <ele>173.8</ele>
        <time>2018-05-01T07:32:52Z</time>
      </trkpt>
      <trkpt lat="39.6807400" lon="-0.3374700">
        <ele>172.2</ele>
        <time>2018-05-01T07:32:54Z</time>
      </trkpt>
      <trkpt lat="39.6808530" lon="-0.3372510">
        <ele>170.6</ele>
        <time>2018-05-01T07:32:56Z</time>
      </trkpt>
      <trkpt lat="39.6809150" lon="-0.3371400">
        <ele>169.2</ele>
        <time>2018-05-01T07:32:57Z</time>
      </trkpt>
      <trkpt lat="39.6809740" lon="-0.3370380">
        <ele>168.0</ele>
        <time>2018-05-01T07:32:58Z</time>
      </trkpt>
      <trkpt lat="39.6810350" lon="-0.3369340">
        <ele>167.0</ele>
        <time>2018-05-01T07:32:59Z</time>
      </trkpt>
      <trkpt lat="39.6810950" lon="-0.3368280">
        <ele>165.8</ele>
        <time>2018-05-01T07:33:00Z</time>
      </trkpt>
      <trkpt lat="39.6811540" lon="-0.3367180">
        <ele>164.6</ele>
        <time>2018-05-01T07:33:01Z</time>
      </trkpt>
      <trkpt lat="39.6812140" lon="-0.3366070">
        <ele>162.8</ele>
        <time>2018-05-01T07:33:02Z</time>
      </trkpt>
      <trkpt lat="39.6812750" lon="-0.3364930">
        <ele>161.2</ele>
        <time>2018-05-01T07:33:03Z</time>
      </trkpt>
      <trkpt lat="39.6813340" lon="-0.3363830">
        <ele>159.4</ele>
        <time>2018-05-01T07:33:04Z</time>
      </trkpt>
      <trkpt lat="39.6813880" lon="-0.3362760">
        <ele>157.2</ele>
        <time>2018-05-01T07:33:05Z</time>
      </trkpt>
      <trkpt lat="39.6814430" lon="-0.3361810">
        <ele>154.8</ele>
        <time>2018-05-01T07:33:06Z</time>
      </trkpt>
      <trkpt lat="39.6815000" lon="-0.3360900">
        <ele>153.0</ele>
        <time>2018-05-01T07:33:07Z</time>
      </trkpt>
      <trkpt lat="39.6815590" lon="-0.3359960">
        <ele>151.4</ele>
        <time>2018-05-01T07:33:08Z</time>
      </trkpt>
      <trkpt lat="39.6816190" lon="-0.3358970">
        <ele>148.2</ele>
        <time>2018-05-01T07:33:09Z</time>
      </trkpt>
      <trkpt lat="39.6816780" lon="-0.3357930">
        <ele>146.0</ele>
        <time>2018-05-01T07:33:10Z</time>
      </trkpt>
      <trkpt lat="39.6817330" lon="-0.3356800">
        <ele>144.0</ele>
        <time>2018-05-01T07:33:11Z</time>
      </trkpt>
      <trkpt lat="39.6817810" lon="-0.3355560">
        <ele>142.4</ele>
        <time>2018-05-01T07:33:12Z</time>
      </trkpt>
      <trkpt lat="39.6818190" lon="-0.3354260">
        <ele>140.8</ele>
        <time>2018-05-01T07:33:13Z</time>
      </trkpt>
      <trkpt lat="39.6818500" lon="-0.3352960">
        <ele>139.8</ele>
        <time>2018-05-01T07:33:14Z</time>
      </trkpt>
      <trkpt lat="39.6818780" lon="-0.3351700">
        <ele>138.8</ele>
        <time>2018-05-01T07:33:15Z</time>
      </trkpt>
      <trkpt lat="39.6819060" lon="-0.3350510">
        <ele>137.6</ele>
        <time>2018-05-01T07:33:16Z</time>
      </trkpt>
      <trkpt lat="39.6819300" lon="-0.3349340">
        <ele>136.6</ele>
        <time>2018-05-01T07:33:17Z</time>
      </trkpt>
      <trkpt lat="39.6819570" lon="-0.3348240">
        <ele>135.2</ele>
        <time>2018-05-01T07:33:18Z</time>
      </trkpt>
      <trkpt lat="39.6819860" lon="-0.3347130">
        <ele>133.4</ele>
        <time>2018-05-01T07:33:19Z</time>
      </trkpt>
      <trkpt lat="39.6820130" lon="-0.3346020">
        <ele>131.6</ele>
        <time>2018-05-01T07:33:20Z</time>
      </trkpt>
      <trkpt lat="39.6820450" lon="-0.3344830">
        <ele>130.4</ele>
        <time>2018-05-01T07:33:21Z</time>
      </trkpt>
      <trkpt lat="39.6821580" lon="-0.3340980">
        <ele>129.2</ele>
        <time>2018-05-01T07:33:24Z</time>
      </trkpt>
      <trkpt lat="39.6822850" lon="-0.3336650">
        <ele>127.8</ele>
        <time>2018-05-01T07:33:27Z</time>
      </trkpt>
      <trkpt lat="39.6824290" lon="-0.3332190">
        <ele>125.6</ele>
        <time>2018-05-01T07:33:30Z</time>
      </trkpt>
      <trkpt lat="39.6824700" lon="-0.3330650">
        <ele>123.6</ele>
        <time>2018-05-01T07:33:31Z</time>
      </trkpt>
      <trkpt lat="39.6825080" lon="-0.3329070">
        <ele>122.0</ele>
        <time>2018-05-01T07:33:32Z</time>
      </trkpt>
      <trkpt lat="39.6825430" lon="-0.3327460">
        <ele>119.6</ele>
        <time>2018-05-01T07:33:33Z</time>
      </trkpt>
      <trkpt lat="39.6825780" lon="-0.3325830">
        <ele>116.6</ele>
        <time>2018-05-01T07:33:34Z</time>
      </trkpt>
      <trkpt lat="39.6826200" lon="-0.3324190">
        <ele>114.0</ele>
        <time>2018-05-01T07:33:35Z</time>
      </trkpt>
      <trkpt lat="39.6826670" lon="-0.3322520">
        <ele>112.4</ele>
        <time>2018-05-01T07:33:36Z</time>
      </trkpt>
      <trkpt lat="39.6827180" lon="-0.3320830">
        <ele>111.2</ele>
        <time>2018-05-01T07:33:37Z</time>
      </trkpt>
      <trkpt lat="39.6828240" lon="-0.3317420">
        <ele>109.8</ele>
        <time>2018-05-01T07:33:39Z</time>
      </trkpt>
      <trkpt lat="39.6828770" lon="-0.3315660">
        <ele>108.6</ele>
        <time>2018-05-01T07:33:40Z</time>
      </trkpt>
      <trkpt lat="39.6829310" lon="-0.3313880">
        <ele>106.6</ele>
        <time>2018-05-01T07:33:41Z</time>
      </trkpt>
      <trkpt lat="39.6829850" lon="-0.3312070">
        <ele>104.6</ele>
        <time>2018-05-01T07:33:42Z</time>
      </trkpt>
      <trkpt lat="39.6830390" lon="-0.3310240">
        <ele>100.2</ele>
        <time>2018-05-01T07:33:43Z</time>
      </trkpt>
      <trkpt lat="39.6830910" lon="-0.3308410">
        <ele>97.4</ele>
        <time>2018-05-01T07:33:44Z</time>
      </trkpt>
      <trkpt lat="39.6831400" lon="-0.3306580">
        <ele>94.8</ele>
        <time>2018-05-01T07:33:45Z</time>
      </trkpt>
      <trkpt lat="39.6831790" lon="-0.3304710">
        <ele>92.4</ele>
        <time>2018-05-01T07:33:46Z</time>
      </trkpt>
      <trkpt lat="39.6832070" lon="-0.3302820">
        <ele>90.4</ele>
        <time>2018-05-01T07:33:47Z</time>
      </trkpt>
      <trkpt lat="39.6832290" lon="-0.3300920">
        <ele>88.0</ele>
        <time>2018-05-01T07:33:48Z</time>
      </trkpt>
      <trkpt lat="39.6832480" lon="-0.3299050">
        <ele>86.2</ele>
        <time>2018-05-01T07:33:49Z</time>
      </trkpt>
      <trkpt lat="39.6832670" lon="-0.3297210">
        <ele>84.8</ele>
        <time>2018-05-01T07:33:50Z</time>
      </trkpt>
      <trkpt lat="39.6832820" lon="-0.3295390">
        <ele>83.8</ele>
        <time>2018-05-01T07:33:51Z</time>
      </trkpt>
      <trkpt lat="39.6833140" lon="-0.3291850">
        <ele>82.0</ele>
        <time>2018-05-01T07:33:53Z</time>
      </trkpt>
      <trkpt lat="39.6833280" lon="-0.3290200">
        <ele>81.0</ele>
        <time>2018-05-01T07:33:54Z</time>
      </trkpt>
      <trkpt lat="39.6833450" lon="-0.3288720">
        <ele>80.4</ele>
        <time>2018-05-01T07:33:55Z</time>
      </trkpt>
      <trkpt lat="39.6833640" lon="-0.3287460">
        <ele>80.0</ele>
        <time>2018-05-01T07:33:56Z</time>
      </trkpt>
      <trkpt lat="39.6833640" lon="-0.3286360">
        <ele>79.8</ele>
        <time>2018-05-01T07:33:57Z</time>
      </trkpt>
      <trkpt lat="39.6830570" lon="-0.3284330">
        <ele>79.8</ele>
        <time>2018-05-01T07:34:02Z</time>
      </trkpt>
      <trkpt lat="39.6826280" lon="-0.3283760">
        <ele>80.8</ele>
        <time>2018-05-01T07:34:09Z</time>
      </trkpt>
      <trkpt lat="39.6824710" lon="-0.3283480">
        <ele>81.4</ele>
        <time>2018-05-01T07:34:12Z</time>
      </trkpt>
      <trkpt lat="39.6823740" lon="-0.3283360">
        <ele>82.0</ele>
        <time>2018-05-01T07:34:14Z</time>
      </trkpt>
      <trkpt lat="39.6822380" lon="-0.3282990">
        <ele>82.6</ele>
        <time>2018-05-01T07:34:17Z</time>
      </trkpt>
      <trkpt lat="39.6820540" lon="-0.3282300">
        <ele>82.8</ele>
        <time>2018-05-01T07:34:21Z</time>
      </trkpt>
      <trkpt lat="39.6817880" lon="-0.3280960">
        <ele>83.0</ele>
        <time>2018-05-01T07:34:27Z</time>
      </trkpt>
      <trkpt lat="39.6813970" lon="-0.3279270">
        <ele>83.0</ele>
        <time>2018-05-01T07:34:36Z</time>
      </trkpt>
      <trkpt lat="39.6812990" lon="-0.3278350">
        <ele>83.0</ele>
        <time>2018-05-01T07:34:41Z</time>
      </trkpt>
      <trkpt lat="39.6812710" lon="-0.3277930">
        <ele>83.0</ele>
        <time>2018-05-01T07:34:43Z</time>
      </trkpt>
      <trkpt lat="39.6811760" lon="-0.3277300">
        <ele>82.8</ele>
        <time>2018-05-01T07:34:46Z</time>
      </trkpt>
      <trkpt lat="39.6810980" lon="-0.3276930">
        <ele>82.8</ele>
        <time>2018-05-01T07:34:48Z</time>
      </trkpt>
      <trkpt lat="39.6810600" lon="-0.3276700">
        <ele>82.8</ele>
        <time>2018-05-01T07:34:49Z</time>
      </trkpt>
      <trkpt lat="39.6809800" lon="-0.3276230">
        <ele>82.8</ele>
        <time>2018-05-01T07:34:51Z</time>
      </trkpt>
      <trkpt lat="39.6808950" lon="-0.3275820">
        <ele>82.6</ele>
        <time>2018-05-01T07:34:53Z</time>
      </trkpt>
      <trkpt lat="39.6803870" lon="-0.3273340">
        <ele>81.6</ele>
        <time>2018-05-01T07:35:05Z</time>
      </trkpt>
      <trkpt lat="39.6802980" lon="-0.3272830">
        <ele>81.6</ele>
        <time>2018-05-01T07:35:07Z</time>
      </trkpt>
      <trkpt lat="39.6798450" lon="-0.3270400">
        <ele>81.8</ele>
        <time>2018-05-01T07:35:18Z</time>
      </trkpt>
      <trkpt lat="39.6797390" lon="-0.3269820">
        <ele>82.2</ele>
        <time>2018-05-01T07:35:21Z</time>
      </trkpt>
      <trkpt lat="39.6796250" lon="-0.3269220">
        <ele>82.6</ele>
        <time>2018-05-01T07:35:25Z</time>
      </trkpt>
      <trkpt lat="39.6795710" lon="-0.3269240">
        <ele>82.8</ele>
        <time>2018-05-01T07:35:27Z</time>
      </trkpt>
      <trkpt lat="39.6795350" lon="-0.3269390">
        <ele>83.2</ele>
        <time>2018-05-01T07:35:29Z</time>
      </trkpt>
      <trkpt lat="39.6795230" lon="-0.3269500">
        <ele>83.4</ele>
        <time>2018-05-01T07:35:30Z</time>
      </trkpt>
      <trkpt lat="39.6795090" lon="-0.3269780">
        <ele>83.8</ele>
        <time>2018-05-01T07:35:31Z</time>
      </trkpt>
      <trkpt lat="39.6794950" lon="-0.3270110">
        <ele>84.0</ele>
        <time>2018-05-01T07:35:32Z</time>
      </trkpt>
      <trkpt lat="39.6794630" lon="-0.3270800">
        <ele>84.4</ele>
        <time>2018-05-01T07:35:34Z</time>
      </trkpt>
      <trkpt lat="39.6794200" lon="-0.3271290">
        <ele>84.8</ele>
        <time>2018-05-01T07:35:36Z</time>
      </trkpt>
      <trkpt lat="39.6793970" lon="-0.3271430">
        <ele>85.2</ele>
        <time>2018-05-01T07:35:37Z</time>
      </trkpt>
      <trkpt lat="39.6793360" lon="-0.3271730">
        <ele>85.6</ele>
        <time>2018-05-01T07:35:40Z</time>
      </trkpt>
      <trkpt lat="39.6792950" lon="-0.3271960">
        <ele>86.2</ele>
        <time>2018-05-01T07:35:43Z</time>
      </trkpt>
      <trkpt lat="39.6792410" lon="-0.3272900">
        <ele>87.2</ele>
        <time>2018-05-01T07:35:47Z</time>
      </trkpt>
      <trkpt lat="39.6791920" lon="-0.3274040">
        <ele>87.6</ele>
        <time>2018-05-01T07:35:51Z</time>
      </trkpt>
      <trkpt lat="39.6791860" lon="-0.3274410">
        <ele>87.6</ele>
        <time>2018-05-01T07:35:52Z</time>
      </trkpt>
      <trkpt lat="39.6791860" lon="-0.3275150">
        <ele>87.6</ele>
        <time>2018-05-01T07:35:54Z</time>
      </trkpt>
      <trkpt lat="39.6791660" lon="-0.3276410">
        <ele>88.0</ele>
        <time>2018-05-01T07:35:58Z</time>
      </trkpt>
      <trkpt lat="39.6791470" lon="-0.3277680">
        <ele>88.4</ele>
        <time>2018-05-01T07:36:03Z</time>
      </trkpt>
      <trkpt lat="39.6791230" lon="-0.3278180">
        <ele>88.6</ele>
        <time>2018-05-01T07:36:06Z</time>
      </trkpt>
      <trkpt lat="39.6790910" lon="-0.3278280">
        <ele>88.6</ele>
        <time>2018-05-01T07:36:08Z</time>
      </trkpt>
      <trkpt lat="39.6790850" lon="-0.3277740">
        <ele>88.6</ele>
        <time>2018-05-01T07:36:10Z</time>
      </trkpt>
      <trkpt lat="39.6790960" lon="-0.3277430">
        <ele>88.6</ele>
        <time>2018-05-01T07:36:11Z</time>
      </trkpt>
      <trkpt lat="39.6791660" lon="-0.3274420">
        <ele>88.6</ele>
        <time>2018-05-01T07:36:17Z</time>
      </trkpt>
      <trkpt lat="39.6792090" lon="-0.3272540">
        <ele>88.4</ele>
        <time>2018-05-01T07:36:20Z</time>
      </trkpt>
      <trkpt lat="39.6792180" lon="-0.3271820">
        <ele>88.4</ele>
        <time>2018-05-01T07:36:21Z</time>
      </trkpt>
      <trkpt lat="39.6792030" lon="-0.3267210">
        <ele>87.8</ele>
        <time>2018-05-01T07:36:27Z</time>
      </trkpt>
      <trkpt lat="39.6791850" lon="-0.3263480">
        <ele>87.6</ele>
        <time>2018-05-01T07:36:32Z</time>
      </trkpt>
      <trkpt lat="39.6791720" lon="-0.3262100">
        <ele>87.6</ele>
        <time>2018-05-01T07:36:34Z</time>
      </trkpt>
      <trkpt lat="39.6791510" lon="-0.3260120">
        <ele>88.0</ele>
        <time>2018-05-01T07:36:37Z</time>
      </trkpt>
      <trkpt lat="39.6791430" lon="-0.3258820">
        <ele>88.4</ele>
        <time>2018-05-01T07:36:39Z</time>
      </trkpt>
      <trkpt lat="39.6791240" lon="-0.3254760">
        <ele>89.4</ele>
        <time>2018-05-01T07:36:45Z</time>
      </trkpt>
      <trkpt lat="39.6791370" lon="-0.3250340">
        <ele>89.6</ele>
        <time>2018-05-01T07:36:51Z</time>
      </trkpt>
      <trkpt lat="39.6791490" lon="-0.3249540">
        <ele>89.6</ele>
        <time>2018-05-01T07:36:52Z</time>
      </trkpt>
      <trkpt lat="39.6791990" lon="-0.3247940">
        <ele>89.6</ele>
        <time>2018-05-01T07:36:54Z</time>
      </trkpt>
      <trkpt lat="39.6792330" lon="-0.3247130">
        <ele>89.6</ele>
        <time>2018-05-01T07:36:55Z</time>
      </trkpt>
      <trkpt lat="39.6792710" lon="-0.3246270">
        <ele>89.4</ele>
        <time>2018-05-01T07:36:56Z</time>
      </trkpt>
      <trkpt lat="39.6793100" lon="-0.3245330">
        <ele>89.4</ele>
        <time>2018-05-01T07:36:57Z</time>
      </trkpt>
      <trkpt lat="39.6794390" lon="-0.3242310">
        <ele>88.6</ele>
        <time>2018-05-01T07:37:00Z</time>
      </trkpt>
      <trkpt lat="39.6794870" lon="-0.3241250">
        <ele>88.0</ele>
        <time>2018-05-01T07:37:01Z</time>
      </trkpt>
      <trkpt lat="39.6795870" lon="-0.3239330">
        <ele>86.8</ele>
        <time>2018-05-01T07:37:03Z</time>
      </trkpt>
      <trkpt lat="39.6796280" lon="-0.3238550">
        <ele>85.2</ele>
        <time>2018-05-01T07:37:04Z</time>
      </trkpt>
      <trkpt lat="39.6796850" lon="-0.3237090">
        <ele>83.4</ele>
        <time>2018-05-01T07:37:06Z</time>
      </trkpt>
      <trkpt lat="39.6796840" lon="-0.3236420">
        <ele>82.0</ele>
        <time>2018-05-01T07:37:07Z</time>
      </trkpt>
      <trkpt lat="39.6796680" lon="-0.3235770">
        <ele>80.8</ele>
        <time>2018-05-01T07:37:08Z</time>
      </trkpt>
      <trkpt lat="39.6796420" lon="-0.3235110">
        <ele>79.8</ele>
        <time>2018-05-01T07:37:09Z</time>
      </trkpt>
      <trkpt lat="39.6796210" lon="-0.3234480">
        <ele>79.2</ele>
        <time>2018-05-01T07:37:10Z</time>
      </trkpt>
      <trkpt lat="39.6796000" lon="-0.3233430">
        <ele>78.6</ele>
        <time>2018-05-01T07:37:12Z</time>
      </trkpt>
      <trkpt lat="39.6796440" lon="-0.3232430">
        <ele>78.4</ele>
        <time>2018-05-01T07:37:15Z</time>
      </trkpt>
      <trkpt lat="39.6796860" lon="-0.3231230">
        <ele>77.8</ele>
        <time>2018-05-01T07:37:20Z</time>
      </trkpt>
      <trkpt lat="39.6797020" lon="-0.3230850">
        <ele>77.8</ele>
        <time>2018-05-01T07:37:22Z</time>
      </trkpt>
      <trkpt lat="39.6797130" lon="-0.3230980">
        <ele>77.8</ele>
        <time>2018-05-01T07:37:24Z</time>
      </trkpt>
      <trkpt lat="39.6796870" lon="-0.3231150">
        <ele>77.8</ele>
        <time>2018-05-01T07:37:26Z</time>
      </trkpt>
      <trkpt lat="39.6796630" lon="-0.3231370">
        <ele>77.6</ele>
        <time>2018-05-01T07:37:28Z</time>
      </trkpt>
      <trkpt lat="39.6796600" lon="-0.3231490">
        <ele>77.6</ele>
        <time>2018-05-01T07:37:29Z</time>
      </trkpt>
      <trkpt lat="39.6796510" lon="-0.3231830">
        <ele>77.6</ele>
        <time>2018-05-01T07:37:31Z</time>
      </trkpt>
      <trkpt lat="39.6796280" lon="-0.3232270">
        <ele>77.6</ele>
        <time>2018-05-01T07:37:34Z</time>
      </trkpt>
      <trkpt lat="39.6796360" lon="-0.3231780">
        <ele>78.0</ele>
        <time>2018-05-01T07:38:13Z</time>
      </trkpt>
      <trkpt lat="39.6796490" lon="-0.3231340">
        <ele>77.6</ele>
        <time>2018-05-01T07:38:17Z</time>
      </trkpt>
      <trkpt lat="39.6796400" lon="-0.3230800">
        <ele>78.6</ele>
        <time>2018-05-01T08:22:30Z</time>
      </trkpt>
      <trkpt lat="39.6796350" lon="-0.3231410">
        <ele>78.6</ele>
        <time>2018-05-01T08:22:34Z</time>
      </trkpt>
      <trkpt lat="39.6796340" lon="-0.3231440">
        <ele>78.6</ele>
        <time>2018-05-01T08:22:35Z</time>
      </trkpt>
      <trkpt lat="39.6796040" lon="-0.3231910">
        <ele>78.4</ele>
        <time>2018-05-01T08:24:17Z</time>
      </trkpt>
      <trkpt lat="39.6795940" lon="-0.3232300">
        <ele>78.4</ele>
        <time>2018-05-01T08:24:19Z</time>
      </trkpt>
      <trkpt lat="39.6795830" lon="-0.3232680">
        <ele>78.4</ele>
        <time>2018-05-01T08:24:21Z</time>
      </trkpt>
      <trkpt lat="39.6795760" lon="-0.3233060">
        <ele>78.4</ele>
        <time>2018-05-01T08:24:23Z</time>
      </trkpt>
      <trkpt lat="39.6795770" lon="-0.3233580">
        <ele>78.4</ele>
        <time>2018-05-01T08:24:25Z</time>
      </trkpt>
      <trkpt lat="39.6795790" lon="-0.3234240">
        <ele>78.4</ele>
        <time>2018-05-01T08:24:27Z</time>
      </trkpt>
      <trkpt lat="39.6795900" lon="-0.3234580">
        <ele>78.4</ele>
        <time>2018-05-01T08:24:28Z</time>
      </trkpt>
      <trkpt lat="39.6796090" lon="-0.3235280">
        <ele>78.8</ele>
        <time>2018-05-01T08:24:30Z</time>
      </trkpt>
      <trkpt lat="39.6796160" lon="-0.3236030">
        <ele>79.0</ele>
        <time>2018-05-01T08:24:32Z</time>
      </trkpt>
      <trkpt lat="39.6796280" lon="-0.3236740">
        <ele>79.2</ele>
        <time>2018-05-01T08:24:34Z</time>
      </trkpt>
      <trkpt lat="39.6796170" lon="-0.3237460">
        <ele>79.4</ele>
        <time>2018-05-01T08:24:36Z</time>
      </trkpt>
      <trkpt lat="39.6796050" lon="-0.3237810">
        <ele>79.4</ele>
        <time>2018-05-01T08:24:37Z</time>
      </trkpt>
      <trkpt lat="39.6795790" lon="-0.3238410">
        <ele>79.6</ele>
        <time>2018-05-01T08:24:39Z</time>
      </trkpt>
      <trkpt lat="39.6795570" lon="-0.3238980">
        <ele>80.0</ele>
        <time>2018-05-01T08:24:41Z</time>
      </trkpt>
      <trkpt lat="39.6795370" lon="-0.3239610">
        <ele>80.4</ele>
        <time>2018-05-01T08:24:43Z</time>
      </trkpt>
      <trkpt lat="39.6795160" lon="-0.3240520">
        <ele>81.4</ele>
        <time>2018-05-01T08:24:46Z</time>
      </trkpt>
      <trkpt lat="39.6795050" lon="-0.3240820">
        <ele>81.6</ele>
        <time>2018-05-01T08:24:47Z</time>
      </trkpt>
      <trkpt lat="39.6794520" lon="-0.3242280">
        <ele>82.2</ele>
        <time>2018-05-01T08:24:52Z</time>
      </trkpt>
      <trkpt lat="39.6794320" lon="-0.3242830">
        <ele>82.6</ele>
        <time>2018-05-01T08:24:54Z</time>
      </trkpt>
      <trkpt lat="39.6793900" lon="-0.3243900">
        <ele>83.8</ele>
        <time>2018-05-01T08:24:58Z</time>
      </trkpt>
      <trkpt lat="39.6793490" lon="-0.3245200">
        <ele>84.8</ele>
        <time>2018-05-01T08:25:03Z</time>
      </trkpt>
      <trkpt lat="39.6792730" lon="-0.3246930">
        <ele>85.8</ele>
        <time>2018-05-01T08:25:10Z</time>
      </trkpt>
      <trkpt lat="39.6792180" lon="-0.3248280">
        <ele>86.8</ele>
        <time>2018-05-01T08:25:15Z</time>
      </trkpt>
      <trkpt lat="39.6792080" lon="-0.3248550">
        <ele>87.2</ele>
        <time>2018-05-01T08:25:16Z</time>
      </trkpt>
      <trkpt lat="39.6791780" lon="-0.3250100">
        <ele>88.2</ele>
        <time>2018-05-01T08:25:21Z</time>
      </trkpt>
      <trkpt lat="39.6791900" lon="-0.3253200">
        <ele>89.4</ele>
        <time>2018-05-01T08:25:29Z</time>
      </trkpt>
      <trkpt lat="39.6792040" lon="-0.3255510">
        <ele>90.6</ele>
        <time>2018-05-01T08:25:34Z</time>
      </trkpt>
      <trkpt lat="39.6792420" lon="-0.3259520">
        <ele>90.8</ele>
        <time>2018-05-01T08:25:42Z</time>
      </trkpt>
      <trkpt lat="39.6792530" lon="-0.3261260">
        <ele>90.6</ele>
        <time>2018-05-01T08:25:45Z</time>
      </trkpt>
      <trkpt lat="39.6792610" lon="-0.3261860">
        <ele>90.6</ele>
        <time>2018-05-01T08:25:46Z</time>
      </trkpt>
      <trkpt lat="39.6792670" lon="-0.3262490">
        <ele>90.6</ele>
        <time>2018-05-01T08:25:47Z</time>
      </trkpt>
      <trkpt lat="39.6792790" lon="-0.3263780">
        <ele>90.4</ele>
        <time>2018-05-01T08:25:49Z</time>
      </trkpt>
      <trkpt lat="39.6792830" lon="-0.3264450">
        <ele>90.4</ele>
        <time>2018-05-01T08:25:50Z</time>
      </trkpt>
      <trkpt lat="39.6792940" lon="-0.3265850">
        <ele>90.4</ele>
        <time>2018-05-01T08:25:52Z</time>
      </trkpt>
      <trkpt lat="39.6793190" lon="-0.3267240">
        <ele>89.2</ele>
        <time>2018-05-01T08:25:54Z</time>
      </trkpt>
      <trkpt lat="39.6793560" lon="-0.3267780">
        <ele>88.8</ele>
        <time>2018-05-01T08:25:55Z</time>
      </trkpt>
      <trkpt lat="39.6793970" lon="-0.3268160">
        <ele>88.8</ele>
        <time>2018-05-01T08:25:56Z</time>
      </trkpt>
      <trkpt lat="39.6794980" lon="-0.3268640">
        <ele>88.6</ele>
        <time>2018-05-01T08:25:58Z</time>
      </trkpt>
      <trkpt lat="39.6795510" lon="-0.3268790">
        <ele>88.4</ele>
        <time>2018-05-01T08:25:59Z</time>
      </trkpt>
      <trkpt lat="39.6796610" lon="-0.3269080">
        <ele>88.2</ele>
        <time>2018-05-01T08:26:01Z</time>
      </trkpt>
      <trkpt lat="39.6798420" lon="-0.3269880">
        <ele>87.2</ele>
        <time>2018-05-01T08:26:04Z</time>
      </trkpt>
      <trkpt lat="39.6799660" lon="-0.3270550">
        <ele>86.0</ele>
        <time>2018-05-01T08:26:06Z</time>
      </trkpt>
      <trkpt lat="39.6801550" lon="-0.3271460">
        <ele>84.6</ele>
        <time>2018-05-01T08:26:09Z</time>
      </trkpt>
      <trkpt lat="39.6802750" lon="-0.3272080">
        <ele>83.4</ele>
        <time>2018-05-01T08:26:11Z</time>
      </trkpt>
      <trkpt lat="39.6803930" lon="-0.3272650">
        <ele>83.0</ele>
        <time>2018-05-01T08:26:13Z</time>
      </trkpt>
      <trkpt lat="39.6805080" lon="-0.3273170">
        <ele>82.2</ele>
        <time>2018-05-01T08:26:15Z</time>
      </trkpt>
      <trkpt lat="39.6806740" lon="-0.3274040">
        <ele>81.6</ele>
        <time>2018-05-01T08:26:18Z</time>
      </trkpt>
      <trkpt lat="39.6810380" lon="-0.3275820">
        <ele>81.2</ele>
        <time>2018-05-01T08:26:25Z</time>
      </trkpt>
      <trkpt lat="39.6811410" lon="-0.3276360">
        <ele>81.2</ele>
        <time>2018-05-01T08:26:27Z</time>
      </trkpt>
      <trkpt lat="39.6811930" lon="-0.3276620">
        <ele>81.4</ele>
        <time>2018-05-01T08:26:28Z</time>
      </trkpt>
      <trkpt lat="39.6812440" lon="-0.3276870">
        <ele>81.4</ele>
        <time>2018-05-01T08:26:29Z</time>
      </trkpt>
      <trkpt lat="39.6813460" lon="-0.3277380">
        <ele>81.4</ele>
        <time>2018-05-01T08:26:31Z</time>
      </trkpt>
      <trkpt lat="39.6814480" lon="-0.3277880">
        <ele>81.6</ele>
        <time>2018-05-01T08:26:33Z</time>
      </trkpt>
      <trkpt lat="39.6815480" lon="-0.3278430">
        <ele>81.8</ele>
        <time>2018-05-01T08:26:35Z</time>
      </trkpt>
      <trkpt lat="39.6816970" lon="-0.3279180">
        <ele>82.0</ele>
        <time>2018-05-01T08:26:38Z</time>
      </trkpt>
      <trkpt lat="39.6817960" lon="-0.3279680">
        <ele>82.4</ele>
        <time>2018-05-01T08:26:40Z</time>
      </trkpt>
      <trkpt lat="39.6819480" lon="-0.3280490">
        <ele>82.6</ele>
        <time>2018-05-01T08:26:43Z</time>
      </trkpt>
      <trkpt lat="39.6821110" lon="-0.3281290">
        <ele>82.6</ele>
        <time>2018-05-01T08:26:46Z</time>
      </trkpt>
      <trkpt lat="39.6822270" lon="-0.3281780">
        <ele>82.8</ele>
        <time>2018-05-01T08:26:48Z</time>
      </trkpt>
      <trkpt lat="39.6827850" lon="-0.3282490">
        <ele>82.6</ele>
        <time>2018-05-01T08:26:57Z</time>
      </trkpt>
      <trkpt lat="39.6830340" lon="-0.3282480">
        <ele>82.2</ele>
        <time>2018-05-01T08:27:01Z</time>
      </trkpt>
      <trkpt lat="39.6833340" lon="-0.3282530">
        <ele>82.0</ele>
        <time>2018-05-01T08:27:06Z</time>
      </trkpt>
      <trkpt lat="39.6838970" lon="-0.3282610">
        <ele>82.8</ele>
        <time>2018-05-01T08:27:16Z</time>
      </trkpt>
      <trkpt lat="39.6841520" lon="-0.3282620">
        <ele>83.4</ele>
        <time>2018-05-01T08:27:21Z</time>
      </trkpt>
      <trkpt lat="39.6842500" lon="-0.3282620">
        <ele>83.6</ele>
        <time>2018-05-01T08:27:23Z</time>
      </trkpt>
      <trkpt lat="39.6844760" lon="-0.3282670">
        <ele>84.4</ele>
        <time>2018-05-01T08:27:28Z</time>
      </trkpt>
      <trkpt lat="39.6846960" lon="-0.3282680">
        <ele>85.6</ele>
        <time>2018-05-01T08:27:33Z</time>
      </trkpt>
      <trkpt lat="39.6848730" lon="-0.3282700">
        <ele>86.8</ele>
        <time>2018-05-01T08:27:37Z</time>
      </trkpt>
      <trkpt lat="39.6854170" lon="-0.3282770">
        <ele>87.8</ele>
        <time>2018-05-01T08:27:49Z</time>
      </trkpt>
      <trkpt lat="39.6859160" lon="-0.3282930">
        <ele>88.0</ele>
        <time>2018-05-01T08:27:59Z</time>
      </trkpt>
      <trkpt lat="39.6862420" lon="-0.3283260">
        <ele>87.8</ele>
        <time>2018-05-01T08:28:05Z</time>
      </trkpt>
      <trkpt lat="39.6867080" lon="-0.3284830">
        <ele>86.6</ele>
        <time>2018-05-01T08:28:13Z</time>
      </trkpt>
      <trkpt lat="39.6868890" lon="-0.3285850">
        <ele>85.8</ele>
        <time>2018-05-01T08:28:16Z</time>
      </trkpt>
      <trkpt lat="39.6869490" lon="-0.3286260">
        <ele>85.6</ele>
        <time>2018-05-01T08:28:17Z</time>
      </trkpt>
      <trkpt lat="39.6871260" lon="-0.3287620">
        <ele>84.8</ele>
        <time>2018-05-01T08:28:20Z</time>
      </trkpt>
      <trkpt lat="39.6871840" lon="-0.3288110">
        <ele>84.4</ele>
        <time>2018-05-01T08:28:21Z</time>
      </trkpt>
      <trkpt lat="39.6872950" lon="-0.3289110">
        <ele>84.0</ele>
        <time>2018-05-01T08:28:23Z</time>
      </trkpt>
      <trkpt lat="39.6873960" lon="-0.3290260">
        <ele>83.4</ele>
        <time>2018-05-01T08:28:25Z</time>
      </trkpt>
      <trkpt lat="39.6874900" lon="-0.3291540">
        <ele>82.8</ele>
        <time>2018-05-01T08:28:27Z</time>
      </trkpt>
      <trkpt lat="39.6875420" lon="-0.3292100">
        <ele>82.4</ele>
        <time>2018-05-01T08:28:28Z</time>
      </trkpt>
      <trkpt lat="39.6877090" lon="-0.3293420">
        <ele>81.4</ele>
        <time>2018-05-01T08:28:31Z</time>
      </trkpt>
      <trkpt lat="39.6879240" lon="-0.3295600">
        <ele>81.0</ele>
        <time>2018-05-01T08:28:35Z</time>
      </trkpt>
      <trkpt lat="39.6880970" lon="-0.3297010">
        <ele>80.6</ele>
        <time>2018-05-01T08:28:38Z</time>
      </trkpt>
      <trkpt lat="39.6882060" lon="-0.3297980">
        <ele>80.4</ele>
        <time>2018-05-01T08:28:40Z</time>
      </trkpt>
      <trkpt lat="39.6885120" lon="-0.3300820">
        <ele>79.6</ele>
        <time>2018-05-01T08:28:46Z</time>
      </trkpt>
      <trkpt lat="39.6887530" lon="-0.3303010">
        <ele>79.6</ele>
        <time>2018-05-01T08:28:51Z</time>
      </trkpt>
      <trkpt lat="39.6889410" lon="-0.3304680">
        <ele>80.0</ele>
        <time>2018-05-01T08:28:55Z</time>
      </trkpt>
      <trkpt lat="39.6891730" lon="-0.3306690">
        <ele>80.6</ele>
        <time>2018-05-01T08:29:00Z</time>
      </trkpt>
      <trkpt lat="39.6893560" lon="-0.3308270">
        <ele>81.6</ele>
        <time>2018-05-01T08:29:04Z</time>
      </trkpt>
      <trkpt lat="39.6896740" lon="-0.3310660">
        <ele>82.6</ele>
        <time>2018-05-01T08:29:11Z</time>
      </trkpt>
      <trkpt lat="39.6899690" lon="-0.3312860">
        <ele>83.8</ele>
        <time>2018-05-01T08:29:18Z</time>
      </trkpt>
      <trkpt lat="39.6904540" lon="-0.3316410">
        <ele>85.0</ele>
        <time>2018-05-01T08:29:29Z</time>
      </trkpt>
      <trkpt lat="39.6905540" lon="-0.3317010">
        <ele>85.0</ele>
        <time>2018-05-01T08:29:31Z</time>
      </trkpt>
      <trkpt lat="39.6908720" lon="-0.3318240">
        <ele>85.0</ele>
        <time>2018-05-01T08:29:37Z</time>
      </trkpt>
      <trkpt lat="39.6914360" lon="-0.3320120">
        <ele>84.0</ele>
        <time>2018-05-01T08:29:47Z</time>
      </trkpt>
      <trkpt lat="39.6914960" lon="-0.3320320">
        <ele>83.8</ele>
        <time>2018-05-01T08:29:48Z</time>
      </trkpt>
      <trkpt lat="39.6919590" lon="-0.3322480">
        <ele>82.6</ele>
        <time>2018-05-01T08:29:56Z</time>
      </trkpt>
      <trkpt lat="39.6923570" lon="-0.3325620">
        <ele>81.8</ele>
        <time>2018-05-01T08:30:04Z</time>
      </trkpt>
      <trkpt lat="39.6924000" lon="-0.3325960">
        <ele>81.8</ele>
        <time>2018-05-01T08:30:05Z</time>
      </trkpt>
      <trkpt lat="39.6925160" lon="-0.3326900">
        <ele>82.0</ele>
        <time>2018-05-01T08:30:08Z</time>
      </trkpt>
      <trkpt lat="39.6926320" lon="-0.3327840">
        <ele>82.0</ele>
        <time>2018-05-01T08:30:12Z</time>
      </trkpt>
      <trkpt lat="39.6926490" lon="-0.3328180">
        <ele>82.0</ele>
        <time>2018-05-01T08:30:13Z</time>
      </trkpt>
      <trkpt lat="39.6925340" lon="-0.3331100">
        <ele>83.8</ele>
        <time>2018-05-01T08:30:19Z</time>
      </trkpt>
      <trkpt lat="39.6924630" lon="-0.3333000">
        <ele>84.0</ele>
        <time>2018-05-01T08:30:23Z</time>
      </trkpt>
      <trkpt lat="39.6924680" lon="-0.3334180">
        <ele>84.2</ele>
        <time>2018-05-01T08:30:26Z</time>
      </trkpt>
      <trkpt lat="39.6925440" lon="-0.3334720">
        <ele>84.6</ele>
        <time>2018-05-01T08:30:29Z</time>
      </trkpt>
      <trkpt lat="39.6926000" lon="-0.3334940">
        <ele>84.8</ele>
        <time>2018-05-01T08:30:31Z</time>
      </trkpt>
      <trkpt lat="39.6926300" lon="-0.3335050">
        <ele>85.0</ele>
        <time>2018-05-01T08:30:32Z</time>
      </trkpt>
      <trkpt lat="39.6927290" lon="-0.3335510">
        <ele>85.8</ele>
        <time>2018-05-01T08:30:35Z</time>
      </trkpt>
      <trkpt lat="39.6928960" lon="-0.3336430">
        <ele>87.0</ele>
        <time>2018-05-01T08:30:40Z</time>
      </trkpt>
      <trkpt lat="39.6931290" lon="-0.3339280">
        <ele>88.2</ele>
        <time>2018-05-01T08:30:51Z</time>
      </trkpt>
      <trkpt lat="39.6931610" lon="-0.3339790">
        <ele>88.6</ele>
        <time>2018-05-01T08:30:53Z</time>
      </trkpt>
      <trkpt lat="39.6932090" lon="-0.3340520">
        <ele>89.4</ele>
        <time>2018-05-01T08:30:56Z</time>
      </trkpt>
      <trkpt lat="39.6932730" lon="-0.3341530">
        <ele>90.6</ele>
        <time>2018-05-01T08:31:00Z</time>
      </trkpt>
      <trkpt lat="39.6933650" lon="-0.3344430">
        <ele>91.6</ele>
        <time>2018-05-01T08:31:09Z</time>
      </trkpt>
      <trkpt lat="39.6934550" lon="-0.3347110">
        <ele>93.2</ele>
        <time>2018-05-01T08:31:17Z</time>
      </trkpt>
      <trkpt lat="39.6935490" lon="-0.3349930">
        <ele>94.2</ele>
        <time>2018-05-01T08:31:25Z</time>
      </trkpt>
      <trkpt lat="39.6936010" lon="-0.3351280">
        <ele>94.8</ele>
        <time>2018-05-01T08:31:30Z</time>
      </trkpt>
      <trkpt lat="39.6936010" lon="-0.3351500">
        <ele>95.0</ele>
        <time>2018-05-01T08:31:31Z</time>
      </trkpt>
      <trkpt lat="39.6935600" lon="-0.3351790">
        <ele>95.2</ele>
        <time>2018-05-01T08:31:34Z</time>
      </trkpt>
      <trkpt lat="39.6934740" lon="-0.3350810">
        <ele>96.4</ele>
        <time>2018-05-01T08:31:38Z</time>
      </trkpt>
      <trkpt lat="39.6934540" lon="-0.3350530">
        <ele>96.6</ele>
        <time>2018-05-01T08:31:39Z</time>
      </trkpt>
      <trkpt lat="39.6932360" lon="-0.3347950">
        <ele>97.6</ele>
        <time>2018-05-01T08:31:48Z</time>
      </trkpt>
      <trkpt lat="39.6930710" lon="-0.3346210">
        <ele>98.2</ele>
        <time>2018-05-01T08:31:53Z</time>
      </trkpt>
      <trkpt lat="39.6929960" lon="-0.3345290">
        <ele>98.2</ele>
        <time>2018-05-01T08:31:55Z</time>
      </trkpt>
      <trkpt lat="39.6928620" lon="-0.3343550">
        <ele>98.2</ele>
        <time>2018-05-01T08:31:58Z</time>
      </trkpt>
      <trkpt lat="39.6927090" lon="-0.3341630">
        <ele>98.2</ele>
        <time>2018-05-01T08:32:01Z</time>
      </trkpt>
      <trkpt lat="39.6926550" lon="-0.3341160">
        <ele>98.0</ele>
        <time>2018-05-01T08:32:02Z</time>
      </trkpt>
      <trkpt lat="39.6925140" lon="-0.3341480">
        <ele>95.6</ele>
        <time>2018-05-01T08:32:05Z</time>
      </trkpt>
      <trkpt lat="39.6924610" lon="-0.3342300">
        <ele>94.2</ele>
        <time>2018-05-01T08:32:07Z</time>
      </trkpt>
      <trkpt lat="39.6923950" lon="-0.3343710">
        <ele>93.2</ele>
        <time>2018-05-01T08:32:10Z</time>
      </trkpt>
      <trkpt lat="39.6923810" lon="-0.3344220">
        <ele>93.0</ele>
        <time>2018-05-01T08:32:11Z</time>
      </trkpt>
      <trkpt lat="39.6924270" lon="-0.3347090">
        <ele>93.0</ele>
        <time>2018-05-01T08:32:18Z</time>
      </trkpt>
      <trkpt lat="39.6924560" lon="-0.3347520">
        <ele>93.2</ele>
        <time>2018-05-01T08:32:20Z</time>
      </trkpt>
      <trkpt lat="39.6924690" lon="-0.3347710">
        <ele>93.6</ele>
        <time>2018-05-01T08:32:21Z</time>
      </trkpt>
      <trkpt lat="39.6924940" lon="-0.3348140">
        <ele>94.4</ele>
        <time>2018-05-01T08:32:23Z</time>
      </trkpt>
      <trkpt lat="39.6925130" lon="-0.3348580">
        <ele>95.0</ele>
        <time>2018-05-01T08:32:25Z</time>
      </trkpt>
      <trkpt lat="39.6925450" lon="-0.3348890">
        <ele>95.6</ele>
        <time>2018-05-01T08:32:27Z</time>
      </trkpt>
      <trkpt lat="39.6925630" lon="-0.3348960">
        <ele>96.0</ele>
        <time>2018-05-01T08:32:28Z</time>
      </trkpt>
      <trkpt lat="39.6925940" lon="-0.3349240">
        <ele>96.8</ele>
        <time>2018-05-01T08:32:30Z</time>
      </trkpt>
      <trkpt lat="39.6926170" lon="-0.3349590">
        <ele>97.4</ele>
        <time>2018-05-01T08:32:32Z</time>
      </trkpt>
      <trkpt lat="39.6926400" lon="-0.3349950">
        <ele>98.0</ele>
        <time>2018-05-01T08:32:34Z</time>
      </trkpt>
      <trkpt lat="39.6926650" lon="-0.3350300">
        <ele>98.6</ele>
        <time>2018-05-01T08:32:36Z</time>
      </trkpt>
      <trkpt lat="39.6926800" lon="-0.3350450">
        <ele>99.0</ele>
        <time>2018-05-01T08:32:37Z</time>
      </trkpt>
      <trkpt lat="39.6927110" lon="-0.3350730">
        <ele>100.2</ele>
        <time>2018-05-01T08:32:39Z</time>
      </trkpt>
      <trkpt lat="39.6927480" lon="-0.3351350">
        <ele>101.2</ele>
        <time>2018-05-01T08:32:42Z</time>
      </trkpt>
      <trkpt lat="39.6927630" lon="-0.3351520">
        <ele>101.6</ele>
        <time>2018-05-01T08:32:43Z</time>
      </trkpt>
      <trkpt lat="39.6928320" lon="-0.3352010">
        <ele>102.8</ele>
        <time>2018-05-01T08:32:47Z</time>
      </trkpt>
      <trkpt lat="39.6928880" lon="-0.3352710">
        <ele>103.8</ele>
        <time>2018-05-01T08:32:51Z</time>
      </trkpt>
      <trkpt lat="39.6929710" lon="-0.3353870">
        <ele>105.0</ele>
        <time>2018-05-01T08:32:56Z</time>
      </trkpt>
      <trkpt lat="39.6930260" lon="-0.3354370">
        <ele>105.8</ele>
        <time>2018-05-01T08:32:59Z</time>
      </trkpt>
      <trkpt lat="39.6931010" lon="-0.3354800">
        <ele>106.0</ele>
        <time>2018-05-01T08:33:02Z</time>
      </trkpt>
      <trkpt lat="39.6931520" lon="-0.3355350">
        <ele>106.0</ele>
        <time>2018-05-01T08:33:04Z</time>
      </trkpt>
      <trkpt lat="39.6931940" lon="-0.3355800">
        <ele>106.2</ele>
        <time>2018-05-01T08:33:06Z</time>
      </trkpt>
      <trkpt lat="39.6932400" lon="-0.3356590">
        <ele>106.2</ele>
        <time>2018-05-01T08:33:09Z</time>
      </trkpt>
      <trkpt lat="39.6934080" lon="-0.3359080">
        <ele>105.4</ele>
        <time>2018-05-01T08:33:16Z</time>
      </trkpt>
      <trkpt lat="39.6934640" lon="-0.3359900">
        <ele>105.2</ele>
        <time>2018-05-01T08:33:18Z</time>
      </trkpt>
      <trkpt lat="39.6935400" lon="-0.3361210">
        <ele>105.0</ele>
        <time>2018-05-01T08:33:21Z</time>
      </trkpt>
      <trkpt lat="39.6935910" lon="-0.3362030">
        <ele>105.0</ele>
        <time>2018-05-01T08:33:23Z</time>
      </trkpt>
      <trkpt lat="39.6936200" lon="-0.3362420">
        <ele>104.8</ele>
        <time>2018-05-01T08:33:24Z</time>
      </trkpt>
      <trkpt lat="39.6936730" lon="-0.3363320">
        <ele>104.6</ele>
        <time>2018-05-01T08:33:26Z</time>
      </trkpt>
      <trkpt lat="39.6938030" lon="-0.3366240">
        <ele>104.4</ele>
        <time>2018-05-01T08:33:31Z</time>
      </trkpt>
      <trkpt lat="39.6938230" lon="-0.3367360">
        <ele>104.0</ele>
        <time>2018-05-01T08:33:33Z</time>
      </trkpt>
      <trkpt lat="39.6937850" lon="-0.3368620">
        <ele>102.8</ele>
        <time>2018-05-01T08:33:36Z</time>
      </trkpt>
      <trkpt lat="39.6937420" lon="-0.3369440">
        <ele>102.4</ele>
        <time>2018-05-01T08:33:39Z</time>
      </trkpt>
      <trkpt lat="39.6937200" lon="-0.3369970">
        <ele>102.2</ele>
        <time>2018-05-01T08:33:41Z</time>
      </trkpt>
      <trkpt lat="39.6937080" lon="-0.3370210">
        <ele>102.2</ele>
        <time>2018-05-01T08:33:42Z</time>
      </trkpt>
      <trkpt lat="39.6936900" lon="-0.3370640">
        <ele>102.2</ele>
        <time>2018-05-01T08:33:44Z</time>
      </trkpt>
      <trkpt lat="39.6936770" lon="-0.3371070">
        <ele>102.4</ele>
        <time>2018-05-01T08:33:46Z</time>
      </trkpt>
      <trkpt lat="39.6936650" lon="-0.3371500">
        <ele>103.0</ele>
        <time>2018-05-01T08:33:48Z</time>
      </trkpt>
      <trkpt lat="39.6936560" lon="-0.3371870">
        <ele>103.8</ele>
        <time>2018-05-01T08:33:50Z</time>
      </trkpt>
      <trkpt lat="39.6936530" lon="-0.3372060">
        <ele>104.2</ele>
        <time>2018-05-01T08:33:51Z</time>
      </trkpt>
      <trkpt lat="39.6936420" lon="-0.3372410">
        <ele>105.0</ele>
        <time>2018-05-01T08:33:53Z</time>
      </trkpt>
      <trkpt lat="39.6936350" lon="-0.3372610">
        <ele>105.4</ele>
        <time>2018-05-01T08:33:54Z</time>
      </trkpt>
      <trkpt lat="39.6936190" lon="-0.3372940">
        <ele>106.0</ele>
        <time>2018-05-01T08:33:56Z</time>
      </trkpt>
      <trkpt lat="39.6936040" lon="-0.3373230">
        <ele>106.6</ele>
        <time>2018-05-01T08:33:58Z</time>
      </trkpt>
      <trkpt lat="39.6935600" lon="-0.3373800">
        <ele>107.6</ele>
        <time>2018-05-01T08:34:02Z</time>
      </trkpt>
      <trkpt lat="39.6934980" lon="-0.3374430">
        <ele>108.6</ele>
        <time>2018-05-01T08:34:06Z</time>
      </trkpt>
      <trkpt lat="39.6934240" lon="-0.3375050">
        <ele>110.0</ele>
        <time>2018-05-01T08:34:10Z</time>
      </trkpt>
      <trkpt lat="39.6933670" lon="-0.3376000">
        <ele>111.0</ele>
        <time>2018-05-01T08:34:15Z</time>
      </trkpt>
      <trkpt lat="39.6933170" lon="-0.3376900">
        <ele>112.2</ele>
        <time>2018-05-01T08:34:20Z</time>
      </trkpt>
      <trkpt lat="39.6933030" lon="-0.3377510">
        <ele>113.4</ele>
        <time>2018-05-01T08:34:23Z</time>
      </trkpt>
      <trkpt lat="39.6932930" lon="-0.3378200">
        <ele>114.6</ele>
        <time>2018-05-01T08:34:26Z</time>
      </trkpt>
      <trkpt lat="39.6932700" lon="-0.3379400">
        <ele>115.6</ele>
        <time>2018-05-01T08:34:31Z</time>
      </trkpt>
      <trkpt lat="39.6932390" lon="-0.3380880">
        <ele>116.6</ele>
        <time>2018-05-01T08:34:37Z</time>
      </trkpt>
      <trkpt lat="39.6932200" lon="-0.3382670">
        <ele>117.6</ele>
        <time>2018-05-01T08:34:44Z</time>
      </trkpt>
      <trkpt lat="39.6932090" lon="-0.3384670">
        <ele>119.2</ele>
        <time>2018-05-01T08:34:52Z</time>
      </trkpt>
      <trkpt lat="39.6931970" lon="-0.3385510">
        <ele>120.2</ele>
        <time>2018-05-01T08:34:55Z</time>
      </trkpt>
      <trkpt lat="39.6931630" lon="-0.3387150">
        <ele>121.4</ele>
        <time>2018-05-01T08:35:01Z</time>
      </trkpt>
      <trkpt lat="39.6931140" lon="-0.3389620">
        <ele>122.4</ele>
        <time>2018-05-01T08:35:10Z</time>
      </trkpt>
      <trkpt lat="39.6930790" lon="-0.3391070">
        <ele>123.6</ele>
        <time>2018-05-01T08:35:16Z</time>
      </trkpt>
      <trkpt lat="39.6930450" lon="-0.3392170">
        <ele>124.8</ele>
        <time>2018-05-01T08:35:21Z</time>
      </trkpt>
      <trkpt lat="39.6930200" lon="-0.3393130">
        <ele>126.0</ele>
        <time>2018-05-01T08:35:25Z</time>
      </trkpt>
      <trkpt lat="39.6930050" lon="-0.3393660">
        <ele>127.2</ele>
        <time>2018-05-01T08:35:27Z</time>
      </trkpt>
      <trkpt lat="39.6929950" lon="-0.3394820">
        <ele>128.2</ele>
        <time>2018-05-01T08:35:31Z</time>
      </trkpt>
      <trkpt lat="39.6929540" lon="-0.3396760">
        <ele>129.4</ele>
        <time>2018-05-01T08:35:37Z</time>
      </trkpt>
      <trkpt lat="39.6928880" lon="-0.3399500">
        <ele>130.4</ele>
        <time>2018-05-01T08:35:46Z</time>
      </trkpt>
      <trkpt lat="39.6928670" lon="-0.3400620">
        <ele>131.4</ele>
        <time>2018-05-01T08:35:50Z</time>
      </trkpt>
      <trkpt lat="39.6928320" lon="-0.3401670">
        <ele>132.6</ele>
        <time>2018-05-01T08:35:54Z</time>
      </trkpt>
      <trkpt lat="39.6927800" lon="-0.3402580">
        <ele>133.8</ele>
        <time>2018-05-01T08:35:58Z</time>
      </trkpt>
      <trkpt lat="39.6927110" lon="-0.3403260">
        <ele>135.0</ele>
        <time>2018-05-01T08:36:02Z</time>
      </trkpt>
      <trkpt lat="39.6926390" lon="-0.3403710">
        <ele>136.0</ele>
        <time>2018-05-01T08:36:06Z</time>
      </trkpt>
      <trkpt lat="39.6925680" lon="-0.3403740">
        <ele>137.0</ele>
        <time>2018-05-01T08:36:10Z</time>
      </trkpt>
      <trkpt lat="39.6924860" lon="-0.3403430">
        <ele>138.2</ele>
        <time>2018-05-01T08:36:15Z</time>
      </trkpt>
      <trkpt lat="39.6924200" lon="-0.3402940">
        <ele>139.4</ele>
        <time>2018-05-01T08:36:19Z</time>
      </trkpt>
      <trkpt lat="39.6923440" lon="-0.3402420">
        <ele>140.8</ele>
        <time>2018-05-01T08:36:24Z</time>
      </trkpt>
      <trkpt lat="39.6922830" lon="-0.3402080">
        <ele>141.6</ele>
        <time>2018-05-01T08:36:28Z</time>
      </trkpt>
      <trkpt lat="39.6922670" lon="-0.3401980">
        <ele>142.0</ele>
        <time>2018-05-01T08:36:29Z</time>
      </trkpt>
      <trkpt lat="39.6922170" lon="-0.3401730">
        <ele>143.0</ele>
        <time>2018-05-01T08:36:32Z</time>
      </trkpt>
      <trkpt lat="39.6921540" lon="-0.3401610">
        <ele>144.2</ele>
        <time>2018-05-01T08:36:36Z</time>
      </trkpt>
      <trkpt lat="39.6920940" lon="-0.3401510">
        <ele>145.4</ele>
        <time>2018-05-01T08:36:40Z</time>
      </trkpt>
      <trkpt lat="39.6920310" lon="-0.3401500">
        <ele>146.4</ele>
        <time>2018-05-01T08:36:44Z</time>
      </trkpt>
      <trkpt lat="39.6919860" lon="-0.3401620">
        <ele>147.8</ele>
        <time>2018-05-01T08:36:47Z</time>
      </trkpt>
      <trkpt lat="39.6919390" lon="-0.3401650">
        <ele>148.8</ele>
        <time>2018-05-01T08:36:50Z</time>
      </trkpt>
      <trkpt lat="39.6918930" lon="-0.3401650">
        <ele>149.8</ele>
        <time>2018-05-01T08:36:53Z</time>
      </trkpt>
      <trkpt lat="39.6918210" lon="-0.3401480">
        <ele>151.0</ele>
        <time>2018-05-01T08:36:57Z</time>
      </trkpt>
      <trkpt lat="39.6917330" lon="-0.3401150">
        <ele>152.2</ele>
        <time>2018-05-01T08:37:02Z</time>
      </trkpt>
      <trkpt lat="39.6916410" lon="-0.3401090">
        <ele>153.4</ele>
        <time>2018-05-01T08:37:08Z</time>
      </trkpt>
      <trkpt lat="39.6915820" lon="-0.3401250">
        <ele>154.6</ele>
        <time>2018-05-01T08:37:12Z</time>
      </trkpt>
      <trkpt lat="39.6915240" lon="-0.3401410">
        <ele>155.8</ele>
        <time>2018-05-01T08:37:16Z</time>
      </trkpt>
      <trkpt lat="39.6914380" lon="-0.3401890">
        <ele>157.0</ele>
        <time>2018-05-01T08:37:21Z</time>
      </trkpt>
      <trkpt lat="39.6913800" lon="-0.3402300">
        <ele>158.4</ele>
        <time>2018-05-01T08:37:24Z</time>
      </trkpt>
      <trkpt lat="39.6913010" lon="-0.3402840">
        <ele>159.4</ele>
        <time>2018-05-01T08:37:28Z</time>
      </trkpt>
      <trkpt lat="39.6911790" lon="-0.3403260">
        <ele>160.6</ele>
        <time>2018-05-01T08:37:34Z</time>
      </trkpt>
      <trkpt lat="39.6910330" lon="-0.3403690">
        <ele>161.8</ele>
        <time>2018-05-01T08:37:42Z</time>
      </trkpt>
      <trkpt lat="39.6909710" lon="-0.3403890">
        <ele>163.0</ele>
        <time>2018-05-01T08:37:46Z</time>
      </trkpt>
      <trkpt lat="39.6908800" lon="-0.3404060">
        <ele>164.2</ele>
        <time>2018-05-01T08:37:52Z</time>
      </trkpt>
      <trkpt lat="39.6908170" lon="-0.3404250">
        <ele>165.4</ele>
        <time>2018-05-01T08:37:56Z</time>
      </trkpt>
      <trkpt lat="39.6907620" lon="-0.3404450">
        <ele>166.4</ele>
        <time>2018-05-01T08:38:00Z</time>
      </trkpt>
      <trkpt lat="39.6906950" lon="-0.3404460">
        <ele>167.8</ele>
        <time>2018-05-01T08:38:04Z</time>
      </trkpt>
      <trkpt lat="39.6906480" lon="-0.3404460">
        <ele>168.8</ele>
        <time>2018-05-01T08:38:07Z</time>
      </trkpt>
      <trkpt lat="39.6905860" lon="-0.3404630">
        <ele>170.0</ele>
        <time>2018-05-01T08:38:11Z</time>
      </trkpt>
      <trkpt lat="39.6905330" lon="-0.3405040">
        <ele>171.2</ele>
        <time>2018-05-01T08:38:15Z</time>
      </trkpt>
      <trkpt lat="39.6904860" lon="-0.3405800">
        <ele>172.4</ele>
        <time>2018-05-01T08:38:19Z</time>
      </trkpt>
      <trkpt lat="39.6904580" lon="-0.3406530">
        <ele>173.2</ele>
        <time>2018-05-01T08:38:22Z</time>
      </trkpt>
      <trkpt lat="39.6904480" lon="-0.3406800">
        <ele>173.6</ele>
        <time>2018-05-01T08:38:23Z</time>
      </trkpt>
      <trkpt lat="39.6903910" lon="-0.3408530">
        <ele>174.8</ele>
        <time>2018-05-01T08:38:28Z</time>
      </trkpt>
      <trkpt lat="39.6901580" lon="-0.3413000">
        <ele>175.8</ele>
        <time>2018-05-01T08:38:41Z</time>
      </trkpt>
      <trkpt lat="39.6899580" lon="-0.3414570">
        <ele>177.0</ele>
        <time>2018-05-01T08:38:49Z</time>
      </trkpt>
      <trkpt lat="39.6898200" lon="-0.3415590">
        <ele>178.0</ele>
        <time>2018-05-01T08:38:55Z</time>
      </trkpt>
      <trkpt lat="39.6897590" lon="-0.3416540">
        <ele>179.2</ele>
        <time>2018-05-01T08:38:59Z</time>
      </trkpt>
      <trkpt lat="39.6897160" lon="-0.3417260">
        <ele>180.0</ele>
        <time>2018-05-01T08:39:02Z</time>
      </trkpt>
      <trkpt lat="39.6896950" lon="-0.3417450">
        <ele>180.2</ele>
        <time>2018-05-01T08:39:03Z</time>
      </trkpt>
      <trkpt lat="39.6896230" lon="-0.3418240">
        <ele>181.0</ele>
        <time>2018-05-01T08:39:07Z</time>
      </trkpt>
      <trkpt lat="39.6895820" lon="-0.3418630">
        <ele>181.6</ele>
        <time>2018-05-01T08:39:09Z</time>
      </trkpt>
      <trkpt lat="39.6895060" lon="-0.3419380">
        <ele>182.6</ele>
        <time>2018-05-01T08:39:13Z</time>
      </trkpt>
      <trkpt lat="39.6894320" lon="-0.3420520">
        <ele>184.0</ele>
        <time>2018-05-01T08:39:18Z</time>
      </trkpt>
      <trkpt lat="39.6893840" lon="-0.3421910">
        <ele>185.4</ele>
        <time>2018-05-01T08:39:23Z</time>
      </trkpt>
      <trkpt lat="39.6893410" lon="-0.3423270">
        <ele>186.6</ele>
        <time>2018-05-01T08:39:28Z</time>
      </trkpt>
      <trkpt lat="39.6893000" lon="-0.3424370">
        <ele>187.6</ele>
        <time>2018-05-01T08:39:32Z</time>
      </trkpt>
      <trkpt lat="39.6892600" lon="-0.3425920">
        <ele>188.8</ele>
        <time>2018-05-01T08:39:37Z</time>
      </trkpt>
      <trkpt lat="39.6892120" lon="-0.3427890">
        <ele>189.8</ele>
        <time>2018-05-01T08:39:43Z</time>
      </trkpt>
      <trkpt lat="39.6892380" lon="-0.3430350">
        <ele>191.2</ele>
        <time>2018-05-01T08:39:50Z</time>
      </trkpt>
      <trkpt lat="39.6892540" lon="-0.3433820">
        <ele>192.2</ele>
        <time>2018-05-01T08:39:59Z</time>
      </trkpt>
      <trkpt lat="39.6892160" lon="-0.3436450">
        <ele>193.2</ele>
        <time>2018-05-01T08:40:06Z</time>
      </trkpt>
      <trkpt lat="39.6891860" lon="-0.3439250">
        <ele>194.2</ele>
        <time>2018-05-01T08:40:13Z</time>
      </trkpt>
      <trkpt lat="39.6891480" lon="-0.3441150">
        <ele>195.0</ele>
        <time>2018-05-01T08:40:18Z</time>
      </trkpt>
      <trkpt lat="39.6891350" lon="-0.3441850">
        <ele>195.2</ele>
        <time>2018-05-01T08:40:20Z</time>
      </trkpt>
      <trkpt lat="39.6890980" lon="-0.3444190">
        <ele>196.2</ele>
        <time>2018-05-01T08:40:27Z</time>
      </trkpt>
      <trkpt lat="39.6890940" lon="-0.3444530">
        <ele>196.6</ele>
        <time>2018-05-01T08:40:28Z</time>
      </trkpt>
      <trkpt lat="39.6890650" lon="-0.3445450">
        <ele>197.6</ele>
        <time>2018-05-01T08:40:31Z</time>
      </trkpt>
      <trkpt lat="39.6890060" lon="-0.3446260">
        <ele>198.8</ele>
        <time>2018-05-01T08:40:35Z</time>
      </trkpt>
      <trkpt lat="39.6889610" lon="-0.3446090">
        <ele>200.2</ele>
        <time>2018-05-01T08:40:38Z</time>
      </trkpt>
      <trkpt lat="39.6889420" lon="-0.3445540">
        <ele>201.4</ele>
        <time>2018-05-01T08:40:41Z</time>
      </trkpt>
      <trkpt lat="39.6889460" lon="-0.3445320">
        <ele>201.8</ele>
        <time>2018-05-01T08:40:42Z</time>
      </trkpt>
      <trkpt lat="39.6889480" lon="-0.3444280">
        <ele>202.4</ele>
        <time>2018-05-01T08:40:47Z</time>
      </trkpt>
      <trkpt lat="39.6889030" lon="-0.3442360">
        <ele>203.6</ele>
        <time>2018-05-01T08:40:57Z</time>
      </trkpt>
      <trkpt lat="39.6888960" lon="-0.3442070">
        <ele>204.0</ele>
        <time>2018-05-01T08:41:00Z</time>
      </trkpt>
      <trkpt lat="39.6889090" lon="-0.3442800">
        <ele>205.6</ele>
        <time>2018-05-01T08:41:27Z</time>
      </trkpt>
      <trkpt lat="39.6889320" lon="-0.3443380">
        <ele>205.6</ele>
        <time>2018-05-01T08:41:29Z</time>
      </trkpt>
      <trkpt lat="39.6889410" lon="-0.3443660">
        <ele>205.4</ele>
        <time>2018-05-01T08:41:30Z</time>
      </trkpt>
      <trkpt lat="39.6889470" lon="-0.3443970">
        <ele>205.4</ele>
        <time>2018-05-01T08:41:31Z</time>
      </trkpt>
      <trkpt lat="39.6889620" lon="-0.3445060">
        <ele>205.0</ele>
        <time>2018-05-01T08:41:34Z</time>
      </trkpt>
      <trkpt lat="39.6889780" lon="-0.3445790">
        <ele>204.4</ele>
        <time>2018-05-01T08:41:36Z</time>
      </trkpt>
      <trkpt lat="39.6889950" lon="-0.3446740">
        <ele>203.2</ele>
        <time>2018-05-01T08:41:39Z</time>
      </trkpt>
      <trkpt lat="39.6888880" lon="-0.3447230">
        <ele>202.6</ele>
        <time>2018-05-01T08:41:44Z</time>
      </trkpt>
      <trkpt lat="39.6888580" lon="-0.3447190">
        <ele>202.4</ele>
        <time>2018-05-01T08:41:45Z</time>
      </trkpt>
      <trkpt lat="39.6887570" lon="-0.3446980">
        <ele>202.0</ele>
        <time>2018-05-01T08:41:48Z</time>
      </trkpt>
      <trkpt lat="39.6886870" lon="-0.3446850">
        <ele>201.4</ele>
        <time>2018-05-01T08:41:50Z</time>
      </trkpt>
      <trkpt lat="39.6885740" lon="-0.3446700">
        <ele>200.0</ele>
        <time>2018-05-01T08:41:53Z</time>
      </trkpt>
      <trkpt lat="39.6884370" lon="-0.3446340">
        <ele>199.2</ele>
        <time>2018-05-01T08:41:56Z</time>
      </trkpt>
      <trkpt lat="39.6883830" lon="-0.3446140">
        <ele>198.8</ele>
        <time>2018-05-01T08:41:57Z</time>
      </trkpt>
      <trkpt lat="39.6882260" lon="-0.3445330">
        <ele>197.8</ele>
        <time>2018-05-01T08:42:00Z</time>
      </trkpt>
      <trkpt lat="39.6881340" lon="-0.3444660">
        <ele>197.6</ele>
        <time>2018-05-01T08:42:02Z</time>
      </trkpt>
      <trkpt lat="39.6880860" lon="-0.3444440">
        <ele>197.4</ele>
        <time>2018-05-01T08:42:03Z</time>
      </trkpt>
      <trkpt lat="39.6879870" lon="-0.3444440">
        <ele>196.4</ele>
        <time>2018-05-01T08:42:05Z</time>
      </trkpt>
      <trkpt lat="39.6878900" lon="-0.3444810">
        <ele>195.6</ele>
        <time>2018-05-01T08:42:07Z</time>
      </trkpt>
      <trkpt lat="39.6878100" lon="-0.3445420">
        <ele>195.4</ele>
        <time>2018-05-01T08:42:09Z</time>
      </trkpt>
      <trkpt lat="39.6877750" lon="-0.3445730">
        <ele>195.4</ele>
        <time>2018-05-01T08:42:10Z</time>
      </trkpt>
      <trkpt lat="39.6876700" lon="-0.3446670">
        <ele>195.2</ele>
        <time>2018-05-01T08:42:13Z</time>
      </trkpt>
      <trkpt lat="39.6874870" lon="-0.3449750">
        <ele>194.8</ele>
        <time>2018-05-01T08:42:19Z</time>
      </trkpt>
      <trkpt lat="39.6874700" lon="-0.3450330">
        <ele>194.8</ele>
        <time>2018-05-01T08:42:20Z</time>
      </trkpt>
      <trkpt lat="39.6874250" lon="-0.3451140">
        <ele>194.8</ele>
        <time>2018-05-01T08:42:22Z</time>
      </trkpt>
      <trkpt lat="39.6874000" lon="-0.3451390">
        <ele>194.8</ele>
        <time>2018-05-01T08:42:23Z</time>
      </trkpt>
      <trkpt lat="39.6873770" lon="-0.3451630">
        <ele>194.8</ele>
        <time>2018-05-01T08:42:24Z</time>
      </trkpt>
      <trkpt lat="39.6873570" lon="-0.3451900">
        <ele>195.0</ele>
        <time>2018-05-01T08:42:25Z</time>
      </trkpt>
      <trkpt lat="39.6873200" lon="-0.3452480">
        <ele>195.4</ele>
        <time>2018-05-01T08:42:27Z</time>
      </trkpt>
      <trkpt lat="39.6872900" lon="-0.3453020">
        <ele>195.6</ele>
        <time>2018-05-01T08:42:29Z</time>
      </trkpt>
      <trkpt lat="39.6872670" lon="-0.3453580">
        <ele>196.0</ele>
        <time>2018-05-01T08:42:31Z</time>
      </trkpt>
      <trkpt lat="39.6872590" lon="-0.3453900">
        <ele>196.4</ele>
        <time>2018-05-01T08:42:32Z</time>
      </trkpt>
      <trkpt lat="39.6871780" lon="-0.3455080">
        <ele>197.4</ele>
        <time>2018-05-01T08:42:36Z</time>
      </trkpt>
      <trkpt lat="39.6870680" lon="-0.3455690">
        <ele>197.6</ele>
        <time>2018-05-01T08:42:39Z</time>
      </trkpt>
      <trkpt lat="39.6868340" lon="-0.3458280">
        <ele>196.4</ele>
        <time>2018-05-01T08:42:46Z</time>
      </trkpt>
      <trkpt lat="39.6866710" lon="-0.3460510">
        <ele>196.0</ele>
        <time>2018-05-01T08:42:53Z</time>
      </trkpt>
      <trkpt lat="39.6866380" lon="-0.3461170">
        <ele>196.0</ele>
        <time>2018-05-01T08:42:55Z</time>
      </trkpt>
      <trkpt lat="39.6866100" lon="-0.3461740">
        <ele>196.6</ele>
        <time>2018-05-01T08:42:57Z</time>
      </trkpt>
      <trkpt lat="39.6865720" lon="-0.3462180">
        <ele>197.4</ele>
        <time>2018-05-01T08:42:59Z</time>
      </trkpt>
      <trkpt lat="39.6865300" lon="-0.3462610">
        <ele>197.8</ele>
        <time>2018-05-01T08:43:01Z</time>
      </trkpt>
      <trkpt lat="39.6864770" lon="-0.3462840">
        <ele>198.8</ele>
        <time>2018-05-01T08:43:03Z</time>
      </trkpt>
      <trkpt lat="39.6864270" lon="-0.3462990">
        <ele>200.0</ele>
        <time>2018-05-01T08:43:05Z</time>
      </trkpt>
      <trkpt lat="39.6863570" lon="-0.3463270">
        <ele>201.0</ele>
        <time>2018-05-01T08:43:08Z</time>
      </trkpt>
      <trkpt lat="39.6862650" lon="-0.3463640">
        <ele>202.4</ele>
        <time>2018-05-01T08:43:12Z</time>
      </trkpt>
      <trkpt lat="39.6861910" lon="-0.3464080">
        <ele>203.6</ele>
        <time>2018-05-01T08:43:16Z</time>
      </trkpt>
      <trkpt lat="39.6861500" lon="-0.3464250">
        <ele>204.6</ele>
        <time>2018-05-01T08:43:18Z</time>
      </trkpt>
      <trkpt lat="39.6860860" lon="-0.3464520">
        <ele>205.8</ele>
        <time>2018-05-01T08:43:22Z</time>
      </trkpt>
      <trkpt lat="39.6859590" lon="-0.3464930">
        <ele>206.8</ele>
        <time>2018-05-01T08:43:27Z</time>
      </trkpt>
      <trkpt lat="39.6859270" lon="-0.3465010">
        <ele>207.0</ele>
        <time>2018-05-01T08:43:28Z</time>
      </trkpt>
      <trkpt lat="39.6858210" lon="-0.3465680">
        <ele>207.4</ele>
        <time>2018-05-01T08:43:32Z</time>
      </trkpt>
      <trkpt lat="39.6857200" lon="-0.3467630">
        <ele>207.8</ele>
        <time>2018-05-01T08:43:41Z</time>
      </trkpt>
      <trkpt lat="39.6857160" lon="-0.3467910">
        <ele>208.0</ele>
        <time>2018-05-01T08:43:42Z</time>
      </trkpt>
      <trkpt lat="39.6857270" lon="-0.3468980">
        <ele>209.2</ele>
        <time>2018-05-01T08:43:46Z</time>
      </trkpt>
      <trkpt lat="39.6857460" lon="-0.3469870">
        <ele>210.4</ele>
        <time>2018-05-01T08:43:49Z</time>
      </trkpt>
      <trkpt lat="39.6857690" lon="-0.3470820">
        <ele>212.2</ele>
        <time>2018-05-01T08:43:52Z</time>
      </trkpt>
      <trkpt lat="39.6857860" lon="-0.3471970">
        <ele>213.6</ele>
        <time>2018-05-01T08:43:56Z</time>
      </trkpt>
      <trkpt lat="39.6858190" lon="-0.3472730">
        <ele>214.6</ele>
        <time>2018-05-01T08:43:59Z</time>
      </trkpt>
      <trkpt lat="39.6858550" lon="-0.3474600">
        <ele>215.8</ele>
        <time>2018-05-01T08:44:06Z</time>
      </trkpt>
      <trkpt lat="39.6857360" lon="-0.3475130">
        <ele>216.8</ele>
        <time>2018-05-01T08:44:12Z</time>
      </trkpt>
      <trkpt lat="39.6856250" lon="-0.3475170">
        <ele>217.8</ele>
        <time>2018-05-01T08:44:18Z</time>
      </trkpt>
      <trkpt lat="39.6855570" lon="-0.3475030">
        <ele>218.8</ele>
        <time>2018-05-01T08:44:22Z</time>
      </trkpt>
      <trkpt lat="39.6854990" lon="-0.3474730">
        <ele>220.2</ele>
        <time>2018-05-01T08:44:26Z</time>
      </trkpt>
      <trkpt lat="39.6854310" lon="-0.3474330">
        <ele>221.4</ele>
        <time>2018-05-01T08:44:30Z</time>
      </trkpt>
      <trkpt lat="39.6853490" lon="-0.3474660">
        <ele>222.6</ele>
        <time>2018-05-01T08:44:35Z</time>
      </trkpt>
      <trkpt lat="39.6853140" lon="-0.3475130">
        <ele>223.8</ele>
        <time>2018-05-01T08:44:38Z</time>
      </trkpt>
      <trkpt lat="39.6852540" lon="-0.3475800">
        <ele>225.0</ele>
        <time>2018-05-01T08:44:42Z</time>
      </trkpt>
      <trkpt lat="39.6851920" lon="-0.3476400">
        <ele>226.2</ele>
        <time>2018-05-01T08:44:46Z</time>
      </trkpt>
      <trkpt lat="39.6850810" lon="-0.3477620">
        <ele>227.2</ele>
        <time>2018-05-01T08:44:53Z</time>
      </trkpt>
      <trkpt lat="39.6849730" lon="-0.3477970">
        <ele>228.2</ele>
        <time>2018-05-01T08:44:59Z</time>
      </trkpt>
      <trkpt lat="39.6849080" lon="-0.3477960">
        <ele>229.2</ele>
        <time>2018-05-01T08:45:03Z</time>
      </trkpt>
      <trkpt lat="39.6848270" lon="-0.3478150">
        <ele>230.4</ele>
        <time>2018-05-01T08:45:08Z</time>
      </trkpt>
      <trkpt lat="39.6847610" lon="-0.3478640">
        <ele>231.6</ele>
        <time>2018-05-01T08:45:12Z</time>
      </trkpt>
      <trkpt lat="39.6847240" lon="-0.3479280">
        <ele>232.8</ele>
        <time>2018-05-01T08:45:15Z</time>
      </trkpt>
      <trkpt lat="39.6846830" lon="-0.3480160">
        <ele>233.8</ele>
        <time>2018-05-01T08:45:19Z</time>
      </trkpt>
      <trkpt lat="39.6845830" lon="-0.3481380">
        <ele>235.0</ele>
        <time>2018-05-01T08:45:27Z</time>
      </trkpt>
      <trkpt lat="39.6845390" lon="-0.3482030">
        <ele>236.2</ele>
        <time>2018-05-01T08:45:31Z</time>
      </trkpt>
      <trkpt lat="39.6845010" lon="-0.3482560">
        <ele>237.6</ele>
        <time>2018-05-01T08:45:34Z</time>
      </trkpt>
      <trkpt lat="39.6844570" lon="-0.3483110">
        <ele>239.2</ele>
        <time>2018-05-01T08:45:37Z</time>
      </trkpt>
      <trkpt lat="39.6844210" lon="-0.3483550">
        <ele>240.2</ele>
        <time>2018-05-01T08:45:40Z</time>
      </trkpt>
      <trkpt lat="39.6843320" lon="-0.3484430">
        <ele>241.2</ele>
        <time>2018-05-01T08:45:46Z</time>
      </trkpt>
      <trkpt lat="39.6842350" lon="-0.3485300">
        <ele>242.4</ele>
        <time>2018-05-01T08:45:53Z</time>
      </trkpt>
      <trkpt lat="39.6841740" lon="-0.3485900">
        <ele>243.6</ele>
        <time>2018-05-01T08:45:58Z</time>
      </trkpt>
      <trkpt lat="39.6841350" lon="-0.3486310">
        <ele>244.4</ele>
        <time>2018-05-01T08:46:01Z</time>
      </trkpt>
      <trkpt lat="39.6841220" lon="-0.3486410">
        <ele>244.6</ele>
        <time>2018-05-01T08:46:02Z</time>
      </trkpt>
      <trkpt lat="39.6840900" lon="-0.3486900">
        <ele>245.6</ele>
        <time>2018-05-01T08:46:05Z</time>
      </trkpt>
      <trkpt lat="39.6840710" lon="-0.3487360">
        <ele>246.4</ele>
        <time>2018-05-01T08:46:07Z</time>
      </trkpt>
      <trkpt lat="39.6840600" lon="-0.3487610">
        <ele>246.8</ele>
        <time>2018-05-01T08:46:08Z</time>
      </trkpt>
      <trkpt lat="39.6840310" lon="-0.3487950">
        <ele>247.2</ele>
        <time>2018-05-01T08:46:10Z</time>
      </trkpt>
      <trkpt lat="39.6839840" lon="-0.3488200">
        <ele>248.0</ele>
        <time>2018-05-01T08:46:13Z</time>
      </trkpt>
      <trkpt lat="39.6839210" lon="-0.3488550">
        <ele>249.0</ele>
        <time>2018-05-01T08:46:17Z</time>
      </trkpt>
      <trkpt lat="39.6838360" lon="-0.3488820">
        <ele>250.2</ele>
        <time>2018-05-01T08:46:22Z</time>
      </trkpt>
      <trkpt lat="39.6837690" lon="-0.3489100">
        <ele>251.2</ele>
        <time>2018-05-01T08:46:26Z</time>
      </trkpt>
      <trkpt lat="39.6836940" lon="-0.3489710">
        <ele>252.2</ele>
        <time>2018-05-01T08:46:31Z</time>
      </trkpt>
      <trkpt lat="39.6836410" lon="-0.3490240">
        <ele>253.4</ele>
        <time>2018-05-01T08:46:35Z</time>
      </trkpt>
      <trkpt lat="39.6835530" lon="-0.3490770">
        <ele>254.4</ele>
        <time>2018-05-01T08:46:40Z</time>
      </trkpt>
      <trkpt lat="39.6834880" lon="-0.3491280">
        <ele>255.6</ele>
        <time>2018-05-01T08:46:44Z</time>
      </trkpt>
      <trkpt lat="39.6834140" lon="-0.3491970">
        <ele>256.6</ele>
        <time>2018-05-01T08:46:48Z</time>
      </trkpt>
      <trkpt lat="39.6833090" lon="-0.3493130">
        <ele>257.4</ele>
        <time>2018-05-01T08:46:53Z</time>
      </trkpt>
      <trkpt lat="39.6832200" lon="-0.3494260">
        <ele>257.4</ele>
        <time>2018-05-01T08:46:57Z</time>
      </trkpt>
      <trkpt lat="39.6831620" lon="-0.3496100">
        <ele>257.2</ele>
        <time>2018-05-01T08:47:01Z</time>
      </trkpt>
      <trkpt lat="39.6831680" lon="-0.3497190">
        <ele>257.2</ele>
        <time>2018-05-01T08:47:05Z</time>
      </trkpt>
      <trkpt lat="39.6832030" lon="-0.3498040">
        <ele>257.2</ele>
        <time>2018-05-01T08:47:08Z</time>
      </trkpt>
      <trkpt lat="39.6833010" lon="-0.3500130">
        <ele>257.8</ele>
        <time>2018-05-01T08:47:15Z</time>
      </trkpt>
      <trkpt lat="39.6832290" lon="-0.3502790">
        <ele>259.0</ele>
        <time>2018-05-01T08:47:22Z</time>
      </trkpt>
      <trkpt lat="39.6830350" lon="-0.3505190">
        <ele>259.8</ele>
        <time>2018-05-01T08:47:31Z</time>
      </trkpt>
      <trkpt lat="39.6829900" lon="-0.3505570">
        <ele>260.0</ele>
        <time>2018-05-01T08:47:33Z</time>
      </trkpt>
      <trkpt lat="39.6829250" lon="-0.3507200">
        <ele>261.0</ele>
        <time>2018-05-01T08:47:39Z</time>
      </trkpt>
      <trkpt lat="39.6829630" lon="-0.3508700">
        <ele>262.2</ele>
        <time>2018-05-01T08:47:44Z</time>
      </trkpt>
      <trkpt lat="39.6829900" lon="-0.3509670">
        <ele>263.4</ele>
        <time>2018-05-01T08:47:48Z</time>
      </trkpt>
      <trkpt lat="39.6830250" lon="-0.3510860">
        <ele>264.8</ele>
        <time>2018-05-01T08:47:53Z</time>
      </trkpt>
      <trkpt lat="39.6830540" lon="-0.3511960">
        <ele>265.8</ele>
        <time>2018-05-01T08:47:58Z</time>
      </trkpt>
      <trkpt lat="39.6830390" lon="-0.3513050">
        <ele>267.0</ele>
        <time>2018-05-01T08:48:03Z</time>
      </trkpt>
      <trkpt lat="39.6830230" lon="-0.3513610">
        <ele>268.2</ele>
        <time>2018-05-01T08:48:06Z</time>
      </trkpt>
      <trkpt lat="39.6829970" lon="-0.3514390">
        <ele>269.4</ele>
        <time>2018-05-01T08:48:10Z</time>
      </trkpt>
      <trkpt lat="39.6829470" lon="-0.3514990">
        <ele>270.4</ele>
        <time>2018-05-01T08:48:14Z</time>
      </trkpt>
      <trkpt lat="39.6829000" lon="-0.3515150">
        <ele>271.4</ele>
        <time>2018-05-01T08:48:17Z</time>
      </trkpt>
      <trkpt lat="39.6828840" lon="-0.3515120">
        <ele>271.8</ele>
        <time>2018-05-01T08:48:18Z</time>
      </trkpt>
      <trkpt lat="39.6828130" lon="-0.3514900">
        <ele>273.2</ele>
        <time>2018-05-01T08:48:22Z</time>
      </trkpt>
      <trkpt lat="39.6827390" lon="-0.3514740">
        <ele>274.4</ele>
        <time>2018-05-01T08:48:26Z</time>
      </trkpt>
      <trkpt lat="39.6826290" lon="-0.3514590">
        <ele>275.4</ele>
        <time>2018-05-01T08:48:32Z</time>
      </trkpt>
      <trkpt lat="39.6825280" lon="-0.3514300">
        <ele>276.4</ele>
        <time>2018-05-01T08:48:38Z</time>
      </trkpt>
      <trkpt lat="39.6824420" lon="-0.3513930">
        <ele>277.6</ele>
        <time>2018-05-01T08:48:43Z</time>
      </trkpt>
      <trkpt lat="39.6823650" lon="-0.3513430">
        <ele>278.8</ele>
        <time>2018-05-01T08:48:48Z</time>
      </trkpt>
      <trkpt lat="39.6822990" lon="-0.3512780">
        <ele>279.8</ele>
        <time>2018-05-01T08:48:53Z</time>
      </trkpt>
      <trkpt lat="39.6822370" lon="-0.3512020">
        <ele>281.0</ele>
        <time>2018-05-01T08:48:58Z</time>
      </trkpt>
      <trkpt lat="39.6821590" lon="-0.3510970">
        <ele>282.2</ele>
        <time>2018-05-01T08:49:04Z</time>
      </trkpt>
      <trkpt lat="39.6820860" lon="-0.3510180">
        <ele>283.4</ele>
        <time>2018-05-01T08:49:09Z</time>
      </trkpt>
      <trkpt lat="39.6819690" lon="-0.3509090">
        <ele>284.4</ele>
        <time>2018-05-01T08:49:16Z</time>
      </trkpt>
      <trkpt lat="39.6818640" lon="-0.3507890">
        <ele>285.6</ele>
        <time>2018-05-01T08:49:23Z</time>
      </trkpt>
      <trkpt lat="39.6817870" lon="-0.3506570">
        <ele>286.8</ele>
        <time>2018-05-01T08:49:30Z</time>
      </trkpt>
      <trkpt lat="39.6817390" lon="-0.3505710">
        <ele>288.0</ele>
        <time>2018-05-01T08:49:34Z</time>
      </trkpt>
      <trkpt lat="39.6816760" lon="-0.3504750">
        <ele>289.0</ele>
        <time>2018-05-01T08:49:38Z</time>
      </trkpt>
      <trkpt lat="39.6815760" lon="-0.3503590">
        <ele>289.2</ele>
        <time>2018-05-01T08:49:42Z</time>
      </trkpt>
      <trkpt lat="39.6814960" lon="-0.3502150">
        <ele>289.4</ele>
        <time>2018-05-01T08:49:45Z</time>
      </trkpt>
      <trkpt lat="39.6814320" lon="-0.3500090">
        <ele>289.0</ele>
        <time>2018-05-01T08:49:48Z</time>
      </trkpt>
      <trkpt lat="39.6814090" lon="-0.3498850">
        <ele>288.0</ele>
        <time>2018-05-01T08:49:50Z</time>
      </trkpt>
      <trkpt lat="39.6814110" lon="-0.3497840">
        <ele>287.4</ele>
        <time>2018-05-01T08:49:53Z</time>
      </trkpt>
      <trkpt lat="39.6815210" lon="-0.3496670">
        <ele>287.4</ele>
        <time>2018-05-01T08:49:59Z</time>
      </trkpt>
      <trkpt lat="39.6815370" lon="-0.3496430">
        <ele>287.4</ele>
        <time>2018-05-01T08:50:00Z</time>
      </trkpt>
      <trkpt lat="39.6816390" lon="-0.3494660">
        <ele>289.2</ele>
        <time>2018-05-01T08:50:07Z</time>
      </trkpt>
      <trkpt lat="39.6816710" lon="-0.3493860">
        <ele>290.2</ele>
        <time>2018-05-01T08:50:10Z</time>
      </trkpt>
      <trkpt lat="39.6816930" lon="-0.3492190">
        <ele>291.4</ele>
        <time>2018-05-01T08:50:15Z</time>
      </trkpt>
      <trkpt lat="39.6816780" lon="-0.3490230">
        <ele>292.2</ele>
        <time>2018-05-01T08:50:20Z</time>
      </trkpt>
      <trkpt lat="39.6814850" lon="-0.3488760">
        <ele>292.4</ele>
        <time>2018-05-01T08:50:29Z</time>
      </trkpt>
      <trkpt lat="39.6813980" lon="-0.3489410">
        <ele>293.2</ele>
        <time>2018-05-01T08:50:34Z</time>
      </trkpt>
      <trkpt lat="39.6813620" lon="-0.3489590">
        <ele>293.6</ele>
        <time>2018-05-01T08:50:36Z</time>
      </trkpt>
      <trkpt lat="39.6812940" lon="-0.3489580">
        <ele>294.8</ele>
        <time>2018-05-01T08:50:40Z</time>
      </trkpt>
      <trkpt lat="39.6812790" lon="-0.3489530">
        <ele>295.2</ele>
        <time>2018-05-01T08:50:41Z</time>
      </trkpt>
      <trkpt lat="39.6812360" lon="-0.3489300">
        <ele>296.0</ele>
        <time>2018-05-01T08:50:44Z</time>
      </trkpt>
      <trkpt lat="39.6811930" lon="-0.3488920">
        <ele>297.2</ele>
        <time>2018-05-01T08:50:47Z</time>
      </trkpt>
      <trkpt lat="39.6811480" lon="-0.3488570">
        <ele>298.2</ele>
        <time>2018-05-01T08:50:50Z</time>
      </trkpt>
      <trkpt lat="39.6811100" lon="-0.3488080">
        <ele>299.6</ele>
        <time>2018-05-01T08:50:53Z</time>
      </trkpt>
      <trkpt lat="39.6810940" lon="-0.3487680">
        <ele>300.6</ele>
        <time>2018-05-01T08:50:55Z</time>
      </trkpt>
      <trkpt lat="39.6810740" lon="-0.3487030">
        <ele>301.8</ele>
        <time>2018-05-01T08:50:58Z</time>
      </trkpt>
      <trkpt lat="39.6810660" lon="-0.3486060">
        <ele>303.0</ele>
        <time>2018-05-01T08:51:02Z</time>
      </trkpt>
      <trkpt lat="39.6810420" lon="-0.3485170">
        <ele>304.2</ele>
        <time>2018-05-01T08:51:06Z</time>
      </trkpt>
      <trkpt lat="39.6810270" lon="-0.3484500">
        <ele>305.4</ele>
        <time>2018-05-01T08:51:09Z</time>
      </trkpt>
      <trkpt lat="39.6810140" lon="-0.3484030">
        <ele>306.4</ele>
        <time>2018-05-01T08:51:11Z</time>
      </trkpt>
      <trkpt lat="39.6810020" lon="-0.3483340">
        <ele>307.4</ele>
        <time>2018-05-01T08:51:14Z</time>
      </trkpt>
      <trkpt lat="39.6809570" lon="-0.3481950">
        <ele>308.4</ele>
        <time>2018-05-01T08:51:21Z</time>
      </trkpt>
      <trkpt lat="39.6809230" lon="-0.3480710">
        <ele>309.4</ele>
        <time>2018-05-01T08:51:28Z</time>
      </trkpt>
      <trkpt lat="39.6809150" lon="-0.3479930">
        <ele>310.8</ele>
        <time>2018-05-01T08:51:32Z</time>
      </trkpt>
      <trkpt lat="39.6809140" lon="-0.3479090">
        <ele>312.0</ele>
        <time>2018-05-01T08:51:36Z</time>
      </trkpt>
      <trkpt lat="39.6809170" lon="-0.3478260">
        <ele>313.2</ele>
        <time>2018-05-01T08:51:40Z</time>
      </trkpt>
      <trkpt lat="39.6809030" lon="-0.3477400">
        <ele>314.6</ele>
        <time>2018-05-01T08:51:44Z</time>
      </trkpt>
      <trkpt lat="39.6808720" lon="-0.3476250">
        <ele>315.8</ele>
        <time>2018-05-01T08:51:49Z</time>
      </trkpt>
      <trkpt lat="39.6808520" lon="-0.3474960">
        <ele>317.2</ele>
        <time>2018-05-01T08:51:54Z</time>
      </trkpt>
      <trkpt lat="39.6808390" lon="-0.3473580">
        <ele>318.2</ele>
        <time>2018-05-01T08:51:59Z</time>
      </trkpt>
      <trkpt lat="39.6808380" lon="-0.3472080">
        <ele>319.2</ele>
        <time>2018-05-01T08:52:04Z</time>
      </trkpt>
      <trkpt lat="39.6808170" lon="-0.3470430">
        <ele>320.4</ele>
        <time>2018-05-01T08:52:10Z</time>
      </trkpt>
      <trkpt lat="39.6807880" lon="-0.3469770">
        <ele>321.0</ele>
        <time>2018-05-01T08:52:13Z</time>
      </trkpt>
      <trkpt lat="39.6807120" lon="-0.3469590">
        <ele>321.6</ele>
        <time>2018-05-01T08:52:18Z</time>
      </trkpt>
      <trkpt lat="39.6806680" lon="-0.3469590">
        <ele>322.0</ele>
        <time>2018-05-01T08:52:21Z</time>
      </trkpt>
      <trkpt lat="39.6806310" lon="-0.3469580">
        <ele>322.6</ele>
        <time>2018-05-01T08:52:24Z</time>
      </trkpt>
      <trkpt lat="39.6805040" lon="-0.3469900">
        <ele>323.6</ele>
        <time>2018-05-01T08:52:31Z</time>
      </trkpt>
      <trkpt lat="39.6804390" lon="-0.3470260">
        <ele>324.4</ele>
        <time>2018-05-01T08:52:35Z</time>
      </trkpt>
      <trkpt lat="39.6803930" lon="-0.3470500">
        <ele>324.6</ele>
        <time>2018-05-01T08:52:38Z</time>
      </trkpt>
      <trkpt lat="39.6802720" lon="-0.3470920">
        <ele>325.8</ele>
        <time>2018-05-01T08:52:44Z</time>
      </trkpt>
      <trkpt lat="39.6802080" lon="-0.3471040">
        <ele>326.2</ele>
        <time>2018-05-01T08:52:47Z</time>
      </trkpt>
      <trkpt lat="39.6801270" lon="-0.3471180">
        <ele>326.6</ele>
        <time>2018-05-01T08:52:51Z</time>
      </trkpt>
      <trkpt lat="39.6801070" lon="-0.3471340">
        <ele>326.6</ele>
        <time>2018-05-01T08:52:53Z</time>
      </trkpt>
      <trkpt lat="39.6800770" lon="-0.3472210">
        <ele>326.6</ele>
        <time>2018-05-01T09:00:26Z</time>
      </trkpt>
      <trkpt lat="39.6800680" lon="-0.3472360">
        <ele>326.8</ele>
        <time>2018-05-01T09:00:27Z</time>
      </trkpt>
      <trkpt lat="39.6800230" lon="-0.3473420">
        <ele>327.2</ele>
        <time>2018-05-01T09:00:31Z</time>
      </trkpt>
      <trkpt lat="39.6799950" lon="-0.3474720">
        <ele>327.4</ele>
        <time>2018-05-01T09:00:35Z</time>
      </trkpt>
      <trkpt lat="39.6799480" lon="-0.3476460">
        <ele>327.8</ele>
        <time>2018-05-01T09:00:40Z</time>
      </trkpt>
      <trkpt lat="39.6799010" lon="-0.3477890">
        <ele>328.4</ele>
        <time>2018-05-01T09:00:46Z</time>
      </trkpt>
      <trkpt lat="39.6798780" lon="-0.3478590">
        <ele>329.6</ele>
        <time>2018-05-01T09:00:55Z</time>
      </trkpt>
      <trkpt lat="39.6798000" lon="-0.3480790">
        <ele>329.8</ele>
        <time>2018-05-01T09:01:03Z</time>
      </trkpt>
      <trkpt lat="39.6797540" lon="-0.3481600">
        <ele>330.0</ele>
        <time>2018-05-01T09:01:06Z</time>
      </trkpt>
      <trkpt lat="39.6797220" lon="-0.3482200">
        <ele>330.8</ele>
        <time>2018-05-01T09:01:08Z</time>
      </trkpt>
      <trkpt lat="39.6796890" lon="-0.3482770">
        <ele>331.6</ele>
        <time>2018-05-01T09:01:10Z</time>
      </trkpt>
      <trkpt lat="39.6796690" lon="-0.3483000">
        <ele>332.0</ele>
        <time>2018-05-01T09:01:11Z</time>
      </trkpt>
      <trkpt lat="39.6796290" lon="-0.3483470">
        <ele>332.8</ele>
        <time>2018-05-01T09:01:13Z</time>
      </trkpt>
      <trkpt lat="39.6795850" lon="-0.3483940">
        <ele>333.2</ele>
        <time>2018-05-01T09:01:15Z</time>
      </trkpt>
      <trkpt lat="39.6795170" lon="-0.3484660">
        <ele>334.0</ele>
        <time>2018-05-01T09:01:18Z</time>
      </trkpt>
      <trkpt lat="39.6794960" lon="-0.3484970">
        <ele>334.2</ele>
        <time>2018-05-01T09:01:19Z</time>
      </trkpt>
      <trkpt lat="39.6794520" lon="-0.3486510">
        <ele>335.4</ele>
        <time>2018-05-01T09:01:23Z</time>
      </trkpt>
      <trkpt lat="39.6793900" lon="-0.3489480">
        <ele>336.4</ele>
        <time>2018-05-01T09:01:32Z</time>
      </trkpt>
      <trkpt lat="39.6793550" lon="-0.3493310">
        <ele>337.6</ele>
        <time>2018-05-01T09:01:41Z</time>
      </trkpt>
      <trkpt lat="39.6793410" lon="-0.3495830">
        <ele>338.0</ele>
        <time>2018-05-01T09:01:48Z</time>
      </trkpt>
      <trkpt lat="39.6793350" lon="-0.3496580">
        <ele>338.8</ele>
        <time>2018-05-01T09:01:51Z</time>
      </trkpt>
      <trkpt lat="39.6793460" lon="-0.3497660">
        <ele>340.0</ele>
        <time>2018-05-01T09:01:55Z</time>
      </trkpt>
      <trkpt lat="39.6793560" lon="-0.3498840">
        <ele>341.2</ele>
        <time>2018-05-01T09:01:59Z</time>
      </trkpt>
      <trkpt lat="39.6793800" lon="-0.3500070">
        <ele>342.2</ele>
        <time>2018-05-01T09:02:03Z</time>
      </trkpt>
      <trkpt lat="39.6794370" lon="-0.3501810">
        <ele>343.4</ele>
        <time>2018-05-01T09:02:08Z</time>
      </trkpt>
      <trkpt lat="39.6795130" lon="-0.3503460">
        <ele>344.4</ele>
        <time>2018-05-01T09:02:13Z</time>
      </trkpt>
      <trkpt lat="39.6795460" lon="-0.3504740">
        <ele>345.6</ele>
        <time>2018-05-01T09:02:17Z</time>
      </trkpt>
      <trkpt lat="39.6795500" lon="-0.3505850">
        <ele>346.2</ele>
        <time>2018-05-01T09:02:21Z</time>
      </trkpt>
      <trkpt lat="39.6795640" lon="-0.3506760">
        <ele>346.6</ele>
        <time>2018-05-01T09:02:24Z</time>
      </trkpt>
      <trkpt lat="39.6795820" lon="-0.3508150">
        <ele>347.8</ele>
        <time>2018-05-01T09:02:28Z</time>
      </trkpt>
      <trkpt lat="39.6796060" lon="-0.3509280">
        <ele>348.6</ele>
        <time>2018-05-01T09:02:31Z</time>
      </trkpt>
      <trkpt lat="39.6796380" lon="-0.3510320">
        <ele>350.0</ele>
        <time>2018-05-01T09:02:34Z</time>
      </trkpt>
      <trkpt lat="39.6796580" lon="-0.3511830">
        <ele>351.0</ele>
        <time>2018-05-01T09:02:38Z</time>
      </trkpt>
      <trkpt lat="39.6796520" lon="-0.3513920">
        <ele>352.2</ele>
        <time>2018-05-01T09:02:44Z</time>
      </trkpt>
      <trkpt lat="39.6796370" lon="-0.3515850">
        <ele>353.6</ele>
        <time>2018-05-01T09:02:50Z</time>
      </trkpt>
      <trkpt lat="39.6796240" lon="-0.3517400">
        <ele>354.6</ele>
        <time>2018-05-01T09:02:54Z</time>
      </trkpt>
      <trkpt lat="39.6796340" lon="-0.3519000">
        <ele>355.8</ele>
        <time>2018-05-01T09:02:58Z</time>
      </trkpt>
      <trkpt lat="39.6795400" lon="-0.3522840">
        <ele>356.8</ele>
        <time>2018-05-01T09:03:09Z</time>
      </trkpt>
      <trkpt lat="39.6795290" lon="-0.3525090">
        <ele>358.0</ele>
        <time>2018-05-01T09:03:16Z</time>
      </trkpt>
      <trkpt lat="39.6795080" lon="-0.3526270">
        <ele>358.8</ele>
        <time>2018-05-01T09:03:20Z</time>
      </trkpt>
      <trkpt lat="39.6794680" lon="-0.3526550">
        <ele>359.2</ele>
        <time>2018-05-01T09:03:22Z</time>
      </trkpt>
      <trkpt lat="39.6794080" lon="-0.3527020">
        <ele>360.4</ele>
        <time>2018-05-01T09:03:25Z</time>
      </trkpt>
      <trkpt lat="39.6793650" lon="-0.3527430">
        <ele>361.2</ele>
        <time>2018-05-01T09:03:27Z</time>
      </trkpt>
      <trkpt lat="39.6793430" lon="-0.3527640">
        <ele>361.6</ele>
        <time>2018-05-01T09:03:28Z</time>
      </trkpt>
      <trkpt lat="39.6792850" lon="-0.3528650">
        <ele>362.2</ele>
        <time>2018-05-01T09:03:31Z</time>
      </trkpt>
      <trkpt lat="39.6791210" lon="-0.3531150">
        <ele>362.2</ele>
        <time>2018-05-01T09:03:35Z</time>
      </trkpt>
      <trkpt lat="39.6789470" lon="-0.3535360">
        <ele>360.6</ele>
        <time>2018-05-01T09:03:40Z</time>
      </trkpt>
      <trkpt lat="39.6789230" lon="-0.3536180">
        <ele>359.4</ele>
        <time>2018-05-01T09:03:41Z</time>
      </trkpt>
      <trkpt lat="39.6789010" lon="-0.3536970">
        <ele>358.0</ele>
        <time>2018-05-01T09:03:42Z</time>
      </trkpt>
      <trkpt lat="39.6788700" lon="-0.3538550">
        <ele>356.6</ele>
        <time>2018-05-01T09:03:44Z</time>
      </trkpt>
      <trkpt lat="39.6788810" lon="-0.3539980">
        <ele>355.4</ele>
        <time>2018-05-01T09:03:46Z</time>
      </trkpt>
      <trkpt lat="39.6788820" lon="-0.3541370">
        <ele>354.8</ele>
        <time>2018-05-01T09:03:49Z</time>
      </trkpt>
      <trkpt lat="39.6788740" lon="-0.3541730">
        <ele>354.8</ele>
        <time>2018-05-01T09:03:50Z</time>
      </trkpt>
      <trkpt lat="39.6788630" lon="-0.3543730">
        <ele>355.0</ele>
        <time>2018-05-01T09:03:56Z</time>
      </trkpt>
      <trkpt lat="39.6788500" lon="-0.3544630">
        <ele>356.4</ele>
        <time>2018-05-01T09:03:59Z</time>
      </trkpt>
      <trkpt lat="39.6788410" lon="-0.3545850">
        <ele>358.0</ele>
        <time>2018-05-01T09:04:03Z</time>
      </trkpt>
      <trkpt lat="39.6788410" lon="-0.3546500">
        <ele>358.6</ele>
        <time>2018-05-01T09:04:05Z</time>
      </trkpt>
      <trkpt lat="39.6788290" lon="-0.3547550">
        <ele>359.2</ele>
        <time>2018-05-01T09:04:08Z</time>
      </trkpt>
      <trkpt lat="39.6788350" lon="-0.3548540">
        <ele>360.2</ele>
        <time>2018-05-01T09:04:11Z</time>
      </trkpt>
      <trkpt lat="39.6788280" lon="-0.3549580">
        <ele>360.8</ele>
        <time>2018-05-01T09:04:14Z</time>
      </trkpt>
      <trkpt lat="39.6787890" lon="-0.3550030">
        <ele>361.2</ele>
        <time>2018-05-01T09:04:16Z</time>
      </trkpt>
      <trkpt lat="39.6786920" lon="-0.3550720">
        <ele>362.2</ele>
        <time>2018-05-01T09:04:21Z</time>
      </trkpt>
      <trkpt lat="39.6786580" lon="-0.3551180">
        <ele>362.4</ele>
        <time>2018-05-01T09:04:23Z</time>
      </trkpt>
      <trkpt lat="39.6785850" lon="-0.3552610">
        <ele>363.6</ele>
        <time>2018-05-01T09:04:29Z</time>
      </trkpt>
      <trkpt lat="39.6785340" lon="-0.3554260">
        <ele>364.8</ele>
        <time>2018-05-01T09:04:35Z</time>
      </trkpt>
      <trkpt lat="39.6785110" lon="-0.3555800">
        <ele>365.8</ele>
        <time>2018-05-01T09:04:40Z</time>
      </trkpt>
      <trkpt lat="39.6784880" lon="-0.3557630">
        <ele>367.0</ele>
        <time>2018-05-01T09:04:46Z</time>
      </trkpt>
      <trkpt lat="39.6784040" lon="-0.3560360">
        <ele>368.2</ele>
        <time>2018-05-01T09:04:56Z</time>
      </trkpt>
      <trkpt lat="39.6783740" lon="-0.3561200">
        <ele>368.6</ele>
        <time>2018-05-01T09:04:59Z</time>
      </trkpt>
      <trkpt lat="39.6783320" lon="-0.3562280">
        <ele>369.4</ele>
        <time>2018-05-01T09:05:03Z</time>
      </trkpt>
      <trkpt lat="39.6782730" lon="-0.3563650">
        <ele>370.4</ele>
        <time>2018-05-01T09:05:08Z</time>
      </trkpt>
      <trkpt lat="39.6782300" lon="-0.3565180">
        <ele>371.4</ele>
        <time>2018-05-01T09:05:13Z</time>
      </trkpt>
      <trkpt lat="39.6781840" lon="-0.3566820">
        <ele>372.6</ele>
        <time>2018-05-01T09:05:18Z</time>
      </trkpt>
      <trkpt lat="39.6781070" lon="-0.3569060">
        <ele>373.8</ele>
        <time>2018-05-01T09:05:25Z</time>
      </trkpt>
      <trkpt lat="39.6780130" lon="-0.3571540">
        <ele>375.0</ele>
        <time>2018-05-01T09:05:33Z</time>
      </trkpt>
      <trkpt lat="39.6778630" lon="-0.3574720">
        <ele>376.4</ele>
        <time>2018-05-01T09:05:44Z</time>
      </trkpt>
      <trkpt lat="39.6777810" lon="-0.3576210">
        <ele>377.2</ele>
        <time>2018-05-01T09:05:49Z</time>
      </trkpt>
      <trkpt lat="39.6777640" lon="-0.3576550">
        <ele>377.4</ele>
        <time>2018-05-01T09:05:50Z</time>
      </trkpt>
      <trkpt lat="39.6776650" lon="-0.3578660">
        <ele>377.8</ele>
        <time>2018-05-01T09:05:55Z</time>
      </trkpt>
      <trkpt lat="39.6775730" lon="-0.3580750">
        <ele>378.0</ele>
        <time>2018-05-01T09:06:00Z</time>
      </trkpt>
      <trkpt lat="39.6775470" lon="-0.3583220">
        <ele>378.0</ele>
        <time>2018-05-01T09:06:06Z</time>
      </trkpt>
      <trkpt lat="39.6775330" lon="-0.3584320">
        <ele>378.0</ele>
        <time>2018-05-01T09:06:09Z</time>
      </trkpt>
      <trkpt lat="39.6775180" lon="-0.3586890">
        <ele>378.4</ele>
        <time>2018-05-01T09:06:16Z</time>
      </trkpt>
      <trkpt lat="39.6775060" lon="-0.3587960">
        <ele>379.2</ele>
        <time>2018-05-01T09:06:19Z</time>
      </trkpt>
      <trkpt lat="39.6775010" lon="-0.3588320">
        <ele>379.4</ele>
        <time>2018-05-01T09:06:20Z</time>
      </trkpt>
      <trkpt lat="39.6774890" lon="-0.3589360">
        <ele>380.2</ele>
        <time>2018-05-01T09:06:23Z</time>
      </trkpt>
      <trkpt lat="39.6774830" lon="-0.3589690">
        <ele>380.6</ele>
        <time>2018-05-01T09:06:24Z</time>
      </trkpt>
      <trkpt lat="39.6774540" lon="-0.3591260">
        <ele>381.8</ele>
        <time>2018-05-01T09:06:28Z</time>
      </trkpt>
      <trkpt lat="39.6773510" lon="-0.3593170">
        <ele>383.0</ele>
        <time>2018-05-01T09:06:33Z</time>
      </trkpt>
      <trkpt lat="39.6770460" lon="-0.3596830">
        <ele>383.4</ele>
        <time>2018-05-01T09:06:43Z</time>
      </trkpt>
      <trkpt lat="39.6770130" lon="-0.3597230">
        <ele>383.4</ele>
        <time>2018-05-01T09:06:44Z</time>
      </trkpt>
      <trkpt lat="39.6768810" lon="-0.3598980">
        <ele>383.0</ele>
        <time>2018-05-01T09:06:48Z</time>
      </trkpt>
      <trkpt lat="39.6767970" lon="-0.3600520">
        <ele>382.8</ele>
        <time>2018-05-01T09:06:51Z</time>
      </trkpt>
      <trkpt lat="39.6767680" lon="-0.3602110">
        <ele>382.4</ele>
        <time>2018-05-01T09:06:54Z</time>
      </trkpt>
      <trkpt lat="39.6768360" lon="-0.3604240">
        <ele>382.2</ele>
        <time>2018-05-01T09:07:00Z</time>
      </trkpt>
      <trkpt lat="39.6768660" lon="-0.3604840">
        <ele>382.2</ele>
        <time>2018-05-01T09:07:02Z</time>
      </trkpt>
      <trkpt lat="39.6769020" lon="-0.3605400">
        <ele>382.4</ele>
        <time>2018-05-01T09:07:04Z</time>
      </trkpt>
      <trkpt lat="39.6769350" lon="-0.3606050">
        <ele>383.2</ele>
        <time>2018-05-01T09:07:06Z</time>
      </trkpt>
      <trkpt lat="39.6769760" lon="-0.3606710">
        <ele>384.0</ele>
        <time>2018-05-01T09:07:08Z</time>
      </trkpt>
      <trkpt lat="39.6769960" lon="-0.3607060">
        <ele>384.6</ele>
        <time>2018-05-01T09:07:09Z</time>
      </trkpt>
      <trkpt lat="39.6770360" lon="-0.3607720">
        <ele>385.4</ele>
        <time>2018-05-01T09:07:11Z</time>
      </trkpt>
      <trkpt lat="39.6770600" lon="-0.3607960">
        <ele>386.0</ele>
        <time>2018-05-01T09:07:12Z</time>
      </trkpt>
      <trkpt lat="39.6771300" lon="-0.3608830">
        <ele>387.2</ele>
        <time>2018-05-01T09:07:15Z</time>
      </trkpt>
      <trkpt lat="39.6771880" lon="-0.3609560">
        <ele>388.2</ele>
        <time>2018-05-01T09:07:18Z</time>
      </trkpt>
      <trkpt lat="39.6772330" lon="-0.3610060">
        <ele>389.8</ele>
        <time>2018-05-01T09:07:20Z</time>
      </trkpt>
      <trkpt lat="39.6773110" lon="-0.3610750">
        <ele>391.0</ele>
        <time>2018-05-01T09:07:23Z</time>
      </trkpt>
      <trkpt lat="39.6774350" lon="-0.3611640">
        <ele>392.0</ele>
        <time>2018-05-01T09:07:27Z</time>
      </trkpt>
      <trkpt lat="39.6776320" lon="-0.3612410">
        <ele>392.2</ele>
        <time>2018-05-01T09:07:31Z</time>
      </trkpt>
      <trkpt lat="39.6777690" lon="-0.3612500">
        <ele>392.2</ele>
        <time>2018-05-01T09:07:34Z</time>
      </trkpt>
      <trkpt lat="39.6778910" lon="-0.3612370">
        <ele>391.0</ele>
        <time>2018-05-01T09:07:37Z</time>
      </trkpt>
      <trkpt lat="39.6779340" lon="-0.3612200">
        <ele>390.8</ele>
        <time>2018-05-01T09:07:38Z</time>
      </trkpt>
      <trkpt lat="39.6780210" lon="-0.3611950">
        <ele>390.6</ele>
        <time>2018-05-01T09:07:40Z</time>
      </trkpt>
      <trkpt lat="39.6781270" lon="-0.3611750">
        <ele>390.2</ele>
        <time>2018-05-01T09:07:42Z</time>
      </trkpt>
      <trkpt lat="39.6781900" lon="-0.3611600">
        <ele>390.2</ele>
        <time>2018-05-01T09:07:43Z</time>
      </trkpt>
      <trkpt lat="39.6782540" lon="-0.3611580">
        <ele>390.0</ele>
        <time>2018-05-01T09:07:44Z</time>
      </trkpt>
      <trkpt lat="39.6783070" lon="-0.3611850">
        <ele>389.8</ele>
        <time>2018-05-01T09:07:45Z</time>
      </trkpt>
      <trkpt lat="39.6783920" lon="-0.3612790">
        <ele>389.6</ele>
        <time>2018-05-01T09:07:47Z</time>
      </trkpt>
      <trkpt lat="39.6784350" lon="-0.3614110">
        <ele>389.6</ele>
        <time>2018-05-01T09:07:49Z</time>
      </trkpt>
      <trkpt lat="39.6784410" lon="-0.3615550">
        <ele>388.8</ele>
        <time>2018-05-01T09:07:51Z</time>
      </trkpt>
      <trkpt lat="39.6784440" lon="-0.3616900">
        <ele>387.8</ele>
        <time>2018-05-01T09:07:53Z</time>
      </trkpt>
      <trkpt lat="39.6784440" lon="-0.3617480">
        <ele>387.6</ele>
        <time>2018-05-01T09:07:54Z</time>
      </trkpt>
      <trkpt lat="39.6784360" lon="-0.3619630">
        <ele>387.0</ele>
        <time>2018-05-01T09:07:58Z</time>
      </trkpt>
      <trkpt lat="39.6784380" lon="-0.3620780">
        <ele>386.8</ele>
        <time>2018-05-01T09:08:00Z</time>
      </trkpt>
      <trkpt lat="39.6784490" lon="-0.3621320">
        <ele>386.6</ele>
        <time>2018-05-01T09:08:01Z</time>
      </trkpt>
      <trkpt lat="39.6784760" lon="-0.3622520">
        <ele>386.4</ele>
        <time>2018-05-01T09:08:03Z</time>
      </trkpt>
      <trkpt lat="39.6784930" lon="-0.3623110">
        <ele>386.4</ele>
        <time>2018-05-01T09:08:04Z</time>
      </trkpt>
      <trkpt lat="39.6785590" lon="-0.3624880">
        <ele>386.2</ele>
        <time>2018-05-01T09:08:07Z</time>
      </trkpt>
      <trkpt lat="39.6786210" lon="-0.3626850">
        <ele>386.0</ele>
        <time>2018-05-01T09:08:10Z</time>
      </trkpt>
      <trkpt lat="39.6785510" lon="-0.3628850">
        <ele>385.2</ele>
        <time>2018-05-01T09:08:14Z</time>
      </trkpt>
      <trkpt lat="39.6784280" lon="-0.3628920">
        <ele>384.4</ele>
        <time>2018-05-01T09:08:17Z</time>
      </trkpt>
      <trkpt lat="39.6783350" lon="-0.3629010">
        <ele>384.0</ele>
        <time>2018-05-01T09:08:19Z</time>
      </trkpt>
      <trkpt lat="39.6781160" lon="-0.3629470">
        <ele>383.4</ele>
        <time>2018-05-01T09:08:23Z</time>
      </trkpt>
      <trkpt lat="39.6779480" lon="-0.3630340">
        <ele>382.8</ele>
        <time>2018-05-01T09:08:26Z</time>
      </trkpt>
      <trkpt lat="39.6778380" lon="-0.3630990">
        <ele>382.6</ele>
        <time>2018-05-01T09:08:28Z</time>
      </trkpt>
      <trkpt lat="39.6776000" lon="-0.3631610">
        <ele>381.8</ele>
        <time>2018-05-01T09:08:32Z</time>
      </trkpt>
      <trkpt lat="39.6774990" lon="-0.3631490">
        <ele>381.4</ele>
        <time>2018-05-01T09:08:34Z</time>
      </trkpt>
      <trkpt lat="39.6773510" lon="-0.3631260">
        <ele>380.6</ele>
        <time>2018-05-01T09:08:37Z</time>
      </trkpt>
      <trkpt lat="39.6772990" lon="-0.3631220">
        <ele>380.6</ele>
        <time>2018-05-01T09:08:38Z</time>
      </trkpt>
      <trkpt lat="39.6771950" lon="-0.3631230">
        <ele>380.4</ele>
        <time>2018-05-01T09:08:40Z</time>
      </trkpt>
      <trkpt lat="39.6771430" lon="-0.3631300">
        <ele>380.2</ele>
        <time>2018-05-01T09:08:41Z</time>
      </trkpt>
      <trkpt lat="39.6770890" lon="-0.3631420">
        <ele>380.2</ele>
        <time>2018-05-01T09:08:42Z</time>
      </trkpt>
      <trkpt lat="39.6769850" lon="-0.3631870">
        <ele>379.8</ele>
        <time>2018-05-01T09:08:44Z</time>
      </trkpt>
      <trkpt lat="39.6768240" lon="-0.3632980">
        <ele>379.4</ele>
        <time>2018-05-01T09:08:47Z</time>
      </trkpt>
      <trkpt lat="39.6766750" lon="-0.3634370">
        <ele>379.2</ele>
        <time>2018-05-01T09:08:50Z</time>
      </trkpt>
      <trkpt lat="39.6765390" lon="-0.3636210">
        <ele>378.2</ele>
        <time>2018-05-01T09:08:55Z</time>
      </trkpt>
      <trkpt lat="39.6764990" lon="-0.3636890">
        <ele>377.0</ele>
        <time>2018-05-01T09:08:57Z</time>
      </trkpt>
      <trkpt lat="39.6764930" lon="-0.3637220">
        <ele>376.6</ele>
        <time>2018-05-01T09:08:58Z</time>
      </trkpt>
      <trkpt lat="39.6765110" lon="-0.3637550">
        <ele>375.4</ele>
        <time>2018-05-01T09:09:00Z</time>
      </trkpt>
      <trkpt lat="39.6765310" lon="-0.3637480">
        <ele>375.0</ele>
        <time>2018-05-01T09:09:02Z</time>
      </trkpt>
      <trkpt lat="39.6766230" lon="-0.3637080">
        <ele>374.8</ele>
        <time>2018-05-01T09:09:14Z</time>
      </trkpt>
      <trkpt lat="39.6770130" lon="-0.3638650">
        <ele>374.4</ele>
        <time>2018-05-01T09:09:25Z</time>
      </trkpt>
      <trkpt lat="39.6772140" lon="-0.3639190">
        <ele>373.2</ele>
        <time>2018-05-01T09:09:29Z</time>
      </trkpt>
      <trkpt lat="39.6772700" lon="-0.3639370">
        <ele>372.8</ele>
        <time>2018-05-01T09:09:30Z</time>
      </trkpt>
      <trkpt lat="39.6774200" lon="-0.3639590">
        <ele>372.0</ele>
        <time>2018-05-01T09:09:33Z</time>
      </trkpt>
      <trkpt lat="39.6774690" lon="-0.3639600">
        <ele>370.8</ele>
        <time>2018-05-01T09:09:34Z</time>
      </trkpt>
      <trkpt lat="39.6775590" lon="-0.3639780">
        <ele>369.6</ele>
        <time>2018-05-01T09:09:36Z</time>
      </trkpt>
      <trkpt lat="39.6776050" lon="-0.3639920">
        <ele>368.8</ele>
        <time>2018-05-01T09:09:37Z</time>
      </trkpt>
      <trkpt lat="39.6776490" lon="-0.3640070">
        <ele>368.2</ele>
        <time>2018-05-01T09:09:38Z</time>
      </trkpt>
      <trkpt lat="39.6777200" lon="-0.3640290">
        <ele>366.6</ele>
        <time>2018-05-01T09:09:40Z</time>
      </trkpt>
      <trkpt lat="39.6777930" lon="-0.3640390">
        <ele>365.2</ele>
        <time>2018-05-01T09:09:42Z</time>
      </trkpt>
      <trkpt lat="39.6778280" lon="-0.3640380">
        <ele>364.4</ele>
        <time>2018-05-01T09:09:43Z</time>
      </trkpt>
      <trkpt lat="39.6778670" lon="-0.3640420">
        <ele>363.2</ele>
        <time>2018-05-01T09:09:44Z</time>
      </trkpt>
      <trkpt lat="39.6779650" lon="-0.3640560">
        <ele>361.8</ele>
        <time>2018-05-01T09:09:46Z</time>
      </trkpt>
      <trkpt lat="39.6780090" lon="-0.3640560">
        <ele>361.2</ele>
        <time>2018-05-01T09:09:47Z</time>
      </trkpt>
      <trkpt lat="39.6780580" lon="-0.3640580">
        <ele>360.4</ele>
        <time>2018-05-01T09:09:48Z</time>
      </trkpt>
      <trkpt lat="39.6781660" lon="-0.3640570">
        <ele>359.0</ele>
        <time>2018-05-01T09:09:50Z</time>
      </trkpt>
      <trkpt lat="39.6782130" lon="-0.3640530">
        <ele>358.0</ele>
        <time>2018-05-01T09:09:51Z</time>
      </trkpt>
      <trkpt lat="39.6783160" lon="-0.3640460">
        <ele>356.6</ele>
        <time>2018-05-01T09:09:53Z</time>
      </trkpt>
      <trkpt lat="39.6784310" lon="-0.3640590">
        <ele>354.4</ele>
        <time>2018-05-01T09:09:55Z</time>
      </trkpt>
      <trkpt lat="39.6784840" lon="-0.3640620">
        <ele>352.8</ele>
        <time>2018-05-01T09:09:56Z</time>
      </trkpt>
      <trkpt lat="39.6785310" lon="-0.3640750">
        <ele>351.8</ele>
        <time>2018-05-01T09:09:57Z</time>
      </trkpt>
      <trkpt lat="39.6786170" lon="-0.3641040">
        <ele>349.8</ele>
        <time>2018-05-01T09:09:59Z</time>
      </trkpt>
      <trkpt lat="39.6786620" lon="-0.3641210">
        <ele>348.2</ele>
        <time>2018-05-01T09:10:00Z</time>
      </trkpt>
      <trkpt lat="39.6787100" lon="-0.3641460">
        <ele>346.6</ele>
        <time>2018-05-01T09:10:01Z</time>
      </trkpt>
      <trkpt lat="39.6787590" lon="-0.3641710">
        <ele>345.2</ele>
        <time>2018-05-01T09:10:02Z</time>
      </trkpt>
      <trkpt lat="39.6788040" lon="-0.3642030">
        <ele>344.4</ele>
        <time>2018-05-01T09:10:03Z</time>
      </trkpt>
      <trkpt lat="39.6788470" lon="-0.3642410">
        <ele>344.0</ele>
        <time>2018-05-01T09:10:04Z</time>
      </trkpt>
      <trkpt lat="39.6789180" lon="-0.3643250">
        <ele>342.8</ele>
        <time>2018-05-01T09:10:06Z</time>
      </trkpt>
      <trkpt lat="39.6789650" lon="-0.3644050">
        <ele>339.6</ele>
        <time>2018-05-01T09:10:08Z</time>
      </trkpt>
      <trkpt lat="39.6790010" lon="-0.3644670">
        <ele>337.6</ele>
        <time>2018-05-01T09:10:10Z</time>
      </trkpt>
      <trkpt lat="39.6790200" lon="-0.3644950">
        <ele>336.8</ele>
        <time>2018-05-01T09:10:11Z</time>
      </trkpt>
      <trkpt lat="39.6790560" lon="-0.3645280">
        <ele>336.0</ele>
        <time>2018-05-01T09:10:12Z</time>
      </trkpt>
      <trkpt lat="39.6791270" lon="-0.3646040">
        <ele>334.2</ele>
        <time>2018-05-01T09:10:14Z</time>
      </trkpt>
      <trkpt lat="39.6791600" lon="-0.3646420">
        <ele>333.0</ele>
        <time>2018-05-01T09:10:15Z</time>
      </trkpt>
      <trkpt lat="39.6792320" lon="-0.3647170">
        <ele>331.6</ele>
        <time>2018-05-01T09:10:17Z</time>
      </trkpt>
      <trkpt lat="39.6792690" lon="-0.3647660">
        <ele>331.2</ele>
        <time>2018-05-01T09:10:18Z</time>
      </trkpt>
      <trkpt lat="39.6793070" lon="-0.3648150">
        <ele>330.2</ele>
        <time>2018-05-01T09:10:19Z</time>
      </trkpt>
      <trkpt lat="39.6793460" lon="-0.3648590">
        <ele>329.0</ele>
        <time>2018-05-01T09:10:20Z</time>
      </trkpt>
      <trkpt lat="39.6793850" lon="-0.3649020">
        <ele>328.0</ele>
        <time>2018-05-01T09:10:21Z</time>
      </trkpt>
      <trkpt lat="39.6794220" lon="-0.3649360">
        <ele>326.6</ele>
        <time>2018-05-01T09:10:22Z</time>
      </trkpt>
      <trkpt lat="39.6794940" lon="-0.3649930">
        <ele>324.8</ele>
        <time>2018-05-01T09:10:24Z</time>
      </trkpt>
      <trkpt lat="39.6795300" lon="-0.3650270">
        <ele>323.4</ele>
        <time>2018-05-01T09:10:25Z</time>
      </trkpt>
      <trkpt lat="39.6795670" lon="-0.3650590">
        <ele>322.2</ele>
        <time>2018-05-01T09:10:26Z</time>
      </trkpt>
      <trkpt lat="39.6796590" lon="-0.3651200">
        <ele>320.6</ele>
        <time>2018-05-01T09:10:28Z</time>
      </trkpt>
      <trkpt lat="39.6797520" lon="-0.3651740">
        <ele>319.2</ele>
        <time>2018-05-01T09:10:30Z</time>
      </trkpt>
      <trkpt lat="39.6798350" lon="-0.3651940">
        <ele>317.8</ele>
        <time>2018-05-01T09:10:32Z</time>
      </trkpt>
      <trkpt lat="39.6798650" lon="-0.3651800">
        <ele>317.0</ele>
        <time>2018-05-01T09:10:33Z</time>
      </trkpt>
      <trkpt lat="39.6798890" lon="-0.3651660">
        <ele>316.2</ele>
        <time>2018-05-01T09:10:34Z</time>
      </trkpt>
      <trkpt lat="39.6799260" lon="-0.3651640">
        <ele>314.6</ele>
        <time>2018-05-01T09:10:36Z</time>
      </trkpt>
      <trkpt lat="39.6799940" lon="-0.3651620">
        <ele>313.0</ele>
        <time>2018-05-01T09:10:38Z</time>
      </trkpt>
      <trkpt lat="39.6800220" lon="-0.3651510">
        <ele>312.2</ele>
        <time>2018-05-01T09:10:39Z</time>
      </trkpt>
      <trkpt lat="39.6800470" lon="-0.3651220">
        <ele>311.4</ele>
        <time>2018-05-01T09:10:40Z</time>
      </trkpt>
      <trkpt lat="39.6800720" lon="-0.3650990">
        <ele>310.2</ele>
        <time>2018-05-01T09:10:41Z</time>
      </trkpt>
      <trkpt lat="39.6801300" lon="-0.3650620">
        <ele>309.2</ele>
        <time>2018-05-01T09:10:43Z</time>
      </trkpt>
      <trkpt lat="39.6802030" lon="-0.3650080">
        <ele>307.6</ele>
        <time>2018-05-01T09:10:45Z</time>
      </trkpt>
      <trkpt lat="39.6802460" lon="-0.3649790">
        <ele>307.0</ele>
        <time>2018-05-01T09:10:46Z</time>
      </trkpt>
      <trkpt lat="39.6802790" lon="-0.3649510">
        <ele>306.4</ele>
        <time>2018-05-01T09:10:47Z</time>
      </trkpt>
      <trkpt lat="39.6803750" lon="-0.3648520">
        <ele>304.8</ele>
        <time>2018-05-01T09:10:50Z</time>
      </trkpt>
      <trkpt lat="39.6804230" lon="-0.3647880">
        <ele>303.0</ele>
        <time>2018-05-01T09:10:52Z</time>
      </trkpt>
      <trkpt lat="39.6804820" lon="-0.3647480">
        <ele>301.4</ele>
        <time>2018-05-01T09:10:54Z</time>
      </trkpt>
      <trkpt lat="39.6805420" lon="-0.3647190">
        <ele>300.2</ele>
        <time>2018-05-01T09:10:56Z</time>
      </trkpt>
      <trkpt lat="39.6806140" lon="-0.3646770">
        <ele>299.0</ele>
        <time>2018-05-01T09:10:58Z</time>
      </trkpt>
      <trkpt lat="39.6806840" lon="-0.3646380">
        <ele>297.4</ele>
        <time>2018-05-01T09:11:00Z</time>
      </trkpt>
      <trkpt lat="39.6807150" lon="-0.3646230">
        <ele>296.2</ele>
        <time>2018-05-01T09:11:01Z</time>
      </trkpt>
      <trkpt lat="39.6807820" lon="-0.3645960">
        <ele>294.6</ele>
        <time>2018-05-01T09:11:03Z</time>
      </trkpt>
      <trkpt lat="39.6808110" lon="-0.3645840">
        <ele>294.0</ele>
        <time>2018-05-01T09:11:04Z</time>
      </trkpt>
      <trkpt lat="39.6808440" lon="-0.3645810">
        <ele>293.2</ele>
        <time>2018-05-01T09:11:05Z</time>
      </trkpt>
      <trkpt lat="39.6808680" lon="-0.3645740">
        <ele>292.0</ele>
        <time>2018-05-01T09:11:06Z</time>
      </trkpt>
      <trkpt lat="39.6809080" lon="-0.3645520">
        <ele>290.6</ele>
        <time>2018-05-01T09:11:08Z</time>
      </trkpt>
      <trkpt lat="39.6809690" lon="-0.3645540">
        <ele>289.0</ele>
        <time>2018-05-01T09:11:10Z</time>
      </trkpt>
      <trkpt lat="39.6810290" lon="-0.3645700">
        <ele>287.6</ele>
        <time>2018-05-01T09:11:12Z</time>
      </trkpt>
      <trkpt lat="39.6810800" lon="-0.3645740">
        <ele>286.2</ele>
        <time>2018-05-01T09:11:14Z</time>
      </trkpt>
      <trkpt lat="39.6811280" lon="-0.3645630">
        <ele>285.0</ele>
        <time>2018-05-01T09:11:16Z</time>
      </trkpt>
      <trkpt lat="39.6811690" lon="-0.3645530">
        <ele>283.8</ele>
        <time>2018-05-01T09:11:18Z</time>
      </trkpt>
      <trkpt lat="39.6812680" lon="-0.3645690">
        <ele>282.6</ele>
        <time>2018-05-01T09:11:21Z</time>
      </trkpt>
      <trkpt lat="39.6813810" lon="-0.3646020">
        <ele>281.6</ele>
        <time>2018-05-01T09:11:24Z</time>
      </trkpt>
      <trkpt lat="39.6814160" lon="-0.3646090">
        <ele>281.2</ele>
        <time>2018-05-01T09:11:25Z</time>
      </trkpt>
      <trkpt lat="39.6814490" lon="-0.3646080">
        <ele>280.4</ele>
        <time>2018-05-01T09:11:26Z</time>
      </trkpt>
      <trkpt lat="39.6815540" lon="-0.3645770">
        <ele>278.8</ele>
        <time>2018-05-01T09:11:29Z</time>
      </trkpt>
      <trkpt lat="39.6816100" lon="-0.3645040">
        <ele>277.6</ele>
        <time>2018-05-01T09:11:31Z</time>
      </trkpt>
      <trkpt lat="39.6816880" lon="-0.3644340">
        <ele>276.4</ele>
        <time>2018-05-01T09:11:34Z</time>
      </trkpt>
      <trkpt lat="39.6817360" lon="-0.3643870">
        <ele>275.4</ele>
        <time>2018-05-01T09:11:36Z</time>
      </trkpt>
      <trkpt lat="39.6817590" lon="-0.3643550">
        <ele>275.0</ele>
        <time>2018-05-01T09:11:37Z</time>
      </trkpt>
      <trkpt lat="39.6818060" lon="-0.3642910">
        <ele>274.4</ele>
        <time>2018-05-01T09:11:39Z</time>
      </trkpt>
      <trkpt lat="39.6818630" lon="-0.3642110">
        <ele>272.8</ele>
        <time>2018-05-01T09:11:42Z</time>
      </trkpt>
      <trkpt lat="39.6819110" lon="-0.3641570">
        <ele>271.6</ele>
        <time>2018-05-01T09:11:44Z</time>
      </trkpt>
      <trkpt lat="39.6819590" lon="-0.3640880">
        <ele>270.0</ele>
        <time>2018-05-01T09:11:46Z</time>
      </trkpt>
      <trkpt lat="39.6819850" lon="-0.3640170">
        <ele>268.8</ele>
        <time>2018-05-01T09:11:48Z</time>
      </trkpt>
      <trkpt lat="39.6820360" lon="-0.3639290">
        <ele>267.0</ele>
        <time>2018-05-01T09:11:51Z</time>
      </trkpt>
      <trkpt lat="39.6820750" lon="-0.3638710">
        <ele>265.6</ele>
        <time>2018-05-01T09:11:53Z</time>
      </trkpt>
      <trkpt lat="39.6821010" lon="-0.3638330">
        <ele>265.0</ele>
        <time>2018-05-01T09:11:55Z</time>
      </trkpt>
      <trkpt lat="39.6821150" lon="-0.3638110">
        <ele>264.4</ele>
        <time>2018-05-01T09:11:56Z</time>
      </trkpt>
      <trkpt lat="39.6821340" lon="-0.3637620">
        <ele>263.0</ele>
        <time>2018-05-01T09:11:58Z</time>
      </trkpt>
      <trkpt lat="39.6821640" lon="-0.3637190">
        <ele>262.0</ele>
        <time>2018-05-01T09:12:00Z</time>
      </trkpt>
      <trkpt lat="39.6821790" lon="-0.3636930">
        <ele>261.6</ele>
        <time>2018-05-01T09:12:01Z</time>
      </trkpt>
      <trkpt lat="39.6822220" lon="-0.3636260">
        <ele>260.6</ele>
        <time>2018-05-01T09:12:04Z</time>
      </trkpt>
      <trkpt lat="39.6822630" lon="-0.3635450">
        <ele>259.2</ele>
        <time>2018-05-01T09:12:07Z</time>
      </trkpt>
      <trkpt lat="39.6822980" lon="-0.3634450">
        <ele>257.8</ele>
        <time>2018-05-01T09:12:10Z</time>
      </trkpt>
      <trkpt lat="39.6822960" lon="-0.3634070">
        <ele>257.4</ele>
        <time>2018-05-01T09:12:11Z</time>
      </trkpt>
      <trkpt lat="39.6822920" lon="-0.3633310">
        <ele>256.8</ele>
        <time>2018-05-01T09:12:13Z</time>
      </trkpt>
      <trkpt lat="39.6823190" lon="-0.3632320">
        <ele>255.4</ele>
        <time>2018-05-01T09:12:16Z</time>
      </trkpt>
      <trkpt lat="39.6824080" lon="-0.3631290">
        <ele>253.8</ele>
        <time>2018-05-01T09:12:20Z</time>
      </trkpt>
      <trkpt lat="39.6824620" lon="-0.3630650">
        <ele>252.6</ele>
        <time>2018-05-01T09:12:23Z</time>
      </trkpt>
      <trkpt lat="39.6825310" lon="-0.3630000">
        <ele>251.4</ele>
        <time>2018-05-01T09:12:26Z</time>
      </trkpt>
      <trkpt lat="39.6826150" lon="-0.3629110">
        <ele>250.4</ele>
        <time>2018-05-01T09:12:29Z</time>
      </trkpt>
      <trkpt lat="39.6826900" lon="-0.3627900">
        <ele>249.2</ele>
        <time>2018-05-01T09:12:32Z</time>
      </trkpt>
      <trkpt lat="39.6827170" lon="-0.3627050">
        <ele>247.4</ele>
        <time>2018-05-01T09:12:34Z</time>
      </trkpt>
      <trkpt lat="39.6827280" lon="-0.3626360">
        <ele>246.0</ele>
        <time>2018-05-01T09:12:36Z</time>
      </trkpt>
      <trkpt lat="39.6827200" lon="-0.3626010">
        <ele>244.8</ele>
        <time>2018-05-01T09:12:38Z</time>
      </trkpt>
      <trkpt lat="39.6827150" lon="-0.3625950">
        <ele>244.2</ele>
        <time>2018-05-01T09:12:39Z</time>
      </trkpt>
      <trkpt lat="39.6826510" lon="-0.3624740">
        <ele>240.2</ele>
        <time>2018-05-01T09:12:56Z</time>
      </trkpt>
      <trkpt lat="39.6826460" lon="-0.3624360">
        <ele>239.2</ele>
        <time>2018-05-01T09:12:58Z</time>
      </trkpt>
      <trkpt lat="39.6826460" lon="-0.3624120">
        <ele>239.2</ele>
        <time>2018-05-01T09:12:59Z</time>
      </trkpt>
      <trkpt lat="39.6827270" lon="-0.3623090">
        <ele>238.0</ele>
        <time>2018-05-01T09:13:04Z</time>
      </trkpt>
      <trkpt lat="39.6828070" lon="-0.3622470">
        <ele>237.0</ele>
        <time>2018-05-01T09:13:07Z</time>
      </trkpt>
      <trkpt lat="39.6828530" lon="-0.3622250">
        <ele>235.6</ele>
        <time>2018-05-01T09:13:09Z</time>
      </trkpt>
      <trkpt lat="39.6829000" lon="-0.3622020">
        <ele>233.2</ele>
        <time>2018-05-01T09:13:11Z</time>
      </trkpt>
      <trkpt lat="39.6829470" lon="-0.3621770">
        <ele>232.0</ele>
        <time>2018-05-01T09:13:13Z</time>
      </trkpt>
      <trkpt lat="39.6833850" lon="-0.3617540">
        <ele>231.8</ele>
        <time>2018-05-01T09:13:29Z</time>
      </trkpt>
      <trkpt lat="39.6835800" lon="-0.3615120">
        <ele>232.2</ele>
        <time>2018-05-01T09:13:36Z</time>
      </trkpt>
      <trkpt lat="39.6838490" lon="-0.3611650">
        <ele>232.0</ele>
        <time>2018-05-01T09:13:44Z</time>
      </trkpt>
      <trkpt lat="39.6842200" lon="-0.3610520">
        <ele>231.2</ele>
        <time>2018-05-01T09:13:51Z</time>
      </trkpt>
      <trkpt lat="39.6843450" lon="-0.3608430">
        <ele>230.4</ele>
        <time>2018-05-01T09:13:56Z</time>
      </trkpt>
      <trkpt lat="39.6843610" lon="-0.3607970">
        <ele>230.0</ele>
        <time>2018-05-01T09:13:57Z</time>
      </trkpt>
      <trkpt lat="39.6843930" lon="-0.3607120">
        <ele>229.8</ele>
        <time>2018-05-01T09:13:59Z</time>
      </trkpt>
      <trkpt lat="39.6844230" lon="-0.3606710">
        <ele>229.6</ele>
        <time>2018-05-01T09:14:00Z</time>
      </trkpt>
      <trkpt lat="39.6845050" lon="-0.3605520">
        <ele>229.2</ele>
        <time>2018-05-01T09:14:03Z</time>
      </trkpt>
      <trkpt lat="39.6845240" lon="-0.3604840">
        <ele>228.8</ele>
        <time>2018-05-01T09:14:04Z</time>
      </trkpt>
      <trkpt lat="39.6845730" lon="-0.3603290">
        <ele>227.2</ele>
        <time>2018-05-01T09:14:07Z</time>
      </trkpt>
      <trkpt lat="39.6845830" lon="-0.3603070">
        <ele>225.4</ele>
        <time>2018-05-01T09:14:09Z</time>
      </trkpt>
      <trkpt lat="39.6845720" lon="-0.3602520">
        <ele>220.8</ele>
        <time>2018-05-01T09:21:35Z</time>
      </trkpt>
      <trkpt lat="39.6847000" lon="-0.3599720">
        <ele>220.4</ele>
        <time>2018-05-01T09:21:41Z</time>
      </trkpt>
      <trkpt lat="39.6847530" lon="-0.3598580">
        <ele>219.6</ele>
        <time>2018-05-01T09:21:43Z</time>
      </trkpt>
      <trkpt lat="39.6848730" lon="-0.3597120">
        <ele>218.6</ele>
        <time>2018-05-01T09:21:46Z</time>
      </trkpt>
      <trkpt lat="39.6849130" lon="-0.3596550">
        <ele>218.4</ele>
        <time>2018-05-01T09:21:47Z</time>
      </trkpt>
      <trkpt lat="39.6849860" lon="-0.3595380">
        <ele>217.6</ele>
        <time>2018-05-01T09:21:49Z</time>
      </trkpt>
      <trkpt lat="39.6850160" lon="-0.3594940">
        <ele>217.2</ele>
        <time>2018-05-01T09:21:50Z</time>
      </trkpt>
      <trkpt lat="39.6850960" lon="-0.3593590">
        <ele>215.8</ele>
        <time>2018-05-01T09:21:53Z</time>
      </trkpt>
      <trkpt lat="39.6851380" lon="-0.3592720">
        <ele>214.0</ele>
        <time>2018-05-01T09:21:55Z</time>
      </trkpt>
      <trkpt lat="39.6852080" lon="-0.3592520">
        <ele>212.2</ele>
        <time>2018-05-01T09:21:57Z</time>
      </trkpt>
      <trkpt lat="39.6852740" lon="-0.3592980">
        <ele>210.8</ele>
        <time>2018-05-01T09:21:59Z</time>
      </trkpt>
      <trkpt lat="39.6853210" lon="-0.3593620">
        <ele>209.6</ele>
        <time>2018-05-01T09:22:01Z</time>
      </trkpt>
      <trkpt lat="39.6853480" lon="-0.3593960">
        <ele>209.2</ele>
        <time>2018-05-01T09:22:02Z</time>
      </trkpt>
      <trkpt lat="39.6854060" lon="-0.3594660">
        <ele>207.2</ele>
        <time>2018-05-01T09:22:04Z</time>
      </trkpt>
      <trkpt lat="39.6854360" lon="-0.3594970">
        <ele>206.2</ele>
        <time>2018-05-01T09:22:05Z</time>
      </trkpt>
      <trkpt lat="39.6854690" lon="-0.3595200">
        <ele>205.0</ele>
        <time>2018-05-01T09:22:06Z</time>
      </trkpt>
      <trkpt lat="39.6855400" lon="-0.3595380">
        <ele>203.6</ele>
        <time>2018-05-01T09:22:08Z</time>
      </trkpt>
      <trkpt lat="39.6855870" lon="-0.3595420">
        <ele>202.4</ele>
        <time>2018-05-01T09:22:09Z</time>
      </trkpt>
      <trkpt lat="39.6856340" lon="-0.3595540">
        <ele>201.6</ele>
        <time>2018-05-01T09:22:10Z</time>
      </trkpt>
      <trkpt lat="39.6856830" lon="-0.3595650">
        <ele>200.6</ele>
        <time>2018-05-01T09:22:11Z</time>
      </trkpt>
      <trkpt lat="39.6857750" lon="-0.3595480">
        <ele>198.8</ele>
        <time>2018-05-01T09:22:13Z</time>
      </trkpt>
      <trkpt lat="39.6858260" lon="-0.3594470">
        <ele>197.6</ele>
        <time>2018-05-01T09:22:15Z</time>
      </trkpt>
      <trkpt lat="39.6858660" lon="-0.3593400">
        <ele>196.0</ele>
        <time>2018-05-01T09:22:17Z</time>
      </trkpt>
      <trkpt lat="39.6859130" lon="-0.3592770">
        <ele>194.6</ele>
        <time>2018-05-01T09:22:19Z</time>
      </trkpt>
      <trkpt lat="39.6859900" lon="-0.3592690">
        <ele>193.0</ele>
        <time>2018-05-01T09:22:21Z</time>
      </trkpt>
      <trkpt lat="39.6861260" lon="-0.3593200">
        <ele>191.8</ele>
        <time>2018-05-01T09:22:24Z</time>
      </trkpt>
      <trkpt lat="39.6862550" lon="-0.3592180">
        <ele>190.6</ele>
        <time>2018-05-01T09:22:28Z</time>
      </trkpt>
      <trkpt lat="39.6863090" lon="-0.3591160">
        <ele>189.2</ele>
        <time>2018-05-01T09:22:30Z</time>
      </trkpt>
      <trkpt lat="39.6863340" lon="-0.3590580">
        <ele>188.8</ele>
        <time>2018-05-01T09:22:31Z</time>
      </trkpt>
      <trkpt lat="39.6863700" lon="-0.3589970">
        <ele>188.6</ele>
        <time>2018-05-01T09:22:32Z</time>
      </trkpt>
      <trkpt lat="39.6864630" lon="-0.3588530">
        <ele>188.0</ele>
        <time>2018-05-01T09:22:34Z</time>
      </trkpt>
      <trkpt lat="39.6865210" lon="-0.3587760">
        <ele>187.4</ele>
        <time>2018-05-01T09:22:35Z</time>
      </trkpt>
      <trkpt lat="39.6865770" lon="-0.3587010">
        <ele>186.8</ele>
        <time>2018-05-01T09:22:36Z</time>
      </trkpt>
      <trkpt lat="39.6866310" lon="-0.3586350">
        <ele>186.2</ele>
        <time>2018-05-01T09:22:37Z</time>
      </trkpt>
      <trkpt lat="39.6866930" lon="-0.3585790">
        <ele>185.6</ele>
        <time>2018-05-01T09:22:38Z</time>
      </trkpt>
      <trkpt lat="39.6867540" lon="-0.3585230">
        <ele>184.4</ele>
        <time>2018-05-01T09:22:39Z</time>
      </trkpt>
      <trkpt lat="39.6868180" lon="-0.3584690">
        <ele>183.2</ele>
        <time>2018-05-01T09:22:40Z</time>
      </trkpt>
      <trkpt lat="39.6868840" lon="-0.3584240">
        <ele>181.4</ele>
        <time>2018-05-01T09:22:41Z</time>
      </trkpt>
      <trkpt lat="39.6869460" lon="-0.3583870">
        <ele>179.8</ele>
        <time>2018-05-01T09:22:42Z</time>
      </trkpt>
      <trkpt lat="39.6870590" lon="-0.3583220">
        <ele>178.4</ele>
        <time>2018-05-01T09:22:44Z</time>
      </trkpt>
      <trkpt lat="39.6871590" lon="-0.3582580">
        <ele>177.4</ele>
        <time>2018-05-01T09:22:46Z</time>
      </trkpt>
      <trkpt lat="39.6872480" lon="-0.3581510">
        <ele>175.0</ele>
        <time>2018-05-01T09:22:48Z</time>
      </trkpt>
      <trkpt lat="39.6873230" lon="-0.3579790">
        <ele>173.2</ele>
        <time>2018-05-01T09:22:50Z</time>
      </trkpt>
      <trkpt lat="39.6873930" lon="-0.3577630">
        <ele>171.6</ele>
        <time>2018-05-01T09:22:52Z</time>
      </trkpt>
      <trkpt lat="39.6874720" lon="-0.3576100">
        <ele>169.8</ele>
        <time>2018-05-01T09:22:54Z</time>
      </trkpt>
      <trkpt lat="39.6875690" lon="-0.3575390">
        <ele>168.0</ele>
        <time>2018-05-01T09:22:56Z</time>
      </trkpt>
      <trkpt lat="39.6876240" lon="-0.3575240">
        <ele>166.6</ele>
        <time>2018-05-01T09:22:57Z</time>
      </trkpt>
      <trkpt lat="39.6877790" lon="-0.3575500">
        <ele>165.4</ele>
        <time>2018-05-01T09:23:00Z</time>
      </trkpt>
      <trkpt lat="39.6879690" lon="-0.3576160">
        <ele>165.0</ele>
        <time>2018-05-01T09:23:04Z</time>
      </trkpt>
      <trkpt lat="39.6880180" lon="-0.3576270">
        <ele>164.8</ele>
        <time>2018-05-01T09:23:05Z</time>
      </trkpt>
      <trkpt lat="39.6881820" lon="-0.3576580">
        <ele>164.4</ele>
        <time>2018-05-01T09:23:08Z</time>
      </trkpt>
      <trkpt lat="39.6882890" lon="-0.3576800">
        <ele>164.2</ele>
        <time>2018-05-01T09:23:10Z</time>
      </trkpt>
      <trkpt lat="39.6883440" lon="-0.3576840">
        <ele>164.2</ele>
        <time>2018-05-01T09:23:11Z</time>
      </trkpt>
      <trkpt lat="39.6885730" lon="-0.3577560">
        <ele>163.6</ele>
        <time>2018-05-01T09:23:15Z</time>
      </trkpt>
      <trkpt lat="39.6886290" lon="-0.3577940">
        <ele>163.6</ele>
        <time>2018-05-01T09:23:16Z</time>
      </trkpt>
      <trkpt lat="39.6888020" lon="-0.3579290">
        <ele>163.2</ele>
        <time>2018-05-01T09:23:19Z</time>
      </trkpt>
      <trkpt lat="39.6889380" lon="-0.3580390">
        <ele>161.8</ele>
        <time>2018-05-01T09:23:21Z</time>
      </trkpt>
      <trkpt lat="39.6890890" lon="-0.3581480">
        <ele>160.6</ele>
        <time>2018-05-01T09:23:23Z</time>
      </trkpt>
      <trkpt lat="39.6892370" lon="-0.3582200">
        <ele>159.0</ele>
        <time>2018-05-01T09:23:25Z</time>
      </trkpt>
      <trkpt lat="39.6893570" lon="-0.3582010">
        <ele>157.6</ele>
        <time>2018-05-01T09:23:27Z</time>
      </trkpt>
      <trkpt lat="39.6894190" lon="-0.3581620">
        <ele>154.8</ele>
        <time>2018-05-01T09:23:28Z</time>
      </trkpt>
      <trkpt lat="39.6894750" lon="-0.3581000">
        <ele>153.2</ele>
        <time>2018-05-01T09:23:29Z</time>
      </trkpt>
      <trkpt lat="39.6895230" lon="-0.3580060">
        <ele>151.8</ele>
        <time>2018-05-01T09:23:30Z</time>
      </trkpt>
      <trkpt lat="39.6895710" lon="-0.3579040">
        <ele>150.6</ele>
        <time>2018-05-01T09:23:31Z</time>
      </trkpt>
      <trkpt lat="39.6896250" lon="-0.3578000">
        <ele>150.2</ele>
        <time>2018-05-01T09:23:32Z</time>
      </trkpt>
      <trkpt lat="39.6896820" lon="-0.3576930">
        <ele>149.6</ele>
        <time>2018-05-01T09:23:33Z</time>
      </trkpt>
      <trkpt lat="39.6898450" lon="-0.3574140">
        <ele>148.2</ele>
        <time>2018-05-01T09:23:36Z</time>
      </trkpt>
      <trkpt lat="39.6898890" lon="-0.3573400">
        <ele>146.8</ele>
        <time>2018-05-01T09:23:37Z</time>
      </trkpt>
      <trkpt lat="39.6899280" lon="-0.3572720">
        <ele>145.0</ele>
        <time>2018-05-01T09:23:38Z</time>
      </trkpt>
      <trkpt lat="39.6899600" lon="-0.3572110">
        <ele>143.8</ele>
        <time>2018-05-01T09:23:39Z</time>
      </trkpt>
      <trkpt lat="39.6899810" lon="-0.3571540">
        <ele>143.2</ele>
        <time>2018-05-01T09:23:40Z</time>
      </trkpt>
      <trkpt lat="39.6900200" lon="-0.3570560">
        <ele>142.8</ele>
        <time>2018-05-01T09:23:42Z</time>
      </trkpt>
      <trkpt lat="39.6900630" lon="-0.3569800">
        <ele>142.6</ele>
        <time>2018-05-01T09:23:44Z</time>
      </trkpt>
      <trkpt lat="39.6901290" lon="-0.3569430">
        <ele>142.6</ele>
        <time>2018-05-01T09:23:46Z</time>
      </trkpt>
      <trkpt lat="39.6901920" lon="-0.3569520">
        <ele>142.6</ele>
        <time>2018-05-01T09:23:48Z</time>
      </trkpt>
      <trkpt lat="39.6902510" lon="-0.3569630">
        <ele>143.8</ele>
        <time>2018-05-01T09:23:50Z</time>
      </trkpt>
      <trkpt lat="39.6902780" lon="-0.3569740">
        <ele>145.0</ele>
        <time>2018-05-01T09:23:51Z</time>
      </trkpt>
      <trkpt lat="39.6903230" lon="-0.3570010">
        <ele>146.0</ele>
        <time>2018-05-01T09:23:53Z</time>
      </trkpt>
      <trkpt lat="39.6903400" lon="-0.3570110">
        <ele>146.4</ele>
        <time>2018-05-01T09:23:55Z</time>
      </trkpt>
      <trkpt lat="39.6903570" lon="-0.3570320">
        <ele>148.2</ele>
        <time>2018-05-01T09:24:00Z</time>
      </trkpt>
      <trkpt lat="39.6903060" lon="-0.3571280">
        <ele>149.2</ele>
        <time>2018-05-01T09:24:04Z</time>
      </trkpt>
      <trkpt lat="39.6902190" lon="-0.3572220">
        <ele>149.4</ele>
        <time>2018-05-01T09:24:08Z</time>
      </trkpt>
      <trkpt lat="39.6901580" lon="-0.3573150">
        <ele>149.4</ele>
        <time>2018-05-01T09:24:11Z</time>
      </trkpt>
      <trkpt lat="39.6901020" lon="-0.3574320">
        <ele>149.6</ele>
        <time>2018-05-01T09:24:14Z</time>
      </trkpt>
      <trkpt lat="39.6900680" lon="-0.3575180">
        <ele>149.6</ele>
        <time>2018-05-01T09:24:16Z</time>
      </trkpt>
      <trkpt lat="39.6900160" lon="-0.3578220">
        <ele>150.2</ele>
        <time>2018-05-01T09:24:22Z</time>
      </trkpt>
      <trkpt lat="39.6900120" lon="-0.3578820">
        <ele>150.2</ele>
        <time>2018-05-01T09:24:23Z</time>
      </trkpt>
      <trkpt lat="39.6900430" lon="-0.3583260">
        <ele>150.4</ele>
        <time>2018-05-01T09:24:30Z</time>
      </trkpt>
      <trkpt lat="39.6900760" lon="-0.3585880">
        <ele>150.2</ele>
        <time>2018-05-01T09:24:34Z</time>
      </trkpt>
      <trkpt lat="39.6901160" lon="-0.3588150">
        <ele>150.2</ele>
        <time>2018-05-01T09:24:37Z</time>
      </trkpt>
      <trkpt lat="39.6901470" lon="-0.3589700">
        <ele>150.0</ele>
        <time>2018-05-01T09:24:39Z</time>
      </trkpt>
      <trkpt lat="39.6902120" lon="-0.3593370">
        <ele>149.2</ele>
        <time>2018-05-01T09:24:44Z</time>
      </trkpt>
      <trkpt lat="39.6902810" lon="-0.3598900">
        <ele>148.8</ele>
        <time>2018-05-01T09:24:53Z</time>
      </trkpt>
      <trkpt lat="39.6902820" lon="-0.3600600">
        <ele>149.2</ele>
        <time>2018-05-01T09:24:56Z</time>
      </trkpt>
      <trkpt lat="39.6902730" lon="-0.3601130">
        <ele>149.2</ele>
        <time>2018-05-01T09:24:57Z</time>
      </trkpt>
      <trkpt lat="39.6902070" lon="-0.3602920">
        <ele>150.0</ele>
        <time>2018-05-01T09:25:01Z</time>
      </trkpt>
      <trkpt lat="39.6901140" lon="-0.3604210">
        <ele>150.4</ele>
        <time>2018-05-01T09:25:05Z</time>
      </trkpt>
      <trkpt lat="39.6900900" lon="-0.3604450">
        <ele>150.6</ele>
        <time>2018-05-01T09:25:06Z</time>
      </trkpt>
      <trkpt lat="39.6900400" lon="-0.3604850">
        <ele>151.2</ele>
        <time>2018-05-01T09:25:08Z</time>
      </trkpt>
      <trkpt lat="39.6900140" lon="-0.3604990">
        <ele>151.6</ele>
        <time>2018-05-01T09:25:09Z</time>
      </trkpt>
      <trkpt lat="39.6899620" lon="-0.3605220">
        <ele>152.2</ele>
        <time>2018-05-01T09:25:11Z</time>
      </trkpt>
      <trkpt lat="39.6899050" lon="-0.3605370">
        <ele>152.8</ele>
        <time>2018-05-01T09:25:13Z</time>
      </trkpt>
      <trkpt lat="39.6898090" lon="-0.3605270">
        <ele>154.0</ele>
        <time>2018-05-01T09:25:16Z</time>
      </trkpt>
      <trkpt lat="39.6896780" lon="-0.3605120">
        <ele>155.4</ele>
        <time>2018-05-01T09:25:20Z</time>
      </trkpt>
      <trkpt lat="39.6895560" lon="-0.3604760">
        <ele>156.4</ele>
        <time>2018-05-01T09:25:24Z</time>
      </trkpt>
      <trkpt lat="39.6894070" lon="-0.3604220">
        <ele>157.6</ele>
        <time>2018-05-01T09:25:30Z</time>
      </trkpt>
      <trkpt lat="39.6892560" lon="-0.3603880">
        <ele>158.8</ele>
        <time>2018-05-01T09:25:35Z</time>
      </trkpt>
      <trkpt lat="39.6890720" lon="-0.3603690">
        <ele>160.0</ele>
        <time>2018-05-01T09:25:41Z</time>
      </trkpt>
      <trkpt lat="39.6889470" lon="-0.3604100">
        <ele>161.2</ele>
        <time>2018-05-01T09:25:45Z</time>
      </trkpt>
      <trkpt lat="39.6887490" lon="-0.3605930">
        <ele>162.2</ele>
        <time>2018-05-01T09:25:53Z</time>
      </trkpt>
      <trkpt lat="39.6886270" lon="-0.3607800">
        <ele>163.4</ele>
        <time>2018-05-01T09:25:59Z</time>
      </trkpt>
      <trkpt lat="39.6884970" lon="-0.3611100">
        <ele>164.4</ele>
        <time>2018-05-01T09:26:08Z</time>
      </trkpt>
      <trkpt lat="39.6884500" lon="-0.3613570">
        <ele>165.6</ele>
        <time>2018-05-01T09:26:14Z</time>
      </trkpt>
      <trkpt lat="39.6884660" lon="-0.3617820">
        <ele>166.4</ele>
        <time>2018-05-01T09:26:23Z</time>
      </trkpt>
      <trkpt lat="39.6885250" lon="-0.3621250">
        <ele>166.6</ele>
        <time>2018-05-01T09:26:30Z</time>
      </trkpt>
      <trkpt lat="39.6885380" lon="-0.3622270">
        <ele>166.8</ele>
        <time>2018-05-01T09:26:32Z</time>
      </trkpt>
      <trkpt lat="39.6885380" lon="-0.3623310">
        <ele>166.8</ele>
        <time>2018-05-01T09:26:34Z</time>
      </trkpt>
      <trkpt lat="39.6885330" lon="-0.3624310">
        <ele>166.8</ele>
        <time>2018-05-01T09:26:36Z</time>
      </trkpt>
      <trkpt lat="39.6884320" lon="-0.3628730">
        <ele>166.8</ele>
        <time>2018-05-01T09:26:45Z</time>
      </trkpt>
      <trkpt lat="39.6882310" lon="-0.3631940">
        <ele>167.6</ele>
        <time>2018-05-01T09:26:53Z</time>
      </trkpt>
      <trkpt lat="39.6879610" lon="-0.3634760">
        <ele>168.8</ele>
        <time>2018-05-01T09:27:02Z</time>
      </trkpt>
      <trkpt lat="39.6878460" lon="-0.3635850">
        <ele>169.6</ele>
        <time>2018-05-01T09:27:06Z</time>
      </trkpt>
      <trkpt lat="39.6877930" lon="-0.3636390">
        <ele>170.0</ele>
        <time>2018-05-01T09:27:08Z</time>
      </trkpt>
      <trkpt lat="39.6876990" lon="-0.3637320">
        <ele>170.8</ele>
        <time>2018-05-01T09:27:12Z</time>
      </trkpt>
      <trkpt lat="39.6876770" lon="-0.3637540">
        <ele>171.0</ele>
        <time>2018-05-01T09:27:13Z</time>
      </trkpt>
      <trkpt lat="39.6875820" lon="-0.3638860">
        <ele>172.0</ele>
        <time>2018-05-01T09:27:18Z</time>
      </trkpt>
      <trkpt lat="39.6875390" lon="-0.3639770">
        <ele>173.4</ele>
        <time>2018-05-01T09:27:21Z</time>
      </trkpt>
      <trkpt lat="39.6875040" lon="-0.3641060">
        <ele>174.4</ele>
        <time>2018-05-01T09:27:25Z</time>
      </trkpt>
      <trkpt lat="39.6874870" lon="-0.3642280">
        <ele>175.6</ele>
        <time>2018-05-01T09:27:29Z</time>
      </trkpt>
      <trkpt lat="39.6874910" lon="-0.3643350">
        <ele>176.6</ele>
        <time>2018-05-01T09:27:33Z</time>
      </trkpt>
      <trkpt lat="39.6875190" lon="-0.3644560">
        <ele>177.8</ele>
        <time>2018-05-01T09:27:37Z</time>
      </trkpt>
      <trkpt lat="39.6875600" lon="-0.3645780">
        <ele>179.0</ele>
        <time>2018-05-01T09:27:41Z</time>
      </trkpt>
      <trkpt lat="39.6876680" lon="-0.3647410">
        <ele>180.2</ele>
        <time>2018-05-01T09:27:47Z</time>
      </trkpt>
      <trkpt lat="39.6878210" lon="-0.3648390">
        <ele>181.4</ele>
        <time>2018-05-01T09:27:52Z</time>
      </trkpt>
      <trkpt lat="39.6879710" lon="-0.3649240">
        <ele>182.2</ele>
        <time>2018-05-01T09:27:57Z</time>
      </trkpt>
      <trkpt lat="39.6880960" lon="-0.3650000">
        <ele>182.4</ele>
        <time>2018-05-01T09:28:01Z</time>
      </trkpt>
      <trkpt lat="39.6882390" lon="-0.3651410">
        <ele>182.4</ele>
        <time>2018-05-01T09:28:06Z</time>
      </trkpt>
      <trkpt lat="39.6883060" lon="-0.3652540">
        <ele>182.4</ele>
        <time>2018-05-01T09:28:09Z</time>
      </trkpt>
      <trkpt lat="39.6883650" lon="-0.3653680">
        <ele>182.4</ele>
        <time>2018-05-01T09:28:12Z</time>
      </trkpt>
      <trkpt lat="39.6884210" lon="-0.3655580">
        <ele>182.8</ele>
        <time>2018-05-01T09:28:17Z</time>
      </trkpt>
      <trkpt lat="39.6884360" lon="-0.3656690">
        <ele>183.2</ele>
        <time>2018-05-01T09:28:20Z</time>
      </trkpt>
      <trkpt lat="39.6884410" lon="-0.3657040">
        <ele>183.6</ele>
        <time>2018-05-01T09:28:21Z</time>
      </trkpt>
      <trkpt lat="39.6884440" lon="-0.3658400">
        <ele>184.8</ele>
        <time>2018-05-01T09:28:25Z</time>
      </trkpt>
      <trkpt lat="39.6884360" lon="-0.3659780">
        <ele>186.0</ele>
        <time>2018-05-01T09:28:29Z</time>
      </trkpt>
      <trkpt lat="39.6884130" lon="-0.3660840">
        <ele>187.0</ele>
        <time>2018-05-01T09:28:32Z</time>
      </trkpt>
      <trkpt lat="39.6883610" lon="-0.3662130">
        <ele>188.0</ele>
        <time>2018-05-01T09:28:36Z</time>
      </trkpt>
      <trkpt lat="39.6882640" lon="-0.3663900">
        <ele>189.2</ele>
        <time>2018-05-01T09:28:42Z</time>
      </trkpt>
      <trkpt lat="39.6881800" lon="-0.3665270">
        <ele>190.2</ele>
        <time>2018-05-01T09:28:47Z</time>
      </trkpt>
      <trkpt lat="39.6880570" lon="-0.3667670">
        <ele>191.2</ele>
        <time>2018-05-01T09:28:55Z</time>
      </trkpt>
      <trkpt lat="39.6879750" lon="-0.3669160">
        <ele>192.2</ele>
        <time>2018-05-01T09:29:00Z</time>
      </trkpt>
      <trkpt lat="39.6878320" lon="-0.3671650">
        <ele>193.4</ele>
        <time>2018-05-01T09:29:09Z</time>
      </trkpt>
      <trkpt lat="39.6877670" lon="-0.3673160">
        <ele>194.6</ele>
        <time>2018-05-01T09:29:14Z</time>
      </trkpt>
      <trkpt lat="39.6877200" lon="-0.3674440">
        <ele>195.8</ele>
        <time>2018-05-01T09:29:18Z</time>
      </trkpt>
      <trkpt lat="39.6877110" lon="-0.3675530">
        <ele>196.4</ele>
        <time>2018-05-01T09:29:21Z</time>
      </trkpt>
      <trkpt lat="39.6877240" lon="-0.3677380">
        <ele>197.0</ele>
        <time>2018-05-01T09:29:26Z</time>
      </trkpt>
      <trkpt lat="39.6877900" lon="-0.3679460">
        <ele>198.2</ele>
        <time>2018-05-01T09:29:32Z</time>
      </trkpt>
      <trkpt lat="39.6878840" lon="-0.3680660">
        <ele>199.4</ele>
        <time>2018-05-01T09:29:36Z</time>
      </trkpt>
      <trkpt lat="39.6880470" lon="-0.3683270">
        <ele>200.6</ele>
        <time>2018-05-01T09:29:44Z</time>
      </trkpt>
      <trkpt lat="39.6880360" lon="-0.3685860">
        <ele>201.8</ele>
        <time>2018-05-01T09:29:50Z</time>
      </trkpt>
      <trkpt lat="39.6878650" lon="-0.3687960">
        <ele>202.8</ele>
        <time>2018-05-01T09:29:57Z</time>
      </trkpt>
      <trkpt lat="39.6877220" lon="-0.3688180">
        <ele>203.6</ele>
        <time>2018-05-01T09:30:01Z</time>
      </trkpt>
      <trkpt lat="39.6874640" lon="-0.3689720">
        <ele>204.8</ele>
        <time>2018-05-01T09:30:10Z</time>
      </trkpt>
      <trkpt lat="39.6873880" lon="-0.3690720">
        <ele>206.2</ele>
        <time>2018-05-01T09:30:14Z</time>
      </trkpt>
      <trkpt lat="39.6873110" lon="-0.3692010">
        <ele>207.2</ele>
        <time>2018-05-01T09:30:18Z</time>
      </trkpt>
      <trkpt lat="39.6872440" lon="-0.3693330">
        <ele>208.4</ele>
        <time>2018-05-01T09:30:22Z</time>
      </trkpt>
      <trkpt lat="39.6871520" lon="-0.3695010">
        <ele>209.6</ele>
        <time>2018-05-01T09:30:27Z</time>
      </trkpt>
      <trkpt lat="39.6870890" lon="-0.3696460">
        <ele>210.6</ele>
        <time>2018-05-01T09:30:31Z</time>
      </trkpt>
      <trkpt lat="39.6870380" lon="-0.3698810">
        <ele>211.6</ele>
        <time>2018-05-01T09:30:37Z</time>
      </trkpt>
      <trkpt lat="39.6870090" lon="-0.3700360">
        <ele>212.8</ele>
        <time>2018-05-01T09:30:41Z</time>
      </trkpt>
      <trkpt lat="39.6869670" lon="-0.3701850">
        <ele>214.0</ele>
        <time>2018-05-01T09:30:45Z</time>
      </trkpt>
      <trkpt lat="39.6869110" lon="-0.3703920">
        <ele>215.2</ele>
        <time>2018-05-01T09:30:51Z</time>
      </trkpt>
      <trkpt lat="39.6868540" lon="-0.3704800">
        <ele>216.2</ele>
        <time>2018-05-01T09:30:54Z</time>
      </trkpt>
      <trkpt lat="39.6867710" lon="-0.3705490">
        <ele>217.2</ele>
        <time>2018-05-01T09:30:57Z</time>
      </trkpt>
      <trkpt lat="39.6866160" lon="-0.3705590">
        <ele>218.4</ele>
        <time>2018-05-01T09:31:02Z</time>
      </trkpt>
      <trkpt lat="39.6864970" lon="-0.3705100">
        <ele>219.4</ele>
        <time>2018-05-01T09:31:06Z</time>
      </trkpt>
      <trkpt lat="39.6863580" lon="-0.3704870">
        <ele>220.4</ele>
        <time>2018-05-01T09:31:11Z</time>
      </trkpt>
      <trkpt lat="39.6862190" lon="-0.3705210">
        <ele>221.6</ele>
        <time>2018-05-01T09:31:16Z</time>
      </trkpt>
      <trkpt lat="39.6861390" lon="-0.3705820">
        <ele>222.8</ele>
        <time>2018-05-01T09:31:19Z</time>
      </trkpt>
      <trkpt lat="39.6860640" lon="-0.3707130">
        <ele>224.0</ele>
        <time>2018-05-01T09:31:23Z</time>
      </trkpt>
      <trkpt lat="39.6859610" lon="-0.3709270">
        <ele>225.0</ele>
        <time>2018-05-01T09:31:29Z</time>
      </trkpt>
      <trkpt lat="39.6858870" lon="-0.3710590">
        <ele>226.2</ele>
        <time>2018-05-01T09:31:33Z</time>
      </trkpt>
      <trkpt lat="39.6857670" lon="-0.3712060">
        <ele>227.4</ele>
        <time>2018-05-01T09:31:38Z</time>
      </trkpt>
      <trkpt lat="39.6856420" lon="-0.3713420">
        <ele>228.6</ele>
        <time>2018-05-01T09:31:43Z</time>
      </trkpt>
      <trkpt lat="39.6855220" lon="-0.3714800">
        <ele>229.8</ele>
        <time>2018-05-01T09:31:48Z</time>
      </trkpt>
      <trkpt lat="39.6854010" lon="-0.3716150">
        <ele>231.0</ele>
        <time>2018-05-01T09:31:53Z</time>
      </trkpt>
      <trkpt lat="39.6852950" lon="-0.3717150">
        <ele>232.0</ele>
        <time>2018-05-01T09:31:57Z</time>
      </trkpt>
      <trkpt lat="39.6851780" lon="-0.3717950">
        <ele>233.2</ele>
        <time>2018-05-01T09:32:01Z</time>
      </trkpt>
      <trkpt lat="39.6850550" lon="-0.3717900">
        <ele>234.4</ele>
        <time>2018-05-01T09:32:05Z</time>
      </trkpt>
      <trkpt lat="39.6849440" lon="-0.3716960">
        <ele>235.4</ele>
        <time>2018-05-01T09:32:09Z</time>
      </trkpt>
      <trkpt lat="39.6848040" lon="-0.3715680">
        <ele>236.6</ele>
        <time>2018-05-01T09:32:14Z</time>
      </trkpt>
      <trkpt lat="39.6846120" lon="-0.3714340">
        <ele>237.6</ele>
        <time>2018-05-01T09:32:20Z</time>
      </trkpt>
      <trkpt lat="39.6844790" lon="-0.3713540">
        <ele>238.8</ele>
        <time>2018-05-01T09:32:24Z</time>
      </trkpt>
      <trkpt lat="39.6843500" lon="-0.3712810">
        <ele>240.0</ele>
        <time>2018-05-01T09:32:28Z</time>
      </trkpt>
      <trkpt lat="39.6841660" lon="-0.3712400">
        <ele>241.2</ele>
        <time>2018-05-01T09:32:33Z</time>
      </trkpt>
      <trkpt lat="39.6839400" lon="-0.3712970">
        <ele>242.4</ele>
        <time>2018-05-01T09:32:39Z</time>
      </trkpt>
      <trkpt lat="39.6838100" lon="-0.3713760">
        <ele>243.6</ele>
        <time>2018-05-01T09:32:43Z</time>
      </trkpt>
      <trkpt lat="39.6836800" lon="-0.3714540">
        <ele>244.8</ele>
        <time>2018-05-01T09:32:47Z</time>
      </trkpt>
      <trkpt lat="39.6835730" lon="-0.3715100">
        <ele>245.8</ele>
        <time>2018-05-01T09:32:50Z</time>
      </trkpt>
      <trkpt lat="39.6834600" lon="-0.3715740">
        <ele>246.8</ele>
        <time>2018-05-01T09:32:53Z</time>
      </trkpt>
      <trkpt lat="39.6833050" lon="-0.3716850">
        <ele>247.6</ele>
        <time>2018-05-01T09:32:57Z</time>
      </trkpt>
      <trkpt lat="39.6832730" lon="-0.3717200">
        <ele>248.2</ele>
        <time>2018-05-01T09:32:58Z</time>
      </trkpt>
      <trkpt lat="39.6831410" lon="-0.3719780">
        <ele>249.2</ele>
        <time>2018-05-01T09:33:04Z</time>
      </trkpt>
      <trkpt lat="39.6830680" lon="-0.3722730">
        <ele>250.6</ele>
        <time>2018-05-01T09:33:11Z</time>
      </trkpt>
      <trkpt lat="39.6830640" lon="-0.3723470">
        <ele>251.8</ele>
        <time>2018-05-01T09:33:15Z</time>
      </trkpt>
      <trkpt lat="39.6830950" lon="-0.3724930">
        <ele>254.0</ele>
        <time>2018-05-01T09:33:26Z</time>
      </trkpt>
      <trkpt lat="39.6830970" lon="-0.3725440">
        <ele>254.2</ele>
        <time>2018-05-01T09:33:28Z</time>
      </trkpt>
      <trkpt lat="39.6832580" lon="-0.3728590">
        <ele>255.2</ele>
        <time>2018-05-01T09:33:39Z</time>
      </trkpt>
      <trkpt lat="39.6833270" lon="-0.3731120">
        <ele>256.2</ele>
        <time>2018-05-01T09:33:47Z</time>
      </trkpt>
      <trkpt lat="39.6834410" lon="-0.3732940">
        <ele>257.2</ele>
        <time>2018-05-01T09:33:53Z</time>
      </trkpt>
      <trkpt lat="39.6834650" lon="-0.3733160">
        <ele>257.2</ele>
        <time>2018-05-01T09:33:54Z</time>
      </trkpt>
      <trkpt lat="39.6835350" lon="-0.3733720">
        <ele>257.6</ele>
        <time>2018-05-01T09:33:57Z</time>
      </trkpt>
      <trkpt lat="39.6835810" lon="-0.3734040">
        <ele>257.6</ele>
        <time>2018-05-01T09:33:59Z</time>
      </trkpt>
      <trkpt lat="39.6836260" lon="-0.3734450">
        <ele>257.6</ele>
        <time>2018-05-01T09:34:01Z</time>
      </trkpt>
      <trkpt lat="39.6837000" lon="-0.3735250">
        <ele>257.8</ele>
        <time>2018-05-01T09:34:04Z</time>
      </trkpt>
      <trkpt lat="39.6837490" lon="-0.3735820">
        <ele>257.8</ele>
        <time>2018-05-01T09:34:06Z</time>
      </trkpt>
      <trkpt lat="39.6837570" lon="-0.3736340">
        <ele>257.8</ele>
        <time>2018-05-01T09:34:07Z</time>
      </trkpt>
      <trkpt lat="39.6837560" lon="-0.3738290">
        <ele>257.8</ele>
        <time>2018-05-01T09:34:10Z</time>
      </trkpt>
      <trkpt lat="39.6837420" lon="-0.3738940">
        <ele>257.8</ele>
        <time>2018-05-01T09:34:11Z</time>
      </trkpt>
      <trkpt lat="39.6836690" lon="-0.3739880">
        <ele>257.8</ele>
        <time>2018-05-01T09:34:13Z</time>
      </trkpt>
      <trkpt lat="39.6835660" lon="-0.3740280">
        <ele>257.2</ele>
        <time>2018-05-01T09:34:15Z</time>
      </trkpt>
      <trkpt lat="39.6834810" lon="-0.3740520">
        <ele>256.2</ele>
        <time>2018-05-01T09:34:17Z</time>
      </trkpt>
      <trkpt lat="39.6833160" lon="-0.3740780">
        <ele>255.8</ele>
        <time>2018-05-01T09:34:25Z</time>
      </trkpt>
      <trkpt lat="39.6832390" lon="-0.3741200">
        <ele>256.4</ele>
        <time>2018-05-01T09:34:29Z</time>
      </trkpt>
      <trkpt lat="39.6831110" lon="-0.3742730">
        <ele>257.0</ele>
        <time>2018-05-01T09:34:35Z</time>
      </trkpt>
      <trkpt lat="39.6830630" lon="-0.3743540">
        <ele>257.0</ele>
        <time>2018-05-01T09:34:37Z</time>
      </trkpt>
      <trkpt lat="39.6830120" lon="-0.3744390">
        <ele>257.2</ele>
        <time>2018-05-01T09:34:39Z</time>
      </trkpt>
      <trkpt lat="39.6828620" lon="-0.3746730">
        <ele>257.2</ele>
        <time>2018-05-01T09:34:45Z</time>
      </trkpt>
      <trkpt lat="39.6827890" lon="-0.3747680">
        <ele>257.2</ele>
        <time>2018-05-01T09:34:48Z</time>
      </trkpt>
      <trkpt lat="39.6826560" lon="-0.3749490">
        <ele>257.2</ele>
        <time>2018-05-01T09:34:53Z</time>
      </trkpt>
      <trkpt lat="39.6825710" lon="-0.3750580">
        <ele>257.2</ele>
        <time>2018-05-01T09:34:56Z</time>
      </trkpt>
      <trkpt lat="39.6823950" lon="-0.3753430">
        <ele>257.0</ele>
        <time>2018-05-01T09:35:03Z</time>
      </trkpt>
      <trkpt lat="39.6822680" lon="-0.3756200">
        <ele>256.6</ele>
        <time>2018-05-01T09:35:09Z</time>
      </trkpt>
      <trkpt lat="39.6821470" lon="-0.3755840">
        <ele>256.4</ele>
        <time>2018-05-01T09:35:12Z</time>
      </trkpt>
      <trkpt lat="39.6820870" lon="-0.3754940">
        <ele>256.4</ele>
        <time>2018-05-01T09:35:14Z</time>
      </trkpt>
      <trkpt lat="39.6820390" lon="-0.3753960">
        <ele>256.4</ele>
        <time>2018-05-01T09:35:16Z</time>
      </trkpt>
      <trkpt lat="39.6819650" lon="-0.3752000">
        <ele>256.4</ele>
        <time>2018-05-01T09:35:20Z</time>
      </trkpt>
      <trkpt lat="39.6819330" lon="-0.3751200">
        <ele>256.4</ele>
        <time>2018-05-01T09:35:22Z</time>
      </trkpt>
      <trkpt lat="39.6818850" lon="-0.3750040">
        <ele>256.6</ele>
        <time>2018-05-01T09:35:25Z</time>
      </trkpt>
      <trkpt lat="39.6818350" lon="-0.3748610">
        <ele>257.6</ele>
        <time>2018-05-01T09:35:29Z</time>
      </trkpt>
      <trkpt lat="39.6818200" lon="-0.3747940">
        <ele>258.4</ele>
        <time>2018-05-01T09:35:31Z</time>
      </trkpt>
      <trkpt lat="39.6818120" lon="-0.3747580">
        <ele>258.6</ele>
        <time>2018-05-01T09:35:32Z</time>
      </trkpt>
      <trkpt lat="39.6818010" lon="-0.3746870">
        <ele>259.2</ele>
        <time>2018-05-01T09:35:34Z</time>
      </trkpt>
      <trkpt lat="39.6817870" lon="-0.3745980">
        <ele>259.6</ele>
        <time>2018-05-01T09:35:36Z</time>
      </trkpt>
      <trkpt lat="39.6817760" lon="-0.3745550">
        <ele>259.8</ele>
        <time>2018-05-01T09:35:37Z</time>
      </trkpt>
      <trkpt lat="39.6817640" lon="-0.3745130">
        <ele>259.8</ele>
        <time>2018-05-01T09:35:38Z</time>
      </trkpt>
      <trkpt lat="39.6817070" lon="-0.3744030">
        <ele>260.4</ele>
        <time>2018-05-01T09:35:41Z</time>
      </trkpt>
      <trkpt lat="39.6816160" lon="-0.3743230">
        <ele>260.8</ele>
        <time>2018-05-01T09:35:44Z</time>
      </trkpt>
      <trkpt lat="39.6814350" lon="-0.3743500">
        <ele>261.4</ele>
        <time>2018-05-01T09:35:49Z</time>
      </trkpt>
      <trkpt lat="39.6812500" lon="-0.3745260">
        <ele>261.6</ele>
        <time>2018-05-01T09:35:56Z</time>
      </trkpt>
      <trkpt lat="39.6811170" lon="-0.3746540">
        <ele>263.0</ele>
        <time>2018-05-01T09:36:03Z</time>
      </trkpt>
      <trkpt lat="39.6810590" lon="-0.3747280">
        <ele>264.0</ele>
        <time>2018-05-01T09:36:07Z</time>
      </trkpt>
      <trkpt lat="39.6810250" lon="-0.3747980">
        <ele>265.2</ele>
        <time>2018-05-01T09:36:10Z</time>
      </trkpt>
      <trkpt lat="39.6810020" lon="-0.3748740">
        <ele>266.4</ele>
        <time>2018-05-01T09:36:13Z</time>
      </trkpt>
      <trkpt lat="39.6809590" lon="-0.3749880">
        <ele>267.4</ele>
        <time>2018-05-01T09:36:17Z</time>
      </trkpt>
      <trkpt lat="39.6809180" lon="-0.3751260">
        <ele>268.6</ele>
        <time>2018-05-01T09:36:21Z</time>
      </trkpt>
      <trkpt lat="39.6808750" lon="-0.3752420">
        <ele>270.0</ele>
        <time>2018-05-01T09:36:25Z</time>
      </trkpt>
      <trkpt lat="39.6808290" lon="-0.3753780">
        <ele>271.0</ele>
        <time>2018-05-01T09:36:30Z</time>
      </trkpt>
      <trkpt lat="39.6808180" lon="-0.3754050">
        <ele>271.0</ele>
        <time>2018-05-01T09:36:31Z</time>
      </trkpt>
      <trkpt lat="39.6806820" lon="-0.3756070">
        <ele>272.0</ele>
        <time>2018-05-01T09:36:39Z</time>
      </trkpt>
      <trkpt lat="39.6805860" lon="-0.3756730">
        <ele>272.8</ele>
        <time>2018-05-01T09:36:44Z</time>
      </trkpt>
      <trkpt lat="39.6805280" lon="-0.3757060">
        <ele>273.2</ele>
        <time>2018-05-01T09:36:47Z</time>
      </trkpt>
      <trkpt lat="39.6804810" lon="-0.3757540">
        <ele>274.2</ele>
        <time>2018-05-01T09:36:50Z</time>
      </trkpt>
      <trkpt lat="39.6804550" lon="-0.3758180">
        <ele>275.2</ele>
        <time>2018-05-01T09:36:53Z</time>
      </trkpt>
      <trkpt lat="39.6804590" lon="-0.3758400">
        <ele>275.4</ele>
        <time>2018-05-01T09:36:54Z</time>
      </trkpt>
      <trkpt lat="39.6804830" lon="-0.3758700">
        <ele>276.6</ele>
        <time>2018-05-01T09:36:56Z</time>
      </trkpt>
      <trkpt lat="39.6805140" lon="-0.3758810">
        <ele>277.6</ele>
        <time>2018-05-01T09:36:58Z</time>
      </trkpt>
      <trkpt lat="39.6805260" lon="-0.3758920">
        <ele>278.0</ele>
        <time>2018-05-01T09:36:59Z</time>
      </trkpt>
      <trkpt lat="39.6805200" lon="-0.3759190">
        <ele>278.8</ele>
        <time>2018-05-01T09:37:01Z</time>
      </trkpt>
      <trkpt lat="39.6804890" lon="-0.3759210">
        <ele>279.0</ele>
        <time>2018-05-01T09:37:02Z</time>
      </trkpt>
      <trkpt lat="39.6803830" lon="-0.3759350">
        <ele>279.4</ele>
        <time>2018-05-01T09:37:05Z</time>
      </trkpt>
      <trkpt lat="39.6802900" lon="-0.3760880">
        <ele>279.4</ele>
        <time>2018-05-01T09:37:09Z</time>
      </trkpt>
      <trkpt lat="39.6800760" lon="-0.3761210">
        <ele>277.8</ele>
        <time>2018-05-01T09:37:15Z</time>
      </trkpt>
      <trkpt lat="39.6798320" lon="-0.3761600">
        <ele>277.4</ele>
        <time>2018-05-01T09:37:23Z</time>
      </trkpt>
      <trkpt lat="39.6797020" lon="-0.3762990">
        <ele>279.0</ele>
        <time>2018-05-01T09:37:29Z</time>
      </trkpt>
      <trkpt lat="39.6796090" lon="-0.3763690">
        <ele>280.4</ele>
        <time>2018-05-01T09:37:33Z</time>
      </trkpt>
      <trkpt lat="39.6794070" lon="-0.3763850">
        <ele>281.4</ele>
        <time>2018-05-01T09:37:40Z</time>
      </trkpt>
      <trkpt lat="39.6792890" lon="-0.3763530">
        <ele>282.6</ele>
        <time>2018-05-01T09:37:44Z</time>
      </trkpt>
      <trkpt lat="39.6791390" lon="-0.3763250">
        <ele>283.0</ele>
        <time>2018-05-01T09:37:49Z</time>
      </trkpt>
      <trkpt lat="39.6789480" lon="-0.3763050">
        <ele>283.6</ele>
        <time>2018-05-01T09:37:57Z</time>
      </trkpt>
      <trkpt lat="39.6789290" lon="-0.3763050">
        <ele>283.6</ele>
        <time>2018-05-01T09:37:58Z</time>
      </trkpt>
      <trkpt lat="39.6788760" lon="-0.3763110">
        <ele>283.8</ele>
        <time>2018-05-01T09:38:01Z</time>
      </trkpt>
      <trkpt lat="39.6788360" lon="-0.3763260">
        <ele>284.8</ele>
        <time>2018-05-01T09:38:03Z</time>
      </trkpt>
      <trkpt lat="39.6787840" lon="-0.3763670">
        <ele>286.0</ele>
        <time>2018-05-01T09:38:06Z</time>
      </trkpt>
      <trkpt lat="39.6787350" lon="-0.3764560">
        <ele>287.2</ele>
        <time>2018-05-01T09:38:10Z</time>
      </trkpt>
      <trkpt lat="39.6787140" lon="-0.3765430">
        <ele>288.2</ele>
        <time>2018-05-01T09:38:13Z</time>
      </trkpt>
      <trkpt lat="39.6786650" lon="-0.3766860">
        <ele>289.4</ele>
        <time>2018-05-01T09:38:18Z</time>
      </trkpt>
      <trkpt lat="39.6786090" lon="-0.3768640">
        <ele>290.4</ele>
        <time>2018-05-01T09:38:24Z</time>
      </trkpt>
      <trkpt lat="39.6784910" lon="-0.3770470">
        <ele>291.4</ele>
        <time>2018-05-01T09:38:32Z</time>
      </trkpt>
      <trkpt lat="39.6783460" lon="-0.3771110">
        <ele>292.8</ele>
        <time>2018-05-01T09:38:39Z</time>
      </trkpt>
      <trkpt lat="39.6782970" lon="-0.3771700">
        <ele>294.0</ele>
        <time>2018-05-01T09:38:42Z</time>
      </trkpt>
      <trkpt lat="39.6782260" lon="-0.3773190">
        <ele>295.2</ele>
        <time>2018-05-01T09:38:48Z</time>
      </trkpt>
      <trkpt lat="39.6781590" lon="-0.3774330">
        <ele>296.4</ele>
        <time>2018-05-01T09:38:52Z</time>
      </trkpt>
      <trkpt lat="39.6780700" lon="-0.3775460">
        <ele>296.6</ele>
        <time>2018-05-01T09:38:55Z</time>
      </trkpt>
      <trkpt lat="39.6780370" lon="-0.3776050">
        <ele>296.6</ele>
        <time>2018-05-01T09:38:56Z</time>
      </trkpt>
      <trkpt lat="39.6779990" lon="-0.3777620">
        <ele>296.6</ele>
        <time>2018-05-01T09:38:58Z</time>
      </trkpt>
      <trkpt lat="39.6780110" lon="-0.3779400">
        <ele>296.6</ele>
        <time>2018-05-01T09:39:00Z</time>
      </trkpt>
      <trkpt lat="39.6780170" lon="-0.3780290">
        <ele>296.6</ele>
        <time>2018-05-01T09:39:01Z</time>
      </trkpt>
      <trkpt lat="39.6779850" lon="-0.3782690">
        <ele>295.2</ele>
        <time>2018-05-01T09:39:04Z</time>
      </trkpt>
      <trkpt lat="39.6779630" lon="-0.3783350">
        <ele>294.2</ele>
        <time>2018-05-01T09:39:05Z</time>
      </trkpt>
      <trkpt lat="39.6778830" lon="-0.3784870">
        <ele>293.0</ele>
        <time>2018-05-01T09:39:08Z</time>
      </trkpt>
      <trkpt lat="39.6776610" lon="-0.3788960">
        <ele>294.2</ele>
        <time>2018-05-01T09:39:19Z</time>
      </trkpt>
      <trkpt lat="39.6776310" lon="-0.3790170">
        <ele>295.4</ele>
        <time>2018-05-01T09:39:22Z</time>
      </trkpt>
      <trkpt lat="39.6776300" lon="-0.3791370">
        <ele>296.6</ele>
        <time>2018-05-01T09:39:25Z</time>
      </trkpt>
      <trkpt lat="39.6776510" lon="-0.3792630">
        <ele>297.6</ele>
        <time>2018-05-01T09:39:28Z</time>
      </trkpt>
      <trkpt lat="39.6776760" lon="-0.3794600">
        <ele>298.6</ele>
        <time>2018-05-01T09:39:33Z</time>
      </trkpt>
      <trkpt lat="39.6776410" lon="-0.3797470">
        <ele>299.8</ele>
        <time>2018-05-01T09:39:41Z</time>
      </trkpt>
      <trkpt lat="39.6776230" lon="-0.3797750">
        <ele>300.0</ele>
        <time>2018-05-01T09:39:42Z</time>
      </trkpt>
      <trkpt lat="39.6775780" lon="-0.3798260">
        <ele>300.8</ele>
        <time>2018-05-01T09:39:44Z</time>
      </trkpt>
      <trkpt lat="39.6774520" lon="-0.3798760">
        <ele>302.0</ele>
        <time>2018-05-01T09:39:49Z</time>
      </trkpt>
      <trkpt lat="39.6772340" lon="-0.3796080">
        <ele>303.0</ele>
        <time>2018-05-01T09:40:01Z</time>
      </trkpt>
      <trkpt lat="39.6771950" lon="-0.3794810">
        <ele>304.4</ele>
        <time>2018-05-01T09:40:05Z</time>
      </trkpt>
      <trkpt lat="39.6771640" lon="-0.3793180">
        <ele>305.0</ele>
        <time>2018-05-01T09:40:10Z</time>
      </trkpt>
      <trkpt lat="39.6771300" lon="-0.3792220">
        <ele>305.4</ele>
        <time>2018-05-01T09:40:13Z</time>
      </trkpt>
      <trkpt lat="39.6770390" lon="-0.3790640">
        <ele>306.8</ele>
        <time>2018-05-01T09:40:18Z</time>
      </trkpt>
      <trkpt lat="39.6770290" lon="-0.3789140">
        <ele>307.4</ele>
        <time>2018-05-01T09:40:22Z</time>
      </trkpt>
      <trkpt lat="39.6770830" lon="-0.3788310">
        <ele>307.8</ele>
        <time>2018-05-01T09:40:25Z</time>
      </trkpt>
      <trkpt lat="39.6771520" lon="-0.3786400">
        <ele>309.0</ele>
        <time>2018-05-01T09:40:32Z</time>
      </trkpt>
      <trkpt lat="39.6771570" lon="-0.3785550">
        <ele>310.2</ele>
        <time>2018-05-01T09:40:35Z</time>
      </trkpt>
      <trkpt lat="39.6771460" lon="-0.3784420">
        <ele>311.4</ele>
        <time>2018-05-01T09:40:39Z</time>
      </trkpt>
      <trkpt lat="39.6771230" lon="-0.3782970">
        <ele>312.6</ele>
        <time>2018-05-01T09:40:44Z</time>
      </trkpt>
      <trkpt lat="39.6770580" lon="-0.3781600">
        <ele>313.8</ele>
        <time>2018-05-01T09:40:49Z</time>
      </trkpt>
      <trkpt lat="39.6769930" lon="-0.3780960">
        <ele>314.8</ele>
        <time>2018-05-01T09:40:52Z</time>
      </trkpt>
      <trkpt lat="39.6768850" lon="-0.3779960">
        <ele>315.4</ele>
        <time>2018-05-01T09:40:57Z</time>
      </trkpt>
      <trkpt lat="39.6767630" lon="-0.3779070">
        <ele>316.0</ele>
        <time>2018-05-01T09:41:02Z</time>
      </trkpt>
      <trkpt lat="39.6766640" lon="-0.3777360">
        <ele>317.0</ele>
        <time>2018-05-01T09:41:09Z</time>
      </trkpt>
      <trkpt lat="39.6767110" lon="-0.3775720">
        <ele>318.0</ele>
        <time>2018-05-01T09:41:15Z</time>
      </trkpt>
      <trkpt lat="39.6767390" lon="-0.3774630">
        <ele>319.0</ele>
        <time>2018-05-01T09:41:19Z</time>
      </trkpt>
      <trkpt lat="39.6767350" lon="-0.3773370">
        <ele>320.2</ele>
        <time>2018-05-01T09:41:23Z</time>
      </trkpt>
      <trkpt lat="39.6766690" lon="-0.3771930">
        <ele>321.2</ele>
        <time>2018-05-01T09:41:28Z</time>
      </trkpt>
      <trkpt lat="39.6765600" lon="-0.3769160">
        <ele>322.2</ele>
        <time>2018-05-01T09:41:38Z</time>
      </trkpt>
      <trkpt lat="39.6765090" lon="-0.3768530">
        <ele>323.2</ele>
        <time>2018-05-01T09:41:41Z</time>
      </trkpt>
      <trkpt lat="39.6764130" lon="-0.3767910">
        <ele>324.6</ele>
        <time>2018-05-01T09:41:46Z</time>
      </trkpt>
      <trkpt lat="39.6762650" lon="-0.3767710">
        <ele>325.8</ele>
        <time>2018-05-01T09:41:53Z</time>
      </trkpt>
      <trkpt lat="39.6761810" lon="-0.3767450">
        <ele>327.0</ele>
        <time>2018-05-01T09:41:57Z</time>
      </trkpt>
      <trkpt lat="39.6761050" lon="-0.3767770">
        <ele>328.2</ele>
        <time>2018-05-01T09:42:01Z</time>
      </trkpt>
      <trkpt lat="39.6760480" lon="-0.3768730">
        <ele>329.6</ele>
        <time>2018-05-01T09:42:06Z</time>
      </trkpt>
      <trkpt lat="39.6760310" lon="-0.3769920">
        <ele>330.6</ele>
        <time>2018-05-01T09:42:11Z</time>
      </trkpt>
      <trkpt lat="39.6760130" lon="-0.3771130">
        <ele>331.6</ele>
        <time>2018-05-01T09:42:16Z</time>
      </trkpt>
      <trkpt lat="39.6760070" lon="-0.3771370">
        <ele>331.8</ele>
        <time>2018-05-01T09:42:17Z</time>
      </trkpt>
      <trkpt lat="39.6759710" lon="-0.3772880">
        <ele>332.8</ele>
        <time>2018-05-01T09:42:24Z</time>
      </trkpt>
      <trkpt lat="39.6759480" lon="-0.3774080">
        <ele>334.0</ele>
        <time>2018-05-01T09:42:30Z</time>
      </trkpt>
      <trkpt lat="39.6759250" lon="-0.3774990">
        <ele>335.0</ele>
        <time>2018-05-01T09:42:35Z</time>
      </trkpt>
      <trkpt lat="39.6759050" lon="-0.3775700">
        <ele>336.2</ele>
        <time>2018-05-01T09:42:39Z</time>
      </trkpt>
      <trkpt lat="39.6758840" lon="-0.3776430">
        <ele>337.2</ele>
        <time>2018-05-01T09:42:43Z</time>
      </trkpt>
      <trkpt lat="39.6758600" lon="-0.3777160">
        <ele>338.2</ele>
        <time>2018-05-01T09:42:47Z</time>
      </trkpt>
      <trkpt lat="39.6758320" lon="-0.3777930">
        <ele>339.4</ele>
        <time>2018-05-01T09:42:51Z</time>
      </trkpt>
      <trkpt lat="39.6758220" lon="-0.3778090">
        <ele>339.6</ele>
        <time>2018-05-01T09:42:52Z</time>
      </trkpt>
      <trkpt lat="39.6757920" lon="-0.3778540">
        <ele>340.2</ele>
        <time>2018-05-01T09:42:55Z</time>
      </trkpt>
      <trkpt lat="39.6757810" lon="-0.3778680">
        <ele>340.8</ele>
        <time>2018-05-01T09:42:56Z</time>
      </trkpt>
      <trkpt lat="39.6757290" lon="-0.3779260">
        <ele>341.8</ele>
        <time>2018-05-01T09:43:00Z</time>
      </trkpt>
      <trkpt lat="39.6756810" lon="-0.3779640">
        <ele>343.0</ele>
        <time>2018-05-01T09:43:03Z</time>
      </trkpt>
      <trkpt lat="39.6756140" lon="-0.3779960">
        <ele>344.2</ele>
        <time>2018-05-01T09:43:07Z</time>
      </trkpt>
      <trkpt lat="39.6755150" lon="-0.3779880">
        <ele>345.2</ele>
        <time>2018-05-01T09:43:12Z</time>
      </trkpt>
      <trkpt lat="39.6754140" lon="-0.3779360">
        <ele>346.2</ele>
        <time>2018-05-01T09:43:17Z</time>
      </trkpt>
      <trkpt lat="39.6753950" lon="-0.3779220">
        <ele>346.2</ele>
        <time>2018-05-01T09:43:18Z</time>
      </trkpt>
      <trkpt lat="39.6752590" lon="-0.3777580">
        <ele>347.4</ele>
        <time>2018-05-01T09:43:28Z</time>
      </trkpt>
      <trkpt lat="39.6752120" lon="-0.3776680">
        <ele>348.4</ele>
        <time>2018-05-01T09:43:33Z</time>
      </trkpt>
      <trkpt lat="39.6751690" lon="-0.3776090">
        <ele>349.8</ele>
        <time>2018-05-01T09:43:37Z</time>
      </trkpt>
      <trkpt lat="39.6751180" lon="-0.3775630">
        <ele>350.8</ele>
        <time>2018-05-01T09:43:41Z</time>
      </trkpt>
      <trkpt lat="39.6750530" lon="-0.3775430">
        <ele>352.0</ele>
        <time>2018-05-01T09:43:45Z</time>
      </trkpt>
      <trkpt lat="39.6750040" lon="-0.3775430">
        <ele>353.4</ele>
        <time>2018-05-01T09:43:48Z</time>
      </trkpt>
      <trkpt lat="39.6749340" lon="-0.3775490">
        <ele>354.6</ele>
        <time>2018-05-01T09:43:52Z</time>
      </trkpt>
      <trkpt lat="39.6748570" lon="-0.3775640">
        <ele>355.8</ele>
        <time>2018-05-01T09:43:56Z</time>
      </trkpt>
      <trkpt lat="39.6747760" lon="-0.3775940">
        <ele>357.0</ele>
        <time>2018-05-01T09:44:00Z</time>
      </trkpt>
      <trkpt lat="39.6747260" lon="-0.3776170">
        <ele>358.0</ele>
        <time>2018-05-01T09:44:03Z</time>
      </trkpt>
      <trkpt lat="39.6746640" lon="-0.3776380">
        <ele>359.2</ele>
        <time>2018-05-01T09:44:06Z</time>
      </trkpt>
      <trkpt lat="39.6746120" lon="-0.3776560">
        <ele>360.4</ele>
        <time>2018-05-01T09:44:10Z</time>
      </trkpt>
      <trkpt lat="39.6746500" lon="-0.3776510">
        <ele>363.2</ele>
        <time>2018-05-01T09:44:20Z</time>
      </trkpt>
      <trkpt lat="39.6747820" lon="-0.3775950">
        <ele>363.2</ele>
        <time>2018-05-01T09:44:24Z</time>
      </trkpt>
      <trkpt lat="39.6749330" lon="-0.3775830">
        <ele>362.8</ele>
        <time>2018-05-01T09:44:28Z</time>
      </trkpt>
      <trkpt lat="39.6749580" lon="-0.3776040">
        <ele>362.4</ele>
        <time>2018-05-01T09:44:29Z</time>
      </trkpt>
      <trkpt lat="39.6749790" lon="-0.3776370">
        <ele>362.2</ele>
        <time>2018-05-01T09:44:30Z</time>
      </trkpt>
      <trkpt lat="39.6750160" lon="-0.3777170">
        <ele>361.0</ele>
        <time>2018-05-01T09:44:32Z</time>
      </trkpt>
      <trkpt lat="39.6750280" lon="-0.3777800">
        <ele>359.6</ele>
        <time>2018-05-01T09:44:34Z</time>
      </trkpt>
      <trkpt lat="39.6750250" lon="-0.3778280">
        <ele>358.4</ele>
        <time>2018-05-01T09:44:36Z</time>
      </trkpt>
      <trkpt lat="39.6750520" lon="-0.3782060">
        <ele>359.6</ele>
        <time>2018-05-01T09:44:51Z</time>
      </trkpt>
      <trkpt lat="39.6750780" lon="-0.3782900">
        <ele>360.6</ele>
        <time>2018-05-01T09:44:55Z</time>
      </trkpt>
      <trkpt lat="39.6751220" lon="-0.3783570">
        <ele>361.8</ele>
        <time>2018-05-01T09:44:59Z</time>
      </trkpt>
      <trkpt lat="39.6751820" lon="-0.3784350">
        <ele>363.0</ele>
        <time>2018-05-01T09:45:04Z</time>
      </trkpt>
      <trkpt lat="39.6752460" lon="-0.3785130">
        <ele>364.2</ele>
        <time>2018-05-01T09:45:09Z</time>
      </trkpt>
      <trkpt lat="39.6753060" lon="-0.3785940">
        <ele>365.2</ele>
        <time>2018-05-01T09:45:14Z</time>
      </trkpt>
      <trkpt lat="39.6753730" lon="-0.3786820">
        <ele>366.6</ele>
        <time>2018-05-01T09:45:19Z</time>
      </trkpt>
      <trkpt lat="39.6754220" lon="-0.3787850">
        <ele>367.8</ele>
        <time>2018-05-01T09:45:24Z</time>
      </trkpt>
      <trkpt lat="39.6754460" lon="-0.3788270">
        <ele>368.4</ele>
        <time>2018-05-01T09:45:26Z</time>
      </trkpt>
      <trkpt lat="39.6754610" lon="-0.3788730">
        <ele>369.0</ele>
        <time>2018-05-01T09:45:28Z</time>
      </trkpt>
      <trkpt lat="39.6754800" lon="-0.3789480">
        <ele>370.2</ele>
        <time>2018-05-01T09:45:32Z</time>
      </trkpt>
      <trkpt lat="39.6754940" lon="-0.3790030">
        <ele>371.2</ele>
        <time>2018-05-01T09:45:35Z</time>
      </trkpt>
      <trkpt lat="39.6755250" lon="-0.3790700">
        <ele>372.4</ele>
        <time>2018-05-01T09:45:39Z</time>
      </trkpt>
      <trkpt lat="39.6755550" lon="-0.3791540">
        <ele>373.4</ele>
        <time>2018-05-01T09:45:43Z</time>
      </trkpt>
      <trkpt lat="39.6755880" lon="-0.3792660">
        <ele>374.6</ele>
        <time>2018-05-01T09:45:48Z</time>
      </trkpt>
      <trkpt lat="39.6756150" lon="-0.3793580">
        <ele>375.6</ele>
        <time>2018-05-01T09:45:52Z</time>
      </trkpt>
      <trkpt lat="39.6756400" lon="-0.3794450">
        <ele>377.0</ele>
        <time>2018-05-01T09:45:56Z</time>
      </trkpt>
      <trkpt lat="39.6756690" lon="-0.3795230">
        <ele>378.2</ele>
        <time>2018-05-01T09:46:00Z</time>
      </trkpt>
      <trkpt lat="39.6757020" lon="-0.3796110">
        <ele>379.2</ele>
        <time>2018-05-01T09:46:04Z</time>
      </trkpt>
      <trkpt lat="39.6757130" lon="-0.3797010">
        <ele>380.6</ele>
        <time>2018-05-01T09:46:08Z</time>
      </trkpt>
      <trkpt lat="39.6756850" lon="-0.3798050">
        <ele>381.8</ele>
        <time>2018-05-01T09:46:13Z</time>
      </trkpt>
      <trkpt lat="39.6756490" lon="-0.3798760">
        <ele>382.8</ele>
        <time>2018-05-01T09:46:17Z</time>
      </trkpt>
      <trkpt lat="39.6756060" lon="-0.3799480">
        <ele>384.0</ele>
        <time>2018-05-01T09:46:21Z</time>
      </trkpt>
      <trkpt lat="39.6755500" lon="-0.3800440">
        <ele>385.2</ele>
        <time>2018-05-01T09:46:26Z</time>
      </trkpt>
      <trkpt lat="39.6755180" lon="-0.3801010">
        <ele>386.4</ele>
        <time>2018-05-01T09:46:29Z</time>
      </trkpt>
      <trkpt lat="39.6754770" lon="-0.3801680">
        <ele>387.4</ele>
        <time>2018-05-01T09:46:33Z</time>
      </trkpt>
      <trkpt lat="39.6754490" lon="-0.3802510">
        <ele>388.8</ele>
        <time>2018-05-01T09:46:37Z</time>
      </trkpt>
      <trkpt lat="39.6754230" lon="-0.3803310">
        <ele>390.0</ele>
        <time>2018-05-01T09:46:41Z</time>
      </trkpt>
      <trkpt lat="39.6753860" lon="-0.3804250">
        <ele>391.2</ele>
        <time>2018-05-01T09:46:46Z</time>
      </trkpt>
      <trkpt lat="39.6753610" lon="-0.3805350">
        <ele>392.4</ele>
        <time>2018-05-01T09:46:51Z</time>
      </trkpt>
      <trkpt lat="39.6753420" lon="-0.3806450">
        <ele>393.6</ele>
        <time>2018-05-01T09:46:56Z</time>
      </trkpt>
      <trkpt lat="39.6753160" lon="-0.3807640">
        <ele>394.8</ele>
        <time>2018-05-01T09:47:01Z</time>
      </trkpt>
      <trkpt lat="39.6752560" lon="-0.3809260">
        <ele>396.0</ele>
        <time>2018-05-01T09:47:08Z</time>
      </trkpt>
      <trkpt lat="39.6752000" lon="-0.3810840">
        <ele>397.0</ele>
        <time>2018-05-01T09:47:14Z</time>
      </trkpt>
      <trkpt lat="39.6751150" lon="-0.3812320">
        <ele>398.2</ele>
        <time>2018-05-01T09:47:20Z</time>
      </trkpt>
      <trkpt lat="39.6750180" lon="-0.3813240">
        <ele>399.4</ele>
        <time>2018-05-01T09:47:25Z</time>
      </trkpt>
      <trkpt lat="39.6749300" lon="-0.3813950">
        <ele>400.6</ele>
        <time>2018-05-01T09:47:29Z</time>
      </trkpt>
      <trkpt lat="39.6748140" lon="-0.3814850">
        <ele>401.6</ele>
        <time>2018-05-01T09:47:34Z</time>
      </trkpt>
      <trkpt lat="39.6747180" lon="-0.3815530">
        <ele>402.6</ele>
        <time>2018-05-01T09:47:38Z</time>
      </trkpt>
      <trkpt lat="39.6745950" lon="-0.3816220">
        <ele>403.8</ele>
        <time>2018-05-01T09:47:43Z</time>
      </trkpt>
      <trkpt lat="39.6744260" lon="-0.3817340">
        <ele>404.8</ele>
        <time>2018-05-01T09:47:50Z</time>
      </trkpt>
      <trkpt lat="39.6743230" lon="-0.3818480">
        <ele>405.8</ele>
        <time>2018-05-01T09:47:55Z</time>
      </trkpt>
      <trkpt lat="39.6742840" lon="-0.3819850">
        <ele>407.2</ele>
        <time>2018-05-01T09:47:59Z</time>
      </trkpt>
      <trkpt lat="39.6742990" lon="-0.3821780">
        <ele>408.2</ele>
        <time>2018-05-01T09:48:04Z</time>
      </trkpt>
      <trkpt lat="39.6743510" lon="-0.3823820">
        <ele>409.4</ele>
        <time>2018-05-01T09:48:09Z</time>
      </trkpt>
      <trkpt lat="39.6744100" lon="-0.3825790">
        <ele>410.6</ele>
        <time>2018-05-01T09:48:14Z</time>
      </trkpt>
      <trkpt lat="39.6744680" lon="-0.3827410">
        <ele>411.8</ele>
        <time>2018-05-01T09:48:18Z</time>
      </trkpt>
      <trkpt lat="39.6745140" lon="-0.3829190">
        <ele>413.0</ele>
        <time>2018-05-01T09:48:22Z</time>
      </trkpt>
      <trkpt lat="39.6745380" lon="-0.3830040">
        <ele>413.8</ele>
        <time>2018-05-01T09:48:24Z</time>
      </trkpt>
      <trkpt lat="39.6745490" lon="-0.3830500">
        <ele>414.2</ele>
        <time>2018-05-01T09:48:25Z</time>
      </trkpt>
      <trkpt lat="39.6745850" lon="-0.3831930">
        <ele>415.4</ele>
        <time>2018-05-01T09:48:28Z</time>
      </trkpt>
      <trkpt lat="39.6746010" lon="-0.3832880">
        <ele>416.6</ele>
        <time>2018-05-01T09:48:30Z</time>
      </trkpt>
      <trkpt lat="39.6746230" lon="-0.3833870">
        <ele>417.8</ele>
        <time>2018-05-01T09:48:32Z</time>
      </trkpt>
      <trkpt lat="39.6746420" lon="-0.3835300">
        <ele>418.8</ele>
        <time>2018-05-01T09:48:35Z</time>
      </trkpt>
      <trkpt lat="39.6746140" lon="-0.3837530">
        <ele>420.2</ele>
        <time>2018-05-01T09:48:40Z</time>
      </trkpt>
      <trkpt lat="39.6745580" lon="-0.3838810">
        <ele>422.0</ele>
        <time>2018-05-01T09:48:44Z</time>
      </trkpt>
      <trkpt lat="39.6745270" lon="-0.3839270">
        <ele>423.0</ele>
        <time>2018-05-01T09:48:46Z</time>
      </trkpt>
      <trkpt lat="39.6744600" lon="-0.3840130">
        <ele>424.2</ele>
        <time>2018-05-01T09:48:51Z</time>
      </trkpt>
      <trkpt lat="39.6744090" lon="-0.3840650">
        <ele>425.4</ele>
        <time>2018-05-01T09:48:54Z</time>
      </trkpt>
      <trkpt lat="39.6743530" lon="-0.3841270">
        <ele>426.6</ele>
        <time>2018-05-01T09:48:57Z</time>
      </trkpt>
      <trkpt lat="39.6743010" lon="-0.3841760">
        <ele>427.4</ele>
        <time>2018-05-01T09:49:00Z</time>
      </trkpt>
      <trkpt lat="39.6742790" lon="-0.3841820">
        <ele>427.8</ele>
        <time>2018-05-01T09:49:01Z</time>
      </trkpt>
      <trkpt lat="39.6742420" lon="-0.3842400">
        <ele>428.2</ele>
        <time>2018-05-01T09:49:04Z</time>
      </trkpt>
      <trkpt lat="39.6742330" lon="-0.3842560">
        <ele>428.4</ele>
        <time>2018-05-01T09:49:05Z</time>
      </trkpt>
      <trkpt lat="39.6742080" lon="-0.3842620">
        <ele>429.0</ele>
        <time>2018-05-01T09:49:07Z</time>
      </trkpt>
      <trkpt lat="39.6742050" lon="-0.3842550">
        <ele>429.2</ele>
        <time>2018-05-01T09:49:09Z</time>
      </trkpt>
      <trkpt lat="39.6741840" lon="-0.3842440">
        <ele>430.4</ele>
        <time>2018-05-01T09:50:41Z</time>
      </trkpt>
      <trkpt lat="39.6741700" lon="-0.3842410">
        <ele>430.4</ele>
        <time>2018-05-01T09:50:42Z</time>
      </trkpt>
      <trkpt lat="39.6740670" lon="-0.3842600">
        <ele>430.2</ele>
        <time>2018-05-01T09:50:47Z</time>
      </trkpt>
      <trkpt lat="39.6739740" lon="-0.3842860">
        <ele>429.6</ele>
        <time>2018-05-01T09:50:50Z</time>
      </trkpt>
      <trkpt lat="39.6738630" lon="-0.3843220">
        <ele>429.4</ele>
        <time>2018-05-01T09:50:53Z</time>
      </trkpt>
      <trkpt lat="39.6735750" lon="-0.3844200">
        <ele>428.0</ele>
        <time>2018-05-01T09:51:00Z</time>
      </trkpt>
      <trkpt lat="39.6734100" lon="-0.3844790">
        <ele>427.4</ele>
        <time>2018-05-01T09:51:04Z</time>
      </trkpt>
      <trkpt lat="39.6732310" lon="-0.3845280">
        <ele>427.0</ele>
        <time>2018-05-01T09:51:08Z</time>
      </trkpt>
      <trkpt lat="39.6730480" lon="-0.3845710">
        <ele>426.8</ele>
        <time>2018-05-01T09:51:12Z</time>
      </trkpt>
      <trkpt lat="39.6729180" lon="-0.3846020">
        <ele>426.8</ele>
        <time>2018-05-01T09:51:15Z</time>
      </trkpt>
      <trkpt lat="39.6728020" lon="-0.3846060">
        <ele>426.6</ele>
        <time>2018-05-01T09:51:18Z</time>
      </trkpt>
      <trkpt lat="39.6726610" lon="-0.3845660">
        <ele>426.6</ele>
        <time>2018-05-01T09:51:22Z</time>
      </trkpt>
      <trkpt lat="39.6725560" lon="-0.3845360">
        <ele>426.6</ele>
        <time>2018-05-01T09:51:25Z</time>
      </trkpt>
      <trkpt lat="39.6724900" lon="-0.3845080">
        <ele>426.4</ele>
        <time>2018-05-01T09:51:27Z</time>
      </trkpt>
      <trkpt lat="39.6724290" lon="-0.3844750">
        <ele>426.2</ele>
        <time>2018-05-01T09:51:29Z</time>
      </trkpt>
      <trkpt lat="39.6722740" lon="-0.3843770">
        <ele>425.8</ele>
        <time>2018-05-01T09:51:33Z</time>
      </trkpt>
      <trkpt lat="39.6721710" lon="-0.3842990">
        <ele>425.4</ele>
        <time>2018-05-01T09:51:35Z</time>
      </trkpt>
      <trkpt lat="39.6720030" lon="-0.3841530">
        <ele>424.8</ele>
        <time>2018-05-01T09:51:38Z</time>
      </trkpt>
      <trkpt lat="39.6718860" lon="-0.3840290">
        <ele>423.6</ele>
        <time>2018-05-01T09:51:40Z</time>
      </trkpt>
      <trkpt lat="39.6717670" lon="-0.3838890">
        <ele>421.8</ele>
        <time>2018-05-01T09:51:42Z</time>
      </trkpt>
      <trkpt lat="39.6716500" lon="-0.3837350">
        <ele>420.2</ele>
        <time>2018-05-01T09:51:44Z</time>
      </trkpt>
      <trkpt lat="39.6715810" lon="-0.3836640">
        <ele>419.4</ele>
        <time>2018-05-01T09:51:45Z</time>
      </trkpt>
      <trkpt lat="39.6715020" lon="-0.3836100">
        <ele>418.6</ele>
        <time>2018-05-01T09:51:46Z</time>
      </trkpt>
      <trkpt lat="39.6714120" lon="-0.3835770">
        <ele>417.6</ele>
        <time>2018-05-01T09:51:47Z</time>
      </trkpt>
      <trkpt lat="39.6712410" lon="-0.3835230">
        <ele>416.2</ele>
        <time>2018-05-01T09:51:49Z</time>
      </trkpt>
      <trkpt lat="39.6710970" lon="-0.3834310">
        <ele>415.0</ele>
        <time>2018-05-01T09:51:51Z</time>
      </trkpt>
      <trkpt lat="39.6710050" lon="-0.3832980">
        <ele>413.6</ele>
        <time>2018-05-01T09:51:53Z</time>
      </trkpt>
      <trkpt lat="39.6709610" lon="-0.3832250">
        <ele>412.4</ele>
        <time>2018-05-01T09:51:54Z</time>
      </trkpt>
      <trkpt lat="39.6709060" lon="-0.3831530">
        <ele>411.2</ele>
        <time>2018-05-01T09:51:55Z</time>
      </trkpt>
      <trkpt lat="39.6707750" lon="-0.3830030">
        <ele>409.6</ele>
        <time>2018-05-01T09:51:57Z</time>
      </trkpt>
      <trkpt lat="39.6706970" lon="-0.3829260">
        <ele>409.2</ele>
        <time>2018-05-01T09:51:58Z</time>
      </trkpt>
      <trkpt lat="39.6705210" lon="-0.3827970">
        <ele>408.8</ele>
        <time>2018-05-01T09:52:00Z</time>
      </trkpt>
      <trkpt lat="39.6704380" lon="-0.3827360">
        <ele>408.4</ele>
        <time>2018-05-01T09:52:01Z</time>
      </trkpt>
      <trkpt lat="39.6702810" lon="-0.3826250">
        <ele>406.8</ele>
        <time>2018-05-01T09:52:03Z</time>
      </trkpt>
      <trkpt lat="39.6702050" lon="-0.3825660">
        <ele>404.8</ele>
        <time>2018-05-01T09:52:04Z</time>
      </trkpt>
      <trkpt lat="39.6701320" lon="-0.3825070">
        <ele>402.6</ele>
        <time>2018-05-01T09:52:05Z</time>
      </trkpt>
      <trkpt lat="39.6700620" lon="-0.3824470">
        <ele>400.8</ele>
        <time>2018-05-01T09:52:06Z</time>
      </trkpt>
      <trkpt lat="39.6700000" lon="-0.3823810">
        <ele>398.8</ele>
        <time>2018-05-01T09:52:07Z</time>
      </trkpt>
      <trkpt lat="39.6699470" lon="-0.3823110">
        <ele>395.4</ele>
        <time>2018-05-01T09:52:08Z</time>
      </trkpt>
      <trkpt lat="39.6698940" lon="-0.3822400">
        <ele>393.6</ele>
        <time>2018-05-01T09:52:09Z</time>
      </trkpt>
      <trkpt lat="39.6697820" lon="-0.3821020">
        <ele>392.0</ele>
        <time>2018-05-01T09:52:11Z</time>
      </trkpt>
      <trkpt lat="39.6697310" lon="-0.3820270">
        <ele>391.8</ele>
        <time>2018-05-01T09:52:12Z</time>
      </trkpt>
      <trkpt lat="39.6695470" lon="-0.3818430">
        <ele>390.2</ele>
        <time>2018-05-01T09:52:15Z</time>
      </trkpt>
      <trkpt lat="39.6693210" lon="-0.3818200">
        <ele>388.8</ele>
        <time>2018-05-01T09:52:18Z</time>
      </trkpt>
      <trkpt lat="39.6692480" lon="-0.3818110">
        <ele>387.6</ele>
        <time>2018-05-01T09:52:19Z</time>
      </trkpt>
      <trkpt lat="39.6691090" lon="-0.3817630">
        <ele>386.0</ele>
        <time>2018-05-01T09:52:21Z</time>
      </trkpt>
      <trkpt lat="39.6689800" lon="-0.3817130">
        <ele>384.2</ele>
        <time>2018-05-01T09:52:23Z</time>
      </trkpt>
      <trkpt lat="39.6689190" lon="-0.3816770">
        <ele>382.6</ele>
        <time>2018-05-01T09:52:24Z</time>
      </trkpt>
      <trkpt lat="39.6688650" lon="-0.3816280">
        <ele>381.0</ele>
        <time>2018-05-01T09:52:25Z</time>
      </trkpt>
      <trkpt lat="39.6688150" lon="-0.3815690">
        <ele>379.2</ele>
        <time>2018-05-01T09:52:26Z</time>
      </trkpt>
      <trkpt lat="39.6687630" lon="-0.3815030">
        <ele>377.8</ele>
        <time>2018-05-01T09:52:27Z</time>
      </trkpt>
      <trkpt lat="39.6687070" lon="-0.3814400">
        <ele>376.4</ele>
        <time>2018-05-01T09:52:28Z</time>
      </trkpt>
      <trkpt lat="39.6686550" lon="-0.3813880">
        <ele>375.2</ele>
        <time>2018-05-01T09:52:29Z</time>
      </trkpt>
      <trkpt lat="39.6685580" lon="-0.3813390">
        <ele>373.2</ele>
        <time>2018-05-01T09:52:31Z</time>
      </trkpt>
      <trkpt lat="39.6684560" lon="-0.3813720">
        <ele>372.0</ele>
        <time>2018-05-01T09:52:33Z</time>
      </trkpt>
      <trkpt lat="39.6683610" lon="-0.3814870">
        <ele>370.2</ele>
        <time>2018-05-01T09:52:35Z</time>
      </trkpt>
      <trkpt lat="39.6682970" lon="-0.3816430">
        <ele>368.6</ele>
        <time>2018-05-01T09:52:37Z</time>
      </trkpt>
      <trkpt lat="39.6682270" lon="-0.3818580">
        <ele>367.2</ele>
        <time>2018-05-01T09:52:40Z</time>
      </trkpt>
      <trkpt lat="39.6681590" lon="-0.3820080">
        <ele>365.6</ele>
        <time>2018-05-01T09:52:42Z</time>
      </trkpt>
      <trkpt lat="39.6681140" lon="-0.3821700">
        <ele>364.4</ele>
        <time>2018-05-01T09:52:44Z</time>
      </trkpt>
      <trkpt lat="39.6681010" lon="-0.3822470">
        <ele>364.2</ele>
        <time>2018-05-01T09:52:45Z</time>
      </trkpt>
      <trkpt lat="39.6680830" lon="-0.3823210">
        <ele>364.0</ele>
        <time>2018-05-01T09:52:46Z</time>
      </trkpt>
      <trkpt lat="39.6680510" lon="-0.3824740">
        <ele>362.8</ele>
        <time>2018-05-01T09:52:48Z</time>
      </trkpt>
      <trkpt lat="39.6680360" lon="-0.3825490">
        <ele>361.8</ele>
        <time>2018-05-01T09:52:49Z</time>
      </trkpt>
      <trkpt lat="39.6680190" lon="-0.3826280">
        <ele>360.8</ele>
        <time>2018-05-01T09:52:50Z</time>
      </trkpt>
      <trkpt lat="39.6679920" lon="-0.3827960">
        <ele>359.2</ele>
        <time>2018-05-01T09:52:52Z</time>
      </trkpt>
      <trkpt lat="39.6679880" lon="-0.3828880">
        <ele>358.6</ele>
        <time>2018-05-01T09:52:53Z</time>
      </trkpt>
      <trkpt lat="39.6679910" lon="-0.3829910">
        <ele>357.6</ele>
        <time>2018-05-01T09:52:54Z</time>
      </trkpt>
      <trkpt lat="39.6680470" lon="-0.3832760">
        <ele>356.0</ele>
        <time>2018-05-01T09:52:57Z</time>
      </trkpt>
      <trkpt lat="39.6680820" lon="-0.3833610">
        <ele>354.4</ele>
        <time>2018-05-01T09:52:58Z</time>
      </trkpt>
      <trkpt lat="39.6681140" lon="-0.3834450">
        <ele>353.2</ele>
        <time>2018-05-01T09:52:59Z</time>
      </trkpt>
      <trkpt lat="39.6681420" lon="-0.3835300">
        <ele>351.6</ele>
        <time>2018-05-01T09:53:00Z</time>
      </trkpt>
      <trkpt lat="39.6681660" lon="-0.3836220">
        <ele>350.6</ele>
        <time>2018-05-01T09:53:01Z</time>
      </trkpt>
      <trkpt lat="39.6681900" lon="-0.3838150">
        <ele>348.4</ele>
        <time>2018-05-01T09:53:03Z</time>
      </trkpt>
      <trkpt lat="39.6681950" lon="-0.3840350">
        <ele>346.8</ele>
        <time>2018-05-01T09:53:05Z</time>
      </trkpt>
      <trkpt lat="39.6681920" lon="-0.3841560">
        <ele>346.0</ele>
        <time>2018-05-01T09:53:06Z</time>
      </trkpt>
      <trkpt lat="39.6681860" lon="-0.3842860">
        <ele>345.0</ele>
        <time>2018-05-01T09:53:07Z</time>
      </trkpt>
      <trkpt lat="39.6681610" lon="-0.3845580">
        <ele>343.4</ele>
        <time>2018-05-01T09:53:09Z</time>
      </trkpt>
      <trkpt lat="39.6681210" lon="-0.3848410">
        <ele>341.8</ele>
        <time>2018-05-01T09:53:11Z</time>
      </trkpt>
      <trkpt lat="39.6680970" lon="-0.3849830">
        <ele>340.6</ele>
        <time>2018-05-01T09:53:12Z</time>
      </trkpt>
      <trkpt lat="39.6680710" lon="-0.3851240">
        <ele>338.8</ele>
        <time>2018-05-01T09:53:13Z</time>
      </trkpt>
      <trkpt lat="39.6680400" lon="-0.3852600">
        <ele>337.4</ele>
        <time>2018-05-01T09:53:14Z</time>
      </trkpt>
      <trkpt lat="39.6680090" lon="-0.3853910">
        <ele>336.0</ele>
        <time>2018-05-01T09:53:15Z</time>
      </trkpt>
      <trkpt lat="39.6679770" lon="-0.3855180">
        <ele>333.2</ele>
        <time>2018-05-01T09:53:16Z</time>
      </trkpt>
      <trkpt lat="39.6679460" lon="-0.3856310">
        <ele>331.8</ele>
        <time>2018-05-01T09:53:17Z</time>
      </trkpt>
      <trkpt lat="39.6679260" lon="-0.3857300">
        <ele>330.2</ele>
        <time>2018-05-01T09:53:18Z</time>
      </trkpt>
      <trkpt lat="39.6679130" lon="-0.3858250">
        <ele>328.8</ele>
        <time>2018-05-01T09:53:19Z</time>
      </trkpt>
      <trkpt lat="39.6679010" lon="-0.3859120">
        <ele>327.2</ele>
        <time>2018-05-01T09:53:20Z</time>
      </trkpt>
      <trkpt lat="39.6678880" lon="-0.3859950">
        <ele>326.0</ele>
        <time>2018-05-01T09:53:21Z</time>
      </trkpt>
      <trkpt lat="39.6678770" lon="-0.3860780">
        <ele>324.4</ele>
        <time>2018-05-01T09:53:22Z</time>
      </trkpt>
      <trkpt lat="39.6678730" lon="-0.3861650">
        <ele>322.8</ele>
        <time>2018-05-01T09:53:23Z</time>
      </trkpt>
      <trkpt lat="39.6678820" lon="-0.3863450">
        <ele>321.4</ele>
        <time>2018-05-01T09:53:25Z</time>
      </trkpt>
      <trkpt lat="39.6678870" lon="-0.3864990">
        <ele>321.0</ele>
        <time>2018-05-01T09:53:27Z</time>
      </trkpt>
      <trkpt lat="39.6678970" lon="-0.3866580">
        <ele>320.0</ele>
        <time>2018-05-01T09:53:29Z</time>
      </trkpt>
      <trkpt lat="39.6678960" lon="-0.3867940">
        <ele>319.0</ele>
        <time>2018-05-01T09:53:31Z</time>
      </trkpt>
      <trkpt lat="39.6678870" lon="-0.3868580">
        <ele>317.6</ele>
        <time>2018-05-01T09:53:32Z</time>
      </trkpt>
      <trkpt lat="39.6678860" lon="-0.3869220">
        <ele>316.6</ele>
        <time>2018-05-01T09:53:33Z</time>
      </trkpt>
      <trkpt lat="39.6678840" lon="-0.3869830">
        <ele>315.6</ele>
        <time>2018-05-01T09:53:34Z</time>
      </trkpt>
      <trkpt lat="39.6678550" lon="-0.3870930">
        <ele>313.2</ele>
        <time>2018-05-01T09:53:36Z</time>
      </trkpt>
      <trkpt lat="39.6677750" lon="-0.3871340">
        <ele>311.6</ele>
        <time>2018-05-01T09:53:38Z</time>
      </trkpt>
      <trkpt lat="39.6676790" lon="-0.3870590">
        <ele>310.0</ele>
        <time>2018-05-01T09:53:40Z</time>
      </trkpt>
      <trkpt lat="39.6675940" lon="-0.3869370">
        <ele>308.2</ele>
        <time>2018-05-01T09:53:42Z</time>
      </trkpt>
      <trkpt lat="39.6675510" lon="-0.3868740">
        <ele>307.2</ele>
        <time>2018-05-01T09:53:43Z</time>
      </trkpt>
      <trkpt lat="39.6675040" lon="-0.3868090">
        <ele>306.0</ele>
        <time>2018-05-01T09:53:44Z</time>
      </trkpt>
      <trkpt lat="39.6674010" lon="-0.3866880">
        <ele>304.2</ele>
        <time>2018-05-01T09:53:46Z</time>
      </trkpt>
      <trkpt lat="39.6672680" lon="-0.3866110">
        <ele>302.6</ele>
        <time>2018-05-01T09:53:48Z</time>
      </trkpt>
      <trkpt lat="39.6671960" lon="-0.3865840">
        <ele>300.8</ele>
        <time>2018-05-01T09:53:49Z</time>
      </trkpt>
      <trkpt lat="39.6670690" lon="-0.3865010">
        <ele>299.8</ele>
        <time>2018-05-01T09:53:51Z</time>
      </trkpt>
      <trkpt lat="39.6669790" lon="-0.3863450">
        <ele>298.8</ele>
        <time>2018-05-01T09:53:53Z</time>
      </trkpt>
      <trkpt lat="39.6668020" lon="-0.3861530">
        <ele>297.2</ele>
        <time>2018-05-01T09:53:56Z</time>
      </trkpt>
      <trkpt lat="39.6666480" lon="-0.3861300">
        <ele>296.0</ele>
        <time>2018-05-01T09:53:58Z</time>
      </trkpt>
      <trkpt lat="39.6665000" lon="-0.3861100">
        <ele>294.0</ele>
        <time>2018-05-01T09:54:00Z</time>
      </trkpt>
      <trkpt lat="39.6664320" lon="-0.3860690">
        <ele>293.0</ele>
        <time>2018-05-01T09:54:01Z</time>
      </trkpt>
      <trkpt lat="39.6662940" lon="-0.3859630">
        <ele>291.2</ele>
        <time>2018-05-01T09:54:03Z</time>
      </trkpt>
      <trkpt lat="39.6661290" lon="-0.3858900">
        <ele>290.0</ele>
        <time>2018-05-01T09:54:05Z</time>
      </trkpt>
      <trkpt lat="39.6658040" lon="-0.3857920">
        <ele>289.0</ele>
        <time>2018-05-01T09:54:09Z</time>
      </trkpt>
      <trkpt lat="39.6656970" lon="-0.3856520">
        <ele>287.2</ele>
        <time>2018-05-01T09:54:11Z</time>
      </trkpt>
      <trkpt lat="39.6656600" lon="-0.3855740">
        <ele>286.6</ele>
        <time>2018-05-01T09:54:12Z</time>
      </trkpt>
      <trkpt lat="39.6656200" lon="-0.3855060">
        <ele>285.4</ele>
        <time>2018-05-01T09:54:13Z</time>
      </trkpt>
      <trkpt lat="39.6655180" lon="-0.3854520">
        <ele>284.2</ele>
        <time>2018-05-01T09:54:15Z</time>
      </trkpt>
      <trkpt lat="39.6652800" lon="-0.3855850">
        <ele>283.0</ele>
        <time>2018-05-01T09:54:19Z</time>
      </trkpt>
      <trkpt lat="39.6652320" lon="-0.3856360">
        <ele>282.8</ele>
        <time>2018-05-01T09:54:20Z</time>
      </trkpt>
      <trkpt lat="39.6651760" lon="-0.3856720">
        <ele>282.4</ele>
        <time>2018-05-01T09:54:22Z</time>
      </trkpt>
      <trkpt lat="39.6651560" lon="-0.3856570">
        <ele>282.0</ele>
        <time>2018-05-01T09:54:24Z</time>
      </trkpt>
      <trkpt lat="39.6651580" lon="-0.3856560">
        <ele>281.2</ele>
        <time>2018-05-01T09:54:25Z</time>
      </trkpt>
      <trkpt lat="39.6652180" lon="-0.3856250">
        <ele>280.2</ele>
        <time>2018-05-01T09:54:35Z</time>
      </trkpt>
      <trkpt lat="39.6652980" lon="-0.3855550">
        <ele>280.4</ele>
        <time>2018-05-01T09:54:40Z</time>
      </trkpt>
      <trkpt lat="39.6653580" lon="-0.3855100">
        <ele>281.0</ele>
        <time>2018-05-01T09:54:44Z</time>
      </trkpt>
      <trkpt lat="39.6653750" lon="-0.3854950">
        <ele>281.2</ele>
        <time>2018-05-01T09:54:45Z</time>
      </trkpt>
      <trkpt lat="39.6654400" lon="-0.3854620">
        <ele>281.8</ele>
        <time>2018-05-01T09:54:48Z</time>
      </trkpt>
      <trkpt lat="39.6654930" lon="-0.3854520">
        <ele>282.2</ele>
        <time>2018-05-01T09:54:50Z</time>
      </trkpt>
      <trkpt lat="39.6655560" lon="-0.3854620">
        <ele>282.4</ele>
        <time>2018-05-01T09:54:52Z</time>
      </trkpt>
      <trkpt lat="39.6655860" lon="-0.3854810">
        <ele>282.6</ele>
        <time>2018-05-01T09:54:53Z</time>
      </trkpt>
      <trkpt lat="39.6656330" lon="-0.3855810">
        <ele>283.2</ele>
        <time>2018-05-01T09:54:56Z</time>
      </trkpt>
      <trkpt lat="39.6656380" lon="-0.3856140">
        <ele>283.4</ele>
        <time>2018-05-01T09:54:57Z</time>
      </trkpt>
      <trkpt lat="39.6657140" lon="-0.3858890">
        <ele>284.2</ele>
        <time>2018-05-01T09:55:03Z</time>
      </trkpt>
      <trkpt lat="39.6657510" lon="-0.3859380">
        <ele>284.2</ele>
        <time>2018-05-01T09:55:04Z</time>
      </trkpt>
      <trkpt lat="39.6659810" lon="-0.3860500">
        <ele>284.2</ele>
        <time>2018-05-01T09:55:08Z</time>
      </trkpt>
      <trkpt lat="39.6660460" lon="-0.3860690">
        <ele>283.6</ele>
        <time>2018-05-01T09:55:09Z</time>
      </trkpt>
      <trkpt lat="39.6661680" lon="-0.3861340">
        <ele>282.2</ele>
        <time>2018-05-01T09:55:11Z</time>
      </trkpt>
      <trkpt lat="39.6662840" lon="-0.3862290">
        <ele>280.6</ele>
        <time>2018-05-01T09:55:13Z</time>
      </trkpt>
      <trkpt lat="39.6663430" lon="-0.3862840">
        <ele>279.6</ele>
        <time>2018-05-01T09:55:14Z</time>
      </trkpt>
      <trkpt lat="39.6664780" lon="-0.3863780">
        <ele>278.2</ele>
        <time>2018-05-01T09:55:16Z</time>
      </trkpt>
      <trkpt lat="39.6666070" lon="-0.3864350">
        <ele>277.6</ele>
        <time>2018-05-01T09:55:18Z</time>
      </trkpt>
      <trkpt lat="39.6666610" lon="-0.3864650">
        <ele>277.0</ele>
        <time>2018-05-01T09:55:19Z</time>
      </trkpt>
      <trkpt lat="39.6667170" lon="-0.3865600">
        <ele>276.0</ele>
        <time>2018-05-01T09:55:21Z</time>
      </trkpt>
      <trkpt lat="39.6666830" lon="-0.3866820">
        <ele>274.6</ele>
        <time>2018-05-01T09:55:23Z</time>
      </trkpt>
      <trkpt lat="39.6665920" lon="-0.3868210">
        <ele>273.2</ele>
        <time>2018-05-01T09:55:25Z</time>
      </trkpt>
      <trkpt lat="39.6665380" lon="-0.3868930">
        <ele>272.8</ele>
        <time>2018-05-01T09:55:26Z</time>
      </trkpt>
      <trkpt lat="39.6664060" lon="-0.3870930">
        <ele>272.0</ele>
        <time>2018-05-01T09:55:29Z</time>
      </trkpt>
      <trkpt lat="39.6663610" lon="-0.3871560">
        <ele>270.2</ele>
        <time>2018-05-01T09:55:30Z</time>
      </trkpt>
      <trkpt lat="39.6663140" lon="-0.3872200">
        <ele>269.2</ele>
        <time>2018-05-01T09:55:31Z</time>
      </trkpt>
      <trkpt lat="39.6662050" lon="-0.3873520">
        <ele>268.0</ele>
        <time>2018-05-01T09:55:33Z</time>
      </trkpt>
      <trkpt lat="39.6660940" lon="-0.3874780">
        <ele>267.0</ele>
        <time>2018-05-01T09:55:35Z</time>
      </trkpt>
      <trkpt lat="39.6659990" lon="-0.3876040">
        <ele>265.6</ele>
        <time>2018-05-01T09:55:37Z</time>
      </trkpt>
      <trkpt lat="39.6659610" lon="-0.3876610">
        <ele>264.0</ele>
        <time>2018-05-01T09:55:38Z</time>
      </trkpt>
      <trkpt lat="39.6659290" lon="-0.3877160">
        <ele>262.4</ele>
        <time>2018-05-01T09:55:39Z</time>
      </trkpt>
      <trkpt lat="39.6658980" lon="-0.3877650">
        <ele>260.6</ele>
        <time>2018-05-01T09:55:40Z</time>
      </trkpt>
      <trkpt lat="39.6658650" lon="-0.3878040">
        <ele>258.4</ele>
        <time>2018-05-01T09:55:41Z</time>
      </trkpt>
      <trkpt lat="39.6658180" lon="-0.3878330">
        <ele>257.0</ele>
        <time>2018-05-01T09:55:42Z</time>
      </trkpt>
      <trkpt lat="39.6657180" lon="-0.3878390">
        <ele>255.0</ele>
        <time>2018-05-01T09:55:44Z</time>
      </trkpt>
      <trkpt lat="39.6655900" lon="-0.3877940">
        <ele>253.0</ele>
        <time>2018-05-01T09:55:46Z</time>
      </trkpt>
      <trkpt lat="39.6655160" lon="-0.3877590">
        <ele>252.0</ele>
        <time>2018-05-01T09:55:47Z</time>
      </trkpt>
      <trkpt lat="39.6654350" lon="-0.3877240">
        <ele>250.8</ele>
        <time>2018-05-01T09:55:48Z</time>
      </trkpt>
      <trkpt lat="39.6653480" lon="-0.3876920">
        <ele>249.8</ele>
        <time>2018-05-01T09:55:49Z</time>
      </trkpt>
      <trkpt lat="39.6652610" lon="-0.3876650">
        <ele>248.8</ele>
        <time>2018-05-01T09:55:50Z</time>
      </trkpt>
      <trkpt lat="39.6651860" lon="-0.3876410">
        <ele>247.4</ele>
        <time>2018-05-01T09:55:51Z</time>
      </trkpt>
      <trkpt lat="39.6651200" lon="-0.3876230">
        <ele>246.0</ele>
        <time>2018-05-01T09:55:52Z</time>
      </trkpt>
      <trkpt lat="39.6650620" lon="-0.3876050">
        <ele>244.4</ele>
        <time>2018-05-01T09:55:53Z</time>
      </trkpt>
      <trkpt lat="39.6650030" lon="-0.3875900">
        <ele>242.6</ele>
        <time>2018-05-01T09:55:54Z</time>
      </trkpt>
      <trkpt lat="39.6649390" lon="-0.3875780">
        <ele>240.8</ele>
        <time>2018-05-01T09:55:55Z</time>
      </trkpt>
      <trkpt lat="39.6648710" lon="-0.3875690">
        <ele>239.0</ele>
        <time>2018-05-01T09:55:56Z</time>
      </trkpt>
      <trkpt lat="39.6648030" lon="-0.3875600">
        <ele>236.8</ele>
        <time>2018-05-01T09:55:57Z</time>
      </trkpt>
      <trkpt lat="39.6647380" lon="-0.3875480">
        <ele>235.4</ele>
        <time>2018-05-01T09:55:58Z</time>
      </trkpt>
      <trkpt lat="39.6646720" lon="-0.3875340">
        <ele>234.0</ele>
        <time>2018-05-01T09:55:59Z</time>
      </trkpt>
      <trkpt lat="39.6645370" lon="-0.3874980">
        <ele>232.6</ele>
        <time>2018-05-01T09:56:01Z</time>
      </trkpt>
      <trkpt lat="39.6644410" lon="-0.3874540">
        <ele>231.2</ele>
        <time>2018-05-01T09:56:03Z</time>
      </trkpt>
      <trkpt lat="39.6643980" lon="-0.3874390">
        <ele>229.2</ele>
        <time>2018-05-01T09:56:04Z</time>
      </trkpt>
      <trkpt lat="39.6643560" lon="-0.3874210">
        <ele>229.0</ele>
        <time>2018-05-01T09:56:05Z</time>
      </trkpt>
      <trkpt lat="39.6642300" lon="-0.3873360">
        <ele>228.6</ele>
        <time>2018-05-01T09:56:09Z</time>
      </trkpt>
      <trkpt lat="39.6641880" lon="-0.3873030">
        <ele>228.6</ele>
        <time>2018-05-01T09:56:11Z</time>
      </trkpt>
      <trkpt lat="39.6641510" lon="-0.3872640">
        <ele>228.6</ele>
        <time>2018-05-01T09:56:13Z</time>
      </trkpt>
      <trkpt lat="39.6641140" lon="-0.3872220">
        <ele>229.0</ele>
        <time>2018-05-01T09:56:15Z</time>
      </trkpt>
      <trkpt lat="39.6640980" lon="-0.3872040">
        <ele>229.4</ele>
        <time>2018-05-01T09:56:16Z</time>
      </trkpt>
      <trkpt lat="39.6640740" lon="-0.3871540">
        <ele>230.4</ele>
        <time>2018-05-01T09:56:18Z</time>
      </trkpt>
      <trkpt lat="39.6640320" lon="-0.3869110">
        <ele>231.2</ele>
        <time>2018-05-01T09:56:23Z</time>
      </trkpt>
      <trkpt lat="39.6639760" lon="-0.3868130">
        <ele>231.2</ele>
        <time>2018-05-01T09:56:25Z</time>
      </trkpt>
      <trkpt lat="39.6639070" lon="-0.3867390">
        <ele>231.2</ele>
        <time>2018-05-01T09:56:27Z</time>
      </trkpt>
      <trkpt lat="39.6637480" lon="-0.3866470">
        <ele>230.8</ele>
        <time>2018-05-01T09:56:33Z</time>
      </trkpt>
      <trkpt lat="39.6637490" lon="-0.3867450">
        <ele>231.0</ele>
        <time>2018-05-01T09:56:37Z</time>
      </trkpt>
      <trkpt lat="39.6637760" lon="-0.3868320">
        <ele>231.6</ele>
        <time>2018-05-01T09:56:40Z</time>
      </trkpt>
      <trkpt lat="39.6638220" lon="-0.3869330">
        <ele>232.8</ele>
        <time>2018-05-01T09:56:44Z</time>
      </trkpt>
      <trkpt lat="39.6638690" lon="-0.3870290">
        <ele>233.4</ele>
        <time>2018-05-01T09:56:48Z</time>
      </trkpt>
      <trkpt lat="39.6638900" lon="-0.3870960">
        <ele>234.0</ele>
        <time>2018-05-01T09:56:51Z</time>
      </trkpt>
      <trkpt lat="39.6638930" lon="-0.3871570">
        <ele>234.8</ele>
        <time>2018-05-01T09:56:54Z</time>
      </trkpt>
      <trkpt lat="39.6638890" lon="-0.3871810">
        <ele>235.0</ele>
        <time>2018-05-01T09:56:55Z</time>
      </trkpt>
      <trkpt lat="39.6638840" lon="-0.3872230">
        <ele>235.8</ele>
        <time>2018-05-01T09:56:57Z</time>
      </trkpt>
      <trkpt lat="39.6638700" lon="-0.3872600">
        <ele>236.2</ele>
        <time>2018-05-01T09:56:59Z</time>
      </trkpt>
      <trkpt lat="39.6638570" lon="-0.3872940">
        <ele>237.0</ele>
        <time>2018-05-01T09:57:01Z</time>
      </trkpt>
      <trkpt lat="39.6638490" lon="-0.3873120">
        <ele>237.4</ele>
        <time>2018-05-01T09:57:02Z</time>
      </trkpt>
      <trkpt lat="39.6638300" lon="-0.3873740">
        <ele>238.4</ele>
        <time>2018-05-01T09:57:05Z</time>
      </trkpt>
      <trkpt lat="39.6638160" lon="-0.3874330">
        <ele>239.4</ele>
        <time>2018-05-01T09:57:08Z</time>
      </trkpt>
      <trkpt lat="39.6638050" lon="-0.3874740">
        <ele>240.4</ele>
        <time>2018-05-01T09:57:10Z</time>
      </trkpt>
      <trkpt lat="39.6637990" lon="-0.3875130">
        <ele>241.8</ele>
        <time>2018-05-01T09:57:12Z</time>
      </trkpt>
      <trkpt lat="39.6637860" lon="-0.3875700">
        <ele>242.8</ele>
        <time>2018-05-01T09:57:15Z</time>
      </trkpt>
      <trkpt lat="39.6637780" lon="-0.3876180">
        <ele>244.0</ele>
        <time>2018-05-01T09:57:18Z</time>
      </trkpt>
      <trkpt lat="39.6637790" lon="-0.3876730">
        <ele>245.0</ele>
        <time>2018-05-01T09:57:21Z</time>
      </trkpt>
      <trkpt lat="39.6637990" lon="-0.3877500">
        <ele>246.0</ele>
        <time>2018-05-01T09:57:25Z</time>
      </trkpt>
      <trkpt lat="39.6638290" lon="-0.3878260">
        <ele>247.0</ele>
        <time>2018-05-01T09:57:29Z</time>
      </trkpt>
      <trkpt lat="39.6638660" lon="-0.3878840">
        <ele>248.2</ele>
        <time>2018-05-01T09:57:33Z</time>
      </trkpt>
      <trkpt lat="39.6638960" lon="-0.3879490">
        <ele>249.4</ele>
        <time>2018-05-01T09:57:37Z</time>
      </trkpt>
      <trkpt lat="39.6639250" lon="-0.3880300">
        <ele>250.6</ele>
        <time>2018-05-01T09:57:41Z</time>
      </trkpt>
      <trkpt lat="39.6639420" lon="-0.3881050">
        <ele>252.0</ele>
        <time>2018-05-01T09:57:45Z</time>
      </trkpt>
      <trkpt lat="39.6639460" lon="-0.3881900">
        <ele>253.0</ele>
        <time>2018-05-01T09:57:50Z</time>
      </trkpt>
      <trkpt lat="39.6639510" lon="-0.3882740">
        <ele>254.2</ele>
        <time>2018-05-01T09:57:55Z</time>
      </trkpt>
      <trkpt lat="39.6639510" lon="-0.3882910">
        <ele>254.2</ele>
        <time>2018-05-01T09:57:56Z</time>
      </trkpt>
      <trkpt lat="39.6639440" lon="-0.3883390">
        <ele>255.2</ele>
        <time>2018-05-01T09:57:59Z</time>
      </trkpt>
      <trkpt lat="39.6639410" lon="-0.3884040">
        <ele>256.2</ele>
        <time>2018-05-01T09:58:03Z</time>
      </trkpt>
      <trkpt lat="39.6639230" lon="-0.3884650">
        <ele>257.4</ele>
        <time>2018-05-01T09:58:07Z</time>
      </trkpt>
      <trkpt lat="39.6639210" lon="-0.3884870">
        <ele>258.2</ele>
        <time>2018-05-01T09:58:09Z</time>
      </trkpt>
      <trkpt lat="39.6639210" lon="-0.3885970">
        <ele>260.0</ele>
        <time>2018-05-01T09:58:16Z</time>
      </trkpt>
      <trkpt lat="39.6639080" lon="-0.3886840">
        <ele>261.2</ele>
        <time>2018-05-01T09:58:21Z</time>
      </trkpt>
      <trkpt lat="39.6639130" lon="-0.3887450">
        <ele>261.8</ele>
        <time>2018-05-01T09:58:25Z</time>
      </trkpt>
      <trkpt lat="39.6639220" lon="-0.3887790">
        <ele>262.4</ele>
        <time>2018-05-01T09:58:27Z</time>
      </trkpt>
      <trkpt lat="39.6639460" lon="-0.3888240">
        <ele>263.6</ele>
        <time>2018-05-01T09:58:30Z</time>
      </trkpt>
      <trkpt lat="39.6639710" lon="-0.3888890">
        <ele>264.8</ele>
        <time>2018-05-01T09:58:34Z</time>
      </trkpt>
      <trkpt lat="39.6640040" lon="-0.3889770">
        <ele>265.8</ele>
        <time>2018-05-01T09:58:39Z</time>
      </trkpt>
      <trkpt lat="39.6640540" lon="-0.3890780">
        <ele>267.0</ele>
        <time>2018-05-01T09:58:44Z</time>
      </trkpt>
      <trkpt lat="39.6641100" lon="-0.3891890">
        <ele>268.0</ele>
        <time>2018-05-01T09:58:49Z</time>
      </trkpt>
      <trkpt lat="39.6641740" lon="-0.3893330">
        <ele>268.6</ele>
        <time>2018-05-01T09:58:54Z</time>
      </trkpt>
      <trkpt lat="39.6642850" lon="-0.3894360">
        <ele>269.0</ele>
        <time>2018-05-01T09:58:59Z</time>
      </trkpt>
      <trkpt lat="39.6643890" lon="-0.3893900">
        <ele>269.2</ele>
        <time>2018-05-01T09:59:04Z</time>
      </trkpt>
      <trkpt lat="39.6645680" lon="-0.3893050">
        <ele>270.2</ele>
        <time>2018-05-01T09:59:14Z</time>
      </trkpt>
      <trkpt lat="39.6646270" lon="-0.3893280">
        <ele>271.4</ele>
        <time>2018-05-01T09:59:17Z</time>
      </trkpt>
      <trkpt lat="39.6646730" lon="-0.3893770">
        <ele>272.8</ele>
        <time>2018-05-01T09:59:20Z</time>
      </trkpt>
      <trkpt lat="39.6647120" lon="-0.3894210">
        <ele>273.8</ele>
        <time>2018-05-01T09:59:23Z</time>
      </trkpt>
      <trkpt lat="39.6647490" lon="-0.3895170">
        <ele>275.0</ele>
        <time>2018-05-01T09:59:27Z</time>
      </trkpt>
      <trkpt lat="39.6647840" lon="-0.3896130">
        <ele>276.2</ele>
        <time>2018-05-01T09:59:31Z</time>
      </trkpt>
      <trkpt lat="39.6648670" lon="-0.3897440">
        <ele>277.2</ele>
        <time>2018-05-01T09:59:38Z</time>
      </trkpt>
      <trkpt lat="39.6648930" lon="-0.3898900">
        <ele>278.6</ele>
        <time>2018-05-01T09:59:44Z</time>
      </trkpt>
      <trkpt lat="39.6649110" lon="-0.3899690">
        <ele>279.6</ele>
        <time>2018-05-01T09:59:47Z</time>
      </trkpt>
      <trkpt lat="39.6649480" lon="-0.3900490">
        <ele>280.6</ele>
        <time>2018-05-01T09:59:50Z</time>
      </trkpt>
      <trkpt lat="39.6650510" lon="-0.3901630">
        <ele>281.8</ele>
        <time>2018-05-01T09:59:55Z</time>
      </trkpt>
      <trkpt lat="39.6651390" lon="-0.3902790">
        <ele>282.0</ele>
        <time>2018-05-01T09:59:59Z</time>
      </trkpt>
      <trkpt lat="39.6652180" lon="-0.3904310">
        <ele>282.0</ele>
        <time>2018-05-01T10:00:03Z</time>
      </trkpt>
      <trkpt lat="39.6652840" lon="-0.3904940">
        <ele>282.0</ele>
        <time>2018-05-01T10:00:05Z</time>
      </trkpt>
      <trkpt lat="39.6654100" lon="-0.3905180">
        <ele>281.6</ele>
        <time>2018-05-01T10:00:08Z</time>
      </trkpt>
      <trkpt lat="39.6655080" lon="-0.3904780">
        <ele>281.6</ele>
        <time>2018-05-01T10:00:11Z</time>
      </trkpt>
      <trkpt lat="39.6656540" lon="-0.3904110">
        <ele>281.6</ele>
        <time>2018-05-01T10:00:16Z</time>
      </trkpt>
      <trkpt lat="39.6657360" lon="-0.3903530">
        <ele>281.8</ele>
        <time>2018-05-01T10:00:19Z</time>
      </trkpt>
      <trkpt lat="39.6658210" lon="-0.3903130">
        <ele>282.0</ele>
        <time>2018-05-01T10:00:22Z</time>
      </trkpt>
      <trkpt lat="39.6659340" lon="-0.3903710">
        <ele>282.4</ele>
        <time>2018-05-01T10:00:26Z</time>
      </trkpt>
      <trkpt lat="39.6659990" lon="-0.3904500">
        <ele>282.8</ele>
        <time>2018-05-01T10:00:29Z</time>
      </trkpt>
      <trkpt lat="39.6660190" lon="-0.3904780">
        <ele>283.0</ele>
        <time>2018-05-01T10:00:30Z</time>
      </trkpt>
      <trkpt lat="39.6660700" lon="-0.3905580">
        <ele>284.0</ele>
        <time>2018-05-01T10:00:33Z</time>
      </trkpt>
      <trkpt lat="39.6661330" lon="-0.3906840">
        <ele>285.2</ele>
        <time>2018-05-01T10:00:38Z</time>
      </trkpt>
      <trkpt lat="39.6661960" lon="-0.3908350">
        <ele>286.2</ele>
        <time>2018-05-01T10:00:44Z</time>
      </trkpt>
      <trkpt lat="39.6662350" lon="-0.3909370">
        <ele>287.2</ele>
        <time>2018-05-01T10:00:48Z</time>
      </trkpt>
      <trkpt lat="39.6662730" lon="-0.3910300">
        <ele>288.4</ele>
        <time>2018-05-01T10:00:52Z</time>
      </trkpt>
      <trkpt lat="39.6663230" lon="-0.3911390">
        <ele>289.4</ele>
        <time>2018-05-01T10:00:56Z</time>
      </trkpt>
      <trkpt lat="39.6663480" lon="-0.3912740">
        <ele>290.6</ele>
        <time>2018-05-01T10:01:01Z</time>
      </trkpt>
      <trkpt lat="39.6663720" lon="-0.3913450">
        <ele>291.6</ele>
        <time>2018-05-01T10:01:04Z</time>
      </trkpt>
      <trkpt lat="39.6664080" lon="-0.3914310">
        <ele>292.8</ele>
        <time>2018-05-01T10:01:08Z</time>
      </trkpt>
      <trkpt lat="39.6664360" lon="-0.3914920">
        <ele>293.8</ele>
        <time>2018-05-01T10:01:11Z</time>
      </trkpt>
      <trkpt lat="39.6664810" lon="-0.3916090">
        <ele>294.8</ele>
        <time>2018-05-01T10:01:17Z</time>
      </trkpt>
      <trkpt lat="39.6665030" lon="-0.3916900">
        <ele>296.0</ele>
        <time>2018-05-01T10:01:21Z</time>
      </trkpt>
      <trkpt lat="39.6665210" lon="-0.3917750">
        <ele>297.2</ele>
        <time>2018-05-01T10:01:25Z</time>
      </trkpt>
      <trkpt lat="39.6665340" lon="-0.3918650">
        <ele>298.4</ele>
        <time>2018-05-01T10:01:29Z</time>
      </trkpt>
      <trkpt lat="39.6665450" lon="-0.3919390">
        <ele>299.4</ele>
        <time>2018-05-01T10:01:32Z</time>
      </trkpt>
      <trkpt lat="39.6665490" lon="-0.3920150">
        <ele>300.4</ele>
        <time>2018-05-01T10:01:35Z</time>
      </trkpt>
      <trkpt lat="39.6665540" lon="-0.3921160">
        <ele>301.6</ele>
        <time>2018-05-01T10:01:39Z</time>
      </trkpt>
      <trkpt lat="39.6665470" lon="-0.3921870">
        <ele>302.8</ele>
        <time>2018-05-01T10:01:42Z</time>
      </trkpt>
      <trkpt lat="39.6665440" lon="-0.3922360">
        <ele>304.0</ele>
        <time>2018-05-01T10:01:44Z</time>
      </trkpt>
      <trkpt lat="39.6665500" lon="-0.3923300">
        <ele>305.0</ele>
        <time>2018-05-01T10:01:48Z</time>
      </trkpt>
      <trkpt lat="39.6665720" lon="-0.3924460">
        <ele>306.0</ele>
        <time>2018-05-01T10:01:53Z</time>
      </trkpt>
      <trkpt lat="39.6666120" lon="-0.3926000">
        <ele>307.2</ele>
        <time>2018-05-01T10:01:59Z</time>
      </trkpt>
      <trkpt lat="39.6666520" lon="-0.3927320">
        <ele>308.4</ele>
        <time>2018-05-01T10:02:04Z</time>
      </trkpt>
      <trkpt lat="39.6666960" lon="-0.3929070">
        <ele>309.4</ele>
        <time>2018-05-01T10:02:11Z</time>
      </trkpt>
      <trkpt lat="39.6666960" lon="-0.3929320">
        <ele>309.6</ele>
        <time>2018-05-01T10:02:12Z</time>
      </trkpt>
      <trkpt lat="39.6666900" lon="-0.3931120">
        <ele>310.6</ele>
        <time>2018-05-01T10:02:19Z</time>
      </trkpt>
      <trkpt lat="39.6666680" lon="-0.3932690">
        <ele>311.8</ele>
        <time>2018-05-01T10:02:25Z</time>
      </trkpt>
      <trkpt lat="39.6666340" lon="-0.3934560">
        <ele>313.0</ele>
        <time>2018-05-01T10:02:32Z</time>
      </trkpt>
      <trkpt lat="39.6665990" lon="-0.3936600">
        <ele>314.2</ele>
        <time>2018-05-01T10:02:39Z</time>
      </trkpt>
      <trkpt lat="39.6667090" lon="-0.3937860">
        <ele>315.2</ele>
        <time>2018-05-01T10:02:45Z</time>
      </trkpt>
      <trkpt lat="39.6668120" lon="-0.3938110">
        <ele>315.8</ele>
        <time>2018-05-01T10:02:49Z</time>
      </trkpt>
      <trkpt lat="39.6668850" lon="-0.3938160">
        <ele>315.8</ele>
        <time>2018-05-01T10:02:52Z</time>
      </trkpt>
      <trkpt lat="39.6669750" lon="-0.3938110">
        <ele>316.4</ele>
        <time>2018-05-01T10:02:56Z</time>
      </trkpt>
      <trkpt lat="39.6671770" lon="-0.3938800">
        <ele>317.4</ele>
        <time>2018-05-01T10:03:05Z</time>
      </trkpt>
      <trkpt lat="39.6672740" lon="-0.3939920">
        <ele>318.4</ele>
        <time>2018-05-01T10:03:10Z</time>
      </trkpt>
      <trkpt lat="39.6673180" lon="-0.3941710">
        <ele>319.8</ele>
        <time>2018-05-01T10:03:15Z</time>
      </trkpt>
      <trkpt lat="39.6673510" lon="-0.3942910">
        <ele>320.2</ele>
        <time>2018-05-01T10:03:18Z</time>
      </trkpt>
      <trkpt lat="39.6673840" lon="-0.3943780">
        <ele>320.4</ele>
        <time>2018-05-01T10:03:20Z</time>
      </trkpt>
      <trkpt lat="39.6674220" lon="-0.3944620">
        <ele>320.6</ele>
        <time>2018-05-01T10:03:22Z</time>
      </trkpt>
      <trkpt lat="39.6675270" lon="-0.3946130">
        <ele>320.6</ele>
        <time>2018-05-01T10:03:26Z</time>
      </trkpt>
      <trkpt lat="39.6676350" lon="-0.3946790">
        <ele>320.6</ele>
        <time>2018-05-01T10:03:29Z</time>
      </trkpt>
      <trkpt lat="39.6678740" lon="-0.3947690">
        <ele>320.4</ele>
        <time>2018-05-01T10:03:35Z</time>
      </trkpt>
      <trkpt lat="39.6679410" lon="-0.3948390">
        <ele>320.4</ele>
        <time>2018-05-01T10:03:37Z</time>
      </trkpt>
      <trkpt lat="39.6679690" lon="-0.3950110">
        <ele>320.4</ele>
        <time>2018-05-01T10:03:40Z</time>
      </trkpt>
      <trkpt lat="39.6679420" lon="-0.3951290">
        <ele>320.2</ele>
        <time>2018-05-01T10:03:42Z</time>
      </trkpt>
      <trkpt lat="39.6678770" lon="-0.3954490">
        <ele>320.0</ele>
        <time>2018-05-01T10:03:47Z</time>
      </trkpt>
      <trkpt lat="39.6678720" lon="-0.3955210">
        <ele>319.8</ele>
        <time>2018-05-01T10:03:48Z</time>
      </trkpt>
      <trkpt lat="39.6678830" lon="-0.3956670">
        <ele>319.6</ele>
        <time>2018-05-01T10:03:50Z</time>
      </trkpt>
      <trkpt lat="39.6680560" lon="-0.3958880">
        <ele>319.0</ele>
        <time>2018-05-01T10:03:55Z</time>
      </trkpt>
      <trkpt lat="39.6681460" lon="-0.3959000">
        <ele>318.6</ele>
        <time>2018-05-01T10:03:57Z</time>
      </trkpt>
      <trkpt lat="39.6682230" lon="-0.3959040">
        <ele>318.8</ele>
        <time>2018-05-01T10:03:59Z</time>
      </trkpt>
      <trkpt lat="39.6682950" lon="-0.3959020">
        <ele>318.6</ele>
        <time>2018-05-01T10:04:01Z</time>
      </trkpt>
      <trkpt lat="39.6683620" lon="-0.3958850">
        <ele>318.6</ele>
        <time>2018-05-01T10:04:03Z</time>
      </trkpt>
      <trkpt lat="39.6684260" lon="-0.3958660">
        <ele>318.6</ele>
        <time>2018-05-01T10:04:05Z</time>
      </trkpt>
      <trkpt lat="39.6684840" lon="-0.3958540">
        <ele>319.2</ele>
        <time>2018-05-01T10:04:07Z</time>
      </trkpt>
      <trkpt lat="39.6685400" lon="-0.3958480">
        <ele>319.8</ele>
        <time>2018-05-01T10:04:09Z</time>
      </trkpt>
      <trkpt lat="39.6685690" lon="-0.3958460">
        <ele>320.0</ele>
        <time>2018-05-01T10:04:10Z</time>
      </trkpt>
      <trkpt lat="39.6686270" lon="-0.3958450">
        <ele>320.2</ele>
        <time>2018-05-01T10:04:12Z</time>
      </trkpt>
      <trkpt lat="39.6687120" lon="-0.3958580">
        <ele>321.2</ele>
        <time>2018-05-01T10:04:15Z</time>
      </trkpt>
      <trkpt lat="39.6687670" lon="-0.3958700">
        <ele>322.4</ele>
        <time>2018-05-01T10:04:17Z</time>
      </trkpt>
      <trkpt lat="39.6688200" lon="-0.3958910">
        <ele>323.2</ele>
        <time>2018-05-01T10:04:19Z</time>
      </trkpt>
      <trkpt lat="39.6688460" lon="-0.3959010">
        <ele>323.4</ele>
        <time>2018-05-01T10:04:20Z</time>
      </trkpt>
      <trkpt lat="39.6689210" lon="-0.3959330">
        <ele>324.4</ele>
        <time>2018-05-01T10:04:23Z</time>
      </trkpt>
      <trkpt lat="39.6689460" lon="-0.3959470">
        <ele>324.6</ele>
        <time>2018-05-01T10:04:24Z</time>
      </trkpt>
      <trkpt lat="39.6690270" lon="-0.3959780">
        <ele>325.8</ele>
        <time>2018-05-01T10:04:27Z</time>
      </trkpt>
      <trkpt lat="39.6690760" lon="-0.3960100">
        <ele>326.8</ele>
        <time>2018-05-01T10:04:29Z</time>
      </trkpt>
      <trkpt lat="39.6691330" lon="-0.3960840">
        <ele>328.0</ele>
        <time>2018-05-01T10:04:32Z</time>
      </trkpt>
      <trkpt lat="39.6691930" lon="-0.3963670">
        <ele>328.8</ele>
        <time>2018-05-01T10:04:39Z</time>
      </trkpt>
      <trkpt lat="39.6692350" lon="-0.3964190">
        <ele>328.8</ele>
        <time>2018-05-01T10:04:41Z</time>
      </trkpt>
      <trkpt lat="39.6692290" lon="-0.3965520">
        <ele>328.4</ele>
        <time>2018-05-01T10:04:44Z</time>
      </trkpt>
      <trkpt lat="39.6692190" lon="-0.3966080">
        <ele>327.8</ele>
        <time>2018-05-01T10:04:45Z</time>
      </trkpt>
      <trkpt lat="39.6691660" lon="-0.3967790">
        <ele>326.8</ele>
        <time>2018-05-01T10:04:48Z</time>
      </trkpt>
      <trkpt lat="39.6690880" lon="-0.3969280">
        <ele>325.8</ele>
        <time>2018-05-01T10:04:51Z</time>
      </trkpt>
      <trkpt lat="39.6690690" lon="-0.3969750">
        <ele>325.2</ele>
        <time>2018-05-01T10:04:52Z</time>
      </trkpt>
      <trkpt lat="39.6690150" lon="-0.3970930">
        <ele>324.2</ele>
        <time>2018-05-01T10:04:55Z</time>
      </trkpt>
      <trkpt lat="39.6689690" lon="-0.3972020">
        <ele>324.0</ele>
        <time>2018-05-01T10:04:58Z</time>
      </trkpt>
      <trkpt lat="39.6689310" lon="-0.3973080">
        <ele>324.0</ele>
        <time>2018-05-01T10:05:01Z</time>
      </trkpt>
      <trkpt lat="39.6689220" lon="-0.3974030">
        <ele>324.2</ele>
        <time>2018-05-01T10:05:04Z</time>
      </trkpt>
      <trkpt lat="39.6689400" lon="-0.3974680">
        <ele>324.2</ele>
        <time>2018-05-01T10:05:06Z</time>
      </trkpt>
      <trkpt lat="39.6689650" lon="-0.3975350">
        <ele>324.2</ele>
        <time>2018-05-01T10:05:08Z</time>
      </trkpt>
      <trkpt lat="39.6689940" lon="-0.3976070">
        <ele>324.2</ele>
        <time>2018-05-01T10:05:10Z</time>
      </trkpt>
      <trkpt lat="39.6690200" lon="-0.3977260">
        <ele>324.2</ele>
        <time>2018-05-01T10:05:13Z</time>
      </trkpt>
      <trkpt lat="39.6690380" lon="-0.3978430">
        <ele>324.2</ele>
        <time>2018-05-01T10:05:16Z</time>
      </trkpt>
      <trkpt lat="39.6690870" lon="-0.3978970">
        <ele>324.0</ele>
        <time>2018-05-01T10:05:19Z</time>
      </trkpt>
      <trkpt lat="39.6690960" lon="-0.3979110">
        <ele>323.8</ele>
        <time>2018-05-01T10:05:21Z</time>
      </trkpt>
      <trkpt lat="39.6691400" lon="-0.3979750">
        <ele>323.4</ele>
        <time>2018-05-01T10:08:09Z</time>
      </trkpt>
      <trkpt lat="39.6691620" lon="-0.3979860">
        <ele>323.4</ele>
        <time>2018-05-01T10:08:10Z</time>
      </trkpt>
      <trkpt lat="39.6692080" lon="-0.3980170">
        <ele>323.4</ele>
        <time>2018-05-01T10:08:12Z</time>
      </trkpt>
      <trkpt lat="39.6692620" lon="-0.3980960">
        <ele>323.4</ele>
        <time>2018-05-01T10:08:15Z</time>
      </trkpt>
      <trkpt lat="39.6693010" lon="-0.3981570">
        <ele>323.4</ele>
        <time>2018-05-01T10:08:17Z</time>
      </trkpt>
      <trkpt lat="39.6693310" lon="-0.3982480">
        <ele>323.4</ele>
        <time>2018-05-01T10:08:19Z</time>
      </trkpt>
      <trkpt lat="39.6693570" lon="-0.3984250">
        <ele>323.2</ele>
        <time>2018-05-01T10:08:22Z</time>
      </trkpt>
      <trkpt lat="39.6693740" lon="-0.3985460">
        <ele>323.2</ele>
        <time>2018-05-01T10:08:24Z</time>
      </trkpt>
      <trkpt lat="39.6693780" lon="-0.3986060">
        <ele>323.2</ele>
        <time>2018-05-01T10:08:25Z</time>
      </trkpt>
      <trkpt lat="39.6693820" lon="-0.3986690">
        <ele>323.2</ele>
        <time>2018-05-01T10:08:26Z</time>
      </trkpt>
      <trkpt lat="39.6694030" lon="-0.3989110">
        <ele>322.6</ele>
        <time>2018-05-01T10:08:30Z</time>
      </trkpt>
      <trkpt lat="39.6693980" lon="-0.3989640">
        <ele>322.4</ele>
        <time>2018-05-01T10:08:31Z</time>
      </trkpt>
      <trkpt lat="39.6693750" lon="-0.3991010">
        <ele>322.4</ele>
        <time>2018-05-01T10:08:34Z</time>
      </trkpt>
      <trkpt lat="39.6693640" lon="-0.3991920">
        <ele>322.4</ele>
        <time>2018-05-01T10:08:36Z</time>
      </trkpt>
      <trkpt lat="39.6693480" lon="-0.3992780">
        <ele>322.4</ele>
        <time>2018-05-01T10:08:38Z</time>
      </trkpt>
      <trkpt lat="39.6693210" lon="-0.3993630">
        <ele>322.6</ele>
        <time>2018-05-01T10:08:40Z</time>
      </trkpt>
      <trkpt lat="39.6692910" lon="-0.3994510">
        <ele>322.6</ele>
        <time>2018-05-01T10:08:42Z</time>
      </trkpt>
      <trkpt lat="39.6692600" lon="-0.4001020">
        <ele>324.2</ele>
        <time>2018-05-01T10:08:56Z</time>
      </trkpt>
      <trkpt lat="39.6692730" lon="-0.4002820">
        <ele>324.6</ele>
        <time>2018-05-01T10:09:00Z</time>
      </trkpt>
      <trkpt lat="39.6692790" lon="-0.4003640">
        <ele>325.2</ele>
        <time>2018-05-01T10:09:02Z</time>
      </trkpt>
      <trkpt lat="39.6692890" lon="-0.4005570">
        <ele>325.6</ele>
        <time>2018-05-01T10:09:07Z</time>
      </trkpt>
      <trkpt lat="39.6692780" lon="-0.4007670">
        <ele>326.2</ele>
        <time>2018-05-01T10:09:13Z</time>
      </trkpt>
      <trkpt lat="39.6692750" lon="-0.4008350">
        <ele>326.4</ele>
        <time>2018-05-01T10:09:15Z</time>
      </trkpt>
      <trkpt lat="39.6692830" lon="-0.4009730">
        <ele>327.2</ele>
        <time>2018-05-01T10:09:19Z</time>
      </trkpt>
      <trkpt lat="39.6692850" lon="-0.4010080">
        <ele>327.4</ele>
        <time>2018-05-01T10:09:20Z</time>
      </trkpt>
      <trkpt lat="39.6692890" lon="-0.4010420">
        <ele>327.6</ele>
        <time>2018-05-01T10:09:21Z</time>
      </trkpt>
      <trkpt lat="39.6693100" lon="-0.4011700">
        <ele>328.8</ele>
        <time>2018-05-01T10:09:25Z</time>
      </trkpt>
      <trkpt lat="39.6693030" lon="-0.4013190">
        <ele>330.0</ele>
        <time>2018-05-01T10:09:30Z</time>
      </trkpt>
      <trkpt lat="39.6692090" lon="-0.4013930">
        <ele>331.4</ele>
        <time>2018-05-01T10:09:35Z</time>
      </trkpt>
      <trkpt lat="39.6691250" lon="-0.4014030">
        <ele>332.4</ele>
        <time>2018-05-01T10:09:39Z</time>
      </trkpt>
      <trkpt lat="39.6689540" lon="-0.4013730">
        <ele>333.6</ele>
        <time>2018-05-01T10:09:47Z</time>
      </trkpt>
      <trkpt lat="39.6688360" lon="-0.4013720">
        <ele>334.6</ele>
        <time>2018-05-01T10:09:52Z</time>
      </trkpt>
      <trkpt lat="39.6686690" lon="-0.4014750">
        <ele>335.8</ele>
        <time>2018-05-01T10:09:59Z</time>
      </trkpt>
      <trkpt lat="39.6685570" lon="-0.4016040">
        <ele>336.6</ele>
        <time>2018-05-01T10:10:04Z</time>
      </trkpt>
      <trkpt lat="39.6684200" lon="-0.4018210">
        <ele>336.8</ele>
        <time>2018-05-01T10:10:11Z</time>
      </trkpt>
      <trkpt lat="39.6683860" lon="-0.4019200">
        <ele>336.8</ele>
        <time>2018-05-01T10:10:14Z</time>
      </trkpt>
      <trkpt lat="39.6683610" lon="-0.4020070">
        <ele>337.0</ele>
        <time>2018-05-01T10:10:17Z</time>
      </trkpt>
      <trkpt lat="39.6683310" lon="-0.4020890">
        <ele>337.4</ele>
        <time>2018-05-01T10:10:20Z</time>
      </trkpt>
      <trkpt lat="39.6682960" lon="-0.4021630">
        <ele>338.0</ele>
        <time>2018-05-01T10:10:23Z</time>
      </trkpt>
      <trkpt lat="39.6682570" lon="-0.4022300">
        <ele>339.0</ele>
        <time>2018-05-01T10:10:26Z</time>
      </trkpt>
      <trkpt lat="39.6681950" lon="-0.4023190">
        <ele>340.2</ele>
        <time>2018-05-01T10:10:30Z</time>
      </trkpt>
      <trkpt lat="39.6681300" lon="-0.4023650">
        <ele>341.4</ele>
        <time>2018-05-01T10:10:33Z</time>
      </trkpt>
      <trkpt lat="39.6679750" lon="-0.4023730">
        <ele>342.6</ele>
        <time>2018-05-01T10:10:39Z</time>
      </trkpt>
      <trkpt lat="39.6678280" lon="-0.4023940">
        <ele>343.8</ele>
        <time>2018-05-01T10:10:44Z</time>
      </trkpt>
      <trkpt lat="39.6675650" lon="-0.4024050">
        <ele>344.8</ele>
        <time>2018-05-01T10:10:52Z</time>
      </trkpt>
      <trkpt lat="39.6675300" lon="-0.4024030">
        <ele>344.8</ele>
        <time>2018-05-01T10:10:53Z</time>
      </trkpt>
      <trkpt lat="39.6671250" lon="-0.4024410">
        <ele>345.8</ele>
        <time>2018-05-01T10:11:05Z</time>
      </trkpt>
      <trkpt lat="39.6671110" lon="-0.4024800">
        <ele>345.8</ele>
        <time>2018-05-01T10:11:06Z</time>
      </trkpt>
      <trkpt lat="39.6670330" lon="-0.4027400">
        <ele>347.0</ele>
        <time>2018-05-01T10:11:13Z</time>
      </trkpt>
      <trkpt lat="39.6669820" lon="-0.4028950">
        <ele>348.2</ele>
        <time>2018-05-01T10:11:17Z</time>
      </trkpt>
      <trkpt lat="39.6669740" lon="-0.4030250">
        <ele>348.8</ele>
        <time>2018-05-01T10:11:20Z</time>
      </trkpt>
      <trkpt lat="39.6669810" lon="-0.4031160">
        <ele>349.2</ele>
        <time>2018-05-01T10:11:22Z</time>
      </trkpt>
      <trkpt lat="39.6670060" lon="-0.4033430">
        <ele>350.4</ele>
        <time>2018-05-01T10:11:27Z</time>
      </trkpt>
      <trkpt lat="39.6671300" lon="-0.4035240">
        <ele>351.6</ele>
        <time>2018-05-01T10:11:32Z</time>
      </trkpt>
      <trkpt lat="39.6672940" lon="-0.4036630">
        <ele>352.0</ele>
        <time>2018-05-01T10:11:37Z</time>
      </trkpt>
      <trkpt lat="39.6673440" lon="-0.4037550">
        <ele>352.2</ele>
        <time>2018-05-01T10:11:39Z</time>
      </trkpt>
      <trkpt lat="39.6673460" lon="-0.4038590">
        <ele>352.2</ele>
        <time>2018-05-01T10:11:41Z</time>
      </trkpt>
      <trkpt lat="39.6672550" lon="-0.4041430">
        <ele>352.6</ele>
        <time>2018-05-01T10:11:48Z</time>
      </trkpt>
      <trkpt lat="39.6672220" lon="-0.4042730">
        <ele>352.6</ele>
        <time>2018-05-01T10:11:51Z</time>
      </trkpt>
      <trkpt lat="39.6671620" lon="-0.4043540">
        <ele>353.0</ele>
        <time>2018-05-01T10:11:53Z</time>
      </trkpt>
      <trkpt lat="39.6670810" lon="-0.4044010">
        <ele>353.0</ele>
        <time>2018-05-01T10:11:55Z</time>
      </trkpt>
      <trkpt lat="39.6670430" lon="-0.4044100">
        <ele>353.0</ele>
        <time>2018-05-01T10:11:56Z</time>
      </trkpt>
      <trkpt lat="39.6669320" lon="-0.4044130">
        <ele>353.0</ele>
        <time>2018-05-01T10:11:59Z</time>
      </trkpt>
      <trkpt lat="39.6668760" lon="-0.4044530">
        <ele>353.0</ele>
        <time>2018-05-01T10:12:02Z</time>
      </trkpt>
      <trkpt lat="39.6668570" lon="-0.4044720">
        <ele>353.0</ele>
        <time>2018-05-01T10:12:03Z</time>
      </trkpt>
      <trkpt lat="39.6667710" lon="-0.4045650">
        <ele>352.8</ele>
        <time>2018-05-01T10:12:06Z</time>
      </trkpt>
      <trkpt lat="39.6666270" lon="-0.4046730">
        <ele>352.6</ele>
        <time>2018-05-01T10:12:10Z</time>
      </trkpt>
      <trkpt lat="39.6665780" lon="-0.4047320">
        <ele>352.2</ele>
        <time>2018-05-01T10:12:12Z</time>
      </trkpt>
      <trkpt lat="39.6665560" lon="-0.4047690">
        <ele>351.6</ele>
        <time>2018-05-01T10:12:13Z</time>
      </trkpt>
      <trkpt lat="39.6665350" lon="-0.4048100">
        <ele>350.8</ele>
        <time>2018-05-01T10:12:14Z</time>
      </trkpt>
      <trkpt lat="39.6665170" lon="-0.4048560">
        <ele>350.4</ele>
        <time>2018-05-01T10:12:15Z</time>
      </trkpt>
      <trkpt lat="39.6664680" lon="-0.4050050">
        <ele>349.8</ele>
        <time>2018-05-01T10:12:18Z</time>
      </trkpt>
      <trkpt lat="39.6664110" lon="-0.4052290">
        <ele>349.6</ele>
        <time>2018-05-01T10:12:22Z</time>
      </trkpt>
      <trkpt lat="39.6663900" lon="-0.4054100">
        <ele>349.2</ele>
        <time>2018-05-01T10:12:25Z</time>
      </trkpt>
      <trkpt lat="39.6663750" lon="-0.4055340">
        <ele>348.6</ele>
        <time>2018-05-01T10:12:27Z</time>
      </trkpt>
      <trkpt lat="39.6663570" lon="-0.4056570">
        <ele>348.2</ele>
        <time>2018-05-01T10:12:29Z</time>
      </trkpt>
      <trkpt lat="39.6663400" lon="-0.4057750">
        <ele>348.0</ele>
        <time>2018-05-01T10:12:31Z</time>
      </trkpt>
      <trkpt lat="39.6662640" lon="-0.4061980">
        <ele>347.8</ele>
        <time>2018-05-01T10:12:38Z</time>
      </trkpt>
      <trkpt lat="39.6661530" lon="-0.4067400">
        <ele>347.2</ele>
        <time>2018-05-01T10:12:46Z</time>
      </trkpt>
      <trkpt lat="39.6661380" lon="-0.4068110">
        <ele>347.2</ele>
        <time>2018-05-01T10:12:47Z</time>
      </trkpt>
      <trkpt lat="39.6661030" lon="-0.4069590">
        <ele>347.0</ele>
        <time>2018-05-01T10:12:49Z</time>
      </trkpt>
      <trkpt lat="39.6660680" lon="-0.4071130">
        <ele>346.6</ele>
        <time>2018-05-01T10:12:51Z</time>
      </trkpt>
      <trkpt lat="39.6660570" lon="-0.4071930">
        <ele>346.4</ele>
        <time>2018-05-01T10:12:52Z</time>
      </trkpt>
      <trkpt lat="39.6660490" lon="-0.4072730">
        <ele>346.0</ele>
        <time>2018-05-01T10:12:53Z</time>
      </trkpt>
      <trkpt lat="39.6660450" lon="-0.4073500">
        <ele>345.8</ele>
        <time>2018-05-01T10:12:54Z</time>
      </trkpt>
      <trkpt lat="39.6660450" lon="-0.4075820">
        <ele>344.8</ele>
        <time>2018-05-01T10:12:57Z</time>
      </trkpt>
      <trkpt lat="39.6660470" lon="-0.4076570">
        <ele>343.8</ele>
        <time>2018-05-01T10:12:58Z</time>
      </trkpt>
      <trkpt lat="39.6660430" lon="-0.4078050">
        <ele>343.2</ele>
        <time>2018-05-01T10:13:00Z</time>
      </trkpt>
      <trkpt lat="39.6659960" lon="-0.4079210">
        <ele>342.8</ele>
        <time>2018-05-01T10:13:02Z</time>
      </trkpt>
      <trkpt lat="39.6659510" lon="-0.4079550">
        <ele>342.8</ele>
        <time>2018-05-01T10:13:03Z</time>
      </trkpt>
      <trkpt lat="39.6658360" lon="-0.4080000">
        <ele>342.6</ele>
        <time>2018-05-01T10:13:05Z</time>
      </trkpt>
      <trkpt lat="39.6657210" lon="-0.4080570">
        <ele>342.2</ele>
        <time>2018-05-01T10:13:07Z</time>
      </trkpt>
      <trkpt lat="39.6656120" lon="-0.4082570">
        <ele>341.8</ele>
        <time>2018-05-01T10:13:10Z</time>
      </trkpt>
      <trkpt lat="39.6655940" lon="-0.4083400">
        <ele>341.4</ele>
        <time>2018-05-01T10:13:11Z</time>
      </trkpt>
      <trkpt lat="39.6655860" lon="-0.4084360">
        <ele>340.8</ele>
        <time>2018-05-01T10:13:12Z</time>
      </trkpt>
      <trkpt lat="39.6655780" lon="-0.4085340">
        <ele>340.0</ele>
        <time>2018-05-01T10:13:13Z</time>
      </trkpt>
      <trkpt lat="39.6655540" lon="-0.4087400">
        <ele>338.8</ele>
        <time>2018-05-01T10:13:15Z</time>
      </trkpt>
      <trkpt lat="39.6655240" lon="-0.4089400">
        <ele>336.8</ele>
        <time>2018-05-01T10:13:17Z</time>
      </trkpt>
      <trkpt lat="39.6654580" lon="-0.4091000">
        <ele>335.4</ele>
        <time>2018-05-01T10:13:19Z</time>
      </trkpt>
      <trkpt lat="39.6653480" lon="-0.4092290">
        <ele>334.6</ele>
        <time>2018-05-01T10:13:21Z</time>
      </trkpt>
      <trkpt lat="39.6652920" lon="-0.4092920">
        <ele>334.0</ele>
        <time>2018-05-01T10:13:22Z</time>
      </trkpt>
      <trkpt lat="39.6652260" lon="-0.4094680">
        <ele>332.8</ele>
        <time>2018-05-01T10:13:24Z</time>
      </trkpt>
      <trkpt lat="39.6651340" lon="-0.4098150">
        <ele>332.0</ele>
        <time>2018-05-01T10:13:28Z</time>
      </trkpt>
      <trkpt lat="39.6650550" lon="-0.4099970">
        <ele>331.2</ele>
        <time>2018-05-01T10:13:30Z</time>
      </trkpt>
      <trkpt lat="39.6650200" lon="-0.4100880">
        <ele>330.0</ele>
        <time>2018-05-01T10:13:31Z</time>
      </trkpt>
      <trkpt lat="39.6649840" lon="-0.4101740">
        <ele>328.2</ele>
        <time>2018-05-01T10:13:32Z</time>
      </trkpt>
      <trkpt lat="39.6647490" lon="-0.4104340">
        <ele>327.0</ele>
        <time>2018-05-01T10:13:36Z</time>
      </trkpt>
      <trkpt lat="39.6646890" lon="-0.4104980">
        <ele>326.0</ele>
        <time>2018-05-01T10:13:37Z</time>
      </trkpt>
      <trkpt lat="39.6646550" lon="-0.4105850">
        <ele>325.0</ele>
        <time>2018-05-01T10:13:38Z</time>
      </trkpt>
      <trkpt lat="39.6646390" lon="-0.4107610">
        <ele>323.8</ele>
        <time>2018-05-01T10:13:40Z</time>
      </trkpt>
      <trkpt lat="39.6646760" lon="-0.4109180">
        <ele>322.8</ele>
        <time>2018-05-01T10:13:42Z</time>
      </trkpt>
      <trkpt lat="39.6646990" lon="-0.4109870">
        <ele>322.4</ele>
        <time>2018-05-01T10:13:43Z</time>
      </trkpt>
      <trkpt lat="39.6647160" lon="-0.4110530">
        <ele>322.4</ele>
        <time>2018-05-01T10:13:44Z</time>
      </trkpt>
      <trkpt lat="39.6647270" lon="-0.4111180">
        <ele>322.4</ele>
        <time>2018-05-01T10:13:45Z</time>
      </trkpt>
      <trkpt lat="39.6647350" lon="-0.4112500">
        <ele>322.2</ele>
        <time>2018-05-01T10:13:47Z</time>
      </trkpt>
      <trkpt lat="39.6647260" lon="-0.4113140">
        <ele>322.2</ele>
        <time>2018-05-01T10:13:48Z</time>
      </trkpt>
      <trkpt lat="39.6646890" lon="-0.4114420">
        <ele>322.2</ele>
        <time>2018-05-01T10:13:50Z</time>
      </trkpt>
      <trkpt lat="39.6646360" lon="-0.4115610">
        <ele>322.6</ele>
        <time>2018-05-01T10:13:52Z</time>
      </trkpt>
      <trkpt lat="39.6645830" lon="-0.4116880">
        <ele>323.4</ele>
        <time>2018-05-01T10:13:54Z</time>
      </trkpt>
      <trkpt lat="39.6645650" lon="-0.4117560">
        <ele>323.8</ele>
        <time>2018-05-01T10:13:55Z</time>
      </trkpt>
      <trkpt lat="39.6645510" lon="-0.4118960">
        <ele>324.0</ele>
        <time>2018-05-01T10:13:57Z</time>
      </trkpt>
      <trkpt lat="39.6645510" lon="-0.4119630">
        <ele>324.0</ele>
        <time>2018-05-01T10:13:58Z</time>
      </trkpt>
      <trkpt lat="39.6645480" lon="-0.4120290">
        <ele>324.2</ele>
        <time>2018-05-01T10:13:59Z</time>
      </trkpt>
      <trkpt lat="39.6644130" lon="-0.4123510">
        <ele>324.8</ele>
        <time>2018-05-01T10:14:05Z</time>
      </trkpt>
      <trkpt lat="39.6642860" lon="-0.4124490">
        <ele>325.0</ele>
        <time>2018-05-01T10:14:08Z</time>
      </trkpt>
      <trkpt lat="39.6641490" lon="-0.4125480">
        <ele>325.6</ele>
        <time>2018-05-01T10:14:11Z</time>
      </trkpt>
      <trkpt lat="39.6640350" lon="-0.4127030">
        <ele>325.8</ele>
        <time>2018-05-01T10:14:14Z</time>
      </trkpt>
      <trkpt lat="39.6639260" lon="-0.4129650">
        <ele>325.8</ele>
        <time>2018-05-01T10:14:18Z</time>
      </trkpt>
      <trkpt lat="39.6638600" lon="-0.4130900">
        <ele>325.8</ele>
        <time>2018-05-01T10:14:20Z</time>
      </trkpt>
      <trkpt lat="39.6637970" lon="-0.4132290">
        <ele>325.8</ele>
        <time>2018-05-01T10:14:22Z</time>
      </trkpt>
      <trkpt lat="39.6637500" lon="-0.4134670">
        <ele>325.6</ele>
        <time>2018-05-01T10:14:25Z</time>
      </trkpt>
      <trkpt lat="39.6637680" lon="-0.4137070">
        <ele>325.0</ele>
        <time>2018-05-01T10:14:28Z</time>
      </trkpt>
      <trkpt lat="39.6637880" lon="-0.4140170">
        <ele>323.6</ele>
        <time>2018-05-01T10:14:32Z</time>
      </trkpt>
      <trkpt lat="39.6637140" lon="-0.4144020">
        <ele>323.0</ele>
        <time>2018-05-01T10:14:37Z</time>
      </trkpt>
      <trkpt lat="39.6637020" lon="-0.4145560">
        <ele>322.8</ele>
        <time>2018-05-01T10:14:39Z</time>
      </trkpt>
      <trkpt lat="39.6637060" lon="-0.4147060">
        <ele>322.8</ele>
        <time>2018-05-01T10:14:41Z</time>
      </trkpt>
      <trkpt lat="39.6637470" lon="-0.4150940">
        <ele>322.6</ele>
        <time>2018-05-01T10:14:46Z</time>
      </trkpt>
      <trkpt lat="39.6637440" lon="-0.4152730">
        <ele>322.6</ele>
        <time>2018-05-01T10:14:48Z</time>
      </trkpt>
      <trkpt lat="39.6637440" lon="-0.4153700">
        <ele>322.6</ele>
        <time>2018-05-01T10:14:49Z</time>
      </trkpt>
      <trkpt lat="39.6638280" lon="-0.4157800">
        <ele>322.4</ele>
        <time>2018-05-01T10:14:53Z</time>
      </trkpt>
      <trkpt lat="39.6639330" lon="-0.4160840">
        <ele>321.0</ele>
        <time>2018-05-01T10:14:56Z</time>
      </trkpt>
      <trkpt lat="39.6639680" lon="-0.4161790">
        <ele>319.4</ele>
        <time>2018-05-01T10:14:57Z</time>
      </trkpt>
      <trkpt lat="39.6640000" lon="-0.4162720">
        <ele>318.0</ele>
        <time>2018-05-01T10:14:58Z</time>
      </trkpt>
      <trkpt lat="39.6640260" lon="-0.4163660">
        <ele>317.0</ele>
        <time>2018-05-01T10:14:59Z</time>
      </trkpt>
      <trkpt lat="39.6640340" lon="-0.4164590">
        <ele>316.2</ele>
        <time>2018-05-01T10:15:00Z</time>
      </trkpt>
      <trkpt lat="39.6640300" lon="-0.4166520">
        <ele>314.4</ele>
        <time>2018-05-01T10:15:02Z</time>
      </trkpt>
      <trkpt lat="39.6640310" lon="-0.4167560">
        <ele>314.0</ele>
        <time>2018-05-01T10:15:03Z</time>
      </trkpt>
      <trkpt lat="39.6640370" lon="-0.4168640">
        <ele>313.4</ele>
        <time>2018-05-01T10:15:04Z</time>
      </trkpt>
      <trkpt lat="39.6640640" lon="-0.4172050">
        <ele>312.6</ele>
        <time>2018-05-01T10:15:07Z</time>
      </trkpt>
      <trkpt lat="39.6640790" lon="-0.4174390">
        <ele>312.0</ele>
        <time>2018-05-01T10:15:09Z</time>
      </trkpt>
      <trkpt lat="39.6640790" lon="-0.4175590">
        <ele>311.8</ele>
        <time>2018-05-01T10:15:10Z</time>
      </trkpt>
      <trkpt lat="39.6640640" lon="-0.4178010">
        <ele>308.4</ele>
        <time>2018-05-01T10:15:12Z</time>
      </trkpt>
      <trkpt lat="39.6640580" lon="-0.4179290">
        <ele>307.0</ele>
        <time>2018-05-01T10:15:13Z</time>
      </trkpt>
      <trkpt lat="39.6640510" lon="-0.4180540">
        <ele>306.0</ele>
        <time>2018-05-01T10:15:14Z</time>
      </trkpt>
      <trkpt lat="39.6640480" lon="-0.4181730">
        <ele>304.8</ele>
        <time>2018-05-01T10:15:15Z</time>
      </trkpt>
      <trkpt lat="39.6640600" lon="-0.4184150">
        <ele>302.6</ele>
        <time>2018-05-01T10:15:17Z</time>
      </trkpt>
      <trkpt lat="39.6641120" lon="-0.4186430">
        <ele>301.0</ele>
        <time>2018-05-01T10:15:19Z</time>
      </trkpt>
      <trkpt lat="39.6642030" lon="-0.4188450">
        <ele>299.2</ele>
        <time>2018-05-01T10:15:21Z</time>
      </trkpt>
      <trkpt lat="39.6642970" lon="-0.4190400">
        <ele>298.2</ele>
        <time>2018-05-01T10:15:23Z</time>
      </trkpt>
      <trkpt lat="39.6644210" lon="-0.4193340">
        <ele>296.8</ele>
        <time>2018-05-01T10:15:26Z</time>
      </trkpt>
      <trkpt lat="39.6644530" lon="-0.4194380">
        <ele>296.2</ele>
        <time>2018-05-01T10:15:27Z</time>
      </trkpt>
      <trkpt lat="39.6644790" lon="-0.4195520">
        <ele>295.6</ele>
        <time>2018-05-01T10:15:28Z</time>
      </trkpt>
      <trkpt lat="39.6644970" lon="-0.4196730">
        <ele>294.6</ele>
        <time>2018-05-01T10:15:29Z</time>
      </trkpt>
      <trkpt lat="39.6645080" lon="-0.4197960">
        <ele>293.0</ele>
        <time>2018-05-01T10:15:30Z</time>
      </trkpt>
      <trkpt lat="39.6645170" lon="-0.4199140">
        <ele>291.6</ele>
        <time>2018-05-01T10:15:31Z</time>
      </trkpt>
      <trkpt lat="39.6645490" lon="-0.4201280">
        <ele>290.2</ele>
        <time>2018-05-01T10:15:33Z</time>
      </trkpt>
      <trkpt lat="39.6646050" lon="-0.4203130">
        <ele>288.8</ele>
        <time>2018-05-01T10:15:35Z</time>
      </trkpt>
      <trkpt lat="39.6646740" lon="-0.4204820">
        <ele>286.4</ele>
        <time>2018-05-01T10:15:37Z</time>
      </trkpt>
      <trkpt lat="39.6647180" lon="-0.4205610">
        <ele>285.0</ele>
        <time>2018-05-01T10:15:38Z</time>
      </trkpt>
      <trkpt lat="39.6647650" lon="-0.4206420">
        <ele>284.0</ele>
        <time>2018-05-01T10:15:39Z</time>
      </trkpt>
      <trkpt lat="39.6648320" lon="-0.4208030">
        <ele>282.2</ele>
        <time>2018-05-01T10:15:41Z</time>
      </trkpt>
      <trkpt lat="39.6648300" lon="-0.4209470">
        <ele>280.6</ele>
        <time>2018-05-01T10:15:43Z</time>
      </trkpt>
      <trkpt lat="39.6647720" lon="-0.4210560">
        <ele>279.4</ele>
        <time>2018-05-01T10:15:45Z</time>
      </trkpt>
      <trkpt lat="39.6647240" lon="-0.4211050">
        <ele>277.8</ele>
        <time>2018-05-01T10:15:46Z</time>
      </trkpt>
      <trkpt lat="39.6646670" lon="-0.4211550">
        <ele>277.2</ele>
        <time>2018-05-01T10:15:47Z</time>
      </trkpt>
      <trkpt lat="39.6646060" lon="-0.4212120">
        <ele>276.8</ele>
        <time>2018-05-01T10:15:48Z</time>
      </trkpt>
      <trkpt lat="39.6644180" lon="-0.4214370">
        <ele>275.8</ele>
        <time>2018-05-01T10:15:51Z</time>
      </trkpt>
      <trkpt lat="39.6643570" lon="-0.4215370">
        <ele>275.6</ele>
        <time>2018-05-01T10:15:52Z</time>
      </trkpt>
      <trkpt lat="39.6642470" lon="-0.4217450">
        <ele>273.8</ele>
        <time>2018-05-01T10:15:54Z</time>
      </trkpt>
      <trkpt lat="39.6641930" lon="-0.4218410">
        <ele>272.8</ele>
        <time>2018-05-01T10:15:55Z</time>
      </trkpt>
      <trkpt lat="39.6641370" lon="-0.4219230">
        <ele>271.4</ele>
        <time>2018-05-01T10:15:56Z</time>
      </trkpt>
      <trkpt lat="39.6640760" lon="-0.4219940">
        <ele>269.8</ele>
        <time>2018-05-01T10:15:57Z</time>
      </trkpt>
      <trkpt lat="39.6640140" lon="-0.4220690">
        <ele>268.2</ele>
        <time>2018-05-01T10:15:58Z</time>
      </trkpt>
      <trkpt lat="39.6639540" lon="-0.4221570">
        <ele>266.4</ele>
        <time>2018-05-01T10:15:59Z</time>
      </trkpt>
      <trkpt lat="39.6639000" lon="-0.4222580">
        <ele>264.8</ele>
        <time>2018-05-01T10:16:00Z</time>
      </trkpt>
      <trkpt lat="39.6638450" lon="-0.4223620">
        <ele>263.2</ele>
        <time>2018-05-01T10:16:01Z</time>
      </trkpt>
      <trkpt lat="39.6637900" lon="-0.4224720">
        <ele>261.0</ele>
        <time>2018-05-01T10:16:02Z</time>
      </trkpt>
      <trkpt lat="39.6637320" lon="-0.4225790">
        <ele>259.6</ele>
        <time>2018-05-01T10:16:03Z</time>
      </trkpt>
      <trkpt lat="39.6636760" lon="-0.4226730">
        <ele>258.6</ele>
        <time>2018-05-01T10:16:04Z</time>
      </trkpt>
      <trkpt lat="39.6635680" lon="-0.4228460">
        <ele>256.8</ele>
        <time>2018-05-01T10:16:06Z</time>
      </trkpt>
      <trkpt lat="39.6635160" lon="-0.4229310">
        <ele>255.6</ele>
        <time>2018-05-01T10:16:07Z</time>
      </trkpt>
      <trkpt lat="39.6634620" lon="-0.4230060">
        <ele>254.0</ele>
        <time>2018-05-01T10:16:08Z</time>
      </trkpt>
      <trkpt lat="39.6634100" lon="-0.4230780">
        <ele>252.6</ele>
        <time>2018-05-01T10:16:09Z</time>
      </trkpt>
      <trkpt lat="39.6633610" lon="-0.4231440">
        <ele>250.8</ele>
        <time>2018-05-01T10:16:10Z</time>
      </trkpt>
      <trkpt lat="39.6632660" lon="-0.4232630">
        <ele>249.4</ele>
        <time>2018-05-01T10:16:12Z</time>
      </trkpt>
      <trkpt lat="39.6632220" lon="-0.4233220">
        <ele>249.2</ele>
        <time>2018-05-01T10:16:13Z</time>
      </trkpt>
      <trkpt lat="39.6631400" lon="-0.4234500">
        <ele>248.2</ele>
        <time>2018-05-01T10:16:15Z</time>
      </trkpt>
      <trkpt lat="39.6630150" lon="-0.4236590">
        <ele>247.0</ele>
        <time>2018-05-01T10:16:18Z</time>
      </trkpt>
      <trkpt lat="39.6629390" lon="-0.4238100">
        <ele>245.0</ele>
        <time>2018-05-01T10:16:20Z</time>
      </trkpt>
      <trkpt lat="39.6628980" lon="-0.4238830">
        <ele>244.0</ele>
        <time>2018-05-01T10:16:21Z</time>
      </trkpt>
      <trkpt lat="39.6628510" lon="-0.4239520">
        <ele>243.6</ele>
        <time>2018-05-01T10:16:22Z</time>
      </trkpt>
      <trkpt lat="39.6627440" lon="-0.4240860">
        <ele>242.2</ele>
        <time>2018-05-01T10:16:24Z</time>
      </trkpt>
      <trkpt lat="39.6626830" lon="-0.4241380">
        <ele>241.2</ele>
        <time>2018-05-01T10:16:25Z</time>
      </trkpt>
      <trkpt lat="39.6626220" lon="-0.4241770">
        <ele>240.6</ele>
        <time>2018-05-01T10:16:26Z</time>
      </trkpt>
      <trkpt lat="39.6624400" lon="-0.4242590">
        <ele>239.2</ele>
        <time>2018-05-01T10:16:29Z</time>
      </trkpt>
      <trkpt lat="39.6623800" lon="-0.4242900">
        <ele>238.0</ele>
        <time>2018-05-01T10:16:30Z</time>
      </trkpt>
      <trkpt lat="39.6623220" lon="-0.4243190">
        <ele>236.8</ele>
        <time>2018-05-01T10:16:31Z</time>
      </trkpt>
      <trkpt lat="39.6622670" lon="-0.4243450">
        <ele>235.6</ele>
        <time>2018-05-01T10:16:32Z</time>
      </trkpt>
      <trkpt lat="39.6622170" lon="-0.4243650">
        <ele>234.8</ele>
        <time>2018-05-01T10:16:33Z</time>
      </trkpt>
      <trkpt lat="39.6621710" lon="-0.4243780">
        <ele>234.4</ele>
        <time>2018-05-01T10:16:34Z</time>
      </trkpt>
      <trkpt lat="39.6620520" lon="-0.4243800">
        <ele>232.8</ele>
        <time>2018-05-01T10:16:37Z</time>
      </trkpt>
      <trkpt lat="39.6620100" lon="-0.4243830">
        <ele>231.6</ele>
        <time>2018-05-01T10:16:38Z</time>
      </trkpt>
      <trkpt lat="39.6619210" lon="-0.4243940">
        <ele>230.2</ele>
        <time>2018-05-01T10:16:40Z</time>
      </trkpt>
      <trkpt lat="39.6618190" lon="-0.4245320">
        <ele>229.0</ele>
        <time>2018-05-01T10:16:43Z</time>
      </trkpt>
      <trkpt lat="39.6617790" lon="-0.4247650">
        <ele>227.0</ele>
        <time>2018-05-01T10:16:46Z</time>
      </trkpt>
      <trkpt lat="39.6616970" lon="-0.4248790">
        <ele>225.4</ele>
        <time>2018-05-01T10:16:48Z</time>
      </trkpt>
      <trkpt lat="39.6615810" lon="-0.4249060">
        <ele>223.8</ele>
        <time>2018-05-01T10:16:50Z</time>
      </trkpt>
      <trkpt lat="39.6614310" lon="-0.4248040">
        <ele>222.6</ele>
        <time>2018-05-01T10:16:53Z</time>
      </trkpt>
      <trkpt lat="39.6613750" lon="-0.4246830">
        <ele>222.0</ele>
        <time>2018-05-01T10:16:55Z</time>
      </trkpt>
      <trkpt lat="39.6613160" lon="-0.4245630">
        <ele>221.6</ele>
        <time>2018-05-01T10:16:57Z</time>
      </trkpt>
      <trkpt lat="39.6612750" lon="-0.4245150">
        <ele>221.2</ele>
        <time>2018-05-01T10:16:58Z</time>
      </trkpt>
      <trkpt lat="39.6610700" lon="-0.4243760">
        <ele>220.6</ele>
        <time>2018-05-01T10:17:02Z</time>
      </trkpt>
      <trkpt lat="39.6609660" lon="-0.4243080">
        <ele>220.4</ele>
        <time>2018-05-01T10:17:04Z</time>
      </trkpt>
      <trkpt lat="39.6608080" lon="-0.4242050">
        <ele>220.2</ele>
        <time>2018-05-01T10:17:07Z</time>
      </trkpt>
      <trkpt lat="39.6606060" lon="-0.4240540">
        <ele>219.6</ele>
        <time>2018-05-01T10:17:11Z</time>
      </trkpt>
      <trkpt lat="39.6605580" lon="-0.4240100">
        <ele>219.6</ele>
        <time>2018-05-01T10:17:12Z</time>
      </trkpt>
      <trkpt lat="39.6603320" lon="-0.4237590">
        <ele>219.0</ele>
        <time>2018-05-01T10:17:17Z</time>
      </trkpt>
      <trkpt lat="39.6600040" lon="-0.4233160">
        <ele>218.0</ele>
        <time>2018-05-01T10:17:24Z</time>
      </trkpt>
      <trkpt lat="39.6598510" lon="-0.4230960">
        <ele>217.4</ele>
        <time>2018-05-01T10:17:27Z</time>
      </trkpt>
      <trkpt lat="39.6597440" lon="-0.4229450">
        <ele>217.2</ele>
        <time>2018-05-01T10:17:29Z</time>
      </trkpt>
      <trkpt lat="39.6596320" lon="-0.4227910">
        <ele>217.0</ele>
        <time>2018-05-01T10:17:31Z</time>
      </trkpt>
      <trkpt lat="39.6594620" lon="-0.4225550">
        <ele>216.0</ele>
        <time>2018-05-01T10:17:34Z</time>
      </trkpt>
      <trkpt lat="39.6594000" lon="-0.4224780">
        <ele>215.6</ele>
        <time>2018-05-01T10:17:35Z</time>
      </trkpt>
      <trkpt lat="39.6592610" lon="-0.4223340">
        <ele>214.4</ele>
        <time>2018-05-01T10:17:37Z</time>
      </trkpt>
      <trkpt lat="39.6591810" lon="-0.4222720">
        <ele>214.0</ele>
        <time>2018-05-01T10:17:38Z</time>
      </trkpt>
      <trkpt lat="39.6589950" lon="-0.4221900">
        <ele>213.2</ele>
        <time>2018-05-01T10:17:40Z</time>
      </trkpt>
      <trkpt lat="39.6586930" lon="-0.4222030">
        <ele>212.0</ele>
        <time>2018-05-01T10:17:43Z</time>
      </trkpt>
      <trkpt lat="39.6584130" lon="-0.4223840">
        <ele>211.2</ele>
        <time>2018-05-01T10:17:46Z</time>
      </trkpt>
      <trkpt lat="39.6583230" lon="-0.4224550">
        <ele>210.6</ele>
        <time>2018-05-01T10:17:47Z</time>
      </trkpt>
      <trkpt lat="39.6581450" lon="-0.4225980">
        <ele>209.0</ele>
        <time>2018-05-01T10:17:49Z</time>
      </trkpt>
      <trkpt lat="39.6580560" lon="-0.4226710">
        <ele>207.8</ele>
        <time>2018-05-01T10:17:50Z</time>
      </trkpt>
      <trkpt lat="39.6579670" lon="-0.4227440">
        <ele>206.6</ele>
        <time>2018-05-01T10:17:51Z</time>
      </trkpt>
      <trkpt lat="39.6578800" lon="-0.4228170">
        <ele>205.4</ele>
        <time>2018-05-01T10:17:52Z</time>
      </trkpt>
      <trkpt lat="39.6577940" lon="-0.4228900">
        <ele>204.0</ele>
        <time>2018-05-01T10:17:53Z</time>
      </trkpt>
      <trkpt lat="39.6577120" lon="-0.4229660">
        <ele>203.0</ele>
        <time>2018-05-01T10:17:54Z</time>
      </trkpt>
      <trkpt lat="39.6575520" lon="-0.4231060">
        <ele>201.4</ele>
        <time>2018-05-01T10:17:56Z</time>
      </trkpt>
      <trkpt lat="39.6573160" lon="-0.4232910">
        <ele>200.2</ele>
        <time>2018-05-01T10:17:59Z</time>
      </trkpt>
      <trkpt lat="39.6572390" lon="-0.4233500">
        <ele>199.2</ele>
        <time>2018-05-01T10:18:00Z</time>
      </trkpt>
      <trkpt lat="39.6569620" lon="-0.4235750">
        <ele>198.8</ele>
        <time>2018-05-01T10:18:04Z</time>
      </trkpt>
      <trkpt lat="39.6568250" lon="-0.4236850">
        <ele>198.6</ele>
        <time>2018-05-01T10:18:06Z</time>
      </trkpt>
      <trkpt lat="39.6566880" lon="-0.4237930">
        <ele>198.6</ele>
        <time>2018-05-01T10:18:08Z</time>
      </trkpt>
      <trkpt lat="39.6564790" lon="-0.4239520">
        <ele>198.8</ele>
        <time>2018-05-01T10:18:11Z</time>
      </trkpt>
      <trkpt lat="39.6562280" lon="-0.4241990">
        <ele>199.2</ele>
        <time>2018-05-01T10:18:15Z</time>
      </trkpt>
      <trkpt lat="39.6560130" lon="-0.4244780">
        <ele>199.6</ele>
        <time>2018-05-01T10:18:19Z</time>
      </trkpt>
      <trkpt lat="39.6558780" lon="-0.4246630">
        <ele>199.8</ele>
        <time>2018-05-01T10:18:22Z</time>
      </trkpt>
      <trkpt lat="39.6558040" lon="-0.4247840">
        <ele>200.0</ele>
        <time>2018-05-01T10:18:24Z</time>
      </trkpt>
      <trkpt lat="39.6557220" lon="-0.4249660">
        <ele>200.4</ele>
        <time>2018-05-01T10:18:27Z</time>
      </trkpt>
      <trkpt lat="39.6556680" lon="-0.4250890">
        <ele>201.4</ele>
        <time>2018-05-01T10:18:29Z</time>
      </trkpt>
      <trkpt lat="39.6556000" lon="-0.4251970">
        <ele>203.2</ele>
        <time>2018-05-01T10:18:31Z</time>
      </trkpt>
      <trkpt lat="39.6555540" lon="-0.4252410">
        <ele>203.8</ele>
        <time>2018-05-01T10:18:32Z</time>
      </trkpt>
      <trkpt lat="39.6555050" lon="-0.4252820">
        <ele>205.0</ele>
        <time>2018-05-01T10:18:33Z</time>
      </trkpt>
      <trkpt lat="39.6552870" lon="-0.4254640">
        <ele>205.6</ele>
        <time>2018-05-01T10:18:37Z</time>
      </trkpt>
      <trkpt lat="39.6548360" lon="-0.4258950">
        <ele>205.6</ele>
        <time>2018-05-01T10:18:45Z</time>
      </trkpt>
      <trkpt lat="39.6545850" lon="-0.4261130">
        <ele>205.4</ele>
        <time>2018-05-01T10:18:49Z</time>
      </trkpt>
      <trkpt lat="39.6543910" lon="-0.4262850">
        <ele>205.0</ele>
        <time>2018-05-01T10:18:52Z</time>
      </trkpt>
      <trkpt lat="39.6542590" lon="-0.4264000">
        <ele>204.4</ele>
        <time>2018-05-01T10:18:54Z</time>
      </trkpt>
      <trkpt lat="39.6541910" lon="-0.4264540">
        <ele>204.0</ele>
        <time>2018-05-01T10:18:55Z</time>
      </trkpt>
      <trkpt lat="39.6539940" lon="-0.4266320">
        <ele>203.2</ele>
        <time>2018-05-01T10:18:58Z</time>
      </trkpt>
      <trkpt lat="39.6539260" lon="-0.4266910">
        <ele>203.0</ele>
        <time>2018-05-01T10:18:59Z</time>
      </trkpt>
      <trkpt lat="39.6537920" lon="-0.4268030">
        <ele>202.8</ele>
        <time>2018-05-01T10:19:01Z</time>
      </trkpt>
      <trkpt lat="39.6536610" lon="-0.4269150">
        <ele>202.2</ele>
        <time>2018-05-01T10:19:03Z</time>
      </trkpt>
      <trkpt lat="39.6534640" lon="-0.4270840">
        <ele>201.8</ele>
        <time>2018-05-01T10:19:06Z</time>
      </trkpt>
      <trkpt lat="39.6533340" lon="-0.4272030">
        <ele>200.4</ele>
        <time>2018-05-01T10:19:08Z</time>
      </trkpt>
      <trkpt lat="39.6531370" lon="-0.4273780">
        <ele>199.0</ele>
        <time>2018-05-01T10:19:11Z</time>
      </trkpt>
      <trkpt lat="39.6529390" lon="-0.4275560">
        <ele>197.8</ele>
        <time>2018-05-01T10:19:14Z</time>
      </trkpt>
      <trkpt lat="39.6526720" lon="-0.4277620">
        <ele>196.6</ele>
        <time>2018-05-01T10:19:18Z</time>
      </trkpt>
      <trkpt lat="39.6524490" lon="-0.4278470">
        <ele>195.2</ele>
        <time>2018-05-01T10:19:21Z</time>
      </trkpt>
      <trkpt lat="39.6522870" lon="-0.4278860">
        <ele>194.6</ele>
        <time>2018-05-01T10:19:23Z</time>
      </trkpt>
      <trkpt lat="39.6521230" lon="-0.4279170">
        <ele>194.2</ele>
        <time>2018-05-01T10:19:25Z</time>
      </trkpt>
      <trkpt lat="39.6519580" lon="-0.4279430">
        <ele>193.8</ele>
        <time>2018-05-01T10:19:27Z</time>
      </trkpt>
      <trkpt lat="39.6517910" lon="-0.4279690">
        <ele>193.4</ele>
        <time>2018-05-01T10:19:29Z</time>
      </trkpt>
      <trkpt lat="39.6514500" lon="-0.4280260">
        <ele>193.0</ele>
        <time>2018-05-01T10:19:33Z</time>
      </trkpt>
      <trkpt lat="39.6508570" lon="-0.4281360">
        <ele>191.8</ele>
        <time>2018-05-01T10:19:40Z</time>
      </trkpt>
      <trkpt lat="39.6502780" lon="-0.4282410">
        <ele>190.8</ele>
        <time>2018-05-01T10:19:47Z</time>
      </trkpt>
      <trkpt lat="39.6498450" lon="-0.4283130">
        <ele>190.6</ele>
        <time>2018-05-01T10:19:52Z</time>
      </trkpt>
      <trkpt lat="39.6495700" lon="-0.4283590">
        <ele>190.4</ele>
        <time>2018-05-01T10:19:55Z</time>
      </trkpt>
      <trkpt lat="39.6492830" lon="-0.4284110">
        <ele>190.0</ele>
        <time>2018-05-01T10:19:58Z</time>
      </trkpt>
      <trkpt lat="39.6491840" lon="-0.4284320">
        <ele>189.4</ele>
        <time>2018-05-01T10:19:59Z</time>
      </trkpt>
      <trkpt lat="39.6489880" lon="-0.4284710">
        <ele>187.8</ele>
        <time>2018-05-01T10:20:01Z</time>
      </trkpt>
      <trkpt lat="39.6487940" lon="-0.4285110">
        <ele>187.0</ele>
        <time>2018-05-01T10:20:03Z</time>
      </trkpt>
      <trkpt lat="39.6486960" lon="-0.4285320">
        <ele>186.8</ele>
        <time>2018-05-01T10:20:04Z</time>
      </trkpt>
      <trkpt lat="39.6485980" lon="-0.4285550">
        <ele>186.6</ele>
        <time>2018-05-01T10:20:05Z</time>
      </trkpt>
      <trkpt lat="39.6484030" lon="-0.4286080">
        <ele>185.2</ele>
        <time>2018-05-01T10:20:07Z</time>
      </trkpt>
      <trkpt lat="39.6483040" lon="-0.4286380">
        <ele>183.8</ele>
        <time>2018-05-01T10:20:08Z</time>
      </trkpt>
      <trkpt lat="39.6481070" lon="-0.4287100">
        <ele>182.6</ele>
        <time>2018-05-01T10:20:10Z</time>
      </trkpt>
      <trkpt lat="39.6479090" lon="-0.4287910">
        <ele>181.4</ele>
        <time>2018-05-01T10:20:12Z</time>
      </trkpt>
      <trkpt lat="39.6477100" lon="-0.4288700">
        <ele>180.2</ele>
        <time>2018-05-01T10:20:14Z</time>
      </trkpt>
      <trkpt lat="39.6475120" lon="-0.4289520">
        <ele>179.0</ele>
        <time>2018-05-01T10:20:16Z</time>
      </trkpt>
      <trkpt lat="39.6473110" lon="-0.4290310">
        <ele>178.2</ele>
        <time>2018-05-01T10:20:18Z</time>
      </trkpt>
      <trkpt lat="39.6472110" lon="-0.4290700">
        <ele>178.0</ele>
        <time>2018-05-01T10:20:19Z</time>
      </trkpt>
      <trkpt lat="39.6470120" lon="-0.4291440">
        <ele>177.0</ele>
        <time>2018-05-01T10:20:21Z</time>
      </trkpt>
      <trkpt lat="39.6468210" lon="-0.4292270">
        <ele>175.4</ele>
        <time>2018-05-01T10:20:23Z</time>
      </trkpt>
      <trkpt lat="39.6466460" lon="-0.4292980">
        <ele>174.2</ele>
        <time>2018-05-01T10:20:25Z</time>
      </trkpt>
      <trkpt lat="39.6464820" lon="-0.4293660">
        <ele>172.8</ele>
        <time>2018-05-01T10:20:27Z</time>
      </trkpt>
      <trkpt lat="39.6463250" lon="-0.4294470">
        <ele>172.0</ele>
        <time>2018-05-01T10:20:29Z</time>
      </trkpt>
      <trkpt lat="39.6462560" lon="-0.4295110">
        <ele>171.8</ele>
        <time>2018-05-01T10:20:30Z</time>
      </trkpt>
      <trkpt lat="39.6461490" lon="-0.4296710">
        <ele>171.0</ele>
        <time>2018-05-01T10:20:32Z</time>
      </trkpt>
      <trkpt lat="39.6460060" lon="-0.4297180">
        <ele>170.6</ele>
        <time>2018-05-01T10:20:34Z</time>
      </trkpt>
      <trkpt lat="39.6458590" lon="-0.4296770">
        <ele>169.0</ele>
        <time>2018-05-01T10:20:36Z</time>
      </trkpt>
      <trkpt lat="39.6457020" lon="-0.4297090">
        <ele>168.0</ele>
        <time>2018-05-01T10:20:38Z</time>
      </trkpt>
      <trkpt lat="39.6456220" lon="-0.4297400">
        <ele>167.6</ele>
        <time>2018-05-01T10:20:39Z</time>
      </trkpt>
      <trkpt lat="39.6453770" lon="-0.4298390">
        <ele>167.0</ele>
        <time>2018-05-01T10:20:42Z</time>
      </trkpt>
      <trkpt lat="39.6452140" lon="-0.4299060">
        <ele>166.8</ele>
        <time>2018-05-01T10:20:44Z</time>
      </trkpt>
      <trkpt lat="39.6450580" lon="-0.4299670">
        <ele>166.2</ele>
        <time>2018-05-01T10:20:46Z</time>
      </trkpt>
      <trkpt lat="39.6449840" lon="-0.4299930">
        <ele>165.4</ele>
        <time>2018-05-01T10:20:47Z</time>
      </trkpt>
      <trkpt lat="39.6448460" lon="-0.4300500">
        <ele>164.2</ele>
        <time>2018-05-01T10:20:49Z</time>
      </trkpt>
      <trkpt lat="39.6447180" lon="-0.4301030">
        <ele>163.2</ele>
        <time>2018-05-01T10:20:51Z</time>
      </trkpt>
      <trkpt lat="39.6446560" lon="-0.4301270">
        <ele>162.0</ele>
        <time>2018-05-01T10:20:52Z</time>
      </trkpt>
      <trkpt lat="39.6445340" lon="-0.4301600">
        <ele>160.8</ele>
        <time>2018-05-01T10:20:54Z</time>
      </trkpt>
      <trkpt lat="39.6444090" lon="-0.4301710">
        <ele>160.4</ele>
        <time>2018-05-01T10:20:56Z</time>
      </trkpt>
      <trkpt lat="39.6441720" lon="-0.4302590">
        <ele>160.4</ele>
        <time>2018-05-01T10:21:00Z</time>
      </trkpt>
      <trkpt lat="39.6441200" lon="-0.4302570">
        <ele>160.4</ele>
        <time>2018-05-01T10:21:01Z</time>
      </trkpt>
      <trkpt lat="39.6436540" lon="-0.4298100">
        <ele>160.2</ele>
        <time>2018-05-01T10:21:09Z</time>
      </trkpt>
      <trkpt lat="39.6434570" lon="-0.4297830">
        <ele>159.0</ele>
        <time>2018-05-01T10:21:12Z</time>
      </trkpt>
      <trkpt lat="39.6433900" lon="-0.4297950">
        <ele>158.2</ele>
        <time>2018-05-01T10:21:13Z</time>
      </trkpt>
      <trkpt lat="39.6433220" lon="-0.4298070">
        <ele>157.8</ele>
        <time>2018-05-01T10:21:14Z</time>
      </trkpt>
      <trkpt lat="39.6431240" lon="-0.4298570">
        <ele>156.8</ele>
        <time>2018-05-01T10:21:17Z</time>
      </trkpt>
      <trkpt lat="39.6430600" lon="-0.4298710">
        <ele>156.8</ele>
        <time>2018-05-01T10:21:18Z</time>
      </trkpt>
      <trkpt lat="39.6429340" lon="-0.4298930">
        <ele>156.2</ele>
        <time>2018-05-01T10:21:20Z</time>
      </trkpt>
      <trkpt lat="39.6427560" lon="-0.4299360">
        <ele>156.0</ele>
        <time>2018-05-01T10:21:23Z</time>
      </trkpt>
      <trkpt lat="39.6425900" lon="-0.4299600">
        <ele>156.0</ele>
        <time>2018-05-01T10:21:26Z</time>
      </trkpt>
      <trkpt lat="39.6424310" lon="-0.4299890">
        <ele>156.0</ele>
        <time>2018-05-01T10:21:29Z</time>
      </trkpt>
      <trkpt lat="39.6423790" lon="-0.4299910">
        <ele>156.0</ele>
        <time>2018-05-01T10:21:30Z</time>
      </trkpt>
      <trkpt lat="39.6422780" lon="-0.4299530">
        <ele>156.2</ele>
        <time>2018-05-01T10:21:32Z</time>
      </trkpt>
      <trkpt lat="39.6422020" lon="-0.4298580">
        <ele>156.0</ele>
        <time>2018-05-01T10:21:34Z</time>
      </trkpt>
      <trkpt lat="39.6421660" lon="-0.4298160">
        <ele>156.2</ele>
        <time>2018-05-01T10:21:35Z</time>
      </trkpt>
      <trkpt lat="39.6420770" lon="-0.4297890">
        <ele>156.8</ele>
        <time>2018-05-01T10:21:37Z</time>
      </trkpt>
      <trkpt lat="39.6419690" lon="-0.4298010">
        <ele>157.8</ele>
        <time>2018-05-01T10:21:39Z</time>
      </trkpt>
      <trkpt lat="39.6417410" lon="-0.4298550">
        <ele>158.0</ele>
        <time>2018-05-01T10:21:43Z</time>
      </trkpt>
      <trkpt lat="39.6413810" lon="-0.4299030">
        <ele>156.8</ele>
        <time>2018-05-01T10:21:49Z</time>
      </trkpt>
      <trkpt lat="39.6413240" lon="-0.4299240">
        <ele>156.6</ele>
        <time>2018-05-01T10:21:50Z</time>
      </trkpt>
      <trkpt lat="39.6410980" lon="-0.4300130">
        <ele>156.4</ele>
        <time>2018-05-01T10:21:54Z</time>
      </trkpt>
      <trkpt lat="39.6408020" lon="-0.4300710">
        <ele>156.2</ele>
        <time>2018-05-01T10:21:59Z</time>
      </trkpt>
      <trkpt lat="39.6405840" lon="-0.4301050">
        <ele>156.6</ele>
        <time>2018-05-01T10:22:03Z</time>
      </trkpt>
      <trkpt lat="39.6401240" lon="-0.4299120">
        <ele>157.4</ele>
        <time>2018-05-01T10:22:14Z</time>
      </trkpt>
      <trkpt lat="39.6401120" lon="-0.4298400">
        <ele>157.4</ele>
        <time>2018-05-01T10:22:15Z</time>
      </trkpt>
      <trkpt lat="39.6400970" lon="-0.4297660">
        <ele>157.4</ele>
        <time>2018-05-01T10:22:16Z</time>
      </trkpt>
      <trkpt lat="39.6400210" lon="-0.4295740">
        <ele>157.0</ele>
        <time>2018-05-01T10:22:19Z</time>
      </trkpt>
      <trkpt lat="39.6399350" lon="-0.4294770">
        <ele>155.6</ele>
        <time>2018-05-01T10:22:21Z</time>
      </trkpt>
      <trkpt lat="39.6398250" lon="-0.4294330">
        <ele>154.4</ele>
        <time>2018-05-01T10:22:23Z</time>
      </trkpt>
      <trkpt lat="39.6397680" lon="-0.4294200">
        <ele>153.8</ele>
        <time>2018-05-01T10:22:24Z</time>
      </trkpt>
      <trkpt lat="39.6397120" lon="-0.4294160">
        <ele>153.6</ele>
        <time>2018-05-01T10:22:25Z</time>
      </trkpt>
      <trkpt lat="39.6396570" lon="-0.4294230">
        <ele>153.2</ele>
        <time>2018-05-01T10:22:26Z</time>
      </trkpt>
      <trkpt lat="39.6396060" lon="-0.4294280">
        <ele>151.8</ele>
        <time>2018-05-01T10:22:27Z</time>
      </trkpt>
      <trkpt lat="39.6395120" lon="-0.4294280">
        <ele>151.0</ele>
        <time>2018-05-01T10:22:29Z</time>
      </trkpt>
      <trkpt lat="39.6393320" lon="-0.4293880">
        <ele>150.8</ele>
        <time>2018-05-01T10:22:33Z</time>
      </trkpt>
      <trkpt lat="39.6392860" lon="-0.4293720">
        <ele>150.8</ele>
        <time>2018-05-01T10:22:34Z</time>
      </trkpt>
      <trkpt lat="39.6392400" lon="-0.4293480">
        <ele>150.8</ele>
        <time>2018-05-01T10:22:35Z</time>
      </trkpt>
      <trkpt lat="39.6387900" lon="-0.4292560">
        <ele>151.0</ele>
        <time>2018-05-01T10:22:47Z</time>
      </trkpt>
      <trkpt lat="39.6387690" lon="-0.4292320">
        <ele>151.2</ele>
        <time>2018-05-01T10:22:48Z</time>
      </trkpt>
      <trkpt lat="39.6387170" lon="-0.4291810">
        <ele>151.2</ele>
        <time>2018-05-01T10:22:50Z</time>
      </trkpt>
      <trkpt lat="39.6386470" lon="-0.4291180">
        <ele>151.4</ele>
        <time>2018-05-01T10:22:52Z</time>
      </trkpt>
      <trkpt lat="39.6385690" lon="-0.4290520">
        <ele>151.6</ele>
        <time>2018-05-01T10:22:54Z</time>
      </trkpt>
      <trkpt lat="39.6384310" lon="-0.4289930">
        <ele>151.6</ele>
        <time>2018-05-01T10:22:57Z</time>
      </trkpt>
      <trkpt lat="39.6383350" lon="-0.4289860">
        <ele>151.6</ele>
        <time>2018-05-01T10:22:59Z</time>
      </trkpt>
      <trkpt lat="39.6380330" lon="-0.4289540">
        <ele>151.4</ele>
        <time>2018-05-01T10:23:05Z</time>
      </trkpt>
      <trkpt lat="39.6377370" lon="-0.4289250">
        <ele>150.6</ele>
        <time>2018-05-01T10:23:11Z</time>
      </trkpt>
      <trkpt lat="39.6374210" lon="-0.4289250">
        <ele>150.2</ele>
        <time>2018-05-01T10:23:17Z</time>
      </trkpt>
      <trkpt lat="39.6373080" lon="-0.4289180">
        <ele>149.8</ele>
        <time>2018-05-01T10:23:19Z</time>
      </trkpt>
      <trkpt lat="39.6371920" lon="-0.4288880">
        <ele>149.4</ele>
        <time>2018-05-01T10:23:21Z</time>
      </trkpt>
      <trkpt lat="39.6369110" lon="-0.4287040">
        <ele>149.0</ele>
        <time>2018-05-01T10:23:26Z</time>
      </trkpt>
      <trkpt lat="39.6367870" lon="-0.4286280">
        <ele>148.4</ele>
        <time>2018-05-01T10:23:28Z</time>
      </trkpt>
      <trkpt lat="39.6364680" lon="-0.4284630">
        <ele>147.4</ele>
        <time>2018-05-01T10:23:33Z</time>
      </trkpt>
      <trkpt lat="39.6363330" lon="-0.4284470">
        <ele>146.8</ele>
        <time>2018-05-01T10:23:35Z</time>
      </trkpt>
      <trkpt lat="39.6361950" lon="-0.4284630">
        <ele>146.2</ele>
        <time>2018-05-01T10:23:37Z</time>
      </trkpt>
      <trkpt lat="39.6358120" lon="-0.4284860">
        <ele>145.4</ele>
        <time>2018-05-01T10:23:43Z</time>
      </trkpt>
      <trkpt lat="39.6355610" lon="-0.4284810">
        <ele>145.0</ele>
        <time>2018-05-01T10:23:47Z</time>
      </trkpt>
      <trkpt lat="39.6349850" lon="-0.4285700">
        <ele>144.6</ele>
        <time>2018-05-01T10:23:56Z</time>
      </trkpt>
      <trkpt lat="39.6344570" lon="-0.4287660">
        <ele>144.8</ele>
        <time>2018-05-01T10:24:05Z</time>
      </trkpt>
      <trkpt lat="39.6342820" lon="-0.4288250">
        <ele>145.0</ele>
        <time>2018-05-01T10:24:08Z</time>
      </trkpt>
      <trkpt lat="39.6340440" lon="-0.4288630">
        <ele>144.8</ele>
        <time>2018-05-01T10:24:12Z</time>
      </trkpt>
      <trkpt lat="39.6335440" lon="-0.4289920">
        <ele>144.4</ele>
        <time>2018-05-01T10:24:21Z</time>
      </trkpt>
      <trkpt lat="39.6333430" lon="-0.4288760">
        <ele>144.2</ele>
        <time>2018-05-01T10:24:25Z</time>
      </trkpt>
      <trkpt lat="39.6332360" lon="-0.4288010">
        <ele>144.2</ele>
        <time>2018-05-01T10:24:27Z</time>
      </trkpt>
      <trkpt lat="39.6331240" lon="-0.4287290">
        <ele>143.8</ele>
        <time>2018-05-01T10:24:29Z</time>
      </trkpt>
      <trkpt lat="39.6330040" lon="-0.4286770">
        <ele>143.6</ele>
        <time>2018-05-01T10:24:31Z</time>
      </trkpt>
      <trkpt lat="39.6327520" lon="-0.4286530">
        <ele>142.8</ele>
        <time>2018-05-01T10:24:35Z</time>
      </trkpt>
      <trkpt lat="39.6325040" lon="-0.4286260">
        <ele>141.8</ele>
        <time>2018-05-01T10:24:39Z</time>
      </trkpt>
      <trkpt lat="39.6322550" lon="-0.4286080">
        <ele>140.6</ele>
        <time>2018-05-01T10:24:43Z</time>
      </trkpt>
      <trkpt lat="39.6318330" lon="-0.4285540">
        <ele>139.4</ele>
        <time>2018-05-01T10:24:50Z</time>
      </trkpt>
      <trkpt lat="39.6313480" lon="-0.4285150">
        <ele>138.6</ele>
        <time>2018-05-01T10:24:58Z</time>
      </trkpt>
      <trkpt lat="39.6309810" lon="-0.4286340">
        <ele>138.8</ele>
        <time>2018-05-01T10:25:04Z</time>
      </trkpt>
      <trkpt lat="39.6307290" lon="-0.4285960">
        <ele>138.8</ele>
        <time>2018-05-01T10:25:08Z</time>
      </trkpt>
      <trkpt lat="39.6304750" lon="-0.4284860">
        <ele>138.6</ele>
        <time>2018-05-01T10:25:12Z</time>
      </trkpt>
      <trkpt lat="39.6304090" lon="-0.4284640">
        <ele>138.4</ele>
        <time>2018-05-01T10:25:13Z</time>
      </trkpt>
      <trkpt lat="39.6301560" lon="-0.4283730">
        <ele>137.8</ele>
        <time>2018-05-01T10:25:17Z</time>
      </trkpt>
      <trkpt lat="39.6300920" lon="-0.4283520">
        <ele>137.4</ele>
        <time>2018-05-01T10:25:18Z</time>
      </trkpt>
      <trkpt lat="39.6298280" lon="-0.4282780">
        <ele>136.6</ele>
        <time>2018-05-01T10:25:22Z</time>
      </trkpt>
      <trkpt lat="39.6296980" lon="-0.4282130">
        <ele>136.4</ele>
        <time>2018-05-01T10:25:24Z</time>
      </trkpt>
      <trkpt lat="39.6291610" lon="-0.4279380">
        <ele>135.2</ele>
        <time>2018-05-01T10:25:32Z</time>
      </trkpt>
      <trkpt lat="39.6286520" lon="-0.4277880">
        <ele>134.4</ele>
        <time>2018-05-01T10:25:39Z</time>
      </trkpt>
      <trkpt lat="39.6285130" lon="-0.4277610">
        <ele>134.2</ele>
        <time>2018-05-01T10:25:41Z</time>
      </trkpt>
      <trkpt lat="39.6284440" lon="-0.4277340">
        <ele>134.0</ele>
        <time>2018-05-01T10:25:42Z</time>
      </trkpt>
      <trkpt lat="39.6280450" lon="-0.4275530">
        <ele>133.0</ele>
        <time>2018-05-01T10:25:48Z</time>
      </trkpt>
      <trkpt lat="39.6276620" lon="-0.4273540">
        <ele>132.0</ele>
        <time>2018-05-01T10:25:54Z</time>
      </trkpt>
      <trkpt lat="39.6274630" lon="-0.4272700">
        <ele>131.4</ele>
        <time>2018-05-01T10:25:57Z</time>
      </trkpt>
      <trkpt lat="39.6273990" lon="-0.4272320">
        <ele>131.2</ele>
        <time>2018-05-01T10:25:58Z</time>
      </trkpt>
      <trkpt lat="39.6272900" lon="-0.4271310">
        <ele>131.0</ele>
        <time>2018-05-01T10:26:00Z</time>
      </trkpt>
      <trkpt lat="39.6272360" lon="-0.4270820">
        <ele>130.8</ele>
        <time>2018-05-01T10:26:01Z</time>
      </trkpt>
      <trkpt lat="39.6271140" lon="-0.4270040">
        <ele>130.2</ele>
        <time>2018-05-01T10:26:03Z</time>
      </trkpt>
      <trkpt lat="39.6269160" lon="-0.4269190">
        <ele>129.8</ele>
        <time>2018-05-01T10:26:06Z</time>
      </trkpt>
      <trkpt lat="39.6267780" lon="-0.4268720">
        <ele>129.6</ele>
        <time>2018-05-01T10:26:08Z</time>
      </trkpt>
      <trkpt lat="39.6263690" lon="-0.4267470">
        <ele>128.6</ele>
        <time>2018-05-01T10:26:14Z</time>
      </trkpt>
      <trkpt lat="39.6260300" lon="-0.4266210">
        <ele>127.6</ele>
        <time>2018-05-01T10:26:19Z</time>
      </trkpt>
      <trkpt lat="39.6258170" lon="-0.4265470">
        <ele>127.2</ele>
        <time>2018-05-01T10:26:22Z</time>
      </trkpt>
      <trkpt lat="39.6255250" lon="-0.4266240">
        <ele>126.6</ele>
        <time>2018-05-01T10:26:26Z</time>
      </trkpt>
      <trkpt lat="39.6254610" lon="-0.4266770">
        <ele>126.4</ele>
        <time>2018-05-01T10:26:27Z</time>
      </trkpt>
      <trkpt lat="39.6252670" lon="-0.4268300">
        <ele>125.4</ele>
        <time>2018-05-01T10:26:30Z</time>
      </trkpt>
      <trkpt lat="39.6249840" lon="-0.4268840">
        <ele>125.0</ele>
        <time>2018-05-01T10:26:34Z</time>
      </trkpt>
      <trkpt lat="39.6247780" lon="-0.4269250">
        <ele>125.0</ele>
        <time>2018-05-01T10:26:37Z</time>
      </trkpt>
      <trkpt lat="39.6245730" lon="-0.4269550">
        <ele>125.0</ele>
        <time>2018-05-01T10:26:40Z</time>
      </trkpt>
      <trkpt lat="39.6243280" lon="-0.4268090">
        <ele>124.6</ele>
        <time>2018-05-01T10:26:44Z</time>
      </trkpt>
      <trkpt lat="39.6241300" lon="-0.4267120">
        <ele>124.6</ele>
        <time>2018-05-01T10:26:47Z</time>
      </trkpt>
      <trkpt lat="39.6239960" lon="-0.4266520">
        <ele>124.4</ele>
        <time>2018-05-01T10:26:49Z</time>
      </trkpt>
      <trkpt lat="39.6237990" lon="-0.4265580">
        <ele>124.0</ele>
        <time>2018-05-01T10:26:52Z</time>
      </trkpt>
      <trkpt lat="39.6236630" lon="-0.4265020">
        <ele>123.2</ele>
        <time>2018-05-01T10:26:54Z</time>
      </trkpt>
      <trkpt lat="39.6235320" lon="-0.4264730">
        <ele>122.6</ele>
        <time>2018-05-01T10:26:56Z</time>
      </trkpt>
      <trkpt lat="39.6234640" lon="-0.4264710">
        <ele>122.0</ele>
        <time>2018-05-01T10:26:57Z</time>
      </trkpt>
      <trkpt lat="39.6231980" lon="-0.4265570">
        <ele>121.4</ele>
        <time>2018-05-01T10:27:01Z</time>
      </trkpt>
      <trkpt lat="39.6231350" lon="-0.4265900">
        <ele>121.2</ele>
        <time>2018-05-01T10:27:02Z</time>
      </trkpt>
      <trkpt lat="39.6230690" lon="-0.4266170">
        <ele>121.0</ele>
        <time>2018-05-01T10:27:03Z</time>
      </trkpt>
      <trkpt lat="39.6226420" lon="-0.4266900">
        <ele>120.0</ele>
        <time>2018-05-01T10:27:09Z</time>
      </trkpt>
      <trkpt lat="39.6225000" lon="-0.4267180">
        <ele>118.8</ele>
        <time>2018-05-01T10:27:11Z</time>
      </trkpt>
      <trkpt lat="39.6222370" lon="-0.4267890">
        <ele>118.2</ele>
        <time>2018-05-01T10:27:15Z</time>
      </trkpt>
      <trkpt lat="39.6219140" lon="-0.4268030">
        <ele>117.8</ele>
        <time>2018-05-01T10:27:20Z</time>
      </trkpt>
      <trkpt lat="39.6217280" lon="-0.4267680">
        <ele>117.6</ele>
        <time>2018-05-01T10:27:23Z</time>
      </trkpt>
      <trkpt lat="39.6216700" lon="-0.4267460">
        <ele>117.4</ele>
        <time>2018-05-01T10:27:24Z</time>
      </trkpt>
      <trkpt lat="39.6215060" lon="-0.4267130">
        <ele>117.0</ele>
        <time>2018-05-01T10:27:27Z</time>
      </trkpt>
      <trkpt lat="39.6214510" lon="-0.4267080">
        <ele>116.2</ele>
        <time>2018-05-01T10:27:28Z</time>
      </trkpt>
      <trkpt lat="39.6212160" lon="-0.4266980">
        <ele>115.4</ele>
        <time>2018-05-01T10:27:32Z</time>
      </trkpt>
      <trkpt lat="39.6210330" lon="-0.4267700">
        <ele>115.2</ele>
        <time>2018-05-01T10:27:35Z</time>
      </trkpt>
      <trkpt lat="39.6208510" lon="-0.4268820">
        <ele>115.0</ele>
        <time>2018-05-01T10:27:38Z</time>
      </trkpt>
      <trkpt lat="39.6205980" lon="-0.4268630">
        <ele>114.2</ele>
        <time>2018-05-01T10:27:42Z</time>
      </trkpt>
      <trkpt lat="39.6204070" lon="-0.4266400">
        <ele>113.2</ele>
        <time>2018-05-01T10:27:46Z</time>
      </trkpt>
      <trkpt lat="39.6202220" lon="-0.4265350">
        <ele>112.8</ele>
        <time>2018-05-01T10:27:49Z</time>
      </trkpt>
      <trkpt lat="39.6200910" lon="-0.4265000">
        <ele>112.2</ele>
        <time>2018-05-01T10:27:51Z</time>
      </trkpt>
      <trkpt lat="39.6200300" lon="-0.4264750">
        <ele>111.6</ele>
        <time>2018-05-01T10:27:52Z</time>
      </trkpt>
      <trkpt lat="39.6199140" lon="-0.4264210">
        <ele>111.2</ele>
        <time>2018-05-01T10:27:54Z</time>
      </trkpt>
      <trkpt lat="39.6197540" lon="-0.4263840">
        <ele>111.0</ele>
        <time>2018-05-01T10:27:57Z</time>
      </trkpt>
      <trkpt lat="39.6196470" lon="-0.4263350">
        <ele>110.8</ele>
        <time>2018-05-01T10:27:59Z</time>
      </trkpt>
      <trkpt lat="39.6195980" lon="-0.4262940">
        <ele>110.6</ele>
        <time>2018-05-01T10:28:00Z</time>
      </trkpt>
      <trkpt lat="39.6194750" lon="-0.4261250">
        <ele>110.4</ele>
        <time>2018-05-01T10:28:03Z</time>
      </trkpt>
      <trkpt lat="39.6194380" lon="-0.4260670">
        <ele>110.2</ele>
        <time>2018-05-01T10:28:04Z</time>
      </trkpt>
      <trkpt lat="39.6192270" lon="-0.4258350">
        <ele>109.4</ele>
        <time>2018-05-01T10:28:09Z</time>
      </trkpt>
      <trkpt lat="39.6191790" lon="-0.4257910">
        <ele>109.2</ele>
        <time>2018-05-01T10:28:10Z</time>
      </trkpt>
      <trkpt lat="39.6191050" lon="-0.4256810">
        <ele>108.4</ele>
        <time>2018-05-01T10:28:12Z</time>
      </trkpt>
      <trkpt lat="39.6190830" lon="-0.4256170">
        <ele>108.4</ele>
        <time>2018-05-01T10:28:13Z</time>
      </trkpt>
      <trkpt lat="39.6190520" lon="-0.4254750">
        <ele>108.0</ele>
        <time>2018-05-01T10:28:15Z</time>
      </trkpt>
      <trkpt lat="39.6190330" lon="-0.4254030">
        <ele>107.8</ele>
        <time>2018-05-01T10:28:16Z</time>
      </trkpt>
      <trkpt lat="39.6189640" lon="-0.4252840">
        <ele>107.4</ele>
        <time>2018-05-01T10:28:18Z</time>
      </trkpt>
      <trkpt lat="39.6188680" lon="-0.4252470">
        <ele>107.2</ele>
        <time>2018-05-01T10:28:20Z</time>
      </trkpt>
      <trkpt lat="39.6185670" lon="-0.4254250">
        <ele>107.4</ele>
        <time>2018-05-01T10:28:26Z</time>
      </trkpt>
      <trkpt lat="39.6184240" lon="-0.4255040">
        <ele>107.8</ele>
        <time>2018-05-01T10:28:29Z</time>
      </trkpt>
      <trkpt lat="39.6181650" lon="-0.4256680">
        <ele>108.4</ele>
        <time>2018-05-01T10:28:35Z</time>
      </trkpt>
      <trkpt lat="39.6181210" lon="-0.4256990">
        <ele>108.6</ele>
        <time>2018-05-01T10:28:36Z</time>
      </trkpt>
      <trkpt lat="39.6180740" lon="-0.4257290">
        <ele>108.6</ele>
        <time>2018-05-01T10:28:37Z</time>
      </trkpt>
      <trkpt lat="39.6175460" lon="-0.4259450">
        <ele>108.0</ele>
        <time>2018-05-01T10:28:47Z</time>
      </trkpt>
      <trkpt lat="39.6174380" lon="-0.4259270">
        <ele>107.6</ele>
        <time>2018-05-01T10:28:49Z</time>
      </trkpt>
      <trkpt lat="39.6173370" lon="-0.4258720">
        <ele>107.4</ele>
        <time>2018-05-01T10:28:51Z</time>
      </trkpt>
      <trkpt lat="39.6170120" lon="-0.4257090">
        <ele>106.0</ele>
        <time>2018-05-01T10:28:57Z</time>
      </trkpt>
      <trkpt lat="39.6168890" lon="-0.4256620">
        <ele>105.4</ele>
        <time>2018-05-01T10:28:59Z</time>
      </trkpt>
      <trkpt lat="39.6168280" lon="-0.4256510">
        <ele>105.2</ele>
        <time>2018-05-01T10:29:00Z</time>
      </trkpt>
      <trkpt lat="39.6166870" lon="-0.4257920">
        <ele>105.0</ele>
        <time>2018-05-01T10:29:04Z</time>
      </trkpt>
      <trkpt lat="39.6166560" lon="-0.4259290">
        <ele>104.8</ele>
        <time>2018-05-01T10:29:06Z</time>
      </trkpt>
      <trkpt lat="39.6166330" lon="-0.4260010">
        <ele>104.8</ele>
        <time>2018-05-01T10:29:07Z</time>
      </trkpt>
      <trkpt lat="39.6164690" lon="-0.4262370">
        <ele>104.2</ele>
        <time>2018-05-01T10:29:11Z</time>
      </trkpt>
      <trkpt lat="39.6163830" lon="-0.4263480">
        <ele>104.0</ele>
        <time>2018-05-01T10:29:13Z</time>
      </trkpt>
      <trkpt lat="39.6162860" lon="-0.4264470">
        <ele>103.8</ele>
        <time>2018-05-01T10:29:15Z</time>
      </trkpt>
      <trkpt lat="39.6161220" lon="-0.4265480">
        <ele>102.8</ele>
        <time>2018-05-01T10:29:18Z</time>
      </trkpt>
      <trkpt lat="39.6159030" lon="-0.4265380">
        <ele>102.6</ele>
        <time>2018-05-01T10:29:22Z</time>
      </trkpt>
      <trkpt lat="39.6157570" lon="-0.4264960">
        <ele>102.6</ele>
        <time>2018-05-01T10:29:25Z</time>
      </trkpt>
      <trkpt lat="39.6157160" lon="-0.4264940">
        <ele>102.6</ele>
        <time>2018-05-01T10:29:26Z</time>
      </trkpt>
      <trkpt lat="39.6156660" lon="-0.4265380">
        <ele>102.6</ele>
        <time>2018-05-01T10:29:28Z</time>
      </trkpt>
      <trkpt lat="39.6156560" lon="-0.4265760">
        <ele>103.0</ele>
        <time>2018-05-01T10:29:29Z</time>
      </trkpt>
      <trkpt lat="39.6156420" lon="-0.4266630">
        <ele>104.0</ele>
        <time>2018-05-01T10:29:31Z</time>
      </trkpt>
      <trkpt lat="39.6156220" lon="-0.4267010">
        <ele>104.2</ele>
        <time>2018-05-01T10:29:32Z</time>
      </trkpt>
      <trkpt lat="39.6155930" lon="-0.4267250">
        <ele>104.4</ele>
        <time>2018-05-01T10:29:33Z</time>
      </trkpt>
      <trkpt lat="39.6155210" lon="-0.4267220">
        <ele>105.0</ele>
        <time>2018-05-01T10:29:35Z</time>
      </trkpt>
      <trkpt lat="39.6154450" lon="-0.4266930">
        <ele>105.8</ele>
        <time>2018-05-01T10:29:37Z</time>
      </trkpt>
      <trkpt lat="39.6154040" lon="-0.4266790">
        <ele>106.0</ele>
        <time>2018-05-01T10:29:38Z</time>
      </trkpt>
      <trkpt lat="39.6152740" lon="-0.4266520">
        <ele>106.4</ele>
        <time>2018-05-01T10:29:41Z</time>
      </trkpt>
      <trkpt lat="39.6149900" lon="-0.4266650">
        <ele>106.4</ele>
        <time>2018-05-01T10:29:47Z</time>
      </trkpt>
      <trkpt lat="39.6149380" lon="-0.4266670">
        <ele>106.4</ele>
        <time>2018-05-01T10:29:48Z</time>
      </trkpt>
      <trkpt lat="39.6147710" lon="-0.4266410">
        <ele>106.4</ele>
        <time>2018-05-01T10:29:51Z</time>
      </trkpt>
      <trkpt lat="39.6146010" lon="-0.4266020">
        <ele>106.0</ele>
        <time>2018-05-01T10:29:54Z</time>
      </trkpt>
      <trkpt lat="39.6144890" lon="-0.4265900">
        <ele>106.0</ele>
        <time>2018-05-01T10:29:56Z</time>
      </trkpt>
      <trkpt lat="39.6143190" lon="-0.4266510">
        <ele>105.0</ele>
        <time>2018-05-01T10:29:59Z</time>
      </trkpt>
      <trkpt lat="39.6141250" lon="-0.4266400">
        <ele>104.2</ele>
        <time>2018-05-01T10:30:02Z</time>
      </trkpt>
      <trkpt lat="39.6139950" lon="-0.4266040">
        <ele>103.8</ele>
        <time>2018-05-01T10:30:04Z</time>
      </trkpt>
      <trkpt lat="39.6139320" lon="-0.4265800">
        <ele>103.6</ele>
        <time>2018-05-01T10:30:05Z</time>
      </trkpt>
      <trkpt lat="39.6138100" lon="-0.4265320">
        <ele>102.4</ele>
        <time>2018-05-01T10:30:07Z</time>
      </trkpt>
      <trkpt lat="39.6136840" lon="-0.4265130">
        <ele>101.2</ele>
        <time>2018-05-01T10:30:09Z</time>
      </trkpt>
      <trkpt lat="39.6135540" lon="-0.4264930">
        <ele>101.0</ele>
        <time>2018-05-01T10:30:11Z</time>
      </trkpt>
      <trkpt lat="39.6134260" lon="-0.4264410">
        <ele>100.0</ele>
        <time>2018-05-01T10:30:13Z</time>
      </trkpt>
      <trkpt lat="39.6131810" lon="-0.4263150">
        <ele>99.0</ele>
        <time>2018-05-01T10:30:17Z</time>
      </trkpt>
      <trkpt lat="39.6130600" lon="-0.4262510">
        <ele>98.6</ele>
        <time>2018-05-01T10:30:19Z</time>
      </trkpt>
      <trkpt lat="39.6128660" lon="-0.4261660">
        <ele>98.0</ele>
        <time>2018-05-01T10:30:22Z</time>
      </trkpt>
      <trkpt lat="39.6127410" lon="-0.4261160">
        <ele>97.6</ele>
        <time>2018-05-01T10:30:24Z</time>
      </trkpt>
      <trkpt lat="39.6126140" lon="-0.4261060">
        <ele>97.4</ele>
        <time>2018-05-01T10:30:26Z</time>
      </trkpt>
      <trkpt lat="39.6124800" lon="-0.4260990">
        <ele>97.0</ele>
        <time>2018-05-01T10:30:28Z</time>
      </trkpt>
      <trkpt lat="39.6124140" lon="-0.4260760">
        <ele>97.0</ele>
        <time>2018-05-01T10:30:29Z</time>
      </trkpt>
      <trkpt lat="39.6123490" lon="-0.4260460">
        <ele>96.2</ele>
        <time>2018-05-01T10:30:30Z</time>
      </trkpt>
      <trkpt lat="39.6122860" lon="-0.4260180">
        <ele>95.6</ele>
        <time>2018-05-01T10:30:31Z</time>
      </trkpt>
      <trkpt lat="39.6120970" lon="-0.4259460">
        <ele>94.4</ele>
        <time>2018-05-01T10:30:34Z</time>
      </trkpt>
      <trkpt lat="39.6119100" lon="-0.4258600">
        <ele>93.8</ele>
        <time>2018-05-01T10:30:37Z</time>
      </trkpt>
      <trkpt lat="39.6117920" lon="-0.4258250">
        <ele>93.6</ele>
        <time>2018-05-01T10:30:39Z</time>
      </trkpt>
      <trkpt lat="39.6117370" lon="-0.4258060">
        <ele>93.6</ele>
        <time>2018-05-01T10:30:40Z</time>
      </trkpt>
      <trkpt lat="39.6114750" lon="-0.4256970">
        <ele>93.4</ele>
        <time>2018-05-01T10:30:45Z</time>
      </trkpt>
      <trkpt lat="39.6114260" lon="-0.4256650">
        <ele>93.4</ele>
        <time>2018-05-01T10:30:46Z</time>
      </trkpt>
      <trkpt lat="39.6111410" lon="-0.4254200">
        <ele>93.2</ele>
        <time>2018-05-01T10:30:52Z</time>
      </trkpt>
      <trkpt lat="39.6106010" lon="-0.4253160">
        <ele>92.4</ele>
        <time>2018-05-01T10:31:02Z</time>
      </trkpt>
      <trkpt lat="39.6103710" lon="-0.4252840">
        <ele>91.4</ele>
        <time>2018-05-01T10:31:06Z</time>
      </trkpt>
      <trkpt lat="39.6103180" lon="-0.4252780">
        <ele>91.2</ele>
        <time>2018-05-01T10:31:07Z</time>
      </trkpt>
      <trkpt lat="39.6099460" lon="-0.4252130">
        <ele>90.8</ele>
        <time>2018-05-01T10:31:14Z</time>
      </trkpt>
      <trkpt lat="39.6097240" lon="-0.4251940">
        <ele>90.8</ele>
        <time>2018-05-01T10:31:18Z</time>
      </trkpt>
      <trkpt lat="39.6095750" lon="-0.4253100">
        <ele>90.6</ele>
        <time>2018-05-01T10:31:21Z</time>
      </trkpt>
      <trkpt lat="39.6095320" lon="-0.4253650">
        <ele>90.6</ele>
        <time>2018-05-01T10:31:22Z</time>
      </trkpt>
      <trkpt lat="39.6094470" lon="-0.4254760">
        <ele>90.0</ele>
        <time>2018-05-01T10:31:24Z</time>
      </trkpt>
      <trkpt lat="39.6094020" lon="-0.4255220">
        <ele>89.8</ele>
        <time>2018-05-01T10:31:25Z</time>
      </trkpt>
      <trkpt lat="39.6092550" lon="-0.4256120">
        <ele>89.6</ele>
        <time>2018-05-01T10:31:28Z</time>
      </trkpt>
      <trkpt lat="39.6087570" lon="-0.4259430">
        <ele>89.4</ele>
        <time>2018-05-01T10:31:39Z</time>
      </trkpt>
      <trkpt lat="39.6084550" lon="-0.4261080">
        <ele>89.2</ele>
        <time>2018-05-01T10:31:45Z</time>
      </trkpt>
      <trkpt lat="39.6082860" lon="-0.4261660">
        <ele>89.0</ele>
        <time>2018-05-01T10:31:48Z</time>
      </trkpt>
      <trkpt lat="39.6082330" lon="-0.4261870">
        <ele>89.0</ele>
        <time>2018-05-01T10:31:49Z</time>
      </trkpt>
      <trkpt lat="39.6080730" lon="-0.4262610">
        <ele>88.8</ele>
        <time>2018-05-01T10:31:52Z</time>
      </trkpt>
      <trkpt lat="39.6079090" lon="-0.4263230">
        <ele>88.6</ele>
        <time>2018-05-01T10:31:55Z</time>
      </trkpt>
      <trkpt lat="39.6078570" lon="-0.4263520">
        <ele>88.6</ele>
        <time>2018-05-01T10:31:56Z</time>
      </trkpt>
      <trkpt lat="39.6077720" lon="-0.4264480">
        <ele>88.6</ele>
        <time>2018-05-01T10:31:58Z</time>
      </trkpt>
      <trkpt lat="39.6076930" lon="-0.4266490">
        <ele>88.6</ele>
        <time>2018-05-01T10:32:01Z</time>
      </trkpt>
      <trkpt lat="39.6076040" lon="-0.4268550">
        <ele>88.2</ele>
        <time>2018-05-01T10:32:04Z</time>
      </trkpt>
      <trkpt lat="39.6075680" lon="-0.4269150">
        <ele>88.0</ele>
        <time>2018-05-01T10:32:05Z</time>
      </trkpt>
      <trkpt lat="39.6073470" lon="-0.4271190">
        <ele>88.0</ele>
        <time>2018-05-01T10:32:10Z</time>
      </trkpt>
      <trkpt lat="39.6071420" lon="-0.4271430">
        <ele>87.8</ele>
        <time>2018-05-01T10:32:14Z</time>
      </trkpt>
      <trkpt lat="39.6069140" lon="-0.4271220">
        <ele>87.8</ele>
        <time>2018-05-01T10:32:18Z</time>
      </trkpt>
      <trkpt lat="39.6067970" lon="-0.4271090">
        <ele>87.8</ele>
        <time>2018-05-01T10:32:20Z</time>
      </trkpt>
      <trkpt lat="39.6063910" lon="-0.4270840">
        <ele>87.0</ele>
        <time>2018-05-01T10:32:27Z</time>
      </trkpt>
      <trkpt lat="39.6058830" lon="-0.4270730">
        <ele>86.6</ele>
        <time>2018-05-01T10:32:36Z</time>
      </trkpt>
      <trkpt lat="39.6057140" lon="-0.4270850">
        <ele>86.0</ele>
        <time>2018-05-01T10:32:39Z</time>
      </trkpt>
      <trkpt lat="39.6053690" lon="-0.4271600">
        <ele>85.0</ele>
        <time>2018-05-01T10:32:45Z</time>
      </trkpt>
      <trkpt lat="39.6053060" lon="-0.4271750">
        <ele>83.6</ele>
        <time>2018-05-01T10:32:46Z</time>
      </trkpt>
      <trkpt lat="39.6052410" lon="-0.4271880">
        <ele>83.2</ele>
        <time>2018-05-01T10:32:47Z</time>
      </trkpt>
      <trkpt lat="39.6050390" lon="-0.4272290">
        <ele>82.6</ele>
        <time>2018-05-01T10:32:50Z</time>
      </trkpt>
      <trkpt lat="39.6047740" lon="-0.4272960">
        <ele>82.2</ele>
        <time>2018-05-01T10:32:54Z</time>
      </trkpt>
      <trkpt lat="39.6045780" lon="-0.4271090">
        <ele>82.0</ele>
        <time>2018-05-01T10:32:59Z</time>
      </trkpt>
      <trkpt lat="39.6045720" lon="-0.4269420">
        <ele>81.8</ele>
        <time>2018-05-01T10:33:01Z</time>
      </trkpt>
      <trkpt lat="39.6045640" lon="-0.4267690">
        <ele>81.6</ele>
        <time>2018-05-01T10:33:03Z</time>
      </trkpt>
      <trkpt lat="39.6045610" lon="-0.4266790">
        <ele>81.4</ele>
        <time>2018-05-01T10:33:04Z</time>
      </trkpt>
      <trkpt lat="39.6045340" lon="-0.4264330">
        <ele>80.8</ele>
        <time>2018-05-01T10:33:07Z</time>
      </trkpt>
      <trkpt lat="39.6043640" lon="-0.4263010">
        <ele>80.4</ele>
        <time>2018-05-01T10:33:11Z</time>
      </trkpt>
      <trkpt lat="39.6041950" lon="-0.4262390">
        <ele>79.2</ele>
        <time>2018-05-01T10:33:14Z</time>
      </trkpt>
      <trkpt lat="39.6041380" lon="-0.4262260">
        <ele>78.8</ele>
        <time>2018-05-01T10:33:15Z</time>
      </trkpt>
      <trkpt lat="39.6039640" lon="-0.4261990">
        <ele>78.0</ele>
        <time>2018-05-01T10:33:18Z</time>
      </trkpt>
      <trkpt lat="39.6038430" lon="-0.4261800">
        <ele>77.4</ele>
        <time>2018-05-01T10:33:20Z</time>
      </trkpt>
      <trkpt lat="39.6037260" lon="-0.4261580">
        <ele>77.0</ele>
        <time>2018-05-01T10:33:22Z</time>
      </trkpt>
      <trkpt lat="39.6036670" lon="-0.4261530">
        <ele>76.8</ele>
        <time>2018-05-01T10:33:23Z</time>
      </trkpt>
      <trkpt lat="39.6035450" lon="-0.4261430">
        <ele>76.6</ele>
        <time>2018-05-01T10:33:25Z</time>
      </trkpt>
      <trkpt lat="39.6033620" lon="-0.4261170">
        <ele>75.8</ele>
        <time>2018-05-01T10:33:28Z</time>
      </trkpt>
      <trkpt lat="39.6030820" lon="-0.4260210">
        <ele>74.8</ele>
        <time>2018-05-01T10:33:33Z</time>
      </trkpt>
      <trkpt lat="39.6029260" lon="-0.4259440">
        <ele>74.4</ele>
        <time>2018-05-01T10:33:36Z</time>
      </trkpt>
      <trkpt lat="39.6027420" lon="-0.4258140">
        <ele>74.4</ele>
        <time>2018-05-01T10:33:40Z</time>
      </trkpt>
      <trkpt lat="39.6026990" lon="-0.4257790">
        <ele>74.4</ele>
        <time>2018-05-01T10:33:41Z</time>
      </trkpt>
      <trkpt lat="39.6025650" lon="-0.4255900">
        <ele>74.4</ele>
        <time>2018-05-01T10:33:45Z</time>
      </trkpt>
      <trkpt lat="39.6024700" lon="-0.4253900">
        <ele>75.6</ele>
        <time>2018-05-01T10:33:49Z</time>
      </trkpt>
      <trkpt lat="39.6024480" lon="-0.4253350">
        <ele>75.8</ele>
        <time>2018-05-01T10:33:50Z</time>
      </trkpt>
      <trkpt lat="39.6024260" lon="-0.4252830">
        <ele>76.0</ele>
        <time>2018-05-01T10:33:51Z</time>
      </trkpt>
      <trkpt lat="39.6023460" lon="-0.4251400">
        <ele>76.2</ele>
        <time>2018-05-01T10:33:54Z</time>
      </trkpt>
      <trkpt lat="39.6022850" lon="-0.4250410">
        <ele>76.8</ele>
        <time>2018-05-01T10:33:56Z</time>
      </trkpt>
      <trkpt lat="39.6022220" lon="-0.4249440">
        <ele>77.2</ele>
        <time>2018-05-01T10:33:58Z</time>
      </trkpt>
      <trkpt lat="39.6017880" lon="-0.4245180">
        <ele>77.4</ele>
        <time>2018-05-01T10:34:09Z</time>
      </trkpt>
      <trkpt lat="39.6015460" lon="-0.4242790">
        <ele>77.0</ele>
        <time>2018-05-01T10:34:15Z</time>
      </trkpt>
      <trkpt lat="39.6014230" lon="-0.4241650">
        <ele>77.0</ele>
        <time>2018-05-01T10:34:18Z</time>
      </trkpt>
      <trkpt lat="39.6013010" lon="-0.4240550">
        <ele>77.0</ele>
        <time>2018-05-01T10:34:21Z</time>
      </trkpt>
      <trkpt lat="39.6011810" lon="-0.4239520">
        <ele>77.0</ele>
        <time>2018-05-01T10:34:24Z</time>
      </trkpt>
      <trkpt lat="39.6009120" lon="-0.4237480">
        <ele>76.6</ele>
        <time>2018-05-01T10:34:30Z</time>
      </trkpt>
      <trkpt lat="39.6008170" lon="-0.4236790">
        <ele>76.6</ele>
        <time>2018-05-01T10:34:32Z</time>
      </trkpt>
      <trkpt lat="39.6006190" lon="-0.4235270">
        <ele>76.4</ele>
        <time>2018-05-01T10:34:36Z</time>
      </trkpt>
      <trkpt lat="39.6005170" lon="-0.4234600">
        <ele>76.4</ele>
        <time>2018-05-01T10:34:38Z</time>
      </trkpt>
      <trkpt lat="39.6004180" lon="-0.4234000">
        <ele>76.4</ele>
        <time>2018-05-01T10:34:40Z</time>
      </trkpt>
      <trkpt lat="39.6002720" lon="-0.4233210">
        <ele>76.4</ele>
        <time>2018-05-01T10:34:43Z</time>
      </trkpt>
      <trkpt lat="39.5999730" lon="-0.4231390">
        <ele>75.8</ele>
        <time>2018-05-01T10:34:49Z</time>
      </trkpt>
      <trkpt lat="39.5997390" lon="-0.4229880">
        <ele>74.8</ele>
        <time>2018-05-01T10:34:54Z</time>
      </trkpt>
      <trkpt lat="39.5996380" lon="-0.4229350">
        <ele>74.6</ele>
        <time>2018-05-01T10:34:56Z</time>
      </trkpt>
      <trkpt lat="39.5992430" lon="-0.4228530">
        <ele>74.2</ele>
        <time>2018-05-01T10:35:04Z</time>
      </trkpt>
      <trkpt lat="39.5992050" lon="-0.4228490">
        <ele>74.2</ele>
        <time>2018-05-01T10:35:05Z</time>
      </trkpt>
      <trkpt lat="39.5991720" lon="-0.4228450">
        <ele>74.0</ele>
        <time>2018-05-01T10:35:06Z</time>
      </trkpt>
      <trkpt lat="39.5990040" lon="-0.4228200">
        <ele>73.8</ele>
        <time>2018-05-01T10:35:11Z</time>
      </trkpt>
      <trkpt lat="39.5989600" lon="-0.4228060">
        <ele>73.8</ele>
        <time>2018-05-01T10:35:12Z</time>
      </trkpt>
      <trkpt lat="39.5989130" lon="-0.4227950">
        <ele>73.8</ele>
        <time>2018-05-01T10:35:13Z</time>
      </trkpt>
      <trkpt lat="39.5987710" lon="-0.4227640">
        <ele>74.0</ele>
        <time>2018-05-01T10:35:16Z</time>
      </trkpt>
      <trkpt lat="39.5986860" lon="-0.4227280">
        <ele>73.8</ele>
        <time>2018-05-01T10:35:18Z</time>
      </trkpt>
      <trkpt lat="39.5984020" lon="-0.4225890">
        <ele>73.0</ele>
        <time>2018-05-01T10:35:24Z</time>
      </trkpt>
      <trkpt lat="39.5983020" lon="-0.4225430">
        <ele>73.0</ele>
        <time>2018-05-01T10:35:26Z</time>
      </trkpt>
      <trkpt lat="39.5977860" lon="-0.4223640">
        <ele>72.0</ele>
        <time>2018-05-01T10:35:36Z</time>
      </trkpt>
      <trkpt lat="39.5975290" lon="-0.4222720">
        <ele>70.8</ele>
        <time>2018-05-01T10:35:41Z</time>
      </trkpt>
      <trkpt lat="39.5973290" lon="-0.4221360">
        <ele>70.4</ele>
        <time>2018-05-01T10:35:45Z</time>
      </trkpt>
      <trkpt lat="39.5970620" lon="-0.4219620">
        <ele>69.8</ele>
        <time>2018-05-01T10:35:50Z</time>
      </trkpt>
      <trkpt lat="39.5967270" lon="-0.4217430">
        <ele>69.6</ele>
        <time>2018-05-01T10:35:56Z</time>
      </trkpt>
      <trkpt lat="39.5961880" lon="-0.4214030">
        <ele>69.2</ele>
        <time>2018-05-01T10:36:05Z</time>
      </trkpt>
      <trkpt lat="39.5960670" lon="-0.4213270">
        <ele>68.6</ele>
        <time>2018-05-01T10:36:07Z</time>
      </trkpt>
      <trkpt lat="39.5955280" lon="-0.4209790">
        <ele>67.6</ele>
        <time>2018-05-01T10:36:16Z</time>
      </trkpt>
      <trkpt lat="39.5954690" lon="-0.4209390">
        <ele>67.4</ele>
        <time>2018-05-01T10:36:17Z</time>
      </trkpt>
      <trkpt lat="39.5950730" lon="-0.4206690">
        <ele>66.0</ele>
        <time>2018-05-01T10:36:24Z</time>
      </trkpt>
      <trkpt lat="39.5949090" lon="-0.4205410">
        <ele>65.2</ele>
        <time>2018-05-01T10:36:27Z</time>
      </trkpt>
      <trkpt lat="39.5946300" lon="-0.4203500">
        <ele>65.0</ele>
        <time>2018-05-01T10:36:32Z</time>
      </trkpt>
      <trkpt lat="39.5943430" lon="-0.4201720">
        <ele>64.6</ele>
        <time>2018-05-01T10:36:37Z</time>
      </trkpt>
      <trkpt lat="39.5938220" lon="-0.4198520">
        <ele>64.8</ele>
        <time>2018-05-01T10:36:46Z</time>
      </trkpt>
      <trkpt lat="39.5932800" lon="-0.4195100">
        <ele>64.8</ele>
        <time>2018-05-01T10:36:55Z</time>
      </trkpt>
      <trkpt lat="39.5928390" lon="-0.4192680">
        <ele>64.0</ele>
        <time>2018-05-01T10:37:02Z</time>
      </trkpt>
      <trkpt lat="39.5926440" lon="-0.4191950">
        <ele>63.4</ele>
        <time>2018-05-01T10:37:05Z</time>
      </trkpt>
      <trkpt lat="39.5923040" lon="-0.4191480">
        <ele>63.0</ele>
        <time>2018-05-01T10:37:10Z</time>
      </trkpt>
      <trkpt lat="39.5917690" lon="-0.4190340">
        <ele>62.6</ele>
        <time>2018-05-01T10:37:18Z</time>
      </trkpt>
      <trkpt lat="39.5912390" lon="-0.4188610">
        <ele>62.4</ele>
        <time>2018-05-01T10:37:26Z</time>
      </trkpt>
      <trkpt lat="39.5907880" lon="-0.4186680">
        <ele>62.0</ele>
        <time>2018-05-01T10:37:33Z</time>
      </trkpt>
      <trkpt lat="39.5903570" lon="-0.4184370">
        <ele>61.6</ele>
        <time>2018-05-01T10:37:40Z</time>
      </trkpt>
      <trkpt lat="39.5902960" lon="-0.4184230">
        <ele>61.4</ele>
        <time>2018-05-01T10:37:41Z</time>
      </trkpt>
      <trkpt lat="39.5900740" lon="-0.4185780">
        <ele>61.6</ele>
        <time>2018-05-01T10:37:45Z</time>
      </trkpt>
      <trkpt lat="39.5897340" lon="-0.4184900">
        <ele>60.8</ele>
        <time>2018-05-01T10:37:51Z</time>
      </trkpt>
      <trkpt lat="39.5896920" lon="-0.4184270">
        <ele>60.8</ele>
        <time>2018-05-01T10:37:52Z</time>
      </trkpt>
      <trkpt lat="39.5895210" lon="-0.4181740">
        <ele>60.6</ele>
        <time>2018-05-01T10:37:56Z</time>
      </trkpt>
      <trkpt lat="39.5892550" lon="-0.4177890">
        <ele>59.8</ele>
        <time>2018-05-01T10:38:02Z</time>
      </trkpt>
      <trkpt lat="39.5890420" lon="-0.4174730">
        <ele>58.6</ele>
        <time>2018-05-01T10:38:07Z</time>
      </trkpt>
      <trkpt lat="39.5887100" lon="-0.4169950">
        <ele>57.6</ele>
        <time>2018-05-01T10:38:15Z</time>
      </trkpt>
      <trkpt lat="39.5885790" lon="-0.4168210">
        <ele>56.8</ele>
        <time>2018-05-01T10:38:18Z</time>
      </trkpt>
      <trkpt lat="39.5884910" lon="-0.4167020">
        <ele>56.4</ele>
        <time>2018-05-01T10:38:20Z</time>
      </trkpt>
      <trkpt lat="39.5881630" lon="-0.4163050">
        <ele>56.4</ele>
        <time>2018-05-01T10:38:27Z</time>
      </trkpt>
      <trkpt lat="39.5876450" lon="-0.4160720">
        <ele>56.4</ele>
        <time>2018-05-01T10:38:36Z</time>
      </trkpt>
      <trkpt lat="39.5871030" lon="-0.4158310">
        <ele>56.6</ele>
        <time>2018-05-01T10:38:45Z</time>
      </trkpt>
      <trkpt lat="39.5865300" lon="-0.4155960">
        <ele>56.4</ele>
        <time>2018-05-01T10:38:54Z</time>
      </trkpt>
      <trkpt lat="39.5860000" lon="-0.4154260">
        <ele>56.2</ele>
        <time>2018-05-01T10:39:02Z</time>
      </trkpt>
      <trkpt lat="39.5855990" lon="-0.4152950">
        <ele>55.4</ele>
        <time>2018-05-01T10:39:08Z</time>
      </trkpt>
      <trkpt lat="39.5850550" lon="-0.4149560">
        <ele>54.6</ele>
        <time>2018-05-01T10:39:17Z</time>
      </trkpt>
      <trkpt lat="39.5845550" lon="-0.4146520">
        <ele>54.6</ele>
        <time>2018-05-01T10:39:25Z</time>
      </trkpt>
      <trkpt lat="39.5841580" lon="-0.4144580">
        <ele>55.2</ele>
        <time>2018-05-01T10:39:31Z</time>
      </trkpt>
      <trkpt lat="39.5836130" lon="-0.4141450">
        <ele>55.2</ele>
        <time>2018-05-01T10:39:39Z</time>
      </trkpt>
      <trkpt lat="39.5831270" lon="-0.4139330">
        <ele>54.8</ele>
        <time>2018-05-01T10:39:46Z</time>
      </trkpt>
      <trkpt lat="39.5830000" lon="-0.4138980">
        <ele>54.8</ele>
        <time>2018-05-01T10:39:48Z</time>
      </trkpt>
      <trkpt lat="39.5828830" lon="-0.4138600">
        <ele>54.6</ele>
        <time>2018-05-01T10:39:50Z</time>
      </trkpt>
      <trkpt lat="39.5827980" lon="-0.4138300">
        <ele>54.6</ele>
        <time>2018-05-01T10:39:52Z</time>
      </trkpt>
      <trkpt lat="39.5826520" lon="-0.4139940">
        <ele>54.4</ele>
        <time>2018-05-01T10:39:57Z</time>
      </trkpt>
      <trkpt lat="39.5826210" lon="-0.4140350">
        <ele>54.6</ele>
        <time>2018-05-01T10:39:58Z</time>
      </trkpt>
      <trkpt lat="39.5825370" lon="-0.4141860">
        <ele>55.2</ele>
        <time>2018-05-01T10:40:01Z</time>
      </trkpt>
      <trkpt lat="39.5824520" lon="-0.4143320">
        <ele>55.4</ele>
        <time>2018-05-01T10:40:04Z</time>
      </trkpt>
      <trkpt lat="39.5824190" lon="-0.4143790">
        <ele>55.4</ele>
        <time>2018-05-01T10:40:05Z</time>
      </trkpt>
      <trkpt lat="39.5823500" lon="-0.4144830">
        <ele>55.4</ele>
        <time>2018-05-01T10:40:07Z</time>
      </trkpt>
      <trkpt lat="39.5823150" lon="-0.4146150">
        <ele>55.4</ele>
        <time>2018-05-01T10:40:09Z</time>
      </trkpt>
      <trkpt lat="39.5822610" lon="-0.4148610">
        <ele>55.2</ele>
        <time>2018-05-01T10:40:13Z</time>
      </trkpt>
      <trkpt lat="39.5821790" lon="-0.4149570">
        <ele>55.0</ele>
        <time>2018-05-01T10:40:15Z</time>
      </trkpt>
      <trkpt lat="39.5821370" lon="-0.4150040">
        <ele>54.6</ele>
        <time>2018-05-01T10:40:16Z</time>
      </trkpt>
      <trkpt lat="39.5820590" lon="-0.4151110">
        <ele>53.6</ele>
        <time>2018-05-01T10:40:18Z</time>
      </trkpt>
      <trkpt lat="39.5819890" lon="-0.4152320">
        <ele>52.2</ele>
        <time>2018-05-01T10:40:20Z</time>
      </trkpt>
      <trkpt lat="39.5819200" lon="-0.4153440">
        <ele>50.6</ele>
        <time>2018-05-01T10:40:22Z</time>
      </trkpt>
      <trkpt lat="39.5818540" lon="-0.4154400">
        <ele>49.4</ele>
        <time>2018-05-01T10:40:24Z</time>
      </trkpt>
      <trkpt lat="39.5817700" lon="-0.4155730">
        <ele>49.0</ele>
        <time>2018-05-01T10:40:27Z</time>
      </trkpt>
      <trkpt lat="39.5817430" lon="-0.4156220">
        <ele>49.0</ele>
        <time>2018-05-01T10:40:28Z</time>
      </trkpt>
      <trkpt lat="39.5817180" lon="-0.4156720">
        <ele>49.0</ele>
        <time>2018-05-01T10:40:29Z</time>
      </trkpt>
      <trkpt lat="39.5816900" lon="-0.4157190">
        <ele>49.0</ele>
        <time>2018-05-01T10:40:30Z</time>
      </trkpt>
      <trkpt lat="39.5815200" lon="-0.4157150">
        <ele>48.6</ele>
        <time>2018-05-01T10:40:35Z</time>
      </trkpt>
      <trkpt lat="39.5814620" lon="-0.4156310">
        <ele>48.6</ele>
        <time>2018-05-01T10:40:37Z</time>
      </trkpt>
      <trkpt lat="39.5813410" lon="-0.4154740">
        <ele>48.6</ele>
        <time>2018-05-01T10:40:41Z</time>
      </trkpt>
      <trkpt lat="39.5812600" lon="-0.4154200">
        <ele>48.4</ele>
        <time>2018-05-01T10:40:43Z</time>
      </trkpt>
      <trkpt lat="39.5811730" lon="-0.4153830">
        <ele>48.4</ele>
        <time>2018-05-01T10:40:45Z</time>
      </trkpt>
      <trkpt lat="39.5810960" lon="-0.4153520">
        <ele>48.4</ele>
        <time>2018-05-01T10:40:47Z</time>
      </trkpt>
      <trkpt lat="39.5810240" lon="-0.4153030">
        <ele>48.2</ele>
        <time>2018-05-01T10:40:49Z</time>
      </trkpt>
      <trkpt lat="39.5808880" lon="-0.4151690">
        <ele>48.4</ele>
        <time>2018-05-01T10:40:53Z</time>
      </trkpt>
      <trkpt lat="39.5804720" lon="-0.4147110">
        <ele>49.0</ele>
        <time>2018-05-01T10:41:05Z</time>
      </trkpt>
      <trkpt lat="39.5800850" lon="-0.4141690">
        <ele>49.0</ele>
        <time>2018-05-01T10:41:19Z</time>
      </trkpt>
      <trkpt lat="39.5799920" lon="-0.4139060">
        <ele>48.6</ele>
        <time>2018-05-01T10:41:24Z</time>
      </trkpt>
      <trkpt lat="39.5798370" lon="-0.4133600">
        <ele>48.2</ele>
        <time>2018-05-01T10:41:34Z</time>
      </trkpt>
      <trkpt lat="39.5798120" lon="-0.4132430">
        <ele>48.2</ele>
        <time>2018-05-01T10:41:36Z</time>
      </trkpt>
      <trkpt lat="39.5797520" lon="-0.4130790">
        <ele>48.0</ele>
        <time>2018-05-01T10:41:39Z</time>
      </trkpt>
      <trkpt lat="39.5796210" lon="-0.4128870">
        <ele>48.2</ele>
        <time>2018-05-01T10:41:43Z</time>
      </trkpt>
      <trkpt lat="39.5794390" lon="-0.4126220">
        <ele>47.8</ele>
        <time>2018-05-01T10:41:48Z</time>
      </trkpt>
      <trkpt lat="39.5793480" lon="-0.4124690">
        <ele>47.4</ele>
        <time>2018-05-01T10:41:51Z</time>
      </trkpt>
      <trkpt lat="39.5792390" lon="-0.4123620">
        <ele>47.2</ele>
        <time>2018-05-01T10:41:54Z</time>
      </trkpt>
      <trkpt lat="39.5792060" lon="-0.4123340">
        <ele>47.2</ele>
        <time>2018-05-01T10:41:55Z</time>
      </trkpt>
      <trkpt lat="39.5791430" lon="-0.4122710">
        <ele>47.2</ele>
        <time>2018-05-01T10:41:57Z</time>
      </trkpt>
      <trkpt lat="39.5788960" lon="-0.4118360">
        <ele>48.0</ele>
        <time>2018-05-01T10:42:07Z</time>
      </trkpt>
      <trkpt lat="39.5786820" lon="-0.4114770">
        <ele>47.6</ele>
        <time>2018-05-01T10:42:15Z</time>
      </trkpt>
      <trkpt lat="39.5783990" lon="-0.4111060">
        <ele>46.2</ele>
        <time>2018-05-01T10:42:24Z</time>
      </trkpt>
      <trkpt lat="39.5782270" lon="-0.4108820">
        <ele>46.0</ele>
        <time>2018-05-01T10:42:29Z</time>
      </trkpt>
      <trkpt lat="39.5778800" lon="-0.4104330">
        <ele>46.0</ele>
        <time>2018-05-01T10:42:39Z</time>
      </trkpt>
      <trkpt lat="39.5774750" lon="-0.4099070">
        <ele>45.6</ele>
        <time>2018-05-01T10:42:51Z</time>
      </trkpt>
      <trkpt lat="39.5774410" lon="-0.4098620">
        <ele>45.4</ele>
        <time>2018-05-01T10:42:52Z</time>
      </trkpt>
      <trkpt lat="39.5772630" lon="-0.4096530">
        <ele>45.2</ele>
        <time>2018-05-01T10:42:57Z</time>
      </trkpt>
      <trkpt lat="39.5771380" lon="-0.4095420">
        <ele>45.2</ele>
        <time>2018-05-01T10:43:00Z</time>
      </trkpt>
      <trkpt lat="39.5768300" lon="-0.4095160">
        <ele>45.2</ele>
        <time>2018-05-01T10:43:09Z</time>
      </trkpt>
      <trkpt lat="39.5766880" lon="-0.4095180">
        <ele>46.6</ele>
        <time>2018-05-01T10:43:13Z</time>
      </trkpt>
      <trkpt lat="39.5766240" lon="-0.4094710">
        <ele>47.0</ele>
        <time>2018-05-01T10:43:15Z</time>
      </trkpt>
      <trkpt lat="39.5765610" lon="-0.4094140">
        <ele>47.2</ele>
        <time>2018-05-01T10:43:17Z</time>
      </trkpt>
      <trkpt lat="39.5765270" lon="-0.4093860">
        <ele>47.4</ele>
        <time>2018-05-01T10:43:18Z</time>
      </trkpt>
      <trkpt lat="39.5764490" lon="-0.4093490">
        <ele>47.8</ele>
        <time>2018-05-01T10:43:20Z</time>
      </trkpt>
      <trkpt lat="39.5763680" lon="-0.4093210">
        <ele>48.2</ele>
        <time>2018-05-01T10:43:22Z</time>
      </trkpt>
      <trkpt lat="39.5762040" lon="-0.4092630">
        <ele>48.6</ele>
        <time>2018-05-01T10:43:26Z</time>
      </trkpt>
      <trkpt lat="39.5761230" lon="-0.4092390">
        <ele>48.8</ele>
        <time>2018-05-01T10:43:28Z</time>
      </trkpt>
      <trkpt lat="39.5757660" lon="-0.4091040">
        <ele>49.8</ele>
        <time>2018-05-01T10:43:37Z</time>
      </trkpt>
      <trkpt lat="39.5754200" lon="-0.4089250">
        <ele>51.0</ele>
        <time>2018-05-01T10:43:46Z</time>
      </trkpt>
      <trkpt lat="39.5753460" lon="-0.4088790">
        <ele>51.2</ele>
        <time>2018-05-01T10:43:48Z</time>
      </trkpt>
      <trkpt lat="39.5752080" lon="-0.4087460">
        <ele>51.4</ele>
        <time>2018-05-01T10:43:52Z</time>
      </trkpt>
      <trkpt lat="39.5751440" lon="-0.4086720">
        <ele>51.6</ele>
        <time>2018-05-01T10:43:54Z</time>
      </trkpt>
      <trkpt lat="39.5749790" lon="-0.4083400">
        <ele>51.6</ele>
        <time>2018-05-01T10:44:01Z</time>
      </trkpt>
      <trkpt lat="39.5749300" lon="-0.4081790">
        <ele>51.8</ele>
        <time>2018-05-01T10:44:04Z</time>
      </trkpt>
      <trkpt lat="39.5747340" lon="-0.4080080">
        <ele>51.8</ele>
        <time>2018-05-01T10:44:09Z</time>
      </trkpt>
      <trkpt lat="39.5742030" lon="-0.4078270">
        <ele>52.0</ele>
        <time>2018-05-01T10:44:20Z</time>
      </trkpt>
      <trkpt lat="39.5740550" lon="-0.4077840">
        <ele>52.2</ele>
        <time>2018-05-01T10:44:23Z</time>
      </trkpt>
      <trkpt lat="39.5739050" lon="-0.4077330">
        <ele>52.2</ele>
        <time>2018-05-01T10:44:26Z</time>
      </trkpt>
      <trkpt lat="39.5738580" lon="-0.4077080">
        <ele>52.2</ele>
        <time>2018-05-01T10:44:27Z</time>
      </trkpt>
      <trkpt lat="39.5736220" lon="-0.4074700">
        <ele>52.0</ele>
        <time>2018-05-01T10:44:33Z</time>
      </trkpt>
      <trkpt lat="39.5735480" lon="-0.4073880">
        <ele>51.6</ele>
        <time>2018-05-01T10:44:35Z</time>
      </trkpt>
      <trkpt lat="39.5730960" lon="-0.4069240">
        <ele>51.4</ele>
        <time>2018-05-01T10:44:46Z</time>
      </trkpt>
      <trkpt lat="39.5725780" lon="-0.4066120">
        <ele>51.4</ele>
        <time>2018-05-01T10:44:56Z</time>
      </trkpt>
      <trkpt lat="39.5722600" lon="-0.4064330">
        <ele>51.0</ele>
        <time>2018-05-01T10:45:02Z</time>
      </trkpt>
      <trkpt lat="39.5720440" lon="-0.4063100">
        <ele>50.8</ele>
        <time>2018-05-01T10:45:06Z</time>
      </trkpt>
      <trkpt lat="39.5718210" lon="-0.4062000">
        <ele>50.6</ele>
        <time>2018-05-01T10:45:10Z</time>
      </trkpt>
      <trkpt lat="39.5716080" lon="-0.4062000">
        <ele>50.8</ele>
        <time>2018-05-01T10:45:14Z</time>
      </trkpt>
      <trkpt lat="39.5715100" lon="-0.4062270">
        <ele>51.2</ele>
        <time>2018-05-01T10:45:16Z</time>
      </trkpt>
      <trkpt lat="39.5712620" lon="-0.4062550">
        <ele>52.2</ele>
        <time>2018-05-01T10:45:21Z</time>
      </trkpt>
      <trkpt lat="39.5711630" lon="-0.4062370">
        <ele>53.0</ele>
        <time>2018-05-01T10:45:23Z</time>
      </trkpt>
      <trkpt lat="39.5708650" lon="-0.4061190">
        <ele>53.4</ele>
        <time>2018-05-01T10:45:29Z</time>
      </trkpt>
      <trkpt lat="39.5706980" lon="-0.4059540">
        <ele>53.4</ele>
        <time>2018-05-01T10:45:33Z</time>
      </trkpt>
      <trkpt lat="39.5706510" lon="-0.4059100">
        <ele>53.0</ele>
        <time>2018-05-01T10:45:34Z</time>
      </trkpt>
      <trkpt lat="39.5704240" lon="-0.4057910">
        <ele>52.8</ele>
        <time>2018-05-01T10:45:38Z</time>
      </trkpt>
      <trkpt lat="39.5702540" lon="-0.4057010">
        <ele>52.2</ele>
        <time>2018-05-01T10:45:41Z</time>
      </trkpt>
      <trkpt lat="39.5701320" lon="-0.4056350">
        <ele>52.0</ele>
        <time>2018-05-01T10:45:43Z</time>
      </trkpt>
      <trkpt lat="39.5700680" lon="-0.4055970">
        <ele>51.6</ele>
        <time>2018-05-01T10:45:44Z</time>
      </trkpt>
      <trkpt lat="39.5700060" lon="-0.4055540">
        <ele>51.4</ele>
        <time>2018-05-01T10:45:45Z</time>
      </trkpt>
      <trkpt lat="39.5699450" lon="-0.4055100">
        <ele>51.2</ele>
        <time>2018-05-01T10:45:46Z</time>
      </trkpt>
      <trkpt lat="39.5698890" lon="-0.4054610">
        <ele>50.4</ele>
        <time>2018-05-01T10:45:47Z</time>
      </trkpt>
      <trkpt lat="39.5698400" lon="-0.4054080">
        <ele>50.0</ele>
        <time>2018-05-01T10:45:48Z</time>
      </trkpt>
      <trkpt lat="39.5697480" lon="-0.4053090">
        <ele>49.0</ele>
        <time>2018-05-01T10:45:50Z</time>
      </trkpt>
      <trkpt lat="39.5696160" lon="-0.4051790">
        <ele>48.4</ele>
        <time>2018-05-01T10:45:53Z</time>
      </trkpt>
      <trkpt lat="39.5694880" lon="-0.4050390">
        <ele>47.6</ele>
        <time>2018-05-01T10:45:56Z</time>
      </trkpt>
      <trkpt lat="39.5692130" lon="-0.4047550">
        <ele>47.2</ele>
        <time>2018-05-01T10:46:02Z</time>
      </trkpt>
      <trkpt lat="39.5689900" lon="-0.4045210">
        <ele>47.2</ele>
        <time>2018-05-01T10:46:07Z</time>
      </trkpt>
      <trkpt lat="39.5687290" lon="-0.4042580">
        <ele>47.2</ele>
        <time>2018-05-01T10:46:13Z</time>
      </trkpt>
      <trkpt lat="39.5686450" lon="-0.4041670">
        <ele>47.2</ele>
        <time>2018-05-01T10:46:15Z</time>
      </trkpt>
      <trkpt lat="39.5685640" lon="-0.4040620">
        <ele>47.0</ele>
        <time>2018-05-01T10:46:17Z</time>
      </trkpt>
      <trkpt lat="39.5683270" lon="-0.4037580">
        <ele>46.8</ele>
        <time>2018-05-01T10:46:23Z</time>
      </trkpt>
      <trkpt lat="39.5681510" lon="-0.4034690">
        <ele>46.4</ele>
        <time>2018-05-01T10:46:28Z</time>
      </trkpt>
      <trkpt lat="39.5679970" lon="-0.4032660">
        <ele>46.2</ele>
        <time>2018-05-01T10:46:32Z</time>
      </trkpt>
      <trkpt lat="39.5679590" lon="-0.4032200">
        <ele>46.2</ele>
        <time>2018-05-01T10:46:33Z</time>
      </trkpt>
      <trkpt lat="39.5677980" lon="-0.4029880">
        <ele>46.2</ele>
        <time>2018-05-01T10:46:38Z</time>
      </trkpt>
      <trkpt lat="39.5677690" lon="-0.4029390">
        <ele>46.4</ele>
        <time>2018-05-01T10:46:39Z</time>
      </trkpt>
      <trkpt lat="39.5674710" lon="-0.4022950">
        <ele>46.6</ele>
        <time>2018-05-01T10:46:51Z</time>
      </trkpt>
      <trkpt lat="39.5673640" lon="-0.4019840">
        <ele>47.0</ele>
        <time>2018-05-01T10:46:57Z</time>
      </trkpt>
      <trkpt lat="39.5672820" lon="-0.4017400">
        <ele>47.4</ele>
        <time>2018-05-01T10:47:02Z</time>
      </trkpt>
      <trkpt lat="39.5672210" lon="-0.4016250">
        <ele>49.0</ele>
        <time>2018-05-01T10:47:05Z</time>
      </trkpt>
      <trkpt lat="39.5671960" lon="-0.4016010">
        <ele>49.0</ele>
        <time>2018-05-01T10:47:06Z</time>
      </trkpt>
      <trkpt lat="39.5671280" lon="-0.4015940">
        <ele>49.6</ele>
        <time>2018-05-01T10:47:09Z</time>
      </trkpt>
      <trkpt lat="39.5671430" lon="-0.4015880">
        <ele>49.8</ele>
        <time>2018-05-01T10:47:11Z</time>
      </trkpt>
      <trkpt lat="39.5671780" lon="-0.4015720">
        <ele>50.0</ele>
        <time>2018-05-01T10:47:13Z</time>
      </trkpt>
      <trkpt lat="39.5671860" lon="-0.4015490">
        <ele>50.2</ele>
        <time>2018-05-01T10:47:14Z</time>
      </trkpt>
      <trkpt lat="39.5671720" lon="-0.4015840">
        <ele>51.2</ele>
        <time>2018-05-01T10:47:25Z</time>
      </trkpt>
      <trkpt lat="39.5672060" lon="-0.4015050">
        <ele>52.2</ele>
        <time>2018-05-01T10:47:28Z</time>
      </trkpt>
      <trkpt lat="39.5671420" lon="-0.4014650">
        <ele>53.2</ele>
        <time>2018-05-01T10:47:32Z</time>
      </trkpt>
      <trkpt lat="39.5671260" lon="-0.4015110">
        <ele>53.4</ele>
        <time>2018-05-01T10:47:34Z</time>
      </trkpt>
      <trkpt lat="39.5672070" lon="-0.4015530">
        <ele>53.6</ele>
        <time>2018-05-01T10:47:38Z</time>
      </trkpt>
      <trkpt lat="39.5672240" lon="-0.4014960">
        <ele>54.8</ele>
        <time>2018-05-01T10:47:40Z</time>
      </trkpt>
      <trkpt lat="39.5671530" lon="-0.4014340">
        <ele>55.4</ele>
        <time>2018-05-01T10:47:43Z</time>
      </trkpt>
      <trkpt lat="39.5670930" lon="-0.4014520">
        <ele>55.8</ele>
        <time>2018-05-01T10:47:45Z</time>
      </trkpt>
      <trkpt lat="39.5670260" lon="-0.4014750">
        <ele>56.0</ele>
        <time>2018-05-01T10:47:47Z</time>
      </trkpt>
      <trkpt lat="39.5668940" lon="-0.4015000">
        <ele>56.4</ele>
        <time>2018-05-01T10:47:51Z</time>
      </trkpt>
      <trkpt lat="39.5668770" lon="-0.4014290">
        <ele>56.4</ele>
        <time>2018-05-01T10:47:53Z</time>
      </trkpt>
      <trkpt lat="39.5669150" lon="-0.4013780">
        <ele>56.4</ele>
        <time>2018-05-01T10:47:55Z</time>
      </trkpt>
      <trkpt lat="39.5669700" lon="-0.4014190">
        <ele>56.2</ele>
        <time>2018-05-01T10:47:57Z</time>
      </trkpt>
      <trkpt lat="39.5669440" lon="-0.4015060">
        <ele>56.2</ele>
        <time>2018-05-01T10:48:00Z</time>
      </trkpt>
      <trkpt lat="39.5669060" lon="-0.4014930">
        <ele>56.0</ele>
        <time>2018-05-01T10:48:02Z</time>
      </trkpt>
      <trkpt lat="39.5669210" lon="-0.4014350">
        <ele>55.6</ele>
        <time>2018-05-01T10:48:04Z</time>
      </trkpt>
      <trkpt lat="39.5669670" lon="-0.4014200">
        <ele>55.4</ele>
        <time>2018-05-01T10:48:06Z</time>
      </trkpt>
      <trkpt lat="39.5669840" lon="-0.4014660">
        <ele>54.8</ele>
        <time>2018-05-01T10:48:08Z</time>
      </trkpt>
      <trkpt lat="39.5669510" lon="-0.4015120">
        <ele>53.8</ele>
        <time>2018-05-01T10:48:10Z</time>
      </trkpt>
      <trkpt lat="39.5669240" lon="-0.4015110">
        <ele>53.6</ele>
        <time>2018-05-01T10:48:11Z</time>
      </trkpt>
      <trkpt lat="39.5668890" lon="-0.4014480">
        <ele>53.2</ele>
        <time>2018-05-01T10:48:13Z</time>
      </trkpt>
      <trkpt lat="39.5669490" lon="-0.4012720">
        <ele>52.4</ele>
        <time>2018-05-01T10:48:18Z</time>
      </trkpt>
      <trkpt lat="39.5669430" lon="-0.4012230">
        <ele>52.0</ele>
        <time>2018-05-01T10:48:19Z</time>
      </trkpt>
      <trkpt lat="39.5669320" lon="-0.4011700">
        <ele>51.6</ele>
        <time>2018-05-01T10:48:20Z</time>
      </trkpt>
      <trkpt lat="39.5669070" lon="-0.4010620">
        <ele>51.4</ele>
        <time>2018-05-01T10:48:22Z</time>
      </trkpt>
      <trkpt lat="39.5668520" lon="-0.4009180">
        <ele>50.6</ele>
        <time>2018-05-01T10:48:25Z</time>
      </trkpt>
      <trkpt lat="39.5668040" lon="-0.4008240">
        <ele>50.6</ele>
        <time>2018-05-01T10:48:27Z</time>
      </trkpt>
      <trkpt lat="39.5667430" lon="-0.4007360">
        <ele>50.2</ele>
        <time>2018-05-01T10:48:29Z</time>
      </trkpt>
      <trkpt lat="39.5666460" lon="-0.4006100">
        <ele>50.0</ele>
        <time>2018-05-01T10:48:32Z</time>
      </trkpt>
      <trkpt lat="39.5664620" lon="-0.4004340">
        <ele>49.8</ele>
        <time>2018-05-01T10:48:37Z</time>
      </trkpt>
      <trkpt lat="39.5664260" lon="-0.4004010">
        <ele>49.8</ele>
        <time>2018-05-01T10:48:38Z</time>
      </trkpt>
      <trkpt lat="39.5663320" lon="-0.4003160">
        <ele>49.6</ele>
        <time>2018-05-01T10:48:41Z</time>
      </trkpt>
      <trkpt lat="39.5661260" lon="-0.4001060">
        <ele>49.4</ele>
        <time>2018-05-01T10:48:48Z</time>
      </trkpt>
      <trkpt lat="39.5660480" lon="-0.4000400">
        <ele>49.2</ele>
        <time>2018-05-01T10:48:50Z</time>
      </trkpt>
      <trkpt lat="39.5658870" lon="-0.3998940">
        <ele>49.0</ele>
        <time>2018-05-01T10:48:54Z</time>
      </trkpt>
      <trkpt lat="39.5658060" lon="-0.3998170">
        <ele>49.0</ele>
        <time>2018-05-01T10:48:56Z</time>
      </trkpt>
      <trkpt lat="39.5656900" lon="-0.3997140">
        <ele>49.0</ele>
        <time>2018-05-01T10:48:59Z</time>
      </trkpt>
      <trkpt lat="39.5655420" lon="-0.3995530">
        <ele>49.2</ele>
        <time>2018-05-01T10:49:03Z</time>
      </trkpt>
      <trkpt lat="39.5653760" lon="-0.3993930">
        <ele>48.8</ele>
        <time>2018-05-01T10:49:07Z</time>
      </trkpt>
      <trkpt lat="39.5652440" lon="-0.3992750">
        <ele>48.4</ele>
        <time>2018-05-01T10:49:10Z</time>
      </trkpt>
      <trkpt lat="39.5650550" lon="-0.3992010">
        <ele>48.0</ele>
        <time>2018-05-01T10:49:14Z</time>
      </trkpt>
      <trkpt lat="39.5649430" lon="-0.3993180">
        <ele>48.0</ele>
        <time>2018-05-01T10:49:17Z</time>
      </trkpt>
      <trkpt lat="39.5649100" lon="-0.3993650">
        <ele>48.0</ele>
        <time>2018-05-01T10:49:18Z</time>
      </trkpt>
      <trkpt lat="39.5648440" lon="-0.3994590">
        <ele>48.0</ele>
        <time>2018-05-01T10:49:20Z</time>
      </trkpt>
      <trkpt lat="39.5647760" lon="-0.3995520">
        <ele>48.2</ele>
        <time>2018-05-01T10:49:22Z</time>
      </trkpt>
      <trkpt lat="39.5646790" lon="-0.3997000">
        <ele>49.6</ele>
        <time>2018-05-01T10:49:25Z</time>
      </trkpt>
      <trkpt lat="39.5646420" lon="-0.3997450">
        <ele>49.8</ele>
        <time>2018-05-01T10:49:26Z</time>
      </trkpt>
      <trkpt lat="39.5645400" lon="-0.3998840">
        <ele>50.2</ele>
        <time>2018-05-01T10:49:29Z</time>
      </trkpt>
      <trkpt lat="39.5644450" lon="-0.4000320">
        <ele>50.6</ele>
        <time>2018-05-01T10:49:32Z</time>
      </trkpt>
      <trkpt lat="39.5643730" lon="-0.4001710">
        <ele>50.8</ele>
        <time>2018-05-01T10:49:36Z</time>
      </trkpt>
      <trkpt lat="39.5643730" lon="-0.4001790">
        <ele>51.2</ele>
        <time>2018-05-01T10:49:37Z</time>
      </trkpt>
      <trkpt lat="39.5643750" lon="-0.4002560">
        <ele>52.2</ele>
        <time>2018-05-01T10:49:41Z</time>
      </trkpt>
      <trkpt lat="39.5643630" lon="-0.4003240">
        <ele>52.6</ele>
        <time>2018-05-01T10:49:43Z</time>
      </trkpt>
      <trkpt lat="39.5642230" lon="-0.4004070">
        <ele>53.2</ele>
        <time>2018-05-01T10:49:47Z</time>
      </trkpt>
      <trkpt lat="39.5641490" lon="-0.4004780">
        <ele>53.2</ele>
        <time>2018-05-01T10:49:49Z</time>
      </trkpt>
      <trkpt lat="39.5640290" lon="-0.4006140">
        <ele>53.4</ele>
        <time>2018-05-01T10:49:52Z</time>
      </trkpt>
      <trkpt lat="39.5638830" lon="-0.4008050">
        <ele>53.4</ele>
        <time>2018-05-01T10:49:56Z</time>
      </trkpt>
      <trkpt lat="39.5634930" lon="-0.4013440">
        <ele>53.4</ele>
        <time>2018-05-01T10:50:07Z</time>
      </trkpt>
      <trkpt lat="39.5634260" lon="-0.4014310">
        <ele>53.4</ele>
        <time>2018-05-01T10:50:09Z</time>
      </trkpt>
      <trkpt lat="39.5632780" lon="-0.4013920">
        <ele>53.6</ele>
        <time>2018-05-01T10:50:13Z</time>
      </trkpt>
      <trkpt lat="39.5632410" lon="-0.4013500">
        <ele>53.6</ele>
        <time>2018-05-01T10:50:14Z</time>
      </trkpt>
      <trkpt lat="39.5627900" lon="-0.4008450">
        <ele>52.8</ele>
        <time>2018-05-01T10:50:25Z</time>
      </trkpt>
      <trkpt lat="39.5625120" lon="-0.4005600">
        <ele>52.2</ele>
        <time>2018-05-01T10:50:31Z</time>
      </trkpt>
      <trkpt lat="39.5623770" lon="-0.4004230">
        <ele>51.6</ele>
        <time>2018-05-01T10:50:34Z</time>
      </trkpt>
      <trkpt lat="39.5622960" lon="-0.4003600">
        <ele>51.8</ele>
        <time>2018-05-01T10:50:36Z</time>
      </trkpt>
      <trkpt lat="39.5621090" lon="-0.4004520">
        <ele>51.2</ele>
        <time>2018-05-01T10:50:40Z</time>
      </trkpt>
      <trkpt lat="39.5620650" lon="-0.4005000">
        <ele>51.2</ele>
        <time>2018-05-01T10:50:41Z</time>
      </trkpt>
      <trkpt lat="39.5619860" lon="-0.4005960">
        <ele>51.0</ele>
        <time>2018-05-01T10:50:43Z</time>
      </trkpt>
      <trkpt lat="39.5619130" lon="-0.4006930">
        <ele>51.0</ele>
        <time>2018-05-01T10:50:45Z</time>
      </trkpt>
      <trkpt lat="39.5617960" lon="-0.4008230">
        <ele>51.4</ele>
        <time>2018-05-01T10:50:48Z</time>
      </trkpt>
      <trkpt lat="39.5617210" lon="-0.4008940">
        <ele>51.8</ele>
        <time>2018-05-01T10:50:50Z</time>
      </trkpt>
      <trkpt lat="39.5615830" lon="-0.4008530">
        <ele>51.8</ele>
        <time>2018-05-01T10:50:53Z</time>
      </trkpt>
      <trkpt lat="39.5614950" lon="-0.4007890">
        <ele>51.6</ele>
        <time>2018-05-01T10:50:55Z</time>
      </trkpt>
      <trkpt lat="39.5613130" lon="-0.4006340">
        <ele>51.6</ele>
        <time>2018-05-01T10:50:59Z</time>
      </trkpt>
      <trkpt lat="39.5609130" lon="-0.4002750">
        <ele>49.6</ele>
        <time>2018-05-01T10:51:07Z</time>
      </trkpt>
      <trkpt lat="39.5608630" lon="-0.4002310">
        <ele>49.4</ele>
        <time>2018-05-01T10:51:08Z</time>
      </trkpt>
      <trkpt lat="39.5607580" lon="-0.4001600">
        <ele>48.6</ele>
        <time>2018-05-01T10:51:10Z</time>
      </trkpt>
      <trkpt lat="39.5606070" lon="-0.4000450">
        <ele>47.4</ele>
        <time>2018-05-01T10:51:13Z</time>
      </trkpt>
      <trkpt lat="39.5604580" lon="-0.3999190">
        <ele>46.4</ele>
        <time>2018-05-01T10:51:16Z</time>
      </trkpt>
      <trkpt lat="39.5604080" lon="-0.3998770">
        <ele>46.4</ele>
        <time>2018-05-01T10:51:17Z</time>
      </trkpt>
      <trkpt lat="39.5602040" lon="-0.3997030">
        <ele>45.6</ele>
        <time>2018-05-01T10:51:21Z</time>
      </trkpt>
      <trkpt lat="39.5601010" lon="-0.3996190">
        <ele>45.2</ele>
        <time>2018-05-01T10:51:23Z</time>
      </trkpt>
      <trkpt lat="39.5599470" lon="-0.3994870">
        <ele>45.2</ele>
        <time>2018-05-01T10:51:26Z</time>
      </trkpt>
      <trkpt lat="39.5595120" lon="-0.3991230">
        <ele>44.4</ele>
        <time>2018-05-01T10:51:34Z</time>
      </trkpt>
      <trkpt lat="39.5594060" lon="-0.3990300">
        <ele>44.2</ele>
        <time>2018-05-01T10:51:36Z</time>
      </trkpt>
      <trkpt lat="39.5591980" lon="-0.3988280">
        <ele>42.8</ele>
        <time>2018-05-01T10:51:40Z</time>
      </trkpt>
      <trkpt lat="39.5590030" lon="-0.3986040">
        <ele>42.0</ele>
        <time>2018-05-01T10:51:44Z</time>
      </trkpt>
      <trkpt lat="39.5589000" lon="-0.3985080">
        <ele>41.6</ele>
        <time>2018-05-01T10:51:46Z</time>
      </trkpt>
      <trkpt lat="39.5587460" lon="-0.3983750">
        <ele>41.4</ele>
        <time>2018-05-01T10:51:49Z</time>
      </trkpt>
      <trkpt lat="39.5585910" lon="-0.3982460">
        <ele>41.2</ele>
        <time>2018-05-01T10:51:52Z</time>
      </trkpt>
      <trkpt lat="39.5582780" lon="-0.3980650">
        <ele>40.6</ele>
        <time>2018-05-01T10:51:57Z</time>
      </trkpt>
      <trkpt lat="39.5577760" lon="-0.3977320">
        <ele>39.6</ele>
        <time>2018-05-01T10:52:05Z</time>
      </trkpt>
      <trkpt lat="39.5576560" lon="-0.3976530">
        <ele>39.4</ele>
        <time>2018-05-01T10:52:07Z</time>
      </trkpt>
      <trkpt lat="39.5575330" lon="-0.3975820">
        <ele>39.4</ele>
        <time>2018-05-01T10:52:09Z</time>
      </trkpt>
      <trkpt lat="39.5569840" lon="-0.3974590">
        <ele>38.8</ele>
        <time>2018-05-01T10:52:17Z</time>
      </trkpt>
      <trkpt lat="39.5567890" lon="-0.3974370">
        <ele>38.4</ele>
        <time>2018-05-01T10:52:20Z</time>
      </trkpt>
      <trkpt lat="39.5565310" lon="-0.3974270">
        <ele>37.4</ele>
        <time>2018-05-01T10:52:24Z</time>
      </trkpt>
      <trkpt lat="39.5564660" lon="-0.3974270">
        <ele>37.4</ele>
        <time>2018-05-01T10:52:25Z</time>
      </trkpt>
      <trkpt lat="39.5562020" lon="-0.3974190">
        <ele>37.2</ele>
        <time>2018-05-01T10:52:29Z</time>
      </trkpt>
      <trkpt lat="39.5556160" lon="-0.3974030">
        <ele>37.0</ele>
        <time>2018-05-01T10:52:38Z</time>
      </trkpt>
      <trkpt lat="39.5550270" lon="-0.3973570">
        <ele>36.4</ele>
        <time>2018-05-01T10:52:47Z</time>
      </trkpt>
      <trkpt lat="39.5549620" lon="-0.3973430">
        <ele>36.2</ele>
        <time>2018-05-01T10:52:48Z</time>
      </trkpt>
      <trkpt lat="39.5547040" lon="-0.3972880">
        <ele>35.0</ele>
        <time>2018-05-01T10:52:52Z</time>
      </trkpt>
      <trkpt lat="39.5543590" lon="-0.3971090">
        <ele>34.0</ele>
        <time>2018-05-01T10:52:58Z</time>
      </trkpt>
      <trkpt lat="39.5538980" lon="-0.3968580">
        <ele>33.0</ele>
        <time>2018-05-01T10:53:06Z</time>
      </trkpt>
      <trkpt lat="39.5534860" lon="-0.3966410">
        <ele>32.6</ele>
        <time>2018-05-01T10:53:13Z</time>
      </trkpt>
      <trkpt lat="39.5532290" lon="-0.3965400">
        <ele>32.4</ele>
        <time>2018-05-01T10:53:17Z</time>
      </trkpt>
      <trkpt lat="39.5529620" lon="-0.3964750">
        <ele>32.2</ele>
        <time>2018-05-01T10:53:21Z</time>
      </trkpt>
      <trkpt lat="39.5527700" lon="-0.3964680">
        <ele>32.0</ele>
        <time>2018-05-01T10:53:24Z</time>
      </trkpt>
      <trkpt lat="39.5525780" lon="-0.3964750">
        <ele>30.4</ele>
        <time>2018-05-01T10:53:27Z</time>
      </trkpt>
      <trkpt lat="39.5525140" lon="-0.3964790">
        <ele>29.6</ele>
        <time>2018-05-01T10:53:28Z</time>
      </trkpt>
      <trkpt lat="39.5523870" lon="-0.3965000">
        <ele>29.2</ele>
        <time>2018-05-01T10:53:30Z</time>
      </trkpt>
      <trkpt lat="39.5522610" lon="-0.3965320">
        <ele>29.0</ele>
        <time>2018-05-01T10:53:32Z</time>
      </trkpt>
      <trkpt lat="39.5521980" lon="-0.3965540">
        <ele>28.8</ele>
        <time>2018-05-01T10:53:33Z</time>
      </trkpt>
      <trkpt lat="39.5520490" lon="-0.3968050">
        <ele>28.8</ele>
        <time>2018-05-01T10:53:37Z</time>
      </trkpt>
      <trkpt lat="39.5517950" lon="-0.3967730">
        <ele>28.6</ele>
        <time>2018-05-01T10:53:42Z</time>
      </trkpt>
      <trkpt lat="39.5516040" lon="-0.3965680">
        <ele>28.6</ele>
        <time>2018-05-01T10:53:46Z</time>
      </trkpt>
      <trkpt lat="39.5514910" lon="-0.3964920">
        <ele>28.6</ele>
        <time>2018-05-01T10:53:48Z</time>
      </trkpt>
      <trkpt lat="39.5513760" lon="-0.3964240">
        <ele>28.6</ele>
        <time>2018-05-01T10:53:50Z</time>
      </trkpt>
      <trkpt lat="39.5510990" lon="-0.3962440">
        <ele>28.4</ele>
        <time>2018-05-01T10:53:55Z</time>
      </trkpt>
      <trkpt lat="39.5508560" lon="-0.3961070">
        <ele>27.8</ele>
        <time>2018-05-01T10:53:59Z</time>
      </trkpt>
      <trkpt lat="39.5504220" lon="-0.3958990">
        <ele>26.6</ele>
        <time>2018-05-01T10:54:06Z</time>
      </trkpt>
      <trkpt lat="39.5498740" lon="-0.3956300">
        <ele>25.8</ele>
        <time>2018-05-01T10:54:15Z</time>
      </trkpt>
      <trkpt lat="39.5495130" lon="-0.3954530">
        <ele>25.8</ele>
        <time>2018-05-01T10:54:21Z</time>
      </trkpt>
      <trkpt lat="39.5493530" lon="-0.3953810">
        <ele>25.8</ele>
        <time>2018-05-01T10:54:24Z</time>
      </trkpt>
      <trkpt lat="39.5492030" lon="-0.3953310">
        <ele>25.8</ele>
        <time>2018-05-01T10:54:27Z</time>
      </trkpt>
      <trkpt lat="39.5489950" lon="-0.3952340">
        <ele>26.0</ele>
        <time>2018-05-01T10:54:31Z</time>
      </trkpt>
      <trkpt lat="39.5489400" lon="-0.3951980">
        <ele>26.4</ele>
        <time>2018-05-01T10:54:32Z</time>
      </trkpt>
      <trkpt lat="39.5484220" lon="-0.3949590">
        <ele>25.8</ele>
        <time>2018-05-01T10:54:41Z</time>
      </trkpt>
      <trkpt lat="39.5483610" lon="-0.3949410">
        <ele>25.8</ele>
        <time>2018-05-01T10:54:42Z</time>
      </trkpt>
      <trkpt lat="39.5480720" lon="-0.3948390">
        <ele>25.0</ele>
        <time>2018-05-01T10:54:47Z</time>
      </trkpt>
      <trkpt lat="39.5479710" lon="-0.3945750">
        <ele>24.8</ele>
        <time>2018-05-01T10:54:51Z</time>
      </trkpt>
      <trkpt lat="39.5478020" lon="-0.3944500">
        <ele>24.6</ele>
        <time>2018-05-01T10:54:55Z</time>
      </trkpt>
      <trkpt lat="39.5476440" lon="-0.3943770">
        <ele>24.4</ele>
        <time>2018-05-01T10:54:58Z</time>
      </trkpt>
      <trkpt lat="39.5472560" lon="-0.3941930">
        <ele>24.4</ele>
        <time>2018-05-01T10:55:05Z</time>
      </trkpt>
      <trkpt lat="39.5469470" lon="-0.3940730">
        <ele>24.0</ele>
        <time>2018-05-01T10:55:11Z</time>
      </trkpt>
      <trkpt lat="39.5463990" lon="-0.3938430">
        <ele>24.0</ele>
        <time>2018-05-01T10:55:20Z</time>
      </trkpt>
      <trkpt lat="39.5460360" lon="-0.3936610">
        <ele>23.6</ele>
        <time>2018-05-01T10:55:26Z</time>
      </trkpt>
      <trkpt lat="39.5457790" lon="-0.3935520">
        <ele>23.4</ele>
        <time>2018-05-01T10:55:30Z</time>
      </trkpt>
      <trkpt lat="39.5453900" lon="-0.3935140">
        <ele>23.2</ele>
        <time>2018-05-01T10:55:37Z</time>
      </trkpt>
      <trkpt lat="39.5453320" lon="-0.3935190">
        <ele>23.2</ele>
        <time>2018-05-01T10:55:38Z</time>
      </trkpt>
      <trkpt lat="39.5451390" lon="-0.3935270">
        <ele>23.4</ele>
        <time>2018-05-01T10:55:42Z</time>
      </trkpt>
      <trkpt lat="39.5450020" lon="-0.3935300">
        <ele>23.8</ele>
        <time>2018-05-01T10:55:45Z</time>
      </trkpt>
      <trkpt lat="39.5448770" lon="-0.3934780">
        <ele>24.4</ele>
        <time>2018-05-01T10:55:50Z</time>
      </trkpt>
      <trkpt lat="39.5448240" lon="-0.3934130">
        <ele>24.4</ele>
        <time>2018-05-01T10:55:52Z</time>
      </trkpt>
      <trkpt lat="39.5447260" lon="-0.3933530">
        <ele>24.4</ele>
        <time>2018-05-01T10:55:54Z</time>
      </trkpt>
      <trkpt lat="39.5446090" lon="-0.3933030">
        <ele>24.4</ele>
        <time>2018-05-01T10:55:56Z</time>
      </trkpt>
      <trkpt lat="39.5441280" lon="-0.3932570">
        <ele>23.0</ele>
        <time>2018-05-01T10:56:05Z</time>
      </trkpt>
      <trkpt lat="39.5440720" lon="-0.3932410">
        <ele>23.0</ele>
        <time>2018-05-01T10:56:06Z</time>
      </trkpt>
      <trkpt lat="39.5436060" lon="-0.3931650">
        <ele>23.2</ele>
        <time>2018-05-01T10:56:14Z</time>
      </trkpt>
      <trkpt lat="39.5434940" lon="-0.3931870">
        <ele>23.2</ele>
        <time>2018-05-01T10:56:16Z</time>
      </trkpt>
      <trkpt lat="39.5433510" lon="-0.3931800">
        <ele>23.4</ele>
        <time>2018-05-01T10:56:19Z</time>
      </trkpt>
      <trkpt lat="39.5431740" lon="-0.3931660">
        <ele>23.6</ele>
        <time>2018-05-01T10:56:23Z</time>
      </trkpt>
      <trkpt lat="39.5430740" lon="-0.3931340">
        <ele>23.6</ele>
        <time>2018-05-01T10:56:25Z</time>
      </trkpt>
      <trkpt lat="39.5429210" lon="-0.3930470">
        <ele>23.4</ele>
        <time>2018-05-01T10:56:28Z</time>
      </trkpt>
      <trkpt lat="39.5426810" lon="-0.3926900">
        <ele>23.4</ele>
        <time>2018-05-01T10:56:37Z</time>
      </trkpt>
      <trkpt lat="39.5426840" lon="-0.3926250">
        <ele>23.6</ele>
        <time>2018-05-01T10:56:38Z</time>
      </trkpt>
      <trkpt lat="39.5427100" lon="-0.3924870">
        <ele>23.6</ele>
        <time>2018-05-01T10:56:40Z</time>
      </trkpt>
      <trkpt lat="39.5427350" lon="-0.3922740">
        <ele>23.6</ele>
        <time>2018-05-01T10:56:43Z</time>
      </trkpt>
      <trkpt lat="39.5428250" lon="-0.3918200">
        <ele>23.6</ele>
        <time>2018-05-01T10:56:49Z</time>
      </trkpt>
      <trkpt lat="39.5428610" lon="-0.3916000">
        <ele>23.6</ele>
        <time>2018-05-01T10:56:52Z</time>
      </trkpt>
      <trkpt lat="39.5429380" lon="-0.3911310">
        <ele>23.4</ele>
        <time>2018-05-01T10:56:58Z</time>
      </trkpt>
      <trkpt lat="39.5429800" lon="-0.3907980">
        <ele>23.6</ele>
        <time>2018-05-01T10:57:03Z</time>
      </trkpt>
      <trkpt lat="39.5430040" lon="-0.3905750">
        <ele>23.8</ele>
        <time>2018-05-01T10:57:07Z</time>
      </trkpt>
      <trkpt lat="39.5427560" lon="-0.3904000">
        <ele>24.2</ele>
        <time>2018-05-01T10:57:13Z</time>
      </trkpt>
      <trkpt lat="39.5425660" lon="-0.3903280">
        <ele>24.4</ele>
        <time>2018-05-01T10:57:17Z</time>
      </trkpt>
      <trkpt lat="39.5424930" lon="-0.3903000">
        <ele>24.4</ele>
        <time>2018-05-01T10:57:19Z</time>
      </trkpt>
      <trkpt lat="39.5424380" lon="-0.3902540">
        <ele>24.4</ele>
        <time>2018-05-01T10:57:21Z</time>
      </trkpt>
      <trkpt lat="39.5424530" lon="-0.3901440">
        <ele>24.6</ele>
        <time>2018-05-01T10:57:25Z</time>
      </trkpt>
      <trkpt lat="39.5424580" lon="-0.3901190">
        <ele>24.6</ele>
        <time>2018-05-01T10:57:26Z</time>
      </trkpt>
      <trkpt lat="39.5424880" lon="-0.3900240">
        <ele>24.8</ele>
        <time>2018-05-01T10:57:31Z</time>
      </trkpt>
      <trkpt lat="39.5424940" lon="-0.3900170">
        <ele>25.0</ele>
        <time>2018-05-01T10:57:32Z</time>
      </trkpt>
      <trkpt lat="39.5201710" lon="-0.4167010">
        <ele>42.8</ele>
        <time>2019-12-14T07:15:19Z</time>
      </trkpt>
      <trkpt lat="39.5202070" lon="-0.4167380">
        <ele>43.2</ele>
        <time>2019-12-14T07:15:20Z</time>
      </trkpt>
      <trkpt lat="39.5203800" lon="-0.4169640">
        <ele>44.2</ele>
        <time>2019-12-14T07:15:25Z</time>
      </trkpt>
      <trkpt lat="39.5204380" lon="-0.4170570">
        <ele>44.4</ele>
        <time>2019-12-14T07:15:27Z</time>
      </trkpt>
      <trkpt lat="39.5206460" lon="-0.4173300">
        <ele>45.2</ele>
        <time>2019-12-14T07:15:33Z</time>
      </trkpt>
      <trkpt lat="39.5209870" lon="-0.4177580">
        <ele>45.6</ele>
        <time>2019-12-14T07:15:44Z</time>
      </trkpt>
      <trkpt lat="39.5210680" lon="-0.4178740">
        <ele>46.4</ele>
        <time>2019-12-14T07:15:47Z</time>
      </trkpt>
      <trkpt lat="39.5211410" lon="-0.4178830">
        <ele>47.8</ele>
        <time>2019-12-14T07:15:49Z</time>
      </trkpt>
      <trkpt lat="39.5212430" lon="-0.4177620">
        <ele>48.8</ele>
        <time>2019-12-14T07:15:52Z</time>
      </trkpt>
      <trkpt lat="39.5212790" lon="-0.4177100">
        <ele>49.2</ele>
        <time>2019-12-14T07:15:53Z</time>
      </trkpt>
      <trkpt lat="39.5213530" lon="-0.4176010">
        <ele>50.0</ele>
        <time>2019-12-14T07:15:55Z</time>
      </trkpt>
      <trkpt lat="39.5213980" lon="-0.4175450">
        <ele>50.0</ele>
        <time>2019-12-14T07:15:56Z</time>
      </trkpt>
      <trkpt lat="39.5217690" lon="-0.4170370">
        <ele>49.8</ele>
        <time>2019-12-14T07:16:05Z</time>
      </trkpt>
      <trkpt lat="39.5219430" lon="-0.4168080">
        <ele>48.8</ele>
        <time>2019-12-14T07:16:10Z</time>
      </trkpt>
      <trkpt lat="39.5223340" lon="-0.4162540">
        <ele>48.4</ele>
        <time>2019-12-14T07:16:18Z</time>
      </trkpt>
      <trkpt lat="39.5225890" lon="-0.4158760">
        <ele>47.6</ele>
        <time>2019-12-14T07:16:22Z</time>
      </trkpt>
      <trkpt lat="39.5227190" lon="-0.4156840">
        <ele>46.6</ele>
        <time>2019-12-14T07:16:24Z</time>
      </trkpt>
      <trkpt lat="39.5228400" lon="-0.4155120">
        <ele>45.0</ele>
        <time>2019-12-14T07:16:26Z</time>
      </trkpt>
      <trkpt lat="39.5229260" lon="-0.4153910">
        <ele>43.6</ele>
        <time>2019-12-14T07:16:28Z</time>
      </trkpt>
      <trkpt lat="39.5229660" lon="-0.4153500">
        <ele>42.4</ele>
        <time>2019-12-14T07:16:29Z</time>
      </trkpt>
      <trkpt lat="39.5230140" lon="-0.4153220">
        <ele>41.2</ele>
        <time>2019-12-14T07:16:30Z</time>
      </trkpt>
      <trkpt lat="39.5231390" lon="-0.4153360">
        <ele>39.8</ele>
        <time>2019-12-14T07:16:32Z</time>
      </trkpt>
      <trkpt lat="39.5232640" lon="-0.4153540">
        <ele>38.6</ele>
        <time>2019-12-14T07:16:34Z</time>
      </trkpt>
      <trkpt lat="39.5233910" lon="-0.4153620">
        <ele>37.4</ele>
        <time>2019-12-14T07:16:36Z</time>
      </trkpt>
      <trkpt lat="39.5235220" lon="-0.4153570">
        <ele>37.0</ele>
        <time>2019-12-14T07:16:38Z</time>
      </trkpt>
      <trkpt lat="39.5239120" lon="-0.4149700">
        <ele>36.4</ele>
        <time>2019-12-14T07:16:45Z</time>
      </trkpt>
      <trkpt lat="39.5243050" lon="-0.4144560">
        <ele>35.6</ele>
        <time>2019-12-14T07:16:52Z</time>
      </trkpt>
      <trkpt lat="39.5245990" lon="-0.4140870">
        <ele>35.2</ele>
        <time>2019-12-14T07:16:57Z</time>
      </trkpt>
      <trkpt lat="39.5250490" lon="-0.4136050">
        <ele>34.4</ele>
        <time>2019-12-14T07:17:04Z</time>
      </trkpt>
      <trkpt lat="39.5253600" lon="-0.4132680">
        <ele>34.0</ele>
        <time>2019-12-14T07:17:09Z</time>
      </trkpt>
      <trkpt lat="39.5258550" lon="-0.4129260">
        <ele>33.6</ele>
        <time>2019-12-14T07:17:16Z</time>
      </trkpt>
      <trkpt lat="39.5259970" lon="-0.4128390">
        <ele>33.6</ele>
        <time>2019-12-14T07:17:18Z</time>
      </trkpt>
      <trkpt lat="39.5264840" lon="-0.4124010">
        <ele>33.4</ele>
        <time>2019-12-14T07:17:26Z</time>
      </trkpt>
      <trkpt lat="39.5269530" lon="-0.4118850">
        <ele>33.6</ele>
        <time>2019-12-14T07:17:34Z</time>
      </trkpt>
      <trkpt lat="39.5273770" lon="-0.4115240">
        <ele>33.6</ele>
        <time>2019-12-14T07:17:41Z</time>
      </trkpt>
      <trkpt lat="39.5276960" lon="-0.4110920">
        <ele>34.8</ele>
        <time>2019-12-14T07:17:53Z</time>
      </trkpt>
      <trkpt lat="39.5277120" lon="-0.4110580">
        <ele>35.4</ele>
        <time>2019-12-14T07:18:05Z</time>
      </trkpt>
      <trkpt lat="39.5277200" lon="-0.4103500">
        <ele>34.8</ele>
        <time>2019-12-14T07:18:22Z</time>
      </trkpt>
      <trkpt lat="39.5277220" lon="-0.4102900">
        <ele>34.8</ele>
        <time>2019-12-14T07:18:26Z</time>
      </trkpt>
      <trkpt lat="39.5277210" lon="-0.4102510">
        <ele>34.8</ele>
        <time>2019-12-14T07:18:40Z</time>
      </trkpt>
      <trkpt lat="39.5277200" lon="-0.4101410">
        <ele>34.8</ele>
        <time>2019-12-14T07:18:43Z</time>
      </trkpt>
      <trkpt lat="39.5277470" lon="-0.4097760">
        <ele>34.8</ele>
        <time>2019-12-14T07:18:49Z</time>
      </trkpt>
      <trkpt lat="39.5280630" lon="-0.4096420">
        <ele>34.8</ele>
        <time>2019-12-14T07:18:55Z</time>
      </trkpt>
      <trkpt lat="39.5286580" lon="-0.4096480">
        <ele>34.6</ele>
        <time>2019-12-14T07:19:03Z</time>
      </trkpt>
      <trkpt lat="39.5288290" lon="-0.4096760">
        <ele>34.6</ele>
        <time>2019-12-14T07:19:05Z</time>
      </trkpt>
      <trkpt lat="39.5293560" lon="-0.4098560">
        <ele>34.2</ele>
        <time>2019-12-14T07:19:12Z</time>
      </trkpt>
      <trkpt lat="39.5299100" lon="-0.4098780">
        <ele>34.0</ele>
        <time>2019-12-14T07:19:25Z</time>
      </trkpt>
      <trkpt lat="39.5299720" lon="-0.4098660">
        <ele>34.0</ele>
        <time>2019-12-14T07:19:26Z</time>
      </trkpt>
      <trkpt lat="39.5305540" lon="-0.4097890">
        <ele>34.2</ele>
        <time>2019-12-14T07:19:35Z</time>
      </trkpt>
      <trkpt lat="39.5311090" lon="-0.4097570">
        <ele>35.0</ele>
        <time>2019-12-14T07:19:48Z</time>
      </trkpt>
      <trkpt lat="39.5312180" lon="-0.4097420">
        <ele>35.2</ele>
        <time>2019-12-14T07:19:50Z</time>
      </trkpt>
      <trkpt lat="39.5314610" lon="-0.4096830">
        <ele>35.2</ele>
        <time>2019-12-14T07:19:55Z</time>
      </trkpt>
      <trkpt lat="39.5315640" lon="-0.4096340">
        <ele>35.2</ele>
        <time>2019-12-14T07:19:57Z</time>
      </trkpt>
      <trkpt lat="39.5320640" lon="-0.4092810">
        <ele>35.0</ele>
        <time>2019-12-14T07:20:05Z</time>
      </trkpt>
      <trkpt lat="39.5325610" lon="-0.4088630">
        <ele>35.0</ele>
        <time>2019-12-14T07:20:13Z</time>
      </trkpt>
      <trkpt lat="39.5331400" lon="-0.4086020">
        <ele>34.6</ele>
        <time>2019-12-14T07:20:21Z</time>
      </trkpt>
      <trkpt lat="39.5336020" lon="-0.4084920">
        <ele>33.8</ele>
        <time>2019-12-14T07:20:27Z</time>
      </trkpt>
      <trkpt lat="39.5341540" lon="-0.4085330">
        <ele>33.4</ele>
        <time>2019-12-14T07:20:34Z</time>
      </trkpt>
      <trkpt lat="39.5347000" lon="-0.4085440">
        <ele>33.2</ele>
        <time>2019-12-14T07:20:41Z</time>
      </trkpt>
      <trkpt lat="39.5353030" lon="-0.4085300">
        <ele>33.2</ele>
        <time>2019-12-14T07:20:49Z</time>
      </trkpt>
      <trkpt lat="39.5359040" lon="-0.4085200">
        <ele>32.8</ele>
        <time>2019-12-14T07:20:57Z</time>
      </trkpt>
      <trkpt lat="39.5365030" lon="-0.4085080">
        <ele>32.8</ele>
        <time>2019-12-14T07:21:05Z</time>
      </trkpt>
      <trkpt lat="39.5370880" lon="-0.4084000">
        <ele>32.8</ele>
        <time>2019-12-14T07:21:13Z</time>
      </trkpt>
      <trkpt lat="39.5372870" lon="-0.4082640">
        <ele>33.0</ele>
        <time>2019-12-14T07:21:16Z</time>
      </trkpt>
      <trkpt lat="39.5377320" lon="-0.4077430">
        <ele>33.2</ele>
        <time>2019-12-14T07:21:24Z</time>
      </trkpt>
      <trkpt lat="39.5381350" lon="-0.4071430">
        <ele>33.4</ele>
        <time>2019-12-14T07:21:32Z</time>
      </trkpt>
      <trkpt lat="39.5384260" lon="-0.4064590">
        <ele>33.4</ele>
        <time>2019-12-14T07:21:40Z</time>
      </trkpt>
      <trkpt lat="39.5386710" lon="-0.4057820">
        <ele>33.4</ele>
        <time>2019-12-14T07:21:49Z</time>
      </trkpt>
      <trkpt lat="39.5387420" lon="-0.4056450">
        <ele>33.4</ele>
        <time>2019-12-14T07:21:53Z</time>
      </trkpt>
      <trkpt lat="39.5387610" lon="-0.4054570">
        <ele>33.4</ele>
        <time>2019-12-14T07:21:56Z</time>
      </trkpt>
      <trkpt lat="39.5388470" lon="-0.4051010">
        <ele>33.4</ele>
        <time>2019-12-14T07:22:01Z</time>
      </trkpt>
      <trkpt lat="39.5388790" lon="-0.4047760">
        <ele>33.4</ele>
        <time>2019-12-14T07:22:05Z</time>
      </trkpt>
      <trkpt lat="39.5389240" lon="-0.4044600">
        <ele>33.2</ele>
        <time>2019-12-14T07:22:09Z</time>
      </trkpt>
      <trkpt lat="39.5391090" lon="-0.4037140">
        <ele>32.8</ele>
        <time>2019-12-14T07:22:18Z</time>
      </trkpt>
      <trkpt lat="39.5392060" lon="-0.4034670">
        <ele>32.8</ele>
        <time>2019-12-14T07:22:21Z</time>
      </trkpt>
      <trkpt lat="39.5393820" lon="-0.4032090">
        <ele>32.6</ele>
        <time>2019-12-14T07:22:28Z</time>
      </trkpt>
      <trkpt lat="39.5398150" lon="-0.4026820">
        <ele>32.6</ele>
        <time>2019-12-14T07:22:46Z</time>
      </trkpt>
      <trkpt lat="39.5402410" lon="-0.4021870">
        <ele>32.8</ele>
        <time>2019-12-14T07:22:54Z</time>
      </trkpt>
      <trkpt lat="39.5406780" lon="-0.4016560">
        <ele>32.8</ele>
        <time>2019-12-14T07:23:02Z</time>
      </trkpt>
      <trkpt lat="39.5411000" lon="-0.4011270">
        <ele>32.8</ele>
        <time>2019-12-14T07:23:10Z</time>
      </trkpt>
      <trkpt lat="39.5415050" lon="-0.4006620">
        <ele>33.0</ele>
        <time>2019-12-14T07:23:17Z</time>
      </trkpt>
      <trkpt lat="39.5419320" lon="-0.4000960">
        <ele>33.2</ele>
        <time>2019-12-14T07:23:25Z</time>
      </trkpt>
      <trkpt lat="39.5423410" lon="-0.3995270">
        <ele>32.8</ele>
        <time>2019-12-14T07:23:33Z</time>
      </trkpt>
      <trkpt lat="39.5426050" lon="-0.3991720">
        <ele>32.6</ele>
        <time>2019-12-14T07:23:38Z</time>
      </trkpt>
      <trkpt lat="39.5426360" lon="-0.3987890">
        <ele>32.4</ele>
        <time>2019-12-14T07:23:42Z</time>
      </trkpt>
      <trkpt lat="39.5426320" lon="-0.3979890">
        <ele>32.4</ele>
        <time>2019-12-14T07:23:50Z</time>
      </trkpt>
      <trkpt lat="39.5426560" lon="-0.3974080">
        <ele>31.8</ele>
        <time>2019-12-14T07:23:56Z</time>
      </trkpt>
      <trkpt lat="39.5426470" lon="-0.3971560">
        <ele>31.6</ele>
        <time>2019-12-14T07:23:59Z</time>
      </trkpt>
      <trkpt lat="39.5426340" lon="-0.3968370">
        <ele>31.6</ele>
        <time>2019-12-14T07:24:03Z</time>
      </trkpt>
      <trkpt lat="39.5426460" lon="-0.3961260">
        <ele>31.6</ele>
        <time>2019-12-14T07:24:12Z</time>
      </trkpt>
      <trkpt lat="39.5427120" lon="-0.3954020">
        <ele>31.8</ele>
        <time>2019-12-14T07:24:21Z</time>
      </trkpt>
      <trkpt lat="39.5429490" lon="-0.3952990">
        <ele>31.8</ele>
        <time>2019-12-14T07:24:26Z</time>
      </trkpt>
      <trkpt lat="39.5435430" lon="-0.3953460">
        <ele>31.8</ele>
        <time>2019-12-14T07:24:35Z</time>
      </trkpt>
      <trkpt lat="39.5440820" lon="-0.3953660">
        <ele>31.6</ele>
        <time>2019-12-14T07:24:43Z</time>
      </trkpt>
      <trkpt lat="39.5446620" lon="-0.3954790">
        <ele>31.8</ele>
        <time>2019-12-14T07:24:52Z</time>
      </trkpt>
      <trkpt lat="39.5452100" lon="-0.3956240">
        <ele>31.8</ele>
        <time>2019-12-14T07:25:01Z</time>
      </trkpt>
      <trkpt lat="39.5452690" lon="-0.3956340">
        <ele>31.8</ele>
        <time>2019-12-14T07:25:02Z</time>
      </trkpt>
      <trkpt lat="39.5455320" lon="-0.3956910">
        <ele>32.2</ele>
        <time>2019-12-14T07:25:10Z</time>
      </trkpt>
      <trkpt lat="39.5455510" lon="-0.3956960">
        <ele>32.2</ele>
        <time>2019-12-14T07:25:11Z</time>
      </trkpt>
      <trkpt lat="39.5456350" lon="-0.3957610">
        <ele>32.4</ele>
        <time>2019-12-14T07:25:14Z</time>
      </trkpt>
      <trkpt lat="39.5458200" lon="-0.3957950">
        <ele>32.4</ele>
        <time>2019-12-14T07:25:18Z</time>
      </trkpt>
      <trkpt lat="39.5459790" lon="-0.3957680">
        <ele>32.4</ele>
        <time>2019-12-14T07:25:21Z</time>
      </trkpt>
      <trkpt lat="39.5462430" lon="-0.3955370">
        <ele>32.4</ele>
        <time>2019-12-14T07:25:26Z</time>
      </trkpt>
      <trkpt lat="39.5465830" lon="-0.3950560">
        <ele>32.4</ele>
        <time>2019-12-14T07:25:34Z</time>
      </trkpt>
      <trkpt lat="39.5470540" lon="-0.3947540">
        <ele>32.4</ele>
        <time>2019-12-14T07:25:42Z</time>
      </trkpt>
      <trkpt lat="39.5476420" lon="-0.3947760">
        <ele>32.6</ele>
        <time>2019-12-14T07:25:51Z</time>
      </trkpt>
      <trkpt lat="39.5478840" lon="-0.3948570">
        <ele>32.6</ele>
        <time>2019-12-14T07:25:55Z</time>
      </trkpt>
      <trkpt lat="39.5481020" lon="-0.3947800">
        <ele>32.6</ele>
        <time>2019-12-14T07:25:59Z</time>
      </trkpt>
      <trkpt lat="39.5484800" lon="-0.3948780">
        <ele>32.8</ele>
        <time>2019-12-14T07:26:06Z</time>
      </trkpt>
      <trkpt lat="39.5489290" lon="-0.3950720">
        <ele>32.8</ele>
        <time>2019-12-14T07:26:14Z</time>
      </trkpt>
      <trkpt lat="39.5493090" lon="-0.3952500">
        <ele>33.0</ele>
        <time>2019-12-14T07:26:21Z</time>
      </trkpt>
      <trkpt lat="39.5493610" lon="-0.3952770">
        <ele>33.0</ele>
        <time>2019-12-14T07:26:22Z</time>
      </trkpt>
      <trkpt lat="39.5497130" lon="-0.3954370">
        <ele>33.6</ele>
        <time>2019-12-14T07:26:29Z</time>
      </trkpt>
      <trkpt lat="39.5502730" lon="-0.3956790">
        <ele>34.2</ele>
        <time>2019-12-14T07:26:39Z</time>
      </trkpt>
      <trkpt lat="39.5506160" lon="-0.3958400">
        <ele>34.4</ele>
        <time>2019-12-14T07:26:45Z</time>
      </trkpt>
      <trkpt lat="39.5509340" lon="-0.3960020">
        <ele>34.8</ele>
        <time>2019-12-14T07:26:51Z</time>
      </trkpt>
      <trkpt lat="39.5511320" lon="-0.3960570">
        <ele>35.0</ele>
        <time>2019-12-14T07:26:55Z</time>
      </trkpt>
      <trkpt lat="39.5512990" lon="-0.3961690">
        <ele>35.6</ele>
        <time>2019-12-14T07:27:01Z</time>
      </trkpt>
      <trkpt lat="39.5513200" lon="-0.3961930">
        <ele>36.0</ele>
        <time>2019-12-14T07:27:05Z</time>
      </trkpt>
      <trkpt lat="39.5513430" lon="-0.3962500">
        <ele>37.0</ele>
        <time>2019-12-14T07:28:16Z</time>
      </trkpt>
      <trkpt lat="39.5518470" lon="-0.3965670">
        <ele>36.6</ele>
        <time>2019-12-14T07:28:34Z</time>
      </trkpt>
      <trkpt lat="39.5519770" lon="-0.3965370">
        <ele>36.6</ele>
        <time>2019-12-14T07:28:37Z</time>
      </trkpt>
      <trkpt lat="39.5522660" lon="-0.3965520">
        <ele>36.6</ele>
        <time>2019-12-14T07:28:43Z</time>
      </trkpt>
      <trkpt lat="39.5528350" lon="-0.3964890">
        <ele>37.8</ele>
        <time>2019-12-14T07:28:56Z</time>
      </trkpt>
      <trkpt lat="39.5529200" lon="-0.3964920">
        <ele>38.0</ele>
        <time>2019-12-14T07:28:58Z</time>
      </trkpt>
      <trkpt lat="39.5533050" lon="-0.3965670">
        <ele>39.2</ele>
        <time>2019-12-14T07:29:07Z</time>
      </trkpt>
      <trkpt lat="39.5536550" lon="-0.3967140">
        <ele>40.4</ele>
        <time>2019-12-14T07:29:15Z</time>
      </trkpt>
      <trkpt lat="39.5540460" lon="-0.3969170">
        <ele>41.4</ele>
        <time>2019-12-14T07:29:24Z</time>
      </trkpt>
      <trkpt lat="39.5545490" lon="-0.3972100">
        <ele>42.0</ele>
        <time>2019-12-14T07:29:36Z</time>
      </trkpt>
      <trkpt lat="39.5546810" lon="-0.3972800">
        <ele>42.4</ele>
        <time>2019-12-14T07:29:39Z</time>
      </trkpt>
      <trkpt lat="39.5550190" lon="-0.3973840">
        <ele>43.4</ele>
        <time>2019-12-14T07:29:46Z</time>
      </trkpt>
      <trkpt lat="39.5555980" lon="-0.3974430">
        <ele>44.0</ele>
        <time>2019-12-14T07:29:58Z</time>
      </trkpt>
      <trkpt lat="39.5557430" lon="-0.3974420">
        <ele>44.4</ele>
        <time>2019-12-14T07:30:01Z</time>
      </trkpt>
      <trkpt lat="39.5562900" lon="-0.3974590">
        <ele>45.2</ele>
        <time>2019-12-14T07:30:12Z</time>
      </trkpt>
      <trkpt lat="39.5566500" lon="-0.3974750">
        <ele>45.4</ele>
        <time>2019-12-14T07:30:19Z</time>
      </trkpt>
      <trkpt lat="39.5572290" lon="-0.3975300">
        <ele>46.0</ele>
        <time>2019-12-14T07:30:30Z</time>
      </trkpt>
      <trkpt lat="39.5574770" lon="-0.3975880">
        <ele>46.4</ele>
        <time>2019-12-14T07:30:35Z</time>
      </trkpt>
      <trkpt lat="39.5575230" lon="-0.3975840">
        <ele>46.6</ele>
        <time>2019-12-14T07:30:36Z</time>
      </trkpt>
      <trkpt lat="39.5576000" lon="-0.3974370">
        <ele>47.2</ele>
        <time>2019-12-14T07:30:39Z</time>
      </trkpt>
      <trkpt lat="39.5577000" lon="-0.3971540">
        <ele>47.8</ele>
        <time>2019-12-14T07:30:44Z</time>
      </trkpt>
      <trkpt lat="39.5577200" lon="-0.3970990">
        <ele>48.2</ele>
        <time>2019-12-14T07:30:45Z</time>
      </trkpt>
      <trkpt lat="39.5577530" lon="-0.3969950">
        <ele>49.0</ele>
        <time>2019-12-14T07:30:47Z</time>
      </trkpt>
      <trkpt lat="39.5578170" lon="-0.3968020">
        <ele>50.2</ele>
        <time>2019-12-14T07:30:51Z</time>
      </trkpt>
      <trkpt lat="39.5580390" lon="-0.3961500">
        <ele>50.8</ele>
        <time>2019-12-14T07:31:02Z</time>
      </trkpt>
      <trkpt lat="39.5580780" lon="-0.3960810">
        <ele>50.6</ele>
        <time>2019-12-14T07:31:04Z</time>
      </trkpt>
      <trkpt lat="39.5582370" lon="-0.3961210">
        <ele>49.6</ele>
        <time>2019-12-14T07:31:08Z</time>
      </trkpt>
      <trkpt lat="39.5584530" lon="-0.3962510">
        <ele>49.0</ele>
        <time>2019-12-14T07:31:13Z</time>
      </trkpt>
      <trkpt lat="39.5588020" lon="-0.3964500">
        <ele>49.2</ele>
        <time>2019-12-14T07:31:21Z</time>
      </trkpt>
      <trkpt lat="39.5589740" lon="-0.3965730">
        <ele>49.8</ele>
        <time>2019-12-14T07:31:25Z</time>
      </trkpt>
      <trkpt lat="39.5591100" lon="-0.3966670">
        <ele>50.0</ele>
        <time>2019-12-14T07:31:28Z</time>
      </trkpt>
      <trkpt lat="39.5596140" lon="-0.3969630">
        <ele>50.4</ele>
        <time>2019-12-14T07:31:38Z</time>
      </trkpt>
      <trkpt lat="39.5601320" lon="-0.3972280">
        <ele>50.4</ele>
        <time>2019-12-14T07:31:48Z</time>
      </trkpt>
      <trkpt lat="39.5606370" lon="-0.3975480">
        <ele>51.0</ele>
        <time>2019-12-14T07:31:58Z</time>
      </trkpt>
      <trkpt lat="39.5609520" lon="-0.3977280">
        <ele>51.4</ele>
        <time>2019-12-14T07:32:04Z</time>
      </trkpt>
      <trkpt lat="39.5614670" lon="-0.3980300">
        <ele>51.4</ele>
        <time>2019-12-14T07:32:14Z</time>
      </trkpt>
      <trkpt lat="39.5619870" lon="-0.3983290">
        <ele>51.8</ele>
        <time>2019-12-14T07:32:24Z</time>
      </trkpt>
      <trkpt lat="39.5624590" lon="-0.3986000">
        <ele>52.4</ele>
        <time>2019-12-14T07:32:33Z</time>
      </trkpt>
      <trkpt lat="39.5629670" lon="-0.3989100">
        <ele>52.8</ele>
        <time>2019-12-14T07:32:43Z</time>
      </trkpt>
      <trkpt lat="39.5630170" lon="-0.3989380">
        <ele>52.8</ele>
        <time>2019-12-14T07:32:44Z</time>
      </trkpt>
      <trkpt lat="39.5632880" lon="-0.3989070">
        <ele>53.0</ele>
        <time>2019-12-14T07:32:49Z</time>
      </trkpt>
      <trkpt lat="39.5637040" lon="-0.3983710">
        <ele>53.2</ele>
        <time>2019-12-14T07:32:58Z</time>
      </trkpt>
      <trkpt lat="39.5641170" lon="-0.3978730">
        <ele>52.2</ele>
        <time>2019-12-14T07:33:04Z</time>
      </trkpt>
      <trkpt lat="39.5642680" lon="-0.3976870">
        <ele>51.2</ele>
        <time>2019-12-14T07:33:06Z</time>
      </trkpt>
      <trkpt lat="39.5644070" lon="-0.3975040">
        <ele>50.0</ele>
        <time>2019-12-14T07:33:08Z</time>
      </trkpt>
      <trkpt lat="39.5645340" lon="-0.3973220">
        <ele>48.6</ele>
        <time>2019-12-14T07:33:10Z</time>
      </trkpt>
      <trkpt lat="39.5646400" lon="-0.3971390">
        <ele>47.6</ele>
        <time>2019-12-14T07:33:12Z</time>
      </trkpt>
      <trkpt lat="39.5647480" lon="-0.3968600">
        <ele>47.2</ele>
        <time>2019-12-14T07:33:15Z</time>
      </trkpt>
      <trkpt lat="39.5648850" lon="-0.3961470">
        <ele>47.6</ele>
        <time>2019-12-14T07:33:23Z</time>
      </trkpt>
      <trkpt lat="39.5653710" lon="-0.3962240">
        <ele>47.8</ele>
        <time>2019-12-14T07:33:30Z</time>
      </trkpt>
      <trkpt lat="39.5654410" lon="-0.3962390">
        <ele>47.8</ele>
        <time>2019-12-14T07:33:31Z</time>
      </trkpt>
      <trkpt lat="39.5657040" lon="-0.3963490">
        <ele>47.8</ele>
        <time>2019-12-14T07:33:35Z</time>
      </trkpt>
      <trkpt lat="39.5658340" lon="-0.3961210">
        <ele>47.2</ele>
        <time>2019-12-14T07:33:39Z</time>
      </trkpt>
      <trkpt lat="39.5658510" lon="-0.3960390">
        <ele>47.2</ele>
        <time>2019-12-14T07:33:40Z</time>
      </trkpt>
      <trkpt lat="39.5660470" lon="-0.3953460">
        <ele>46.8</ele>
        <time>2019-12-14T07:33:49Z</time>
      </trkpt>
      <trkpt lat="39.5661390" lon="-0.3950820">
        <ele>46.8</ele>
        <time>2019-12-14T07:33:53Z</time>
      </trkpt>
      <trkpt lat="39.5663080" lon="-0.3950860">
        <ele>46.8</ele>
        <time>2019-12-14T07:33:57Z</time>
      </trkpt>
      <trkpt lat="39.5668430" lon="-0.3953310">
        <ele>47.2</ele>
        <time>2019-12-14T07:34:08Z</time>
      </trkpt>
      <trkpt lat="39.5673770" lon="-0.3955670">
        <ele>47.2</ele>
        <time>2019-12-14T07:34:18Z</time>
      </trkpt>
      <trkpt lat="39.5679150" lon="-0.3958070">
        <ele>47.2</ele>
        <time>2019-12-14T07:34:28Z</time>
      </trkpt>
      <trkpt lat="39.5684300" lon="-0.3960390">
        <ele>47.6</ele>
        <time>2019-12-14T07:34:38Z</time>
      </trkpt>
      <trkpt lat="39.5688370" lon="-0.3962280">
        <ele>48.2</ele>
        <time>2019-12-14T07:34:46Z</time>
      </trkpt>
      <trkpt lat="39.5691330" lon="-0.3965310">
        <ele>48.2</ele>
        <time>2019-12-14T07:34:53Z</time>
      </trkpt>
      <trkpt lat="39.5696620" lon="-0.3967840">
        <ele>48.2</ele>
        <time>2019-12-14T07:35:03Z</time>
      </trkpt>
      <trkpt lat="39.5698040" lon="-0.3968460">
        <ele>48.2</ele>
        <time>2019-12-14T07:35:06Z</time>
      </trkpt>
      <trkpt lat="39.5699360" lon="-0.3966250">
        <ele>48.4</ele>
        <time>2019-12-14T07:35:11Z</time>
      </trkpt>
      <trkpt lat="39.5700800" lon="-0.3960080">
        <ele>49.0</ele>
        <time>2019-12-14T07:35:20Z</time>
      </trkpt>
      <trkpt lat="39.5702060" lon="-0.3953280">
        <ele>49.2</ele>
        <time>2019-12-14T07:35:29Z</time>
      </trkpt>
      <trkpt lat="39.5703320" lon="-0.3947170">
        <ele>49.4</ele>
        <time>2019-12-14T07:35:37Z</time>
      </trkpt>
      <trkpt lat="39.5705330" lon="-0.3943750">
        <ele>49.2</ele>
        <time>2019-12-14T07:35:44Z</time>
      </trkpt>
      <trkpt lat="39.5709670" lon="-0.3942810">
        <ele>47.6</ele>
        <time>2019-12-14T07:35:51Z</time>
      </trkpt>
      <trkpt lat="39.5712800" lon="-0.3941860">
        <ele>46.6</ele>
        <time>2019-12-14T07:35:56Z</time>
      </trkpt>
      <trkpt lat="39.5718490" lon="-0.3940260">
        <ele>46.0</ele>
        <time>2019-12-14T07:36:05Z</time>
      </trkpt>
      <trkpt lat="39.5719740" lon="-0.3939950">
        <ele>45.8</ele>
        <time>2019-12-14T07:36:07Z</time>
      </trkpt>
      <trkpt lat="39.5720960" lon="-0.3939790">
        <ele>45.8</ele>
        <time>2019-12-14T07:36:09Z</time>
      </trkpt>
      <trkpt lat="39.5723210" lon="-0.3939680">
        <ele>45.8</ele>
        <time>2019-12-14T07:36:13Z</time>
      </trkpt>
      <trkpt lat="39.5726690" lon="-0.3933870">
        <ele>45.6</ele>
        <time>2019-12-14T07:36:22Z</time>
      </trkpt>
      <trkpt lat="39.5726900" lon="-0.3932850">
        <ele>45.6</ele>
        <time>2019-12-14T07:36:23Z</time>
      </trkpt>
      <trkpt lat="39.5727700" lon="-0.3931170">
        <ele>44.8</ele>
        <time>2019-12-14T07:36:25Z</time>
      </trkpt>
      <trkpt lat="39.5728720" lon="-0.3930030">
        <ele>43.4</ele>
        <time>2019-12-14T07:36:27Z</time>
      </trkpt>
      <trkpt lat="39.5730160" lon="-0.3928660">
        <ele>42.2</ele>
        <time>2019-12-14T07:36:30Z</time>
      </trkpt>
      <trkpt lat="39.5731960" lon="-0.3927230">
        <ele>42.0</ele>
        <time>2019-12-14T07:36:34Z</time>
      </trkpt>
      <trkpt lat="39.5734700" lon="-0.3923460">
        <ele>43.2</ele>
        <time>2019-12-14T07:36:43Z</time>
      </trkpt>
      <trkpt lat="39.5734580" lon="-0.3923140">
        <ele>43.2</ele>
        <time>2019-12-14T07:36:44Z</time>
      </trkpt>
      <trkpt lat="39.5733640" lon="-0.3922040">
        <ele>44.4</ele>
        <time>2019-12-14T07:36:48Z</time>
      </trkpt>
      <trkpt lat="39.5732660" lon="-0.3921450">
        <ele>45.6</ele>
        <time>2019-12-14T07:36:51Z</time>
      </trkpt>
      <trkpt lat="39.5730040" lon="-0.3919810">
        <ele>46.4</ele>
        <time>2019-12-14T07:36:59Z</time>
      </trkpt>
      <trkpt lat="39.5730520" lon="-0.3919180">
        <ele>46.6</ele>
        <time>2019-12-14T07:37:02Z</time>
      </trkpt>
      <trkpt lat="39.5731150" lon="-0.3919060">
        <ele>46.8</ele>
        <time>2019-12-14T07:37:04Z</time>
      </trkpt>
      <trkpt lat="39.5732140" lon="-0.3918830">
        <ele>48.2</ele>
        <time>2019-12-14T07:37:07Z</time>
      </trkpt>
      <trkpt lat="39.5735730" lon="-0.3917050">
        <ele>49.0</ele>
        <time>2019-12-14T07:37:19Z</time>
      </trkpt>
      <trkpt lat="39.5735730" lon="-0.3917290">
        <ele>49.0</ele>
        <time>2019-12-14T07:37:21Z</time>
      </trkpt>
      <trkpt lat="39.5734360" lon="-0.3917900">
        <ele>48.8</ele>
        <time>2019-12-14T07:37:26Z</time>
      </trkpt>
      <trkpt lat="39.5729110" lon="-0.3919480">
        <ele>49.0</ele>
        <time>2019-12-14T07:37:39Z</time>
      </trkpt>
      <trkpt lat="39.5723520" lon="-0.3917970">
        <ele>48.8</ele>
        <time>2019-12-14T07:37:52Z</time>
      </trkpt>
      <trkpt lat="39.5719920" lon="-0.3916750">
        <ele>49.4</ele>
        <time>2019-12-14T07:37:59Z</time>
      </trkpt>
      <trkpt lat="39.5719270" lon="-0.3912980">
        <ele>49.4</ele>
        <time>2019-12-14T07:38:05Z</time>
      </trkpt>
      <trkpt lat="39.5720390" lon="-0.3906110">
        <ele>49.2</ele>
        <time>2019-12-14T07:38:14Z</time>
      </trkpt>
      <trkpt lat="39.5721470" lon="-0.3899190">
        <ele>48.6</ele>
        <time>2019-12-14T07:38:23Z</time>
      </trkpt>
      <trkpt lat="39.5722540" lon="-0.3892070">
        <ele>48.6</ele>
        <time>2019-12-14T07:38:32Z</time>
      </trkpt>
      <trkpt lat="39.5723660" lon="-0.3886320">
        <ele>48.2</ele>
        <time>2019-12-14T07:38:39Z</time>
      </trkpt>
      <trkpt lat="39.5724630" lon="-0.3879100">
        <ele>47.6</ele>
        <time>2019-12-14T07:38:48Z</time>
      </trkpt>
      <trkpt lat="39.5724740" lon="-0.3878290">
        <ele>47.6</ele>
        <time>2019-12-14T07:38:49Z</time>
      </trkpt>
      <trkpt lat="39.5726010" lon="-0.3871490">
        <ele>46.8</ele>
        <time>2019-12-14T07:39:00Z</time>
      </trkpt>
      <trkpt lat="39.5727040" lon="-0.3871300">
        <ele>46.4</ele>
        <time>2019-12-14T07:39:03Z</time>
      </trkpt>
      <trkpt lat="39.5727490" lon="-0.3871370">
        <ele>46.2</ele>
        <time>2019-12-14T07:39:04Z</time>
      </trkpt>
      <trkpt lat="39.5728440" lon="-0.3871540">
        <ele>45.4</ele>
        <time>2019-12-14T07:39:06Z</time>
      </trkpt>
      <trkpt lat="39.5733900" lon="-0.3871820">
        <ele>44.8</ele>
        <time>2019-12-14T07:39:16Z</time>
      </trkpt>
      <trkpt lat="39.5739380" lon="-0.3871390">
        <ele>45.0</ele>
        <time>2019-12-14T07:39:25Z</time>
      </trkpt>
      <trkpt lat="39.5745140" lon="-0.3871320">
        <ele>45.0</ele>
        <time>2019-12-14T07:39:34Z</time>
      </trkpt>
      <trkpt lat="39.5746400" lon="-0.3871380">
        <ele>45.2</ele>
        <time>2019-12-14T07:39:36Z</time>
      </trkpt>
      <trkpt lat="39.5752150" lon="-0.3871040">
        <ele>45.8</ele>
        <time>2019-12-14T07:39:45Z</time>
      </trkpt>
      <trkpt lat="39.5757930" lon="-0.3869890">
        <ele>46.2</ele>
        <time>2019-12-14T07:39:54Z</time>
      </trkpt>
      <trkpt lat="39.5761470" lon="-0.3868920">
        <ele>46.4</ele>
        <time>2019-12-14T07:40:01Z</time>
      </trkpt>
      <trkpt lat="39.5767040" lon="-0.3866870">
        <ele>46.6</ele>
        <time>2019-12-14T07:40:11Z</time>
      </trkpt>
      <trkpt lat="39.5768900" lon="-0.3866490">
        <ele>46.8</ele>
        <time>2019-12-14T07:40:14Z</time>
      </trkpt>
      <trkpt lat="39.5774800" lon="-0.3865950">
        <ele>46.8</ele>
        <time>2019-12-14T07:40:23Z</time>
      </trkpt>
      <trkpt lat="39.5780640" lon="-0.3865700">
        <ele>47.0</ele>
        <time>2019-12-14T07:40:32Z</time>
      </trkpt>
      <trkpt lat="39.5786500" lon="-0.3865490">
        <ele>47.6</ele>
        <time>2019-12-14T07:40:41Z</time>
      </trkpt>
      <trkpt lat="39.5792370" lon="-0.3865610">
        <ele>47.6</ele>
        <time>2019-12-14T07:40:50Z</time>
      </trkpt>
      <trkpt lat="39.5798060" lon="-0.3866280">
        <ele>47.6</ele>
        <time>2019-12-14T07:40:59Z</time>
      </trkpt>
      <trkpt lat="39.5803700" lon="-0.3867530">
        <ele>47.6</ele>
        <time>2019-12-14T07:41:08Z</time>
      </trkpt>
      <trkpt lat="39.5809330" lon="-0.3868810">
        <ele>48.0</ele>
        <time>2019-12-14T07:41:17Z</time>
      </trkpt>
      <trkpt lat="39.5814840" lon="-0.3869920">
        <ele>48.0</ele>
        <time>2019-12-14T07:41:26Z</time>
      </trkpt>
      <trkpt lat="39.5820330" lon="-0.3871360">
        <ele>48.0</ele>
        <time>2019-12-14T07:41:35Z</time>
      </trkpt>
      <trkpt lat="39.5825950" lon="-0.3873240">
        <ele>48.0</ele>
        <time>2019-12-14T07:41:45Z</time>
      </trkpt>
      <trkpt lat="39.5831140" lon="-0.3875700">
        <ele>48.6</ele>
        <time>2019-12-14T07:41:55Z</time>
      </trkpt>
      <trkpt lat="39.5832850" lon="-0.3876510">
        <ele>49.2</ele>
        <time>2019-12-14T07:41:58Z</time>
      </trkpt>
      <trkpt lat="39.5838150" lon="-0.3879100">
        <ele>49.8</ele>
        <time>2019-12-14T07:42:07Z</time>
      </trkpt>
      <trkpt lat="39.5843150" lon="-0.3881520">
        <ele>50.0</ele>
        <time>2019-12-14T07:42:16Z</time>
      </trkpt>
      <trkpt lat="39.5843380" lon="-0.3884510">
        <ele>49.8</ele>
        <time>2019-12-14T07:42:21Z</time>
      </trkpt>
      <trkpt lat="39.5843300" lon="-0.3885080">
        <ele>49.8</ele>
        <time>2019-12-14T07:42:22Z</time>
      </trkpt>
      <trkpt lat="39.5844740" lon="-0.3886510">
        <ele>49.8</ele>
        <time>2019-12-14T07:42:27Z</time>
      </trkpt>
      <trkpt lat="39.5847500" lon="-0.3888470">
        <ele>50.2</ele>
        <time>2019-12-14T07:42:34Z</time>
      </trkpt>
      <trkpt lat="39.5848410" lon="-0.3889060">
        <ele>50.4</ele>
        <time>2019-12-14T07:42:36Z</time>
      </trkpt>
      <trkpt lat="39.5853230" lon="-0.3892660">
        <ele>50.6</ele>
        <time>2019-12-14T07:42:47Z</time>
      </trkpt>
      <trkpt lat="39.5854560" lon="-0.3893980">
        <ele>50.8</ele>
        <time>2019-12-14T07:42:55Z</time>
      </trkpt>
      <trkpt lat="39.5856400" lon="-0.3894690">
        <ele>51.4</ele>
        <time>2019-12-14T07:43:36Z</time>
      </trkpt>
      <trkpt lat="39.5858710" lon="-0.3896540">
        <ele>51.4</ele>
        <time>2019-12-14T07:43:43Z</time>
      </trkpt>
      <trkpt lat="39.5864050" lon="-0.3899790">
        <ele>51.8</ele>
        <time>2019-12-14T07:43:55Z</time>
      </trkpt>
      <trkpt lat="39.5869620" lon="-0.3901940">
        <ele>52.4</ele>
        <time>2019-12-14T07:44:06Z</time>
      </trkpt>
      <trkpt lat="39.5871060" lon="-0.3902610">
        <ele>52.4</ele>
        <time>2019-12-14T07:44:11Z</time>
      </trkpt>
      <trkpt lat="39.5871300" lon="-0.3902670">
        <ele>52.6</ele>
        <time>2019-12-14T07:44:14Z</time>
      </trkpt>
      <trkpt lat="39.5875940" lon="-0.3903400">
        <ele>52.8</ele>
        <time>2019-12-14T07:45:14Z</time>
      </trkpt>
      <trkpt lat="39.5876450" lon="-0.3901640">
        <ele>53.0</ele>
        <time>2019-12-14T07:45:18Z</time>
      </trkpt>
      <trkpt lat="39.5877430" lon="-0.3897430">
        <ele>53.4</ele>
        <time>2019-12-14T07:45:26Z</time>
      </trkpt>
      <trkpt lat="39.5878760" lon="-0.3891130">
        <ele>53.8</ele>
        <time>2019-12-14T07:45:35Z</time>
      </trkpt>
      <trkpt lat="39.5881070" lon="-0.3884040">
        <ele>53.4</ele>
        <time>2019-12-14T07:45:44Z</time>
      </trkpt>
      <trkpt lat="39.5882630" lon="-0.3879120">
        <ele>52.6</ele>
        <time>2019-12-14T07:45:50Z</time>
      </trkpt>
      <trkpt lat="39.5884780" lon="-0.3872610">
        <ele>52.0</ele>
        <time>2019-12-14T07:45:58Z</time>
      </trkpt>
      <trkpt lat="39.5886930" lon="-0.3865990">
        <ele>51.8</ele>
        <time>2019-12-14T07:46:06Z</time>
      </trkpt>
      <trkpt lat="39.5887750" lon="-0.3863510">
        <ele>51.6</ele>
        <time>2019-12-14T07:46:09Z</time>
      </trkpt>
      <trkpt lat="39.5888170" lon="-0.3862790">
        <ele>51.6</ele>
        <time>2019-12-14T07:46:10Z</time>
      </trkpt>
      <trkpt lat="39.5890690" lon="-0.3861900">
        <ele>51.6</ele>
        <time>2019-12-14T07:46:14Z</time>
      </trkpt>
      <trkpt lat="39.5896240" lon="-0.3861450">
        <ele>51.0</ele>
        <time>2019-12-14T07:46:23Z</time>
      </trkpt>
      <trkpt lat="39.5902200" lon="-0.3861920">
        <ele>51.0</ele>
        <time>2019-12-14T07:46:33Z</time>
      </trkpt>
      <trkpt lat="39.5907630" lon="-0.3862370">
        <ele>52.4</ele>
        <time>2019-12-14T07:46:42Z</time>
      </trkpt>
      <trkpt lat="39.5913500" lon="-0.3863630">
        <ele>52.8</ele>
        <time>2019-12-14T07:46:52Z</time>
      </trkpt>
      <trkpt lat="39.5915770" lon="-0.3864230">
        <ele>53.0</ele>
        <time>2019-12-14T07:46:56Z</time>
      </trkpt>
      <trkpt lat="39.5921450" lon="-0.3865860">
        <ele>53.8</ele>
        <time>2019-12-14T07:47:06Z</time>
      </trkpt>
      <trkpt lat="39.5922560" lon="-0.3866410">
        <ele>54.0</ele>
        <time>2019-12-14T07:47:08Z</time>
      </trkpt>
      <trkpt lat="39.5927400" lon="-0.3868470">
        <ele>54.8</ele>
        <time>2019-12-14T07:47:17Z</time>
      </trkpt>
      <trkpt lat="39.5930790" lon="-0.3868700">
        <ele>55.0</ele>
        <time>2019-12-14T07:47:23Z</time>
      </trkpt>
      <trkpt lat="39.5936420" lon="-0.3868900">
        <ele>56.0</ele>
        <time>2019-12-14T07:47:33Z</time>
      </trkpt>
      <trkpt lat="39.5937550" lon="-0.3868820">
        <ele>56.2</ele>
        <time>2019-12-14T07:47:35Z</time>
      </trkpt>
      <trkpt lat="39.5938110" lon="-0.3868720">
        <ele>56.4</ele>
        <time>2019-12-14T07:47:36Z</time>
      </trkpt>
      <trkpt lat="39.5940230" lon="-0.3867510">
        <ele>57.2</ele>
        <time>2019-12-14T07:47:40Z</time>
      </trkpt>
      <trkpt lat="39.5946160" lon="-0.3867660">
        <ele>57.8</ele>
        <time>2019-12-14T07:47:50Z</time>
      </trkpt>
      <trkpt lat="39.5951390" lon="-0.3868680">
        <ele>58.2</ele>
        <time>2019-12-14T07:47:59Z</time>
      </trkpt>
      <trkpt lat="39.5955860" lon="-0.3869280">
        <ele>58.6</ele>
        <time>2019-12-14T07:48:07Z</time>
      </trkpt>
      <trkpt lat="39.5959150" lon="-0.3868620">
        <ele>59.4</ele>
        <time>2019-12-14T07:48:13Z</time>
      </trkpt>
      <trkpt lat="39.5964710" lon="-0.3867990">
        <ele>60.6</ele>
        <time>2019-12-14T07:48:23Z</time>
      </trkpt>
      <trkpt lat="39.5968090" lon="-0.3867800">
        <ele>61.0</ele>
        <time>2019-12-14T07:48:29Z</time>
      </trkpt>
      <trkpt lat="39.5969600" lon="-0.3867220">
        <ele>61.2</ele>
        <time>2019-12-14T07:48:32Z</time>
      </trkpt>
      <trkpt lat="39.5971510" lon="-0.3861470">
        <ele>61.4</ele>
        <time>2019-12-14T07:48:41Z</time>
      </trkpt>
      <trkpt lat="39.5970890" lon="-0.3859050">
        <ele>61.4</ele>
        <time>2019-12-14T07:48:45Z</time>
      </trkpt>
      <trkpt lat="39.5970740" lon="-0.3858550">
        <ele>61.2</ele>
        <time>2019-12-14T07:48:46Z</time>
      </trkpt>
      <trkpt lat="39.5972000" lon="-0.3856420">
        <ele>61.0</ele>
        <time>2019-12-14T07:48:51Z</time>
      </trkpt>
      <trkpt lat="39.5974220" lon="-0.3853060">
        <ele>60.8</ele>
        <time>2019-12-14T07:48:58Z</time>
      </trkpt>
      <trkpt lat="39.5977270" lon="-0.3847130">
        <ele>61.2</ele>
        <time>2019-12-14T07:49:09Z</time>
      </trkpt>
      <trkpt lat="39.5980450" lon="-0.3841010">
        <ele>61.4</ele>
        <time>2019-12-14T07:49:19Z</time>
      </trkpt>
      <trkpt lat="39.5983540" lon="-0.3841720">
        <ele>61.4</ele>
        <time>2019-12-14T07:49:25Z</time>
      </trkpt>
      <trkpt lat="39.5984980" lon="-0.3843090">
        <ele>61.4</ele>
        <time>2019-12-14T07:49:28Z</time>
      </trkpt>
      <trkpt lat="39.5987580" lon="-0.3845000">
        <ele>61.6</ele>
        <time>2019-12-14T07:49:33Z</time>
      </trkpt>
      <trkpt lat="39.5992550" lon="-0.3848300">
        <ele>62.0</ele>
        <time>2019-12-14T07:49:43Z</time>
      </trkpt>
      <trkpt lat="39.5994000" lon="-0.3849180">
        <ele>62.6</ele>
        <time>2019-12-14T07:49:46Z</time>
      </trkpt>
      <trkpt lat="39.5998270" lon="-0.3851380">
        <ele>63.8</ele>
        <time>2019-12-14T07:49:55Z</time>
      </trkpt>
      <trkpt lat="39.6000380" lon="-0.3852590">
        <ele>65.2</ele>
        <time>2019-12-14T07:50:00Z</time>
      </trkpt>
      <trkpt lat="39.6001570" lon="-0.3853330">
        <ele>66.0</ele>
        <time>2019-12-14T07:50:03Z</time>
      </trkpt>
      <trkpt lat="39.6002000" lon="-0.3853500">
        <ele>66.2</ele>
        <time>2019-12-14T07:50:04Z</time>
      </trkpt>
      <trkpt lat="39.6004860" lon="-0.3852980">
        <ele>67.2</ele>
        <time>2019-12-14T07:50:10Z</time>
      </trkpt>
      <trkpt lat="39.6006260" lon="-0.3849850">
        <ele>67.6</ele>
        <time>2019-12-14T07:50:15Z</time>
      </trkpt>
      <trkpt lat="39.6007170" lon="-0.3842700">
        <ele>67.6</ele>
        <time>2019-12-14T07:50:23Z</time>
      </trkpt>
      <trkpt lat="39.6008270" lon="-0.3835820">
        <ele>67.0</ele>
        <time>2019-12-14T07:50:30Z</time>
      </trkpt>
      <trkpt lat="39.6009540" lon="-0.3828140">
        <ele>66.8</ele>
        <time>2019-12-14T07:50:38Z</time>
      </trkpt>
      <trkpt lat="39.6010560" lon="-0.3820520">
        <ele>67.6</ele>
        <time>2019-12-14T07:50:46Z</time>
      </trkpt>
      <trkpt lat="39.6011270" lon="-0.3815690">
        <ele>67.8</ele>
        <time>2019-12-14T07:50:51Z</time>
      </trkpt>
      <trkpt lat="39.6013100" lon="-0.3811900">
        <ele>67.8</ele>
        <time>2019-12-14T07:50:56Z</time>
      </trkpt>
      <trkpt lat="39.6014170" lon="-0.3805010">
        <ele>68.0</ele>
        <time>2019-12-14T07:51:04Z</time>
      </trkpt>
      <trkpt lat="39.6014190" lon="-0.3804140">
        <ele>68.0</ele>
        <time>2019-12-14T07:51:05Z</time>
      </trkpt>
      <trkpt lat="39.6013980" lon="-0.3801570">
        <ele>68.2</ele>
        <time>2019-12-14T07:51:08Z</time>
      </trkpt>
      <trkpt lat="39.6011730" lon="-0.3794780">
        <ele>68.6</ele>
        <time>2019-12-14T07:51:17Z</time>
      </trkpt>
      <trkpt lat="39.6016580" lon="-0.3792520">
        <ele>68.6</ele>
        <time>2019-12-14T07:51:26Z</time>
      </trkpt>
      <trkpt lat="39.6017080" lon="-0.3792860">
        <ele>68.6</ele>
        <time>2019-12-14T07:51:27Z</time>
      </trkpt>
      <trkpt lat="39.6017530" lon="-0.3793110">
        <ele>68.6</ele>
        <time>2019-12-14T07:51:28Z</time>
      </trkpt>
      <trkpt lat="39.6017660" lon="-0.3792600">
        <ele>69.2</ele>
        <time>2019-12-14T07:51:35Z</time>
      </trkpt>
      <trkpt lat="39.6017330" lon="-0.3792400">
        <ele>69.4</ele>
        <time>2019-12-14T07:51:36Z</time>
      </trkpt>
      <trkpt lat="39.6015450" lon="-0.3791380">
        <ele>69.8</ele>
        <time>2019-12-14T07:51:45Z</time>
      </trkpt>
      <trkpt lat="39.6016360" lon="-0.3788480">
        <ele>69.6</ele>
        <time>2019-12-14T07:51:52Z</time>
      </trkpt>
      <trkpt lat="39.6017420" lon="-0.3782710">
        <ele>69.6</ele>
        <time>2019-12-14T07:52:00Z</time>
      </trkpt>
      <trkpt lat="39.6020110" lon="-0.3775900">
        <ele>68.6</ele>
        <time>2019-12-14T07:52:08Z</time>
      </trkpt>
      <trkpt lat="39.6021130" lon="-0.3773140">
        <ele>68.2</ele>
        <time>2019-12-14T07:52:11Z</time>
      </trkpt>
      <trkpt lat="39.6022730" lon="-0.3766230">
        <ele>67.8</ele>
        <time>2019-12-14T07:52:18Z</time>
      </trkpt>
      <trkpt lat="39.6023080" lon="-0.3763210">
        <ele>67.6</ele>
        <time>2019-12-14T07:52:21Z</time>
      </trkpt>
      <trkpt lat="39.6022100" lon="-0.3756060">
        <ele>67.4</ele>
        <time>2019-12-14T07:52:30Z</time>
      </trkpt>
      <trkpt lat="39.6022230" lon="-0.3755610">
        <ele>67.4</ele>
        <time>2019-12-14T07:52:31Z</time>
      </trkpt>
      <trkpt lat="39.6024090" lon="-0.3754290">
        <ele>67.6</ele>
        <time>2019-12-14T07:52:36Z</time>
      </trkpt>
      <trkpt lat="39.6025040" lon="-0.3753790">
        <ele>67.6</ele>
        <time>2019-12-14T07:52:38Z</time>
      </trkpt>
      <trkpt lat="39.6027750" lon="-0.3751140">
        <ele>67.8</ele>
        <time>2019-12-14T07:52:44Z</time>
      </trkpt>
      <trkpt lat="39.6031640" lon="-0.3746000">
        <ele>68.4</ele>
        <time>2019-12-14T07:52:53Z</time>
      </trkpt>
      <trkpt lat="39.6033530" lon="-0.3743470">
        <ele>68.6</ele>
        <time>2019-12-14T07:52:57Z</time>
      </trkpt>
      <trkpt lat="39.6038850" lon="-0.3742590">
        <ele>68.6</ele>
        <time>2019-12-14T07:53:05Z</time>
      </trkpt>
      <trkpt lat="39.6041230" lon="-0.3744090">
        <ele>68.4</ele>
        <time>2019-12-14T07:53:09Z</time>
      </trkpt>
      <trkpt lat="39.6045090" lon="-0.3749370">
        <ele>68.6</ele>
        <time>2019-12-14T07:53:18Z</time>
      </trkpt>
      <trkpt lat="39.6047930" lon="-0.3753370">
        <ele>69.2</ele>
        <time>2019-12-14T07:53:25Z</time>
      </trkpt>
      <trkpt lat="39.6052190" lon="-0.3758470">
        <ele>70.0</ele>
        <time>2019-12-14T07:53:35Z</time>
      </trkpt>
      <trkpt lat="39.6052600" lon="-0.3758880">
        <ele>70.2</ele>
        <time>2019-12-14T07:53:36Z</time>
      </trkpt>
      <trkpt lat="39.6054500" lon="-0.3760760">
        <ele>70.8</ele>
        <time>2019-12-14T07:53:42Z</time>
      </trkpt>
      <trkpt lat="39.6053580" lon="-0.3760510">
        <ele>71.4</ele>
        <time>2019-12-14T07:53:46Z</time>
      </trkpt>
      <trkpt lat="39.6055100" lon="-0.3758250">
        <ele>72.0</ele>
        <time>2019-12-14T07:53:52Z</time>
      </trkpt>
      <trkpt lat="39.6059700" lon="-0.3756740">
        <ele>71.4</ele>
        <time>2019-12-14T07:54:02Z</time>
      </trkpt>
      <trkpt lat="39.6059620" lon="-0.3756990">
        <ele>71.4</ele>
        <time>2019-12-14T07:54:04Z</time>
      </trkpt>
      <trkpt lat="39.6055570" lon="-0.3758240">
        <ele>71.4</ele>
        <time>2019-12-14T07:54:14Z</time>
      </trkpt>
      <trkpt lat="39.6053900" lon="-0.3758940">
        <ele>71.2</ele>
        <time>2019-12-14T07:54:18Z</time>
      </trkpt>
      <trkpt lat="39.6056490" lon="-0.3762470">
        <ele>71.4</ele>
        <time>2019-12-14T07:54:28Z</time>
      </trkpt>
      <trkpt lat="39.6061250" lon="-0.3766250">
        <ele>72.0</ele>
        <time>2019-12-14T07:54:40Z</time>
      </trkpt>
      <trkpt lat="39.6063300" lon="-0.3767910">
        <ele>72.6</ele>
        <time>2019-12-14T07:54:45Z</time>
      </trkpt>
      <trkpt lat="39.6067240" lon="-0.3771300">
        <ele>73.6</ele>
        <time>2019-12-14T07:54:55Z</time>
      </trkpt>
      <trkpt lat="39.6069430" lon="-0.3773150">
        <ele>74.2</ele>
        <time>2019-12-14T07:55:00Z</time>
      </trkpt>
      <trkpt lat="39.6071520" lon="-0.3773460">
        <ele>74.2</ele>
        <time>2019-12-14T07:55:04Z</time>
      </trkpt>
      <trkpt lat="39.6076880" lon="-0.3773440">
        <ele>74.4</ele>
        <time>2019-12-14T07:55:15Z</time>
      </trkpt>
      <trkpt lat="39.6078720" lon="-0.3773870">
        <ele>74.6</ele>
        <time>2019-12-14T07:55:19Z</time>
      </trkpt>
      <trkpt lat="39.6079200" lon="-0.3773900">
        <ele>74.8</ele>
        <time>2019-12-14T07:55:20Z</time>
      </trkpt>
      <trkpt lat="39.6081480" lon="-0.3774960">
        <ele>75.6</ele>
        <time>2019-12-14T07:55:25Z</time>
      </trkpt>
      <trkpt lat="39.6082390" lon="-0.3775660">
        <ele>75.6</ele>
        <time>2019-12-14T07:55:27Z</time>
      </trkpt>
      <trkpt lat="39.6083350" lon="-0.3776300">
        <ele>75.6</ele>
        <time>2019-12-14T07:55:29Z</time>
      </trkpt>
      <trkpt lat="39.6085340" lon="-0.3777250">
        <ele>75.6</ele>
        <time>2019-12-14T07:55:33Z</time>
      </trkpt>
      <trkpt lat="39.6086600" lon="-0.3778310">
        <ele>75.4</ele>
        <time>2019-12-14T07:55:36Z</time>
      </trkpt>
      <trkpt lat="39.6089610" lon="-0.3781780">
        <ele>75.8</ele>
        <time>2019-12-14T07:55:45Z</time>
      </trkpt>
      <trkpt lat="39.6092340" lon="-0.3784370">
        <ele>76.8</ele>
        <time>2019-12-14T07:55:53Z</time>
      </trkpt>
      <trkpt lat="39.6096430" lon="-0.3788530">
        <ele>77.8</ele>
        <time>2019-12-14T07:56:05Z</time>
      </trkpt>
      <trkpt lat="39.6100340" lon="-0.3793260">
        <ele>78.6</ele>
        <time>2019-12-14T07:56:17Z</time>
      </trkpt>
      <trkpt lat="39.6102030" lon="-0.3795040">
        <ele>79.0</ele>
        <time>2019-12-14T07:56:22Z</time>
      </trkpt>
      <trkpt lat="39.6102340" lon="-0.3795460">
        <ele>79.2</ele>
        <time>2019-12-14T07:56:23Z</time>
      </trkpt>
      <trkpt lat="39.6103840" lon="-0.3797570">
        <ele>79.6</ele>
        <time>2019-12-14T07:56:28Z</time>
      </trkpt>
      <trkpt lat="39.6107670" lon="-0.3802220">
        <ele>79.8</ele>
        <time>2019-12-14T07:56:40Z</time>
      </trkpt>
      <trkpt lat="39.6108880" lon="-0.3802920">
        <ele>80.0</ele>
        <time>2019-12-14T07:56:43Z</time>
      </trkpt>
      <trkpt lat="39.6111860" lon="-0.3804400">
        <ele>81.0</ele>
        <time>2019-12-14T07:56:51Z</time>
      </trkpt>
      <trkpt lat="39.6114030" lon="-0.3803770">
        <ele>82.2</ele>
        <time>2019-12-14T07:56:58Z</time>
      </trkpt>
      <trkpt lat="39.6115430" lon="-0.3804250">
        <ele>83.2</ele>
        <time>2019-12-14T07:57:03Z</time>
      </trkpt>
      <trkpt lat="39.6119710" lon="-0.3807270">
        <ele>84.2</ele>
        <time>2019-12-14T07:57:16Z</time>
      </trkpt>
      <trkpt lat="39.6122440" lon="-0.3808570">
        <ele>84.6</ele>
        <time>2019-12-14T07:57:23Z</time>
      </trkpt>
      <trkpt lat="39.6124070" lon="-0.3808920">
        <ele>84.6</ele>
        <time>2019-12-14T07:57:27Z</time>
      </trkpt>
      <trkpt lat="39.6126080" lon="-0.3808300">
        <ele>84.8</ele>
        <time>2019-12-14T07:57:32Z</time>
      </trkpt>
      <trkpt lat="39.6128220" lon="-0.3806780">
        <ele>85.2</ele>
        <time>2019-12-14T07:57:38Z</time>
      </trkpt>
      <trkpt lat="39.6130480" lon="-0.3806430">
        <ele>86.6</ele>
        <time>2019-12-14T07:57:44Z</time>
      </trkpt>
      <trkpt lat="39.6130820" lon="-0.3806670">
        <ele>86.8</ele>
        <time>2019-12-14T07:57:45Z</time>
      </trkpt>
      <trkpt lat="39.6131430" lon="-0.3808740">
        <ele>87.2</ele>
        <time>2019-12-14T07:57:49Z</time>
      </trkpt>
      <trkpt lat="39.6131880" lon="-0.3809600">
        <ele>87.2</ele>
        <time>2019-12-14T07:57:53Z</time>
      </trkpt>
      <trkpt lat="39.6132130" lon="-0.3810110">
        <ele>87.0</ele>
        <time>2019-12-14T07:57:56Z</time>
      </trkpt>
      <trkpt lat="39.6132580" lon="-0.3810380">
        <ele>86.0</ele>
        <time>2019-12-14T07:58:00Z</time>
      </trkpt>
      <trkpt lat="39.6133370" lon="-0.3810510">
        <ele>85.8</ele>
        <time>2019-12-14T07:58:10Z</time>
      </trkpt>
      <trkpt lat="39.6138500" lon="-0.3812830">
        <ele>86.6</ele>
        <time>2019-12-14T07:58:27Z</time>
      </trkpt>
      <trkpt lat="39.6142100" lon="-0.3813040">
        <ele>87.8</ele>
        <time>2019-12-14T07:58:39Z</time>
      </trkpt>
      <trkpt lat="39.6144560" lon="-0.3814090">
        <ele>88.8</ele>
        <time>2019-12-14T07:58:47Z</time>
      </trkpt>
      <trkpt lat="39.6146630" lon="-0.3818930">
        <ele>89.2</ele>
        <time>2019-12-14T07:58:59Z</time>
      </trkpt>
      <trkpt lat="39.6148110" lon="-0.3819060">
        <ele>89.4</ele>
        <time>2019-12-14T07:59:04Z</time>
      </trkpt>
      <trkpt lat="39.6148860" lon="-0.3818860">
        <ele>89.8</ele>
        <time>2019-12-14T07:59:07Z</time>
      </trkpt>
      <trkpt lat="39.6150010" lon="-0.3818610">
        <ele>91.0</ele>
        <time>2019-12-14T07:59:11Z</time>
      </trkpt>
      <trkpt lat="39.6150620" lon="-0.3818500">
        <ele>92.0</ele>
        <time>2019-12-14T07:59:13Z</time>
      </trkpt>
      <trkpt lat="39.6152300" lon="-0.3818190">
        <ele>93.2</ele>
        <time>2019-12-14T07:59:18Z</time>
      </trkpt>
      <trkpt lat="39.6153750" lon="-0.3818430">
        <ele>94.2</ele>
        <time>2019-12-14T07:59:22Z</time>
      </trkpt>
      <trkpt lat="39.6154240" lon="-0.3820330">
        <ele>94.8</ele>
        <time>2019-12-14T07:59:26Z</time>
      </trkpt>
      <trkpt lat="39.6154810" lon="-0.3827640">
        <ele>95.0</ele>
        <time>2019-12-14T07:59:39Z</time>
      </trkpt>
      <trkpt lat="39.6155630" lon="-0.3834680">
        <ele>95.2</ele>
        <time>2019-12-14T07:59:51Z</time>
      </trkpt>
      <trkpt lat="39.6156710" lon="-0.3841880">
        <ele>95.4</ele>
        <time>2019-12-14T08:00:03Z</time>
      </trkpt>
      <trkpt lat="39.6157970" lon="-0.3848980">
        <ele>94.8</ele>
        <time>2019-12-14T08:00:15Z</time>
      </trkpt>
      <trkpt lat="39.6158170" lon="-0.3849310">
        <ele>94.8</ele>
        <time>2019-12-14T08:00:16Z</time>
      </trkpt>
      <trkpt lat="39.6163710" lon="-0.3850120">
        <ele>95.4</ele>
        <time>2019-12-14T08:00:32Z</time>
      </trkpt>
      <trkpt lat="39.6165540" lon="-0.3850570">
        <ele>96.8</ele>
        <time>2019-12-14T08:00:38Z</time>
      </trkpt>
      <trkpt lat="39.6166690" lon="-0.3851540">
        <ele>98.0</ele>
        <time>2019-12-14T08:00:42Z</time>
      </trkpt>
      <trkpt lat="39.6169600" lon="-0.3853730">
        <ele>99.0</ele>
        <time>2019-12-14T08:00:52Z</time>
      </trkpt>
      <trkpt lat="39.6171870" lon="-0.3854090">
        <ele>100.0</ele>
        <time>2019-12-14T08:01:00Z</time>
      </trkpt>
      <trkpt lat="39.6173190" lon="-0.3853780">
        <ele>101.0</ele>
        <time>2019-12-14T08:01:05Z</time>
      </trkpt>
      <trkpt lat="39.6173510" lon="-0.3853340">
        <ele>101.4</ele>
        <time>2019-12-14T08:01:07Z</time>
      </trkpt>
      <trkpt lat="39.6173770" lon="-0.3852030">
        <ele>102.4</ele>
        <time>2019-12-14T08:01:12Z</time>
      </trkpt>
      <trkpt lat="39.6173630" lon="-0.3850920">
        <ele>103.8</ele>
        <time>2019-12-14T08:01:16Z</time>
      </trkpt>
      <trkpt lat="39.6173730" lon="-0.3849780">
        <ele>104.8</ele>
        <time>2019-12-14T08:01:20Z</time>
      </trkpt>
      <trkpt lat="39.6173650" lon="-0.3848370">
        <ele>106.0</ele>
        <time>2019-12-14T08:01:25Z</time>
      </trkpt>
      <trkpt lat="39.6173690" lon="-0.3846980">
        <ele>107.2</ele>
        <time>2019-12-14T08:01:30Z</time>
      </trkpt>
      <trkpt lat="39.6174080" lon="-0.3846390">
        <ele>107.6</ele>
        <time>2019-12-14T08:01:33Z</time>
      </trkpt>
      <trkpt lat="39.6174530" lon="-0.3846290">
        <ele>108.0</ele>
        <time>2019-12-14T08:01:35Z</time>
      </trkpt>
      <trkpt lat="39.6175170" lon="-0.3846060">
        <ele>108.8</ele>
        <time>2019-12-14T08:01:38Z</time>
      </trkpt>
      <trkpt lat="39.6175440" lon="-0.3845670">
        <ele>109.2</ele>
        <time>2019-12-14T08:01:40Z</time>
      </trkpt>
      <trkpt lat="39.6176210" lon="-0.3844610">
        <ele>109.8</ele>
        <time>2019-12-14T08:01:46Z</time>
      </trkpt>
      <trkpt lat="39.6176290" lon="-0.3844400">
        <ele>110.0</ele>
        <time>2019-12-14T08:01:47Z</time>
      </trkpt>
      <trkpt lat="39.6176310" lon="-0.3844140">
        <ele>110.2</ele>
        <time>2019-12-14T08:01:48Z</time>
      </trkpt>
      <trkpt lat="39.6176380" lon="-0.3842870">
        <ele>111.4</ele>
        <time>2019-12-14T08:01:53Z</time>
      </trkpt>
      <trkpt lat="39.6176790" lon="-0.3842100">
        <ele>112.4</ele>
        <time>2019-12-14T08:01:57Z</time>
      </trkpt>
      <trkpt lat="39.6177290" lon="-0.3841500">
        <ele>113.6</ele>
        <time>2019-12-14T08:02:01Z</time>
      </trkpt>
      <trkpt lat="39.6177640" lon="-0.3840690">
        <ele>114.8</ele>
        <time>2019-12-14T08:02:05Z</time>
      </trkpt>
      <trkpt lat="39.6177880" lon="-0.3840150">
        <ele>116.0</ele>
        <time>2019-12-14T08:02:08Z</time>
      </trkpt>
      <trkpt lat="39.6178210" lon="-0.3839750">
        <ele>117.0</ele>
        <time>2019-12-14T08:02:11Z</time>
      </trkpt>
      <trkpt lat="39.6178730" lon="-0.3839150">
        <ele>118.0</ele>
        <time>2019-12-14T08:02:15Z</time>
      </trkpt>
      <trkpt lat="39.6179010" lon="-0.3838410">
        <ele>119.2</ele>
        <time>2019-12-14T08:02:19Z</time>
      </trkpt>
      <trkpt lat="39.6179230" lon="-0.3837820">
        <ele>120.2</ele>
        <time>2019-12-14T08:02:22Z</time>
      </trkpt>
      <trkpt lat="39.6179650" lon="-0.3836960">
        <ele>121.4</ele>
        <time>2019-12-14T08:02:27Z</time>
      </trkpt>
      <trkpt lat="39.6180140" lon="-0.3836280">
        <ele>122.8</ele>
        <time>2019-12-14T08:02:31Z</time>
      </trkpt>
      <trkpt lat="39.6180540" lon="-0.3835750">
        <ele>124.0</ele>
        <time>2019-12-14T08:02:34Z</time>
      </trkpt>
      <trkpt lat="39.6180890" lon="-0.3835120">
        <ele>125.0</ele>
        <time>2019-12-14T08:02:37Z</time>
      </trkpt>
      <trkpt lat="39.6181390" lon="-0.3834310">
        <ele>126.2</ele>
        <time>2019-12-14T08:02:41Z</time>
      </trkpt>
      <trkpt lat="39.6181950" lon="-0.3833050">
        <ele>127.4</ele>
        <time>2019-12-14T08:02:46Z</time>
      </trkpt>
      <trkpt lat="39.6182790" lon="-0.3832120">
        <ele>128.4</ele>
        <time>2019-12-14T08:02:51Z</time>
      </trkpt>
      <trkpt lat="39.6183370" lon="-0.3830840">
        <ele>129.6</ele>
        <time>2019-12-14T08:02:56Z</time>
      </trkpt>
      <trkpt lat="39.6183840" lon="-0.3830220">
        <ele>130.2</ele>
        <time>2019-12-14T08:02:59Z</time>
      </trkpt>
      <trkpt lat="39.6184220" lon="-0.3830070">
        <ele>130.6</ele>
        <time>2019-12-14T08:03:01Z</time>
      </trkpt>
      <trkpt lat="39.6185390" lon="-0.3829410">
        <ele>131.8</ele>
        <time>2019-12-14T08:03:07Z</time>
      </trkpt>
      <trkpt lat="39.6186030" lon="-0.3828770">
        <ele>133.0</ele>
        <time>2019-12-14T08:03:11Z</time>
      </trkpt>
      <trkpt lat="39.6186950" lon="-0.3827910">
        <ele>133.6</ele>
        <time>2019-12-14T08:03:16Z</time>
      </trkpt>
      <trkpt lat="39.6187720" lon="-0.3827660">
        <ele>134.0</ele>
        <time>2019-12-14T08:03:19Z</time>
      </trkpt>
      <trkpt lat="39.6187930" lon="-0.3827600">
        <ele>134.0</ele>
        <time>2019-12-14T08:03:20Z</time>
      </trkpt>
      <trkpt lat="39.6188270" lon="-0.3827410">
        <ele>134.0</ele>
        <time>2019-12-14T08:03:23Z</time>
      </trkpt>
      <trkpt lat="39.6188480" lon="-0.3826910">
        <ele>133.6</ele>
        <time>2019-12-14T08:05:45Z</time>
      </trkpt>
      <trkpt lat="39.6189630" lon="-0.3825330">
        <ele>133.4</ele>
        <time>2019-12-14T08:05:52Z</time>
      </trkpt>
      <trkpt lat="39.6190960" lon="-0.3825760">
        <ele>132.6</ele>
        <time>2019-12-14T08:05:56Z</time>
      </trkpt>
      <trkpt lat="39.6191670" lon="-0.3826100">
        <ele>131.8</ele>
        <time>2019-12-14T08:05:58Z</time>
      </trkpt>
      <trkpt lat="39.6192070" lon="-0.3826320">
        <ele>131.4</ele>
        <time>2019-12-14T08:05:59Z</time>
      </trkpt>
      <trkpt lat="39.6194080" lon="-0.3827270">
        <ele>130.4</ele>
        <time>2019-12-14T08:06:04Z</time>
      </trkpt>
      <trkpt lat="39.6199530" lon="-0.3827610">
        <ele>130.4</ele>
        <time>2019-12-14T08:06:21Z</time>
      </trkpt>
      <trkpt lat="39.6199610" lon="-0.3827190">
        <ele>130.4</ele>
        <time>2019-12-14T08:06:22Z</time>
      </trkpt>
      <trkpt lat="39.6198570" lon="-0.3823690">
        <ele>129.6</ele>
        <time>2019-12-14T08:06:28Z</time>
      </trkpt>
      <trkpt lat="39.6198390" lon="-0.3823080">
        <ele>129.4</ele>
        <time>2019-12-14T08:06:29Z</time>
      </trkpt>
      <trkpt lat="39.6197660" lon="-0.3820200">
        <ele>127.6</ele>
        <time>2019-12-14T08:06:33Z</time>
      </trkpt>
      <trkpt lat="39.6197310" lon="-0.3819300">
        <ele>126.4</ele>
        <time>2019-12-14T08:06:35Z</time>
      </trkpt>
      <trkpt lat="39.6197040" lon="-0.3818740">
        <ele>125.2</ele>
        <time>2019-12-14T08:06:37Z</time>
      </trkpt>
      <trkpt lat="39.6196980" lon="-0.3818640">
        <ele>124.2</ele>
        <time>2019-12-14T08:06:39Z</time>
      </trkpt>
      <trkpt lat="39.6197690" lon="-0.3820580">
        <ele>121.8</ele>
        <time>2019-12-14T08:07:25Z</time>
      </trkpt>
      <trkpt lat="39.6198320" lon="-0.3823100">
        <ele>122.8</ele>
        <time>2019-12-14T08:07:34Z</time>
      </trkpt>
      <trkpt lat="39.6198840" lon="-0.3824700">
        <ele>124.0</ele>
        <time>2019-12-14T08:07:39Z</time>
      </trkpt>
      <trkpt lat="39.6199320" lon="-0.3826140">
        <ele>125.2</ele>
        <time>2019-12-14T08:07:44Z</time>
      </trkpt>
      <trkpt lat="39.6199620" lon="-0.3827220">
        <ele>126.4</ele>
        <time>2019-12-14T08:07:49Z</time>
      </trkpt>
      <trkpt lat="39.6199610" lon="-0.3827370">
        <ele>126.8</ele>
        <time>2019-12-14T08:07:50Z</time>
      </trkpt>
      <trkpt lat="39.6199260" lon="-0.3827810">
        <ele>127.6</ele>
        <time>2019-12-14T08:07:54Z</time>
      </trkpt>
      <trkpt lat="39.6198580" lon="-0.3828320">
        <ele>129.0</ele>
        <time>2019-12-14T08:07:58Z</time>
      </trkpt>
      <trkpt lat="39.6199620" lon="-0.3827430">
        <ele>129.8</ele>
        <time>2019-12-14T08:08:07Z</time>
      </trkpt>
      <trkpt lat="39.6200480" lon="-0.3827440">
        <ele>129.8</ele>
        <time>2019-12-14T08:08:10Z</time>
      </trkpt>
      <trkpt lat="39.6203750" lon="-0.3829370">
        <ele>130.0</ele>
        <time>2019-12-14T08:08:26Z</time>
      </trkpt>
      <trkpt lat="39.6205580" lon="-0.3829570">
        <ele>131.0</ele>
        <time>2019-12-14T08:08:32Z</time>
      </trkpt>
      <trkpt lat="39.6210760" lon="-0.3831480">
        <ele>131.6</ele>
        <time>2019-12-14T08:08:46Z</time>
      </trkpt>
      <trkpt lat="39.6211220" lon="-0.3831700">
        <ele>131.6</ele>
        <time>2019-12-14T08:08:47Z</time>
      </trkpt>
      <trkpt lat="39.6212670" lon="-0.3832190">
        <ele>131.6</ele>
        <time>2019-12-14T08:08:51Z</time>
      </trkpt>
      <trkpt lat="39.6214210" lon="-0.3832780">
        <ele>130.0</ele>
        <time>2019-12-14T08:08:57Z</time>
      </trkpt>
      <trkpt lat="39.6217940" lon="-0.3833830">
        <ele>131.2</ele>
        <time>2019-12-14T08:09:18Z</time>
      </trkpt>
      <trkpt lat="39.6219520" lon="-0.3834450">
        <ele>132.2</ele>
        <time>2019-12-14T08:09:25Z</time>
      </trkpt>
      <trkpt lat="39.6220740" lon="-0.3834650">
        <ele>133.4</ele>
        <time>2019-12-14T08:09:30Z</time>
      </trkpt>
      <trkpt lat="39.6222570" lon="-0.3834560">
        <ele>134.4</ele>
        <time>2019-12-14T08:09:37Z</time>
      </trkpt>
      <trkpt lat="39.6223620" lon="-0.3834220">
        <ele>135.4</ele>
        <time>2019-12-14T08:09:41Z</time>
      </trkpt>
      <trkpt lat="39.6225490" lon="-0.3833450">
        <ele>136.6</ele>
        <time>2019-12-14T08:09:48Z</time>
      </trkpt>
      <trkpt lat="39.6226550" lon="-0.3832180">
        <ele>137.4</ele>
        <time>2019-12-14T08:09:53Z</time>
      </trkpt>
      <trkpt lat="39.6226410" lon="-0.3829830">
        <ele>137.6</ele>
        <time>2019-12-14T08:09:57Z</time>
      </trkpt>
      <trkpt lat="39.6226180" lon="-0.3826900">
        <ele>137.6</ele>
        <time>2019-12-14T08:10:01Z</time>
      </trkpt>
      <trkpt lat="39.6226110" lon="-0.3825410">
        <ele>137.4</ele>
        <time>2019-12-14T08:10:03Z</time>
      </trkpt>
      <trkpt lat="39.6226120" lon="-0.3823020">
        <ele>135.4</ele>
        <time>2019-12-14T08:10:07Z</time>
      </trkpt>
      <trkpt lat="39.6226300" lon="-0.3821880">
        <ele>134.0</ele>
        <time>2019-12-14T08:10:09Z</time>
      </trkpt>
      <trkpt lat="39.6226590" lon="-0.3820920">
        <ele>132.4</ele>
        <time>2019-12-14T08:10:11Z</time>
      </trkpt>
      <trkpt lat="39.6226850" lon="-0.3820650">
        <ele>132.0</ele>
        <time>2019-12-14T08:10:12Z</time>
      </trkpt>
      <trkpt lat="39.6227490" lon="-0.3820520">
        <ele>131.2</ele>
        <time>2019-12-14T08:10:14Z</time>
      </trkpt>
      <trkpt lat="39.6227980" lon="-0.3820740">
        <ele>131.0</ele>
        <time>2019-12-14T08:10:16Z</time>
      </trkpt>
      <trkpt lat="39.6231220" lon="-0.3820320">
        <ele>132.4</ele>
        <time>2019-12-14T08:10:29Z</time>
      </trkpt>
      <trkpt lat="39.6231970" lon="-0.3820080">
        <ele>133.6</ele>
        <time>2019-12-14T08:10:32Z</time>
      </trkpt>
      <trkpt lat="39.6233240" lon="-0.3819790">
        <ele>134.6</ele>
        <time>2019-12-14T08:10:37Z</time>
      </trkpt>
      <trkpt lat="39.6235000" lon="-0.3819430">
        <ele>135.8</ele>
        <time>2019-12-14T08:10:44Z</time>
      </trkpt>
      <trkpt lat="39.6235950" lon="-0.3819260">
        <ele>136.8</ele>
        <time>2019-12-14T08:10:48Z</time>
      </trkpt>
      <trkpt lat="39.6236860" lon="-0.3819060">
        <ele>138.0</ele>
        <time>2019-12-14T08:10:52Z</time>
      </trkpt>
      <trkpt lat="39.6237740" lon="-0.3818840">
        <ele>139.0</ele>
        <time>2019-12-14T08:10:56Z</time>
      </trkpt>
      <trkpt lat="39.6238440" lon="-0.3818670">
        <ele>140.2</ele>
        <time>2019-12-14T08:10:59Z</time>
      </trkpt>
      <trkpt lat="39.6239440" lon="-0.3818610">
        <ele>141.2</ele>
        <time>2019-12-14T08:11:03Z</time>
      </trkpt>
      <trkpt lat="39.6240900" lon="-0.3818400">
        <ele>142.4</ele>
        <time>2019-12-14T08:11:09Z</time>
      </trkpt>
      <trkpt lat="39.6242320" lon="-0.3818150">
        <ele>143.6</ele>
        <time>2019-12-14T08:11:15Z</time>
      </trkpt>
      <trkpt lat="39.6243940" lon="-0.3817690">
        <ele>144.8</ele>
        <time>2019-12-14T08:11:22Z</time>
      </trkpt>
      <trkpt lat="39.6244850" lon="-0.3817390">
        <ele>146.0</ele>
        <time>2019-12-14T08:11:26Z</time>
      </trkpt>
      <trkpt lat="39.6245740" lon="-0.3817080">
        <ele>147.2</ele>
        <time>2019-12-14T08:11:30Z</time>
      </trkpt>
      <trkpt lat="39.6247120" lon="-0.3816530">
        <ele>148.4</ele>
        <time>2019-12-14T08:11:36Z</time>
      </trkpt>
      <trkpt lat="39.6248030" lon="-0.3816280">
        <ele>149.6</ele>
        <time>2019-12-14T08:11:40Z</time>
      </trkpt>
      <trkpt lat="39.6249170" lon="-0.3816180">
        <ele>150.6</ele>
        <time>2019-12-14T08:11:45Z</time>
      </trkpt>
      <trkpt lat="39.6250270" lon="-0.3816290">
        <ele>151.6</ele>
        <time>2019-12-14T08:11:50Z</time>
      </trkpt>
      <trkpt lat="39.6251630" lon="-0.3816310">
        <ele>152.8</ele>
        <time>2019-12-14T08:11:56Z</time>
      </trkpt>
      <trkpt lat="39.6252310" lon="-0.3816340">
        <ele>154.0</ele>
        <time>2019-12-14T08:11:59Z</time>
      </trkpt>
      <trkpt lat="39.6253200" lon="-0.3816410">
        <ele>155.2</ele>
        <time>2019-12-14T08:12:03Z</time>
      </trkpt>
      <trkpt lat="39.6254090" lon="-0.3816400">
        <ele>156.4</ele>
        <time>2019-12-14T08:12:07Z</time>
      </trkpt>
      <trkpt lat="39.6255220" lon="-0.3816410">
        <ele>157.6</ele>
        <time>2019-12-14T08:12:12Z</time>
      </trkpt>
      <trkpt lat="39.6256110" lon="-0.3816200">
        <ele>159.0</ele>
        <time>2019-12-14T08:12:16Z</time>
      </trkpt>
      <trkpt lat="39.6256960" lon="-0.3816030">
        <ele>160.2</ele>
        <time>2019-12-14T08:12:20Z</time>
      </trkpt>
      <trkpt lat="39.6257800" lon="-0.3815900">
        <ele>161.2</ele>
        <time>2019-12-14T08:12:24Z</time>
      </trkpt>
      <trkpt lat="39.6258740" lon="-0.3815710">
        <ele>162.4</ele>
        <time>2019-12-14T08:12:29Z</time>
      </trkpt>
      <trkpt lat="39.6259290" lon="-0.3815710">
        <ele>163.6</ele>
        <time>2019-12-14T08:12:33Z</time>
      </trkpt>
      <trkpt lat="39.6259280" lon="-0.3816810">
        <ele>163.8</ele>
        <time>2019-12-14T08:12:39Z</time>
      </trkpt>
      <trkpt lat="39.6260370" lon="-0.3818710">
        <ele>163.6</ele>
        <time>2019-12-14T08:12:46Z</time>
      </trkpt>
      <trkpt lat="39.6260410" lon="-0.3819500">
        <ele>162.4</ele>
        <time>2019-12-14T08:12:50Z</time>
      </trkpt>
      <trkpt lat="39.6260540" lon="-0.3819850">
        <ele>161.4</ele>
        <time>2019-12-14T08:12:52Z</time>
      </trkpt>
      <trkpt lat="39.6260870" lon="-0.3820370">
        <ele>160.2</ele>
        <time>2019-12-14T08:12:55Z</time>
      </trkpt>
      <trkpt lat="39.6261560" lon="-0.3821160">
        <ele>159.8</ele>
        <time>2019-12-14T08:12:59Z</time>
      </trkpt>
      <trkpt lat="39.6261830" lon="-0.3821130">
        <ele>159.8</ele>
        <time>2019-12-14T08:13:01Z</time>
      </trkpt>
      <trkpt lat="39.6262700" lon="-0.3821640">
        <ele>159.2</ele>
        <time>2019-12-14T08:13:04Z</time>
      </trkpt>
      <trkpt lat="39.6262960" lon="-0.3822000">
        <ele>159.0</ele>
        <time>2019-12-14T08:13:05Z</time>
      </trkpt>
      <trkpt lat="39.6263600" lon="-0.3822640">
        <ele>158.2</ele>
        <time>2019-12-14T08:13:07Z</time>
      </trkpt>
      <trkpt lat="39.6264360" lon="-0.3823360">
        <ele>156.6</ele>
        <time>2019-12-14T08:13:09Z</time>
      </trkpt>
      <trkpt lat="39.6264950" lon="-0.3824780">
        <ele>155.2</ele>
        <time>2019-12-14T08:13:12Z</time>
      </trkpt>
      <trkpt lat="39.6264330" lon="-0.3827290">
        <ele>154.2</ele>
        <time>2019-12-14T08:13:17Z</time>
      </trkpt>
      <trkpt lat="39.6264430" lon="-0.3828720">
        <ele>152.8</ele>
        <time>2019-12-14T08:13:20Z</time>
      </trkpt>
      <trkpt lat="39.6264100" lon="-0.3829370">
        <ele>151.2</ele>
        <time>2019-12-14T08:13:22Z</time>
      </trkpt>
      <trkpt lat="39.6263760" lon="-0.3830500">
        <ele>150.0</ele>
        <time>2019-12-14T08:13:25Z</time>
      </trkpt>
      <trkpt lat="39.6263480" lon="-0.3831210">
        <ele>148.8</ele>
        <time>2019-12-14T08:13:27Z</time>
      </trkpt>
      <trkpt lat="39.6263280" lon="-0.3832090">
        <ele>148.2</ele>
        <time>2019-12-14T08:13:29Z</time>
      </trkpt>
      <trkpt lat="39.6263170" lon="-0.3832690">
        <ele>148.0</ele>
        <time>2019-12-14T08:13:30Z</time>
      </trkpt>
      <trkpt lat="39.6262930" lon="-0.3834180">
        <ele>147.8</ele>
        <time>2019-12-14T08:13:32Z</time>
      </trkpt>
      <trkpt lat="39.6262400" lon="-0.3836380">
        <ele>147.2</ele>
        <time>2019-12-14T08:13:35Z</time>
      </trkpt>
      <trkpt lat="39.6262080" lon="-0.3837530">
        <ele>146.4</ele>
        <time>2019-12-14T08:13:37Z</time>
      </trkpt>
      <trkpt lat="39.6261540" lon="-0.3838450">
        <ele>144.2</ele>
        <time>2019-12-14T08:13:39Z</time>
      </trkpt>
      <trkpt lat="39.6261170" lon="-0.3838920">
        <ele>143.8</ele>
        <time>2019-12-14T08:13:40Z</time>
      </trkpt>
      <trkpt lat="39.6260970" lon="-0.3839410">
        <ele>143.4</ele>
        <time>2019-12-14T08:13:41Z</time>
      </trkpt>
      <trkpt lat="39.6260630" lon="-0.3839930">
        <ele>142.6</ele>
        <time>2019-12-14T08:13:42Z</time>
      </trkpt>
      <trkpt lat="39.6259830" lon="-0.3840810">
        <ele>141.4</ele>
        <time>2019-12-14T08:13:44Z</time>
      </trkpt>
      <trkpt lat="39.6259360" lon="-0.3841210">
        <ele>140.8</ele>
        <time>2019-12-14T08:13:45Z</time>
      </trkpt>
      <trkpt lat="39.6258470" lon="-0.3842110">
        <ele>140.2</ele>
        <time>2019-12-14T08:13:47Z</time>
      </trkpt>
      <trkpt lat="39.6257750" lon="-0.3843900">
        <ele>138.8</ele>
        <time>2019-12-14T08:13:50Z</time>
      </trkpt>
      <trkpt lat="39.6258250" lon="-0.3844970">
        <ele>137.6</ele>
        <time>2019-12-14T08:13:52Z</time>
      </trkpt>
      <trkpt lat="39.6258640" lon="-0.3845890">
        <ele>137.0</ele>
        <time>2019-12-14T08:13:54Z</time>
      </trkpt>
      <trkpt lat="39.6258780" lon="-0.3846480">
        <ele>137.0</ele>
        <time>2019-12-14T08:13:55Z</time>
      </trkpt>
      <trkpt lat="39.6258860" lon="-0.3847540">
        <ele>136.6</ele>
        <time>2019-12-14T08:13:57Z</time>
      </trkpt>
      <trkpt lat="39.6258710" lon="-0.3848770">
        <ele>135.4</ele>
        <time>2019-12-14T08:14:00Z</time>
      </trkpt>
      <trkpt lat="39.6258680" lon="-0.3849190">
        <ele>134.2</ele>
        <time>2019-12-14T08:14:02Z</time>
      </trkpt>
      <trkpt lat="39.6258520" lon="-0.3849790">
        <ele>133.0</ele>
        <time>2019-12-14T08:14:04Z</time>
      </trkpt>
      <trkpt lat="39.6258490" lon="-0.3850440">
        <ele>131.6</ele>
        <time>2019-12-14T08:14:06Z</time>
      </trkpt>
      <trkpt lat="39.6258530" lon="-0.3851820">
        <ele>130.8</ele>
        <time>2019-12-14T08:14:09Z</time>
      </trkpt>
      <trkpt lat="39.6259250" lon="-0.3852700">
        <ele>130.4</ele>
        <time>2019-12-14T08:14:12Z</time>
      </trkpt>
      <trkpt lat="39.6259680" lon="-0.3853130">
        <ele>129.4</ele>
        <time>2019-12-14T08:14:15Z</time>
      </trkpt>
      <trkpt lat="39.6259490" lon="-0.3853170">
        <ele>128.4</ele>
        <time>2019-12-14T08:14:17Z</time>
      </trkpt>
      <trkpt lat="39.6259370" lon="-0.3852990">
        <ele>128.0</ele>
        <time>2019-12-14T08:14:18Z</time>
      </trkpt>
      <trkpt lat="39.6258490" lon="-0.3851790">
        <ele>127.6</ele>
        <time>2019-12-14T08:14:23Z</time>
      </trkpt>
      <trkpt lat="39.6258380" lon="-0.3851720">
        <ele>127.4</ele>
        <time>2019-12-14T08:14:24Z</time>
      </trkpt>
      <trkpt lat="39.6258150" lon="-0.3853200">
        <ele>127.4</ele>
        <time>2019-12-14T08:14:29Z</time>
      </trkpt>
      <trkpt lat="39.6258150" lon="-0.3853710">
        <ele>127.4</ele>
        <time>2019-12-14T08:14:30Z</time>
      </trkpt>
      <trkpt lat="39.6258090" lon="-0.3855320">
        <ele>127.4</ele>
        <time>2019-12-14T08:14:33Z</time>
      </trkpt>
      <trkpt lat="39.6257290" lon="-0.3858230">
        <ele>126.8</ele>
        <time>2019-12-14T08:14:38Z</time>
      </trkpt>
      <trkpt lat="39.6255290" lon="-0.3859700">
        <ele>126.0</ele>
        <time>2019-12-14T08:14:42Z</time>
      </trkpt>
      <trkpt lat="39.6254780" lon="-0.3860040">
        <ele>125.6</ele>
        <time>2019-12-14T08:14:43Z</time>
      </trkpt>
      <trkpt lat="39.6253690" lon="-0.3860670">
        <ele>124.6</ele>
        <time>2019-12-14T08:14:45Z</time>
      </trkpt>
      <trkpt lat="39.6253130" lon="-0.3860870">
        <ele>123.8</ele>
        <time>2019-12-14T08:14:46Z</time>
      </trkpt>
      <trkpt lat="39.6252510" lon="-0.3860920">
        <ele>123.2</ele>
        <time>2019-12-14T08:14:47Z</time>
      </trkpt>
      <trkpt lat="39.6250680" lon="-0.3860810">
        <ele>122.6</ele>
        <time>2019-12-14T08:14:50Z</time>
      </trkpt>
      <trkpt lat="39.6250110" lon="-0.3860780">
        <ele>122.2</ele>
        <time>2019-12-14T08:14:51Z</time>
      </trkpt>
      <trkpt lat="39.6248550" lon="-0.3861230">
        <ele>121.4</ele>
        <time>2019-12-14T08:14:54Z</time>
      </trkpt>
      <trkpt lat="39.6248020" lon="-0.3861480">
        <ele>121.0</ele>
        <time>2019-12-14T08:14:55Z</time>
      </trkpt>
      <trkpt lat="39.6246850" lon="-0.3861800">
        <ele>120.6</ele>
        <time>2019-12-14T08:14:57Z</time>
      </trkpt>
      <trkpt lat="39.6243720" lon="-0.3862300">
        <ele>120.2</ele>
        <time>2019-12-14T08:15:02Z</time>
      </trkpt>
      <trkpt lat="39.6243100" lon="-0.3862490">
        <ele>120.0</ele>
        <time>2019-12-14T08:15:03Z</time>
      </trkpt>
      <trkpt lat="39.6239970" lon="-0.3863540">
        <ele>119.0</ele>
        <time>2019-12-14T08:15:08Z</time>
      </trkpt>
      <trkpt lat="39.6238720" lon="-0.3864040">
        <ele>118.6</ele>
        <time>2019-12-14T08:15:10Z</time>
      </trkpt>
      <trkpt lat="39.6235380" lon="-0.3866340">
        <ele>118.2</ele>
        <time>2019-12-14T08:15:16Z</time>
      </trkpt>
      <trkpt lat="39.6233390" lon="-0.3868400">
        <ele>118.2</ele>
        <time>2019-12-14T08:15:20Z</time>
      </trkpt>
      <trkpt lat="39.6233030" lon="-0.3869750">
        <ele>117.8</ele>
        <time>2019-12-14T08:15:22Z</time>
      </trkpt>
      <trkpt lat="39.6233220" lon="-0.3872960">
        <ele>116.8</ele>
        <time>2019-12-14T08:15:26Z</time>
      </trkpt>
      <trkpt lat="39.6233850" lon="-0.3874030">
        <ele>116.4</ele>
        <time>2019-12-14T08:15:29Z</time>
      </trkpt>
      <trkpt lat="39.6236900" lon="-0.3878940">
        <ele>117.8</ele>
        <time>2019-12-14T08:15:45Z</time>
      </trkpt>
      <trkpt lat="39.6237150" lon="-0.3879090">
        <ele>118.0</ele>
        <time>2019-12-14T08:15:46Z</time>
      </trkpt>
      <trkpt lat="39.6238620" lon="-0.3878080">
        <ele>119.0</ele>
        <time>2019-12-14T08:15:51Z</time>
      </trkpt>
      <trkpt lat="39.6243300" lon="-0.3874230">
        <ele>119.8</ele>
        <time>2019-12-14T08:16:05Z</time>
      </trkpt>
      <trkpt lat="39.6244810" lon="-0.3873140">
        <ele>119.8</ele>
        <time>2019-12-14T08:16:09Z</time>
      </trkpt>
      <trkpt lat="39.6250380" lon="-0.3871680">
        <ele>119.8</ele>
        <time>2019-12-14T08:16:22Z</time>
      </trkpt>
      <trkpt lat="39.6255790" lon="-0.3870510">
        <ele>119.8</ele>
        <time>2019-12-14T08:16:34Z</time>
      </trkpt>
      <trkpt lat="39.6259100" lon="-0.3869810">
        <ele>120.0</ele>
        <time>2019-12-14T08:16:41Z</time>
      </trkpt>
      <trkpt lat="39.6264570" lon="-0.3868500">
        <ele>120.8</ele>
        <time>2019-12-14T08:16:53Z</time>
      </trkpt>
      <trkpt lat="39.6266270" lon="-0.3867880">
        <ele>121.4</ele>
        <time>2019-12-14T08:16:57Z</time>
      </trkpt>
      <trkpt lat="39.6268630" lon="-0.3866320">
        <ele>122.0</ele>
        <time>2019-12-14T08:17:03Z</time>
      </trkpt>
      <trkpt lat="39.6270090" lon="-0.3864970">
        <ele>122.4</ele>
        <time>2019-12-14T08:17:07Z</time>
      </trkpt>
      <trkpt lat="39.6272250" lon="-0.3863760">
        <ele>122.8</ele>
        <time>2019-12-14T08:17:13Z</time>
      </trkpt>
      <trkpt lat="39.6273680" lon="-0.3866570">
        <ele>123.4</ele>
        <time>2019-12-14T08:17:21Z</time>
      </trkpt>
      <trkpt lat="39.6274640" lon="-0.3867200">
        <ele>124.4</ele>
        <time>2019-12-14T08:17:25Z</time>
      </trkpt>
      <trkpt lat="39.6275830" lon="-0.3867100">
        <ele>125.8</ele>
        <time>2019-12-14T08:17:29Z</time>
      </trkpt>
      <trkpt lat="39.6277110" lon="-0.3867380">
        <ele>127.0</ele>
        <time>2019-12-14T08:17:33Z</time>
      </trkpt>
      <trkpt lat="39.6278890" lon="-0.3868090">
        <ele>128.2</ele>
        <time>2019-12-14T08:17:39Z</time>
      </trkpt>
      <trkpt lat="39.6280450" lon="-0.3868960">
        <ele>129.2</ele>
        <time>2019-12-14T08:17:45Z</time>
      </trkpt>
      <trkpt lat="39.6281430" lon="-0.3869610">
        <ele>130.2</ele>
        <time>2019-12-14T08:17:49Z</time>
      </trkpt>
      <trkpt lat="39.6282630" lon="-0.3870430">
        <ele>131.6</ele>
        <time>2019-12-14T08:17:54Z</time>
      </trkpt>
      <trkpt lat="39.6283360" lon="-0.3870670">
        <ele>132.6</ele>
        <time>2019-12-14T08:17:57Z</time>
      </trkpt>
      <trkpt lat="39.6284690" lon="-0.3870100">
        <ele>134.0</ele>
        <time>2019-12-14T08:18:02Z</time>
      </trkpt>
      <trkpt lat="39.6286070" lon="-0.3869270">
        <ele>135.0</ele>
        <time>2019-12-14T08:18:07Z</time>
      </trkpt>
      <trkpt lat="39.6287440" lon="-0.3868420">
        <ele>136.0</ele>
        <time>2019-12-14T08:18:12Z</time>
      </trkpt>
      <trkpt lat="39.6288940" lon="-0.3867580">
        <ele>137.2</ele>
        <time>2019-12-14T08:18:17Z</time>
      </trkpt>
      <trkpt lat="39.6291350" lon="-0.3866290">
        <ele>138.2</ele>
        <time>2019-12-14T08:18:25Z</time>
      </trkpt>
      <trkpt lat="39.6293080" lon="-0.3865520">
        <ele>139.2</ele>
        <time>2019-12-14T08:18:30Z</time>
      </trkpt>
      <trkpt lat="39.6296300" lon="-0.3865270">
        <ele>140.0</ele>
        <time>2019-12-14T08:18:38Z</time>
      </trkpt>
      <trkpt lat="39.6300480" lon="-0.3868060">
        <ele>140.4</ele>
        <time>2019-12-14T08:18:49Z</time>
      </trkpt>
      <trkpt lat="39.6300920" lon="-0.3868260">
        <ele>140.4</ele>
        <time>2019-12-14T08:18:50Z</time>
      </trkpt>
      <trkpt lat="39.6306140" lon="-0.3870670">
        <ele>140.8</ele>
        <time>2019-12-14T08:19:02Z</time>
      </trkpt>
      <trkpt lat="39.6308660" lon="-0.3874980">
        <ele>141.4</ele>
        <time>2019-12-14T08:19:14Z</time>
      </trkpt>
      <trkpt lat="39.6310350" lon="-0.3877580">
        <ele>142.4</ele>
        <time>2019-12-14T08:19:21Z</time>
      </trkpt>
      <trkpt lat="39.6311760" lon="-0.3880680">
        <ele>143.4</ele>
        <time>2019-12-14T08:19:29Z</time>
      </trkpt>
      <trkpt lat="39.6312050" lon="-0.3880810">
        <ele>143.6</ele>
        <time>2019-12-14T08:19:30Z</time>
      </trkpt>
      <trkpt lat="39.6313350" lon="-0.3880210">
        <ele>144.4</ele>
        <time>2019-12-14T08:19:34Z</time>
      </trkpt>
      <trkpt lat="39.6313680" lon="-0.3879930">
        <ele>144.6</ele>
        <time>2019-12-14T08:19:35Z</time>
      </trkpt>
      <trkpt lat="39.6315570" lon="-0.3878410">
        <ele>145.0</ele>
        <time>2019-12-14T08:19:40Z</time>
      </trkpt>
      <trkpt lat="39.6321140" lon="-0.3876110">
        <ele>144.8</ele>
        <time>2019-12-14T08:19:48Z</time>
      </trkpt>
      <trkpt lat="39.6323550" lon="-0.3875150">
        <ele>142.6</ele>
        <time>2019-12-14T08:19:51Z</time>
      </trkpt>
      <trkpt lat="39.6325110" lon="-0.3874460">
        <ele>141.0</ele>
        <time>2019-12-14T08:19:53Z</time>
      </trkpt>
      <trkpt lat="39.6326580" lon="-0.3873870">
        <ele>139.8</ele>
        <time>2019-12-14T08:19:55Z</time>
      </trkpt>
      <trkpt lat="39.6328650" lon="-0.3873020">
        <ele>138.6</ele>
        <time>2019-12-14T08:19:58Z</time>
      </trkpt>
      <trkpt lat="39.6332260" lon="-0.3871380">
        <ele>137.4</ele>
        <time>2019-12-14T08:20:04Z</time>
      </trkpt>
      <trkpt lat="39.6333870" lon="-0.3870690">
        <ele>137.4</ele>
        <time>2019-12-14T08:20:07Z</time>
      </trkpt>
      <trkpt lat="39.6338010" lon="-0.3871480">
        <ele>137.2</ele>
        <time>2019-12-14T08:20:15Z</time>
      </trkpt>
      <trkpt lat="39.6342560" lon="-0.3875350">
        <ele>138.0</ele>
        <time>2019-12-14T08:20:26Z</time>
      </trkpt>
      <trkpt lat="39.6343710" lon="-0.3876410">
        <ele>138.6</ele>
        <time>2019-12-14T08:20:29Z</time>
      </trkpt>
      <trkpt lat="39.6346030" lon="-0.3878920">
        <ele>139.6</ele>
        <time>2019-12-14T08:20:36Z</time>
      </trkpt>
      <trkpt lat="39.6347580" lon="-0.3880820">
        <ele>140.8</ele>
        <time>2019-12-14T08:20:41Z</time>
      </trkpt>
      <trkpt lat="39.6349190" lon="-0.3883170">
        <ele>141.8</ele>
        <time>2019-12-14T08:20:47Z</time>
      </trkpt>
      <trkpt lat="39.6350620" lon="-0.3886020">
        <ele>143.0</ele>
        <time>2019-12-14T08:20:54Z</time>
      </trkpt>
      <trkpt lat="39.6351570" lon="-0.3887020">
        <ele>143.8</ele>
        <time>2019-12-14T08:20:57Z</time>
      </trkpt>
      <trkpt lat="39.6351950" lon="-0.3887290">
        <ele>144.2</ele>
        <time>2019-12-14T08:20:58Z</time>
      </trkpt>
      <trkpt lat="39.6355880" lon="-0.3890150">
        <ele>145.0</ele>
        <time>2019-12-14T08:21:07Z</time>
      </trkpt>
      <trkpt lat="39.6359380" lon="-0.3894130">
        <ele>144.8</ele>
        <time>2019-12-14T08:21:15Z</time>
      </trkpt>
      <trkpt lat="39.6361010" lon="-0.3896360">
        <ele>144.2</ele>
        <time>2019-12-14T08:21:19Z</time>
      </trkpt>
      <trkpt lat="39.6363790" lon="-0.3898670">
        <ele>143.6</ele>
        <time>2019-12-14T08:21:26Z</time>
      </trkpt>
      <trkpt lat="39.6365370" lon="-0.3899350">
        <ele>143.6</ele>
        <time>2019-12-14T08:21:30Z</time>
      </trkpt>
      <trkpt lat="39.6367390" lon="-0.3900360">
        <ele>145.0</ele>
        <time>2019-12-14T08:21:35Z</time>
      </trkpt>
      <trkpt lat="39.6369460" lon="-0.3901830">
        <ele>146.0</ele>
        <time>2019-12-14T08:21:41Z</time>
      </trkpt>
      <trkpt lat="39.6370790" lon="-0.3903130">
        <ele>147.0</ele>
        <time>2019-12-14T08:21:45Z</time>
      </trkpt>
      <trkpt lat="39.6372150" lon="-0.3904220">
        <ele>148.2</ele>
        <time>2019-12-14T08:21:49Z</time>
      </trkpt>
      <trkpt lat="39.6374450" lon="-0.3905590">
        <ele>149.4</ele>
        <time>2019-12-14T08:21:56Z</time>
      </trkpt>
      <trkpt lat="39.6376210" lon="-0.3906260">
        <ele>150.4</ele>
        <time>2019-12-14T08:22:01Z</time>
      </trkpt>
      <trkpt lat="39.6378010" lon="-0.3906570">
        <ele>151.6</ele>
        <time>2019-12-14T08:22:06Z</time>
      </trkpt>
      <trkpt lat="39.6379200" lon="-0.3906700">
        <ele>152.6</ele>
        <time>2019-12-14T08:22:09Z</time>
      </trkpt>
      <trkpt lat="39.6381120" lon="-0.3907040">
        <ele>153.8</ele>
        <time>2019-12-14T08:22:14Z</time>
      </trkpt>
      <trkpt lat="39.6383350" lon="-0.3906920">
        <ele>155.0</ele>
        <time>2019-12-14T08:22:20Z</time>
      </trkpt>
      <trkpt lat="39.6385530" lon="-0.3906830">
        <ele>156.0</ele>
        <time>2019-12-14T08:22:26Z</time>
      </trkpt>
      <trkpt lat="39.6387460" lon="-0.3906880">
        <ele>157.2</ele>
        <time>2019-12-14T08:22:31Z</time>
      </trkpt>
      <trkpt lat="39.6389650" lon="-0.3907100">
        <ele>158.4</ele>
        <time>2019-12-14T08:22:37Z</time>
      </trkpt>
      <trkpt lat="39.6392120" lon="-0.3906440">
        <ele>159.6</ele>
        <time>2019-12-14T08:22:45Z</time>
      </trkpt>
      <trkpt lat="39.6393530" lon="-0.3906120">
        <ele>160.8</ele>
        <time>2019-12-14T08:22:50Z</time>
      </trkpt>
      <trkpt lat="39.6394100" lon="-0.3905860">
        <ele>161.2</ele>
        <time>2019-12-14T08:22:52Z</time>
      </trkpt>
      <trkpt lat="39.6394480" lon="-0.3904710">
        <ele>161.8</ele>
        <time>2019-12-14T08:22:55Z</time>
      </trkpt>
      <trkpt lat="39.6394510" lon="-0.3904210">
        <ele>162.0</ele>
        <time>2019-12-14T08:22:56Z</time>
      </trkpt>
      <trkpt lat="39.6394650" lon="-0.3901390">
        <ele>163.0</ele>
        <time>2019-12-14T08:23:01Z</time>
      </trkpt>
      <trkpt lat="39.6395000" lon="-0.3898060">
        <ele>163.0</ele>
        <time>2019-12-14T08:23:07Z</time>
      </trkpt>
      <trkpt lat="39.6396390" lon="-0.3897520">
        <ele>162.8</ele>
        <time>2019-12-14T08:23:11Z</time>
      </trkpt>
      <trkpt lat="39.6397220" lon="-0.3897610">
        <ele>162.8</ele>
        <time>2019-12-14T08:23:13Z</time>
      </trkpt>
      <trkpt lat="39.6399680" lon="-0.3897330">
        <ele>162.6</ele>
        <time>2019-12-14T08:23:19Z</time>
      </trkpt>
      <trkpt lat="39.6402670" lon="-0.3895480">
        <ele>162.4</ele>
        <time>2019-12-14T08:23:26Z</time>
      </trkpt>
      <trkpt lat="39.6403070" lon="-0.3895130">
        <ele>162.4</ele>
        <time>2019-12-14T08:23:27Z</time>
      </trkpt>
      <trkpt lat="39.6406690" lon="-0.3892670">
        <ele>162.4</ele>
        <time>2019-12-14T08:23:38Z</time>
      </trkpt>
      <trkpt lat="39.6406970" lon="-0.3891940">
        <ele>163.0</ele>
        <time>2019-12-14T08:23:42Z</time>
      </trkpt>
      <trkpt lat="39.6406870" lon="-0.3891310">
        <ele>164.2</ele>
        <time>2019-12-14T08:23:45Z</time>
      </trkpt>
      <trkpt lat="39.6406540" lon="-0.3890550">
        <ele>164.6</ele>
        <time>2019-12-14T08:23:47Z</time>
      </trkpt>
      <trkpt lat="39.6406540" lon="-0.3888260">
        <ele>164.8</ele>
        <time>2019-12-14T08:23:52Z</time>
      </trkpt>
      <trkpt lat="39.6407200" lon="-0.3887320">
        <ele>164.2</ele>
        <time>2019-12-14T08:23:55Z</time>
      </trkpt>
      <trkpt lat="39.6408330" lon="-0.3887480">
        <ele>163.2</ele>
        <time>2019-12-14T08:23:58Z</time>
      </trkpt>
      <trkpt lat="39.6408950" lon="-0.3887370">
        <ele>162.6</ele>
        <time>2019-12-14T08:24:00Z</time>
      </trkpt>
      <trkpt lat="39.6409320" lon="-0.3886760">
        <ele>161.6</ele>
        <time>2019-12-14T08:24:02Z</time>
      </trkpt>
      <trkpt lat="39.6410270" lon="-0.3886400">
        <ele>160.6</ele>
        <time>2019-12-14T08:24:05Z</time>
      </trkpt>
      <trkpt lat="39.6411250" lon="-0.3887230">
        <ele>159.2</ele>
        <time>2019-12-14T08:24:09Z</time>
      </trkpt>
      <trkpt lat="39.6411460" lon="-0.3887400">
        <ele>159.0</ele>
        <time>2019-12-14T08:24:10Z</time>
      </trkpt>
      <trkpt lat="39.6415910" lon="-0.3886810">
        <ele>160.4</ele>
        <time>2019-12-14T08:24:26Z</time>
      </trkpt>
      <trkpt lat="39.6418010" lon="-0.3885090">
        <ele>161.0</ele>
        <time>2019-12-14T08:24:34Z</time>
      </trkpt>
      <trkpt lat="39.6420450" lon="-0.3885910">
        <ele>161.2</ele>
        <time>2019-12-14T08:24:43Z</time>
      </trkpt>
      <trkpt lat="39.6420990" lon="-0.3886360">
        <ele>161.2</ele>
        <time>2019-12-14T08:24:45Z</time>
      </trkpt>
      <trkpt lat="39.6422580" lon="-0.3889200">
        <ele>161.8</ele>
        <time>2019-12-14T08:24:54Z</time>
      </trkpt>
      <trkpt lat="39.6423320" lon="-0.3890480">
        <ele>162.2</ele>
        <time>2019-12-14T08:24:58Z</time>
      </trkpt>
      <trkpt lat="39.6425080" lon="-0.3891630">
        <ele>163.2</ele>
        <time>2019-12-14T08:25:04Z</time>
      </trkpt>
      <trkpt lat="39.6425500" lon="-0.3891750">
        <ele>163.4</ele>
        <time>2019-12-14T08:25:05Z</time>
      </trkpt>
      <trkpt lat="39.6427180" lon="-0.3891860">
        <ele>164.0</ele>
        <time>2019-12-14T08:25:09Z</time>
      </trkpt>
      <trkpt lat="39.6428590" lon="-0.3891350">
        <ele>164.4</ele>
        <time>2019-12-14T08:25:14Z</time>
      </trkpt>
      <trkpt lat="39.6430750" lon="-0.3889870">
        <ele>164.8</ele>
        <time>2019-12-14T08:25:24Z</time>
      </trkpt>
      <trkpt lat="39.6436150" lon="-0.3888760">
        <ele>164.2</ele>
        <time>2019-12-14T08:25:47Z</time>
      </trkpt>
      <trkpt lat="39.6441700" lon="-0.3887320">
        <ele>165.2</ele>
        <time>2019-12-14T08:26:05Z</time>
      </trkpt>
      <trkpt lat="39.6444370" lon="-0.3886790">
        <ele>166.2</ele>
        <time>2019-12-14T08:26:14Z</time>
      </trkpt>
      <trkpt lat="39.6446510" lon="-0.3886900">
        <ele>167.4</ele>
        <time>2019-12-14T08:26:21Z</time>
      </trkpt>
      <trkpt lat="39.6448460" lon="-0.3887790">
        <ele>168.6</ele>
        <time>2019-12-14T08:26:27Z</time>
      </trkpt>
      <trkpt lat="39.6453970" lon="-0.3888800">
        <ele>169.6</ele>
        <time>2019-12-14T08:26:41Z</time>
      </trkpt>
      <trkpt lat="39.6458170" lon="-0.3889280">
        <ele>169.8</ele>
        <time>2019-12-14T08:26:51Z</time>
      </trkpt>
      <trkpt lat="39.6462140" lon="-0.3886790">
        <ele>169.8</ele>
        <time>2019-12-14T08:27:03Z</time>
      </trkpt>
      <trkpt lat="39.6465190" lon="-0.3889660">
        <ele>170.6</ele>
        <time>2019-12-14T08:27:15Z</time>
      </trkpt>
      <trkpt lat="39.6466380" lon="-0.3891080">
        <ele>171.8</ele>
        <time>2019-12-14T08:27:21Z</time>
      </trkpt>
      <trkpt lat="39.6467140" lon="-0.3892360">
        <ele>172.8</ele>
        <time>2019-12-14T08:27:25Z</time>
      </trkpt>
      <trkpt lat="39.6467980" lon="-0.3893790">
        <ele>173.8</ele>
        <time>2019-12-14T08:27:29Z</time>
      </trkpt>
      <trkpt lat="39.6469410" lon="-0.3896650">
        <ele>175.0</ele>
        <time>2019-12-14T08:27:36Z</time>
      </trkpt>
      <trkpt lat="39.6471610" lon="-0.3899710">
        <ele>176.2</ele>
        <time>2019-12-14T08:27:47Z</time>
      </trkpt>
      <trkpt lat="39.6472380" lon="-0.3900610">
        <ele>177.4</ele>
        <time>2019-12-14T08:27:51Z</time>
      </trkpt>
      <trkpt lat="39.6473270" lon="-0.3901570">
        <ele>178.6</ele>
        <time>2019-12-14T08:27:55Z</time>
      </trkpt>
      <trkpt lat="39.6474030" lon="-0.3902250">
        <ele>179.8</ele>
        <time>2019-12-14T08:27:58Z</time>
      </trkpt>
      <trkpt lat="39.6474620" lon="-0.3903030">
        <ele>180.8</ele>
        <time>2019-12-14T08:28:01Z</time>
      </trkpt>
      <trkpt lat="39.6475640" lon="-0.3904470">
        <ele>182.2</ele>
        <time>2019-12-14T08:28:07Z</time>
      </trkpt>
      <trkpt lat="39.6476630" lon="-0.3905650">
        <ele>183.2</ele>
        <time>2019-12-14T08:28:12Z</time>
      </trkpt>
      <trkpt lat="39.6477280" lon="-0.3906420">
        <ele>184.0</ele>
        <time>2019-12-14T08:28:15Z</time>
      </trkpt>
      <trkpt lat="39.6478390" lon="-0.3907490">
        <ele>185.4</ele>
        <time>2019-12-14T08:28:20Z</time>
      </trkpt>
      <trkpt lat="39.6479750" lon="-0.3908760">
        <ele>186.4</ele>
        <time>2019-12-14T08:28:26Z</time>
      </trkpt>
      <trkpt lat="39.6480930" lon="-0.3909980">
        <ele>187.6</ele>
        <time>2019-12-14T08:28:31Z</time>
      </trkpt>
      <trkpt lat="39.6481960" lon="-0.3910860">
        <ele>188.6</ele>
        <time>2019-12-14T08:28:35Z</time>
      </trkpt>
      <trkpt lat="39.6484290" lon="-0.3912050">
        <ele>189.6</ele>
        <time>2019-12-14T08:28:43Z</time>
      </trkpt>
      <trkpt lat="39.6486320" lon="-0.3913150">
        <ele>190.8</ele>
        <time>2019-12-14T08:28:50Z</time>
      </trkpt>
      <trkpt lat="39.6487930" lon="-0.3913900">
        <ele>191.8</ele>
        <time>2019-12-14T08:28:56Z</time>
      </trkpt>
      <trkpt lat="39.6489270" lon="-0.3914180">
        <ele>193.0</ele>
        <time>2019-12-14T08:29:01Z</time>
      </trkpt>
      <trkpt lat="39.6491130" lon="-0.3914500">
        <ele>194.2</ele>
        <time>2019-12-14T08:29:08Z</time>
      </trkpt>
      <trkpt lat="39.6492320" lon="-0.3914970">
        <ele>195.2</ele>
        <time>2019-12-14T08:29:13Z</time>
      </trkpt>
      <trkpt lat="39.6493270" lon="-0.3915270">
        <ele>196.2</ele>
        <time>2019-12-14T08:29:17Z</time>
      </trkpt>
      <trkpt lat="39.6494930" lon="-0.3915840">
        <ele>197.4</ele>
        <time>2019-12-14T08:29:24Z</time>
      </trkpt>
      <trkpt lat="39.6496200" lon="-0.3916180">
        <ele>198.4</ele>
        <time>2019-12-14T08:29:29Z</time>
      </trkpt>
      <trkpt lat="39.6498500" lon="-0.3917250">
        <ele>199.6</ele>
        <time>2019-12-14T08:29:39Z</time>
      </trkpt>
      <trkpt lat="39.6499290" lon="-0.3917730">
        <ele>200.6</ele>
        <time>2019-12-14T08:29:43Z</time>
      </trkpt>
      <trkpt lat="39.6500350" lon="-0.3918400">
        <ele>201.6</ele>
        <time>2019-12-14T08:29:48Z</time>
      </trkpt>
      <trkpt lat="39.6501780" lon="-0.3919450">
        <ele>202.8</ele>
        <time>2019-12-14T08:29:54Z</time>
      </trkpt>
      <trkpt lat="39.6502050" lon="-0.3919720">
        <ele>202.8</ele>
        <time>2019-12-14T08:29:55Z</time>
      </trkpt>
      <trkpt lat="39.6502440" lon="-0.3922210">
        <ele>202.8</ele>
        <time>2019-12-14T08:29:59Z</time>
      </trkpt>
      <trkpt lat="39.6502410" lon="-0.3926800">
        <ele>201.4</ele>
        <time>2019-12-14T08:30:06Z</time>
      </trkpt>
      <trkpt lat="39.6502000" lon="-0.3929800">
        <ele>201.0</ele>
        <time>2019-12-14T08:30:14Z</time>
      </trkpt>
      <trkpt lat="39.6501760" lon="-0.3929720">
        <ele>201.2</ele>
        <time>2019-12-14T08:30:16Z</time>
      </trkpt>
      <trkpt lat="39.6500780" lon="-0.3929750">
        <ele>201.8</ele>
        <time>2019-12-14T08:30:20Z</time>
      </trkpt>
      <trkpt lat="39.6499520" lon="-0.3930260">
        <ele>202.0</ele>
        <time>2019-12-14T08:30:23Z</time>
      </trkpt>
      <trkpt lat="39.6495810" lon="-0.3930340">
        <ele>201.8</ele>
        <time>2019-12-14T08:30:30Z</time>
      </trkpt>
      <trkpt lat="39.6495290" lon="-0.3930380">
        <ele>201.6</ele>
        <time>2019-12-14T08:30:31Z</time>
      </trkpt>
      <trkpt lat="39.6493990" lon="-0.3930600">
        <ele>200.2</ele>
        <time>2019-12-14T08:30:34Z</time>
      </trkpt>
      <trkpt lat="39.6493660" lon="-0.3930540">
        <ele>198.8</ele>
        <time>2019-12-14T08:30:35Z</time>
      </trkpt>
      <trkpt lat="39.6493010" lon="-0.3930310">
        <ele>197.0</ele>
        <time>2019-12-14T08:30:37Z</time>
      </trkpt>
      <trkpt lat="39.6492610" lon="-0.3930080">
        <ele>196.4</ele>
        <time>2019-12-14T08:30:38Z</time>
      </trkpt>
      <trkpt lat="39.6492170" lon="-0.3929730">
        <ele>195.6</ele>
        <time>2019-12-14T08:30:39Z</time>
      </trkpt>
      <trkpt lat="39.6491310" lon="-0.3928880">
        <ele>194.2</ele>
        <time>2019-12-14T08:30:41Z</time>
      </trkpt>
      <trkpt lat="39.6490480" lon="-0.3928010">
        <ele>193.2</ele>
        <time>2019-12-14T08:30:43Z</time>
      </trkpt>
      <trkpt lat="39.6489890" lon="-0.3927290">
        <ele>191.8</ele>
        <time>2019-12-14T08:30:45Z</time>
      </trkpt>
      <trkpt lat="39.6489720" lon="-0.3927020">
        <ele>190.8</ele>
        <time>2019-12-14T08:30:46Z</time>
      </trkpt>
      <trkpt lat="39.6489080" lon="-0.3926370">
        <ele>189.6</ele>
        <time>2019-12-14T08:30:50Z</time>
      </trkpt>
      <trkpt lat="39.6485660" lon="-0.3925340">
        <ele>189.2</ele>
        <time>2019-12-14T08:31:00Z</time>
      </trkpt>
      <trkpt lat="39.6480790" lon="-0.3928680">
        <ele>189.8</ele>
        <time>2019-12-14T08:31:16Z</time>
      </trkpt>
      <trkpt lat="39.6480030" lon="-0.3928990">
        <ele>190.0</ele>
        <time>2019-12-14T08:31:19Z</time>
      </trkpt>
      <trkpt lat="39.6478680" lon="-0.3927640">
        <ele>190.8</ele>
        <time>2019-12-14T08:31:28Z</time>
      </trkpt>
      <trkpt lat="39.6478620" lon="-0.3927300">
        <ele>191.0</ele>
        <time>2019-12-14T08:31:29Z</time>
      </trkpt>
      <trkpt lat="39.6478250" lon="-0.3926350">
        <ele>192.0</ele>
        <time>2019-12-14T08:31:32Z</time>
      </trkpt>
      <trkpt lat="39.6477350" lon="-0.3924850">
        <ele>192.8</ele>
        <time>2019-12-14T08:31:36Z</time>
      </trkpt>
      <trkpt lat="39.6476990" lon="-0.3924450">
        <ele>193.0</ele>
        <time>2019-12-14T08:31:37Z</time>
      </trkpt>
      <trkpt lat="39.6474930" lon="-0.3924400">
        <ele>193.2</ele>
        <time>2019-12-14T08:31:43Z</time>
      </trkpt>
      <trkpt lat="39.6472710" lon="-0.3925600">
        <ele>194.0</ele>
        <time>2019-12-14T08:31:50Z</time>
      </trkpt>
      <trkpt lat="39.6470140" lon="-0.3927210">
        <ele>195.2</ele>
        <time>2019-12-14T08:31:59Z</time>
      </trkpt>
      <trkpt lat="39.6469770" lon="-0.3927470">
        <ele>195.4</ele>
        <time>2019-12-14T08:32:00Z</time>
      </trkpt>
      <trkpt lat="39.6468530" lon="-0.3929270">
        <ele>195.6</ele>
        <time>2019-12-14T08:32:04Z</time>
      </trkpt>
      <trkpt lat="39.6468030" lon="-0.3930030">
        <ele>195.6</ele>
        <time>2019-12-14T08:32:06Z</time>
      </trkpt>
      <trkpt lat="39.6463380" lon="-0.3931650">
        <ele>195.2</ele>
        <time>2019-12-14T08:32:16Z</time>
      </trkpt>
      <trkpt lat="39.6461480" lon="-0.3932140">
        <ele>195.0</ele>
        <time>2019-12-14T08:32:20Z</time>
      </trkpt>
      <trkpt lat="39.6455980" lon="-0.3932520">
        <ele>196.0</ele>
        <time>2019-12-14T08:32:37Z</time>
      </trkpt>
      <trkpt lat="39.6455690" lon="-0.3932720">
        <ele>196.2</ele>
        <time>2019-12-14T08:32:38Z</time>
      </trkpt>
      <trkpt lat="39.6455030" lon="-0.3933530">
        <ele>197.4</ele>
        <time>2019-12-14T08:32:41Z</time>
      </trkpt>
      <trkpt lat="39.6454970" lon="-0.3933890">
        <ele>197.6</ele>
        <time>2019-12-14T08:32:42Z</time>
      </trkpt>
      <trkpt lat="39.6455040" lon="-0.3934620">
        <ele>198.0</ele>
        <time>2019-12-14T08:32:44Z</time>
      </trkpt>
      <trkpt lat="39.6455960" lon="-0.3936250">
        <ele>198.8</ele>
        <time>2019-12-14T08:32:50Z</time>
      </trkpt>
      <trkpt lat="39.6456910" lon="-0.3937480">
        <ele>199.8</ele>
        <time>2019-12-14T08:32:56Z</time>
      </trkpt>
      <trkpt lat="39.6457440" lon="-0.3937970">
        <ele>201.0</ele>
        <time>2019-12-14T08:32:59Z</time>
      </trkpt>
      <trkpt lat="39.6458080" lon="-0.3938330">
        <ele>202.4</ele>
        <time>2019-12-14T08:33:02Z</time>
      </trkpt>
      <trkpt lat="39.6458960" lon="-0.3938530">
        <ele>203.4</ele>
        <time>2019-12-14T08:33:06Z</time>
      </trkpt>
      <trkpt lat="39.6460450" lon="-0.3938450">
        <ele>204.6</ele>
        <time>2019-12-14T08:33:12Z</time>
      </trkpt>
      <trkpt lat="39.6462330" lon="-0.3938240">
        <ele>205.8</ele>
        <time>2019-12-14T08:33:19Z</time>
      </trkpt>
      <trkpt lat="39.6464310" lon="-0.3938030">
        <ele>207.0</ele>
        <time>2019-12-14T08:33:26Z</time>
      </trkpt>
      <trkpt lat="39.6468690" lon="-0.3937820">
        <ele>208.2</ele>
        <time>2019-12-14T08:33:39Z</time>
      </trkpt>
      <trkpt lat="39.6474170" lon="-0.3937860">
        <ele>208.8</ele>
        <time>2019-12-14T08:33:54Z</time>
      </trkpt>
      <trkpt lat="39.6475390" lon="-0.3937910">
        <ele>209.2</ele>
        <time>2019-12-14T08:33:57Z</time>
      </trkpt>
      <trkpt lat="39.6476190" lon="-0.3938230">
        <ele>209.8</ele>
        <time>2019-12-14T08:33:59Z</time>
      </trkpt>
      <trkpt lat="39.6478410" lon="-0.3940580">
        <ele>209.8</ele>
        <time>2019-12-14T08:34:06Z</time>
      </trkpt>
      <trkpt lat="39.6478620" lon="-0.3941060">
        <ele>209.8</ele>
        <time>2019-12-14T08:34:07Z</time>
      </trkpt>
      <trkpt lat="39.6478730" lon="-0.3943030">
        <ele>209.8</ele>
        <time>2019-12-14T08:34:11Z</time>
      </trkpt>
      <trkpt lat="39.6478710" lon="-0.3943600">
        <ele>209.6</ele>
        <time>2019-12-14T08:34:12Z</time>
      </trkpt>
      <trkpt lat="39.6480630" lon="-0.3946050">
        <ele>209.6</ele>
        <time>2019-12-14T08:34:20Z</time>
      </trkpt>
      <trkpt lat="39.6481970" lon="-0.3947810">
        <ele>210.4</ele>
        <time>2019-12-14T08:34:26Z</time>
      </trkpt>
      <trkpt lat="39.6483000" lon="-0.3950280">
        <ele>211.6</ele>
        <time>2019-12-14T08:34:33Z</time>
      </trkpt>
      <trkpt lat="39.6483410" lon="-0.3952330">
        <ele>212.8</ele>
        <time>2019-12-14T08:34:38Z</time>
      </trkpt>
      <trkpt lat="39.6483900" lon="-0.3953220">
        <ele>213.0</ele>
        <time>2019-12-14T08:34:41Z</time>
      </trkpt>
      <trkpt lat="39.6485580" lon="-0.3953030">
        <ele>213.8</ele>
        <time>2019-12-14T08:34:48Z</time>
      </trkpt>
      <trkpt lat="39.6486810" lon="-0.3952400">
        <ele>215.0</ele>
        <time>2019-12-14T08:34:53Z</time>
      </trkpt>
      <trkpt lat="39.6486900" lon="-0.3950870">
        <ele>216.2</ele>
        <time>2019-12-14T08:34:57Z</time>
      </trkpt>
      <trkpt lat="39.6487180" lon="-0.3948210">
        <ele>217.2</ele>
        <time>2019-12-14T08:35:04Z</time>
      </trkpt>
      <trkpt lat="39.6487480" lon="-0.3945670">
        <ele>218.4</ele>
        <time>2019-12-14T08:35:10Z</time>
      </trkpt>
      <trkpt lat="39.6489830" lon="-0.3941490">
        <ele>219.2</ele>
        <time>2019-12-14T08:35:22Z</time>
      </trkpt>
      <trkpt lat="39.6491550" lon="-0.3942300">
        <ele>219.4</ele>
        <time>2019-12-14T08:35:26Z</time>
      </trkpt>
      <trkpt lat="39.6496270" lon="-0.3946590">
        <ele>218.6</ele>
        <time>2019-12-14T08:35:41Z</time>
      </trkpt>
      <trkpt lat="39.6497580" lon="-0.3947860">
        <ele>219.4</ele>
        <time>2019-12-14T08:35:45Z</time>
      </trkpt>
      <trkpt lat="39.6498310" lon="-0.3948540">
        <ele>219.6</ele>
        <time>2019-12-14T08:35:47Z</time>
      </trkpt>
      <trkpt lat="39.6501640" lon="-0.3950790">
        <ele>220.0</ele>
        <time>2019-12-14T08:35:57Z</time>
      </trkpt>
      <trkpt lat="39.6502240" lon="-0.3951580">
        <ele>220.4</ele>
        <time>2019-12-14T08:35:59Z</time>
      </trkpt>
      <trkpt lat="39.6504140" lon="-0.3954880">
        <ele>220.8</ele>
        <time>2019-12-14T08:36:06Z</time>
      </trkpt>
      <trkpt lat="39.6504660" lon="-0.3957400">
        <ele>220.6</ele>
        <time>2019-12-14T08:36:11Z</time>
      </trkpt>
      <trkpt lat="39.6506250" lon="-0.3964450">
        <ele>220.6</ele>
        <time>2019-12-14T08:36:26Z</time>
      </trkpt>
      <trkpt lat="39.6509190" lon="-0.3963060">
        <ele>220.6</ele>
        <time>2019-12-14T08:36:34Z</time>
      </trkpt>
      <trkpt lat="39.6509670" lon="-0.3962730">
        <ele>219.4</ele>
        <time>2019-12-14T08:36:37Z</time>
      </trkpt>
      <trkpt lat="39.6508940" lon="-0.3965690">
        <ele>218.6</ele>
        <time>2019-12-14T08:36:50Z</time>
      </trkpt>
      <trkpt lat="39.6508470" lon="-0.3967290">
        <ele>220.6</ele>
        <time>2019-12-14T08:36:59Z</time>
      </trkpt>
      <trkpt lat="39.6507890" lon="-0.3968970">
        <ele>221.8</ele>
        <time>2019-12-14T08:37:06Z</time>
      </trkpt>
      <trkpt lat="39.6507500" lon="-0.3970330">
        <ele>222.6</ele>
        <time>2019-12-14T08:37:12Z</time>
      </trkpt>
      <trkpt lat="39.6507160" lon="-0.3971080">
        <ele>223.6</ele>
        <time>2019-12-14T08:37:16Z</time>
      </trkpt>
      <trkpt lat="39.6506570" lon="-0.3972180">
        <ele>224.6</ele>
        <time>2019-12-14T08:37:21Z</time>
      </trkpt>
      <trkpt lat="39.6506150" lon="-0.3973440">
        <ele>225.6</ele>
        <time>2019-12-14T08:37:26Z</time>
      </trkpt>
      <trkpt lat="39.6506150" lon="-0.3974760">
        <ele>226.6</ele>
        <time>2019-12-14T08:37:32Z</time>
      </trkpt>
      <trkpt lat="39.6506330" lon="-0.3975080">
        <ele>227.0</ele>
        <time>2019-12-14T08:37:34Z</time>
      </trkpt>
      <trkpt lat="39.6509400" lon="-0.3975800">
        <ele>225.4</ele>
        <time>2019-12-14T08:37:47Z</time>
      </trkpt>
      <trkpt lat="39.6510130" lon="-0.3975990">
        <ele>224.2</ele>
        <time>2019-12-14T08:37:49Z</time>
      </trkpt>
      <trkpt lat="39.6510850" lon="-0.3976320">
        <ele>223.2</ele>
        <time>2019-12-14T08:37:51Z</time>
      </trkpt>
      <trkpt lat="39.6510980" lon="-0.3976510">
        <ele>222.0</ele>
        <time>2019-12-14T08:37:52Z</time>
      </trkpt>
      <trkpt lat="39.6511040" lon="-0.3976570">
        <ele>220.6</ele>
        <time>2019-12-14T08:37:54Z</time>
      </trkpt>
      <trkpt lat="39.6511060" lon="-0.3976720">
        <ele>217.2</ele>
        <time>2019-12-14T08:38:41Z</time>
      </trkpt>
      <trkpt lat="39.6511810" lon="-0.3976770">
        <ele>217.2</ele>
        <time>2019-12-14T08:38:45Z</time>
      </trkpt>
      <trkpt lat="39.6512730" lon="-0.3977150">
        <ele>217.2</ele>
        <time>2019-12-14T08:38:49Z</time>
      </trkpt>
      <trkpt lat="39.6512670" lon="-0.3978560">
        <ele>217.6</ele>
        <time>2019-12-14T08:38:57Z</time>
      </trkpt>
      <trkpt lat="39.6512240" lon="-0.3978980">
        <ele>218.0</ele>
        <time>2019-12-14T08:39:01Z</time>
      </trkpt>
      <trkpt lat="39.6511840" lon="-0.3979200">
        <ele>219.0</ele>
        <time>2019-12-14T08:39:04Z</time>
      </trkpt>
      <trkpt lat="39.6511750" lon="-0.3979320">
        <ele>219.2</ele>
        <time>2019-12-14T08:39:05Z</time>
      </trkpt>
      <trkpt lat="39.6511300" lon="-0.3979780">
        <ele>220.2</ele>
        <time>2019-12-14T08:39:09Z</time>
      </trkpt>
      <trkpt lat="39.6511070" lon="-0.3979920">
        <ele>220.8</ele>
        <time>2019-12-14T08:39:11Z</time>
      </trkpt>
      <trkpt lat="39.6510780" lon="-0.3980060">
        <ele>221.4</ele>
        <time>2019-12-14T08:39:13Z</time>
      </trkpt>
      <trkpt lat="39.6509830" lon="-0.3980800">
        <ele>222.4</ele>
        <time>2019-12-14T08:39:19Z</time>
      </trkpt>
      <trkpt lat="39.6509020" lon="-0.3981730">
        <ele>223.4</ele>
        <time>2019-12-14T08:39:25Z</time>
      </trkpt>
      <trkpt lat="39.6508450" lon="-0.3982650">
        <ele>224.6</ele>
        <time>2019-12-14T08:39:30Z</time>
      </trkpt>
      <trkpt lat="39.6508030" lon="-0.3983420">
        <ele>225.6</ele>
        <time>2019-12-14T08:39:34Z</time>
      </trkpt>
      <trkpt lat="39.6507780" lon="-0.3983750">
        <ele>226.0</ele>
        <time>2019-12-14T08:39:36Z</time>
      </trkpt>
      <trkpt lat="39.6509080" lon="-0.3982040">
        <ele>226.4</ele>
        <time>2019-12-14T08:39:42Z</time>
      </trkpt>
      <trkpt lat="39.6509500" lon="-0.3981560">
        <ele>226.4</ele>
        <time>2019-12-14T08:39:43Z</time>
      </trkpt>
      <trkpt lat="39.6511870" lon="-0.3979300">
        <ele>226.4</ele>
        <time>2019-12-14T08:39:47Z</time>
      </trkpt>
      <trkpt lat="39.6513030" lon="-0.3978220">
        <ele>226.0</ele>
        <time>2019-12-14T08:39:49Z</time>
      </trkpt>
      <trkpt lat="39.6514400" lon="-0.3976540">
        <ele>224.4</ele>
        <time>2019-12-14T08:39:52Z</time>
      </trkpt>
      <trkpt lat="39.6515250" lon="-0.3975540">
        <ele>223.0</ele>
        <time>2019-12-14T08:39:54Z</time>
      </trkpt>
      <trkpt lat="39.6516110" lon="-0.3974630">
        <ele>220.8</ele>
        <time>2019-12-14T08:39:56Z</time>
      </trkpt>
      <trkpt lat="39.6516530" lon="-0.3974260">
        <ele>219.8</ele>
        <time>2019-12-14T08:39:57Z</time>
      </trkpt>
      <trkpt lat="39.6517230" lon="-0.3973550">
        <ele>218.4</ele>
        <time>2019-12-14T08:39:59Z</time>
      </trkpt>
      <trkpt lat="39.6517770" lon="-0.3973170">
        <ele>217.6</ele>
        <time>2019-12-14T08:40:01Z</time>
      </trkpt>
      <trkpt lat="39.6517700" lon="-0.3973660">
        <ele>217.4</ele>
        <time>2019-12-14T08:40:03Z</time>
      </trkpt>
      <trkpt lat="39.6516540" lon="-0.3974790">
        <ele>216.8</ele>
        <time>2019-12-14T08:40:07Z</time>
      </trkpt>
      <trkpt lat="39.6516100" lon="-0.3975030">
        <ele>216.8</ele>
        <time>2019-12-14T08:40:08Z</time>
      </trkpt>
      <trkpt lat="39.6514500" lon="-0.3976570">
        <ele>216.8</ele>
        <time>2019-12-14T08:40:12Z</time>
      </trkpt>
      <trkpt lat="39.6513460" lon="-0.3978060">
        <ele>217.2</ele>
        <time>2019-12-14T08:40:15Z</time>
      </trkpt>
      <trkpt lat="39.6510370" lon="-0.3980490">
        <ele>218.8</ele>
        <time>2019-12-14T08:40:24Z</time>
      </trkpt>
      <trkpt lat="39.6509580" lon="-0.3981390">
        <ele>220.2</ele>
        <time>2019-12-14T08:40:27Z</time>
      </trkpt>
      <trkpt lat="39.6508770" lon="-0.3982290">
        <ele>221.6</ele>
        <time>2019-12-14T08:40:30Z</time>
      </trkpt>
      <trkpt lat="39.6508060" lon="-0.3983280">
        <ele>222.8</ele>
        <time>2019-12-14T08:40:33Z</time>
      </trkpt>
      <trkpt lat="39.6507490" lon="-0.3984260">
        <ele>223.8</ele>
        <time>2019-12-14T08:40:36Z</time>
      </trkpt>
      <trkpt lat="39.6506880" lon="-0.3985220">
        <ele>225.2</ele>
        <time>2019-12-14T08:40:39Z</time>
      </trkpt>
      <trkpt lat="39.6506310" lon="-0.3985920">
        <ele>226.4</ele>
        <time>2019-12-14T08:40:42Z</time>
      </trkpt>
      <trkpt lat="39.6505950" lon="-0.3986630">
        <ele>227.8</ele>
        <time>2019-12-14T08:40:45Z</time>
      </trkpt>
      <trkpt lat="39.6505680" lon="-0.3987100">
        <ele>229.0</ele>
        <time>2019-12-14T08:40:47Z</time>
      </trkpt>
      <trkpt lat="39.6505240" lon="-0.3987820">
        <ele>230.6</ele>
        <time>2019-12-14T08:40:50Z</time>
      </trkpt>
      <trkpt lat="39.6504920" lon="-0.3988320">
        <ele>231.8</ele>
        <time>2019-12-14T08:40:52Z</time>
      </trkpt>
      <trkpt lat="39.6504630" lon="-0.3988820">
        <ele>233.0</ele>
        <time>2019-12-14T08:40:54Z</time>
      </trkpt>
      <trkpt lat="39.6504220" lon="-0.3989610">
        <ele>234.2</ele>
        <time>2019-12-14T08:40:57Z</time>
      </trkpt>
      <trkpt lat="39.6503830" lon="-0.3990350">
        <ele>235.4</ele>
        <time>2019-12-14T08:41:00Z</time>
      </trkpt>
      <trkpt lat="39.6502920" lon="-0.3991800">
        <ele>236.8</ele>
        <time>2019-12-14T08:41:06Z</time>
      </trkpt>
      <trkpt lat="39.6502360" lon="-0.3992480">
        <ele>237.8</ele>
        <time>2019-12-14T08:41:09Z</time>
      </trkpt>
      <trkpt lat="39.6501280" lon="-0.3993840">
        <ele>238.4</ele>
        <time>2019-12-14T08:41:15Z</time>
      </trkpt>
      <trkpt lat="39.6499830" lon="-0.3992840">
        <ele>238.0</ele>
        <time>2019-12-14T08:41:23Z</time>
      </trkpt>
      <trkpt lat="39.6499130" lon="-0.3992210">
        <ele>237.4</ele>
        <time>2019-12-14T08:41:27Z</time>
      </trkpt>
      <trkpt lat="39.6498900" lon="-0.3991750">
        <ele>237.0</ele>
        <time>2019-12-14T08:41:30Z</time>
      </trkpt>
      <trkpt lat="39.6499140" lon="-0.3991660">
        <ele>236.8</ele>
        <time>2019-12-14T08:41:32Z</time>
      </trkpt>
      <trkpt lat="39.6501980" lon="-0.3992900">
        <ele>236.8</ele>
        <time>2019-12-14T08:41:46Z</time>
      </trkpt>
      <trkpt lat="39.6503090" lon="-0.3992160">
        <ele>237.6</ele>
        <time>2019-12-14T08:41:50Z</time>
      </trkpt>
      <trkpt lat="39.6503360" lon="-0.3992210">
        <ele>237.8</ele>
        <time>2019-12-14T08:41:51Z</time>
      </trkpt>
      <trkpt lat="39.6504380" lon="-0.3992540">
        <ele>238.2</ele>
        <time>2019-12-14T08:41:55Z</time>
      </trkpt>
      <trkpt lat="39.6505270" lon="-0.3993320">
        <ele>239.0</ele>
        <time>2019-12-14T08:42:00Z</time>
      </trkpt>
      <trkpt lat="39.6505930" lon="-0.3994100">
        <ele>240.0</ele>
        <time>2019-12-14T08:42:04Z</time>
      </trkpt>
      <trkpt lat="39.6506360" lon="-0.3994640">
        <ele>241.2</ele>
        <time>2019-12-14T08:42:07Z</time>
      </trkpt>
      <trkpt lat="39.6507070" lon="-0.3995400">
        <ele>242.2</ele>
        <time>2019-12-14T08:42:11Z</time>
      </trkpt>
      <trkpt lat="39.6507680" lon="-0.3996250">
        <ele>243.4</ele>
        <time>2019-12-14T08:42:15Z</time>
      </trkpt>
      <trkpt lat="39.6508150" lon="-0.3996820">
        <ele>244.4</ele>
        <time>2019-12-14T08:42:18Z</time>
      </trkpt>
      <trkpt lat="39.6509460" lon="-0.3997500">
        <ele>245.6</ele>
        <time>2019-12-14T08:42:24Z</time>
      </trkpt>
      <trkpt lat="39.6509900" lon="-0.3997700">
        <ele>246.6</ele>
        <time>2019-12-14T08:42:26Z</time>
      </trkpt>
      <trkpt lat="39.6511200" lon="-0.3998450">
        <ele>247.8</ele>
        <time>2019-12-14T08:42:33Z</time>
      </trkpt>
      <trkpt lat="39.6512090" lon="-0.3998770">
        <ele>249.0</ele>
        <time>2019-12-14T08:42:38Z</time>
      </trkpt>
      <trkpt lat="39.6512760" lon="-0.3999010">
        <ele>250.2</ele>
        <time>2019-12-14T08:42:42Z</time>
      </trkpt>
      <trkpt lat="39.6513240" lon="-0.3999050">
        <ele>251.4</ele>
        <time>2019-12-14T08:42:45Z</time>
      </trkpt>
      <trkpt lat="39.6513700" lon="-0.3998810">
        <ele>252.6</ele>
        <time>2019-12-14T08:42:48Z</time>
      </trkpt>
      <trkpt lat="39.6514050" lon="-0.3998670">
        <ele>253.2</ele>
        <time>2019-12-14T08:42:50Z</time>
      </trkpt>
      <trkpt lat="39.6514250" lon="-0.3998700">
        <ele>253.6</ele>
        <time>2019-12-14T08:42:51Z</time>
      </trkpt>
      <trkpt lat="39.6514800" lon="-0.3998920">
        <ele>254.8</ele>
        <time>2019-12-14T08:42:55Z</time>
      </trkpt>
      <trkpt lat="39.6515180" lon="-0.3999190">
        <ele>255.6</ele>
        <time>2019-12-14T08:42:58Z</time>
      </trkpt>
      <trkpt lat="39.6515470" lon="-0.3999250">
        <ele>256.0</ele>
        <time>2019-12-14T08:43:00Z</time>
      </trkpt>
      <trkpt lat="39.6515940" lon="-0.3999330">
        <ele>257.2</ele>
        <time>2019-12-14T08:43:03Z</time>
      </trkpt>
      <trkpt lat="39.6516580" lon="-0.3999430">
        <ele>258.6</ele>
        <time>2019-12-14T08:43:07Z</time>
      </trkpt>
      <trkpt lat="39.6516870" lon="-0.3999650">
        <ele>259.4</ele>
        <time>2019-12-14T08:43:09Z</time>
      </trkpt>
      <trkpt lat="39.6517190" lon="-0.3999890">
        <ele>260.0</ele>
        <time>2019-12-14T08:43:11Z</time>
      </trkpt>
      <trkpt lat="39.6517900" lon="-0.4000070">
        <ele>261.2</ele>
        <time>2019-12-14T08:43:15Z</time>
      </trkpt>
      <trkpt lat="39.6518120" lon="-0.4000150">
        <ele>261.4</ele>
        <time>2019-12-14T08:43:16Z</time>
      </trkpt>
      <trkpt lat="39.6518750" lon="-0.4000020">
        <ele>262.2</ele>
        <time>2019-12-14T08:43:20Z</time>
      </trkpt>
      <trkpt lat="39.6519380" lon="-0.3999810">
        <ele>263.0</ele>
        <time>2019-12-14T08:43:24Z</time>
      </trkpt>
      <trkpt lat="39.6519870" lon="-0.3999590">
        <ele>263.4</ele>
        <time>2019-12-14T08:43:27Z</time>
      </trkpt>
      <trkpt lat="39.6520060" lon="-0.3999520">
        <ele>263.8</ele>
        <time>2019-12-14T08:43:28Z</time>
      </trkpt>
      <trkpt lat="39.6520800" lon="-0.3999720">
        <ele>264.8</ele>
        <time>2019-12-14T08:43:32Z</time>
      </trkpt>
      <trkpt lat="39.6521580" lon="-0.3999610">
        <ele>266.0</ele>
        <time>2019-12-14T08:43:37Z</time>
      </trkpt>
      <trkpt lat="39.6522360" lon="-0.3999090">
        <ele>266.6</ele>
        <time>2019-12-14T08:43:42Z</time>
      </trkpt>
      <trkpt lat="39.6522780" lon="-0.3998730">
        <ele>267.0</ele>
        <time>2019-12-14T08:43:45Z</time>
      </trkpt>
      <trkpt lat="39.6522930" lon="-0.3998700">
        <ele>267.2</ele>
        <time>2019-12-14T08:43:46Z</time>
      </trkpt>
      <trkpt lat="39.6523390" lon="-0.3998310">
        <ele>268.0</ele>
        <time>2019-12-14T08:43:49Z</time>
      </trkpt>
      <trkpt lat="39.6524760" lon="-0.3995960">
        <ele>269.2</ele>
        <time>2019-12-14T08:43:58Z</time>
      </trkpt>
      <trkpt lat="39.6525840" lon="-0.3994760">
        <ele>270.4</ele>
        <time>2019-12-14T08:44:04Z</time>
      </trkpt>
      <trkpt lat="39.6527300" lon="-0.3994270">
        <ele>271.4</ele>
        <time>2019-12-14T08:44:11Z</time>
      </trkpt>
      <trkpt lat="39.6528080" lon="-0.3994460">
        <ele>272.0</ele>
        <time>2019-12-14T08:44:15Z</time>
      </trkpt>
      <trkpt lat="39.6528710" lon="-0.3994070">
        <ele>272.6</ele>
        <time>2019-12-14T08:44:19Z</time>
      </trkpt>
      <trkpt lat="39.6529200" lon="-0.3994200">
        <ele>273.8</ele>
        <time>2019-12-14T08:44:22Z</time>
      </trkpt>
      <trkpt lat="39.6530390" lon="-0.3995250">
        <ele>274.8</ele>
        <time>2019-12-14T08:44:30Z</time>
      </trkpt>
      <trkpt lat="39.6530770" lon="-0.3995720">
        <ele>276.0</ele>
        <time>2019-12-14T08:44:33Z</time>
      </trkpt>
      <trkpt lat="39.6531540" lon="-0.3996260">
        <ele>277.2</ele>
        <time>2019-12-14T08:44:37Z</time>
      </trkpt>
      <trkpt lat="39.6533050" lon="-0.3996710">
        <ele>278.2</ele>
        <time>2019-12-14T08:44:43Z</time>
      </trkpt>
      <trkpt lat="39.6535160" lon="-0.3997290">
        <ele>279.4</ele>
        <time>2019-12-14T08:44:53Z</time>
      </trkpt>
      <trkpt lat="39.6535470" lon="-0.3997920">
        <ele>279.6</ele>
        <time>2019-12-14T08:44:56Z</time>
      </trkpt>
      <trkpt lat="39.6536180" lon="-0.3998480">
        <ele>280.4</ele>
        <time>2019-12-14T08:45:00Z</time>
      </trkpt>
      <trkpt lat="39.6537770" lon="-0.3999860">
        <ele>281.0</ele>
        <time>2019-12-14T08:45:09Z</time>
      </trkpt>
      <trkpt lat="39.6537420" lon="-0.4001380">
        <ele>281.4</ele>
        <time>2019-12-14T08:45:16Z</time>
      </trkpt>
      <trkpt lat="39.6536950" lon="-0.4002360">
        <ele>281.6</ele>
        <time>2019-12-14T08:45:23Z</time>
      </trkpt>
      <trkpt lat="39.6536330" lon="-0.4002590">
        <ele>281.2</ele>
        <time>2019-12-14T08:46:32Z</time>
      </trkpt>
      <trkpt lat="39.6534080" lon="-0.4003090">
        <ele>281.0</ele>
        <time>2019-12-14T08:46:37Z</time>
      </trkpt>
      <trkpt lat="39.6533610" lon="-0.4003080">
        <ele>280.4</ele>
        <time>2019-12-14T08:46:38Z</time>
      </trkpt>
      <trkpt lat="39.6532980" lon="-0.4003400">
        <ele>279.6</ele>
        <time>2019-12-14T08:46:40Z</time>
      </trkpt>
      <trkpt lat="39.6532750" lon="-0.4003850">
        <ele>279.0</ele>
        <time>2019-12-14T08:46:41Z</time>
      </trkpt>
      <trkpt lat="39.6532180" lon="-0.4004930">
        <ele>277.8</ele>
        <time>2019-12-14T08:46:43Z</time>
      </trkpt>
      <trkpt lat="39.6531960" lon="-0.4005460">
        <ele>277.4</ele>
        <time>2019-12-14T08:46:44Z</time>
      </trkpt>
      <trkpt lat="39.6531730" lon="-0.4005970">
        <ele>276.6</ele>
        <time>2019-12-14T08:46:45Z</time>
      </trkpt>
      <trkpt lat="39.6531040" lon="-0.4006420">
        <ele>275.0</ele>
        <time>2019-12-14T08:46:47Z</time>
      </trkpt>
      <trkpt lat="39.6530070" lon="-0.4006170">
        <ele>273.8</ele>
        <time>2019-12-14T08:46:49Z</time>
      </trkpt>
      <trkpt lat="39.6529040" lon="-0.4005890">
        <ele>273.0</ele>
        <time>2019-12-14T08:46:51Z</time>
      </trkpt>
      <trkpt lat="39.6528130" lon="-0.4006130">
        <ele>272.6</ele>
        <time>2019-12-14T08:46:53Z</time>
      </trkpt>
      <trkpt lat="39.6527140" lon="-0.4006490">
        <ele>272.0</ele>
        <time>2019-12-14T08:46:55Z</time>
      </trkpt>
      <trkpt lat="39.6526510" lon="-0.4006560">
        <ele>271.2</ele>
        <time>2019-12-14T08:46:56Z</time>
      </trkpt>
      <trkpt lat="39.6525190" lon="-0.4006740">
        <ele>269.4</ele>
        <time>2019-12-14T08:46:58Z</time>
      </trkpt>
      <trkpt lat="39.6524630" lon="-0.4006780">
        <ele>268.4</ele>
        <time>2019-12-14T08:46:59Z</time>
      </trkpt>
      <trkpt lat="39.6523870" lon="-0.4006840">
        <ele>266.8</ele>
        <time>2019-12-14T08:47:01Z</time>
      </trkpt>
      <trkpt lat="39.6523700" lon="-0.4006750">
        <ele>265.6</ele>
        <time>2019-12-14T08:47:02Z</time>
      </trkpt>
      <trkpt lat="39.6523870" lon="-0.4006310">
        <ele>264.4</ele>
        <time>2019-12-14T08:47:03Z</time>
      </trkpt>
      <trkpt lat="39.6523760" lon="-0.4006050">
        <ele>263.0</ele>
        <time>2019-12-14T08:47:04Z</time>
      </trkpt>
      <trkpt lat="39.6523620" lon="-0.4005920">
        <ele>261.2</ele>
        <time>2019-12-14T08:47:05Z</time>
      </trkpt>
      <trkpt lat="39.6523440" lon="-0.4006040">
        <ele>259.6</ele>
        <time>2019-12-14T08:47:06Z</time>
      </trkpt>
      <trkpt lat="39.6523260" lon="-0.4006350">
        <ele>258.6</ele>
        <time>2019-12-14T08:47:07Z</time>
      </trkpt>
      <trkpt lat="39.6523020" lon="-0.4006770">
        <ele>258.0</ele>
        <time>2019-12-14T08:47:08Z</time>
      </trkpt>
      <trkpt lat="39.6522330" lon="-0.4007600">
        <ele>257.4</ele>
        <time>2019-12-14T08:47:10Z</time>
      </trkpt>
      <trkpt lat="39.6520160" lon="-0.4007430">
        <ele>256.2</ele>
        <time>2019-12-14T08:47:15Z</time>
      </trkpt>
      <trkpt lat="39.6519030" lon="-0.4007080">
        <ele>254.8</ele>
        <time>2019-12-14T08:47:17Z</time>
      </trkpt>
      <trkpt lat="39.6517770" lon="-0.4007060">
        <ele>253.8</ele>
        <time>2019-12-14T08:47:21Z</time>
      </trkpt>
      <trkpt lat="39.6517380" lon="-0.4006880">
        <ele>253.4</ele>
        <time>2019-12-14T08:47:22Z</time>
      </trkpt>
      <trkpt lat="39.6516980" lon="-0.4006740">
        <ele>252.8</ele>
        <time>2019-12-14T08:47:23Z</time>
      </trkpt>
      <trkpt lat="39.6516570" lon="-0.4006580">
        <ele>252.0</ele>
        <time>2019-12-14T08:47:24Z</time>
      </trkpt>
      <trkpt lat="39.6516180" lon="-0.4006430">
        <ele>251.6</ele>
        <time>2019-12-14T08:47:25Z</time>
      </trkpt>
      <trkpt lat="39.6514970" lon="-0.4006440">
        <ele>250.6</ele>
        <time>2019-12-14T08:47:28Z</time>
      </trkpt>
      <trkpt lat="39.6514250" lon="-0.4006280">
        <ele>249.0</ele>
        <time>2019-12-14T08:47:30Z</time>
      </trkpt>
      <trkpt lat="39.6513250" lon="-0.4005820">
        <ele>248.0</ele>
        <time>2019-12-14T08:47:33Z</time>
      </trkpt>
      <trkpt lat="39.6512750" lon="-0.4005050">
        <ele>247.2</ele>
        <time>2019-12-14T08:47:35Z</time>
      </trkpt>
      <trkpt lat="39.6512490" lon="-0.4004790">
        <ele>246.8</ele>
        <time>2019-12-14T08:47:36Z</time>
      </trkpt>
      <trkpt lat="39.6511550" lon="-0.4004410">
        <ele>245.6</ele>
        <time>2019-12-14T08:47:39Z</time>
      </trkpt>
      <trkpt lat="39.6510790" lon="-0.4004490">
        <ele>244.2</ele>
        <time>2019-12-14T08:47:42Z</time>
      </trkpt>
      <trkpt lat="39.6510370" lon="-0.4003670">
        <ele>243.4</ele>
        <time>2019-12-14T08:47:46Z</time>
      </trkpt>
      <trkpt lat="39.6510280" lon="-0.4003610">
        <ele>243.2</ele>
        <time>2019-12-14T08:47:47Z</time>
      </trkpt>
      <trkpt lat="39.6509770" lon="-0.4002870">
        <ele>242.0</ele>
        <time>2019-12-14T08:47:53Z</time>
      </trkpt>
      <trkpt lat="39.6509590" lon="-0.4002770">
        <ele>241.8</ele>
        <time>2019-12-14T08:47:54Z</time>
      </trkpt>
      <trkpt lat="39.6508330" lon="-0.4002150">
        <ele>240.8</ele>
        <time>2019-12-14T08:47:58Z</time>
      </trkpt>
      <trkpt lat="39.6506880" lon="-0.4001940">
        <ele>239.6</ele>
        <time>2019-12-14T08:48:02Z</time>
      </trkpt>
      <trkpt lat="39.6505060" lon="-0.4001280">
        <ele>238.4</ele>
        <time>2019-12-14T08:48:07Z</time>
      </trkpt>
      <trkpt lat="39.6502820" lon="-0.4000560">
        <ele>237.2</ele>
        <time>2019-12-14T08:48:13Z</time>
      </trkpt>
      <trkpt lat="39.6501790" lon="-0.4000830">
        <ele>236.2</ele>
        <time>2019-12-14T08:48:16Z</time>
      </trkpt>
      <trkpt lat="39.6500840" lon="-0.4001220">
        <ele>235.0</ele>
        <time>2019-12-14T08:48:19Z</time>
      </trkpt>
      <trkpt lat="39.6500510" lon="-0.4001090">
        <ele>233.6</ele>
        <time>2019-12-14T08:48:23Z</time>
      </trkpt>
      <trkpt lat="39.6500550" lon="-0.4001090">
        <ele>233.4</ele>
        <time>2019-12-14T08:48:25Z</time>
      </trkpt>
      <trkpt lat="39.6500380" lon="-0.4001310">
        <ele>233.2</ele>
        <time>2019-12-14T08:50:24Z</time>
      </trkpt>
      <trkpt lat="39.6500220" lon="-0.4002440">
        <ele>233.2</ele>
        <time>2019-12-14T08:50:28Z</time>
      </trkpt>
      <trkpt lat="39.6499000" lon="-0.4009570">
        <ele>233.4</ele>
        <time>2019-12-14T08:50:46Z</time>
      </trkpt>
      <trkpt lat="39.6499090" lon="-0.4011910">
        <ele>234.6</ele>
        <time>2019-12-14T08:50:53Z</time>
      </trkpt>
      <trkpt lat="39.6499240" lon="-0.4013970">
        <ele>236.0</ele>
        <time>2019-12-14T08:50:59Z</time>
      </trkpt>
      <trkpt lat="39.6499410" lon="-0.4014940">
        <ele>237.0</ele>
        <time>2019-12-14T08:51:02Z</time>
      </trkpt>
      <trkpt lat="39.6499620" lon="-0.4016670">
        <ele>238.0</ele>
        <time>2019-12-14T08:51:07Z</time>
      </trkpt>
      <trkpt lat="39.6499940" lon="-0.4019390">
        <ele>239.2</ele>
        <time>2019-12-14T08:51:14Z</time>
      </trkpt>
      <trkpt lat="39.6500170" lon="-0.4022390">
        <ele>240.2</ele>
        <time>2019-12-14T08:51:22Z</time>
      </trkpt>
      <trkpt lat="39.6500240" lon="-0.4024090">
        <ele>241.2</ele>
        <time>2019-12-14T08:51:27Z</time>
      </trkpt>
      <trkpt lat="39.6500410" lon="-0.4025550">
        <ele>242.4</ele>
        <time>2019-12-14T08:51:32Z</time>
      </trkpt>
      <trkpt lat="39.6500860" lon="-0.4026920">
        <ele>243.8</ele>
        <time>2019-12-14T08:51:37Z</time>
      </trkpt>
      <trkpt lat="39.6501460" lon="-0.4027850">
        <ele>245.2</ele>
        <time>2019-12-14T08:51:41Z</time>
      </trkpt>
      <trkpt lat="39.6501930" lon="-0.4028550">
        <ele>246.2</ele>
        <time>2019-12-14T08:51:44Z</time>
      </trkpt>
      <trkpt lat="39.6502450" lon="-0.4029300">
        <ele>247.2</ele>
        <time>2019-12-14T08:51:47Z</time>
      </trkpt>
      <trkpt lat="39.6502960" lon="-0.4029990">
        <ele>248.4</ele>
        <time>2019-12-14T08:51:50Z</time>
      </trkpt>
      <trkpt lat="39.6503830" lon="-0.4031200">
        <ele>249.6</ele>
        <time>2019-12-14T08:51:55Z</time>
      </trkpt>
      <trkpt lat="39.6504670" lon="-0.4032120">
        <ele>250.6</ele>
        <time>2019-12-14T08:51:59Z</time>
      </trkpt>
      <trkpt lat="39.6505420" lon="-0.4033040">
        <ele>251.2</ele>
        <time>2019-12-14T08:52:04Z</time>
      </trkpt>
      <trkpt lat="39.6505370" lon="-0.4033430">
        <ele>251.4</ele>
        <time>2019-12-14T08:52:07Z</time>
      </trkpt>
      <trkpt lat="39.6504340" lon="-0.4033360">
        <ele>251.2</ele>
        <time>2019-12-14T08:52:17Z</time>
      </trkpt>
      <trkpt lat="39.6504900" lon="-0.4037120">
        <ele>250.0</ele>
        <time>2019-12-14T08:52:26Z</time>
      </trkpt>
      <trkpt lat="39.6504930" lon="-0.4037610">
        <ele>249.6</ele>
        <time>2019-12-14T08:52:27Z</time>
      </trkpt>
      <trkpt lat="39.6505160" lon="-0.4038880">
        <ele>248.6</ele>
        <time>2019-12-14T08:52:30Z</time>
      </trkpt>
      <trkpt lat="39.6505160" lon="-0.4039400">
        <ele>247.2</ele>
        <time>2019-12-14T08:52:31Z</time>
      </trkpt>
      <trkpt lat="39.6505170" lon="-0.4039900">
        <ele>246.6</ele>
        <time>2019-12-14T08:52:32Z</time>
      </trkpt>
      <trkpt lat="39.6505160" lon="-0.4040860">
        <ele>246.0</ele>
        <time>2019-12-14T08:52:34Z</time>
      </trkpt>
      <trkpt lat="39.6505310" lon="-0.4041830">
        <ele>244.8</ele>
        <time>2019-12-14T08:52:36Z</time>
      </trkpt>
      <trkpt lat="39.6505580" lon="-0.4042670">
        <ele>243.4</ele>
        <time>2019-12-14T08:52:38Z</time>
      </trkpt>
      <trkpt lat="39.6505700" lon="-0.4043570">
        <ele>242.4</ele>
        <time>2019-12-14T08:52:40Z</time>
      </trkpt>
      <trkpt lat="39.6505930" lon="-0.4044510">
        <ele>241.2</ele>
        <time>2019-12-14T08:52:42Z</time>
      </trkpt>
      <trkpt lat="39.6506010" lon="-0.4045080">
        <ele>240.6</ele>
        <time>2019-12-14T08:52:43Z</time>
      </trkpt>
      <trkpt lat="39.6506050" lon="-0.4045720">
        <ele>240.0</ele>
        <time>2019-12-14T08:52:44Z</time>
      </trkpt>
      <trkpt lat="39.6506230" lon="-0.4046950">
        <ele>239.2</ele>
        <time>2019-12-14T08:52:46Z</time>
      </trkpt>
      <trkpt lat="39.6506290" lon="-0.4047490">
        <ele>239.0</ele>
        <time>2019-12-14T08:52:47Z</time>
      </trkpt>
      <trkpt lat="39.6506450" lon="-0.4048980">
        <ele>237.4</ele>
        <time>2019-12-14T08:52:50Z</time>
      </trkpt>
      <trkpt lat="39.6506610" lon="-0.4049900">
        <ele>236.0</ele>
        <time>2019-12-14T08:52:52Z</time>
      </trkpt>
      <trkpt lat="39.6506760" lon="-0.4050970">
        <ele>234.6</ele>
        <time>2019-12-14T08:52:55Z</time>
      </trkpt>
      <trkpt lat="39.6506710" lon="-0.4051540">
        <ele>233.4</ele>
        <time>2019-12-14T08:52:57Z</time>
      </trkpt>
      <trkpt lat="39.6506620" lon="-0.4051920">
        <ele>232.2</ele>
        <time>2019-12-14T08:52:59Z</time>
      </trkpt>
      <trkpt lat="39.6506610" lon="-0.4052680">
        <ele>230.8</ele>
        <time>2019-12-14T08:53:01Z</time>
      </trkpt>
      <trkpt lat="39.6506810" lon="-0.4054440">
        <ele>229.6</ele>
        <time>2019-12-14T08:53:04Z</time>
      </trkpt>
      <trkpt lat="39.6507250" lon="-0.4055920">
        <ele>228.0</ele>
        <time>2019-12-14T08:53:07Z</time>
      </trkpt>
      <trkpt lat="39.6507630" lon="-0.4056750">
        <ele>226.8</ele>
        <time>2019-12-14T08:53:09Z</time>
      </trkpt>
      <trkpt lat="39.6507870" lon="-0.4057460">
        <ele>225.8</ele>
        <time>2019-12-14T08:53:11Z</time>
      </trkpt>
      <trkpt lat="39.6508060" lon="-0.4058160">
        <ele>224.6</ele>
        <time>2019-12-14T08:53:13Z</time>
      </trkpt>
      <trkpt lat="39.6508400" lon="-0.4059220">
        <ele>223.0</ele>
        <time>2019-12-14T08:53:16Z</time>
      </trkpt>
      <trkpt lat="39.6508640" lon="-0.4060210">
        <ele>222.0</ele>
        <time>2019-12-14T08:53:19Z</time>
      </trkpt>
      <trkpt lat="39.6508540" lon="-0.4061700">
        <ele>220.8</ele>
        <time>2019-12-14T08:53:25Z</time>
      </trkpt>
      <trkpt lat="39.6508320" lon="-0.4062100">
        <ele>219.8</ele>
        <time>2019-12-14T08:53:28Z</time>
      </trkpt>
      <trkpt lat="39.6508140" lon="-0.4062740">
        <ele>218.8</ele>
        <time>2019-12-14T08:53:31Z</time>
      </trkpt>
      <trkpt lat="39.6507780" lon="-0.4063450">
        <ele>217.8</ele>
        <time>2019-12-14T08:53:34Z</time>
      </trkpt>
      <trkpt lat="39.6506910" lon="-0.4065640">
        <ele>216.8</ele>
        <time>2019-12-14T08:53:42Z</time>
      </trkpt>
      <trkpt lat="39.6505650" lon="-0.4067890">
        <ele>215.6</ele>
        <time>2019-12-14T08:53:49Z</time>
      </trkpt>
      <trkpt lat="39.6504860" lon="-0.4068970">
        <ele>214.6</ele>
        <time>2019-12-14T08:53:52Z</time>
      </trkpt>
      <trkpt lat="39.6504720" lon="-0.4069400">
        <ele>214.4</ele>
        <time>2019-12-14T08:53:53Z</time>
      </trkpt>
      <trkpt lat="39.6504410" lon="-0.4070660">
        <ele>213.4</ele>
        <time>2019-12-14T08:53:56Z</time>
      </trkpt>
      <trkpt lat="39.6503470" lon="-0.4072860">
        <ele>212.4</ele>
        <time>2019-12-14T08:54:01Z</time>
      </trkpt>
      <trkpt lat="39.6502650" lon="-0.4073880">
        <ele>212.2</ele>
        <time>2019-12-14T08:54:04Z</time>
      </trkpt>
      <trkpt lat="39.6502020" lon="-0.4074940">
        <ele>211.0</ele>
        <time>2019-12-14T08:54:07Z</time>
      </trkpt>
      <trkpt lat="39.6500640" lon="-0.4078070">
        <ele>210.0</ele>
        <time>2019-12-14T08:54:19Z</time>
      </trkpt>
      <trkpt lat="39.6500680" lon="-0.4078210">
        <ele>210.2</ele>
        <time>2019-12-14T08:54:21Z</time>
      </trkpt>
      <trkpt lat="39.6500720" lon="-0.4078340">
        <ele>210.0</ele>
        <time>2019-12-14T08:54:46Z</time>
      </trkpt>
      <trkpt lat="39.6500720" lon="-0.4079480">
        <ele>210.0</ele>
        <time>2019-12-14T08:54:50Z</time>
      </trkpt>
      <trkpt lat="39.6500810" lon="-0.4086560">
        <ele>211.2</ele>
        <time>2019-12-14T08:55:09Z</time>
      </trkpt>
      <trkpt lat="39.6501920" lon="-0.4087990">
        <ele>212.4</ele>
        <time>2019-12-14T08:55:14Z</time>
      </trkpt>
      <trkpt lat="39.6505830" lon="-0.4092600">
        <ele>213.4</ele>
        <time>2019-12-14T08:55:30Z</time>
      </trkpt>
      <trkpt lat="39.6506220" lon="-0.4093440">
        <ele>213.4</ele>
        <time>2019-12-14T08:55:33Z</time>
      </trkpt>
      <trkpt lat="39.6506310" lon="-0.4094150">
        <ele>213.6</ele>
        <time>2019-12-14T08:55:35Z</time>
      </trkpt>
      <trkpt lat="39.6506060" lon="-0.4095320">
        <ele>214.6</ele>
        <time>2019-12-14T08:55:38Z</time>
      </trkpt>
      <trkpt lat="39.6505900" lon="-0.4095720">
        <ele>215.0</ele>
        <time>2019-12-14T08:55:39Z</time>
      </trkpt>
      <trkpt lat="39.6505580" lon="-0.4096600">
        <ele>215.6</ele>
        <time>2019-12-14T08:55:41Z</time>
      </trkpt>
      <trkpt lat="39.6505280" lon="-0.4098170">
        <ele>215.8</ele>
        <time>2019-12-14T08:55:45Z</time>
      </trkpt>
      <trkpt lat="39.6506270" lon="-0.4099150">
        <ele>216.0</ele>
        <time>2019-12-14T08:55:49Z</time>
      </trkpt>
      <trkpt lat="39.6508950" lon="-0.4100900">
        <ele>216.8</ele>
        <time>2019-12-14T08:55:59Z</time>
      </trkpt>
      <trkpt lat="39.6510110" lon="-0.4101690">
        <ele>217.8</ele>
        <time>2019-12-14T08:56:04Z</time>
      </trkpt>
      <trkpt lat="39.6511260" lon="-0.4102350">
        <ele>219.0</ele>
        <time>2019-12-14T08:56:09Z</time>
      </trkpt>
      <trkpt lat="39.6511930" lon="-0.4102790">
        <ele>220.2</ele>
        <time>2019-12-14T08:56:12Z</time>
      </trkpt>
      <trkpt lat="39.6512890" lon="-0.4103400">
        <ele>221.4</ele>
        <time>2019-12-14T08:56:16Z</time>
      </trkpt>
      <trkpt lat="39.6513900" lon="-0.4104110">
        <ele>222.6</ele>
        <time>2019-12-14T08:56:20Z</time>
      </trkpt>
      <trkpt lat="39.6514710" lon="-0.4104640">
        <ele>224.0</ele>
        <time>2019-12-14T08:56:23Z</time>
      </trkpt>
      <trkpt lat="39.6515880" lon="-0.4105310">
        <ele>225.0</ele>
        <time>2019-12-14T08:56:27Z</time>
      </trkpt>
      <trkpt lat="39.6519110" lon="-0.4107360">
        <ele>226.0</ele>
        <time>2019-12-14T08:56:38Z</time>
      </trkpt>
      <trkpt lat="39.6520530" lon="-0.4108910">
        <ele>227.2</ele>
        <time>2019-12-14T08:56:43Z</time>
      </trkpt>
      <trkpt lat="39.6520790" lon="-0.4109350">
        <ele>227.2</ele>
        <time>2019-12-14T08:56:44Z</time>
      </trkpt>
      <trkpt lat="39.6520950" lon="-0.4114630">
        <ele>227.4</ele>
        <time>2019-12-14T08:56:53Z</time>
      </trkpt>
      <trkpt lat="39.6519050" lon="-0.4120340">
        <ele>227.8</ele>
        <time>2019-12-14T08:57:03Z</time>
      </trkpt>
      <trkpt lat="39.6518390" lon="-0.4121510">
        <ele>228.0</ele>
        <time>2019-12-14T08:57:06Z</time>
      </trkpt>
      <trkpt lat="39.6517040" lon="-0.4123230">
        <ele>229.4</ele>
        <time>2019-12-14T08:57:13Z</time>
      </trkpt>
      <trkpt lat="39.6516460" lon="-0.4123840">
        <ele>230.6</ele>
        <time>2019-12-14T08:57:16Z</time>
      </trkpt>
      <trkpt lat="39.6515680" lon="-0.4124390">
        <ele>231.6</ele>
        <time>2019-12-14T08:57:19Z</time>
      </trkpt>
      <trkpt lat="39.6515090" lon="-0.4124760">
        <ele>232.6</ele>
        <time>2019-12-14T08:57:21Z</time>
      </trkpt>
      <trkpt lat="39.6514470" lon="-0.4125120">
        <ele>233.8</ele>
        <time>2019-12-14T08:57:23Z</time>
      </trkpt>
      <trkpt lat="39.6513440" lon="-0.4125690">
        <ele>235.0</ele>
        <time>2019-12-14T08:57:26Z</time>
      </trkpt>
      <trkpt lat="39.6511970" lon="-0.4126450">
        <ele>236.2</ele>
        <time>2019-12-14T08:57:30Z</time>
      </trkpt>
      <trkpt lat="39.6509890" lon="-0.4127660">
        <ele>236.8</ele>
        <time>2019-12-14T08:57:36Z</time>
      </trkpt>
      <trkpt lat="39.6510130" lon="-0.4128960">
        <ele>237.2</ele>
        <time>2019-12-14T08:57:40Z</time>
      </trkpt>
      <trkpt lat="39.6511160" lon="-0.4129130">
        <ele>238.0</ele>
        <time>2019-12-14T08:57:43Z</time>
      </trkpt>
      <trkpt lat="39.6511880" lon="-0.4129080">
        <ele>238.6</ele>
        <time>2019-12-14T08:57:45Z</time>
      </trkpt>
      <trkpt lat="39.6514540" lon="-0.4129340">
        <ele>239.6</ele>
        <time>2019-12-14T08:57:53Z</time>
      </trkpt>
      <trkpt lat="39.6516510" lon="-0.4130830">
        <ele>240.8</ele>
        <time>2019-12-14T08:58:00Z</time>
      </trkpt>
      <trkpt lat="39.6517620" lon="-0.4131960">
        <ele>241.8</ele>
        <time>2019-12-14T08:58:04Z</time>
      </trkpt>
      <trkpt lat="39.6520610" lon="-0.4134340">
        <ele>243.0</ele>
        <time>2019-12-14T08:58:13Z</time>
      </trkpt>
      <trkpt lat="39.6525310" lon="-0.4134170">
        <ele>244.2</ele>
        <time>2019-12-14T08:58:27Z</time>
      </trkpt>
      <trkpt lat="39.6528060" lon="-0.4132330">
        <ele>245.4</ele>
        <time>2019-12-14T08:58:35Z</time>
      </trkpt>
      <trkpt lat="39.6529720" lon="-0.4131480">
        <ele>246.6</ele>
        <time>2019-12-14T08:58:40Z</time>
      </trkpt>
      <trkpt lat="39.6531010" lon="-0.4130620">
        <ele>247.6</ele>
        <time>2019-12-14T08:58:45Z</time>
      </trkpt>
      <trkpt lat="39.6531700" lon="-0.4129240">
        <ele>248.4</ele>
        <time>2019-12-14T08:58:52Z</time>
      </trkpt>
      <trkpt lat="39.6532020" lon="-0.4129050">
        <ele>248.4</ele>
        <time>2019-12-14T08:59:51Z</time>
      </trkpt>
      <trkpt lat="39.6535870" lon="-0.4126080">
        <ele>248.4</ele>
        <time>2019-12-14T09:00:03Z</time>
      </trkpt>
      <trkpt lat="39.6537960" lon="-0.4123660">
        <ele>248.8</ele>
        <time>2019-12-14T09:00:10Z</time>
      </trkpt>
      <trkpt lat="39.6539360" lon="-0.4122320">
        <ele>249.2</ele>
        <time>2019-12-14T09:00:14Z</time>
      </trkpt>
      <trkpt lat="39.6540510" lon="-0.4121130">
        <ele>250.0</ele>
        <time>2019-12-14T09:00:17Z</time>
      </trkpt>
      <trkpt lat="39.6541110" lon="-0.4120020">
        <ele>250.2</ele>
        <time>2019-12-14T09:00:19Z</time>
      </trkpt>
      <trkpt lat="39.6543240" lon="-0.4115040">
        <ele>250.4</ele>
        <time>2019-12-14T09:00:27Z</time>
      </trkpt>
      <trkpt lat="39.6543010" lon="-0.4107440">
        <ele>249.6</ele>
        <time>2019-12-14T09:00:36Z</time>
      </trkpt>
      <trkpt lat="39.6542990" lon="-0.4104540">
        <ele>249.0</ele>
        <time>2019-12-14T09:00:39Z</time>
      </trkpt>
      <trkpt lat="39.6543320" lon="-0.4101660">
        <ele>247.8</ele>
        <time>2019-12-14T09:00:42Z</time>
      </trkpt>
      <trkpt lat="39.6544320" lon="-0.4093990">
        <ele>247.0</ele>
        <time>2019-12-14T09:00:51Z</time>
      </trkpt>
      <trkpt lat="39.6545890" lon="-0.4087000">
        <ele>248.2</ele>
        <time>2019-12-14T09:00:59Z</time>
      </trkpt>
      <trkpt lat="39.6547780" lon="-0.4080330">
        <ele>248.2</ele>
        <time>2019-12-14T09:01:05Z</time>
      </trkpt>
      <trkpt lat="39.6549350" lon="-0.4073790">
        <ele>246.0</ele>
        <time>2019-12-14T09:01:10Z</time>
      </trkpt>
      <trkpt lat="39.6549630" lon="-0.4072510">
        <ele>245.0</ele>
        <time>2019-12-14T09:01:11Z</time>
      </trkpt>
      <trkpt lat="39.6549910" lon="-0.4071220">
        <ele>243.8</ele>
        <time>2019-12-14T09:01:12Z</time>
      </trkpt>
      <trkpt lat="39.6550610" lon="-0.4068700">
        <ele>242.4</ele>
        <time>2019-12-14T09:01:14Z</time>
      </trkpt>
      <trkpt lat="39.6551090" lon="-0.4067500">
        <ele>241.8</ele>
        <time>2019-12-14T09:01:15Z</time>
      </trkpt>
      <trkpt lat="39.6551650" lon="-0.4066340">
        <ele>241.2</ele>
        <time>2019-12-14T09:01:16Z</time>
      </trkpt>
      <trkpt lat="39.6553380" lon="-0.4063080">
        <ele>240.0</ele>
        <time>2019-12-14T09:01:19Z</time>
      </trkpt>
      <trkpt lat="39.6554170" lon="-0.4060880">
        <ele>239.0</ele>
        <time>2019-12-14T09:01:21Z</time>
      </trkpt>
      <trkpt lat="39.6554360" lon="-0.4059760">
        <ele>238.4</ele>
        <time>2019-12-14T09:01:22Z</time>
      </trkpt>
      <trkpt lat="39.6554280" lon="-0.4056810">
        <ele>237.4</ele>
        <time>2019-12-14T09:01:25Z</time>
      </trkpt>
      <trkpt lat="39.6554230" lon="-0.4055210">
        <ele>237.4</ele>
        <time>2019-12-14T09:01:27Z</time>
      </trkpt>
      <trkpt lat="39.6555620" lon="-0.4051610">
        <ele>237.8</ele>
        <time>2019-12-14T09:01:34Z</time>
      </trkpt>
      <trkpt lat="39.6556190" lon="-0.4050930">
        <ele>238.6</ele>
        <time>2019-12-14T09:01:36Z</time>
      </trkpt>
      <trkpt lat="39.6557020" lon="-0.4050040">
        <ele>239.8</ele>
        <time>2019-12-14T09:01:39Z</time>
      </trkpt>
      <trkpt lat="39.6557530" lon="-0.4049280">
        <ele>241.0</ele>
        <time>2019-12-14T09:01:41Z</time>
      </trkpt>
      <trkpt lat="39.6558350" lon="-0.4047940">
        <ele>242.2</ele>
        <time>2019-12-14T09:01:44Z</time>
      </trkpt>
      <trkpt lat="39.6560100" lon="-0.4044690">
        <ele>242.8</ele>
        <time>2019-12-14T09:01:50Z</time>
      </trkpt>
      <trkpt lat="39.6564120" lon="-0.4042920">
        <ele>243.0</ele>
        <time>2019-12-14T09:01:58Z</time>
      </trkpt>
      <trkpt lat="39.6565060" lon="-0.4042700">
        <ele>243.0</ele>
        <time>2019-12-14T09:02:00Z</time>
      </trkpt>
      <trkpt lat="39.6565890" lon="-0.4042330">
        <ele>243.2</ele>
        <time>2019-12-14T09:02:02Z</time>
      </trkpt>
      <trkpt lat="39.6567150" lon="-0.4040080">
        <ele>244.2</ele>
        <time>2019-12-14T09:02:07Z</time>
      </trkpt>
      <trkpt lat="39.6567360" lon="-0.4039480">
        <ele>245.0</ele>
        <time>2019-12-14T09:02:08Z</time>
      </trkpt>
      <trkpt lat="39.6567620" lon="-0.4038890">
        <ele>245.2</ele>
        <time>2019-12-14T09:02:09Z</time>
      </trkpt>
      <trkpt lat="39.6568710" lon="-0.4037360">
        <ele>246.4</ele>
        <time>2019-12-14T09:02:12Z</time>
      </trkpt>
      <trkpt lat="39.6569110" lon="-0.4036930">
        <ele>246.6</ele>
        <time>2019-12-14T09:02:13Z</time>
      </trkpt>
      <trkpt lat="39.6574000" lon="-0.4033460">
        <ele>247.4</ele>
        <time>2019-12-14T09:02:25Z</time>
      </trkpt>
      <trkpt lat="39.6574370" lon="-0.4033210">
        <ele>247.6</ele>
        <time>2019-12-14T09:02:26Z</time>
      </trkpt>
      <trkpt lat="39.6575750" lon="-0.4032230">
        <ele>248.6</ele>
        <time>2019-12-14T09:02:30Z</time>
      </trkpt>
      <trkpt lat="39.6577540" lon="-0.4030920">
        <ele>250.0</ele>
        <time>2019-12-14T09:02:35Z</time>
      </trkpt>
      <trkpt lat="39.6579740" lon="-0.4030080">
        <ele>251.0</ele>
        <time>2019-12-14T09:02:41Z</time>
      </trkpt>
      <trkpt lat="39.6582310" lon="-0.4030400">
        <ele>252.2</ele>
        <time>2019-12-14T09:02:48Z</time>
      </trkpt>
      <trkpt lat="39.6584120" lon="-0.4030690">
        <ele>253.2</ele>
        <time>2019-12-14T09:02:53Z</time>
      </trkpt>
      <trkpt lat="39.6584530" lon="-0.4030750">
        <ele>253.4</ele>
        <time>2019-12-14T09:02:54Z</time>
      </trkpt>
      <trkpt lat="39.6586220" lon="-0.4029660">
        <ele>254.2</ele>
        <time>2019-12-14T09:02:58Z</time>
      </trkpt>
      <trkpt lat="39.6586550" lon="-0.4027930">
        <ele>254.6</ele>
        <time>2019-12-14T09:03:01Z</time>
      </trkpt>
      <trkpt lat="39.6587700" lon="-0.4025030">
        <ele>255.4</ele>
        <time>2019-12-14T09:03:08Z</time>
      </trkpt>
      <trkpt lat="39.6589670" lon="-0.4024020">
        <ele>256.8</ele>
        <time>2019-12-14T09:03:15Z</time>
      </trkpt>
      <trkpt lat="39.6591300" lon="-0.4024330">
        <ele>258.0</ele>
        <time>2019-12-14T09:03:20Z</time>
      </trkpt>
      <trkpt lat="39.6593100" lon="-0.4024120">
        <ele>259.0</ele>
        <time>2019-12-14T09:03:25Z</time>
      </trkpt>
      <trkpt lat="39.6598250" lon="-0.4021440">
        <ele>260.0</ele>
        <time>2019-12-14T09:03:40Z</time>
      </trkpt>
      <trkpt lat="39.6598540" lon="-0.4021260">
        <ele>260.0</ele>
        <time>2019-12-14T09:03:41Z</time>
      </trkpt>
      <trkpt lat="39.6600920" lon="-0.4020070">
        <ele>261.2</ele>
        <time>2019-12-14T09:03:49Z</time>
      </trkpt>
      <trkpt lat="39.6603120" lon="-0.4019270">
        <ele>262.2</ele>
        <time>2019-12-14T09:03:56Z</time>
      </trkpt>
      <trkpt lat="39.6606160" lon="-0.4018120">
        <ele>263.2</ele>
        <time>2019-12-14T09:04:06Z</time>
      </trkpt>
      <trkpt lat="39.6607720" lon="-0.4017300">
        <ele>264.4</ele>
        <time>2019-12-14T09:04:11Z</time>
      </trkpt>
      <trkpt lat="39.6612090" lon="-0.4015320">
        <ele>265.6</ele>
        <time>2019-12-14T09:04:24Z</time>
      </trkpt>
      <trkpt lat="39.6613190" lon="-0.4014060">
        <ele>266.6</ele>
        <time>2019-12-14T09:04:28Z</time>
      </trkpt>
      <trkpt lat="39.6614600" lon="-0.4011850">
        <ele>267.6</ele>
        <time>2019-12-14T09:04:34Z</time>
      </trkpt>
      <trkpt lat="39.6616290" lon="-0.4009510">
        <ele>268.6</ele>
        <time>2019-12-14T09:04:41Z</time>
      </trkpt>
      <trkpt lat="39.6617080" lon="-0.4008620">
        <ele>269.8</ele>
        <time>2019-12-14T09:04:44Z</time>
      </trkpt>
      <trkpt lat="39.6617880" lon="-0.4007720">
        <ele>270.8</ele>
        <time>2019-12-14T09:04:47Z</time>
      </trkpt>
      <trkpt lat="39.6618700" lon="-0.4006870">
        <ele>271.8</ele>
        <time>2019-12-14T09:04:50Z</time>
      </trkpt>
      <trkpt lat="39.6620290" lon="-0.4005140">
        <ele>273.0</ele>
        <time>2019-12-14T09:04:56Z</time>
      </trkpt>
      <trkpt lat="39.6621690" lon="-0.4003380">
        <ele>274.2</ele>
        <time>2019-12-14T09:05:01Z</time>
      </trkpt>
      <trkpt lat="39.6623300" lon="-0.4001710">
        <ele>274.8</ele>
        <time>2019-12-14T09:05:06Z</time>
      </trkpt>
      <trkpt lat="39.6626630" lon="-0.4000680">
        <ele>275.2</ele>
        <time>2019-12-14T09:05:15Z</time>
      </trkpt>
      <trkpt lat="39.6631010" lon="-0.4001770">
        <ele>276.2</ele>
        <time>2019-12-14T09:05:31Z</time>
      </trkpt>
      <trkpt lat="39.6631840" lon="-0.4002580">
        <ele>277.4</ele>
        <time>2019-12-14T09:05:35Z</time>
      </trkpt>
      <trkpt lat="39.6632620" lon="-0.4003380">
        <ele>278.8</ele>
        <time>2019-12-14T09:05:39Z</time>
      </trkpt>
      <trkpt lat="39.6633200" lon="-0.4003950">
        <ele>279.8</ele>
        <time>2019-12-14T09:05:42Z</time>
      </trkpt>
      <trkpt lat="39.6634040" lon="-0.4004700">
        <ele>281.0</ele>
        <time>2019-12-14T09:05:46Z</time>
      </trkpt>
      <trkpt lat="39.6635270" lon="-0.4005640">
        <ele>282.4</ele>
        <time>2019-12-14T09:05:52Z</time>
      </trkpt>
      <trkpt lat="39.6636100" lon="-0.4006670">
        <ele>283.6</ele>
        <time>2019-12-14T09:05:57Z</time>
      </trkpt>
      <trkpt lat="39.6636810" lon="-0.4007480">
        <ele>284.6</ele>
        <time>2019-12-14T09:06:01Z</time>
      </trkpt>
      <trkpt lat="39.6637630" lon="-0.4008280">
        <ele>285.8</ele>
        <time>2019-12-14T09:06:05Z</time>
      </trkpt>
      <trkpt lat="39.6639530" lon="-0.4009920">
        <ele>287.0</ele>
        <time>2019-12-14T09:06:14Z</time>
      </trkpt>
      <trkpt lat="39.6640760" lon="-0.4011320">
        <ele>288.0</ele>
        <time>2019-12-14T09:06:21Z</time>
      </trkpt>
      <trkpt lat="39.6641870" lon="-0.4012370">
        <ele>289.4</ele>
        <time>2019-12-14T09:06:28Z</time>
      </trkpt>
      <trkpt lat="39.6642490" lon="-0.4013000">
        <ele>290.6</ele>
        <time>2019-12-14T09:06:32Z</time>
      </trkpt>
      <trkpt lat="39.6643150" lon="-0.4013620">
        <ele>291.8</ele>
        <time>2019-12-14T09:06:36Z</time>
      </trkpt>
      <trkpt lat="39.6643600" lon="-0.4014070">
        <ele>293.0</ele>
        <time>2019-12-14T09:06:39Z</time>
      </trkpt>
      <trkpt lat="39.6643890" lon="-0.4014410">
        <ele>293.8</ele>
        <time>2019-12-14T09:06:41Z</time>
      </trkpt>
      <trkpt lat="39.6643990" lon="-0.4014920">
        <ele>294.2</ele>
        <time>2019-12-14T09:06:43Z</time>
      </trkpt>
      <trkpt lat="39.6644140" lon="-0.4015890">
        <ele>295.4</ele>
        <time>2019-12-14T09:06:47Z</time>
      </trkpt>
      <trkpt lat="39.6644440" lon="-0.4016790">
        <ele>296.4</ele>
        <time>2019-12-14T09:06:51Z</time>
      </trkpt>
      <trkpt lat="39.6644860" lon="-0.4017600">
        <ele>297.8</ele>
        <time>2019-12-14T09:06:55Z</time>
      </trkpt>
      <trkpt lat="39.6645230" lon="-0.4018220">
        <ele>299.0</ele>
        <time>2019-12-14T09:06:58Z</time>
      </trkpt>
      <trkpt lat="39.6645640" lon="-0.4018790">
        <ele>300.0</ele>
        <time>2019-12-14T09:07:01Z</time>
      </trkpt>
      <trkpt lat="39.6646060" lon="-0.4019570">
        <ele>301.0</ele>
        <time>2019-12-14T09:07:05Z</time>
      </trkpt>
      <trkpt lat="39.6646660" lon="-0.4020420">
        <ele>302.2</ele>
        <time>2019-12-14T09:07:10Z</time>
      </trkpt>
      <trkpt lat="39.6647010" lon="-0.4020920">
        <ele>303.4</ele>
        <time>2019-12-14T09:07:13Z</time>
      </trkpt>
      <trkpt lat="39.6647210" lon="-0.4021280">
        <ele>304.6</ele>
        <time>2019-12-14T09:07:15Z</time>
      </trkpt>
      <trkpt lat="39.6647700" lon="-0.4021940">
        <ele>305.8</ele>
        <time>2019-12-14T09:07:19Z</time>
      </trkpt>
      <trkpt lat="39.6648160" lon="-0.4022680">
        <ele>307.2</ele>
        <time>2019-12-14T09:07:23Z</time>
      </trkpt>
      <trkpt lat="39.6648720" lon="-0.4023650">
        <ele>308.4</ele>
        <time>2019-12-14T09:07:28Z</time>
      </trkpt>
      <trkpt lat="39.6649070" lon="-0.4024320">
        <ele>309.4</ele>
        <time>2019-12-14T09:07:31Z</time>
      </trkpt>
      <trkpt lat="39.6649750" lon="-0.4025300">
        <ele>310.6</ele>
        <time>2019-12-14T09:07:36Z</time>
      </trkpt>
      <trkpt lat="39.6650310" lon="-0.4025940">
        <ele>311.8</ele>
        <time>2019-12-14T09:07:40Z</time>
      </trkpt>
      <trkpt lat="39.6650840" lon="-0.4026800">
        <ele>313.0</ele>
        <time>2019-12-14T09:07:45Z</time>
      </trkpt>
      <trkpt lat="39.6651670" lon="-0.4027840">
        <ele>314.0</ele>
        <time>2019-12-14T09:07:51Z</time>
      </trkpt>
      <trkpt lat="39.6652160" lon="-0.4028500">
        <ele>315.2</ele>
        <time>2019-12-14T09:07:55Z</time>
      </trkpt>
      <trkpt lat="39.6652710" lon="-0.4029240">
        <ele>316.2</ele>
        <time>2019-12-14T09:08:00Z</time>
      </trkpt>
      <trkpt lat="39.6653270" lon="-0.4029810">
        <ele>317.4</ele>
        <time>2019-12-14T09:08:04Z</time>
      </trkpt>
      <trkpt lat="39.6653830" lon="-0.4030430">
        <ele>318.6</ele>
        <time>2019-12-14T09:08:08Z</time>
      </trkpt>
      <trkpt lat="39.6654490" lon="-0.4031250">
        <ele>319.6</ele>
        <time>2019-12-14T09:08:13Z</time>
      </trkpt>
      <trkpt lat="39.6655060" lon="-0.4032060">
        <ele>321.0</ele>
        <time>2019-12-14T09:08:18Z</time>
      </trkpt>
      <trkpt lat="39.6655440" lon="-0.4032480">
        <ele>322.0</ele>
        <time>2019-12-14T09:08:21Z</time>
      </trkpt>
      <trkpt lat="39.6656070" lon="-0.4033290">
        <ele>323.2</ele>
        <time>2019-12-14T09:08:26Z</time>
      </trkpt>
      <trkpt lat="39.6656510" lon="-0.4034000">
        <ele>324.4</ele>
        <time>2019-12-14T09:08:30Z</time>
      </trkpt>
      <trkpt lat="39.6656740" lon="-0.4034900">
        <ele>325.4</ele>
        <time>2019-12-14T09:08:34Z</time>
      </trkpt>
      <trkpt lat="39.6656850" lon="-0.4035800">
        <ele>326.8</ele>
        <time>2019-12-14T09:08:38Z</time>
      </trkpt>
      <trkpt lat="39.6656970" lon="-0.4036580">
        <ele>327.8</ele>
        <time>2019-12-14T09:08:42Z</time>
      </trkpt>
      <trkpt lat="39.6657170" lon="-0.4037590">
        <ele>329.0</ele>
        <time>2019-12-14T09:08:47Z</time>
      </trkpt>
      <trkpt lat="39.6657430" lon="-0.4038360">
        <ele>330.0</ele>
        <time>2019-12-14T09:08:51Z</time>
      </trkpt>
      <trkpt lat="39.6657640" lon="-0.4038980">
        <ele>331.0</ele>
        <time>2019-12-14T09:08:54Z</time>
      </trkpt>
      <trkpt lat="39.6657990" lon="-0.4039700">
        <ele>332.2</ele>
        <time>2019-12-14T09:08:58Z</time>
      </trkpt>
      <trkpt lat="39.6658520" lon="-0.4040710">
        <ele>333.2</ele>
        <time>2019-12-14T09:09:04Z</time>
      </trkpt>
      <trkpt lat="39.6658790" lon="-0.4041200">
        <ele>334.2</ele>
        <time>2019-12-14T09:09:07Z</time>
      </trkpt>
      <trkpt lat="39.6659100" lon="-0.4041740">
        <ele>335.6</ele>
        <time>2019-12-14T09:09:10Z</time>
      </trkpt>
      <trkpt lat="39.6659490" lon="-0.4042640">
        <ele>336.6</ele>
        <time>2019-12-14T09:09:15Z</time>
      </trkpt>
      <trkpt lat="39.6659680" lon="-0.4043300">
        <ele>337.8</ele>
        <time>2019-12-14T09:09:19Z</time>
      </trkpt>
      <trkpt lat="39.6659870" lon="-0.4043960">
        <ele>339.2</ele>
        <time>2019-12-14T09:09:23Z</time>
      </trkpt>
      <trkpt lat="39.6659980" lon="-0.4044670">
        <ele>340.4</ele>
        <time>2019-12-14T09:09:27Z</time>
      </trkpt>
      <trkpt lat="39.6660010" lon="-0.4045620">
        <ele>341.6</ele>
        <time>2019-12-14T09:09:32Z</time>
      </trkpt>
      <trkpt lat="39.6660030" lon="-0.4045800">
        <ele>341.8</ele>
        <time>2019-12-14T09:09:33Z</time>
      </trkpt>
      <trkpt lat="39.6660220" lon="-0.4046430">
        <ele>342.8</ele>
        <time>2019-12-14T09:09:37Z</time>
      </trkpt>
      <trkpt lat="39.6660460" lon="-0.4046850">
        <ele>343.8</ele>
        <time>2019-12-14T09:09:40Z</time>
      </trkpt>
      <trkpt lat="39.6660830" lon="-0.4047450">
        <ele>344.8</ele>
        <time>2019-12-14T09:09:44Z</time>
      </trkpt>
      <trkpt lat="39.6661390" lon="-0.4047830">
        <ele>346.0</ele>
        <time>2019-12-14T09:09:48Z</time>
      </trkpt>
      <trkpt lat="39.6662160" lon="-0.4047550">
        <ele>347.2</ele>
        <time>2019-12-14T09:09:53Z</time>
      </trkpt>
      <trkpt lat="39.6662810" lon="-0.4047210">
        <ele>348.4</ele>
        <time>2019-12-14T09:09:57Z</time>
      </trkpt>
      <trkpt lat="39.6663500" lon="-0.4047010">
        <ele>349.8</ele>
        <time>2019-12-14T09:10:01Z</time>
      </trkpt>
      <trkpt lat="39.6664420" lon="-0.4046890">
        <ele>350.8</ele>
        <time>2019-12-14T09:10:06Z</time>
      </trkpt>
      <trkpt lat="39.6665570" lon="-0.4047250">
        <ele>352.2</ele>
        <time>2019-12-14T09:10:12Z</time>
      </trkpt>
      <trkpt lat="39.6666070" lon="-0.4047450">
        <ele>352.6</ele>
        <time>2019-12-14T09:10:15Z</time>
      </trkpt>
      <trkpt lat="39.6666260" lon="-0.4047370">
        <ele>352.8</ele>
        <time>2019-12-14T09:10:18Z</time>
      </trkpt>
      <trkpt lat="39.6666530" lon="-0.4046830">
        <ele>353.6</ele>
        <time>2019-12-14T09:10:51Z</time>
      </trkpt>
      <trkpt lat="39.6668890" lon="-0.4045120">
        <ele>354.6</ele>
        <time>2019-12-14T09:11:05Z</time>
      </trkpt>
      <trkpt lat="39.6669850" lon="-0.4044540">
        <ele>355.6</ele>
        <time>2019-12-14T09:11:11Z</time>
      </trkpt>
      <trkpt lat="39.6670870" lon="-0.4044310">
        <ele>356.8</ele>
        <time>2019-12-14T09:11:16Z</time>
      </trkpt>
      <trkpt lat="39.6672320" lon="-0.4043130">
        <ele>357.4</ele>
        <time>2019-12-14T09:11:24Z</time>
      </trkpt>
      <trkpt lat="39.6672270" lon="-0.4043390">
        <ele>357.6</ele>
        <time>2019-12-14T09:11:28Z</time>
      </trkpt>
      <trkpt lat="39.6671030" lon="-0.4044000">
        <ele>357.4</ele>
        <time>2019-12-14T09:11:34Z</time>
      </trkpt>
      <trkpt lat="39.6666590" lon="-0.4046450">
        <ele>355.6</ele>
        <time>2019-12-14T09:11:49Z</time>
      </trkpt>
      <trkpt lat="39.6666410" lon="-0.4046690">
        <ele>355.4</ele>
        <time>2019-12-14T09:11:50Z</time>
      </trkpt>
      <trkpt lat="39.6666500" lon="-0.4047390">
        <ele>354.4</ele>
        <time>2019-12-14T09:11:53Z</time>
      </trkpt>
      <trkpt lat="39.6667040" lon="-0.4047420">
        <ele>354.2</ele>
        <time>2019-12-14T09:11:55Z</time>
      </trkpt>
      <trkpt lat="39.6668010" lon="-0.4047670">
        <ele>353.4</ele>
        <time>2019-12-14T09:11:58Z</time>
      </trkpt>
      <trkpt lat="39.6668460" lon="-0.4051310">
        <ele>352.2</ele>
        <time>2019-12-14T09:12:05Z</time>
      </trkpt>
      <trkpt lat="39.6669050" lon="-0.4052900">
        <ele>351.2</ele>
        <time>2019-12-14T09:12:08Z</time>
      </trkpt>
      <trkpt lat="39.6669590" lon="-0.4055520">
        <ele>349.8</ele>
        <time>2019-12-14T09:12:12Z</time>
      </trkpt>
      <trkpt lat="39.6670180" lon="-0.4056600">
        <ele>348.0</ele>
        <time>2019-12-14T09:12:14Z</time>
      </trkpt>
      <trkpt lat="39.6670440" lon="-0.4057010">
        <ele>347.0</ele>
        <time>2019-12-14T09:12:15Z</time>
      </trkpt>
      <trkpt lat="39.6671200" lon="-0.4057900">
        <ele>346.2</ele>
        <time>2019-12-14T09:12:18Z</time>
      </trkpt>
      <trkpt lat="39.6673910" lon="-0.4061200">
        <ele>345.8</ele>
        <time>2019-12-14T09:12:28Z</time>
      </trkpt>
      <trkpt lat="39.6674620" lon="-0.4061930">
        <ele>345.8</ele>
        <time>2019-12-14T09:12:30Z</time>
      </trkpt>
      <trkpt lat="39.6675660" lon="-0.4063660">
        <ele>345.8</ele>
        <time>2019-12-14T09:12:33Z</time>
      </trkpt>
      <trkpt lat="39.6678030" lon="-0.4064090">
        <ele>345.4</ele>
        <time>2019-12-14T09:12:37Z</time>
      </trkpt>
      <trkpt lat="39.6678680" lon="-0.4064070">
        <ele>344.8</ele>
        <time>2019-12-14T09:12:38Z</time>
      </trkpt>
      <trkpt lat="39.6679990" lon="-0.4064680">
        <ele>343.6</ele>
        <time>2019-12-14T09:12:40Z</time>
      </trkpt>
      <trkpt lat="39.6680700" lon="-0.4065140">
        <ele>342.4</ele>
        <time>2019-12-14T09:12:41Z</time>
      </trkpt>
      <trkpt lat="39.6682060" lon="-0.4065870">
        <ele>340.8</ele>
        <time>2019-12-14T09:12:43Z</time>
      </trkpt>
      <trkpt lat="39.6683220" lon="-0.4066670">
        <ele>339.4</ele>
        <time>2019-12-14T09:12:45Z</time>
      </trkpt>
      <trkpt lat="39.6683660" lon="-0.4067230">
        <ele>338.8</ele>
        <time>2019-12-14T09:12:46Z</time>
      </trkpt>
      <trkpt lat="39.6683950" lon="-0.4067970">
        <ele>338.2</ele>
        <time>2019-12-14T09:12:47Z</time>
      </trkpt>
      <trkpt lat="39.6684200" lon="-0.4069660">
        <ele>336.6</ele>
        <time>2019-12-14T09:12:49Z</time>
      </trkpt>
      <trkpt lat="39.6684170" lon="-0.4070470">
        <ele>334.8</ele>
        <time>2019-12-14T09:12:50Z</time>
      </trkpt>
      <trkpt lat="39.6683780" lon="-0.4071710">
        <ele>333.6</ele>
        <time>2019-12-14T09:12:52Z</time>
      </trkpt>
      <trkpt lat="39.6683140" lon="-0.4072450">
        <ele>333.0</ele>
        <time>2019-12-14T09:12:54Z</time>
      </trkpt>
      <trkpt lat="39.6681800" lon="-0.4076630">
        <ele>333.4</ele>
        <time>2019-12-14T09:13:06Z</time>
      </trkpt>
      <trkpt lat="39.6681820" lon="-0.4076900">
        <ele>334.4</ele>
        <time>2019-12-14T09:13:09Z</time>
      </trkpt>
      <trkpt lat="39.6681780" lon="-0.4075780">
        <ele>335.4</ele>
        <time>2019-12-14T09:13:17Z</time>
      </trkpt>
      <trkpt lat="39.6679950" lon="-0.4075670">
        <ele>335.0</ele>
        <time>2019-12-14T09:13:23Z</time>
      </trkpt>
      <trkpt lat="39.6678140" lon="-0.4075930">
        <ele>334.2</ele>
        <time>2019-12-14T09:13:27Z</time>
      </trkpt>
      <trkpt lat="39.6677420" lon="-0.4076120">
        <ele>333.0</ele>
        <time>2019-12-14T09:13:29Z</time>
      </trkpt>
      <trkpt lat="39.6676710" lon="-0.4076390">
        <ele>331.6</ele>
        <time>2019-12-14T09:13:31Z</time>
      </trkpt>
      <trkpt lat="39.6675970" lon="-0.4076730">
        <ele>330.2</ele>
        <time>2019-12-14T09:13:33Z</time>
      </trkpt>
      <trkpt lat="39.6675320" lon="-0.4076920">
        <ele>329.2</ele>
        <time>2019-12-14T09:13:35Z</time>
      </trkpt>
      <trkpt lat="39.6674740" lon="-0.4077210">
        <ele>328.2</ele>
        <time>2019-12-14T09:13:37Z</time>
      </trkpt>
      <trkpt lat="39.6673700" lon="-0.4078120">
        <ele>327.0</ele>
        <time>2019-12-14T09:13:40Z</time>
      </trkpt>
      <trkpt lat="39.6673010" lon="-0.4078910">
        <ele>325.6</ele>
        <time>2019-12-14T09:13:43Z</time>
      </trkpt>
      <trkpt lat="39.6672750" lon="-0.4079290">
        <ele>324.2</ele>
        <time>2019-12-14T09:13:45Z</time>
      </trkpt>
      <trkpt lat="39.6672320" lon="-0.4079960">
        <ele>322.6</ele>
        <time>2019-12-14T09:13:47Z</time>
      </trkpt>
      <trkpt lat="39.6671810" lon="-0.4080790">
        <ele>320.8</ele>
        <time>2019-12-14T09:13:49Z</time>
      </trkpt>
      <trkpt lat="39.6671360" lon="-0.4081450">
        <ele>319.4</ele>
        <time>2019-12-14T09:13:51Z</time>
      </trkpt>
      <trkpt lat="39.6670690" lon="-0.4082070">
        <ele>318.0</ele>
        <time>2019-12-14T09:13:54Z</time>
      </trkpt>
      <trkpt lat="39.6670450" lon="-0.4082330">
        <ele>316.0</ele>
        <time>2019-12-14T09:13:56Z</time>
      </trkpt>
      <trkpt lat="39.6670440" lon="-0.4082400">
        <ele>312.8</ele>
        <time>2019-12-14T09:13:57Z</time>
      </trkpt>
      <trkpt lat="39.6670540" lon="-0.4083130">
        <ele>307.8</ele>
        <time>2019-12-14T09:14:02Z</time>
      </trkpt>
      <trkpt lat="39.6670240" lon="-0.4084950">
        <ele>306.8</ele>
        <time>2019-12-14T09:14:07Z</time>
      </trkpt>
      <trkpt lat="39.6669820" lon="-0.4087660">
        <ele>305.8</ele>
        <time>2019-12-14T09:14:12Z</time>
      </trkpt>
      <trkpt lat="39.6669980" lon="-0.4090010">
        <ele>305.0</ele>
        <time>2019-12-14T09:14:16Z</time>
      </trkpt>
      <trkpt lat="39.6670330" lon="-0.4091800">
        <ele>304.6</ele>
        <time>2019-12-14T09:14:19Z</time>
      </trkpt>
      <trkpt lat="39.6670450" lon="-0.4092940">
        <ele>304.4</ele>
        <time>2019-12-14T09:14:21Z</time>
      </trkpt>
      <trkpt lat="39.6670490" lon="-0.4094750">
        <ele>303.6</ele>
        <time>2019-12-14T09:14:24Z</time>
      </trkpt>
      <trkpt lat="39.6670450" lon="-0.4095290">
        <ele>303.2</ele>
        <time>2019-12-14T09:14:25Z</time>
      </trkpt>
      <trkpt lat="39.6669420" lon="-0.4096570">
        <ele>302.0</ele>
        <time>2019-12-14T09:14:29Z</time>
      </trkpt>
      <trkpt lat="39.6668850" lon="-0.4097510">
        <ele>301.0</ele>
        <time>2019-12-14T09:14:31Z</time>
      </trkpt>
      <trkpt lat="39.6668440" lon="-0.4099280">
        <ele>300.0</ele>
        <time>2019-12-14T09:14:37Z</time>
      </trkpt>
      <trkpt lat="39.6668120" lon="-0.4100170">
        <ele>299.0</ele>
        <time>2019-12-14T09:14:40Z</time>
      </trkpt>
      <trkpt lat="39.6667700" lon="-0.4100740">
        <ele>298.8</ele>
        <time>2019-12-14T09:14:42Z</time>
      </trkpt>
      <trkpt lat="39.6667550" lon="-0.4100950">
        <ele>298.4</ele>
        <time>2019-12-14T09:14:44Z</time>
      </trkpt>
      <trkpt lat="39.6667290" lon="-0.4102140">
        <ele>296.2</ele>
        <time>2019-12-14T09:14:53Z</time>
      </trkpt>
      <trkpt lat="39.6667230" lon="-0.4103180">
        <ele>296.0</ele>
        <time>2019-12-14T09:14:57Z</time>
      </trkpt>
      <trkpt lat="39.6667630" lon="-0.4105820">
        <ele>295.0</ele>
        <time>2019-12-14T09:15:04Z</time>
      </trkpt>
      <trkpt lat="39.6667610" lon="-0.4105990">
        <ele>294.8</ele>
        <time>2019-12-14T09:15:07Z</time>
      </trkpt>
      <trkpt lat="39.6667860" lon="-0.4106810">
        <ele>295.4</ele>
        <time>2019-12-14T09:15:37Z</time>
      </trkpt>
      <trkpt lat="39.6668370" lon="-0.4112830">
        <ele>295.0</ele>
        <time>2019-12-14T09:15:47Z</time>
      </trkpt>
      <trkpt lat="39.6668630" lon="-0.4114190">
        <ele>293.8</ele>
        <time>2019-12-14T09:15:49Z</time>
      </trkpt>
      <trkpt lat="39.6668830" lon="-0.4115520">
        <ele>293.0</ele>
        <time>2019-12-14T09:15:51Z</time>
      </trkpt>
      <trkpt lat="39.6668890" lon="-0.4116220">
        <ele>292.8</ele>
        <time>2019-12-14T09:15:52Z</time>
      </trkpt>
      <trkpt lat="39.6668850" lon="-0.4116930">
        <ele>292.4</ele>
        <time>2019-12-14T09:15:53Z</time>
      </trkpt>
      <trkpt lat="39.6668530" lon="-0.4118320">
        <ele>291.4</ele>
        <time>2019-12-14T09:15:55Z</time>
      </trkpt>
      <trkpt lat="39.6668530" lon="-0.4119640">
        <ele>290.2</ele>
        <time>2019-12-14T09:15:57Z</time>
      </trkpt>
      <trkpt lat="39.6668540" lon="-0.4120340">
        <ele>289.6</ele>
        <time>2019-12-14T09:15:58Z</time>
      </trkpt>
      <trkpt lat="39.6668640" lon="-0.4121050">
        <ele>289.4</ele>
        <time>2019-12-14T09:15:59Z</time>
      </trkpt>
      <trkpt lat="39.6668750" lon="-0.4121800">
        <ele>289.0</ele>
        <time>2019-12-14T09:16:00Z</time>
      </trkpt>
      <trkpt lat="39.6669010" lon="-0.4123410">
        <ele>288.0</ele>
        <time>2019-12-14T09:16:02Z</time>
      </trkpt>
      <trkpt lat="39.6669330" lon="-0.4124200">
        <ele>287.8</ele>
        <time>2019-12-14T09:16:03Z</time>
      </trkpt>
      <trkpt lat="39.6669660" lon="-0.4125580">
        <ele>286.2</ele>
        <time>2019-12-14T09:16:05Z</time>
      </trkpt>
      <trkpt lat="39.6669620" lon="-0.4126160">
        <ele>285.0</ele>
        <time>2019-12-14T09:16:06Z</time>
      </trkpt>
      <trkpt lat="39.6669530" lon="-0.4126670">
        <ele>283.6</ele>
        <time>2019-12-14T09:16:07Z</time>
      </trkpt>
      <trkpt lat="39.6669480" lon="-0.4127190">
        <ele>282.0</ele>
        <time>2019-12-14T09:16:08Z</time>
      </trkpt>
      <trkpt lat="39.6669480" lon="-0.4127700">
        <ele>280.8</ele>
        <time>2019-12-14T09:16:09Z</time>
      </trkpt>
      <trkpt lat="39.6669650" lon="-0.4128790">
        <ele>279.8</ele>
        <time>2019-12-14T09:16:11Z</time>
      </trkpt>
      <trkpt lat="39.6669870" lon="-0.4129990">
        <ele>279.2</ele>
        <time>2019-12-14T09:16:13Z</time>
      </trkpt>
      <trkpt lat="39.6670140" lon="-0.4131260">
        <ele>279.0</ele>
        <time>2019-12-14T09:16:15Z</time>
      </trkpt>
      <trkpt lat="39.6670370" lon="-0.4132570">
        <ele>278.8</ele>
        <time>2019-12-14T09:16:17Z</time>
      </trkpt>
      <trkpt lat="39.6670000" lon="-0.4134550">
        <ele>278.2</ele>
        <time>2019-12-14T09:16:20Z</time>
      </trkpt>
      <trkpt lat="39.6669840" lon="-0.4135120">
        <ele>278.0</ele>
        <time>2019-12-14T09:16:21Z</time>
      </trkpt>
      <trkpt lat="39.6669780" lon="-0.4136050">
        <ele>277.6</ele>
        <time>2019-12-14T09:16:23Z</time>
      </trkpt>
      <trkpt lat="39.6669820" lon="-0.4136940">
        <ele>276.2</ele>
        <time>2019-12-14T09:16:25Z</time>
      </trkpt>
      <trkpt lat="39.6669800" lon="-0.4137440">
        <ele>275.6</ele>
        <time>2019-12-14T09:16:26Z</time>
      </trkpt>
      <trkpt lat="39.6669770" lon="-0.4137960">
        <ele>274.8</ele>
        <time>2019-12-14T09:16:27Z</time>
      </trkpt>
      <trkpt lat="39.6669680" lon="-0.4139020">
        <ele>273.4</ele>
        <time>2019-12-14T09:16:29Z</time>
      </trkpt>
      <trkpt lat="39.6669490" lon="-0.4140040">
        <ele>272.4</ele>
        <time>2019-12-14T09:16:31Z</time>
      </trkpt>
      <trkpt lat="39.6668970" lon="-0.4142790">
        <ele>271.6</ele>
        <time>2019-12-14T09:16:36Z</time>
      </trkpt>
      <trkpt lat="39.6668160" lon="-0.4144640">
        <ele>271.4</ele>
        <time>2019-12-14T09:16:39Z</time>
      </trkpt>
      <trkpt lat="39.6667910" lon="-0.4146030">
        <ele>271.2</ele>
        <time>2019-12-14T09:16:42Z</time>
      </trkpt>
      <trkpt lat="39.6668130" lon="-0.4147390">
        <ele>269.4</ele>
        <time>2019-12-14T09:16:45Z</time>
      </trkpt>
      <trkpt lat="39.6668200" lon="-0.4147900">
        <ele>268.4</ele>
        <time>2019-12-14T09:16:46Z</time>
      </trkpt>
      <trkpt lat="39.6668260" lon="-0.4148370">
        <ele>267.0</ele>
        <time>2019-12-14T09:16:47Z</time>
      </trkpt>
      <trkpt lat="39.6668270" lon="-0.4149780">
        <ele>266.2</ele>
        <time>2019-12-14T09:16:50Z</time>
      </trkpt>
      <trkpt lat="39.6668150" lon="-0.4150240">
        <ele>266.0</ele>
        <time>2019-12-14T09:16:51Z</time>
      </trkpt>
      <trkpt lat="39.6666910" lon="-0.4153030">
        <ele>265.0</ele>
        <time>2019-12-14T09:16:57Z</time>
      </trkpt>
      <trkpt lat="39.6666590" lon="-0.4153430">
        <ele>264.6</ele>
        <time>2019-12-14T09:16:58Z</time>
      </trkpt>
      <trkpt lat="39.6666180" lon="-0.4154770">
        <ele>264.0</ele>
        <time>2019-12-14T09:17:01Z</time>
      </trkpt>
      <trkpt lat="39.6666380" lon="-0.4157350">
        <ele>263.0</ele>
        <time>2019-12-14T09:17:07Z</time>
      </trkpt>
      <trkpt lat="39.6667630" lon="-0.4162910">
        <ele>262.8</ele>
        <time>2019-12-14T09:17:19Z</time>
      </trkpt>
      <trkpt lat="39.6668990" lon="-0.4166840">
        <ele>263.0</ele>
        <time>2019-12-14T09:17:27Z</time>
      </trkpt>
      <trkpt lat="39.6671690" lon="-0.4171560">
        <ele>262.4</ele>
        <time>2019-12-14T09:17:35Z</time>
      </trkpt>
      <trkpt lat="39.6671960" lon="-0.4172790">
        <ele>261.8</ele>
        <time>2019-12-14T09:17:37Z</time>
      </trkpt>
      <trkpt lat="39.6671650" lon="-0.4175450">
        <ele>261.2</ele>
        <time>2019-12-14T09:17:42Z</time>
      </trkpt>
      <trkpt lat="39.6670930" lon="-0.4182450">
        <ele>262.2</ele>
        <time>2019-12-14T09:17:55Z</time>
      </trkpt>
      <trkpt lat="39.6670680" lon="-0.4190370">
        <ele>260.8</ele>
        <time>2019-12-14T09:18:04Z</time>
      </trkpt>
      <trkpt lat="39.6670430" lon="-0.4192510">
        <ele>259.8</ele>
        <time>2019-12-14T09:18:06Z</time>
      </trkpt>
      <trkpt lat="39.6670180" lon="-0.4193510">
        <ele>258.8</ele>
        <time>2019-12-14T09:18:07Z</time>
      </trkpt>
      <trkpt lat="39.6669840" lon="-0.4194450">
        <ele>258.4</ele>
        <time>2019-12-14T09:18:08Z</time>
      </trkpt>
      <trkpt lat="39.6668820" lon="-0.4196120">
        <ele>256.6</ele>
        <time>2019-12-14T09:18:10Z</time>
      </trkpt>
      <trkpt lat="39.6667450" lon="-0.4197410">
        <ele>254.8</ele>
        <time>2019-12-14T09:18:12Z</time>
      </trkpt>
      <trkpt lat="39.6666750" lon="-0.4197970">
        <ele>253.8</ele>
        <time>2019-12-14T09:18:13Z</time>
      </trkpt>
      <trkpt lat="39.6666040" lon="-0.4198550">
        <ele>252.8</ele>
        <time>2019-12-14T09:18:14Z</time>
      </trkpt>
      <trkpt lat="39.6664800" lon="-0.4199700">
        <ele>251.0</ele>
        <time>2019-12-14T09:18:16Z</time>
      </trkpt>
      <trkpt lat="39.6663660" lon="-0.4200300">
        <ele>249.8</ele>
        <time>2019-12-14T09:18:18Z</time>
      </trkpt>
      <trkpt lat="39.6663050" lon="-0.4200320">
        <ele>248.8</ele>
        <time>2019-12-14T09:18:19Z</time>
      </trkpt>
      <trkpt lat="39.6661040" lon="-0.4199910">
        <ele>247.2</ele>
        <time>2019-12-14T09:18:22Z</time>
      </trkpt>
      <trkpt lat="39.6660370" lon="-0.4199730">
        <ele>246.2</ele>
        <time>2019-12-14T09:18:23Z</time>
      </trkpt>
      <trkpt lat="39.6658970" lon="-0.4199260">
        <ele>245.0</ele>
        <time>2019-12-14T09:18:25Z</time>
      </trkpt>
      <trkpt lat="39.6657680" lon="-0.4198940">
        <ele>244.0</ele>
        <time>2019-12-14T09:18:27Z</time>
      </trkpt>
      <trkpt lat="39.6656010" lon="-0.4199820">
        <ele>243.0</ele>
        <time>2019-12-14T09:18:30Z</time>
      </trkpt>
      <trkpt lat="39.6655050" lon="-0.4201160">
        <ele>242.2</ele>
        <time>2019-12-14T09:18:33Z</time>
      </trkpt>
      <trkpt lat="39.6654800" lon="-0.4201630">
        <ele>241.8</ele>
        <time>2019-12-14T09:18:34Z</time>
      </trkpt>
      <trkpt lat="39.6654040" lon="-0.4203330">
        <ele>241.2</ele>
        <time>2019-12-14T09:18:37Z</time>
      </trkpt>
      <trkpt lat="39.6653950" lon="-0.4204380">
        <ele>241.0</ele>
        <time>2019-12-14T09:18:39Z</time>
      </trkpt>
      <trkpt lat="39.6653650" lon="-0.4206310">
        <ele>240.2</ele>
        <time>2019-12-14T09:18:45Z</time>
      </trkpt>
      <trkpt lat="39.6653930" lon="-0.4206560">
        <ele>240.0</ele>
        <time>2019-12-14T09:18:46Z</time>
      </trkpt>
      <trkpt lat="39.6656000" lon="-0.4208730">
        <ele>239.2</ele>
        <time>2019-12-14T09:18:54Z</time>
      </trkpt>
      <trkpt lat="39.6656730" lon="-0.4213370">
        <ele>241.2</ele>
        <time>2019-12-14T09:19:08Z</time>
      </trkpt>
      <trkpt lat="39.6656650" lon="-0.4215080">
        <ele>242.2</ele>
        <time>2019-12-14T09:19:13Z</time>
      </trkpt>
      <trkpt lat="39.6656140" lon="-0.4216340">
        <ele>243.6</ele>
        <time>2019-12-14T09:19:17Z</time>
      </trkpt>
      <trkpt lat="39.6655270" lon="-0.4217140">
        <ele>244.6</ele>
        <time>2019-12-14T09:19:21Z</time>
      </trkpt>
      <trkpt lat="39.6654250" lon="-0.4217550">
        <ele>245.8</ele>
        <time>2019-12-14T09:19:25Z</time>
      </trkpt>
      <trkpt lat="39.6653040" lon="-0.4217850">
        <ele>247.0</ele>
        <time>2019-12-14T09:19:29Z</time>
      </trkpt>
      <trkpt lat="39.6651250" lon="-0.4218360">
        <ele>248.0</ele>
        <time>2019-12-14T09:19:35Z</time>
      </trkpt>
      <trkpt lat="39.6648660" lon="-0.4219720">
        <ele>249.2</ele>
        <time>2019-12-14T09:19:44Z</time>
      </trkpt>
      <trkpt lat="39.6647100" lon="-0.4220690">
        <ele>250.2</ele>
        <time>2019-12-14T09:19:49Z</time>
      </trkpt>
      <trkpt lat="39.6642410" lon="-0.4224590">
        <ele>250.8</ele>
        <time>2019-12-14T09:20:02Z</time>
      </trkpt>
      <trkpt lat="39.6641500" lon="-0.4225180">
        <ele>250.6</ele>
        <time>2019-12-14T09:20:04Z</time>
      </trkpt>
      <trkpt lat="39.6638570" lon="-0.4227670">
        <ele>250.0</ele>
        <time>2019-12-14T09:20:11Z</time>
      </trkpt>
      <trkpt lat="39.6635910" lon="-0.4229270">
        <ele>249.6</ele>
        <time>2019-12-14T09:20:17Z</time>
      </trkpt>
      <trkpt lat="39.6635220" lon="-0.4229890">
        <ele>249.2</ele>
        <time>2019-12-14T09:20:19Z</time>
      </trkpt>
      <trkpt lat="39.6634070" lon="-0.4231080">
        <ele>248.6</ele>
        <time>2019-12-14T09:20:22Z</time>
      </trkpt>
      <trkpt lat="39.6632340" lon="-0.4233310">
        <ele>248.0</ele>
        <time>2019-12-14T09:20:26Z</time>
      </trkpt>
      <trkpt lat="39.6630600" lon="-0.4236050">
        <ele>246.8</ele>
        <time>2019-12-14T09:20:30Z</time>
      </trkpt>
      <trkpt lat="39.6629420" lon="-0.4238250">
        <ele>245.6</ele>
        <time>2019-12-14T09:20:33Z</time>
      </trkpt>
      <trkpt lat="39.6628650" lon="-0.4239660">
        <ele>244.6</ele>
        <time>2019-12-14T09:20:35Z</time>
      </trkpt>
      <trkpt lat="39.6627710" lon="-0.4241070">
        <ele>243.4</ele>
        <time>2019-12-14T09:20:37Z</time>
      </trkpt>
      <trkpt lat="39.6626400" lon="-0.4242160">
        <ele>242.4</ele>
        <time>2019-12-14T09:20:39Z</time>
      </trkpt>
      <trkpt lat="39.6624170" lon="-0.4243340">
        <ele>241.0</ele>
        <time>2019-12-14T09:20:42Z</time>
      </trkpt>
      <trkpt lat="39.6622750" lon="-0.4243940">
        <ele>239.8</ele>
        <time>2019-12-14T09:20:44Z</time>
      </trkpt>
      <trkpt lat="39.6622080" lon="-0.4244170">
        <ele>238.8</ele>
        <time>2019-12-14T09:20:45Z</time>
      </trkpt>
      <trkpt lat="39.6621450" lon="-0.4244280">
        <ele>238.0</ele>
        <time>2019-12-14T09:20:46Z</time>
      </trkpt>
      <trkpt lat="39.6620150" lon="-0.4244330">
        <ele>236.2</ele>
        <time>2019-12-14T09:20:48Z</time>
      </trkpt>
      <trkpt lat="39.6619520" lon="-0.4244350">
        <ele>235.2</ele>
        <time>2019-12-14T09:20:49Z</time>
      </trkpt>
      <trkpt lat="39.6618510" lon="-0.4244480">
        <ele>233.4</ele>
        <time>2019-12-14T09:20:51Z</time>
      </trkpt>
      <trkpt lat="39.6617960" lon="-0.4244800">
        <ele>232.4</ele>
        <time>2019-12-14T09:20:53Z</time>
      </trkpt>
      <trkpt lat="39.6617670" lon="-0.4245520">
        <ele>230.6</ele>
        <time>2019-12-14T09:20:55Z</time>
      </trkpt>
      <trkpt lat="39.6617720" lon="-0.4245950">
        <ele>229.6</ele>
        <time>2019-12-14T09:20:56Z</time>
      </trkpt>
      <trkpt lat="39.6617830" lon="-0.4246400">
        <ele>228.4</ele>
        <time>2019-12-14T09:20:57Z</time>
      </trkpt>
      <trkpt lat="39.6617910" lon="-0.4246900">
        <ele>227.4</ele>
        <time>2019-12-14T09:20:58Z</time>
      </trkpt>
      <trkpt lat="39.6617930" lon="-0.4248000">
        <ele>225.4</ele>
        <time>2019-12-14T09:21:00Z</time>
      </trkpt>
      <trkpt lat="39.6618010" lon="-0.4249200">
        <ele>224.6</ele>
        <time>2019-12-14T09:21:02Z</time>
      </trkpt>
      <trkpt lat="39.6618120" lon="-0.4249820">
        <ele>224.4</ele>
        <time>2019-12-14T09:21:03Z</time>
      </trkpt>
      <trkpt lat="39.6619570" lon="-0.4256030">
        <ele>223.8</ele>
        <time>2019-12-14T09:21:13Z</time>
      </trkpt>
      <trkpt lat="39.6620070" lon="-0.4263000">
        <ele>224.0</ele>
        <time>2019-12-14T09:21:27Z</time>
      </trkpt>
      <trkpt lat="39.6620060" lon="-0.4263060">
        <ele>224.2</ele>
        <time>2019-12-14T09:21:29Z</time>
      </trkpt>
      <trkpt lat="39.6620070" lon="-0.4263400">
        <ele>224.6</ele>
        <time>2019-12-14T09:22:16Z</time>
      </trkpt>
      <trkpt lat="39.6619410" lon="-0.4265360">
        <ele>224.6</ele>
        <time>2019-12-14T09:22:21Z</time>
      </trkpt>
      <trkpt lat="39.6617290" lon="-0.4266670">
        <ele>224.6</ele>
        <time>2019-12-14T09:22:26Z</time>
      </trkpt>
      <trkpt lat="39.6616760" lon="-0.4266800">
        <ele>224.6</ele>
        <time>2019-12-14T09:22:27Z</time>
      </trkpt>
      <trkpt lat="39.6611010" lon="-0.4267470">
        <ele>224.4</ele>
        <time>2019-12-14T09:22:37Z</time>
      </trkpt>
      <trkpt lat="39.6605170" lon="-0.4268400">
        <ele>223.6</ele>
        <time>2019-12-14T09:22:46Z</time>
      </trkpt>
      <trkpt lat="39.6604460" lon="-0.4268450">
        <ele>223.6</ele>
        <time>2019-12-14T09:22:47Z</time>
      </trkpt>
      <trkpt lat="39.6603210" lon="-0.4268390">
        <ele>223.6</ele>
        <time>2019-12-14T09:22:49Z</time>
      </trkpt>
      <trkpt lat="39.6601960" lon="-0.4267930">
        <ele>223.4</ele>
        <time>2019-12-14T09:22:51Z</time>
      </trkpt>
      <trkpt lat="39.6601340" lon="-0.4267570">
        <ele>223.4</ele>
        <time>2019-12-14T09:22:52Z</time>
      </trkpt>
      <trkpt lat="39.6598650" lon="-0.4265900">
        <ele>223.2</ele>
        <time>2019-12-14T09:22:56Z</time>
      </trkpt>
      <trkpt lat="39.6598000" lon="-0.4265380">
        <ele>223.0</ele>
        <time>2019-12-14T09:22:57Z</time>
      </trkpt>
      <trkpt lat="39.6594880" lon="-0.4262670">
        <ele>222.2</ele>
        <time>2019-12-14T09:23:02Z</time>
      </trkpt>
      <trkpt lat="39.6590020" lon="-0.4258430">
        <ele>221.2</ele>
        <time>2019-12-14T09:23:10Z</time>
      </trkpt>
      <trkpt lat="39.6588490" lon="-0.4256630">
        <ele>220.4</ele>
        <time>2019-12-14T09:23:13Z</time>
      </trkpt>
      <trkpt lat="39.6588180" lon="-0.4255870">
        <ele>220.0</ele>
        <time>2019-12-14T09:23:14Z</time>
      </trkpt>
      <trkpt lat="39.6587870" lon="-0.4253690">
        <ele>219.0</ele>
        <time>2019-12-14T09:23:17Z</time>
      </trkpt>
      <trkpt lat="39.6587600" lon="-0.4252150">
        <ele>218.0</ele>
        <time>2019-12-14T09:23:23Z</time>
      </trkpt>
      <trkpt lat="39.6582450" lon="-0.4247090">
        <ele>217.0</ele>
        <time>2019-12-14T09:38:56Z</time>
      </trkpt>
      <trkpt lat="39.6582860" lon="-0.4247470">
        <ele>216.4</ele>
        <time>2019-12-14T09:39:42Z</time>
      </trkpt>
      <trkpt lat="39.6584970" lon="-0.4251680">
        <ele>215.8</ele>
        <time>2019-12-14T10:03:59Z</time>
      </trkpt>
      <trkpt lat="39.6585690" lon="-0.4251620">
        <ele>215.8</ele>
        <time>2019-12-14T10:04:03Z</time>
      </trkpt>
      <trkpt lat="39.6586850" lon="-0.4251640">
        <ele>215.8</ele>
        <time>2019-12-14T10:04:39Z</time>
      </trkpt>
      <trkpt lat="39.6588090" lon="-0.4254600">
        <ele>216.2</ele>
        <time>2019-12-14T10:06:41Z</time>
      </trkpt>
      <trkpt lat="39.6589730" lon="-0.4256580">
        <ele>216.2</ele>
        <time>2019-12-14T10:06:49Z</time>
      </trkpt>
      <trkpt lat="39.6592170" lon="-0.4259100">
        <ele>216.6</ele>
        <time>2019-12-14T10:06:57Z</time>
      </trkpt>
      <trkpt lat="39.6593930" lon="-0.4261070">
        <ele>217.4</ele>
        <time>2019-12-14T10:07:03Z</time>
      </trkpt>
      <trkpt lat="39.6596850" lon="-0.4264510">
        <ele>218.6</ele>
        <time>2019-12-14T10:07:15Z</time>
      </trkpt>
      <trkpt lat="39.6598400" lon="-0.4266650">
        <ele>219.8</ele>
        <time>2019-12-14T10:07:21Z</time>
      </trkpt>
      <trkpt lat="39.6602800" lon="-0.4268870">
        <ele>220.6</ele>
        <time>2019-12-14T10:07:33Z</time>
      </trkpt>
      <trkpt lat="39.6603690" lon="-0.4268710">
        <ele>220.8</ele>
        <time>2019-12-14T10:07:35Z</time>
      </trkpt>
      <trkpt lat="39.6607050" lon="-0.4268010">
        <ele>221.6</ele>
        <time>2019-12-14T10:07:42Z</time>
      </trkpt>
      <trkpt lat="39.6608560" lon="-0.4267740">
        <ele>221.8</ele>
        <time>2019-12-14T10:07:45Z</time>
      </trkpt>
      <trkpt lat="39.6614050" lon="-0.4266600">
        <ele>222.4</ele>
        <time>2019-12-14T10:07:57Z</time>
      </trkpt>
      <trkpt lat="39.6615260" lon="-0.4266490">
        <ele>222.6</ele>
        <time>2019-12-14T10:08:00Z</time>
      </trkpt>
      <trkpt lat="39.6617080" lon="-0.4265900">
        <ele>222.8</ele>
        <time>2019-12-14T10:08:07Z</time>
      </trkpt>
      <trkpt lat="39.6617390" lon="-0.4266040">
        <ele>223.0</ele>
        <time>2019-12-14T10:08:10Z</time>
      </trkpt>
      <trkpt lat="39.6618450" lon="-0.4265930">
        <ele>223.0</ele>
        <time>2019-12-14T10:08:17Z</time>
      </trkpt>
      <trkpt lat="39.6619660" lon="-0.4264830">
        <ele>223.2</ele>
        <time>2019-12-14T10:08:20Z</time>
      </trkpt>
      <trkpt lat="39.6619350" lon="-0.4257860">
        <ele>222.8</ele>
        <time>2019-12-14T10:08:30Z</time>
      </trkpt>
      <trkpt lat="39.6618670" lon="-0.4252420">
        <ele>222.6</ele>
        <time>2019-12-14T10:08:37Z</time>
      </trkpt>
      <trkpt lat="39.6615910" lon="-0.4248970">
        <ele>222.4</ele>
        <time>2019-12-14T10:08:44Z</time>
      </trkpt>
      <trkpt lat="39.6615390" lon="-0.4248650">
        <ele>222.4</ele>
        <time>2019-12-14T10:08:45Z</time>
      </trkpt>
      <trkpt lat="39.6616690" lon="-0.4243920">
        <ele>222.4</ele>
        <time>2019-12-14T10:08:55Z</time>
      </trkpt>
      <trkpt lat="39.6617850" lon="-0.4244170">
        <ele>222.4</ele>
        <time>2019-12-14T10:08:57Z</time>
      </trkpt>
      <trkpt lat="39.6618430" lon="-0.4244270">
        <ele>222.4</ele>
        <time>2019-12-14T10:08:58Z</time>
      </trkpt>
      <trkpt lat="39.6621250" lon="-0.4244000">
        <ele>224.4</ele>
        <time>2019-12-14T10:09:08Z</time>
      </trkpt>
      <trkpt lat="39.6621650" lon="-0.4243990">
        <ele>225.8</ele>
        <time>2019-12-14T10:09:10Z</time>
      </trkpt>
      <trkpt lat="39.6621910" lon="-0.4243830">
        <ele>226.8</ele>
        <time>2019-12-14T10:09:12Z</time>
      </trkpt>
      <trkpt lat="39.6621920" lon="-0.4243470">
        <ele>227.8</ele>
        <time>2019-12-14T10:09:14Z</time>
      </trkpt>
      <trkpt lat="39.6621560" lon="-0.4242900">
        <ele>229.0</ele>
        <time>2019-12-14T10:09:17Z</time>
      </trkpt>
      <trkpt lat="39.6621100" lon="-0.4242490">
        <ele>229.6</ele>
        <time>2019-12-14T10:09:19Z</time>
      </trkpt>
      <trkpt lat="39.6620600" lon="-0.4242000">
        <ele>230.2</ele>
        <time>2019-12-14T10:09:21Z</time>
      </trkpt>
      <trkpt lat="39.6616690" lon="-0.4237200">
        <ele>230.8</ele>
        <time>2019-12-14T10:09:37Z</time>
      </trkpt>
      <trkpt lat="39.6615190" lon="-0.4236000">
        <ele>230.6</ele>
        <time>2019-12-14T10:09:43Z</time>
      </trkpt>
      <trkpt lat="39.6615260" lon="-0.4234860">
        <ele>230.6</ele>
        <time>2019-12-14T10:09:48Z</time>
      </trkpt>
      <trkpt lat="39.6615340" lon="-0.4234110">
        <ele>231.2</ele>
        <time>2019-12-14T10:09:51Z</time>
      </trkpt>
      <trkpt lat="39.6615240" lon="-0.4233900">
        <ele>231.8</ele>
        <time>2019-12-14T10:09:52Z</time>
      </trkpt>
      <trkpt lat="39.6614720" lon="-0.4233350">
        <ele>232.6</ele>
        <time>2019-12-14T10:09:54Z</time>
      </trkpt>
      <trkpt lat="39.6614350" lon="-0.4233150">
        <ele>232.6</ele>
        <time>2019-12-14T10:09:55Z</time>
      </trkpt>
      <trkpt lat="39.6613210" lon="-0.4232360">
        <ele>232.8</ele>
        <time>2019-12-14T10:09:59Z</time>
      </trkpt>
      <trkpt lat="39.6613180" lon="-0.4232340">
        <ele>232.8</ele>
        <time>2019-12-14T10:10:01Z</time>
      </trkpt>
      <trkpt lat="39.6612880" lon="-0.4231840">
        <ele>232.4</ele>
        <time>2019-12-14T10:10:34Z</time>
      </trkpt>
      <trkpt lat="39.6612390" lon="-0.4231330">
        <ele>232.4</ele>
        <time>2019-12-14T10:10:36Z</time>
      </trkpt>
      <trkpt lat="39.6611140" lon="-0.4231230">
        <ele>231.8</ele>
        <time>2019-12-14T10:10:40Z</time>
      </trkpt>
      <trkpt lat="39.6610670" lon="-0.4231380">
        <ele>231.2</ele>
        <time>2019-12-14T10:10:41Z</time>
      </trkpt>
      <trkpt lat="39.6610190" lon="-0.4231420">
        <ele>229.4</ele>
        <time>2019-12-14T10:10:42Z</time>
      </trkpt>
      <trkpt lat="39.6609200" lon="-0.4231330">
        <ele>227.6</ele>
        <time>2019-12-14T10:10:44Z</time>
      </trkpt>
      <trkpt lat="39.6608420" lon="-0.4231430">
        <ele>226.4</ele>
        <time>2019-12-14T10:10:46Z</time>
      </trkpt>
      <trkpt lat="39.6608020" lon="-0.4231710">
        <ele>224.8</ele>
        <time>2019-12-14T10:10:48Z</time>
      </trkpt>
      <trkpt lat="39.6607260" lon="-0.4231800">
        <ele>224.0</ele>
        <time>2019-12-14T10:10:52Z</time>
      </trkpt>
      <trkpt lat="39.6605010" lon="-0.4231930">
        <ele>225.6</ele>
        <time>2019-12-14T10:11:02Z</time>
      </trkpt>
      <trkpt lat="39.6604940" lon="-0.4231160">
        <ele>226.0</ele>
        <time>2019-12-14T10:11:06Z</time>
      </trkpt>
      <trkpt lat="39.6604700" lon="-0.4230390">
        <ele>226.6</ele>
        <time>2019-12-14T10:11:10Z</time>
      </trkpt>
      <trkpt lat="39.6604230" lon="-0.4229360">
        <ele>227.4</ele>
        <time>2019-12-14T10:11:16Z</time>
      </trkpt>
      <trkpt lat="39.6603770" lon="-0.4228710">
        <ele>228.6</ele>
        <time>2019-12-14T10:11:20Z</time>
      </trkpt>
      <trkpt lat="39.6603060" lon="-0.4227660">
        <ele>229.6</ele>
        <time>2019-12-14T10:11:26Z</time>
      </trkpt>
      <trkpt lat="39.6602570" lon="-0.4227070">
        <ele>230.8</ele>
        <time>2019-12-14T10:11:31Z</time>
      </trkpt>
      <trkpt lat="39.6602080" lon="-0.4226570">
        <ele>232.0</ele>
        <time>2019-12-14T10:11:36Z</time>
      </trkpt>
      <trkpt lat="39.6601720" lon="-0.4226000">
        <ele>233.2</ele>
        <time>2019-12-14T10:11:41Z</time>
      </trkpt>
      <trkpt lat="39.6601270" lon="-0.4225440">
        <ele>234.2</ele>
        <time>2019-12-14T10:11:46Z</time>
      </trkpt>
      <trkpt lat="39.6601060" lon="-0.4224950">
        <ele>235.2</ele>
        <time>2019-12-14T10:11:50Z</time>
      </trkpt>
      <trkpt lat="39.6600950" lon="-0.4224780">
        <ele>235.8</ele>
        <time>2019-12-14T10:11:52Z</time>
      </trkpt>
      <trkpt lat="39.6601240" lon="-0.4223720">
        <ele>237.8</ele>
        <time>2019-12-14T10:12:02Z</time>
      </trkpt>
      <trkpt lat="39.6602600" lon="-0.4223670">
        <ele>238.8</ele>
        <time>2019-12-14T10:12:12Z</time>
      </trkpt>
      <trkpt lat="39.6603100" lon="-0.4223950">
        <ele>239.8</ele>
        <time>2019-12-14T10:12:16Z</time>
      </trkpt>
      <trkpt lat="39.6603210" lon="-0.4224120">
        <ele>240.0</ele>
        <time>2019-12-14T10:12:17Z</time>
      </trkpt>
      <trkpt lat="39.6603610" lon="-0.4224660">
        <ele>241.0</ele>
        <time>2019-12-14T10:12:21Z</time>
      </trkpt>
      <trkpt lat="39.6604350" lon="-0.4224900">
        <ele>242.2</ele>
        <time>2019-12-14T10:12:27Z</time>
      </trkpt>
      <trkpt lat="39.6604970" lon="-0.4224610">
        <ele>243.4</ele>
        <time>2019-12-14T10:12:32Z</time>
      </trkpt>
      <trkpt lat="39.6605060" lon="-0.4224480">
        <ele>243.6</ele>
        <time>2019-12-14T10:12:33Z</time>
      </trkpt>
      <trkpt lat="39.6605090" lon="-0.4223780">
        <ele>244.6</ele>
        <time>2019-12-14T10:12:37Z</time>
      </trkpt>
      <trkpt lat="39.6604980" lon="-0.4223590">
        <ele>244.8</ele>
        <time>2019-12-14T10:12:38Z</time>
      </trkpt>
      <trkpt lat="39.6604350" lon="-0.4222440">
        <ele>245.8</ele>
        <time>2019-12-14T10:12:45Z</time>
      </trkpt>
      <trkpt lat="39.6604040" lon="-0.4221980">
        <ele>247.0</ele>
        <time>2019-12-14T10:12:48Z</time>
      </trkpt>
      <trkpt lat="39.6603950" lon="-0.4221120">
        <ele>248.2</ele>
        <time>2019-12-14T10:12:52Z</time>
      </trkpt>
      <trkpt lat="39.6604550" lon="-0.4219980">
        <ele>249.4</ele>
        <time>2019-12-14T10:12:58Z</time>
      </trkpt>
      <trkpt lat="39.6605350" lon="-0.4218110">
        <ele>250.4</ele>
        <time>2019-12-14T10:13:07Z</time>
      </trkpt>
      <trkpt lat="39.6604940" lon="-0.4214850">
        <ele>251.8</ele>
        <time>2019-12-14T10:13:21Z</time>
      </trkpt>
      <trkpt lat="39.6604790" lon="-0.4214700">
        <ele>251.8</ele>
        <time>2019-12-14T10:13:22Z</time>
      </trkpt>
      <trkpt lat="39.6603100" lon="-0.4213520">
        <ele>252.8</ele>
        <time>2019-12-14T10:13:33Z</time>
      </trkpt>
      <trkpt lat="39.6602320" lon="-0.4212950">
        <ele>254.0</ele>
        <time>2019-12-14T10:13:39Z</time>
      </trkpt>
      <trkpt lat="39.6601690" lon="-0.4212410">
        <ele>255.0</ele>
        <time>2019-12-14T10:13:44Z</time>
      </trkpt>
      <trkpt lat="39.6601220" lon="-0.4212030">
        <ele>256.0</ele>
        <time>2019-12-14T10:13:48Z</time>
      </trkpt>
      <trkpt lat="39.6600540" lon="-0.4211440">
        <ele>257.2</ele>
        <time>2019-12-14T10:13:54Z</time>
      </trkpt>
      <trkpt lat="39.6599980" lon="-0.4210850">
        <ele>258.6</ele>
        <time>2019-12-14T10:13:59Z</time>
      </trkpt>
      <trkpt lat="39.6599580" lon="-0.4210340">
        <ele>259.6</ele>
        <time>2019-12-14T10:14:03Z</time>
      </trkpt>
      <trkpt lat="39.6599210" lon="-0.4209810">
        <ele>260.6</ele>
        <time>2019-12-14T10:14:07Z</time>
      </trkpt>
      <trkpt lat="39.6598850" lon="-0.4209310">
        <ele>261.6</ele>
        <time>2019-12-14T10:14:11Z</time>
      </trkpt>
      <trkpt lat="39.6598510" lon="-0.4208830">
        <ele>262.8</ele>
        <time>2019-12-14T10:14:15Z</time>
      </trkpt>
      <trkpt lat="39.6598470" lon="-0.4208690">
        <ele>263.0</ele>
        <time>2019-12-14T10:14:16Z</time>
      </trkpt>
      <trkpt lat="39.6598340" lon="-0.4208240">
        <ele>263.8</ele>
        <time>2019-12-14T10:14:19Z</time>
      </trkpt>
      <trkpt lat="39.6598070" lon="-0.4207330">
        <ele>265.0</ele>
        <time>2019-12-14T10:14:25Z</time>
      </trkpt>
      <trkpt lat="39.6597900" lon="-0.4206690">
        <ele>266.2</ele>
        <time>2019-12-14T10:14:29Z</time>
      </trkpt>
      <trkpt lat="39.6597950" lon="-0.4205930">
        <ele>267.4</ele>
        <time>2019-12-14T10:14:33Z</time>
      </trkpt>
      <trkpt lat="39.6597890" lon="-0.4205030">
        <ele>268.6</ele>
        <time>2019-12-14T10:14:38Z</time>
      </trkpt>
      <trkpt lat="39.6597930" lon="-0.4204670">
        <ele>269.8</ele>
        <time>2019-12-14T10:14:40Z</time>
      </trkpt>
      <trkpt lat="39.6598050" lon="-0.4203570">
        <ele>270.8</ele>
        <time>2019-12-14T10:14:46Z</time>
      </trkpt>
      <trkpt lat="39.6598070" lon="-0.4202830">
        <ele>271.8</ele>
        <time>2019-12-14T10:14:50Z</time>
      </trkpt>
      <trkpt lat="39.6598060" lon="-0.4202460">
        <ele>272.4</ele>
        <time>2019-12-14T10:14:52Z</time>
      </trkpt>
      <trkpt lat="39.6598090" lon="-0.4202100">
        <ele>273.0</ele>
        <time>2019-12-14T10:14:54Z</time>
      </trkpt>
      <trkpt lat="39.6598110" lon="-0.4201780">
        <ele>273.6</ele>
        <time>2019-12-14T10:14:56Z</time>
      </trkpt>
      <trkpt lat="39.6598180" lon="-0.4201260">
        <ele>274.4</ele>
        <time>2019-12-14T10:14:59Z</time>
      </trkpt>
      <trkpt lat="39.6598110" lon="-0.4200830">
        <ele>275.4</ele>
        <time>2019-12-14T10:15:02Z</time>
      </trkpt>
      <trkpt lat="39.6598230" lon="-0.4199680">
        <ele>276.6</ele>
        <time>2019-12-14T10:15:09Z</time>
      </trkpt>
      <trkpt lat="39.6598240" lon="-0.4199010">
        <ele>277.4</ele>
        <time>2019-12-14T10:15:13Z</time>
      </trkpt>
      <trkpt lat="39.6598250" lon="-0.4198830">
        <ele>277.6</ele>
        <time>2019-12-14T10:15:14Z</time>
      </trkpt>
      <trkpt lat="39.6598270" lon="-0.4198300">
        <ele>278.6</ele>
        <time>2019-12-14T10:15:17Z</time>
      </trkpt>
      <trkpt lat="39.6598320" lon="-0.4198140">
        <ele>278.8</ele>
        <time>2019-12-14T10:15:18Z</time>
      </trkpt>
      <trkpt lat="39.6598350" lon="-0.4197200">
        <ele>279.8</ele>
        <time>2019-12-14T10:15:24Z</time>
      </trkpt>
      <trkpt lat="39.6598240" lon="-0.4196370">
        <ele>281.0</ele>
        <time>2019-12-14T10:15:29Z</time>
      </trkpt>
      <trkpt lat="39.6598170" lon="-0.4196080">
        <ele>281.6</ele>
        <time>2019-12-14T10:15:31Z</time>
      </trkpt>
      <trkpt lat="39.6598130" lon="-0.4195610">
        <ele>282.0</ele>
        <time>2019-12-14T10:15:34Z</time>
      </trkpt>
      <trkpt lat="39.6598090" lon="-0.4195460">
        <ele>282.2</ele>
        <time>2019-12-14T10:15:35Z</time>
      </trkpt>
      <trkpt lat="39.6597930" lon="-0.4194810">
        <ele>283.2</ele>
        <time>2019-12-14T10:15:39Z</time>
      </trkpt>
      <trkpt lat="39.6597780" lon="-0.4194250">
        <ele>284.4</ele>
        <time>2019-12-14T10:15:43Z</time>
      </trkpt>
      <trkpt lat="39.6597820" lon="-0.4193640">
        <ele>285.6</ele>
        <time>2019-12-14T10:15:47Z</time>
      </trkpt>
      <trkpt lat="39.6597900" lon="-0.4192960">
        <ele>286.6</ele>
        <time>2019-12-14T10:15:51Z</time>
      </trkpt>
      <trkpt lat="39.6597980" lon="-0.4192310">
        <ele>287.6</ele>
        <time>2019-12-14T10:15:55Z</time>
      </trkpt>
      <trkpt lat="39.6598070" lon="-0.4191690">
        <ele>288.8</ele>
        <time>2019-12-14T10:15:59Z</time>
      </trkpt>
      <trkpt lat="39.6598200" lon="-0.4190960">
        <ele>290.0</ele>
        <time>2019-12-14T10:16:04Z</time>
      </trkpt>
      <trkpt lat="39.6598160" lon="-0.4190800">
        <ele>290.0</ele>
        <time>2019-12-14T10:16:05Z</time>
      </trkpt>
      <trkpt lat="39.6597670" lon="-0.4190050">
        <ele>291.0</ele>
        <time>2019-12-14T10:16:10Z</time>
      </trkpt>
      <trkpt lat="39.6596730" lon="-0.4189020">
        <ele>292.2</ele>
        <time>2019-12-14T10:16:17Z</time>
      </trkpt>
      <trkpt lat="39.6595380" lon="-0.4188370">
        <ele>293.2</ele>
        <time>2019-12-14T10:16:25Z</time>
      </trkpt>
      <trkpt lat="39.6595230" lon="-0.4188350">
        <ele>293.2</ele>
        <time>2019-12-14T10:16:26Z</time>
      </trkpt>
      <trkpt lat="39.6595050" lon="-0.4188350">
        <ele>293.4</ele>
        <time>2019-12-14T10:16:27Z</time>
      </trkpt>
      <trkpt lat="39.6594650" lon="-0.4188160">
        <ele>293.4</ele>
        <time>2019-12-14T10:16:30Z</time>
      </trkpt>
      <trkpt lat="39.6594970" lon="-0.4187470">
        <ele>293.6</ele>
        <time>2019-12-14T10:16:35Z</time>
      </trkpt>
      <trkpt lat="39.6595960" lon="-0.4187370">
        <ele>294.4</ele>
        <time>2019-12-14T10:16:41Z</time>
      </trkpt>
      <trkpt lat="39.6596760" lon="-0.4187710">
        <ele>295.4</ele>
        <time>2019-12-14T10:16:46Z</time>
      </trkpt>
      <trkpt lat="39.6597370" lon="-0.4188060">
        <ele>296.6</ele>
        <time>2019-12-14T10:16:50Z</time>
      </trkpt>
      <trkpt lat="39.6597960" lon="-0.4188500">
        <ele>297.8</ele>
        <time>2019-12-14T10:16:54Z</time>
      </trkpt>
      <trkpt lat="39.6598570" lon="-0.4188830">
        <ele>298.8</ele>
        <time>2019-12-14T10:16:58Z</time>
      </trkpt>
      <trkpt lat="39.6599140" lon="-0.4189360">
        <ele>299.6</ele>
        <time>2019-12-14T10:17:02Z</time>
      </trkpt>
      <trkpt lat="39.6599590" lon="-0.4189750">
        <ele>300.0</ele>
        <time>2019-12-14T10:17:05Z</time>
      </trkpt>
      <trkpt lat="39.6600360" lon="-0.4190890">
        <ele>301.2</ele>
        <time>2019-12-14T10:17:12Z</time>
      </trkpt>
      <trkpt lat="39.6600530" lon="-0.4191800">
        <ele>302.2</ele>
        <time>2019-12-14T10:17:17Z</time>
      </trkpt>
      <trkpt lat="39.6600760" lon="-0.4192370">
        <ele>302.8</ele>
        <time>2019-12-14T10:17:20Z</time>
      </trkpt>
      <trkpt lat="39.6601150" lon="-0.4192440">
        <ele>303.4</ele>
        <time>2019-12-14T10:17:23Z</time>
      </trkpt>
      <trkpt lat="39.6601040" lon="-0.4192660">
        <ele>304.8</ele>
        <time>2019-12-14T10:17:28Z</time>
      </trkpt>
      <trkpt lat="39.6601560" lon="-0.4190850">
        <ele>305.8</ele>
        <time>2019-12-14T10:17:39Z</time>
      </trkpt>
      <trkpt lat="39.6601610" lon="-0.4189950">
        <ele>307.0</ele>
        <time>2019-12-14T10:17:44Z</time>
      </trkpt>
      <trkpt lat="39.6601580" lon="-0.4189570">
        <ele>307.4</ele>
        <time>2019-12-14T10:17:46Z</time>
      </trkpt>
      <trkpt lat="39.6601540" lon="-0.4189190">
        <ele>308.0</ele>
        <time>2019-12-14T10:17:48Z</time>
      </trkpt>
      <trkpt lat="39.6601250" lon="-0.4188220">
        <ele>309.0</ele>
        <time>2019-12-14T10:17:53Z</time>
      </trkpt>
      <trkpt lat="39.6600840" lon="-0.4187540">
        <ele>310.4</ele>
        <time>2019-12-14T10:17:57Z</time>
      </trkpt>
      <trkpt lat="39.6600440" lon="-0.4187180">
        <ele>311.2</ele>
        <time>2019-12-14T10:18:00Z</time>
      </trkpt>
      <trkpt lat="39.6600120" lon="-0.4187020">
        <ele>311.6</ele>
        <time>2019-12-14T10:18:02Z</time>
      </trkpt>
      <trkpt lat="39.6599360" lon="-0.4186460">
        <ele>312.8</ele>
        <time>2019-12-14T10:18:08Z</time>
      </trkpt>
      <trkpt lat="39.6598850" lon="-0.4185790">
        <ele>313.8</ele>
        <time>2019-12-14T10:18:12Z</time>
      </trkpt>
      <trkpt lat="39.6597980" lon="-0.4185020">
        <ele>314.8</ele>
        <time>2019-12-14T10:18:18Z</time>
      </trkpt>
      <trkpt lat="39.6597250" lon="-0.4183940">
        <ele>316.0</ele>
        <time>2019-12-14T10:18:24Z</time>
      </trkpt>
      <trkpt lat="39.6596210" lon="-0.4182610">
        <ele>317.0</ele>
        <time>2019-12-14T10:18:32Z</time>
      </trkpt>
      <trkpt lat="39.6595420" lon="-0.4181790">
        <ele>318.2</ele>
        <time>2019-12-14T10:18:37Z</time>
      </trkpt>
      <trkpt lat="39.6594100" lon="-0.4181310">
        <ele>319.4</ele>
        <time>2019-12-14T10:18:45Z</time>
      </trkpt>
      <trkpt lat="39.6593710" lon="-0.4181290">
        <ele>319.8</ele>
        <time>2019-12-14T10:18:47Z</time>
      </trkpt>
      <trkpt lat="39.6593540" lon="-0.4181320">
        <ele>320.0</ele>
        <time>2019-12-14T10:18:48Z</time>
      </trkpt>
      <trkpt lat="39.6593200" lon="-0.4181470">
        <ele>320.6</ele>
        <time>2019-12-14T10:18:50Z</time>
      </trkpt>
      <trkpt lat="39.6592820" lon="-0.4181570">
        <ele>321.2</ele>
        <time>2019-12-14T10:18:52Z</time>
      </trkpt>
      <trkpt lat="39.6592500" lon="-0.4181660">
        <ele>321.6</ele>
        <time>2019-12-14T10:18:54Z</time>
      </trkpt>
      <trkpt lat="39.6591460" lon="-0.4182260">
        <ele>322.6</ele>
        <time>2019-12-14T10:19:00Z</time>
      </trkpt>
      <trkpt lat="39.6590240" lon="-0.4183630">
        <ele>323.6</ele>
        <time>2019-12-14T10:19:08Z</time>
      </trkpt>
      <trkpt lat="39.6589880" lon="-0.4183670">
        <ele>323.8</ele>
        <time>2019-12-14T10:19:10Z</time>
      </trkpt>
      <trkpt lat="39.6589960" lon="-0.4182710">
        <ele>324.8</ele>
        <time>2019-12-14T10:19:16Z</time>
      </trkpt>
      <trkpt lat="39.6590030" lon="-0.4182570">
        <ele>325.0</ele>
        <time>2019-12-14T10:19:17Z</time>
      </trkpt>
      <trkpt lat="39.6590430" lon="-0.4182070">
        <ele>326.2</ele>
        <time>2019-12-14T10:19:21Z</time>
      </trkpt>
      <trkpt lat="39.6590800" lon="-0.4181630">
        <ele>327.0</ele>
        <time>2019-12-14T10:19:24Z</time>
      </trkpt>
      <trkpt lat="39.6591220" lon="-0.4181080">
        <ele>328.4</ele>
        <time>2019-12-14T10:19:28Z</time>
      </trkpt>
      <trkpt lat="39.6591890" lon="-0.4180360">
        <ele>329.4</ele>
        <time>2019-12-14T10:19:34Z</time>
      </trkpt>
      <trkpt lat="39.6592590" lon="-0.4180020">
        <ele>330.6</ele>
        <time>2019-12-14T10:19:39Z</time>
      </trkpt>
      <trkpt lat="39.6593680" lon="-0.4179470">
        <ele>332.0</ele>
        <time>2019-12-14T10:19:46Z</time>
      </trkpt>
      <trkpt lat="39.6594560" lon="-0.4179100">
        <ele>333.0</ele>
        <time>2019-12-14T10:19:51Z</time>
      </trkpt>
      <trkpt lat="39.6595600" lon="-0.4178540">
        <ele>334.0</ele>
        <time>2019-12-14T10:19:57Z</time>
      </trkpt>
      <trkpt lat="39.6596410" lon="-0.4178050">
        <ele>335.2</ele>
        <time>2019-12-14T10:20:03Z</time>
      </trkpt>
      <trkpt lat="39.6597840" lon="-0.4178170">
        <ele>336.2</ele>
        <time>2019-12-14T10:20:11Z</time>
      </trkpt>
      <trkpt lat="39.6599270" lon="-0.4179490">
        <ele>337.2</ele>
        <time>2019-12-14T10:20:19Z</time>
      </trkpt>
      <trkpt lat="39.6600090" lon="-0.4180300">
        <ele>338.0</ele>
        <time>2019-12-14T10:20:24Z</time>
      </trkpt>
      <trkpt lat="39.6600620" lon="-0.4180820">
        <ele>338.2</ele>
        <time>2019-12-14T10:20:27Z</time>
      </trkpt>
      <trkpt lat="39.6601980" lon="-0.4181810">
        <ele>338.8</ele>
        <time>2019-12-14T10:20:34Z</time>
      </trkpt>
      <trkpt lat="39.6603190" lon="-0.4182300">
        <ele>339.2</ele>
        <time>2019-12-14T10:20:40Z</time>
      </trkpt>
      <trkpt lat="39.6604420" lon="-0.4182780">
        <ele>340.6</ele>
        <time>2019-12-14T10:20:47Z</time>
      </trkpt>
      <trkpt lat="39.6605090" lon="-0.4183070">
        <ele>341.8</ele>
        <time>2019-12-14T10:20:51Z</time>
      </trkpt>
      <trkpt lat="39.6606620" lon="-0.4183600">
        <ele>342.8</ele>
        <time>2019-12-14T10:20:58Z</time>
      </trkpt>
      <trkpt lat="39.6607740" lon="-0.4183900">
        <ele>343.2</ele>
        <time>2019-12-14T10:21:07Z</time>
      </trkpt>
      <trkpt lat="39.6608770" lon="-0.4184030">
        <ele>343.2</ele>
        <time>2019-12-14T10:21:11Z</time>
      </trkpt>
      <trkpt lat="39.6610880" lon="-0.4184260">
        <ele>343.2</ele>
        <time>2019-12-14T10:21:15Z</time>
      </trkpt>
      <trkpt lat="39.6612590" lon="-0.4184520">
        <ele>341.4</ele>
        <time>2019-12-14T10:21:20Z</time>
      </trkpt>
      <trkpt lat="39.6612980" lon="-0.4184730">
        <ele>340.8</ele>
        <time>2019-12-14T10:21:21Z</time>
      </trkpt>
      <trkpt lat="39.6614560" lon="-0.4185780">
        <ele>340.2</ele>
        <time>2019-12-14T10:21:24Z</time>
      </trkpt>
      <trkpt lat="39.6616510" lon="-0.4186640">
        <ele>339.8</ele>
        <time>2019-12-14T10:21:27Z</time>
      </trkpt>
      <trkpt lat="39.6618410" lon="-0.4187810">
        <ele>338.8</ele>
        <time>2019-12-14T10:21:30Z</time>
      </trkpt>
      <trkpt lat="39.6619210" lon="-0.4188540">
        <ele>336.8</ele>
        <time>2019-12-14T10:21:32Z</time>
      </trkpt>
      <trkpt lat="39.6619540" lon="-0.4188700">
        <ele>335.4</ele>
        <time>2019-12-14T10:21:33Z</time>
      </trkpt>
      <trkpt lat="39.6619780" lon="-0.4188910">
        <ele>333.8</ele>
        <time>2019-12-14T10:21:34Z</time>
      </trkpt>
      <trkpt lat="39.6620000" lon="-0.4189100">
        <ele>332.6</ele>
        <time>2019-12-14T10:21:35Z</time>
      </trkpt>
      <trkpt lat="39.6620700" lon="-0.4189430">
        <ele>331.8</ele>
        <time>2019-12-14T10:21:38Z</time>
      </trkpt>
      <trkpt lat="39.6624860" lon="-0.4190800">
        <ele>332.4</ele>
        <time>2019-12-14T10:21:52Z</time>
      </trkpt>
      <trkpt lat="39.6627100" lon="-0.4190220">
        <ele>332.6</ele>
        <time>2019-12-14T10:21:58Z</time>
      </trkpt>
      <trkpt lat="39.6628360" lon="-0.4190270">
        <ele>332.8</ele>
        <time>2019-12-14T10:22:01Z</time>
      </trkpt>
      <trkpt lat="39.6631420" lon="-0.4189470">
        <ele>332.8</ele>
        <time>2019-12-14T10:22:10Z</time>
      </trkpt>
      <trkpt lat="39.6631830" lon="-0.4189850">
        <ele>333.0</ele>
        <time>2019-12-14T10:22:12Z</time>
      </trkpt>
      <trkpt lat="39.6632410" lon="-0.4189940">
        <ele>333.4</ele>
        <time>2019-12-14T10:22:15Z</time>
      </trkpt>
      <trkpt lat="39.6632790" lon="-0.4190080">
        <ele>334.2</ele>
        <time>2019-12-14T10:22:17Z</time>
      </trkpt>
      <trkpt lat="39.6632840" lon="-0.4190110">
        <ele>334.6</ele>
        <time>2019-12-14T10:22:19Z</time>
      </trkpt>
      <trkpt lat="39.6634070" lon="-0.4189800">
        <ele>335.8</ele>
        <time>2019-12-14T10:22:47Z</time>
      </trkpt>
      <trkpt lat="39.6634830" lon="-0.4188880">
        <ele>336.2</ele>
        <time>2019-12-14T10:22:53Z</time>
      </trkpt>
      <trkpt lat="39.6635400" lon="-0.4187840">
        <ele>336.4</ele>
        <time>2019-12-14T10:23:01Z</time>
      </trkpt>
      <trkpt lat="39.6635270" lon="-0.4187240">
        <ele>335.6</ele>
        <time>2019-12-14T10:23:17Z</time>
      </trkpt>
      <trkpt lat="39.6635140" lon="-0.4187040">
        <ele>335.6</ele>
        <time>2019-12-14T10:23:20Z</time>
      </trkpt>
      <trkpt lat="39.6635130" lon="-0.4185770">
        <ele>334.2</ele>
        <time>2019-12-14T10:23:30Z</time>
      </trkpt>
      <trkpt lat="39.6635860" lon="-0.4182070">
        <ele>333.2</ele>
        <time>2019-12-14T10:23:38Z</time>
      </trkpt>
      <trkpt lat="39.6635980" lon="-0.4181510">
        <ele>332.8</ele>
        <time>2019-12-14T10:23:39Z</time>
      </trkpt>
      <trkpt lat="39.6636080" lon="-0.4180930">
        <ele>331.6</ele>
        <time>2019-12-14T10:23:40Z</time>
      </trkpt>
      <trkpt lat="39.6636390" lon="-0.4179080">
        <ele>330.4</ele>
        <time>2019-12-14T10:23:43Z</time>
      </trkpt>
      <trkpt lat="39.6636660" lon="-0.4177230">
        <ele>329.4</ele>
        <time>2019-12-14T10:23:46Z</time>
      </trkpt>
      <trkpt lat="39.6636530" lon="-0.4172330">
        <ele>330.6</ele>
        <time>2019-12-14T10:23:59Z</time>
      </trkpt>
      <trkpt lat="39.6636930" lon="-0.4170840">
        <ele>331.8</ele>
        <time>2019-12-14T10:24:03Z</time>
      </trkpt>
      <trkpt lat="39.6637300" lon="-0.4169840">
        <ele>332.0</ele>
        <time>2019-12-14T10:24:05Z</time>
      </trkpt>
      <trkpt lat="39.6637660" lon="-0.4167730">
        <ele>332.0</ele>
        <time>2019-12-14T10:24:09Z</time>
      </trkpt>
      <trkpt lat="39.6637370" lon="-0.4165700">
        <ele>331.0</ele>
        <time>2019-12-14T10:24:14Z</time>
      </trkpt>
      <trkpt lat="39.6637400" lon="-0.4164780">
        <ele>330.6</ele>
        <time>2019-12-14T10:24:18Z</time>
      </trkpt>
      <trkpt lat="39.6637880" lon="-0.4162980">
        <ele>329.6</ele>
        <time>2019-12-14T10:24:26Z</time>
      </trkpt>
      <trkpt lat="39.6637630" lon="-0.4161990">
        <ele>328.2</ele>
        <time>2019-12-14T10:24:28Z</time>
      </trkpt>
      <trkpt lat="39.6637430" lon="-0.4161140">
        <ele>327.0</ele>
        <time>2019-12-14T10:24:30Z</time>
      </trkpt>
      <trkpt lat="39.6637380" lon="-0.4160600">
        <ele>326.4</ele>
        <time>2019-12-14T10:24:31Z</time>
      </trkpt>
      <trkpt lat="39.6637430" lon="-0.4159560">
        <ele>325.6</ele>
        <time>2019-12-14T10:24:33Z</time>
      </trkpt>
      <trkpt lat="39.6637680" lon="-0.4157990">
        <ele>325.4</ele>
        <time>2019-12-14T10:24:36Z</time>
      </trkpt>
      <trkpt lat="39.6637150" lon="-0.4154170">
        <ele>324.6</ele>
        <time>2019-12-14T10:24:44Z</time>
      </trkpt>
      <trkpt lat="39.6636790" lon="-0.4152410">
        <ele>324.4</ele>
        <time>2019-12-14T10:24:50Z</time>
      </trkpt>
      <trkpt lat="39.6637300" lon="-0.4150440">
        <ele>324.6</ele>
        <time>2019-12-14T10:24:55Z</time>
      </trkpt>
      <trkpt lat="39.6636700" lon="-0.4146850">
        <ele>325.4</ele>
        <time>2019-12-14T10:25:05Z</time>
      </trkpt>
      <trkpt lat="39.6636670" lon="-0.4146470">
        <ele>325.4</ele>
        <time>2019-12-14T10:25:06Z</time>
      </trkpt>
      <trkpt lat="39.6637540" lon="-0.4139810">
        <ele>325.0</ele>
        <time>2019-12-14T10:25:29Z</time>
      </trkpt>
      <trkpt lat="39.6637490" lon="-0.4137690">
        <ele>325.0</ele>
        <time>2019-12-14T10:25:33Z</time>
      </trkpt>
      <trkpt lat="39.6637040" lon="-0.4135140">
        <ele>325.0</ele>
        <time>2019-12-14T10:25:38Z</time>
      </trkpt>
      <trkpt lat="39.6638080" lon="-0.4129790">
        <ele>326.0</ele>
        <time>2019-12-14T10:25:52Z</time>
      </trkpt>
      <trkpt lat="39.6638920" lon="-0.4128530">
        <ele>327.0</ele>
        <time>2019-12-14T10:25:57Z</time>
      </trkpt>
      <trkpt lat="39.6639030" lon="-0.4126620">
        <ele>327.6</ele>
        <time>2019-12-14T10:26:03Z</time>
      </trkpt>
      <trkpt lat="39.6639690" lon="-0.4124880">
        <ele>328.2</ele>
        <time>2019-12-14T10:26:09Z</time>
      </trkpt>
      <trkpt lat="39.6640240" lon="-0.4124110">
        <ele>329.0</ele>
        <time>2019-12-14T10:26:12Z</time>
      </trkpt>
      <trkpt lat="39.6640850" lon="-0.4123690">
        <ele>329.4</ele>
        <time>2019-12-14T10:26:14Z</time>
      </trkpt>
      <trkpt lat="39.6641750" lon="-0.4122790">
        <ele>330.4</ele>
        <time>2019-12-14T10:26:18Z</time>
      </trkpt>
      <trkpt lat="39.6642720" lon="-0.4120100">
        <ele>331.4</ele>
        <time>2019-12-14T10:26:27Z</time>
      </trkpt>
      <trkpt lat="39.6643660" lon="-0.4115030">
        <ele>332.0</ele>
        <time>2019-12-14T10:26:39Z</time>
      </trkpt>
      <trkpt lat="39.6643430" lon="-0.4114110">
        <ele>331.0</ele>
        <time>2019-12-14T10:26:42Z</time>
      </trkpt>
      <trkpt lat="39.6643630" lon="-0.4113840">
        <ele>329.8</ele>
        <time>2019-12-14T10:26:44Z</time>
      </trkpt>
      <trkpt lat="39.6643790" lon="-0.4113780">
        <ele>329.0</ele>
        <time>2019-12-14T10:26:45Z</time>
      </trkpt>
      <trkpt lat="39.6644000" lon="-0.4113720">
        <ele>328.6</ele>
        <time>2019-12-14T10:26:46Z</time>
      </trkpt>
      <trkpt lat="39.6644330" lon="-0.4113500">
        <ele>327.8</ele>
        <time>2019-12-14T10:26:49Z</time>
      </trkpt>
      <trkpt lat="39.6645050" lon="-0.4112360">
        <ele>327.6</ele>
        <time>2019-12-14T10:26:54Z</time>
      </trkpt>
      <trkpt lat="39.6645050" lon="-0.4112090">
        <ele>327.6</ele>
        <time>2019-12-14T10:26:55Z</time>
      </trkpt>
      <trkpt lat="39.6644590" lon="-0.4110850">
        <ele>328.0</ele>
        <time>2019-12-14T10:27:01Z</time>
      </trkpt>
      <trkpt lat="39.6644530" lon="-0.4110850">
        <ele>328.6</ele>
        <time>2019-12-14T10:27:03Z</time>
      </trkpt>
      <trkpt lat="39.6644710" lon="-0.4111300">
        <ele>329.6</ele>
        <time>2019-12-14T10:27:16Z</time>
      </trkpt>
      <trkpt lat="39.6645070" lon="-0.4111930">
        <ele>329.2</ele>
        <time>2019-12-14T10:27:20Z</time>
      </trkpt>
      <trkpt lat="39.6645200" lon="-0.4112240">
        <ele>329.0</ele>
        <time>2019-12-14T10:27:22Z</time>
      </trkpt>
      <trkpt lat="39.6644970" lon="-0.4113290">
        <ele>328.8</ele>
        <time>2019-12-14T10:27:26Z</time>
      </trkpt>
      <trkpt lat="39.6644950" lon="-0.4115290">
        <ele>327.8</ele>
        <time>2019-12-14T10:27:31Z</time>
      </trkpt>
      <trkpt lat="39.6645670" lon="-0.4114880">
        <ele>326.8</ele>
        <time>2019-12-14T10:27:35Z</time>
      </trkpt>
      <trkpt lat="39.6646180" lon="-0.4114470">
        <ele>325.2</ele>
        <time>2019-12-14T10:27:37Z</time>
      </trkpt>
      <trkpt lat="39.6646620" lon="-0.4113910">
        <ele>324.4</ele>
        <time>2019-12-14T10:27:39Z</time>
      </trkpt>
      <trkpt lat="39.6646830" lon="-0.4113600">
        <ele>324.0</ele>
        <time>2019-12-14T10:27:40Z</time>
      </trkpt>
      <trkpt lat="39.6647250" lon="-0.4110610">
        <ele>323.8</ele>
        <time>2019-12-14T10:27:47Z</time>
      </trkpt>
      <trkpt lat="39.6646190" lon="-0.4107270">
        <ele>323.6</ele>
        <time>2019-12-14T10:27:52Z</time>
      </trkpt>
      <trkpt lat="39.6646370" lon="-0.4105220">
        <ele>323.0</ele>
        <time>2019-12-14T10:27:55Z</time>
      </trkpt>
      <trkpt lat="39.6647550" lon="-0.4104150">
        <ele>322.0</ele>
        <time>2019-12-14T10:27:58Z</time>
      </trkpt>
      <trkpt lat="39.6647960" lon="-0.4103900">
        <ele>321.8</ele>
        <time>2019-12-14T10:27:59Z</time>
      </trkpt>
      <trkpt lat="39.6651000" lon="-0.4099690">
        <ele>323.0</ele>
        <time>2019-12-14T10:28:14Z</time>
      </trkpt>
      <trkpt lat="39.6651360" lon="-0.4098870">
        <ele>324.0</ele>
        <time>2019-12-14T10:28:17Z</time>
      </trkpt>
      <trkpt lat="39.6651940" lon="-0.4097900">
        <ele>325.0</ele>
        <time>2019-12-14T10:28:21Z</time>
      </trkpt>
      <trkpt lat="39.6652510" lon="-0.4096580">
        <ele>326.4</ele>
        <time>2019-12-14T10:28:26Z</time>
      </trkpt>
      <trkpt lat="39.6652680" lon="-0.4094910">
        <ele>327.6</ele>
        <time>2019-12-14T10:28:31Z</time>
      </trkpt>
      <trkpt lat="39.6653100" lon="-0.4093150">
        <ele>328.8</ele>
        <time>2019-12-14T10:28:36Z</time>
      </trkpt>
      <trkpt lat="39.6655050" lon="-0.4091310">
        <ele>329.8</ele>
        <time>2019-12-14T10:28:45Z</time>
      </trkpt>
      <trkpt lat="39.6655370" lon="-0.4090840">
        <ele>330.0</ele>
        <time>2019-12-14T10:28:47Z</time>
      </trkpt>
      <trkpt lat="39.6655780" lon="-0.4089200">
        <ele>331.0</ele>
        <time>2019-12-14T10:28:52Z</time>
      </trkpt>
      <trkpt lat="39.6655940" lon="-0.4087320">
        <ele>332.4</ele>
        <time>2019-12-14T10:28:57Z</time>
      </trkpt>
      <trkpt lat="39.6656410" lon="-0.4084900">
        <ele>333.4</ele>
        <time>2019-12-14T10:29:04Z</time>
      </trkpt>
      <trkpt lat="39.6656660" lon="-0.4082460">
        <ele>334.6</ele>
        <time>2019-12-14T10:29:11Z</time>
      </trkpt>
      <trkpt lat="39.6657090" lon="-0.4080850">
        <ele>335.6</ele>
        <time>2019-12-14T10:29:16Z</time>
      </trkpt>
      <trkpt lat="39.6658200" lon="-0.4080040">
        <ele>336.8</ele>
        <time>2019-12-14T10:29:22Z</time>
      </trkpt>
      <trkpt lat="39.6659470" lon="-0.4079710">
        <ele>338.0</ele>
        <time>2019-12-14T10:29:28Z</time>
      </trkpt>
      <trkpt lat="39.6660230" lon="-0.4079260">
        <ele>339.2</ele>
        <time>2019-12-14T10:29:32Z</time>
      </trkpt>
      <trkpt lat="39.6660660" lon="-0.4078620">
        <ele>340.4</ele>
        <time>2019-12-14T10:29:35Z</time>
      </trkpt>
      <trkpt lat="39.6660880" lon="-0.4077440">
        <ele>341.6</ele>
        <time>2019-12-14T10:29:39Z</time>
      </trkpt>
      <trkpt lat="39.6660880" lon="-0.4076410">
        <ele>342.8</ele>
        <time>2019-12-14T10:29:42Z</time>
      </trkpt>
      <trkpt lat="39.6660850" lon="-0.4073930">
        <ele>344.0</ele>
        <time>2019-12-14T10:29:49Z</time>
      </trkpt>
      <trkpt lat="39.6661760" lon="-0.4068180">
        <ele>345.0</ele>
        <time>2019-12-14T10:30:04Z</time>
      </trkpt>
      <trkpt lat="39.6662560" lon="-0.4064630">
        <ele>346.2</ele>
        <time>2019-12-14T10:30:13Z</time>
      </trkpt>
      <trkpt lat="39.6663230" lon="-0.4061710">
        <ele>347.2</ele>
        <time>2019-12-14T10:30:20Z</time>
      </trkpt>
      <trkpt lat="39.6664410" lon="-0.4054840">
        <ele>348.0</ele>
        <time>2019-12-14T10:30:34Z</time>
      </trkpt>
      <trkpt lat="39.6664600" lon="-0.4053190">
        <ele>348.2</ele>
        <time>2019-12-14T10:30:37Z</time>
      </trkpt>
      <trkpt lat="39.6664860" lon="-0.4051640">
        <ele>348.2</ele>
        <time>2019-12-14T10:30:40Z</time>
      </trkpt>
      <trkpt lat="39.6665270" lon="-0.4050200">
        <ele>348.4</ele>
        <time>2019-12-14T10:30:43Z</time>
      </trkpt>
      <trkpt lat="39.6667580" lon="-0.4046270">
        <ele>349.6</ele>
        <time>2019-12-14T10:30:54Z</time>
      </trkpt>
      <trkpt lat="39.6669670" lon="-0.4044800">
        <ele>350.8</ele>
        <time>2019-12-14T10:31:02Z</time>
      </trkpt>
      <trkpt lat="39.6671320" lon="-0.4044200">
        <ele>352.0</ele>
        <time>2019-12-14T10:31:08Z</time>
      </trkpt>
      <trkpt lat="39.6672220" lon="-0.4043750">
        <ele>353.2</ele>
        <time>2019-12-14T10:31:11Z</time>
      </trkpt>
      <trkpt lat="39.6673030" lon="-0.4042260">
        <ele>354.2</ele>
        <time>2019-12-14T10:31:16Z</time>
      </trkpt>
      <trkpt lat="39.6672870" lon="-0.4036000">
        <ele>353.6</ele>
        <time>2019-12-14T10:31:32Z</time>
      </trkpt>
      <trkpt lat="39.6671850" lon="-0.4035210">
        <ele>353.2</ele>
        <time>2019-12-14T10:31:35Z</time>
      </trkpt>
      <trkpt lat="39.6671500" lon="-0.4034870">
        <ele>353.0</ele>
        <time>2019-12-14T10:31:36Z</time>
      </trkpt>
      <trkpt lat="39.6670300" lon="-0.4032740">
        <ele>352.6</ele>
        <time>2019-12-14T10:31:41Z</time>
      </trkpt>
      <trkpt lat="39.6670170" lon="-0.4031530">
        <ele>352.6</ele>
        <time>2019-12-14T10:31:43Z</time>
      </trkpt>
      <trkpt lat="39.6670250" lon="-0.4029540">
        <ele>352.2</ele>
        <time>2019-12-14T10:31:46Z</time>
      </trkpt>
      <trkpt lat="39.6670580" lon="-0.4028150">
        <ele>352.0</ele>
        <time>2019-12-14T10:31:48Z</time>
      </trkpt>
      <trkpt lat="39.6672080" lon="-0.4024660">
        <ele>350.8</ele>
        <time>2019-12-14T10:31:53Z</time>
      </trkpt>
      <trkpt lat="39.6674400" lon="-0.4024140">
        <ele>349.6</ele>
        <time>2019-12-14T10:31:58Z</time>
      </trkpt>
      <trkpt lat="39.6675530" lon="-0.4024220">
        <ele>348.8</ele>
        <time>2019-12-14T10:32:00Z</time>
      </trkpt>
      <trkpt lat="39.6676130" lon="-0.4024250">
        <ele>348.4</ele>
        <time>2019-12-14T10:32:01Z</time>
      </trkpt>
      <trkpt lat="39.6679160" lon="-0.4024140">
        <ele>347.2</ele>
        <time>2019-12-14T10:32:06Z</time>
      </trkpt>
      <trkpt lat="39.6680300" lon="-0.4023930">
        <ele>346.6</ele>
        <time>2019-12-14T10:32:08Z</time>
      </trkpt>
      <trkpt lat="39.6681440" lon="-0.4023850">
        <ele>346.2</ele>
        <time>2019-12-14T10:32:10Z</time>
      </trkpt>
      <trkpt lat="39.6682010" lon="-0.4023690">
        <ele>346.0</ele>
        <time>2019-12-14T10:32:11Z</time>
      </trkpt>
      <trkpt lat="39.6683390" lon="-0.4022380">
        <ele>345.2</ele>
        <time>2019-12-14T10:32:14Z</time>
      </trkpt>
      <trkpt lat="39.6683720" lon="-0.4021750">
        <ele>345.0</ele>
        <time>2019-12-14T10:32:15Z</time>
      </trkpt>
      <trkpt lat="39.6684060" lon="-0.4021000">
        <ele>344.8</ele>
        <time>2019-12-14T10:32:16Z</time>
      </trkpt>
      <trkpt lat="39.6684550" lon="-0.4019240">
        <ele>344.2</ele>
        <time>2019-12-14T10:32:18Z</time>
      </trkpt>
      <trkpt lat="39.6684850" lon="-0.4018370">
        <ele>343.8</ele>
        <time>2019-12-14T10:32:19Z</time>
      </trkpt>
      <trkpt lat="39.6685680" lon="-0.4016830">
        <ele>342.6</ele>
        <time>2019-12-14T10:32:21Z</time>
      </trkpt>
      <trkpt lat="39.6687140" lon="-0.4015080">
        <ele>341.2</ele>
        <time>2019-12-14T10:32:24Z</time>
      </trkpt>
      <trkpt lat="39.6687630" lon="-0.4014700">
        <ele>340.0</ele>
        <time>2019-12-14T10:32:25Z</time>
      </trkpt>
      <trkpt lat="39.6688600" lon="-0.4014100">
        <ele>338.6</ele>
        <time>2019-12-14T10:32:27Z</time>
      </trkpt>
      <trkpt lat="39.6689650" lon="-0.4013710">
        <ele>338.0</ele>
        <time>2019-12-14T10:32:29Z</time>
      </trkpt>
      <trkpt lat="39.6690190" lon="-0.4013620">
        <ele>337.8</ele>
        <time>2019-12-14T10:32:30Z</time>
      </trkpt>
      <trkpt lat="39.6691270" lon="-0.4013860">
        <ele>337.4</ele>
        <time>2019-12-14T10:32:32Z</time>
      </trkpt>
      <trkpt lat="39.6692410" lon="-0.4014020">
        <ele>337.2</ele>
        <time>2019-12-14T10:32:34Z</time>
      </trkpt>
      <trkpt lat="39.6693750" lon="-0.4012360">
        <ele>336.4</ele>
        <time>2019-12-14T10:32:38Z</time>
      </trkpt>
      <trkpt lat="39.6693690" lon="-0.4010750">
        <ele>336.0</ele>
        <time>2019-12-14T10:32:40Z</time>
      </trkpt>
      <trkpt lat="39.6693600" lon="-0.4009890">
        <ele>335.0</ele>
        <time>2019-12-14T10:32:41Z</time>
      </trkpt>
      <trkpt lat="39.6693410" lon="-0.4008070">
        <ele>334.4</ele>
        <time>2019-12-14T10:32:43Z</time>
      </trkpt>
      <trkpt lat="39.6693400" lon="-0.4007140">
        <ele>334.0</ele>
        <time>2019-12-14T10:32:44Z</time>
      </trkpt>
      <trkpt lat="39.6693380" lon="-0.4005290">
        <ele>333.0</ele>
        <time>2019-12-14T10:32:46Z</time>
      </trkpt>
      <trkpt lat="39.6693330" lon="-0.4004390">
        <ele>332.6</ele>
        <time>2019-12-14T10:32:47Z</time>
      </trkpt>
      <trkpt lat="39.6693180" lon="-0.4002630">
        <ele>331.2</ele>
        <time>2019-12-14T10:32:49Z</time>
      </trkpt>
      <trkpt lat="39.6693040" lon="-0.4000990">
        <ele>329.2</ele>
        <time>2019-12-14T10:32:51Z</time>
      </trkpt>
      <trkpt lat="39.6693120" lon="-0.3999400">
        <ele>327.8</ele>
        <time>2019-12-14T10:32:53Z</time>
      </trkpt>
      <trkpt lat="39.6693160" lon="-0.3996180">
        <ele>326.8</ele>
        <time>2019-12-14T10:32:57Z</time>
      </trkpt>
      <trkpt lat="39.6694200" lon="-0.3992440">
        <ele>325.6</ele>
        <time>2019-12-14T10:33:02Z</time>
      </trkpt>
      <trkpt lat="39.6694620" lon="-0.3990070">
        <ele>325.2</ele>
        <time>2019-12-14T10:33:05Z</time>
      </trkpt>
      <trkpt lat="39.6694810" lon="-0.3986890">
        <ele>324.6</ele>
        <time>2019-12-14T10:33:09Z</time>
      </trkpt>
      <trkpt lat="39.6694390" lon="-0.3984830">
        <ele>324.4</ele>
        <time>2019-12-14T10:33:12Z</time>
      </trkpt>
      <trkpt lat="39.6694250" lon="-0.3983470">
        <ele>323.8</ele>
        <time>2019-12-14T10:33:14Z</time>
      </trkpt>
      <trkpt lat="39.6694010" lon="-0.3982270">
        <ele>323.6</ele>
        <time>2019-12-14T10:33:16Z</time>
      </trkpt>
      <trkpt lat="39.6690500" lon="-0.3976990">
        <ele>323.8</ele>
        <time>2019-12-14T10:33:29Z</time>
      </trkpt>
      <trkpt lat="39.6690820" lon="-0.3970660">
        <ele>324.6</ele>
        <time>2019-12-14T10:33:43Z</time>
      </trkpt>
      <trkpt lat="39.6692650" lon="-0.3965860">
        <ele>324.8</ele>
        <time>2019-12-14T10:33:54Z</time>
      </trkpt>
      <trkpt lat="39.6691990" lon="-0.3963350">
        <ele>325.4</ele>
        <time>2019-12-14T10:34:02Z</time>
      </trkpt>
      <trkpt lat="39.6691750" lon="-0.3962680">
        <ele>326.0</ele>
        <time>2019-12-14T10:34:04Z</time>
      </trkpt>
      <trkpt lat="39.6691650" lon="-0.3961250">
        <ele>327.2</ele>
        <time>2019-12-14T10:34:08Z</time>
      </trkpt>
      <trkpt lat="39.6691210" lon="-0.3960380">
        <ele>328.2</ele>
        <time>2019-12-14T10:34:11Z</time>
      </trkpt>
      <trkpt lat="39.6690230" lon="-0.3959840">
        <ele>329.4</ele>
        <time>2019-12-14T10:34:14Z</time>
      </trkpt>
      <trkpt lat="39.6688810" lon="-0.3959230">
        <ele>329.8</ele>
        <time>2019-12-14T10:34:17Z</time>
      </trkpt>
      <trkpt lat="39.6686120" lon="-0.3958710">
        <ele>329.8</ele>
        <time>2019-12-14T10:34:21Z</time>
      </trkpt>
      <trkpt lat="39.6683680" lon="-0.3959130">
        <ele>328.8</ele>
        <time>2019-12-14T10:34:24Z</time>
      </trkpt>
      <trkpt lat="39.6682800" lon="-0.3959130">
        <ele>328.4</ele>
        <time>2019-12-14T10:34:25Z</time>
      </trkpt>
      <trkpt lat="39.6681890" lon="-0.3959070">
        <ele>327.0</ele>
        <time>2019-12-14T10:34:26Z</time>
      </trkpt>
      <trkpt lat="39.6680350" lon="-0.3958820">
        <ele>326.0</ele>
        <time>2019-12-14T10:34:28Z</time>
      </trkpt>
      <trkpt lat="39.6679410" lon="-0.3957950">
        <ele>324.4</ele>
        <time>2019-12-14T10:34:30Z</time>
      </trkpt>
      <trkpt lat="39.6679060" lon="-0.3956730">
        <ele>322.6</ele>
        <time>2019-12-14T10:34:32Z</time>
      </trkpt>
      <trkpt lat="39.6678930" lon="-0.3955510">
        <ele>321.2</ele>
        <time>2019-12-14T10:34:34Z</time>
      </trkpt>
      <trkpt lat="39.6678940" lon="-0.3954900">
        <ele>320.8</ele>
        <time>2019-12-14T10:34:35Z</time>
      </trkpt>
      <trkpt lat="39.6679850" lon="-0.3949380">
        <ele>320.2</ele>
        <time>2019-12-14T10:34:44Z</time>
      </trkpt>
      <trkpt lat="39.6676900" lon="-0.3946890">
        <ele>321.0</ele>
        <time>2019-12-14T10:34:52Z</time>
      </trkpt>
      <trkpt lat="39.6676400" lon="-0.3946730">
        <ele>321.4</ele>
        <time>2019-12-14T10:34:53Z</time>
      </trkpt>
      <trkpt lat="39.6674410" lon="-0.3944670">
        <ele>321.6</ele>
        <time>2019-12-14T10:34:58Z</time>
      </trkpt>
      <trkpt lat="39.6674140" lon="-0.3944150">
        <ele>321.6</ele>
        <time>2019-12-14T10:34:59Z</time>
      </trkpt>
      <trkpt lat="39.6673540" lon="-0.3942610">
        <ele>321.8</ele>
        <time>2019-12-14T10:35:02Z</time>
      </trkpt>
      <trkpt lat="39.6672960" lon="-0.3940230">
        <ele>321.8</ele>
        <time>2019-12-14T10:35:06Z</time>
      </trkpt>
      <trkpt lat="39.6669080" lon="-0.3938160">
        <ele>321.4</ele>
        <time>2019-12-14T10:35:13Z</time>
      </trkpt>
      <trkpt lat="39.6668300" lon="-0.3938090">
        <ele>321.4</ele>
        <time>2019-12-14T10:35:14Z</time>
      </trkpt>
      <trkpt lat="39.6666360" lon="-0.3935490">
        <ele>320.2</ele>
        <time>2019-12-14T10:35:19Z</time>
      </trkpt>
      <trkpt lat="39.6666590" lon="-0.3934640">
        <ele>319.8</ele>
        <time>2019-12-14T10:35:20Z</time>
      </trkpt>
      <trkpt lat="39.6666950" lon="-0.3932760">
        <ele>318.8</ele>
        <time>2019-12-14T10:35:22Z</time>
      </trkpt>
      <trkpt lat="39.6667220" lon="-0.3929410">
        <ele>317.4</ele>
        <time>2019-12-14T10:35:25Z</time>
      </trkpt>
      <trkpt lat="39.6666030" lon="-0.3924600">
        <ele>315.8</ele>
        <time>2019-12-14T10:35:29Z</time>
      </trkpt>
      <trkpt lat="39.6665680" lon="-0.3922330">
        <ele>313.6</ele>
        <time>2019-12-14T10:35:31Z</time>
      </trkpt>
      <trkpt lat="39.6665700" lon="-0.3919970">
        <ele>312.2</ele>
        <time>2019-12-14T10:35:33Z</time>
      </trkpt>
      <trkpt lat="39.6665340" lon="-0.3917350">
        <ele>310.8</ele>
        <time>2019-12-14T10:35:35Z</time>
      </trkpt>
      <trkpt lat="39.6664460" lon="-0.3914560">
        <ele>309.6</ele>
        <time>2019-12-14T10:35:37Z</time>
      </trkpt>
      <trkpt lat="39.6663920" lon="-0.3913300">
        <ele>308.6</ele>
        <time>2019-12-14T10:35:38Z</time>
      </trkpt>
      <trkpt lat="39.6663520" lon="-0.3912100">
        <ele>307.8</ele>
        <time>2019-12-14T10:35:39Z</time>
      </trkpt>
      <trkpt lat="39.6662830" lon="-0.3909910">
        <ele>305.8</ele>
        <time>2019-12-14T10:35:41Z</time>
      </trkpt>
      <trkpt lat="39.6662410" lon="-0.3908830">
        <ele>304.6</ele>
        <time>2019-12-14T10:35:42Z</time>
      </trkpt>
      <trkpt lat="39.6661940" lon="-0.3907720">
        <ele>303.0</ele>
        <time>2019-12-14T10:35:43Z</time>
      </trkpt>
      <trkpt lat="39.6661430" lon="-0.3906620">
        <ele>301.0</ele>
        <time>2019-12-14T10:35:44Z</time>
      </trkpt>
      <trkpt lat="39.6660880" lon="-0.3905510">
        <ele>299.2</ele>
        <time>2019-12-14T10:35:45Z</time>
      </trkpt>
      <trkpt lat="39.6660280" lon="-0.3904480">
        <ele>297.4</ele>
        <time>2019-12-14T10:35:46Z</time>
      </trkpt>
      <trkpt lat="39.6659710" lon="-0.3903680">
        <ele>295.8</ele>
        <time>2019-12-14T10:35:47Z</time>
      </trkpt>
      <trkpt lat="39.6658570" lon="-0.3902850">
        <ele>293.8</ele>
        <time>2019-12-14T10:35:49Z</time>
      </trkpt>
      <trkpt lat="39.6657930" lon="-0.3902930">
        <ele>292.6</ele>
        <time>2019-12-14T10:35:50Z</time>
      </trkpt>
      <trkpt lat="39.6657320" lon="-0.3903280">
        <ele>291.6</ele>
        <time>2019-12-14T10:35:51Z</time>
      </trkpt>
      <trkpt lat="39.6656710" lon="-0.3903750">
        <ele>290.4</ele>
        <time>2019-12-14T10:35:52Z</time>
      </trkpt>
      <trkpt lat="39.6656060" lon="-0.3904180">
        <ele>289.0</ele>
        <time>2019-12-14T10:35:53Z</time>
      </trkpt>
      <trkpt lat="39.6654680" lon="-0.3904820">
        <ele>287.2</ele>
        <time>2019-12-14T10:35:55Z</time>
      </trkpt>
      <trkpt lat="39.6653990" lon="-0.3904980">
        <ele>286.4</ele>
        <time>2019-12-14T10:35:56Z</time>
      </trkpt>
      <trkpt lat="39.6653310" lon="-0.3904890">
        <ele>286.0</ele>
        <time>2019-12-14T10:35:57Z</time>
      </trkpt>
      <trkpt lat="39.6651650" lon="-0.3902750">
        <ele>284.6</ele>
        <time>2019-12-14T10:36:01Z</time>
      </trkpt>
      <trkpt lat="39.6651340" lon="-0.3902220">
        <ele>284.4</ele>
        <time>2019-12-14T10:36:02Z</time>
      </trkpt>
      <trkpt lat="39.6650030" lon="-0.3901000">
        <ele>283.6</ele>
        <time>2019-12-14T10:36:05Z</time>
      </trkpt>
      <trkpt lat="39.6649600" lon="-0.3900520">
        <ele>283.6</ele>
        <time>2019-12-14T10:36:06Z</time>
      </trkpt>
      <trkpt lat="39.6648780" lon="-0.3897550">
        <ele>283.4</ele>
        <time>2019-12-14T10:36:10Z</time>
      </trkpt>
      <trkpt lat="39.6646640" lon="-0.3893590">
        <ele>283.2</ele>
        <time>2019-12-14T10:36:15Z</time>
      </trkpt>
      <trkpt lat="39.6645350" lon="-0.3893140">
        <ele>282.4</ele>
        <time>2019-12-14T10:36:17Z</time>
      </trkpt>
      <trkpt lat="39.6643890" lon="-0.3893760">
        <ele>280.6</ele>
        <time>2019-12-14T10:36:19Z</time>
      </trkpt>
      <trkpt lat="39.6643220" lon="-0.3894040">
        <ele>279.6</ele>
        <time>2019-12-14T10:36:20Z</time>
      </trkpt>
      <trkpt lat="39.6642150" lon="-0.3893490">
        <ele>278.0</ele>
        <time>2019-12-14T10:36:22Z</time>
      </trkpt>
      <trkpt lat="39.6641470" lon="-0.3892240">
        <ele>276.4</ele>
        <time>2019-12-14T10:36:24Z</time>
      </trkpt>
      <trkpt lat="39.6640830" lon="-0.3890900">
        <ele>274.0</ele>
        <time>2019-12-14T10:36:26Z</time>
      </trkpt>
      <trkpt lat="39.6640500" lon="-0.3890290">
        <ele>273.0</ele>
        <time>2019-12-14T10:36:27Z</time>
      </trkpt>
      <trkpt lat="39.6640020" lon="-0.3889260">
        <ele>271.6</ele>
        <time>2019-12-14T10:36:29Z</time>
      </trkpt>
      <trkpt lat="39.6639120" lon="-0.3887720">
        <ele>270.6</ele>
        <time>2019-12-14T10:36:34Z</time>
      </trkpt>
      <trkpt lat="39.6638870" lon="-0.3887750">
        <ele>270.4</ele>
        <time>2019-12-14T10:36:35Z</time>
      </trkpt>
      <trkpt lat="39.6638140" lon="-0.3887960">
        <ele>269.2</ele>
        <time>2019-12-14T10:36:38Z</time>
      </trkpt>
      <trkpt lat="39.6637810" lon="-0.3887990">
        <ele>268.2</ele>
        <time>2019-12-14T10:36:39Z</time>
      </trkpt>
      <trkpt lat="39.6637460" lon="-0.3888090">
        <ele>267.8</ele>
        <time>2019-12-14T10:36:40Z</time>
      </trkpt>
      <trkpt lat="39.6632200" lon="-0.3886390">
        <ele>267.8</ele>
        <time>2019-12-14T10:36:56Z</time>
      </trkpt>
      <trkpt lat="39.6631280" lon="-0.3885770">
        <ele>267.8</ele>
        <time>2019-12-14T10:36:58Z</time>
      </trkpt>
      <trkpt lat="39.6629590" lon="-0.3884730">
        <ele>267.4</ele>
        <time>2019-12-14T10:37:02Z</time>
      </trkpt>
      <trkpt lat="39.6628080" lon="-0.3884690">
        <ele>266.6</ele>
        <time>2019-12-14T10:37:06Z</time>
      </trkpt>
      <trkpt lat="39.6625920" lon="-0.3883160">
        <ele>266.4</ele>
        <time>2019-12-14T10:37:11Z</time>
      </trkpt>
      <trkpt lat="39.6625470" lon="-0.3882710">
        <ele>266.2</ele>
        <time>2019-12-14T10:37:12Z</time>
      </trkpt>
      <trkpt lat="39.6624640" lon="-0.3881670">
        <ele>265.6</ele>
        <time>2019-12-14T10:37:14Z</time>
      </trkpt>
      <trkpt lat="39.6624340" lon="-0.3879390">
        <ele>264.4</ele>
        <time>2019-12-14T10:37:17Z</time>
      </trkpt>
      <trkpt lat="39.6625040" lon="-0.3876080">
        <ele>263.4</ele>
        <time>2019-12-14T10:37:21Z</time>
      </trkpt>
      <trkpt lat="39.6625330" lon="-0.3874170">
        <ele>261.6</ele>
        <time>2019-12-14T10:37:23Z</time>
      </trkpt>
      <trkpt lat="39.6625530" lon="-0.3873270">
        <ele>261.2</ele>
        <time>2019-12-14T10:37:24Z</time>
      </trkpt>
      <trkpt lat="39.6625810" lon="-0.3872550">
        <ele>260.6</ele>
        <time>2019-12-14T10:37:25Z</time>
      </trkpt>
      <trkpt lat="39.6626140" lon="-0.3872000">
        <ele>260.4</ele>
        <time>2019-12-14T10:37:26Z</time>
      </trkpt>
      <trkpt lat="39.6627410" lon="-0.3872100">
        <ele>259.0</ele>
        <time>2019-12-14T10:37:29Z</time>
      </trkpt>
      <trkpt lat="39.6627780" lon="-0.3872400">
        <ele>257.8</ele>
        <time>2019-12-14T10:37:30Z</time>
      </trkpt>
      <trkpt lat="39.6628240" lon="-0.3872860">
        <ele>256.4</ele>
        <time>2019-12-14T10:37:31Z</time>
      </trkpt>
      <trkpt lat="39.6629260" lon="-0.3873880">
        <ele>254.4</ele>
        <time>2019-12-14T10:37:33Z</time>
      </trkpt>
      <trkpt lat="39.6629850" lon="-0.3874360">
        <ele>253.2</ele>
        <time>2019-12-14T10:37:34Z</time>
      </trkpt>
      <trkpt lat="39.6630930" lon="-0.3875110">
        <ele>251.8</ele>
        <time>2019-12-14T10:37:36Z</time>
      </trkpt>
      <trkpt lat="39.6631460" lon="-0.3875390">
        <ele>251.2</ele>
        <time>2019-12-14T10:37:37Z</time>
      </trkpt>
      <trkpt lat="39.6632610" lon="-0.3875550">
        <ele>250.4</ele>
        <time>2019-12-14T10:37:39Z</time>
      </trkpt>
      <trkpt lat="39.6633690" lon="-0.3875110">
        <ele>249.2</ele>
        <time>2019-12-14T10:37:41Z</time>
      </trkpt>
      <trkpt lat="39.6635380" lon="-0.3871800">
        <ele>248.2</ele>
        <time>2019-12-14T10:37:46Z</time>
      </trkpt>
      <trkpt lat="39.6636920" lon="-0.3867630">
        <ele>247.2</ele>
        <time>2019-12-14T10:37:51Z</time>
      </trkpt>
      <trkpt lat="39.6637230" lon="-0.3866970">
        <ele>246.6</ele>
        <time>2019-12-14T10:37:52Z</time>
      </trkpt>
      <trkpt lat="39.6637420" lon="-0.3866320">
        <ele>245.8</ele>
        <time>2019-12-14T10:37:53Z</time>
      </trkpt>
      <trkpt lat="39.6637480" lon="-0.3865680">
        <ele>244.6</ele>
        <time>2019-12-14T10:37:54Z</time>
      </trkpt>
      <trkpt lat="39.6637330" lon="-0.3865130">
        <ele>243.4</ele>
        <time>2019-12-14T10:37:55Z</time>
      </trkpt>
      <trkpt lat="39.6637020" lon="-0.3864730">
        <ele>242.0</ele>
        <time>2019-12-14T10:37:56Z</time>
      </trkpt>
      <trkpt lat="39.6636740" lon="-0.3864440">
        <ele>240.8</ele>
        <time>2019-12-14T10:37:57Z</time>
      </trkpt>
      <trkpt lat="39.6636440" lon="-0.3864250">
        <ele>239.4</ele>
        <time>2019-12-14T10:37:58Z</time>
      </trkpt>
      <trkpt lat="39.6636210" lon="-0.3864110">
        <ele>238.0</ele>
        <time>2019-12-14T10:37:59Z</time>
      </trkpt>
      <trkpt lat="39.6636000" lon="-0.3864010">
        <ele>237.0</ele>
        <time>2019-12-14T10:38:00Z</time>
      </trkpt>
      <trkpt lat="39.6635810" lon="-0.3863920">
        <ele>236.0</ele>
        <time>2019-12-14T10:38:01Z</time>
      </trkpt>
      <trkpt lat="39.6635420" lon="-0.3863810">
        <ele>234.6</ele>
        <time>2019-12-14T10:38:03Z</time>
      </trkpt>
      <trkpt lat="39.6634700" lon="-0.3863400">
        <ele>233.4</ele>
        <time>2019-12-14T10:38:07Z</time>
      </trkpt>
      <trkpt lat="39.6634230" lon="-0.3862480">
        <ele>233.0</ele>
        <time>2019-12-14T10:38:12Z</time>
      </trkpt>
      <trkpt lat="39.6633970" lon="-0.3862010">
        <ele>232.8</ele>
        <time>2019-12-14T10:38:14Z</time>
      </trkpt>
      <trkpt lat="39.6632920" lon="-0.3860380">
        <ele>232.6</ele>
        <time>2019-12-14T10:38:19Z</time>
      </trkpt>
      <trkpt lat="39.6632100" lon="-0.3859860">
        <ele>232.4</ele>
        <time>2019-12-14T10:38:21Z</time>
      </trkpt>
      <trkpt lat="39.6630530" lon="-0.3860130">
        <ele>231.2</ele>
        <time>2019-12-14T10:38:26Z</time>
      </trkpt>
      <trkpt lat="39.6629590" lon="-0.3860870">
        <ele>230.6</ele>
        <time>2019-12-14T10:38:31Z</time>
      </trkpt>
      <trkpt lat="39.6629530" lon="-0.3860430">
        <ele>230.4</ele>
        <time>2019-12-14T10:38:35Z</time>
      </trkpt>
      <trkpt lat="39.6630260" lon="-0.3860380">
        <ele>230.6</ele>
        <time>2019-12-14T10:38:41Z</time>
      </trkpt>
      <trkpt lat="39.6628030" lon="-0.3858560">
        <ele>230.2</ele>
        <time>2019-12-14T10:38:51Z</time>
      </trkpt>
      <trkpt lat="39.6626190" lon="-0.3858770">
        <ele>229.2</ele>
        <time>2019-12-14T10:38:54Z</time>
      </trkpt>
      <trkpt lat="39.6625600" lon="-0.3858780">
        <ele>228.6</ele>
        <time>2019-12-14T10:38:55Z</time>
      </trkpt>
      <trkpt lat="39.6624700" lon="-0.3858530">
        <ele>227.4</ele>
        <time>2019-12-14T10:38:57Z</time>
      </trkpt>
      <trkpt lat="39.6624230" lon="-0.3858230">
        <ele>226.8</ele>
        <time>2019-12-14T10:38:59Z</time>
      </trkpt>
      <trkpt lat="39.6624130" lon="-0.3858170">
        <ele>226.4</ele>
        <time>2019-12-14T10:39:00Z</time>
      </trkpt>
      <trkpt lat="39.6624020" lon="-0.3858160">
        <ele>226.0</ele>
        <time>2019-12-14T10:39:01Z</time>
      </trkpt>
      <trkpt lat="39.6623430" lon="-0.3858400">
        <ele>225.4</ele>
        <time>2019-12-14T10:39:04Z</time>
      </trkpt>
      <trkpt lat="39.6621770" lon="-0.3860620">
        <ele>226.6</ele>
        <time>2019-12-14T10:39:17Z</time>
      </trkpt>
      <trkpt lat="39.6621460" lon="-0.3861600">
        <ele>227.8</ele>
        <time>2019-12-14T10:39:21Z</time>
      </trkpt>
      <trkpt lat="39.6621030" lon="-0.3862760">
        <ele>229.0</ele>
        <time>2019-12-14T10:39:26Z</time>
      </trkpt>
      <trkpt lat="39.6620810" lon="-0.3863510">
        <ele>230.0</ele>
        <time>2019-12-14T10:39:29Z</time>
      </trkpt>
      <trkpt lat="39.6620380" lon="-0.3864280">
        <ele>231.2</ele>
        <time>2019-12-14T10:39:33Z</time>
      </trkpt>
      <trkpt lat="39.6620020" lon="-0.3864490">
        <ele>232.0</ele>
        <time>2019-12-14T10:39:35Z</time>
      </trkpt>
      <trkpt lat="39.6619640" lon="-0.3864450">
        <ele>232.6</ele>
        <time>2019-12-14T10:39:37Z</time>
      </trkpt>
      <trkpt lat="39.6619050" lon="-0.3864230">
        <ele>233.8</ele>
        <time>2019-12-14T10:39:40Z</time>
      </trkpt>
      <trkpt lat="39.6618120" lon="-0.3863780">
        <ele>235.0</ele>
        <time>2019-12-14T10:39:44Z</time>
      </trkpt>
      <trkpt lat="39.6616930" lon="-0.3863180">
        <ele>236.2</ele>
        <time>2019-12-14T10:39:48Z</time>
      </trkpt>
      <trkpt lat="39.6615800" lon="-0.3862840">
        <ele>236.8</ele>
        <time>2019-12-14T10:39:51Z</time>
      </trkpt>
      <trkpt lat="39.6613060" lon="-0.3863540">
        <ele>236.8</ele>
        <time>2019-12-14T10:39:57Z</time>
      </trkpt>
      <trkpt lat="39.6608060" lon="-0.3866250">
        <ele>237.0</ele>
        <time>2019-12-14T10:40:10Z</time>
      </trkpt>
      <trkpt lat="39.6607180" lon="-0.3867460">
        <ele>237.4</ele>
        <time>2019-12-14T10:40:13Z</time>
      </trkpt>
      <trkpt lat="39.6605740" lon="-0.3870070">
        <ele>237.6</ele>
        <time>2019-12-14T10:40:18Z</time>
      </trkpt>
      <trkpt lat="39.6602670" lon="-0.3873340">
        <ele>237.6</ele>
        <time>2019-12-14T10:40:25Z</time>
      </trkpt>
      <trkpt lat="39.6599880" lon="-0.3874850">
        <ele>236.2</ele>
        <time>2019-12-14T10:40:30Z</time>
      </trkpt>
      <trkpt lat="39.6597140" lon="-0.3876740">
        <ele>235.2</ele>
        <time>2019-12-14T10:40:35Z</time>
      </trkpt>
      <trkpt lat="39.6595000" lon="-0.3878010">
        <ele>234.2</ele>
        <time>2019-12-14T10:40:39Z</time>
      </trkpt>
      <trkpt lat="39.6594060" lon="-0.3878710">
        <ele>234.0</ele>
        <time>2019-12-14T10:40:41Z</time>
      </trkpt>
      <trkpt lat="39.6590330" lon="-0.3883200">
        <ele>235.2</ele>
        <time>2019-12-14T10:40:52Z</time>
      </trkpt>
      <trkpt lat="39.6590350" lon="-0.3884430">
        <ele>235.8</ele>
        <time>2019-12-14T10:40:54Z</time>
      </trkpt>
      <trkpt lat="39.6590340" lon="-0.3885050">
        <ele>235.8</ele>
        <time>2019-12-14T10:40:55Z</time>
      </trkpt>
      <trkpt lat="39.6587780" lon="-0.3887230">
        <ele>236.0</ele>
        <time>2019-12-14T10:41:02Z</time>
      </trkpt>
      <trkpt lat="39.6584310" lon="-0.3888390">
        <ele>236.2</ele>
        <time>2019-12-14T10:41:10Z</time>
      </trkpt>
      <trkpt lat="39.6583900" lon="-0.3888720">
        <ele>236.4</ele>
        <time>2019-12-14T10:41:11Z</time>
      </trkpt>
      <trkpt lat="39.6580810" lon="-0.3891320">
        <ele>236.8</ele>
        <time>2019-12-14T10:41:18Z</time>
      </trkpt>
      <trkpt lat="39.6575040" lon="-0.3892780">
        <ele>236.4</ele>
        <time>2019-12-14T10:41:29Z</time>
      </trkpt>
      <trkpt lat="39.6570120" lon="-0.3896610">
        <ele>236.0</ele>
        <time>2019-12-14T10:41:39Z</time>
      </trkpt>
      <trkpt lat="39.6569240" lon="-0.3897640">
        <ele>235.8</ele>
        <time>2019-12-14T10:41:41Z</time>
      </trkpt>
      <trkpt lat="39.6568040" lon="-0.3901450">
        <ele>235.2</ele>
        <time>2019-12-14T10:41:46Z</time>
      </trkpt>
      <trkpt lat="39.6567490" lon="-0.3904020">
        <ele>234.8</ele>
        <time>2019-12-14T10:41:49Z</time>
      </trkpt>
      <trkpt lat="39.6566800" lon="-0.3905530">
        <ele>234.0</ele>
        <time>2019-12-14T10:41:51Z</time>
      </trkpt>
      <trkpt lat="39.6565900" lon="-0.3907760">
        <ele>233.2</ele>
        <time>2019-12-14T10:41:54Z</time>
      </trkpt>
      <trkpt lat="39.6565720" lon="-0.3908540">
        <ele>233.0</ele>
        <time>2019-12-14T10:41:55Z</time>
      </trkpt>
      <trkpt lat="39.6565510" lon="-0.3910880">
        <ele>232.0</ele>
        <time>2019-12-14T10:41:58Z</time>
      </trkpt>
      <trkpt lat="39.6565320" lon="-0.3915580">
        <ele>231.2</ele>
        <time>2019-12-14T10:42:04Z</time>
      </trkpt>
      <trkpt lat="39.6564810" lon="-0.3917860">
        <ele>231.0</ele>
        <time>2019-12-14T10:42:07Z</time>
      </trkpt>
      <trkpt lat="39.6564430" lon="-0.3920160">
        <ele>230.6</ele>
        <time>2019-12-14T10:42:10Z</time>
      </trkpt>
      <trkpt lat="39.6561810" lon="-0.3926720">
        <ele>230.4</ele>
        <time>2019-12-14T10:42:20Z</time>
      </trkpt>
      <trkpt lat="39.6559610" lon="-0.3933780">
        <ele>230.8</ele>
        <time>2019-12-14T10:42:31Z</time>
      </trkpt>
      <trkpt lat="39.6558800" lon="-0.3936880">
        <ele>232.0</ele>
        <time>2019-12-14T10:42:36Z</time>
      </trkpt>
      <trkpt lat="39.6558170" lon="-0.3939550">
        <ele>233.0</ele>
        <time>2019-12-14T10:42:40Z</time>
      </trkpt>
      <trkpt lat="39.6556000" lon="-0.3945990">
        <ele>233.0</ele>
        <time>2019-12-14T10:42:49Z</time>
      </trkpt>
      <trkpt lat="39.6551170" lon="-0.3950330">
        <ele>233.0</ele>
        <time>2019-12-14T10:42:59Z</time>
      </trkpt>
      <trkpt lat="39.6549850" lon="-0.3950930">
        <ele>233.0</ele>
        <time>2019-12-14T10:43:01Z</time>
      </trkpt>
      <trkpt lat="39.6544730" lon="-0.3955000">
        <ele>232.4</ele>
        <time>2019-12-14T10:43:09Z</time>
      </trkpt>
      <trkpt lat="39.6543430" lon="-0.3955920">
        <ele>231.8</ele>
        <time>2019-12-14T10:43:11Z</time>
      </trkpt>
      <trkpt lat="39.6542760" lon="-0.3956510">
        <ele>231.4</ele>
        <time>2019-12-14T10:43:12Z</time>
      </trkpt>
      <trkpt lat="39.6540990" lon="-0.3958790">
        <ele>230.6</ele>
        <time>2019-12-14T10:43:15Z</time>
      </trkpt>
      <trkpt lat="39.6540410" lon="-0.3959580">
        <ele>230.6</ele>
        <time>2019-12-14T10:43:16Z</time>
      </trkpt>
      <trkpt lat="39.6537270" lon="-0.3961330">
        <ele>229.4</ele>
        <time>2019-12-14T10:43:20Z</time>
      </trkpt>
      <trkpt lat="39.6534990" lon="-0.3962850">
        <ele>228.2</ele>
        <time>2019-12-14T10:43:23Z</time>
      </trkpt>
      <trkpt lat="39.6534230" lon="-0.3963430">
        <ele>227.8</ele>
        <time>2019-12-14T10:43:24Z</time>
      </trkpt>
      <trkpt lat="39.6533410" lon="-0.3963870">
        <ele>227.0</ele>
        <time>2019-12-14T10:43:25Z</time>
      </trkpt>
      <trkpt lat="39.6529730" lon="-0.3964140">
        <ele>225.8</ele>
        <time>2019-12-14T10:43:29Z</time>
      </trkpt>
      <trkpt lat="39.6527830" lon="-0.3964230">
        <ele>224.8</ele>
        <time>2019-12-14T10:43:31Z</time>
      </trkpt>
      <trkpt lat="39.6526900" lon="-0.3964500">
        <ele>224.2</ele>
        <time>2019-12-14T10:43:32Z</time>
      </trkpt>
      <trkpt lat="39.6524200" lon="-0.3966040">
        <ele>223.0</ele>
        <time>2019-12-14T10:43:35Z</time>
      </trkpt>
      <trkpt lat="39.6522480" lon="-0.3967190">
        <ele>221.8</ele>
        <time>2019-12-14T10:43:37Z</time>
      </trkpt>
      <trkpt lat="39.6520950" lon="-0.3968290">
        <ele>220.6</ele>
        <time>2019-12-14T10:43:39Z</time>
      </trkpt>
      <trkpt lat="39.6519580" lon="-0.3969540">
        <ele>219.6</ele>
        <time>2019-12-14T10:43:41Z</time>
      </trkpt>
      <trkpt lat="39.6519000" lon="-0.3970240">
        <ele>218.6</ele>
        <time>2019-12-14T10:43:42Z</time>
      </trkpt>
      <trkpt lat="39.6518510" lon="-0.3971000">
        <ele>217.8</ele>
        <time>2019-12-14T10:43:43Z</time>
      </trkpt>
      <trkpt lat="39.6518110" lon="-0.3971780">
        <ele>216.6</ele>
        <time>2019-12-14T10:43:44Z</time>
      </trkpt>
      <trkpt lat="39.6517740" lon="-0.3972520">
        <ele>215.4</ele>
        <time>2019-12-14T10:43:45Z</time>
      </trkpt>
      <trkpt lat="39.6517340" lon="-0.3973190">
        <ele>214.4</ele>
        <time>2019-12-14T10:43:46Z</time>
      </trkpt>
      <trkpt lat="39.6515190" lon="-0.3975580">
        <ele>213.4</ele>
        <time>2019-12-14T10:43:51Z</time>
      </trkpt>
      <trkpt lat="39.6513020" lon="-0.3977610">
        <ele>214.2</ele>
        <time>2019-12-14T10:44:00Z</time>
      </trkpt>
      <trkpt lat="39.6513460" lon="-0.3977440">
        <ele>214.8</ele>
        <time>2019-12-14T10:44:06Z</time>
      </trkpt>
      <trkpt lat="39.6511920" lon="-0.3979610">
        <ele>216.0</ele>
        <time>2019-12-14T10:44:17Z</time>
      </trkpt>
      <trkpt lat="39.6511060" lon="-0.3980120">
        <ele>217.0</ele>
        <time>2019-12-14T10:44:21Z</time>
      </trkpt>
      <trkpt lat="39.6510370" lon="-0.3980640">
        <ele>218.0</ele>
        <time>2019-12-14T10:44:24Z</time>
      </trkpt>
      <trkpt lat="39.6509560" lon="-0.3981410">
        <ele>219.2</ele>
        <time>2019-12-14T10:44:28Z</time>
      </trkpt>
      <trkpt lat="39.6508840" lon="-0.3982340">
        <ele>220.6</ele>
        <time>2019-12-14T10:44:32Z</time>
      </trkpt>
      <trkpt lat="39.6508140" lon="-0.3983380">
        <ele>222.0</ele>
        <time>2019-12-14T10:44:36Z</time>
      </trkpt>
      <trkpt lat="39.6507450" lon="-0.3984280">
        <ele>223.0</ele>
        <time>2019-12-14T10:44:40Z</time>
      </trkpt>
      <trkpt lat="39.6506720" lon="-0.3985440">
        <ele>224.2</ele>
        <time>2019-12-14T10:44:45Z</time>
      </trkpt>
      <trkpt lat="39.6505990" lon="-0.3986650">
        <ele>225.4</ele>
        <time>2019-12-14T10:44:50Z</time>
      </trkpt>
      <trkpt lat="39.6505640" lon="-0.3987310">
        <ele>227.0</ele>
        <time>2019-12-14T10:44:53Z</time>
      </trkpt>
      <trkpt lat="39.6505320" lon="-0.3988010">
        <ele>228.4</ele>
        <time>2019-12-14T10:44:56Z</time>
      </trkpt>
      <trkpt lat="39.6504970" lon="-0.3988770">
        <ele>229.6</ele>
        <time>2019-12-14T10:44:59Z</time>
      </trkpt>
      <trkpt lat="39.6504510" lon="-0.3989530">
        <ele>230.8</ele>
        <time>2019-12-14T10:45:02Z</time>
      </trkpt>
      <trkpt lat="39.6503980" lon="-0.3990290">
        <ele>231.8</ele>
        <time>2019-12-14T10:45:05Z</time>
      </trkpt>
      <trkpt lat="39.6503440" lon="-0.3991030">
        <ele>233.0</ele>
        <time>2019-12-14T10:45:08Z</time>
      </trkpt>
      <trkpt lat="39.6502440" lon="-0.3992480">
        <ele>234.2</ele>
        <time>2019-12-14T10:45:14Z</time>
      </trkpt>
      <trkpt lat="39.6501550" lon="-0.3993430">
        <ele>234.6</ele>
        <time>2019-12-14T10:45:18Z</time>
      </trkpt>
      <trkpt lat="39.6498200" lon="-0.3991310">
        <ele>234.2</ele>
        <time>2019-12-14T10:45:26Z</time>
      </trkpt>
      <trkpt lat="39.6492940" lon="-0.3988330">
        <ele>234.6</ele>
        <time>2019-12-14T10:45:42Z</time>
      </trkpt>
      <trkpt lat="39.6492570" lon="-0.3988240">
        <ele>235.0</ele>
        <time>2019-12-14T10:45:43Z</time>
      </trkpt>
      <trkpt lat="39.6490500" lon="-0.3987520">
        <ele>235.8</ele>
        <time>2019-12-14T10:45:48Z</time>
      </trkpt>
      <trkpt lat="39.6487930" lon="-0.3982720">
        <ele>235.8</ele>
        <time>2019-12-14T10:45:57Z</time>
      </trkpt>
      <trkpt lat="39.6485010" lon="-0.3978650">
        <ele>235.2</ele>
        <time>2019-12-14T10:46:05Z</time>
      </trkpt>
      <trkpt lat="39.6482160" lon="-0.3972490">
        <ele>235.4</ele>
        <time>2019-12-14T10:46:16Z</time>
      </trkpt>
      <trkpt lat="39.6479760" lon="-0.3969940">
        <ele>235.2</ele>
        <time>2019-12-14T10:46:24Z</time>
      </trkpt>
      <trkpt lat="39.6479960" lon="-0.3969870">
        <ele>234.6</ele>
        <time>2019-12-14T10:46:28Z</time>
      </trkpt>
      <trkpt lat="39.6480430" lon="-0.3970520">
        <ele>234.6</ele>
        <time>2019-12-14T10:46:32Z</time>
      </trkpt>
      <trkpt lat="39.6481190" lon="-0.3973240">
        <ele>234.4</ele>
        <time>2019-12-14T10:46:41Z</time>
      </trkpt>
      <trkpt lat="39.6480630" lon="-0.3975110">
        <ele>234.2</ele>
        <time>2019-12-14T10:46:45Z</time>
      </trkpt>
      <trkpt lat="39.6479810" lon="-0.3976410">
        <ele>233.6</ele>
        <time>2019-12-14T10:46:48Z</time>
      </trkpt>
      <trkpt lat="39.6479440" lon="-0.3976900">
        <ele>233.0</ele>
        <time>2019-12-14T10:46:49Z</time>
      </trkpt>
      <trkpt lat="39.6479060" lon="-0.3977270">
        <ele>232.4</ele>
        <time>2019-12-14T10:46:50Z</time>
      </trkpt>
      <trkpt lat="39.6478460" lon="-0.3978180">
        <ele>230.6</ele>
        <time>2019-12-14T10:46:53Z</time>
      </trkpt>
      <trkpt lat="39.6478160" lon="-0.3978640">
        <ele>229.0</ele>
        <time>2019-12-14T10:46:55Z</time>
      </trkpt>
      <trkpt lat="39.6477750" lon="-0.3979270">
        <ele>227.8</ele>
        <time>2019-12-14T10:46:57Z</time>
      </trkpt>
      <trkpt lat="39.6477490" lon="-0.3979660">
        <ele>227.4</ele>
        <time>2019-12-14T10:46:58Z</time>
      </trkpt>
      <trkpt lat="39.6476840" lon="-0.3980300">
        <ele>226.6</ele>
        <time>2019-12-14T10:47:00Z</time>
      </trkpt>
      <trkpt lat="39.6476550" lon="-0.3980660">
        <ele>226.4</ele>
        <time>2019-12-14T10:47:01Z</time>
      </trkpt>
      <trkpt lat="39.6475890" lon="-0.3981370">
        <ele>225.6</ele>
        <time>2019-12-14T10:47:03Z</time>
      </trkpt>
      <trkpt lat="39.6475420" lon="-0.3982080">
        <ele>224.4</ele>
        <time>2019-12-14T10:47:05Z</time>
      </trkpt>
      <trkpt lat="39.6475120" lon="-0.3982930">
        <ele>223.2</ele>
        <time>2019-12-14T10:47:08Z</time>
      </trkpt>
      <trkpt lat="39.6474920" lon="-0.3983760">
        <ele>222.0</ele>
        <time>2019-12-14T10:47:11Z</time>
      </trkpt>
      <trkpt lat="39.6473110" lon="-0.3986060">
        <ele>221.6</ele>
        <time>2019-12-14T10:47:18Z</time>
      </trkpt>
      <trkpt lat="39.6471810" lon="-0.3987490">
        <ele>220.6</ele>
        <time>2019-12-14T10:47:23Z</time>
      </trkpt>
      <trkpt lat="39.6471460" lon="-0.3987400">
        <ele>220.2</ele>
        <time>2019-12-14T10:47:26Z</time>
      </trkpt>
      <trkpt lat="39.6471240" lon="-0.3988380">
        <ele>220.8</ele>
        <time>2019-12-14T10:47:48Z</time>
      </trkpt>
      <trkpt lat="39.6471490" lon="-0.3991570">
        <ele>219.6</ele>
        <time>2019-12-14T10:47:58Z</time>
      </trkpt>
      <trkpt lat="39.6471850" lon="-0.3992760">
        <ele>218.2</ele>
        <time>2019-12-14T10:48:01Z</time>
      </trkpt>
      <trkpt lat="39.6471960" lon="-0.3993670">
        <ele>217.2</ele>
        <time>2019-12-14T10:48:03Z</time>
      </trkpt>
      <trkpt lat="39.6472460" lon="-0.3995670">
        <ele>216.4</ele>
        <time>2019-12-14T10:48:07Z</time>
      </trkpt>
      <trkpt lat="39.6472680" lon="-0.4001030">
        <ele>215.4</ele>
        <time>2019-12-14T10:48:16Z</time>
      </trkpt>
      <trkpt lat="39.6472590" lon="-0.4001670">
        <ele>215.2</ele>
        <time>2019-12-14T10:48:17Z</time>
      </trkpt>
      <trkpt lat="39.6472280" lon="-0.4002970">
        <ele>214.6</ele>
        <time>2019-12-14T10:48:19Z</time>
      </trkpt>
      <trkpt lat="39.6472110" lon="-0.4003460">
        <ele>214.0</ele>
        <time>2019-12-14T10:48:20Z</time>
      </trkpt>
      <trkpt lat="39.6471630" lon="-0.4004190">
        <ele>212.8</ele>
        <time>2019-12-14T10:48:24Z</time>
      </trkpt>
      <trkpt lat="39.6471530" lon="-0.4004160">
        <ele>212.4</ele>
        <time>2019-12-14T10:48:26Z</time>
      </trkpt>
      <trkpt lat="39.6471760" lon="-0.4006320">
        <ele>211.8</ele>
        <time>2019-12-14T10:48:58Z</time>
      </trkpt>
      <trkpt lat="39.6470500" lon="-0.4010750">
        <ele>211.0</ele>
        <time>2019-12-14T10:49:13Z</time>
      </trkpt>
      <trkpt lat="39.6470310" lon="-0.4010790">
        <ele>210.6</ele>
        <time>2019-12-14T10:49:14Z</time>
      </trkpt>
      <trkpt lat="39.6469180" lon="-0.4011370">
        <ele>209.6</ele>
        <time>2019-12-14T10:49:20Z</time>
      </trkpt>
      <trkpt lat="39.6469090" lon="-0.4011600">
        <ele>209.6</ele>
        <time>2019-12-14T10:49:21Z</time>
      </trkpt>
      <trkpt lat="39.6468440" lon="-0.4013000">
        <ele>208.6</ele>
        <time>2019-12-14T10:49:27Z</time>
      </trkpt>
      <trkpt lat="39.6466730" lon="-0.4014500">
        <ele>207.6</ele>
        <time>2019-12-14T10:49:36Z</time>
      </trkpt>
      <trkpt lat="39.6465800" lon="-0.4017060">
        <ele>207.4</ele>
        <time>2019-12-14T10:49:44Z</time>
      </trkpt>
      <trkpt lat="39.6462940" lon="-0.4017790">
        <ele>207.6</ele>
        <time>2019-12-14T10:49:54Z</time>
      </trkpt>
      <trkpt lat="39.6462500" lon="-0.4018480">
        <ele>207.8</ele>
        <time>2019-12-14T10:49:57Z</time>
      </trkpt>
      <trkpt lat="39.6462210" lon="-0.4019790">
        <ele>208.4</ele>
        <time>2019-12-14T10:50:01Z</time>
      </trkpt>
      <trkpt lat="39.6461870" lon="-0.4020740">
        <ele>209.6</ele>
        <time>2019-12-14T10:50:04Z</time>
      </trkpt>
      <trkpt lat="39.6461180" lon="-0.4022690">
        <ele>210.6</ele>
        <time>2019-12-14T10:50:10Z</time>
      </trkpt>
      <trkpt lat="39.6460780" lon="-0.4023200">
        <ele>210.8</ele>
        <time>2019-12-14T10:50:12Z</time>
      </trkpt>
      <trkpt lat="39.6460130" lon="-0.4023500">
        <ele>211.6</ele>
        <time>2019-12-14T10:50:15Z</time>
      </trkpt>
      <trkpt lat="39.6459310" lon="-0.4023900">
        <ele>212.4</ele>
        <time>2019-12-14T10:50:19Z</time>
      </trkpt>
      <trkpt lat="39.6459160" lon="-0.4024150">
        <ele>212.8</ele>
        <time>2019-12-14T10:50:20Z</time>
      </trkpt>
      <trkpt lat="39.6458910" lon="-0.4024820">
        <ele>214.4</ele>
        <time>2019-12-14T10:50:22Z</time>
      </trkpt>
      <trkpt lat="39.6458610" lon="-0.4025520">
        <ele>215.4</ele>
        <time>2019-12-14T10:50:24Z</time>
      </trkpt>
      <trkpt lat="39.6457590" lon="-0.4026990">
        <ele>216.0</ele>
        <time>2019-12-14T10:50:28Z</time>
      </trkpt>
      <trkpt lat="39.6456360" lon="-0.4029090">
        <ele>216.0</ele>
        <time>2019-12-14T10:50:32Z</time>
      </trkpt>
      <trkpt lat="39.6455660" lon="-0.4030470">
        <ele>216.0</ele>
        <time>2019-12-14T10:50:34Z</time>
      </trkpt>
      <trkpt lat="39.6454820" lon="-0.4032670">
        <ele>214.8</ele>
        <time>2019-12-14T10:50:37Z</time>
      </trkpt>
      <trkpt lat="39.6454650" lon="-0.4033200">
        <ele>214.2</ele>
        <time>2019-12-14T10:50:38Z</time>
      </trkpt>
      <trkpt lat="39.6454740" lon="-0.4034090">
        <ele>213.2</ele>
        <time>2019-12-14T10:50:40Z</time>
      </trkpt>
      <trkpt lat="39.6454590" lon="-0.4035110">
        <ele>212.0</ele>
        <time>2019-12-14T10:50:42Z</time>
      </trkpt>
      <trkpt lat="39.6454480" lon="-0.4035640">
        <ele>211.2</ele>
        <time>2019-12-14T10:50:43Z</time>
      </trkpt>
      <trkpt lat="39.6454280" lon="-0.4036070">
        <ele>210.4</ele>
        <time>2019-12-14T10:50:44Z</time>
      </trkpt>
      <trkpt lat="39.6453820" lon="-0.4037560">
        <ele>209.2</ele>
        <time>2019-12-14T10:50:48Z</time>
      </trkpt>
      <trkpt lat="39.6453740" lon="-0.4039700">
        <ele>207.8</ele>
        <time>2019-12-14T10:50:52Z</time>
      </trkpt>
      <trkpt lat="39.6453500" lon="-0.4041070">
        <ele>206.4</ele>
        <time>2019-12-14T10:50:54Z</time>
      </trkpt>
      <trkpt lat="39.6453570" lon="-0.4042070">
        <ele>205.2</ele>
        <time>2019-12-14T10:50:56Z</time>
      </trkpt>
      <trkpt lat="39.6453620" lon="-0.4042800">
        <ele>203.8</ele>
        <time>2019-12-14T10:50:58Z</time>
      </trkpt>
      <trkpt lat="39.6453410" lon="-0.4043390">
        <ele>202.6</ele>
        <time>2019-12-14T10:51:00Z</time>
      </trkpt>
      <trkpt lat="39.6452880" lon="-0.4043950">
        <ele>201.2</ele>
        <time>2019-12-14T10:51:02Z</time>
      </trkpt>
      <trkpt lat="39.6451960" lon="-0.4044280">
        <ele>200.0</ele>
        <time>2019-12-14T10:51:04Z</time>
      </trkpt>
      <trkpt lat="39.6451230" lon="-0.4044480">
        <ele>199.2</ele>
        <time>2019-12-14T10:51:06Z</time>
      </trkpt>
      <trkpt lat="39.6451010" lon="-0.4044400">
        <ele>198.6</ele>
        <time>2019-12-14T10:51:07Z</time>
      </trkpt>
      <trkpt lat="39.6450620" lon="-0.4044250">
        <ele>197.2</ele>
        <time>2019-12-14T10:51:09Z</time>
      </trkpt>
      <trkpt lat="39.6450300" lon="-0.4044240">
        <ele>195.8</ele>
        <time>2019-12-14T10:51:10Z</time>
      </trkpt>
      <trkpt lat="39.6449990" lon="-0.4044250">
        <ele>194.6</ele>
        <time>2019-12-14T10:51:11Z</time>
      </trkpt>
      <trkpt lat="39.6449790" lon="-0.4044310">
        <ele>193.8</ele>
        <time>2019-12-14T10:51:12Z</time>
      </trkpt>
      <trkpt lat="39.6449710" lon="-0.4044400">
        <ele>193.0</ele>
        <time>2019-12-14T10:51:13Z</time>
      </trkpt>
      <trkpt lat="39.6449620" lon="-0.4044450">
        <ele>192.2</ele>
        <time>2019-12-14T10:51:14Z</time>
      </trkpt>
      <trkpt lat="39.6448820" lon="-0.4045060">
        <ele>186.2</ele>
        <time>2019-12-14T10:51:44Z</time>
      </trkpt>
      <trkpt lat="39.6445770" lon="-0.4048210">
        <ele>185.0</ele>
        <time>2019-12-14T10:51:56Z</time>
      </trkpt>
      <trkpt lat="39.6444470" lon="-0.4050410">
        <ele>184.2</ele>
        <time>2019-12-14T10:52:02Z</time>
      </trkpt>
      <trkpt lat="39.6442650" lon="-0.4050920">
        <ele>184.0</ele>
        <time>2019-12-14T10:52:06Z</time>
      </trkpt>
      <trkpt lat="39.6439590" lon="-0.4049790">
        <ele>182.6</ele>
        <time>2019-12-14T10:52:12Z</time>
      </trkpt>
      <trkpt lat="39.6438640" lon="-0.4049500">
        <ele>181.0</ele>
        <time>2019-12-14T10:52:14Z</time>
      </trkpt>
      <trkpt lat="39.6437680" lon="-0.4049240">
        <ele>179.6</ele>
        <time>2019-12-14T10:52:16Z</time>
      </trkpt>
      <trkpt lat="39.6436750" lon="-0.4049040">
        <ele>179.0</ele>
        <time>2019-12-14T10:52:18Z</time>
      </trkpt>
      <trkpt lat="39.6434820" lon="-0.4048970">
        <ele>178.4</ele>
        <time>2019-12-14T10:52:22Z</time>
      </trkpt>
      <trkpt lat="39.6433470" lon="-0.4049460">
        <ele>178.0</ele>
        <time>2019-12-14T10:52:25Z</time>
      </trkpt>
      <trkpt lat="39.6432590" lon="-0.4049840">
        <ele>177.6</ele>
        <time>2019-12-14T10:52:27Z</time>
      </trkpt>
      <trkpt lat="39.6431460" lon="-0.4050590">
        <ele>177.4</ele>
        <time>2019-12-14T10:52:30Z</time>
      </trkpt>
      <trkpt lat="39.6430450" lon="-0.4052290">
        <ele>177.0</ele>
        <time>2019-12-14T10:52:34Z</time>
      </trkpt>
      <trkpt lat="39.6430220" lon="-0.4054600">
        <ele>176.8</ele>
        <time>2019-12-14T10:52:38Z</time>
      </trkpt>
      <trkpt lat="39.6430570" lon="-0.4058080">
        <ele>176.2</ele>
        <time>2019-12-14T10:52:44Z</time>
      </trkpt>
      <trkpt lat="39.6430750" lon="-0.4059420">
        <ele>175.4</ele>
        <time>2019-12-14T10:52:48Z</time>
      </trkpt>
      <trkpt lat="39.6428840" lon="-0.4060770">
        <ele>178.6</ele>
        <time>2019-12-14T10:53:24Z</time>
      </trkpt>
      <trkpt lat="39.6426220" lon="-0.4064920">
        <ele>179.6</ele>
        <time>2019-12-14T10:53:39Z</time>
      </trkpt>
      <trkpt lat="39.6424370" lon="-0.4067660">
        <ele>179.6</ele>
        <time>2019-12-14T10:53:48Z</time>
      </trkpt>
      <trkpt lat="39.6420050" lon="-0.4072240">
        <ele>178.2</ele>
        <time>2019-12-14T10:54:06Z</time>
      </trkpt>
      <trkpt lat="39.6417950" lon="-0.4073620">
        <ele>177.2</ele>
        <time>2019-12-14T10:54:12Z</time>
      </trkpt>
      <trkpt lat="39.6416930" lon="-0.4074360">
        <ele>176.0</ele>
        <time>2019-12-14T10:54:15Z</time>
      </trkpt>
      <trkpt lat="39.6413720" lon="-0.4076770">
        <ele>175.2</ele>
        <time>2019-12-14T10:54:23Z</time>
      </trkpt>
      <trkpt lat="39.6413240" lon="-0.4077000">
        <ele>175.0</ele>
        <time>2019-12-14T10:54:24Z</time>
      </trkpt>
      <trkpt lat="39.6411100" lon="-0.4077570">
        <ele>174.0</ele>
        <time>2019-12-14T10:54:28Z</time>
      </trkpt>
      <trkpt lat="39.6410550" lon="-0.4077820">
        <ele>173.8</ele>
        <time>2019-12-14T10:54:29Z</time>
      </trkpt>
      <trkpt lat="39.6405790" lon="-0.4081230">
        <ele>173.2</ele>
        <time>2019-12-14T10:54:39Z</time>
      </trkpt>
      <trkpt lat="39.6400850" lon="-0.4084850">
        <ele>174.2</ele>
        <time>2019-12-14T10:54:53Z</time>
      </trkpt>
      <trkpt lat="39.6399320" lon="-0.4085910">
        <ele>175.2</ele>
        <time>2019-12-14T10:54:58Z</time>
      </trkpt>
      <trkpt lat="39.6398050" lon="-0.4086810">
        <ele>176.2</ele>
        <time>2019-12-14T10:55:02Z</time>
      </trkpt>
      <trkpt lat="39.6397170" lon="-0.4087310">
        <ele>177.2</ele>
        <time>2019-12-14T10:55:06Z</time>
      </trkpt>
      <trkpt lat="39.6397110" lon="-0.4087530">
        <ele>177.2</ele>
        <time>2019-12-14T10:55:07Z</time>
      </trkpt>
      <trkpt lat="39.6398550" lon="-0.4088300">
        <ele>176.2</ele>
        <time>2019-12-14T10:55:19Z</time>
      </trkpt>
      <trkpt lat="39.6398350" lon="-0.4088450">
        <ele>175.4</ele>
        <time>2019-12-14T10:55:20Z</time>
      </trkpt>
      <trkpt lat="39.6398220" lon="-0.4088630">
        <ele>174.6</ele>
        <time>2019-12-14T10:55:21Z</time>
      </trkpt>
      <trkpt lat="39.6398130" lon="-0.4089440">
        <ele>173.4</ele>
        <time>2019-12-14T10:55:24Z</time>
      </trkpt>
      <trkpt lat="39.6395990" lon="-0.4090200">
        <ele>172.8</ele>
        <time>2019-12-14T10:55:34Z</time>
      </trkpt>
      <trkpt lat="39.6393670" lon="-0.4091920">
        <ele>172.6</ele>
        <time>2019-12-14T10:55:45Z</time>
      </trkpt>
      <trkpt lat="39.6392800" lon="-0.4091080">
        <ele>173.0</ele>
        <time>2019-12-14T10:55:55Z</time>
      </trkpt>
      <trkpt lat="39.6391940" lon="-0.4091030">
        <ele>173.0</ele>
        <time>2019-12-14T10:55:59Z</time>
      </trkpt>
      <trkpt lat="39.6390980" lon="-0.4091030">
        <ele>172.4</ele>
        <time>2019-12-14T10:56:05Z</time>
      </trkpt>
      <trkpt lat="39.6388630" lon="-0.4087500">
        <ele>173.4</ele>
        <time>2019-12-14T10:56:18Z</time>
      </trkpt>
      <trkpt lat="39.6387950" lon="-0.4085930">
        <ele>174.4</ele>
        <time>2019-12-14T10:56:22Z</time>
      </trkpt>
      <trkpt lat="39.6386940" lon="-0.4083170">
        <ele>176.0</ele>
        <time>2019-12-14T10:56:29Z</time>
      </trkpt>
      <trkpt lat="39.6386500" lon="-0.4081990">
        <ele>177.0</ele>
        <time>2019-12-14T10:56:32Z</time>
      </trkpt>
      <trkpt lat="39.6385870" lon="-0.4080020">
        <ele>178.2</ele>
        <time>2019-12-14T10:56:37Z</time>
      </trkpt>
      <trkpt lat="39.6385030" lon="-0.4077650">
        <ele>179.4</ele>
        <time>2019-12-14T10:56:43Z</time>
      </trkpt>
      <trkpt lat="39.6384760" lon="-0.4076850">
        <ele>180.4</ele>
        <time>2019-12-14T10:56:45Z</time>
      </trkpt>
      <trkpt lat="39.6384440" lon="-0.4076110">
        <ele>181.6</ele>
        <time>2019-12-14T10:56:47Z</time>
      </trkpt>
      <trkpt lat="39.6383060" lon="-0.4074580">
        <ele>182.8</ele>
        <time>2019-12-14T10:56:52Z</time>
      </trkpt>
      <trkpt lat="39.6381710" lon="-0.4074200">
        <ele>184.0</ele>
        <time>2019-12-14T10:56:55Z</time>
      </trkpt>
      <trkpt lat="39.6380740" lon="-0.4074230">
        <ele>184.2</ele>
        <time>2019-12-14T10:56:57Z</time>
      </trkpt>
      <trkpt lat="39.6377520" lon="-0.4074550">
        <ele>184.4</ele>
        <time>2019-12-14T10:57:04Z</time>
      </trkpt>
      <trkpt lat="39.6376280" lon="-0.4075610">
        <ele>184.2</ele>
        <time>2019-12-14T10:57:08Z</time>
      </trkpt>
      <trkpt lat="39.6373780" lon="-0.4078240">
        <ele>185.0</ele>
        <time>2019-12-14T10:57:21Z</time>
      </trkpt>
      <trkpt lat="39.6373250" lon="-0.4078830">
        <ele>186.4</ele>
        <time>2019-12-14T10:57:24Z</time>
      </trkpt>
      <trkpt lat="39.6372640" lon="-0.4079630">
        <ele>187.8</ele>
        <time>2019-12-14T10:57:28Z</time>
      </trkpt>
      <trkpt lat="39.6372130" lon="-0.4080540">
        <ele>189.0</ele>
        <time>2019-12-14T10:57:32Z</time>
      </trkpt>
      <trkpt lat="39.6371550" lon="-0.4081220">
        <ele>190.0</ele>
        <time>2019-12-14T10:57:36Z</time>
      </trkpt>
      <trkpt lat="39.6370820" lon="-0.4081950">
        <ele>191.2</ele>
        <time>2019-12-14T10:57:41Z</time>
      </trkpt>
      <trkpt lat="39.6370280" lon="-0.4082610">
        <ele>192.4</ele>
        <time>2019-12-14T10:57:45Z</time>
      </trkpt>
      <trkpt lat="39.6369890" lon="-0.4083100">
        <ele>193.8</ele>
        <time>2019-12-14T10:57:48Z</time>
      </trkpt>
      <trkpt lat="39.6369380" lon="-0.4083790">
        <ele>195.0</ele>
        <time>2019-12-14T10:57:52Z</time>
      </trkpt>
      <trkpt lat="39.6369000" lon="-0.4084300">
        <ele>196.2</ele>
        <time>2019-12-14T10:57:55Z</time>
      </trkpt>
      <trkpt lat="39.6368350" lon="-0.4084780">
        <ele>197.4</ele>
        <time>2019-12-14T10:57:59Z</time>
      </trkpt>
      <trkpt lat="39.6367820" lon="-0.4084790">
        <ele>198.8</ele>
        <time>2019-12-14T10:58:02Z</time>
      </trkpt>
      <trkpt lat="39.6367130" lon="-0.4084400">
        <ele>200.0</ele>
        <time>2019-12-14T10:58:06Z</time>
      </trkpt>
      <trkpt lat="39.6366950" lon="-0.4084410">
        <ele>200.6</ele>
        <time>2019-12-14T10:58:07Z</time>
      </trkpt>
      <trkpt lat="39.6366650" lon="-0.4084700">
        <ele>201.2</ele>
        <time>2019-12-14T10:58:09Z</time>
      </trkpt>
      <trkpt lat="39.6366330" lon="-0.4085390">
        <ele>202.6</ele>
        <time>2019-12-14T10:58:12Z</time>
      </trkpt>
      <trkpt lat="39.6365860" lon="-0.4086320">
        <ele>203.8</ele>
        <time>2019-12-14T10:58:16Z</time>
      </trkpt>
      <trkpt lat="39.6365030" lon="-0.4088470">
        <ele>204.6</ele>
        <time>2019-12-14T10:58:25Z</time>
      </trkpt>
      <trkpt lat="39.6364930" lon="-0.4089490">
        <ele>206.0</ele>
        <time>2019-12-14T10:58:29Z</time>
      </trkpt>
      <trkpt lat="39.6364640" lon="-0.4090770">
        <ele>207.2</ele>
        <time>2019-12-14T10:58:34Z</time>
      </trkpt>
      <trkpt lat="39.6364250" lon="-0.4091770">
        <ele>208.2</ele>
        <time>2019-12-14T10:58:38Z</time>
      </trkpt>
      <trkpt lat="39.6363460" lon="-0.4092670">
        <ele>209.2</ele>
        <time>2019-12-14T10:58:43Z</time>
      </trkpt>
      <trkpt lat="39.6361950" lon="-0.4092820">
        <ele>210.4</ele>
        <time>2019-12-14T10:58:49Z</time>
      </trkpt>
      <trkpt lat="39.6360070" lon="-0.4092100">
        <ele>211.4</ele>
        <time>2019-12-14T10:58:57Z</time>
      </trkpt>
      <trkpt lat="39.6358830" lon="-0.4092300">
        <ele>212.6</ele>
        <time>2019-12-14T10:59:04Z</time>
      </trkpt>
      <trkpt lat="39.6357630" lon="-0.4092790">
        <ele>214.0</ele>
        <time>2019-12-14T10:59:10Z</time>
      </trkpt>
      <trkpt lat="39.6356530" lon="-0.4093660">
        <ele>215.4</ele>
        <time>2019-12-14T10:59:16Z</time>
      </trkpt>
      <trkpt lat="39.6356140" lon="-0.4093980">
        <ele>216.6</ele>
        <time>2019-12-14T10:59:18Z</time>
      </trkpt>
      <trkpt lat="39.6354150" lon="-0.4096280">
        <ele>217.4</ele>
        <time>2019-12-14T10:59:29Z</time>
      </trkpt>
      <trkpt lat="39.6353930" lon="-0.4096250">
        <ele>217.6</ele>
        <time>2019-12-14T10:59:30Z</time>
      </trkpt>
      <trkpt lat="39.6353260" lon="-0.4096000">
        <ele>217.8</ele>
        <time>2019-12-14T10:59:33Z</time>
      </trkpt>
      <trkpt lat="39.6352130" lon="-0.4095530">
        <ele>218.8</ele>
        <time>2019-12-14T10:59:38Z</time>
      </trkpt>
      <trkpt lat="39.6350730" lon="-0.4094580">
        <ele>220.0</ele>
        <time>2019-12-14T10:59:44Z</time>
      </trkpt>
      <trkpt lat="39.6349780" lon="-0.4093230">
        <ele>221.0</ele>
        <time>2019-12-14T10:59:49Z</time>
      </trkpt>
      <trkpt lat="39.6347430" lon="-0.4090480">
        <ele>222.2</ele>
        <time>2019-12-14T10:59:59Z</time>
      </trkpt>
      <trkpt lat="39.6345640" lon="-0.4089470">
        <ele>223.2</ele>
        <time>2019-12-14T11:00:07Z</time>
      </trkpt>
      <trkpt lat="39.6344360" lon="-0.4091140">
        <ele>223.8</ele>
        <time>2019-12-14T11:00:15Z</time>
      </trkpt>
      <trkpt lat="39.6344930" lon="-0.4090310">
        <ele>224.2</ele>
        <time>2019-12-14T11:00:21Z</time>
      </trkpt>
      <trkpt lat="39.6345320" lon="-0.4089880">
        <ele>224.0</ele>
        <time>2019-12-14T11:00:23Z</time>
      </trkpt>
      <trkpt lat="39.6346360" lon="-0.4088900">
        <ele>224.2</ele>
        <time>2019-12-14T11:00:28Z</time>
      </trkpt>
      <trkpt lat="39.6345600" lon="-0.4087490">
        <ele>224.2</ele>
        <time>2019-12-14T11:00:33Z</time>
      </trkpt>
      <trkpt lat="39.6344560" lon="-0.4085790">
        <ele>224.0</ele>
        <time>2019-12-14T11:00:37Z</time>
      </trkpt>
      <trkpt lat="39.6344120" lon="-0.4084060">
        <ele>223.6</ele>
        <time>2019-12-14T11:00:41Z</time>
      </trkpt>
      <trkpt lat="39.6343910" lon="-0.4083630">
        <ele>223.2</ele>
        <time>2019-12-14T11:00:42Z</time>
      </trkpt>
      <trkpt lat="39.6343730" lon="-0.4083140">
        <ele>222.6</ele>
        <time>2019-12-14T11:00:43Z</time>
      </trkpt>
      <trkpt lat="39.6343370" lon="-0.4082080">
        <ele>221.6</ele>
        <time>2019-12-14T11:00:45Z</time>
      </trkpt>
      <trkpt lat="39.6343170" lon="-0.4081570">
        <ele>221.0</ele>
        <time>2019-12-14T11:00:46Z</time>
      </trkpt>
      <trkpt lat="39.6342860" lon="-0.4080570">
        <ele>219.6</ele>
        <time>2019-12-14T11:00:48Z</time>
      </trkpt>
      <trkpt lat="39.6342070" lon="-0.4079390">
        <ele>218.4</ele>
        <time>2019-12-14T11:00:51Z</time>
      </trkpt>
      <trkpt lat="39.6341730" lon="-0.4078600">
        <ele>217.0</ele>
        <time>2019-12-14T11:00:53Z</time>
      </trkpt>
      <trkpt lat="39.6341520" lon="-0.4078280">
        <ele>216.2</ele>
        <time>2019-12-14T11:00:54Z</time>
      </trkpt>
      <trkpt lat="39.6341240" lon="-0.4077950">
        <ele>215.8</ele>
        <time>2019-12-14T11:00:55Z</time>
      </trkpt>
      <trkpt lat="39.6339830" lon="-0.4076560">
        <ele>214.4</ele>
        <time>2019-12-14T11:01:00Z</time>
      </trkpt>
      <trkpt lat="39.6338610" lon="-0.4076340">
        <ele>213.6</ele>
        <time>2019-12-14T11:01:03Z</time>
      </trkpt>
      <trkpt lat="39.6337640" lon="-0.4076160">
        <ele>212.6</ele>
        <time>2019-12-14T11:01:05Z</time>
      </trkpt>
      <trkpt lat="39.6337170" lon="-0.4076070">
        <ele>212.2</ele>
        <time>2019-12-14T11:01:06Z</time>
      </trkpt>
      <trkpt lat="39.6335990" lon="-0.4076240">
        <ele>210.8</ele>
        <time>2019-12-14T11:01:09Z</time>
      </trkpt>
      <trkpt lat="39.6335270" lon="-0.4075930">
        <ele>209.8</ele>
        <time>2019-12-14T11:01:11Z</time>
      </trkpt>
      <trkpt lat="39.6334840" lon="-0.4075620">
        <ele>209.4</ele>
        <time>2019-12-14T11:01:12Z</time>
      </trkpt>
      <trkpt lat="39.6333380" lon="-0.4074710">
        <ele>207.8</ele>
        <time>2019-12-14T11:01:15Z</time>
      </trkpt>
      <trkpt lat="39.6332550" lon="-0.4074050">
        <ele>206.4</ele>
        <time>2019-12-14T11:01:17Z</time>
      </trkpt>
      <trkpt lat="39.6331390" lon="-0.4073180">
        <ele>205.4</ele>
        <time>2019-12-14T11:01:20Z</time>
      </trkpt>
      <trkpt lat="39.6330640" lon="-0.4072620">
        <ele>204.0</ele>
        <time>2019-12-14T11:01:22Z</time>
      </trkpt>
      <trkpt lat="39.6329990" lon="-0.4071890">
        <ele>203.2</ele>
        <time>2019-12-14T11:01:24Z</time>
      </trkpt>
      <trkpt lat="39.6329640" lon="-0.4071460">
        <ele>201.8</ele>
        <time>2019-12-14T11:01:25Z</time>
      </trkpt>
      <trkpt lat="39.6328860" lon="-0.4070580">
        <ele>201.0</ele>
        <time>2019-12-14T11:01:27Z</time>
      </trkpt>
      <trkpt lat="39.6328410" lon="-0.4070210">
        <ele>200.4</ele>
        <time>2019-12-14T11:01:28Z</time>
      </trkpt>
      <trkpt lat="39.6327620" lon="-0.4069540">
        <ele>199.0</ele>
        <time>2019-12-14T11:01:30Z</time>
      </trkpt>
      <trkpt lat="39.6327070" lon="-0.4068640">
        <ele>198.0</ele>
        <time>2019-12-14T11:01:32Z</time>
      </trkpt>
      <trkpt lat="39.6325200" lon="-0.4065870">
        <ele>197.0</ele>
        <time>2019-12-14T11:01:42Z</time>
      </trkpt>
      <trkpt lat="39.6324680" lon="-0.4065090">
        <ele>196.4</ele>
        <time>2019-12-14T11:01:44Z</time>
      </trkpt>
      <trkpt lat="39.6323720" lon="-0.4063740">
        <ele>196.4</ele>
        <time>2019-12-14T11:01:47Z</time>
      </trkpt>
      <trkpt lat="39.6322770" lon="-0.4062700">
        <ele>196.0</ele>
        <time>2019-12-14T11:01:50Z</time>
      </trkpt>
      <trkpt lat="39.6321910" lon="-0.4061880">
        <ele>194.6</ele>
        <time>2019-12-14T11:01:52Z</time>
      </trkpt>
      <trkpt lat="39.6321420" lon="-0.4061380">
        <ele>193.4</ele>
        <time>2019-12-14T11:01:53Z</time>
      </trkpt>
      <trkpt lat="39.6320940" lon="-0.4060870">
        <ele>192.0</ele>
        <time>2019-12-14T11:01:54Z</time>
      </trkpt>
      <trkpt lat="39.6320510" lon="-0.4060300">
        <ele>190.4</ele>
        <time>2019-12-14T11:01:55Z</time>
      </trkpt>
      <trkpt lat="39.6320140" lon="-0.4059670">
        <ele>189.2</ele>
        <time>2019-12-14T11:01:56Z</time>
      </trkpt>
      <trkpt lat="39.6319860" lon="-0.4059050">
        <ele>187.8</ele>
        <time>2019-12-14T11:01:57Z</time>
      </trkpt>
      <trkpt lat="39.6319630" lon="-0.4058400">
        <ele>185.2</ele>
        <time>2019-12-14T11:01:58Z</time>
      </trkpt>
      <trkpt lat="39.6319400" lon="-0.4057790">
        <ele>183.8</ele>
        <time>2019-12-14T11:01:59Z</time>
      </trkpt>
      <trkpt lat="39.6319100" lon="-0.4057200">
        <ele>182.8</ele>
        <time>2019-12-14T11:02:00Z</time>
      </trkpt>
      <trkpt lat="39.6318780" lon="-0.4056690">
        <ele>181.4</ele>
        <time>2019-12-14T11:02:01Z</time>
      </trkpt>
      <trkpt lat="39.6318450" lon="-0.4056470">
        <ele>180.4</ele>
        <time>2019-12-14T11:02:02Z</time>
      </trkpt>
      <trkpt lat="39.6318140" lon="-0.4056270">
        <ele>179.0</ele>
        <time>2019-12-14T11:02:03Z</time>
      </trkpt>
      <trkpt lat="39.6317880" lon="-0.4055910">
        <ele>177.6</ele>
        <time>2019-12-14T11:02:04Z</time>
      </trkpt>
      <trkpt lat="39.6317620" lon="-0.4055460">
        <ele>176.6</ele>
        <time>2019-12-14T11:02:05Z</time>
      </trkpt>
      <trkpt lat="39.6317310" lon="-0.4055060">
        <ele>175.4</ele>
        <time>2019-12-14T11:02:06Z</time>
      </trkpt>
      <trkpt lat="39.6317000" lon="-0.4054610">
        <ele>174.2</ele>
        <time>2019-12-14T11:02:07Z</time>
      </trkpt>
      <trkpt lat="39.6316500" lon="-0.4053530">
        <ele>173.2</ele>
        <time>2019-12-14T11:02:09Z</time>
      </trkpt>
      <trkpt lat="39.6315930" lon="-0.4052510">
        <ele>172.6</ele>
        <time>2019-12-14T11:02:11Z</time>
      </trkpt>
      <trkpt lat="39.6314670" lon="-0.4051380">
        <ele>171.8</ele>
        <time>2019-12-14T11:02:14Z</time>
      </trkpt>
      <trkpt lat="39.6313330" lon="-0.4050360">
        <ele>170.8</ele>
        <time>2019-12-14T11:02:17Z</time>
      </trkpt>
      <trkpt lat="39.6312920" lon="-0.4049970">
        <ele>170.0</ele>
        <time>2019-12-14T11:02:18Z</time>
      </trkpt>
      <trkpt lat="39.6312300" lon="-0.4049110">
        <ele>168.8</ele>
        <time>2019-12-14T11:02:21Z</time>
      </trkpt>
      <trkpt lat="39.6312230" lon="-0.4049040">
        <ele>168.6</ele>
        <time>2019-12-14T11:02:23Z</time>
      </trkpt>
      <trkpt lat="39.6311960" lon="-0.4048910">
        <ele>167.8</ele>
        <time>2019-12-14T11:02:55Z</time>
      </trkpt>
      <trkpt lat="39.6311780" lon="-0.4048740">
        <ele>167.8</ele>
        <time>2019-12-14T11:02:56Z</time>
      </trkpt>
      <trkpt lat="39.6310570" lon="-0.4047290">
        <ele>167.0</ele>
        <time>2019-12-14T11:03:06Z</time>
      </trkpt>
      <trkpt lat="39.6310660" lon="-0.4047610">
        <ele>166.4</ele>
        <time>2019-12-14T11:03:22Z</time>
      </trkpt>
      <trkpt lat="39.6311430" lon="-0.4048360">
        <ele>166.4</ele>
        <time>2019-12-14T11:03:27Z</time>
      </trkpt>
      <trkpt lat="39.6312500" lon="-0.4049840">
        <ele>166.6</ele>
        <time>2019-12-14T11:03:34Z</time>
      </trkpt>
      <trkpt lat="39.6312630" lon="-0.4051260">
        <ele>167.4</ele>
        <time>2019-12-14T11:03:40Z</time>
      </trkpt>
      <trkpt lat="39.6312640" lon="-0.4051530">
        <ele>167.4</ele>
        <time>2019-12-14T11:03:41Z</time>
      </trkpt>
      <trkpt lat="39.6312610" lon="-0.4052420">
        <ele>168.4</ele>
        <time>2019-12-14T11:03:44Z</time>
      </trkpt>
      <trkpt lat="39.6312120" lon="-0.4054090">
        <ele>169.6</ele>
        <time>2019-12-14T11:03:50Z</time>
      </trkpt>
      <trkpt lat="39.6309800" lon="-0.4057250">
        <ele>170.6</ele>
        <time>2019-12-14T11:04:03Z</time>
      </trkpt>
      <trkpt lat="39.6309230" lon="-0.4057850">
        <ele>171.8</ele>
        <time>2019-12-14T11:04:06Z</time>
      </trkpt>
      <trkpt lat="39.6308400" lon="-0.4058990">
        <ele>172.8</ele>
        <time>2019-12-14T11:04:11Z</time>
      </trkpt>
      <trkpt lat="39.6307650" lon="-0.4060130">
        <ele>174.0</ele>
        <time>2019-12-14T11:04:16Z</time>
      </trkpt>
      <trkpt lat="39.6307190" lon="-0.4061720">
        <ele>174.6</ele>
        <time>2019-12-14T11:04:20Z</time>
      </trkpt>
      <trkpt lat="39.6307850" lon="-0.4063870">
        <ele>174.6</ele>
        <time>2019-12-14T11:04:24Z</time>
      </trkpt>
      <trkpt lat="39.6310040" lon="-0.4067340">
        <ele>174.2</ele>
        <time>2019-12-14T11:04:32Z</time>
      </trkpt>
      <trkpt lat="39.6314390" lon="-0.4072180">
        <ele>173.2</ele>
        <time>2019-12-14T11:04:43Z</time>
      </trkpt>
      <trkpt lat="39.6315920" lon="-0.4073530">
        <ele>173.0</ele>
        <time>2019-12-14T11:04:47Z</time>
      </trkpt>
      <trkpt lat="39.6317110" lon="-0.4074080">
        <ele>173.0</ele>
        <time>2019-12-14T11:04:50Z</time>
      </trkpt>
      <trkpt lat="39.6317470" lon="-0.4074230">
        <ele>173.0</ele>
        <time>2019-12-14T11:04:51Z</time>
      </trkpt>
      <trkpt lat="39.6318870" lon="-0.4074750">
        <ele>173.0</ele>
        <time>2019-12-14T11:04:55Z</time>
      </trkpt>
      <trkpt lat="39.6320690" lon="-0.4076780">
        <ele>172.6</ele>
        <time>2019-12-14T11:05:01Z</time>
      </trkpt>
      <trkpt lat="39.6320890" lon="-0.4076870">
        <ele>172.6</ele>
        <time>2019-12-14T11:05:02Z</time>
      </trkpt>
      <trkpt lat="39.6320800" lon="-0.4077080">
        <ele>172.2</ele>
        <time>2019-12-14T11:05:06Z</time>
      </trkpt>
      <trkpt lat="39.6320000" lon="-0.4077500">
        <ele>172.0</ele>
        <time>2019-12-14T11:05:09Z</time>
      </trkpt>
      <trkpt lat="39.6319710" lon="-0.4077710">
        <ele>171.8</ele>
        <time>2019-12-14T11:05:10Z</time>
      </trkpt>
      <trkpt lat="39.6317490" lon="-0.4078490">
        <ele>170.8</ele>
        <time>2019-12-14T11:05:16Z</time>
      </trkpt>
      <trkpt lat="39.6314100" lon="-0.4077730">
        <ele>169.6</ele>
        <time>2019-12-14T11:05:25Z</time>
      </trkpt>
      <trkpt lat="39.6313640" lon="-0.4077380">
        <ele>169.6</ele>
        <time>2019-12-14T11:05:26Z</time>
      </trkpt>
      <trkpt lat="39.6312110" lon="-0.4076550">
        <ele>168.8</ele>
        <time>2019-12-14T11:05:31Z</time>
      </trkpt>
      <trkpt lat="39.6311640" lon="-0.4076010">
        <ele>168.2</ele>
        <time>2019-12-14T11:05:33Z</time>
      </trkpt>
      <trkpt lat="39.6310370" lon="-0.4074500">
        <ele>167.4</ele>
        <time>2019-12-14T11:05:39Z</time>
      </trkpt>
      <trkpt lat="39.6309120" lon="-0.4074750">
        <ele>167.2</ele>
        <time>2019-12-14T11:05:43Z</time>
      </trkpt>
      <trkpt lat="39.6308880" lon="-0.4074670">
        <ele>167.2</ele>
        <time>2019-12-14T11:05:44Z</time>
      </trkpt>
      <trkpt lat="39.6307820" lon="-0.4074040">
        <ele>166.0</ele>
        <time>2019-12-14T11:05:48Z</time>
      </trkpt>
      <trkpt lat="39.6307180" lon="-0.4073720">
        <ele>164.6</ele>
        <time>2019-12-14T11:05:51Z</time>
      </trkpt>
      <trkpt lat="39.6306070" lon="-0.4073450">
        <ele>163.6</ele>
        <time>2019-12-14T11:05:56Z</time>
      </trkpt>
      <trkpt lat="39.6305900" lon="-0.4073590">
        <ele>163.4</ele>
        <time>2019-12-14T11:05:57Z</time>
      </trkpt>
      <trkpt lat="39.6302580" lon="-0.4072190">
        <ele>162.4</ele>
        <time>2019-12-14T11:06:08Z</time>
      </trkpt>
      <trkpt lat="39.6302230" lon="-0.4071880">
        <ele>162.0</ele>
        <time>2019-12-14T11:06:09Z</time>
      </trkpt>
      <trkpt lat="39.6301820" lon="-0.4071590">
        <ele>162.0</ele>
        <time>2019-12-14T11:06:10Z</time>
      </trkpt>
      <trkpt lat="39.6299990" lon="-0.4070360">
        <ele>161.4</ele>
        <time>2019-12-14T11:06:15Z</time>
      </trkpt>
      <trkpt lat="39.6299070" lon="-0.4070330">
        <ele>160.6</ele>
        <time>2019-12-14T11:06:18Z</time>
      </trkpt>
      <trkpt lat="39.6298810" lon="-0.4070350">
        <ele>160.2</ele>
        <time>2019-12-14T11:06:19Z</time>
      </trkpt>
      <trkpt lat="39.6298060" lon="-0.4070280">
        <ele>159.4</ele>
        <time>2019-12-14T11:06:21Z</time>
      </trkpt>
      <trkpt lat="39.6297680" lon="-0.4070200">
        <ele>159.2</ele>
        <time>2019-12-14T11:06:22Z</time>
      </trkpt>
      <trkpt lat="39.6292500" lon="-0.4070550">
        <ele>158.6</ele>
        <time>2019-12-14T11:06:40Z</time>
      </trkpt>
      <trkpt lat="39.6292080" lon="-0.4069290">
        <ele>158.6</ele>
        <time>2019-12-14T11:06:45Z</time>
      </trkpt>
      <trkpt lat="39.6291970" lon="-0.4069140">
        <ele>158.6</ele>
        <time>2019-12-14T11:06:46Z</time>
      </trkpt>
      <trkpt lat="39.6291480" lon="-0.4068550">
        <ele>158.0</ele>
        <time>2019-12-14T11:06:49Z</time>
      </trkpt>
      <trkpt lat="39.6290660" lon="-0.4068470">
        <ele>156.6</ele>
        <time>2019-12-14T11:06:52Z</time>
      </trkpt>
      <trkpt lat="39.6289990" lon="-0.4069190">
        <ele>155.2</ele>
        <time>2019-12-14T11:06:55Z</time>
      </trkpt>
      <trkpt lat="39.6288930" lon="-0.4069550">
        <ele>153.8</ele>
        <time>2019-12-14T11:06:58Z</time>
      </trkpt>
      <trkpt lat="39.6288530" lon="-0.4069640">
        <ele>153.4</ele>
        <time>2019-12-14T11:06:59Z</time>
      </trkpt>
      <trkpt lat="39.6287170" lon="-0.4069860">
        <ele>152.8</ele>
        <time>2019-12-14T11:07:03Z</time>
      </trkpt>
      <trkpt lat="39.6286700" lon="-0.4068740">
        <ele>151.8</ele>
        <time>2019-12-14T11:07:06Z</time>
      </trkpt>
      <trkpt lat="39.6286660" lon="-0.4068220">
        <ele>151.4</ele>
        <time>2019-12-14T11:07:07Z</time>
      </trkpt>
      <trkpt lat="39.6286600" lon="-0.4067660">
        <ele>150.8</ele>
        <time>2019-12-14T11:07:08Z</time>
      </trkpt>
      <trkpt lat="39.6286470" lon="-0.4065530">
        <ele>149.4</ele>
        <time>2019-12-14T11:07:12Z</time>
      </trkpt>
      <trkpt lat="39.6284870" lon="-0.4063450">
        <ele>148.4</ele>
        <time>2019-12-14T11:07:18Z</time>
      </trkpt>
      <trkpt lat="39.6284190" lon="-0.4062790">
        <ele>148.2</ele>
        <time>2019-12-14T11:07:20Z</time>
      </trkpt>
      <trkpt lat="39.6282710" lon="-0.4061730">
        <ele>148.0</ele>
        <time>2019-12-14T11:07:24Z</time>
      </trkpt>
      <trkpt lat="39.6279020" lon="-0.4065140">
        <ele>147.2</ele>
        <time>2019-12-14T11:07:34Z</time>
      </trkpt>
      <trkpt lat="39.6278280" lon="-0.4065890">
        <ele>146.2</ele>
        <time>2019-12-14T11:07:36Z</time>
      </trkpt>
      <trkpt lat="39.6276350" lon="-0.4067940">
        <ele>145.8</ele>
        <time>2019-12-14T11:07:41Z</time>
      </trkpt>
      <trkpt lat="39.6273240" lon="-0.4071970">
        <ele>145.0</ele>
        <time>2019-12-14T11:07:49Z</time>
      </trkpt>
      <trkpt lat="39.6271260" lon="-0.4073560">
        <ele>144.4</ele>
        <time>2019-12-14T11:07:54Z</time>
      </trkpt>
      <trkpt lat="39.6270020" lon="-0.4072430">
        <ele>144.2</ele>
        <time>2019-12-14T11:07:59Z</time>
      </trkpt>
      <trkpt lat="39.6269660" lon="-0.4068930">
        <ele>146.2</ele>
        <time>2019-12-14T11:08:08Z</time>
      </trkpt>
      <trkpt lat="39.6269580" lon="-0.4066050">
        <ele>147.2</ele>
        <time>2019-12-14T11:08:15Z</time>
      </trkpt>
      <trkpt lat="39.6269360" lon="-0.4063020">
        <ele>148.4</ele>
        <time>2019-12-14T11:08:22Z</time>
      </trkpt>
      <trkpt lat="39.6269110" lon="-0.4061570">
        <ele>149.6</ele>
        <time>2019-12-14T11:08:26Z</time>
      </trkpt>
      <trkpt lat="39.6267460" lon="-0.4063310">
        <ele>150.4</ele>
        <time>2019-12-14T11:08:32Z</time>
      </trkpt>
      <trkpt lat="39.6267120" lon="-0.4063650">
        <ele>150.6</ele>
        <time>2019-12-14T11:08:33Z</time>
      </trkpt>
      <trkpt lat="39.6262260" lon="-0.4067180">
        <ele>150.6</ele>
        <time>2019-12-14T11:08:44Z</time>
      </trkpt>
      <trkpt lat="39.6259400" lon="-0.4068930">
        <ele>149.4</ele>
        <time>2019-12-14T11:08:49Z</time>
      </trkpt>
      <trkpt lat="39.6256270" lon="-0.4071040">
        <ele>148.2</ele>
        <time>2019-12-14T11:08:54Z</time>
      </trkpt>
      <trkpt lat="39.6253760" lon="-0.4072880">
        <ele>147.0</ele>
        <time>2019-12-14T11:08:58Z</time>
      </trkpt>
      <trkpt lat="39.6251180" lon="-0.4074670">
        <ele>145.8</ele>
        <time>2019-12-14T11:09:02Z</time>
      </trkpt>
      <trkpt lat="39.6248520" lon="-0.4076540">
        <ele>144.6</ele>
        <time>2019-12-14T11:09:06Z</time>
      </trkpt>
      <trkpt lat="39.6245080" lon="-0.4079040">
        <ele>143.4</ele>
        <time>2019-12-14T11:09:11Z</time>
      </trkpt>
      <trkpt lat="39.6242340" lon="-0.4081050">
        <ele>142.2</ele>
        <time>2019-12-14T11:09:15Z</time>
      </trkpt>
      <trkpt lat="39.6240630" lon="-0.4082310">
        <ele>140.8</ele>
        <time>2019-12-14T11:09:18Z</time>
      </trkpt>
      <trkpt lat="39.6239930" lon="-0.4082890">
        <ele>139.2</ele>
        <time>2019-12-14T11:09:20Z</time>
      </trkpt>
      <trkpt lat="39.6239600" lon="-0.4083150">
        <ele>137.8</ele>
        <time>2019-12-14T11:09:22Z</time>
      </trkpt>
      <trkpt lat="39.6239510" lon="-0.4083170">
        <ele>137.2</ele>
        <time>2019-12-14T11:09:23Z</time>
      </trkpt>
      <trkpt lat="39.6238930" lon="-0.4083400">
        <ele>135.6</ele>
        <time>2019-12-14T11:09:30Z</time>
      </trkpt>
      <trkpt lat="39.6235990" lon="-0.4083820">
        <ele>135.6</ele>
        <time>2019-12-14T11:09:39Z</time>
      </trkpt>
      <trkpt lat="39.6233830" lon="-0.4083720">
        <ele>135.6</ele>
        <time>2019-12-14T11:09:44Z</time>
      </trkpt>
      <trkpt lat="39.6230730" lon="-0.4083770">
        <ele>136.0</ele>
        <time>2019-12-14T11:09:51Z</time>
      </trkpt>
      <trkpt lat="39.6229880" lon="-0.4083860">
        <ele>136.2</ele>
        <time>2019-12-14T11:09:53Z</time>
      </trkpt>
      <trkpt lat="39.6226740" lon="-0.4084670">
        <ele>136.8</ele>
        <time>2019-12-14T11:10:01Z</time>
      </trkpt>
      <trkpt lat="39.6225940" lon="-0.4084920">
        <ele>137.4</ele>
        <time>2019-12-14T11:10:03Z</time>
      </trkpt>
      <trkpt lat="39.6225530" lon="-0.4085130">
        <ele>137.8</ele>
        <time>2019-12-14T11:10:04Z</time>
      </trkpt>
      <trkpt lat="39.6222860" lon="-0.4087830">
        <ele>138.8</ele>
        <time>2019-12-14T11:10:11Z</time>
      </trkpt>
      <trkpt lat="39.6218730" lon="-0.4092390">
        <ele>139.2</ele>
        <time>2019-12-14T11:10:21Z</time>
      </trkpt>
      <trkpt lat="39.6214410" lon="-0.4097030">
        <ele>139.6</ele>
        <time>2019-12-14T11:10:31Z</time>
      </trkpt>
      <trkpt lat="39.6209880" lon="-0.4100930">
        <ele>139.6</ele>
        <time>2019-12-14T11:10:40Z</time>
      </trkpt>
      <trkpt lat="39.6205070" lon="-0.4104720">
        <ele>139.0</ele>
        <time>2019-12-14T11:10:49Z</time>
      </trkpt>
      <trkpt lat="39.6204140" lon="-0.4105660">
        <ele>139.0</ele>
        <time>2019-12-14T11:10:51Z</time>
      </trkpt>
      <trkpt lat="39.6200990" lon="-0.4110860">
        <ele>138.0</ele>
        <time>2019-12-14T11:10:59Z</time>
      </trkpt>
      <trkpt lat="39.6200440" lon="-0.4111350">
        <ele>137.6</ele>
        <time>2019-12-14T11:11:00Z</time>
      </trkpt>
      <trkpt lat="39.6199160" lon="-0.4111790">
        <ele>136.6</ele>
        <time>2019-12-14T11:11:02Z</time>
      </trkpt>
      <trkpt lat="39.6198510" lon="-0.4111860">
        <ele>136.4</ele>
        <time>2019-12-14T11:11:03Z</time>
      </trkpt>
      <trkpt lat="39.6197220" lon="-0.4112090">
        <ele>135.6</ele>
        <time>2019-12-14T11:11:05Z</time>
      </trkpt>
      <trkpt lat="39.6195250" lon="-0.4112570">
        <ele>134.8</ele>
        <time>2019-12-14T11:11:08Z</time>
      </trkpt>
      <trkpt lat="39.6194590" lon="-0.4112870">
        <ele>134.4</ele>
        <time>2019-12-14T11:11:09Z</time>
      </trkpt>
      <trkpt lat="39.6192660" lon="-0.4113960">
        <ele>134.0</ele>
        <time>2019-12-14T11:11:12Z</time>
      </trkpt>
      <trkpt lat="39.6190730" lon="-0.4115010">
        <ele>133.4</ele>
        <time>2019-12-14T11:11:15Z</time>
      </trkpt>
      <trkpt lat="39.6188160" lon="-0.4116460">
        <ele>132.2</ele>
        <time>2019-12-14T11:11:19Z</time>
      </trkpt>
      <trkpt lat="39.6185920" lon="-0.4117890">
        <ele>131.2</ele>
        <time>2019-12-14T11:11:23Z</time>
      </trkpt>
      <trkpt lat="39.6185690" lon="-0.4118510">
        <ele>131.2</ele>
        <time>2019-12-14T11:11:24Z</time>
      </trkpt>
      <trkpt lat="39.6186950" lon="-0.4121820">
        <ele>130.6</ele>
        <time>2019-12-14T11:11:29Z</time>
      </trkpt>
      <trkpt lat="39.6188060" lon="-0.4123670">
        <ele>129.8</ele>
        <time>2019-12-14T11:11:32Z</time>
      </trkpt>
      <trkpt lat="39.6189200" lon="-0.4125560">
        <ele>129.6</ele>
        <time>2019-12-14T11:11:35Z</time>
      </trkpt>
      <trkpt lat="39.6190060" lon="-0.4128750">
        <ele>128.6</ele>
        <time>2019-12-14T11:11:39Z</time>
      </trkpt>
      <trkpt lat="39.6190510" lon="-0.4131260">
        <ele>127.6</ele>
        <time>2019-12-14T11:11:42Z</time>
      </trkpt>
      <trkpt lat="39.6190970" lon="-0.4133750">
        <ele>126.4</ele>
        <time>2019-12-14T11:11:45Z</time>
      </trkpt>
      <trkpt lat="39.6191850" lon="-0.4138080">
        <ele>125.4</ele>
        <time>2019-12-14T11:11:50Z</time>
      </trkpt>
      <trkpt lat="39.6192190" lon="-0.4140680">
        <ele>124.0</ele>
        <time>2019-12-14T11:11:53Z</time>
      </trkpt>
      <trkpt lat="39.6192440" lon="-0.4142940">
        <ele>122.8</ele>
        <time>2019-12-14T11:11:56Z</time>
      </trkpt>
      <trkpt lat="39.6192710" lon="-0.4145300">
        <ele>121.6</ele>
        <time>2019-12-14T11:11:59Z</time>
      </trkpt>
      <trkpt lat="39.6193290" lon="-0.4149240">
        <ele>120.4</ele>
        <time>2019-12-14T11:12:04Z</time>
      </trkpt>
      <trkpt lat="39.6193300" lon="-0.4150030">
        <ele>120.0</ele>
        <time>2019-12-14T11:12:05Z</time>
      </trkpt>
      <trkpt lat="39.6193130" lon="-0.4150740">
        <ele>119.4</ele>
        <time>2019-12-14T11:12:06Z</time>
      </trkpt>
      <trkpt lat="39.6192040" lon="-0.4152440">
        <ele>118.0</ele>
        <time>2019-12-14T11:12:09Z</time>
      </trkpt>
      <trkpt lat="39.6191590" lon="-0.4152930">
        <ele>117.2</ele>
        <time>2019-12-14T11:12:10Z</time>
      </trkpt>
      <trkpt lat="39.6191140" lon="-0.4153400">
        <ele>116.8</ele>
        <time>2019-12-14T11:12:11Z</time>
      </trkpt>
      <trkpt lat="39.6189900" lon="-0.4154810">
        <ele>115.6</ele>
        <time>2019-12-14T11:12:14Z</time>
      </trkpt>
      <trkpt lat="39.6187730" lon="-0.4156880">
        <ele>114.6</ele>
        <time>2019-12-14T11:12:19Z</time>
      </trkpt>
      <trkpt lat="39.6186610" lon="-0.4158460">
        <ele>114.2</ele>
        <time>2019-12-14T11:12:22Z</time>
      </trkpt>
      <trkpt lat="39.6184600" lon="-0.4162420">
        <ele>113.6</ele>
        <time>2019-12-14T11:12:28Z</time>
      </trkpt>
      <trkpt lat="39.6183250" lon="-0.4165320">
        <ele>112.6</ele>
        <time>2019-12-14T11:12:32Z</time>
      </trkpt>
      <trkpt lat="39.6182010" lon="-0.4168060">
        <ele>110.8</ele>
        <time>2019-12-14T11:12:36Z</time>
      </trkpt>
      <trkpt lat="39.6181420" lon="-0.4169390">
        <ele>109.6</ele>
        <time>2019-12-14T11:12:38Z</time>
      </trkpt>
      <trkpt lat="39.6179130" lon="-0.4176450">
        <ele>108.6</ele>
        <time>2019-12-14T11:12:48Z</time>
      </trkpt>
      <trkpt lat="39.6178860" lon="-0.4177110">
        <ele>108.4</ele>
        <time>2019-12-14T11:12:49Z</time>
      </trkpt>
      <trkpt lat="39.6175810" lon="-0.4182850">
        <ele>107.8</ele>
        <time>2019-12-14T11:12:58Z</time>
      </trkpt>
      <trkpt lat="39.6174010" lon="-0.4184830">
        <ele>107.4</ele>
        <time>2019-12-14T11:13:02Z</time>
      </trkpt>
      <trkpt lat="39.6173510" lon="-0.4185270">
        <ele>107.2</ele>
        <time>2019-12-14T11:13:03Z</time>
      </trkpt>
      <trkpt lat="39.6171990" lon="-0.4186480">
        <ele>106.4</ele>
        <time>2019-12-14T11:13:06Z</time>
      </trkpt>
      <trkpt lat="39.6169590" lon="-0.4188460">
        <ele>106.0</ele>
        <time>2019-12-14T11:13:11Z</time>
      </trkpt>
      <trkpt lat="39.6164880" lon="-0.4192190">
        <ele>105.4</ele>
        <time>2019-12-14T11:13:21Z</time>
      </trkpt>
      <trkpt lat="39.6161930" lon="-0.4194100">
        <ele>105.4</ele>
        <time>2019-12-14T11:13:27Z</time>
      </trkpt>
      <trkpt lat="39.6157240" lon="-0.4197840">
        <ele>104.8</ele>
        <time>2019-12-14T11:13:37Z</time>
      </trkpt>
      <trkpt lat="39.6153390" lon="-0.4201110">
        <ele>104.2</ele>
        <time>2019-12-14T11:13:45Z</time>
      </trkpt>
      <trkpt lat="39.6150730" lon="-0.4203780">
        <ele>103.8</ele>
        <time>2019-12-14T11:13:51Z</time>
      </trkpt>
      <trkpt lat="39.6148590" lon="-0.4206250">
        <ele>103.2</ele>
        <time>2019-12-14T11:13:56Z</time>
      </trkpt>
      <trkpt lat="39.6147020" lon="-0.4208340">
        <ele>102.6</ele>
        <time>2019-12-14T11:14:00Z</time>
      </trkpt>
      <trkpt lat="39.6145150" lon="-0.4209660">
        <ele>102.4</ele>
        <time>2019-12-14T11:14:04Z</time>
      </trkpt>
      <trkpt lat="39.6141640" lon="-0.4210940">
        <ele>102.0</ele>
        <time>2019-12-14T11:14:11Z</time>
      </trkpt>
      <trkpt lat="39.6140560" lon="-0.4210970">
        <ele>101.8</ele>
        <time>2019-12-14T11:14:13Z</time>
      </trkpt>
      <trkpt lat="39.6139460" lon="-0.4210810">
        <ele>101.8</ele>
        <time>2019-12-14T11:14:15Z</time>
      </trkpt>
      <trkpt lat="39.6135620" lon="-0.4209610">
        <ele>101.4</ele>
        <time>2019-12-14T11:14:22Z</time>
      </trkpt>
      <trkpt lat="39.6132690" lon="-0.4210060">
        <ele>101.2</ele>
        <time>2019-12-14T11:14:27Z</time>
      </trkpt>
      <trkpt lat="39.6130010" lon="-0.4211190">
        <ele>100.8</ele>
        <time>2019-12-14T11:14:32Z</time>
      </trkpt>
      <trkpt lat="39.6127670" lon="-0.4212290">
        <ele>100.6</ele>
        <time>2019-12-14T11:14:37Z</time>
      </trkpt>
      <trkpt lat="39.6127210" lon="-0.4216060">
        <ele>99.8</ele>
        <time>2019-12-14T11:14:45Z</time>
      </trkpt>
      <trkpt lat="39.6126810" lon="-0.4216440">
        <ele>99.8</ele>
        <time>2019-12-14T11:14:46Z</time>
      </trkpt>
      <trkpt lat="39.6122360" lon="-0.4221050">
        <ele>99.2</ele>
        <time>2019-12-14T11:14:57Z</time>
      </trkpt>
      <trkpt lat="39.6121500" lon="-0.4221780">
        <ele>99.2</ele>
        <time>2019-12-14T11:14:59Z</time>
      </trkpt>
      <trkpt lat="39.6119410" lon="-0.4222040">
        <ele>98.8</ele>
        <time>2019-12-14T11:15:03Z</time>
      </trkpt>
      <trkpt lat="39.6118840" lon="-0.4221950">
        <ele>98.8</ele>
        <time>2019-12-14T11:15:04Z</time>
      </trkpt>
      <trkpt lat="39.6113100" lon="-0.4221300">
        <ele>98.6</ele>
        <time>2019-12-14T11:15:14Z</time>
      </trkpt>
      <trkpt lat="39.6107960" lon="-0.4222400">
        <ele>97.8</ele>
        <time>2019-12-14T11:15:23Z</time>
      </trkpt>
      <trkpt lat="39.6105250" lon="-0.4223050">
        <ele>96.8</ele>
        <time>2019-12-14T11:15:28Z</time>
      </trkpt>
      <trkpt lat="39.6104740" lon="-0.4223260">
        <ele>96.8</ele>
        <time>2019-12-14T11:15:29Z</time>
      </trkpt>
      <trkpt lat="39.6102270" lon="-0.4224650">
        <ele>96.4</ele>
        <time>2019-12-14T11:15:34Z</time>
      </trkpt>
      <trkpt lat="39.6100050" lon="-0.4224730">
        <ele>96.2</ele>
        <time>2019-12-14T11:15:38Z</time>
      </trkpt>
      <trkpt lat="39.6099480" lon="-0.4224670">
        <ele>96.2</ele>
        <time>2019-12-14T11:15:39Z</time>
      </trkpt>
      <trkpt lat="39.6097740" lon="-0.4224500">
        <ele>96.0</ele>
        <time>2019-12-14T11:15:42Z</time>
      </trkpt>
      <trkpt lat="39.6095400" lon="-0.4224160">
        <ele>95.8</ele>
        <time>2019-12-14T11:15:46Z</time>
      </trkpt>
      <trkpt lat="39.6094230" lon="-0.4223960">
        <ele>95.6</ele>
        <time>2019-12-14T11:15:48Z</time>
      </trkpt>
      <trkpt lat="39.6089370" lon="-0.4223710">
        <ele>94.6</ele>
        <time>2019-12-14T11:15:56Z</time>
      </trkpt>
      <trkpt lat="39.6086910" lon="-0.4223410">
        <ele>93.6</ele>
        <time>2019-12-14T11:16:01Z</time>
      </trkpt>
      <trkpt lat="39.6086690" lon="-0.4222960">
        <ele>93.4</ele>
        <time>2019-12-14T11:16:02Z</time>
      </trkpt>
      <trkpt lat="39.6086440" lon="-0.4218510">
        <ele>93.2</ele>
        <time>2019-12-14T11:16:09Z</time>
      </trkpt>
      <trkpt lat="39.6086080" lon="-0.4215750">
        <ele>93.2</ele>
        <time>2019-12-14T11:16:13Z</time>
      </trkpt>
      <trkpt lat="39.6082760" lon="-0.4212180">
        <ele>93.2</ele>
        <time>2019-12-14T11:16:21Z</time>
      </trkpt>
      <trkpt lat="39.6080440" lon="-0.4208530">
        <ele>93.2</ele>
        <time>2019-12-14T11:16:27Z</time>
      </trkpt>
      <trkpt lat="39.6077980" lon="-0.4207380">
        <ele>92.8</ele>
        <time>2019-12-14T11:16:31Z</time>
      </trkpt>
      <trkpt lat="39.6075360" lon="-0.4206580">
        <ele>92.2</ele>
        <time>2019-12-14T11:16:35Z</time>
      </trkpt>
      <trkpt lat="39.6069800" lon="-0.4205210">
        <ele>90.8</ele>
        <time>2019-12-14T11:16:43Z</time>
      </trkpt>
      <trkpt lat="39.6063960" lon="-0.4204240">
        <ele>90.0</ele>
        <time>2019-12-14T11:16:51Z</time>
      </trkpt>
      <trkpt lat="39.6062490" lon="-0.4204130">
        <ele>89.8</ele>
        <time>2019-12-14T11:16:53Z</time>
      </trkpt>
      <trkpt lat="39.6060320" lon="-0.4203750">
        <ele>89.6</ele>
        <time>2019-12-14T11:16:56Z</time>
      </trkpt>
      <trkpt lat="39.6056180" lon="-0.4201850">
        <ele>89.2</ele>
        <time>2019-12-14T11:17:02Z</time>
      </trkpt>
      <trkpt lat="39.6050850" lon="-0.4201810">
        <ele>88.8</ele>
        <time>2019-12-14T11:17:09Z</time>
      </trkpt>
      <trkpt lat="39.6045470" lon="-0.4201060">
        <ele>87.8</ele>
        <time>2019-12-14T11:17:16Z</time>
      </trkpt>
      <trkpt lat="39.6044740" lon="-0.4200930">
        <ele>87.6</ele>
        <time>2019-12-14T11:17:17Z</time>
      </trkpt>
      <trkpt lat="39.6041200" lon="-0.4200320">
        <ele>86.6</ele>
        <time>2019-12-14T11:17:22Z</time>
      </trkpt>
      <trkpt lat="39.6035820" lon="-0.4197490">
        <ele>86.2</ele>
        <time>2019-12-14T11:17:30Z</time>
      </trkpt>
      <trkpt lat="39.6035130" lon="-0.4197090">
        <ele>86.2</ele>
        <time>2019-12-14T11:17:31Z</time>
      </trkpt>
      <trkpt lat="39.6032880" lon="-0.4196260">
        <ele>85.6</ele>
        <time>2019-12-14T11:17:34Z</time>
      </trkpt>
      <trkpt lat="39.6027480" lon="-0.4194430">
        <ele>84.8</ele>
        <time>2019-12-14T11:17:41Z</time>
      </trkpt>
      <trkpt lat="39.6025930" lon="-0.4193970">
        <ele>84.6</ele>
        <time>2019-12-14T11:17:43Z</time>
      </trkpt>
      <trkpt lat="39.6020630" lon="-0.4192390">
        <ele>84.0</ele>
        <time>2019-12-14T11:17:50Z</time>
      </trkpt>
      <trkpt lat="39.6018480" lon="-0.4191810">
        <ele>83.4</ele>
        <time>2019-12-14T11:17:53Z</time>
      </trkpt>
      <trkpt lat="39.6012910" lon="-0.4189960">
        <ele>82.4</ele>
        <time>2019-12-14T11:18:01Z</time>
      </trkpt>
      <trkpt lat="39.6012230" lon="-0.4189720">
        <ele>82.4</ele>
        <time>2019-12-14T11:18:02Z</time>
      </trkpt>
      <trkpt lat="39.6006490" lon="-0.4188800">
        <ele>81.6</ele>
        <time>2019-12-14T11:18:10Z</time>
      </trkpt>
      <trkpt lat="39.6004290" lon="-0.4188590">
        <ele>81.4</ele>
        <time>2019-12-14T11:18:13Z</time>
      </trkpt>
      <trkpt lat="39.5999420" lon="-0.4187260">
        <ele>81.0</ele>
        <time>2019-12-14T11:18:20Z</time>
      </trkpt>
      <trkpt lat="39.5997750" lon="-0.4187590">
        <ele>80.8</ele>
        <time>2019-12-14T11:18:24Z</time>
      </trkpt>
      <trkpt lat="39.5996950" lon="-0.4187890">
        <ele>80.6</ele>
        <time>2019-12-14T11:18:26Z</time>
      </trkpt>
      <trkpt lat="39.5995500" lon="-0.4187390">
        <ele>80.4</ele>
        <time>2019-12-14T11:18:29Z</time>
      </trkpt>
      <trkpt lat="39.5989960" lon="-0.4185250">
        <ele>79.2</ele>
        <time>2019-12-14T11:18:39Z</time>
      </trkpt>
      <trkpt lat="39.5984510" lon="-0.4183220">
        <ele>78.8</ele>
        <time>2019-12-14T11:18:48Z</time>
      </trkpt>
      <trkpt lat="39.5982600" lon="-0.4182500">
        <ele>78.2</ele>
        <time>2019-12-14T11:18:51Z</time>
      </trkpt>
      <trkpt lat="39.5977110" lon="-0.4180460">
        <ele>77.8</ele>
        <time>2019-12-14T11:19:00Z</time>
      </trkpt>
      <trkpt lat="39.5976490" lon="-0.4180320">
        <ele>77.6</ele>
        <time>2019-12-14T11:19:01Z</time>
      </trkpt>
      <trkpt lat="39.5972750" lon="-0.4180740">
        <ele>77.4</ele>
        <time>2019-12-14T11:19:07Z</time>
      </trkpt>
      <trkpt lat="39.5970810" lon="-0.4180260">
        <ele>77.2</ele>
        <time>2019-12-14T11:19:10Z</time>
      </trkpt>
      <trkpt lat="39.5965250" lon="-0.4178730">
        <ele>76.2</ele>
        <time>2019-12-14T11:19:18Z</time>
      </trkpt>
      <trkpt lat="39.5960470" lon="-0.4177590">
        <ele>75.0</ele>
        <time>2019-12-14T11:19:25Z</time>
      </trkpt>
      <trkpt lat="39.5955040" lon="-0.4176340">
        <ele>74.2</ele>
        <time>2019-12-14T11:19:33Z</time>
      </trkpt>
      <trkpt lat="39.5951680" lon="-0.4175560">
        <ele>74.0</ele>
        <time>2019-12-14T11:19:38Z</time>
      </trkpt>
      <trkpt lat="39.5946180" lon="-0.4174360">
        <ele>73.2</ele>
        <time>2019-12-14T11:19:46Z</time>
      </trkpt>
      <trkpt lat="39.5942650" lon="-0.4173440">
        <ele>73.0</ele>
        <time>2019-12-14T11:19:51Z</time>
      </trkpt>
      <trkpt lat="39.5936890" lon="-0.4170960">
        <ele>71.6</ele>
        <time>2019-12-14T11:19:59Z</time>
      </trkpt>
      <trkpt lat="39.5934170" lon="-0.4169600">
        <ele>70.6</ele>
        <time>2019-12-14T11:20:03Z</time>
      </trkpt>
      <trkpt lat="39.5928870" lon="-0.4167720">
        <ele>70.0</ele>
        <time>2019-12-14T11:20:11Z</time>
      </trkpt>
      <trkpt lat="39.5927000" lon="-0.4166670">
        <ele>70.0</ele>
        <time>2019-12-14T11:20:14Z</time>
      </trkpt>
      <trkpt lat="39.5923300" lon="-0.4164780">
        <ele>69.6</ele>
        <time>2019-12-14T11:20:20Z</time>
      </trkpt>
      <trkpt lat="39.5919290" lon="-0.4164210">
        <ele>69.2</ele>
        <time>2019-12-14T11:20:26Z</time>
      </trkpt>
      <trkpt lat="39.5916150" lon="-0.4166400">
        <ele>68.4</ele>
        <time>2019-12-14T11:20:32Z</time>
      </trkpt>
      <trkpt lat="39.5915270" lon="-0.4168300">
        <ele>68.0</ele>
        <time>2019-12-14T11:20:35Z</time>
      </trkpt>
      <trkpt lat="39.5912460" lon="-0.4173690">
        <ele>67.6</ele>
        <time>2019-12-14T11:20:44Z</time>
      </trkpt>
      <trkpt lat="39.5909990" lon="-0.4175250">
        <ele>67.4</ele>
        <time>2019-12-14T11:20:49Z</time>
      </trkpt>
      <trkpt lat="39.5905990" lon="-0.4176020">
        <ele>67.4</ele>
        <time>2019-12-14T11:20:56Z</time>
      </trkpt>
      <trkpt lat="39.5902990" lon="-0.4176450">
        <ele>67.2</ele>
        <time>2019-12-14T11:21:01Z</time>
      </trkpt>
      <trkpt lat="39.5898260" lon="-0.4180230">
        <ele>66.8</ele>
        <time>2019-12-14T11:21:10Z</time>
      </trkpt>
      <trkpt lat="39.5896320" lon="-0.4181680">
        <ele>66.6</ele>
        <time>2019-12-14T11:21:14Z</time>
      </trkpt>
      <trkpt lat="39.5894490" lon="-0.4180720">
        <ele>66.4</ele>
        <time>2019-12-14T11:21:18Z</time>
      </trkpt>
      <trkpt lat="39.5893330" lon="-0.4179020">
        <ele>66.4</ele>
        <time>2019-12-14T11:21:21Z</time>
      </trkpt>
      <trkpt lat="39.5889590" lon="-0.4173270">
        <ele>65.8</ele>
        <time>2019-12-14T11:21:30Z</time>
      </trkpt>
      <trkpt lat="39.5886310" lon="-0.4168850">
        <ele>65.2</ele>
        <time>2019-12-14T11:21:37Z</time>
      </trkpt>
      <trkpt lat="39.5882380" lon="-0.4163660">
        <ele>64.6</ele>
        <time>2019-12-14T11:21:45Z</time>
      </trkpt>
      <trkpt lat="39.5879750" lon="-0.4162150">
        <ele>64.2</ele>
        <time>2019-12-14T11:21:49Z</time>
      </trkpt>
      <trkpt lat="39.5874280" lon="-0.4159820">
        <ele>63.8</ele>
        <time>2019-12-14T11:21:57Z</time>
      </trkpt>
      <trkpt lat="39.5869150" lon="-0.4157390">
        <ele>63.4</ele>
        <time>2019-12-14T11:22:05Z</time>
      </trkpt>
      <trkpt lat="39.5867190" lon="-0.4156660">
        <ele>63.0</ele>
        <time>2019-12-14T11:22:08Z</time>
      </trkpt>
      <trkpt lat="39.5861880" lon="-0.4154990">
        <ele>62.6</ele>
        <time>2019-12-14T11:22:16Z</time>
      </trkpt>
      <trkpt lat="39.5856480" lon="-0.4153220">
        <ele>62.4</ele>
        <time>2019-12-14T11:22:24Z</time>
      </trkpt>
      <trkpt lat="39.5855830" lon="-0.4152910">
        <ele>62.4</ele>
        <time>2019-12-14T11:22:25Z</time>
      </trkpt>
      <trkpt lat="39.5851560" lon="-0.4150170">
        <ele>62.0</ele>
        <time>2019-12-14T11:22:32Z</time>
      </trkpt>
      <trkpt lat="39.5846450" lon="-0.4146990">
        <ele>61.6</ele>
        <time>2019-12-14T11:22:40Z</time>
      </trkpt>
      <trkpt lat="39.5841120" lon="-0.4144310">
        <ele>61.6</ele>
        <time>2019-12-14T11:22:48Z</time>
      </trkpt>
      <trkpt lat="39.5837280" lon="-0.4142200">
        <ele>61.0</ele>
        <time>2019-12-14T11:22:54Z</time>
      </trkpt>
      <trkpt lat="39.5832170" lon="-0.4139730">
        <ele>60.4</ele>
        <time>2019-12-14T11:23:02Z</time>
      </trkpt>
      <trkpt lat="39.5828620" lon="-0.4138690">
        <ele>60.2</ele>
        <time>2019-12-14T11:23:08Z</time>
      </trkpt>
      <trkpt lat="39.5827470" lon="-0.4139540">
        <ele>60.0</ele>
        <time>2019-12-14T11:23:12Z</time>
      </trkpt>
      <trkpt lat="39.5826280" lon="-0.4140980">
        <ele>60.0</ele>
        <time>2019-12-14T11:23:16Z</time>
      </trkpt>
      <trkpt lat="39.5823540" lon="-0.4145790">
        <ele>59.8</ele>
        <time>2019-12-14T11:23:25Z</time>
      </trkpt>
      <trkpt lat="39.5823500" lon="-0.4148350">
        <ele>59.0</ele>
        <time>2019-12-14T11:23:29Z</time>
      </trkpt>
      <trkpt lat="39.5822670" lon="-0.4149410">
        <ele>58.2</ele>
        <time>2019-12-14T11:23:32Z</time>
      </trkpt>
      <trkpt lat="39.5822280" lon="-0.4149760">
        <ele>58.2</ele>
        <time>2019-12-14T11:23:33Z</time>
      </trkpt>
      <trkpt lat="39.5821450" lon="-0.4150570">
        <ele>56.8</ele>
        <time>2019-12-14T11:23:35Z</time>
      </trkpt>
      <trkpt lat="39.5821090" lon="-0.4151030">
        <ele>56.4</ele>
        <time>2019-12-14T11:23:36Z</time>
      </trkpt>
      <trkpt lat="39.5820780" lon="-0.4151570">
        <ele>55.8</ele>
        <time>2019-12-14T11:23:37Z</time>
      </trkpt>
      <trkpt lat="39.5820200" lon="-0.4152720">
        <ele>54.4</ele>
        <time>2019-12-14T11:23:39Z</time>
      </trkpt>
      <trkpt lat="39.5819860" lon="-0.4153250">
        <ele>53.6</ele>
        <time>2019-12-14T11:23:40Z</time>
      </trkpt>
      <trkpt lat="39.5819530" lon="-0.4153760">
        <ele>53.2</ele>
        <time>2019-12-14T11:23:41Z</time>
      </trkpt>
      <trkpt lat="39.5819180" lon="-0.4154240">
        <ele>53.0</ele>
        <time>2019-12-14T11:23:42Z</time>
      </trkpt>
      <trkpt lat="39.5818270" lon="-0.4155460">
        <ele>52.0</ele>
        <time>2019-12-14T11:23:45Z</time>
      </trkpt>
      <trkpt lat="39.5817990" lon="-0.4155870">
        <ele>52.0</ele>
        <time>2019-12-14T11:23:46Z</time>
      </trkpt>
      <trkpt lat="39.5816690" lon="-0.4157900">
        <ele>51.8</ele>
        <time>2019-12-14T11:23:51Z</time>
      </trkpt>
      <trkpt lat="39.5815190" lon="-0.4157160">
        <ele>52.4</ele>
        <time>2019-12-14T11:23:55Z</time>
      </trkpt>
      <trkpt lat="39.5814880" lon="-0.4156780">
        <ele>52.6</ele>
        <time>2019-12-14T11:23:56Z</time>
      </trkpt>
      <trkpt lat="39.5814250" lon="-0.4156020">
        <ele>53.2</ele>
        <time>2019-12-14T11:23:58Z</time>
      </trkpt>
      <trkpt lat="39.5813420" lon="-0.4154770">
        <ele>53.4</ele>
        <time>2019-12-14T11:24:01Z</time>
      </trkpt>
      <trkpt lat="39.5810490" lon="-0.4153250">
        <ele>54.0</ele>
        <time>2019-12-14T11:24:09Z</time>
      </trkpt>
      <trkpt lat="39.5809460" lon="-0.4152090">
        <ele>54.2</ele>
        <time>2019-12-14T11:24:12Z</time>
      </trkpt>
      <trkpt lat="39.5806820" lon="-0.4149600">
        <ele>54.6</ele>
        <time>2019-12-14T11:24:19Z</time>
      </trkpt>
      <trkpt lat="39.5805740" lon="-0.4148340">
        <ele>54.6</ele>
        <time>2019-12-14T11:24:22Z</time>
      </trkpt>
      <trkpt lat="39.5804770" lon="-0.4146920">
        <ele>54.6</ele>
        <time>2019-12-14T11:24:25Z</time>
      </trkpt>
      <trkpt lat="39.5801550" lon="-0.4142850">
        <ele>54.4</ele>
        <time>2019-12-14T11:24:35Z</time>
      </trkpt>
      <trkpt lat="39.5799790" lon="-0.4139040">
        <ele>54.2</ele>
        <time>2019-12-14T11:24:42Z</time>
      </trkpt>
      <trkpt lat="39.5799060" lon="-0.4135370">
        <ele>54.2</ele>
        <time>2019-12-14T11:24:48Z</time>
      </trkpt>
      <trkpt lat="39.5798180" lon="-0.4132160">
        <ele>54.0</ele>
        <time>2019-12-14T11:24:53Z</time>
      </trkpt>
      <trkpt lat="39.5797280" lon="-0.4129890">
        <ele>53.8</ele>
        <time>2019-12-14T11:24:57Z</time>
      </trkpt>
      <trkpt lat="39.5796500" lon="-0.4128840">
        <ele>53.6</ele>
        <time>2019-12-14T11:25:01Z</time>
      </trkpt>
      <trkpt lat="39.5796120" lon="-0.4129130">
        <ele>53.4</ele>
        <time>2019-12-14T11:25:03Z</time>
      </trkpt>
      <trkpt lat="39.5793560" lon="-0.4131170">
        <ele>53.2</ele>
        <time>2019-12-14T11:25:15Z</time>
      </trkpt>
      <trkpt lat="39.5791040" lon="-0.4128680">
        <ele>53.2</ele>
        <time>2019-12-14T11:25:23Z</time>
      </trkpt>
      <trkpt lat="39.5789110" lon="-0.4126300">
        <ele>53.0</ele>
        <time>2019-12-14T11:25:29Z</time>
      </trkpt>
      <trkpt lat="39.5789170" lon="-0.4124370">
        <ele>53.0</ele>
        <time>2019-12-14T11:25:33Z</time>
      </trkpt>
      <trkpt lat="39.5790150" lon="-0.4121570">
        <ele>53.2</ele>
        <time>2019-12-14T11:25:39Z</time>
      </trkpt>
      <trkpt lat="39.5789550" lon="-0.4119420">
        <ele>53.2</ele>
        <time>2019-12-14T11:25:43Z</time>
      </trkpt>
      <trkpt lat="39.5788720" lon="-0.4117790">
        <ele>53.2</ele>
        <time>2019-12-14T11:25:46Z</time>
      </trkpt>
      <trkpt lat="39.5787620" lon="-0.4115650">
        <ele>53.2</ele>
        <time>2019-12-14T11:25:50Z</time>
      </trkpt>
      <trkpt lat="39.5785810" lon="-0.4113400">
        <ele>53.0</ele>
        <time>2019-12-14T11:25:55Z</time>
      </trkpt>
      <trkpt lat="39.5783210" lon="-0.4109820">
        <ele>52.6</ele>
        <time>2019-12-14T11:26:02Z</time>
      </trkpt>
      <trkpt lat="39.5779070" lon="-0.4104860">
        <ele>51.8</ele>
        <time>2019-12-14T11:26:13Z</time>
      </trkpt>
      <trkpt lat="39.5778120" lon="-0.4103560">
        <ele>51.8</ele>
        <time>2019-12-14T11:26:16Z</time>
      </trkpt>
      <trkpt lat="39.5776650" lon="-0.4101960">
        <ele>51.6</ele>
        <time>2019-12-14T11:26:20Z</time>
      </trkpt>
      <trkpt lat="39.5775310" lon="-0.4100070">
        <ele>51.6</ele>
        <time>2019-12-14T11:26:24Z</time>
      </trkpt>
      <trkpt lat="39.5774560" lon="-0.4099130">
        <ele>51.4</ele>
        <time>2019-12-14T11:26:26Z</time>
      </trkpt>
      <trkpt lat="39.5771780" lon="-0.4095800">
        <ele>51.2</ele>
        <time>2019-12-14T11:26:33Z</time>
      </trkpt>
      <trkpt lat="39.5769090" lon="-0.4095410">
        <ele>51.0</ele>
        <time>2019-12-14T11:26:39Z</time>
      </trkpt>
      <trkpt lat="39.5763910" lon="-0.4093210">
        <ele>52.2</ele>
        <time>2019-12-14T11:26:54Z</time>
      </trkpt>
      <trkpt lat="39.5762390" lon="-0.4092770">
        <ele>52.6</ele>
        <time>2019-12-14T11:26:58Z</time>
      </trkpt>
      <trkpt lat="39.5758650" lon="-0.4091460">
        <ele>53.6</ele>
        <time>2019-12-14T11:27:08Z</time>
      </trkpt>
      <trkpt lat="39.5757480" lon="-0.4091020">
        <ele>53.8</ele>
        <time>2019-12-14T11:27:11Z</time>
      </trkpt>
      <trkpt lat="39.5755900" lon="-0.4090370">
        <ele>54.0</ele>
        <time>2019-12-14T11:27:15Z</time>
      </trkpt>
      <trkpt lat="39.5754060" lon="-0.4089320">
        <ele>54.8</ele>
        <time>2019-12-14T11:27:20Z</time>
      </trkpt>
      <trkpt lat="39.5752350" lon="-0.4087760">
        <ele>55.6</ele>
        <time>2019-12-14T11:27:25Z</time>
      </trkpt>
      <trkpt lat="39.5751650" lon="-0.4087020">
        <ele>56.0</ele>
        <time>2019-12-14T11:27:27Z</time>
      </trkpt>
      <trkpt lat="39.5750950" lon="-0.4086260">
        <ele>56.2</ele>
        <time>2019-12-14T11:27:29Z</time>
      </trkpt>
      <trkpt lat="39.5749980" lon="-0.4082870">
        <ele>56.6</ele>
        <time>2019-12-14T11:27:35Z</time>
      </trkpt>
      <trkpt lat="39.5749830" lon="-0.4082290">
        <ele>56.6</ele>
        <time>2019-12-14T11:27:36Z</time>
      </trkpt>
      <trkpt lat="39.5744620" lon="-0.4079320">
        <ele>56.6</ele>
        <time>2019-12-14T11:27:47Z</time>
      </trkpt>
      <trkpt lat="39.5739120" lon="-0.4077450">
        <ele>56.4</ele>
        <time>2019-12-14T11:27:57Z</time>
      </trkpt>
      <trkpt lat="39.5734830" lon="-0.4073170">
        <ele>56.0</ele>
        <time>2019-12-14T11:28:06Z</time>
      </trkpt>
      <trkpt lat="39.5730910" lon="-0.4069170">
        <ele>55.8</ele>
        <time>2019-12-14T11:28:14Z</time>
      </trkpt>
      <trkpt lat="39.5725720" lon="-0.4066130">
        <ele>55.8</ele>
        <time>2019-12-14T11:28:23Z</time>
      </trkpt>
      <trkpt lat="39.5720470" lon="-0.4063210">
        <ele>55.4</ele>
        <time>2019-12-14T11:28:32Z</time>
      </trkpt>
      <trkpt lat="39.5718720" lon="-0.4062350">
        <ele>55.2</ele>
        <time>2019-12-14T11:28:35Z</time>
      </trkpt>
      <trkpt lat="39.5715920" lon="-0.4062510">
        <ele>55.2</ele>
        <time>2019-12-14T11:28:40Z</time>
      </trkpt>
      <trkpt lat="39.5715450" lon="-0.4062620">
        <ele>55.2</ele>
        <time>2019-12-14T11:28:41Z</time>
      </trkpt>
      <trkpt lat="39.5713630" lon="-0.4062790">
        <ele>55.2</ele>
        <time>2019-12-14T11:28:45Z</time>
      </trkpt>
      <trkpt lat="39.5712260" lon="-0.4062700">
        <ele>55.6</ele>
        <time>2019-12-14T11:28:48Z</time>
      </trkpt>
      <trkpt lat="39.5709820" lon="-0.4061970">
        <ele>56.2</ele>
        <time>2019-12-14T11:28:53Z</time>
      </trkpt>
      <trkpt lat="39.5707410" lon="-0.4060040">
        <ele>56.4</ele>
        <time>2019-12-14T11:28:58Z</time>
      </trkpt>
      <trkpt lat="39.5702630" lon="-0.4056890">
        <ele>55.6</ele>
        <time>2019-12-14T11:29:06Z</time>
      </trkpt>
      <trkpt lat="39.5698320" lon="-0.4053900">
        <ele>54.4</ele>
        <time>2019-12-14T11:29:12Z</time>
      </trkpt>
      <trkpt lat="39.5696460" lon="-0.4051900">
        <ele>53.4</ele>
        <time>2019-12-14T11:29:15Z</time>
      </trkpt>
      <trkpt lat="39.5694020" lon="-0.4049350">
        <ele>52.2</ele>
        <time>2019-12-14T11:29:19Z</time>
      </trkpt>
      <trkpt lat="39.5689370" lon="-0.4044510">
        <ele>51.4</ele>
        <time>2019-12-14T11:29:27Z</time>
      </trkpt>
      <trkpt lat="39.5687180" lon="-0.4042340">
        <ele>51.2</ele>
        <time>2019-12-14T11:29:31Z</time>
      </trkpt>
      <trkpt lat="39.5683100" lon="-0.4037350">
        <ele>50.8</ele>
        <time>2019-12-14T11:29:39Z</time>
      </trkpt>
      <trkpt lat="39.5679240" lon="-0.4031850">
        <ele>50.6</ele>
        <time>2019-12-14T11:29:47Z</time>
      </trkpt>
      <trkpt lat="39.5676130" lon="-0.4025980">
        <ele>50.8</ele>
        <time>2019-12-14T11:29:55Z</time>
      </trkpt>
      <trkpt lat="39.5673720" lon="-0.4019680">
        <ele>51.2</ele>
        <time>2019-12-14T11:30:04Z</time>
      </trkpt>
      <trkpt lat="39.5673140" lon="-0.4017870">
        <ele>51.6</ele>
        <time>2019-12-14T11:30:07Z</time>
      </trkpt>
      <trkpt lat="39.5672260" lon="-0.4016360">
        <ele>51.8</ele>
        <time>2019-12-14T11:30:11Z</time>
      </trkpt>
      <trkpt lat="39.5671610" lon="-0.4016250">
        <ele>52.4</ele>
        <time>2019-12-14T11:30:14Z</time>
      </trkpt>
      <trkpt lat="39.5671830" lon="-0.4016050">
        <ele>52.8</ele>
        <time>2019-12-14T11:30:17Z</time>
      </trkpt>
      <trkpt lat="39.5671570" lon="-0.4015310">
        <ele>53.4</ele>
        <time>2019-12-14T11:30:26Z</time>
      </trkpt>
      <trkpt lat="39.5671990" lon="-0.4014850">
        <ele>54.4</ele>
        <time>2019-12-14T11:30:34Z</time>
      </trkpt>
      <trkpt lat="39.5671780" lon="-0.4015790">
        <ele>55.4</ele>
        <time>2019-12-14T11:30:38Z</time>
      </trkpt>
      <trkpt lat="39.5672610" lon="-0.4015280">
        <ele>56.6</ele>
        <time>2019-12-14T11:30:43Z</time>
      </trkpt>
      <trkpt lat="39.5671310" lon="-0.4014980">
        <ele>58.0</ele>
        <time>2019-12-14T11:30:48Z</time>
      </trkpt>
      <trkpt lat="39.5669210" lon="-0.4015280">
        <ele>58.8</ele>
        <time>2019-12-14T11:30:54Z</time>
      </trkpt>
      <trkpt lat="39.5670020" lon="-0.4014890">
        <ele>56.8</ele>
        <time>2019-12-14T11:31:08Z</time>
      </trkpt>
      <trkpt lat="39.5669380" lon="-0.4014550">
        <ele>55.8</ele>
        <time>2019-12-14T11:31:12Z</time>
      </trkpt>
      <trkpt lat="39.5669660" lon="-0.4013180">
        <ele>54.4</ele>
        <time>2019-12-14T11:31:15Z</time>
      </trkpt>
      <trkpt lat="39.5669340" lon="-0.4011370">
        <ele>53.6</ele>
        <time>2019-12-14T11:31:18Z</time>
      </trkpt>
      <trkpt lat="39.5669220" lon="-0.4010740">
        <ele>53.4</ele>
        <time>2019-12-14T11:31:19Z</time>
      </trkpt>
      <trkpt lat="39.5668290" lon="-0.4007550">
        <ele>52.2</ele>
        <time>2019-12-14T11:31:24Z</time>
      </trkpt>
      <trkpt lat="39.5667080" lon="-0.4005130">
        <ele>52.2</ele>
        <time>2019-12-14T11:31:28Z</time>
      </trkpt>
      <trkpt lat="39.5664170" lon="-0.3998920">
        <ele>52.0</ele>
        <time>2019-12-14T11:31:37Z</time>
      </trkpt>
      <trkpt lat="39.5660230" lon="-0.3993370">
        <ele>51.4</ele>
        <time>2019-12-14T11:31:46Z</time>
      </trkpt>
      <trkpt lat="39.5659740" lon="-0.3992820">
        <ele>51.2</ele>
        <time>2019-12-14T11:31:47Z</time>
      </trkpt>
      <trkpt lat="39.5655280" lon="-0.3988620">
        <ele>50.2</ele>
        <time>2019-12-14T11:31:55Z</time>
      </trkpt>
      <trkpt lat="39.5654680" lon="-0.3988130">
        <ele>50.0</ele>
        <time>2019-12-14T11:31:56Z</time>
      </trkpt>
      <trkpt lat="39.5651650" lon="-0.3985600">
        <ele>49.0</ele>
        <time>2019-12-14T11:32:01Z</time>
      </trkpt>
      <trkpt lat="39.5646810" lon="-0.3981450">
        <ele>48.6</ele>
        <time>2019-12-14T11:32:09Z</time>
      </trkpt>
      <trkpt lat="39.5642110" lon="-0.3977550">
        <ele>48.2</ele>
        <time>2019-12-14T11:32:17Z</time>
      </trkpt>
      <trkpt lat="39.5641520" lon="-0.3977040">
        <ele>48.0</ele>
        <time>2019-12-14T11:32:18Z</time>
      </trkpt>
      <trkpt lat="39.5636690" lon="-0.3973100">
        <ele>47.0</ele>
        <time>2019-12-14T11:32:26Z</time>
      </trkpt>
      <trkpt lat="39.5636090" lon="-0.3972600">
        <ele>47.0</ele>
        <time>2019-12-14T11:32:27Z</time>
      </trkpt>
      <trkpt lat="39.5631090" lon="-0.3968600">
        <ele>46.0</ele>
        <time>2019-12-14T11:32:35Z</time>
      </trkpt>
      <trkpt lat="39.5630470" lon="-0.3968130">
        <ele>45.8</ele>
        <time>2019-12-14T11:32:36Z</time>
      </trkpt>
      <trkpt lat="39.5625330" lon="-0.3965150">
        <ele>45.2</ele>
        <time>2019-12-14T11:32:44Z</time>
      </trkpt>
      <trkpt lat="39.5623380" lon="-0.3964120">
        <ele>44.8</ele>
        <time>2019-12-14T11:32:47Z</time>
      </trkpt>
      <trkpt lat="39.5618170" lon="-0.3961330">
        <ele>44.4</ele>
        <time>2019-12-14T11:32:55Z</time>
      </trkpt>
      <trkpt lat="39.5613000" lon="-0.3958560">
        <ele>44.2</ele>
        <time>2019-12-14T11:33:03Z</time>
      </trkpt>
      <trkpt lat="39.5607610" lon="-0.3955820">
        <ele>43.8</ele>
        <time>2019-12-14T11:33:12Z</time>
      </trkpt>
      <trkpt lat="39.5607070" lon="-0.3955740">
        <ele>43.8</ele>
        <time>2019-12-14T11:33:13Z</time>
      </trkpt>
      <trkpt lat="39.5605600" lon="-0.3955560">
        <ele>43.4</ele>
        <time>2019-12-14T11:33:16Z</time>
      </trkpt>
      <trkpt lat="39.5604260" lon="-0.3957110">
        <ele>43.4</ele>
        <time>2019-12-14T11:33:20Z</time>
      </trkpt>
      <trkpt lat="39.5601950" lon="-0.3958760">
        <ele>42.8</ele>
        <time>2019-12-14T11:33:25Z</time>
      </trkpt>
      <trkpt lat="39.5599850" lon="-0.3959570">
        <ele>42.8</ele>
        <time>2019-12-14T11:33:29Z</time>
      </trkpt>
      <trkpt lat="39.5598250" lon="-0.3959020">
        <ele>42.8</ele>
        <time>2019-12-14T11:33:32Z</time>
      </trkpt>
      <trkpt lat="39.5595580" lon="-0.3959140">
        <ele>42.8</ele>
        <time>2019-12-14T11:33:37Z</time>
      </trkpt>
      <trkpt lat="39.5595100" lon="-0.3959250">
        <ele>42.8</ele>
        <time>2019-12-14T11:33:38Z</time>
      </trkpt>
      <trkpt lat="39.5594030" lon="-0.3961130">
        <ele>42.8</ele>
        <time>2019-12-14T11:33:42Z</time>
      </trkpt>
      <trkpt lat="39.5592160" lon="-0.3967260">
        <ele>44.0</ele>
        <time>2019-12-14T11:33:54Z</time>
      </trkpt>
      <trkpt lat="39.5591650" lon="-0.3968850">
        <ele>45.2</ele>
        <time>2019-12-14T11:33:57Z</time>
      </trkpt>
      <trkpt lat="39.5590250" lon="-0.3973160">
        <ele>46.2</ele>
        <time>2019-12-14T11:34:05Z</time>
      </trkpt>
      <trkpt lat="39.5589290" lon="-0.3975700">
        <ele>47.4</ele>
        <time>2019-12-14T11:34:10Z</time>
      </trkpt>
      <trkpt lat="39.5588450" lon="-0.3978220">
        <ele>48.0</ele>
        <time>2019-12-14T11:34:15Z</time>
      </trkpt>
      <trkpt lat="39.5587130" lon="-0.3981720">
        <ele>48.0</ele>
        <time>2019-12-14T11:34:22Z</time>
      </trkpt>
      <trkpt lat="39.5583600" lon="-0.3981450">
        <ele>47.4</ele>
        <time>2019-12-14T11:34:29Z</time>
      </trkpt>
      <trkpt lat="39.5582320" lon="-0.3980690">
        <ele>46.0</ele>
        <time>2019-12-14T11:34:31Z</time>
      </trkpt>
      <trkpt lat="39.5579770" lon="-0.3978920">
        <ele>44.8</ele>
        <time>2019-12-14T11:34:35Z</time>
      </trkpt>
      <trkpt lat="39.5577950" lon="-0.3977650">
        <ele>43.8</ele>
        <time>2019-12-14T11:34:38Z</time>
      </trkpt>
      <trkpt lat="39.5575500" lon="-0.3976030">
        <ele>42.8</ele>
        <time>2019-12-14T11:34:42Z</time>
      </trkpt>
      <trkpt lat="39.5569750" lon="-0.3974770">
        <ele>42.0</ele>
        <time>2019-12-14T11:34:50Z</time>
      </trkpt>
      <trkpt lat="39.5568280" lon="-0.3974580">
        <ele>41.8</ele>
        <time>2019-12-14T11:34:52Z</time>
      </trkpt>
      <trkpt lat="39.5562600" lon="-0.3974400">
        <ele>40.8</ele>
        <time>2019-12-14T11:35:00Z</time>
      </trkpt>
      <trkpt lat="39.5561950" lon="-0.3974340">
        <ele>40.6</ele>
        <time>2019-12-14T11:35:01Z</time>
      </trkpt>
      <trkpt lat="39.5556040" lon="-0.3974270">
        <ele>40.2</ele>
        <time>2019-12-14T11:35:10Z</time>
      </trkpt>
      <trkpt lat="39.5553390" lon="-0.3974200">
        <ele>39.6</ele>
        <time>2019-12-14T11:35:14Z</time>
      </trkpt>
      <trkpt lat="39.5547710" lon="-0.3973150">
        <ele>39.0</ele>
        <time>2019-12-14T11:35:22Z</time>
      </trkpt>
      <trkpt lat="39.5543070" lon="-0.3970700">
        <ele>38.4</ele>
        <time>2019-12-14T11:35:29Z</time>
      </trkpt>
      <trkpt lat="39.5537400" lon="-0.3967720">
        <ele>37.2</ele>
        <time>2019-12-14T11:35:37Z</time>
      </trkpt>
      <trkpt lat="39.5532230" lon="-0.3965480">
        <ele>36.2</ele>
        <time>2019-12-14T11:35:44Z</time>
      </trkpt>
      <trkpt lat="39.5531450" lon="-0.3965280">
        <ele>36.2</ele>
        <time>2019-12-14T11:35:45Z</time>
      </trkpt>
      <trkpt lat="39.5527360" lon="-0.3964840">
        <ele>35.2</ele>
        <time>2019-12-14T11:35:50Z</time>
      </trkpt>
      <trkpt lat="39.5524850" lon="-0.3965070">
        <ele>34.0</ele>
        <time>2019-12-14T11:35:53Z</time>
      </trkpt>
      <trkpt lat="39.5522400" lon="-0.3965620">
        <ele>33.4</ele>
        <time>2019-12-14T11:35:56Z</time>
      </trkpt>
      <trkpt lat="39.5521190" lon="-0.3966830">
        <ele>32.8</ele>
        <time>2019-12-14T11:35:58Z</time>
      </trkpt>
      <trkpt lat="39.5518630" lon="-0.3968350">
        <ele>31.8</ele>
        <time>2019-12-14T11:36:03Z</time>
      </trkpt>
      <trkpt lat="39.5516220" lon="-0.3965840">
        <ele>31.6</ele>
        <time>2019-12-14T11:36:08Z</time>
      </trkpt>
      <trkpt lat="39.5513190" lon="-0.3963660">
        <ele>31.2</ele>
        <time>2019-12-14T11:36:13Z</time>
      </trkpt>
      <trkpt lat="39.5509160" lon="-0.3961470">
        <ele>30.6</ele>
        <time>2019-12-14T11:36:19Z</time>
      </trkpt>
      <trkpt lat="39.5505140" lon="-0.3959470">
        <ele>29.6</ele>
        <time>2019-12-14T11:36:25Z</time>
      </trkpt>
      <trkpt lat="39.5499680" lon="-0.3956830">
        <ele>29.0</ele>
        <time>2019-12-14T11:36:34Z</time>
      </trkpt>
      <trkpt lat="39.5494540" lon="-0.3954220">
        <ele>28.8</ele>
        <time>2019-12-14T11:36:43Z</time>
      </trkpt>
      <trkpt lat="39.5492230" lon="-0.3953170">
        <ele>28.8</ele>
        <time>2019-12-14T11:36:48Z</time>
      </trkpt>
      <trkpt lat="39.5489320" lon="-0.3951830">
        <ele>29.0</ele>
        <time>2019-12-14T11:36:54Z</time>
      </trkpt>
      <trkpt lat="39.5485390" lon="-0.3950080">
        <ele>28.4</ele>
        <time>2019-12-14T11:37:01Z</time>
      </trkpt>
      <trkpt lat="39.5481680" lon="-0.3949220">
        <ele>27.8</ele>
        <time>2019-12-14T11:37:07Z</time>
      </trkpt>
      <trkpt lat="39.5480390" lon="-0.3952680">
        <ele>27.6</ele>
        <time>2019-12-14T11:37:12Z</time>
      </trkpt>
      <trkpt lat="39.5479620" lon="-0.3960360">
        <ele>28.0</ele>
        <time>2019-12-14T11:37:21Z</time>
      </trkpt>
      <trkpt lat="39.5476400" lon="-0.3961610">
        <ele>28.6</ele>
        <time>2019-12-14T11:37:27Z</time>
      </trkpt>
      <trkpt lat="39.5474950" lon="-0.3961170">
        <ele>28.8</ele>
        <time>2019-12-14T11:37:29Z</time>
      </trkpt>
      <trkpt lat="39.5469180" lon="-0.3959760">
        <ele>29.2</ele>
        <time>2019-12-14T11:37:37Z</time>
      </trkpt>
      <trkpt lat="39.5463370" lon="-0.3958600">
        <ele>29.0</ele>
        <time>2019-12-14T11:37:45Z</time>
      </trkpt>
      <trkpt lat="39.5461830" lon="-0.3958890">
        <ele>28.6</ele>
        <time>2019-12-14T11:37:48Z</time>
      </trkpt>
      <trkpt lat="39.5462560" lon="-0.3966290">
        <ele>28.4</ele>
        <time>2019-12-14T11:37:58Z</time>
      </trkpt>
      <trkpt lat="39.5463180" lon="-0.3973530">
        <ele>28.8</ele>
        <time>2019-12-14T11:38:07Z</time>
      </trkpt>
      <trkpt lat="39.5463670" lon="-0.3978250">
        <ele>29.2</ele>
        <time>2019-12-14T11:38:13Z</time>
      </trkpt>
      <trkpt lat="39.5463840" lon="-0.3980450">
        <ele>29.4</ele>
        <time>2019-12-14T11:38:16Z</time>
      </trkpt>
      <trkpt lat="39.5464100" lon="-0.3985180">
        <ele>30.2</ele>
        <time>2019-12-14T11:38:23Z</time>
      </trkpt>
      <trkpt lat="39.5464170" lon="-0.3986950">
        <ele>30.6</ele>
        <time>2019-12-14T11:38:26Z</time>
      </trkpt>
      <trkpt lat="39.5463040" lon="-0.3988030">
        <ele>31.4</ele>
        <time>2019-12-14T11:38:30Z</time>
      </trkpt>
      <trkpt lat="39.5461520" lon="-0.3986620">
        <ele>31.8</ele>
        <time>2019-12-14T11:38:34Z</time>
      </trkpt>
      <trkpt lat="39.5459580" lon="-0.3985020">
        <ele>31.8</ele>
        <time>2019-12-14T11:38:38Z</time>
      </trkpt>
      <trkpt lat="39.5458140" lon="-0.3987840">
        <ele>31.4</ele>
        <time>2019-12-14T11:38:45Z</time>
      </trkpt>
      <trkpt lat="39.5458040" lon="-0.3991970">
        <ele>32.2</ele>
        <time>2019-12-14T11:38:53Z</time>
      </trkpt>
      <trkpt lat="39.5458030" lon="-0.3992470">
        <ele>32.6</ele>
        <time>2019-12-14T11:38:54Z</time>
      </trkpt>
      <trkpt lat="39.5458080" lon="-0.3993590">
        <ele>33.4</ele>
        <time>2019-12-14T11:38:56Z</time>
      </trkpt>
      <trkpt lat="39.5458190" lon="-0.3995840">
        <ele>34.6</ele>
        <time>2019-12-14T11:39:00Z</time>
      </trkpt>
      <trkpt lat="39.5458210" lon="-0.3998770">
        <ele>36.0</ele>
        <time>2019-12-14T11:39:05Z</time>
      </trkpt>
      <trkpt lat="39.5458370" lon="-0.4002580">
        <ele>37.0</ele>
        <time>2019-12-14T11:39:11Z</time>
      </trkpt>
      <trkpt lat="39.5458590" lon="-0.4009750">
        <ele>38.0</ele>
        <time>2019-12-14T11:39:21Z</time>
      </trkpt>
      <trkpt lat="39.5458740" lon="-0.4016840">
        <ele>38.0</ele>
        <time>2019-12-14T11:39:31Z</time>
      </trkpt>
      <trkpt lat="39.5458730" lon="-0.4022170">
        <ele>38.2</ele>
        <time>2019-12-14T11:39:39Z</time>
      </trkpt>
      <trkpt lat="39.5458770" lon="-0.4024050">
        <ele>39.4</ele>
        <time>2019-12-14T11:39:42Z</time>
      </trkpt>
      <trkpt lat="39.5459030" lon="-0.4028220">
        <ele>40.6</ele>
        <time>2019-12-14T11:39:49Z</time>
      </trkpt>
      <trkpt lat="39.5459230" lon="-0.4032760">
        <ele>41.6</ele>
        <time>2019-12-14T11:39:57Z</time>
      </trkpt>
      <trkpt lat="39.5459200" lon="-0.4036300">
        <ele>41.6</ele>
        <time>2019-12-14T11:40:03Z</time>
      </trkpt>
      <trkpt lat="39.5458680" lon="-0.4038630">
        <ele>41.4</ele>
        <time>2019-12-14T11:40:07Z</time>
      </trkpt>
      <trkpt lat="39.5457440" lon="-0.4040570">
        <ele>40.8</ele>
        <time>2019-12-14T11:40:11Z</time>
      </trkpt>
      <trkpt lat="39.5457030" lon="-0.4040950">
        <ele>40.6</ele>
        <time>2019-12-14T11:40:12Z</time>
      </trkpt>
      <trkpt lat="39.5453970" lon="-0.4042510">
        <ele>39.8</ele>
        <time>2019-12-14T11:40:18Z</time>
      </trkpt>
      <trkpt lat="39.5452600" lon="-0.4046380">
        <ele>39.4</ele>
        <time>2019-12-14T11:40:24Z</time>
      </trkpt>
      <trkpt lat="39.5452630" lon="-0.4047170">
        <ele>39.2</ele>
        <time>2019-12-14T11:40:25Z</time>
      </trkpt>
      <trkpt lat="39.5453190" lon="-0.4054780">
        <ele>38.8</ele>
        <time>2019-12-14T11:40:35Z</time>
      </trkpt>
      <trkpt lat="39.5453690" lon="-0.4059430">
        <ele>38.8</ele>
        <time>2019-12-14T11:40:41Z</time>
      </trkpt>
      <trkpt lat="39.5455720" lon="-0.4064640">
        <ele>38.4</ele>
        <time>2019-12-14T11:40:48Z</time>
      </trkpt>
      <trkpt lat="39.5456000" lon="-0.4065430">
        <ele>38.0</ele>
        <time>2019-12-14T11:40:49Z</time>
      </trkpt>
      <trkpt lat="39.5456470" lon="-0.4067050">
        <ele>37.2</ele>
        <time>2019-12-14T11:40:51Z</time>
      </trkpt>
      <trkpt lat="39.5459130" lon="-0.4072520">
        <ele>36.0</ele>
        <time>2019-12-14T11:40:58Z</time>
      </trkpt>
      <trkpt lat="39.5460080" lon="-0.4074150">
        <ele>35.0</ele>
        <time>2019-12-14T11:41:00Z</time>
      </trkpt>
      <trkpt lat="39.5462120" lon="-0.4077010">
        <ele>33.8</ele>
        <time>2019-12-14T11:41:04Z</time>
      </trkpt>
      <trkpt lat="39.5463720" lon="-0.4079790">
        <ele>32.8</ele>
        <time>2019-12-14T11:41:08Z</time>
      </trkpt>
      <trkpt lat="39.5465020" lon="-0.4082130">
        <ele>32.6</ele>
        <time>2019-12-14T11:41:12Z</time>
      </trkpt>
      <trkpt lat="39.5466810" lon="-0.4086310">
        <ele>33.8</ele>
        <time>2019-12-14T11:41:20Z</time>
      </trkpt>
      <trkpt lat="39.5467560" lon="-0.4088520">
        <ele>35.0</ele>
        <time>2019-12-14T11:41:24Z</time>
      </trkpt>
      <trkpt lat="39.5468120" lon="-0.4090170">
        <ele>36.0</ele>
        <time>2019-12-14T11:41:27Z</time>
      </trkpt>
      <trkpt lat="39.5468730" lon="-0.4091800">
        <ele>37.2</ele>
        <time>2019-12-14T11:41:30Z</time>
      </trkpt>
      <trkpt lat="39.5469610" lon="-0.4093920">
        <ele>38.6</ele>
        <time>2019-12-14T11:41:34Z</time>
      </trkpt>
      <trkpt lat="39.5470770" lon="-0.4096490">
        <ele>39.8</ele>
        <time>2019-12-14T11:41:39Z</time>
      </trkpt>
      <trkpt lat="39.5472340" lon="-0.4100000">
        <ele>40.8</ele>
        <time>2019-12-14T11:41:46Z</time>
      </trkpt>
      <trkpt lat="39.5473280" lon="-0.4101790">
        <ele>41.8</ele>
        <time>2019-12-14T11:41:50Z</time>
      </trkpt>
      <trkpt lat="39.5473500" lon="-0.4102220">
        <ele>42.0</ele>
        <time>2019-12-14T11:41:51Z</time>
      </trkpt>
      <trkpt lat="39.5473910" lon="-0.4103150">
        <ele>42.2</ele>
        <time>2019-12-14T11:41:53Z</time>
      </trkpt>
      <trkpt lat="39.5474350" lon="-0.4104620">
        <ele>42.8</ele>
        <time>2019-12-14T11:41:56Z</time>
      </trkpt>
      <trkpt lat="39.5474440" lon="-0.4105130">
        <ele>43.2</ele>
        <time>2019-12-14T11:41:57Z</time>
      </trkpt>
      <trkpt lat="39.5474690" lon="-0.4108220">
        <ele>44.2</ele>
        <time>2019-12-14T11:42:03Z</time>
      </trkpt>
      <trkpt lat="39.5474690" lon="-0.4111300">
        <ele>45.2</ele>
        <time>2019-12-14T11:42:09Z</time>
      </trkpt>
      <trkpt lat="39.5474260" lon="-0.4114330">
        <ele>46.2</ele>
        <time>2019-12-14T11:42:15Z</time>
      </trkpt>
      <trkpt lat="39.5474010" lon="-0.4115350">
        <ele>46.4</ele>
        <time>2019-12-14T11:42:17Z</time>
      </trkpt>
      <trkpt lat="39.5472220" lon="-0.4117570">
        <ele>47.6</ele>
        <time>2019-12-14T11:42:23Z</time>
      </trkpt>
      <trkpt lat="39.5471810" lon="-0.4117740">
        <ele>47.6</ele>
        <time>2019-12-14T11:42:24Z</time>
      </trkpt>
      <trkpt lat="39.5471380" lon="-0.4117880">
        <ele>47.6</ele>
        <time>2019-12-14T11:42:25Z</time>
      </trkpt>
      <trkpt lat="39.5468850" lon="-0.4118310">
        <ele>48.6</ele>
        <time>2019-12-14T11:42:31Z</time>
      </trkpt>
      <trkpt lat="39.5466900" lon="-0.4118960">
        <ele>50.0</ele>
        <time>2019-12-14T11:42:37Z</time>
      </trkpt>
      <trkpt lat="39.5466810" lon="-0.4120730">
        <ele>50.8</ele>
        <time>2019-12-14T11:42:42Z</time>
      </trkpt>
      <trkpt lat="39.5466710" lon="-0.4121800">
        <ele>52.2</ele>
        <time>2019-12-14T11:42:45Z</time>
      </trkpt>
      <trkpt lat="39.5466630" lon="-0.4122910">
        <ele>53.2</ele>
        <time>2019-12-14T11:42:48Z</time>
      </trkpt>
      <trkpt lat="39.5466480" lon="-0.4124790">
        <ele>54.2</ele>
        <time>2019-12-14T11:42:53Z</time>
      </trkpt>
      <trkpt lat="39.5466400" lon="-0.4125900">
        <ele>55.4</ele>
        <time>2019-12-14T11:42:56Z</time>
      </trkpt>
      <trkpt lat="39.5466370" lon="-0.4126980">
        <ele>56.4</ele>
        <time>2019-12-14T11:42:59Z</time>
      </trkpt>
      <trkpt lat="39.5466110" lon="-0.4129620">
        <ele>57.6</ele>
        <time>2019-12-14T11:43:06Z</time>
      </trkpt>
      <trkpt lat="39.5465850" lon="-0.4131510">
        <ele>58.6</ele>
        <time>2019-12-14T11:43:11Z</time>
      </trkpt>
      <trkpt lat="39.5465450" lon="-0.4133400">
        <ele>60.0</ele>
        <time>2019-12-14T11:43:16Z</time>
      </trkpt>
      <trkpt lat="39.5465120" lon="-0.4135670">
        <ele>61.0</ele>
        <time>2019-12-14T11:43:22Z</time>
      </trkpt>
      <trkpt lat="39.5464990" lon="-0.4137280">
        <ele>62.2</ele>
        <time>2019-12-14T11:43:26Z</time>
      </trkpt>
      <trkpt lat="39.5464880" lon="-0.4139830">
        <ele>63.4</ele>
        <time>2019-12-14T11:43:32Z</time>
      </trkpt>
      <trkpt lat="39.5464540" lon="-0.4143110">
        <ele>64.4</ele>
        <time>2019-12-14T11:43:40Z</time>
      </trkpt>
      <trkpt lat="39.5464290" lon="-0.4144730">
        <ele>65.4</ele>
        <time>2019-12-14T11:43:44Z</time>
      </trkpt>
      <trkpt lat="39.5464160" lon="-0.4146520">
        <ele>66.6</ele>
        <time>2019-12-14T11:43:48Z</time>
      </trkpt>
      <trkpt lat="39.5464090" lon="-0.4148380">
        <ele>67.6</ele>
        <time>2019-12-14T11:43:52Z</time>
      </trkpt>
      <trkpt lat="39.5463930" lon="-0.4149780">
        <ele>68.8</ele>
        <time>2019-12-14T11:43:55Z</time>
      </trkpt>
      <trkpt lat="39.5463150" lon="-0.4151470">
        <ele>69.4</ele>
        <time>2019-12-14T11:43:59Z</time>
      </trkpt>
      <trkpt lat="39.5461830" lon="-0.4151600">
        <ele>69.8</ele>
        <time>2019-12-14T11:44:02Z</time>
      </trkpt>
      <trkpt lat="39.5461340" lon="-0.4151500">
        <ele>69.8</ele>
        <time>2019-12-14T11:44:03Z</time>
      </trkpt>
      <trkpt lat="39.5457390" lon="-0.4150580">
        <ele>69.8</ele>
        <time>2019-12-14T11:44:10Z</time>
      </trkpt>
      <trkpt lat="39.5451860" lon="-0.4148010">
        <ele>68.8</ele>
        <time>2019-12-14T11:44:19Z</time>
      </trkpt>
      <trkpt lat="39.5451180" lon="-0.4147690">
        <ele>68.6</ele>
        <time>2019-12-14T11:44:20Z</time>
      </trkpt>
      <trkpt lat="39.5448100" lon="-0.4146580">
        <ele>67.6</ele>
        <time>2019-12-14T11:44:24Z</time>
      </trkpt>
      <trkpt lat="39.5445550" lon="-0.4145650">
        <ele>66.6</ele>
        <time>2019-12-14T11:44:27Z</time>
      </trkpt>
      <trkpt lat="39.5442860" lon="-0.4144480">
        <ele>65.2</ele>
        <time>2019-12-14T11:44:30Z</time>
      </trkpt>
      <trkpt lat="39.5440170" lon="-0.4143400">
        <ele>63.8</ele>
        <time>2019-12-14T11:44:33Z</time>
      </trkpt>
      <trkpt lat="39.5438410" lon="-0.4142690">
        <ele>62.8</ele>
        <time>2019-12-14T11:44:35Z</time>
      </trkpt>
      <trkpt lat="39.5435780" lon="-0.4141630">
        <ele>61.6</ele>
        <time>2019-12-14T11:44:38Z</time>
      </trkpt>
      <trkpt lat="39.5432460" lon="-0.4140160">
        <ele>60.2</ele>
        <time>2019-12-14T11:44:42Z</time>
      </trkpt>
      <trkpt lat="39.5429930" lon="-0.4139180">
        <ele>59.0</ele>
        <time>2019-12-14T11:44:45Z</time>
      </trkpt>
      <trkpt lat="39.5427510" lon="-0.4138140">
        <ele>57.8</ele>
        <time>2019-12-14T11:44:48Z</time>
      </trkpt>
      <trkpt lat="39.5426770" lon="-0.4138100">
        <ele>57.4</ele>
        <time>2019-12-14T11:44:49Z</time>
      </trkpt>
      <trkpt lat="39.5425440" lon="-0.4139000">
        <ele>56.8</ele>
        <time>2019-12-14T11:44:51Z</time>
      </trkpt>
      <trkpt lat="39.5424400" lon="-0.4140580">
        <ele>56.0</ele>
        <time>2019-12-14T11:44:53Z</time>
      </trkpt>
      <trkpt lat="39.5423590" lon="-0.4141810">
        <ele>55.8</ele>
        <time>2019-12-14T11:44:55Z</time>
      </trkpt>
      <trkpt lat="39.5423130" lon="-0.4142120">
        <ele>55.6</ele>
        <time>2019-12-14T11:44:56Z</time>
      </trkpt>
      <trkpt lat="39.5421960" lon="-0.4141950">
        <ele>54.6</ele>
        <time>2019-12-14T11:44:58Z</time>
      </trkpt>
      <trkpt lat="39.5421340" lon="-0.4141760">
        <ele>54.0</ele>
        <time>2019-12-14T11:44:59Z</time>
      </trkpt>
      <trkpt lat="39.5419940" lon="-0.4141400">
        <ele>53.2</ele>
        <time>2019-12-14T11:45:01Z</time>
      </trkpt>
      <trkpt lat="39.5419180" lon="-0.4141240">
        <ele>51.2</ele>
        <time>2019-12-14T11:45:02Z</time>
      </trkpt>
      <trkpt lat="39.5418380" lon="-0.4141150">
        <ele>50.6</ele>
        <time>2019-12-14T11:45:03Z</time>
      </trkpt>
      <trkpt lat="39.5417570" lon="-0.4141260">
        <ele>50.0</ele>
        <time>2019-12-14T11:45:04Z</time>
      </trkpt>
      <trkpt lat="39.5416220" lon="-0.4143420">
        <ele>49.0</ele>
        <time>2019-12-14T11:45:07Z</time>
      </trkpt>
      <trkpt lat="39.5416120" lon="-0.4144280">
        <ele>48.2</ele>
        <time>2019-12-14T11:45:08Z</time>
      </trkpt>
      <trkpt lat="39.5416040" lon="-0.4145090">
        <ele>47.8</ele>
        <time>2019-12-14T11:45:09Z</time>
      </trkpt>
      <trkpt lat="39.5415940" lon="-0.4145860">
        <ele>47.2</ele>
        <time>2019-12-14T11:45:10Z</time>
      </trkpt>
      <trkpt lat="39.5415530" lon="-0.4147270">
        <ele>46.6</ele>
        <time>2019-12-14T11:45:12Z</time>
      </trkpt>
      <trkpt lat="39.5414770" lon="-0.4149120">
        <ele>46.4</ele>
        <time>2019-12-14T11:45:15Z</time>
      </trkpt>
      <trkpt lat="39.5410900" lon="-0.4149090">
        <ele>46.2</ele>
        <time>2019-12-14T11:45:22Z</time>
      </trkpt>
      <trkpt lat="39.5405510" lon="-0.4146320">
        <ele>46.2</ele>
        <time>2019-12-14T11:45:31Z</time>
      </trkpt>
      <trkpt lat="39.5401300" lon="-0.4144550">
        <ele>45.6</ele>
        <time>2019-12-14T11:45:38Z</time>
      </trkpt>
      <trkpt lat="39.5395550" lon="-0.4142460">
        <ele>45.4</ele>
        <time>2019-12-14T11:45:48Z</time>
      </trkpt>
      <trkpt lat="39.5389860" lon="-0.4141120">
        <ele>45.8</ele>
        <time>2019-12-14T11:45:57Z</time>
      </trkpt>
      <trkpt lat="39.5384390" lon="-0.4139930">
        <ele>45.8</ele>
        <time>2019-12-14T11:46:05Z</time>
      </trkpt>
      <trkpt lat="39.5378750" lon="-0.4139130">
        <ele>45.6</ele>
        <time>2019-12-14T11:46:13Z</time>
      </trkpt>
      <trkpt lat="39.5375920" lon="-0.4138750">
        <ele>44.6</ele>
        <time>2019-12-14T11:46:17Z</time>
      </trkpt>
      <trkpt lat="39.5372120" lon="-0.4137880">
        <ele>43.6</ele>
        <time>2019-12-14T11:46:23Z</time>
      </trkpt>
      <trkpt lat="39.5369290" lon="-0.4137130">
        <ele>42.6</ele>
        <time>2019-12-14T11:46:29Z</time>
      </trkpt>
      <trkpt lat="39.5363450" lon="-0.4135440">
        <ele>42.0</ele>
        <time>2019-12-14T11:46:39Z</time>
      </trkpt>
      <trkpt lat="39.5361100" lon="-0.4135020">
        <ele>42.0</ele>
        <time>2019-12-14T11:46:43Z</time>
      </trkpt>
      <trkpt lat="39.5355350" lon="-0.4133580">
        <ele>42.2</ele>
        <time>2019-12-14T11:46:52Z</time>
      </trkpt>
      <trkpt lat="39.5349720" lon="-0.4131880">
        <ele>42.2</ele>
        <time>2019-12-14T11:47:01Z</time>
      </trkpt>
      <trkpt lat="39.5344290" lon="-0.4130140">
        <ele>41.8</ele>
        <time>2019-12-14T11:47:09Z</time>
      </trkpt>
      <trkpt lat="39.5339170" lon="-0.4128610">
        <ele>41.4</ele>
        <time>2019-12-14T11:47:16Z</time>
      </trkpt>
      <trkpt lat="39.5336230" lon="-0.4127710">
        <ele>40.4</ele>
        <time>2019-12-14T11:47:20Z</time>
      </trkpt>
      <trkpt lat="39.5332020" lon="-0.4126670">
        <ele>39.2</ele>
        <time>2019-12-14T11:47:26Z</time>
      </trkpt>
      <trkpt lat="39.5329190" lon="-0.4125840">
        <ele>38.0</ele>
        <time>2019-12-14T11:47:30Z</time>
      </trkpt>
      <trkpt lat="39.5324990" lon="-0.4124820">
        <ele>37.0</ele>
        <time>2019-12-14T11:47:36Z</time>
      </trkpt>
      <trkpt lat="39.5320520" lon="-0.4124750">
        <ele>35.8</ele>
        <time>2019-12-14T11:47:42Z</time>
      </trkpt>
      <trkpt lat="39.5317370" lon="-0.4124640">
        <ele>34.8</ele>
        <time>2019-12-14T11:47:48Z</time>
      </trkpt>
      <trkpt lat="39.5313400" lon="-0.4124620">
        <ele>34.4</ele>
        <time>2019-12-14T11:47:56Z</time>
      </trkpt>
      <trkpt lat="39.5307820" lon="-0.4124880">
        <ele>33.6</ele>
        <time>2019-12-14T11:48:04Z</time>
      </trkpt>
      <trkpt lat="39.5304800" lon="-0.4124860">
        <ele>32.6</ele>
        <time>2019-12-14T11:48:08Z</time>
      </trkpt>
      <trkpt lat="39.5300230" lon="-0.4124790">
        <ele>31.4</ele>
        <time>2019-12-14T11:48:14Z</time>
      </trkpt>
      <trkpt lat="39.5295180" lon="-0.4124870">
        <ele>30.4</ele>
        <time>2019-12-14T11:48:21Z</time>
      </trkpt>
      <trkpt lat="39.5289630" lon="-0.4124880">
        <ele>30.0</ele>
        <time>2019-12-14T11:48:29Z</time>
      </trkpt>
      <trkpt lat="39.5283990" lon="-0.4125060">
        <ele>29.6</ele>
        <time>2019-12-14T11:48:38Z</time>
      </trkpt>
      <trkpt lat="39.5282790" lon="-0.4125130">
        <ele>29.4</ele>
        <time>2019-12-14T11:48:40Z</time>
      </trkpt>
      <trkpt lat="39.5281070" lon="-0.4125050">
        <ele>29.0</ele>
        <time>2019-12-14T11:48:43Z</time>
      </trkpt>
      <trkpt lat="39.5279210" lon="-0.4122370">
        <ele>29.2</ele>
        <time>2019-12-14T11:48:48Z</time>
      </trkpt>
      <trkpt lat="39.5276370" lon="-0.4117000">
        <ele>28.8</ele>
        <time>2019-12-14T11:49:04Z</time>
      </trkpt>
      <trkpt lat="39.5273730" lon="-0.4116880">
        <ele>28.8</ele>
        <time>2019-12-14T11:49:09Z</time>
      </trkpt>
      <trkpt lat="39.5269490" lon="-0.4119980">
        <ele>28.4</ele>
        <time>2019-12-14T11:49:17Z</time>
      </trkpt>
      <trkpt lat="39.5267510" lon="-0.4121770">
        <ele>28.2</ele>
        <time>2019-12-14T11:49:21Z</time>
      </trkpt>
      <trkpt lat="39.5263100" lon="-0.4126200">
        <ele>27.8</ele>
        <time>2019-12-14T11:49:30Z</time>
      </trkpt>
      <trkpt lat="39.5258230" lon="-0.4130050">
        <ele>27.8</ele>
        <time>2019-12-14T11:49:39Z</time>
      </trkpt>
      <trkpt lat="39.5253350" lon="-0.4133690">
        <ele>27.6</ele>
        <time>2019-12-14T11:49:48Z</time>
      </trkpt>
      <trkpt lat="39.5248800" lon="-0.4138720">
        <ele>27.6</ele>
        <time>2019-12-14T11:49:58Z</time>
      </trkpt>
      <trkpt lat="39.5244660" lon="-0.4143820">
        <ele>27.8</ele>
        <time>2019-12-14T11:50:08Z</time>
      </trkpt>
      <trkpt lat="39.5241250" lon="-0.4147540">
        <ele>28.4</ele>
        <time>2019-12-14T11:50:16Z</time>
      </trkpt>
      <trkpt lat="39.5238370" lon="-0.4150330">
        <ele>28.6</ele>
        <time>2019-12-14T11:50:23Z</time>
      </trkpt>
      <trkpt lat="39.5237740" lon="-0.4151250">
        <ele>28.6</ele>
        <time>2019-12-14T11:50:25Z</time>
      </trkpt>
      <trkpt lat="39.5236680" lon="-0.4152360">
        <ele>28.8</ele>
        <time>2019-12-14T11:50:29Z</time>
      </trkpt>
      <trkpt lat="39.5236190" lon="-0.4152860">
        <ele>28.8</ele>
        <time>2019-12-14T11:50:33Z</time>
      </trkpt>
      <trkpt lat="39.5235700" lon="-0.4153440">
        <ele>29.0</ele>
        <time>2019-12-14T11:50:35Z</time>
      </trkpt>
      <trkpt lat="39.5235340" lon="-0.4153710">
        <ele>29.2</ele>
        <time>2019-12-14T11:50:36Z</time>
      </trkpt>
      <trkpt lat="39.5233460" lon="-0.4154160">
        <ele>30.2</ele>
        <time>2019-12-14T11:50:40Z</time>
      </trkpt>
      <trkpt lat="39.5230020" lon="-0.4153840">
        <ele>30.4</ele>
        <time>2019-12-14T11:50:46Z</time>
      </trkpt>
      <trkpt lat="39.5225650" lon="-0.4151630">
        <ele>30.2</ele>
        <time>2019-12-14T11:50:53Z</time>
      </trkpt>
      <trkpt lat="39.5220190" lon="-0.4149210">
        <ele>29.8</ele>
        <time>2019-12-14T11:51:01Z</time>
      </trkpt>
      <trkpt lat="39.5214520" lon="-0.4146750">
        <ele>29.8</ele>
        <time>2019-12-14T11:51:09Z</time>
      </trkpt>
      <trkpt lat="39.5208880" lon="-0.4144090">
        <ele>29.8</ele>
        <time>2019-12-14T11:51:17Z</time>
      </trkpt>
      <trkpt lat="39.5203630" lon="-0.4141760">
        <ele>29.4</ele>
        <time>2019-12-14T11:51:25Z</time>
      </trkpt>
      <trkpt lat="39.5199030" lon="-0.4139700">
        <ele>29.4</ele>
        <time>2019-12-14T11:51:33Z</time>
      </trkpt>
      <trkpt lat="39.5197340" lon="-0.4139730">
        <ele>29.2</ele>
        <time>2019-12-14T11:51:36Z</time>
      </trkpt>
      <trkpt lat="39.5194370" lon="-0.4138960">
        <ele>29.2</ele>
        <time>2019-12-14T11:51:41Z</time>
      </trkpt>
      <trkpt lat="39.5188840" lon="-0.4137900">
        <ele>29.0</ele>
        <time>2019-12-14T11:51:50Z</time>
      </trkpt>
      <trkpt lat="39.5186400" lon="-0.4137190">
        <ele>29.2</ele>
        <time>2019-12-14T11:51:54Z</time>
      </trkpt>
      <trkpt lat="39.5183170" lon="-0.4140910">
        <ele>29.4</ele>
        <time>2019-12-14T11:53:39Z</time>
      </trkpt>
      <trkpt lat="39.5182100" lon="-0.4144920">
        <ele>29.6</ele>
        <time>2019-12-14T11:53:45Z</time>
      </trkpt>
      <trkpt lat="39.5178430" lon="-0.4144450">
        <ele>29.8</ele>
        <time>2019-12-14T11:53:52Z</time>
      </trkpt>
      <trkpt lat="39.5174750" lon="-0.4142600">
        <ele>30.6</ele>
        <time>2019-12-14T11:53:58Z</time>
      </trkpt>
      <trkpt lat="39.5172370" lon="-0.4141470">
        <ele>31.6</ele>
        <time>2019-12-14T11:54:02Z</time>
      </trkpt>
      <trkpt lat="39.5169850" lon="-0.4140460">
        <ele>32.8</ele>
        <time>2019-12-14T11:54:06Z</time>
      </trkpt>
      <trkpt lat="39.5164440" lon="-0.4137770">
        <ele>33.2</ele>
        <time>2019-12-14T11:54:15Z</time>
      </trkpt>
      <trkpt lat="39.5161430" lon="-0.4141130">
        <ele>33.0</ele>
        <time>2019-12-14T11:54:22Z</time>
      </trkpt>
      <trkpt lat="39.5160550" lon="-0.4145580">
        <ele>32.8</ele>
        <time>2019-12-14T11:54:27Z</time>
      </trkpt>
      <trkpt lat="39.5160110" lon="-0.4148380">
        <ele>32.8</ele>
        <time>2019-12-14T11:54:31Z</time>
      </trkpt>
      <trkpt lat="39.5159420" lon="-0.4150410">
        <ele>32.8</ele>
        <time>2019-12-14T11:54:35Z</time>
      </trkpt>
      <trkpt lat="39.5159130" lon="-0.4151880">
        <ele>33.8</ele>
        <time>2019-12-14T11:54:38Z</time>
      </trkpt>
      <trkpt lat="39.5158730" lon="-0.4153370">
        <ele>35.4</ele>
        <time>2019-12-14T11:54:41Z</time>
      </trkpt>
      <trkpt lat="39.5158390" lon="-0.4154340">
        <ele>36.2</ele>
        <time>2019-12-14T11:54:43Z</time>
      </trkpt>
      <trkpt lat="39.5158290" lon="-0.4154840">
        <ele>36.6</ele>
        <time>2019-12-14T11:54:44Z</time>
      </trkpt>
      <trkpt lat="39.5158160" lon="-0.4155890">
        <ele>38.0</ele>
        <time>2019-12-14T11:54:46Z</time>
      </trkpt>
      <trkpt lat="39.5157870" lon="-0.4157990">
        <ele>39.2</ele>
        <time>2019-12-14T11:54:50Z</time>
      </trkpt>
      <trkpt lat="39.5157560" lon="-0.4159380">
        <ele>40.4</ele>
        <time>2019-12-14T11:54:53Z</time>
      </trkpt>
      <trkpt lat="39.5157710" lon="-0.4160230">
        <ele>41.8</ele>
        <time>2019-12-14T11:54:55Z</time>
      </trkpt>
      <trkpt lat="39.5157840" lon="-0.4161320">
        <ele>43.2</ele>
        <time>2019-12-14T11:54:58Z</time>
      </trkpt>
      <trkpt lat="39.5157980" lon="-0.4161630">
        <ele>43.6</ele>
        <time>2019-12-14T11:54:59Z</time>
      </trkpt>
      <trkpt lat="39.5158260" lon="-0.4161920">
        <ele>44.6</ele>
        <time>2019-12-14T11:55:01Z</time>
      </trkpt>
      <trkpt lat="39.5158360" lon="-0.4162260">
        <ele>45.4</ele>
        <time>2019-12-14T11:55:03Z</time>
      </trkpt>
      <trkpt lat="39.5158320" lon="-0.4162450">
        <ele>45.6</ele>
        <time>2019-12-14T11:55:04Z</time>
      </trkpt>
      <trkpt lat="39.5158290" lon="-0.4162590">
        <ele>45.8</ele>
        <time>2019-12-14T11:55:05Z</time>
      </trkpt>
      <trkpt lat="39.653009" lon="-0.427544">
        <ele>203.994</ele>
        <time>2014-10-18T06:11:26Z</time>
      </trkpt>
      <trkpt lat="39.655017" lon="-0.425735">
        <ele>210.757</ele>
        <time>2014-10-18T06:12:34Z</time>
      </trkpt>
      <trkpt lat="39.656286" lon="-0.423451">
        <ele>211.222</ele>
        <time>2014-10-18T06:13:25Z</time>
      </trkpt>
      <trkpt lat="39.657167" lon="-0.422868">
        <ele>214.007</ele>
        <time>2014-10-18T06:13:50Z</time>
      </trkpt>
      <trkpt lat="39.657433" lon="-0.422993">
        <ele>214.047</ele>
        <time>2014-10-18T06:13:56Z</time>
      </trkpt>
      <trkpt lat="39.657841" lon="-0.423769">
        <ele>214.089</ele>
        <time>2014-10-18T06:14:12Z</time>
      </trkpt>
      <trkpt lat="39.658683" lon="-0.423887">
        <ele>217.925</ele>
        <time>2014-10-18T06:14:36Z</time>
      </trkpt>
      <trkpt lat="39.658799" lon="-0.424455">
        <ele>219.873</ele>
        <time>2014-10-18T06:14:50Z</time>
      </trkpt>
      <trkpt lat="39.658731" lon="-0.425235">
        <ele>220.840</ele>
        <time>2014-10-18T06:15:10Z</time>
      </trkpt>
      <trkpt lat="39.658867" lon="-0.425592">
        <ele>221.226</ele>
        <time>2014-10-18T06:15:18Z</time>
      </trkpt>
      <trkpt lat="39.659787" lon="-0.426608">
        <ele>225.167</ele>
        <time>2014-10-18T06:15:54Z</time>
      </trkpt>
      <trkpt lat="39.660088" lon="-0.426785">
        <ele>225.672</ele>
        <time>2014-10-18T06:16:04Z</time>
      </trkpt>
      <trkpt lat="39.661859" lon="-0.426554">
        <ele>227.513</ele>
        <time>2014-10-18T06:17:02Z</time>
      </trkpt>
      <trkpt lat="39.661976" lon="-0.426358">
        <ele>228.014</ele>
        <time>2014-10-18T06:18:12Z</time>
      </trkpt>
      <trkpt lat="39.661854" lon="-0.425223">
        <ele>227.007</ele>
        <time>2014-10-18T06:18:31Z</time>
      </trkpt>
      <trkpt lat="39.661438" lon="-0.424594">
        <ele>227.085</ele>
        <time>2014-10-18T06:18:44Z</time>
      </trkpt>
      <trkpt lat="39.661600" lon="-0.424386">
        <ele>227.057</ele>
        <time>2014-10-18T06:18:49Z</time>
      </trkpt>
      <trkpt lat="39.662184" lon="-0.424429">
        <ele>235.263</ele>
        <time>2014-10-18T06:19:09Z</time>
      </trkpt>
      <trkpt lat="39.662622" lon="-0.424242">
        <ele>241.451</ele>
        <time>2014-10-18T06:19:35Z</time>
      </trkpt>
      <trkpt lat="39.663505" lon="-0.422967">
        <ele>252.048</ele>
        <time>2014-10-18T06:20:37Z</time>
      </trkpt>
      <trkpt lat="39.664681" lon="-0.422108">
        <ele>253.974</ele>
        <time>2014-10-18T06:21:22Z</time>
      </trkpt>
      <trkpt lat="39.665409" lon="-0.421807">
        <ele>250.685</ele>
        <time>2014-10-18T06:21:41Z</time>
      </trkpt>
      <trkpt lat="39.665669" lon="-0.421500">
        <ele>247.788</ele>
        <time>2014-10-18T06:21:48Z</time>
      </trkpt>
      <trkpt lat="39.665444" lon="-0.420347">
        <ele>241.924</ele>
        <time>2014-10-18T06:22:06Z</time>
      </trkpt>
      <trkpt lat="39.665627" lon="-0.419954">
        <ele>243.426</ele>
        <time>2014-10-18T06:22:19Z</time>
      </trkpt>
      <trkpt lat="39.666543" lon="-0.419892">
        <ele>247.707</ele>
        <time>2014-10-18T06:22:54Z</time>
      </trkpt>
      <trkpt lat="39.667735" lon="-0.418891">
        <ele>253.026</ele>
        <time>2014-10-18T06:24:23Z</time>
      </trkpt>
      <trkpt lat="39.667849" lon="-0.418525">
        <ele>253.968</ele>
        <time>2014-10-18T06:24:34Z</time>
      </trkpt>
      <trkpt lat="39.668393" lon="-0.418442">
        <ele>255.434</ele>
        <time>2014-10-18T06:25:12Z</time>
      </trkpt>
      <trkpt lat="39.668504" lon="-0.418186">
        <ele>255.492</ele>
        <time>2014-10-18T06:25:22Z</time>
      </trkpt>
      <trkpt lat="39.668843" lon="-0.417966">
        <ele>262.679</ele>
        <time>2014-10-18T06:25:52Z</time>
      </trkpt>
      <trkpt lat="39.670007" lon="-0.417952">
        <ele>272.785</ele>
        <time>2014-10-18T06:27:00Z</time>
      </trkpt>
      <trkpt lat="39.670156" lon="-0.418112">
        <ele>272.296</ele>
        <time>2014-10-18T06:27:10Z</time>
      </trkpt>
      <trkpt lat="39.670072" lon="-0.419772">
        <ele>274.671</ele>
        <time>2014-10-18T06:28:03Z</time>
      </trkpt>
      <trkpt lat="39.670440" lon="-0.420424">
        <ele>274.141</ele>
        <time>2014-10-18T06:28:22Z</time>
      </trkpt>
      <trkpt lat="39.670504" lon="-0.420955">
        <ele>267.915</ele>
        <time>2014-10-18T06:28:34Z</time>
      </trkpt>
      <trkpt lat="39.670598" lon="-0.421066">
        <ele>267.407</ele>
        <time>2014-10-18T06:28:41Z</time>
      </trkpt>
      <trkpt lat="39.671620" lon="-0.421080">
        <ele>273.655</ele>
        <time>2014-10-18T06:30:20Z</time>
      </trkpt>
      <trkpt lat="39.672196" lon="-0.420926">
        <ele>278.987</ele>
        <time>2014-10-18T06:30:43Z</time>
      </trkpt>
      <trkpt lat="39.672917" lon="-0.419540">
        <ele>283.393</ele>
        <time>2014-10-18T06:31:41Z</time>
      </trkpt>
      <trkpt lat="39.673987" lon="-0.419381">
        <ele>285.711</ele>
        <time>2014-10-18T06:32:19Z</time>
      </trkpt>
      <trkpt lat="39.674243" lon="-0.419227">
        <ele>286.668</ele>
        <time>2014-10-18T06:32:30Z</time>
      </trkpt>
      <trkpt lat="39.675352" lon="-0.418043">
        <ele>293.324</ele>
        <time>2014-10-18T06:33:33Z</time>
      </trkpt>
      <trkpt lat="39.675706" lon="-0.417855">
        <ele>296.235</ele>
        <time>2014-10-18T06:33:55Z</time>
      </trkpt>
      <trkpt lat="39.676241" lon="-0.417982">
        <ele>300.196</ele>
        <time>2014-10-18T06:34:27Z</time>
      </trkpt>
      <trkpt lat="39.676229" lon="-0.417029">
        <ele>310.231</ele>
        <time>2014-10-18T06:35:18Z</time>
      </trkpt>
      <trkpt lat="39.675292" lon="-0.416632">
        <ele>317.424</ele>
        <time>2014-10-18T06:36:45Z</time>
      </trkpt>
      <trkpt lat="39.675899" lon="-0.416488">
        <ele>324.607</ele>
        <time>2014-10-18T06:37:38Z</time>
      </trkpt>
      <trkpt lat="39.676280" lon="-0.415981">
        <ele>328.927</ele>
        <time>2014-10-18T06:37:58Z</time>
      </trkpt>
      <trkpt lat="39.676458" lon="-0.414903">
        <ele>334.749</ele>
        <time>2014-10-18T06:38:44Z</time>
      </trkpt>
      <trkpt lat="39.676886" lon="-0.413937">
        <ele>341.995</ele>
        <time>2014-10-18T06:39:33Z</time>
      </trkpt>
      <trkpt lat="39.676956" lon="-0.412768">
        <ele>350.143</ele>
        <time>2014-10-18T06:40:46Z</time>
      </trkpt>
      <trkpt lat="39.677571" lon="-0.411589">
        <ele>360.670</ele>
        <time>2014-10-18T06:41:54Z</time>
      </trkpt>
      <trkpt lat="39.677948" lon="-0.410421">
        <ele>370.286</ele>
        <time>2014-10-18T06:42:51Z</time>
      </trkpt>
      <trkpt lat="39.677347" lon="-0.410760">
        <ele>377.527</ele>
        <time>2014-10-18T06:43:31Z</time>
      </trkpt>
      <trkpt lat="39.677117" lon="-0.410667">
        <ele>377.521</ele>
        <time>2014-10-18T06:43:41Z</time>
      </trkpt>
      <trkpt lat="39.676881" lon="-0.409607">
        <ele>377.941</ele>
        <time>2014-10-18T06:44:13Z</time>
      </trkpt>
      <trkpt lat="39.676932" lon="-0.407031">
        <ele>391.905</ele>
        <time>2014-10-18T06:45:49Z</time>
      </trkpt>
      <trkpt lat="39.676403" lon="-0.405745">
        <ele>400.507</ele>
        <time>2014-10-18T06:46:48Z</time>
      </trkpt>
      <trkpt lat="39.676057" lon="-0.405562">
        <ele>402.070</ele>
        <time>2014-10-18T06:47:07Z</time>
      </trkpt>
      <trkpt lat="39.675057" lon="-0.405922">
        <ele>410.132</ele>
        <time>2014-10-18T06:48:09Z</time>
      </trkpt>
      <trkpt lat="39.674628" lon="-0.406318">
        <ele>415.458</ele>
        <time>2014-10-18T06:48:44Z</time>
      </trkpt>
      <trkpt lat="39.674489" lon="-0.406144">
        <ele>417.836</ele>
        <time>2014-10-18T06:50:30Z</time>
      </trkpt>
      <trkpt lat="39.675646" lon="-0.404298">
        <ele>444.843</ele>
        <time>2014-10-18T06:52:38Z</time>
      </trkpt>
      <trkpt lat="39.676402" lon="-0.403681">
        <ele>446.799</ele>
        <time>2014-10-18T06:53:19Z</time>
      </trkpt>
      <trkpt lat="39.677137" lon="-0.403527">
        <ele>436.670</ele>
        <time>2014-10-18T06:53:38Z</time>
      </trkpt>
      <trkpt lat="39.677877" lon="-0.403744">
        <ele>430.879</ele>
        <time>2014-10-18T06:53:52Z</time>
      </trkpt>
      <trkpt lat="39.678265" lon="-0.403699">
        <ele>426.505</ele>
        <time>2014-10-18T06:53:59Z</time>
      </trkpt>
      <trkpt lat="39.679016" lon="-0.404314">
        <ele>417.425</ele>
        <time>2014-10-18T06:54:17Z</time>
      </trkpt>
      <trkpt lat="39.679403" lon="-0.403991">
        <ele>413.507</ele>
        <time>2014-10-18T06:54:26Z</time>
      </trkpt>
      <trkpt lat="39.679315" lon="-0.403872">
        <ele>411.665</ele>
        <time>2014-10-18T06:55:15Z</time>
      </trkpt>
      <trkpt lat="39.678882" lon="-0.404035">
        <ele>409.727</ele>
        <time>2014-10-18T06:55:32Z</time>
      </trkpt>
      <trkpt lat="39.678795" lon="-0.403828">
        <ele>408.733</ele>
        <time>2014-10-18T06:55:40Z</time>
      </trkpt>
      <trkpt lat="39.679030" lon="-0.403897">
        <ele>404.981</ele>
        <time>2014-10-18T06:56:26Z</time>
      </trkpt>
      <trkpt lat="39.679141" lon="-0.403700">
        <ele>402.088</ele>
        <time>2014-10-18T06:56:31Z</time>
      </trkpt>
      <trkpt lat="39.679370" lon="-0.402277">
        <ele>388.034</ele>
        <time>2014-10-18T06:56:54Z</time>
      </trkpt>
      <trkpt lat="39.678149" lon="-0.400372">
        <ele>418.335</ele>
        <time>2014-10-18T06:59:43Z</time>
      </trkpt>
      <trkpt lat="39.677277" lon="-0.398533">
        <ele>419.846</ele>
        <time>2014-10-18T07:01:06Z</time>
      </trkpt>
      <trkpt lat="39.677292" lon="-0.396873">
        <ele>427.488</ele>
        <time>2014-10-18T07:02:13Z</time>
      </trkpt>
      <trkpt lat="39.676602" lon="-0.396768">
        <ele>433.216</ele>
        <time>2014-10-18T07:03:05Z</time>
      </trkpt>
      <trkpt lat="39.676491" lon="-0.396477">
        <ele>437.107</ele>
        <time>2014-10-18T07:03:39Z</time>
      </trkpt>
      <trkpt lat="39.676760" lon="-0.395124">
        <ele>449.162</ele>
        <time>2014-10-18T07:04:55Z</time>
      </trkpt>
      <trkpt lat="39.677344" lon="-0.395021">
        <ele>449.154</ele>
        <time>2014-10-18T07:05:24Z</time>
      </trkpt>
      <trkpt lat="39.678431" lon="-0.394048">
        <ele>452.450</ele>
        <time>2014-10-18T07:06:20Z</time>
      </trkpt>
      <trkpt lat="39.678623" lon="-0.393407">
        <ele>451.078</ele>
        <time>2014-10-18T07:06:33Z</time>
      </trkpt>
      <trkpt lat="39.678632" lon="-0.392366">
        <ele>451.055</ele>
        <time>2014-10-18T07:06:57Z</time>
      </trkpt>
      <trkpt lat="39.679461" lon="-0.391521">
        <ele>454.861</ele>
        <time>2014-10-18T07:07:30Z</time>
      </trkpt>
      <trkpt lat="39.679339" lon="-0.391219">
        <ele>455.332</ele>
        <time>2014-10-18T07:07:40Z</time>
      </trkpt>
      <trkpt lat="39.679529" lon="-0.390638">
        <ele>456.378</ele>
        <time>2014-10-18T07:07:59Z</time>
      </trkpt>
      <trkpt lat="39.680125" lon="-0.390438">
        <ele>453.933</ele>
        <time>2014-10-18T07:09:33Z</time>
      </trkpt>
      <trkpt lat="39.679672" lon="-0.390281">
        <ele>448.126</ele>
        <time>2014-10-18T07:10:01Z</time>
      </trkpt>
      <trkpt lat="39.678938" lon="-0.390384">
        <ele>435.107</ele>
        <time>2014-10-18T07:11:05Z</time>
      </trkpt>
      <trkpt lat="39.678708" lon="-0.390785">
        <ele>430.895</ele>
        <time>2014-10-18T07:12:05Z</time>
      </trkpt>
      <trkpt lat="39.678574" lon="-0.391647">
        <ele>431.827</ele>
        <time>2014-10-18T07:12:52Z</time>
      </trkpt>
      <trkpt lat="39.678298" lon="-0.391819">
        <ele>425.243</ele>
        <time>2019-12-20T13:50:41Z</time>
      </trkpt>
      <trkpt lat="39.677955" lon="-0.391715">
        <ele>420.231</ele>
        <time>2019-12-20T13:50:51Z</time>
      </trkpt>
      <trkpt lat="39.677185" lon="-0.390653">
        <ele>410.688</ele>
        <time>2014-10-18T07:15:06Z</time>
      </trkpt>
      <trkpt lat="39.676820" lon="-0.390432">
        <ele>407.774</ele>
        <time>2014-10-18T07:15:24Z</time>
      </trkpt>
      <trkpt lat="39.676194" lon="-0.388814">
        <ele>386.145</ele>
        <time>2014-10-18T07:16:31Z</time>
      </trkpt>
      <trkpt lat="39.675001" lon="-0.388135">
        <ele>375.544</ele>
        <time>2014-10-18T07:17:00Z</time>
      </trkpt>
      <trkpt lat="39.674016" lon="-0.386946">
        <ele>362.105</ele>
        <time>2014-10-18T07:17:42Z</time>
      </trkpt>
      <trkpt lat="39.673171" lon="-0.386364">
        <ele>366.415</ele>
        <time>2014-10-18T07:18:33Z</time>
      </trkpt>
      <trkpt lat="39.672613" lon="-0.386432">
        <ele>375.107</ele>
        <time>2014-10-18T07:19:06Z</time>
      </trkpt>
      <trkpt lat="39.672315" lon="-0.386776">
        <ele>377.962</ele>
        <time>2014-10-18T07:19:31Z</time>
      </trkpt>
      <trkpt lat="39.672214" lon="-0.386747">
        <ele>378.944</ele>
        <time>2014-10-18T07:19:38Z</time>
      </trkpt>
      <trkpt lat="39.672341" lon="-0.386551">
        <ele>382.320</ele>
        <time>2014-10-18T07:19:52Z</time>
      </trkpt>
      <trkpt lat="39.672050" lon="-0.386631">
        <ele>386.188</ele>
        <time>2014-10-18T07:20:17Z</time>
      </trkpt>
      <trkpt lat="39.671461" lon="-0.386297">
        <ele>390.095</ele>
        <time>2014-10-18T07:20:59Z</time>
      </trkpt>
      <trkpt lat="39.671766" lon="-0.385705">
        <ele>388.521</ele>
        <time>2014-10-18T07:21:25Z</time>
      </trkpt>
      <trkpt lat="39.671693" lon="-0.385222">
        <ele>387.692</ele>
        <time>2014-10-18T07:21:35Z</time>
      </trkpt>
      <trkpt lat="39.671438" lon="-0.384889">
        <ele>389.061</ele>
        <time>2014-10-18T07:21:49Z</time>
      </trkpt>
      <trkpt lat="39.671290" lon="-0.384350">
        <ele>388.021</ele>
        <time>2014-10-18T07:22:05Z</time>
      </trkpt>
      <trkpt lat="39.669529" lon="-0.382065">
        <ele>385.613</ele>
        <time>2014-10-18T07:23:23Z</time>
      </trkpt>
      <trkpt lat="39.668980" lon="-0.381722">
        <ele>382.307</ele>
        <time>2014-10-18T07:23:45Z</time>
      </trkpt>
      <trkpt lat="39.668619" lon="-0.381300">
        <ele>376.534</ele>
        <time>2014-10-18T07:23:58Z</time>
      </trkpt>
      <trkpt lat="39.668906" lon="-0.380917">
        <ele>384.296</ele>
        <time>2014-10-18T07:24:23Z</time>
      </trkpt>
      <trkpt lat="39.669127" lon="-0.378834">
        <ele>392.852</ele>
        <time>2014-10-18T07:25:45Z</time>
      </trkpt>
      <trkpt lat="39.669680" lon="-0.378170">
        <ele>395.220</ele>
        <time>2014-10-18T07:26:17Z</time>
      </trkpt>
      <trkpt lat="39.670247" lon="-0.376554">
        <ele>401.027</ele>
        <time>2014-10-18T07:27:18Z</time>
      </trkpt>
      <trkpt lat="39.670240" lon="-0.375330">
        <ele>407.773</ele>
        <time>2014-10-18T07:28:03Z</time>
      </trkpt>
      <trkpt lat="39.670771" lon="-0.374346">
        <ele>403.434</ele>
        <time>2014-10-18T07:28:30Z</time>
      </trkpt>
      <trkpt lat="39.671356" lon="-0.373905">
        <ele>404.419</ele>
        <time>2014-10-18T07:28:51Z</time>
      </trkpt>
      <trkpt lat="39.671306" lon="-0.373317">
        <ele>403.909</ele>
        <time>2014-10-18T07:29:08Z</time>
      </trkpt>
      <trkpt lat="39.671090" lon="-0.372959">
        <ele>399.119</ele>
        <time>2014-10-18T07:29:19Z</time>
      </trkpt>
      <trkpt lat="39.671158" lon="-0.372298">
        <ele>400.507</ele>
        <time>2014-10-18T07:29:38Z</time>
      </trkpt>
      <trkpt lat="39.671029" lon="-0.371941">
        <ele>402.579</ele>
        <time>2014-10-18T07:29:51Z</time>
      </trkpt>
      <trkpt lat="39.671489" lon="-0.370331">
        <ele>408.791</ele>
        <time>2014-10-18T07:31:07Z</time>
      </trkpt>
      <trkpt lat="39.671257" lon="-0.369612">
        <ele>403.927</ele>
        <time>2014-10-18T07:31:25Z</time>
      </trkpt>
      <trkpt lat="39.671521" lon="-0.368197">
        <ele>402.515</ele>
        <time>2014-10-18T07:32:00Z</time>
      </trkpt>
      <trkpt lat="39.671751" lon="-0.367637">
        <ele>398.122</ele>
        <time>2014-10-18T07:32:12Z</time>
      </trkpt>
      <trkpt lat="39.672705" lon="-0.367465">
        <ele>393.838</ele>
        <time>2014-10-18T07:32:33Z</time>
      </trkpt>
      <trkpt lat="39.673131" lon="-0.367048">
        <ele>396.229</ele>
        <time>2014-10-18T07:32:48Z</time>
      </trkpt>
      <trkpt lat="39.673965" lon="-0.365676">
        <ele>397.252</ele>
        <time>2014-10-18T07:33:26Z</time>
      </trkpt>
      <trkpt lat="39.675484" lon="-0.364975">
        <ele>389.553</ele>
        <time>2014-10-18T07:33:57Z</time>
      </trkpt>
      <trkpt lat="39.676335" lon="-0.364236">
        <ele>383.708</ele>
        <time>2014-10-18T07:34:15Z</time>
      </trkpt>
      <trkpt lat="39.676662" lon="-0.363726">
        <ele>380.307</ele>
        <time>2014-10-18T07:34:28Z</time>
      </trkpt>
      <trkpt lat="39.676931" lon="-0.363871">
        <ele>379.463</ele>
        <time>2014-10-18T07:34:44Z</time>
      </trkpt>
      <trkpt lat="39.678859" lon="-0.364066">
        <ele>344.375</ele>
        <time>2014-10-18T07:35:44Z</time>
      </trkpt>
      <trkpt lat="39.679284" lon="-0.364786">
        <ele>328.051</ele>
        <time>2014-10-18T07:36:08Z</time>
      </trkpt>
      <trkpt lat="39.679631" lon="-0.365064">
        <ele>320.729</ele>
        <time>2014-10-18T07:36:19Z</time>
      </trkpt>
      <trkpt lat="39.680022" lon="-0.365044">
        <ele>315.586</ele>
        <time>2014-10-18T07:36:40Z</time>
      </trkpt>
      <trkpt lat="39.680609" lon="-0.364626">
        <ele>305.872</ele>
        <time>2014-10-18T07:37:51Z</time>
      </trkpt>
      <trkpt lat="39.681774" lon="-0.364436">
        <ele>286.663</ele>
        <time>2014-10-18T07:40:38Z</time>
      </trkpt>
      <trkpt lat="39.682044" lon="-0.364198">
        <ele>280.883</ele>
        <time>2014-10-18T07:40:50Z</time>
      </trkpt>
      <trkpt lat="39.682851" lon="-0.362756">
        <ele>259.725</ele>
        <time>2014-10-18T07:42:33Z</time>
      </trkpt>
      <trkpt lat="39.682692" lon="-0.362297">
        <ele>253.917</ele>
        <time>2014-10-18T07:44:10Z</time>
      </trkpt>
      <trkpt lat="39.682900" lon="-0.362383">
        <ele>248.607</ele>
        <time>2014-10-18T07:45:41Z</time>
      </trkpt>
      <trkpt lat="39.683946" lon="-0.361491">
        <ele>237.156</ele>
        <time>2014-10-18T07:46:19Z</time>
      </trkpt>
      <trkpt lat="39.684404" lon="-0.361263">
        <ele>240.518</ele>
        <time>2014-10-18T07:47:04Z</time>
      </trkpt>
      <trkpt lat="39.684580" lon="-0.360910">
        <ele>238.124</ele>
        <time>2014-10-18T07:47:32Z</time>
      </trkpt>
      <trkpt lat="39.684656" lon="-0.360154">
        <ele>241.052</ele>
        <time>2014-10-18T07:49:32Z</time>
      </trkpt>
      <trkpt lat="39.685184" lon="-0.359259">
        <ele>228.579</ele>
        <time>2014-10-18T07:50:06Z</time>
      </trkpt>
      <trkpt lat="39.685760" lon="-0.359604">
        <ele>216.415</ele>
        <time>2014-10-18T07:50:34Z</time>
      </trkpt>
      <trkpt lat="39.685895" lon="-0.359340">
        <ele>213.176</ele>
        <time>2014-10-18T07:50:46Z</time>
      </trkpt>
      <trkpt lat="39.686379" lon="-0.359186">
        <ele>209.211</ele>
        <time>2014-10-18T07:51:06Z</time>
      </trkpt>
      <trkpt lat="39.686649" lon="-0.358755">
        <ele>202.521</ele>
        <time>2014-10-18T07:51:23Z</time>
      </trkpt>
      <trkpt lat="39.687297" lon="-0.358284">
        <ele>191.003</ele>
        <time>2014-10-18T07:51:54Z</time>
      </trkpt>
      <trkpt lat="39.687586" lon="-0.357788">
        <ele>186.607</ele>
        <time>2014-10-18T07:52:08Z</time>
      </trkpt>
      <trkpt lat="39.687982" lon="-0.357652">
        <ele>187.669</ele>
        <time>2014-10-18T07:52:25Z</time>
      </trkpt>
      <trkpt lat="39.688521" lon="-0.357749">
        <ele>183.821</ele>
        <time>2014-10-18T07:52:38Z</time>
      </trkpt>
      <trkpt lat="39.689202" lon="-0.358208">
        <ele>170.537</ele>
        <time>2019-12-20T14:01:41Z</time>
      </trkpt>
      <trkpt lat="39.689350" lon="-0.358130">
        <ele>173.755</ele>
        <time>2014-10-18T07:52:52Z</time>
      </trkpt>
      <trkpt lat="39.690094" lon="-0.357023">
        <ele>168.912</ele>
        <time>2014-10-18T07:53:09Z</time>
      </trkpt>
      <trkpt lat="39.690448" lon="-0.356976">
        <ele>170.898</ele>
        <time>2014-10-18T07:53:31Z</time>
      </trkpt>
      <trkpt lat="39.691267" lon="-0.356234">
        <ele>166.059</ele>
        <time>2014-10-18T07:54:10Z</time>
      </trkpt>
      <trkpt lat="39.691901" lon="-0.354699">
        <ele>158.312</ele>
        <time>2014-10-18T07:54:34Z</time>
      </trkpt>
      <trkpt lat="39.691761" lon="-0.354084">
        <ele>156.832</ele>
        <time>2014-10-18T07:54:40Z</time>
      </trkpt>
      <trkpt lat="39.691202" lon="-0.353184">
        <ele>155.905</ele>
        <time>2014-10-18T07:54:52Z</time>
      </trkpt>
      <trkpt lat="39.691415" lon="-0.351384">
        <ele>150.107</ele>
        <time>2014-10-18T07:55:15Z</time>
      </trkpt>
      <trkpt lat="39.691059" lon="-0.351183">
        <ele>148.759</ele>
        <time>2014-10-18T07:55:25Z</time>
      </trkpt>
      <trkpt lat="39.690680" lon="-0.351721">
        <ele>145.851</ele>
        <time>2014-10-18T07:55:35Z</time>
      </trkpt>
      <trkpt lat="39.689595" lon="-0.351837">
        <ele>153.567</ele>
        <time>2014-10-18T07:56:27Z</time>
      </trkpt>
      <trkpt lat="39.688905" lon="-0.351717">
        <ele>158.335</ele>
        <time>2014-10-18T07:57:06Z</time>
      </trkpt>
      <trkpt lat="39.688555" lon="-0.351182">
        <ele>161.612</ele>
        <time>2014-10-18T07:57:36Z</time>
      </trkpt>
      <trkpt lat="39.688638" lon="-0.350058">
        <ele>169.388</ele>
        <time>2014-10-18T07:58:25Z</time>
      </trkpt>
      <trkpt lat="39.688190" lon="-0.348679">
        <ele>178.039</ele>
        <time>2014-10-18T07:59:19Z</time>
      </trkpt>
      <trkpt lat="39.688286" lon="-0.348086">
        <ele>182.327</ele>
        <time>2014-10-18T07:59:51Z</time>
      </trkpt>
      <trkpt lat="39.687801" lon="-0.347265">
        <ele>193.468</ele>
        <time>2014-10-18T08:00:54Z</time>
      </trkpt>
      <trkpt lat="39.687763" lon="-0.346554">
        <ele>198.214</ele>
        <time>2014-10-18T08:01:33Z</time>
      </trkpt>
      <trkpt lat="39.687596" lon="-0.346200">
        <ele>203.007</ele>
        <time>2014-10-18T08:02:00Z</time>
      </trkpt>
      <trkpt lat="39.687332" lon="-0.346148">
        <ele>204.910</ele>
        <time>2014-10-18T08:02:21Z</time>
      </trkpt>
      <trkpt lat="39.687151" lon="-0.345559">
        <ele>213.152</ele>
        <time>2014-10-18T08:03:04Z</time>
      </trkpt>
      <trkpt lat="39.686626" lon="-0.346188">
        <ele>216.978</ele>
        <time>2014-10-18T08:03:44Z</time>
      </trkpt>
      <trkpt lat="39.685729" lon="-0.346684">
        <ele>225.136</ele>
        <time>2014-10-18T08:04:46Z</time>
      </trkpt>
      <trkpt lat="39.685813" lon="-0.347484">
        <ele>232.333</ele>
        <time>2014-10-18T08:05:32Z</time>
      </trkpt>
      <trkpt lat="39.685401" lon="-0.347443">
        <ele>238.599</ele>
        <time>2014-10-18T08:06:06Z</time>
      </trkpt>
      <trkpt lat="39.684739" lon="-0.347883">
        <ele>247.780</ele>
        <time>2014-10-18T08:07:01Z</time>
      </trkpt>
      <trkpt lat="39.684082" lon="-0.348731">
        <ele>261.145</ele>
        <time>2014-10-18T08:08:16Z</time>
      </trkpt>
      <trkpt lat="39.683144" lon="-0.349497">
        <ele>268.847</ele>
        <time>2014-10-18T08:09:44Z</time>
      </trkpt>
      <trkpt lat="39.683293" lon="-0.350066">
        <ele>271.211</ele>
        <time>2014-10-18T08:10:19Z</time>
      </trkpt>
      <trkpt lat="39.682967" lon="-0.350598">
        <ele>273.607</ele>
        <time>2014-10-18T08:10:47Z</time>
      </trkpt>
      <trkpt lat="39.683068" lon="-0.351112">
        <ele>278.092</ele>
        <time>2014-10-18T08:11:16Z</time>
      </trkpt>
      <trkpt lat="39.682935" lon="-0.351529">
        <ele>284.744</ele>
        <time>2014-10-18T08:11:46Z</time>
      </trkpt>
      <trkpt lat="39.682431" lon="-0.351393">
        <ele>289.520</ele>
        <time>2014-10-18T08:21:40Z</time>
      </trkpt>
      <trkpt lat="39.681844" lon="-0.350778">
        <ele>297.248</ele>
        <time>2014-10-18T08:22:28Z</time>
      </trkpt>
      <trkpt lat="39.681406" lon="-0.349934">
        <ele>294.395</ele>
        <time>2014-10-18T08:22:55Z</time>
      </trkpt>
      <trkpt lat="39.681655" lon="-0.349478">
        <ele>300.671</ele>
        <time>2014-10-18T08:23:19Z</time>
      </trkpt>
      <trkpt lat="39.681619" lon="-0.348926">
        <ele>302.052</ele>
        <time>2014-10-18T08:23:41Z</time>
      </trkpt>
      <trkpt lat="39.681252" lon="-0.348960">
        <ele>307.354</ele>
        <time>2014-10-18T08:24:07Z</time>
      </trkpt>
      <trkpt lat="39.681078" lon="-0.348709">
        <ele>313.556</ele>
        <time>2014-10-18T08:24:28Z</time>
      </trkpt>
      <trkpt lat="39.680860" lon="-0.346895">
        <ele>328.911</ele>
        <time>2014-10-18T08:27:05Z</time>
      </trkpt>
      <trkpt lat="39.679887" lon="-0.344764">
        <ele>313.507</ele>
        <time>2014-10-18T08:28:32Z</time>
      </trkpt>
      <trkpt lat="39.680059" lon="-0.344356">
        <ele>311.163</ele>
        <time>2014-10-18T08:28:56Z</time>
      </trkpt>
      <trkpt lat="39.680218" lon="-0.342882">
        <ele>304.475</ele>
        <time>2014-10-18T08:29:39Z</time>
      </trkpt>
      <trkpt lat="39.680827" lon="-0.341980">
        <ele>300.611</ele>
        <time>2014-10-18T08:30:23Z</time>
      </trkpt>
      <trkpt lat="39.681087" lon="-0.341296">
        <ele>289.599</ele>
        <time>2014-10-18T08:30:45Z</time>
      </trkpt>
      <trkpt lat="39.682077" lon="-0.340058">
        <ele>267.926</ele>
        <time>2014-10-18T08:31:20Z</time>
      </trkpt>
      <trkpt lat="39.681139" lon="-0.340390">
        <ele>254.952</ele>
        <time>2014-10-18T08:32:02Z</time>
      </trkpt>
      <trkpt lat="39.680683" lon="-0.340298">
        <ele>248.273</ele>
        <time>2014-10-18T08:32:12Z</time>
      </trkpt>
      <trkpt lat="39.679753" lon="-0.341116">
        <ele>237.622</ele>
        <time>2014-10-18T08:32:34Z</time>
      </trkpt>
      <trkpt lat="39.679088" lon="-0.342056">
        <ele>232.862</ele>
        <time>2014-10-18T08:32:48Z</time>
      </trkpt>
      <trkpt lat="39.678306" lon="-0.342077">
        <ele>223.608</ele>
        <time>2014-10-18T08:33:01Z</time>
      </trkpt>
      <trkpt lat="39.677902" lon="-0.342741">
        <ele>224.607</ele>
        <time>2014-10-18T08:33:57Z</time>
      </trkpt>
      <trkpt lat="39.677650" lon="-0.342839">
        <ele>224.140</ele>
        <time>2014-10-18T08:37:01Z</time>
      </trkpt>
      <trkpt lat="39.677471" lon="-0.342707">
        <ele>216.962</ele>
        <time>2014-10-18T08:37:30Z</time>
      </trkpt>
      <trkpt lat="39.677389" lon="-0.341995">
        <ele>205.988</ele>
        <time>2014-10-18T08:38:54Z</time>
      </trkpt>
      <trkpt lat="39.677704" lon="-0.341274">
        <ele>196.766</ele>
        <time>2014-10-18T08:39:18Z</time>
      </trkpt>
      <trkpt lat="39.678385" lon="-0.340458">
        <ele>189.023</ele>
        <time>2014-10-18T08:39:43Z</time>
      </trkpt>
      <trkpt lat="39.678334" lon="-0.339963">
        <ele>184.259</ele>
        <time>2014-10-18T08:39:53Z</time>
      </trkpt>
      <trkpt lat="39.678692" lon="-0.339314">
        <ele>181.450</ele>
        <time>2014-10-18T08:40:08Z</time>
      </trkpt>
      <trkpt lat="39.678539" lon="-0.338653">
        <ele>175.618</ele>
        <time>2014-10-18T08:40:20Z</time>
      </trkpt>
      <trkpt lat="39.678098" lon="-0.337997">
        <ele>167.498</ele>
        <time>2014-10-18T08:42:19Z</time>
      </trkpt>
      <trkpt lat="39.678605" lon="-0.337386">
        <ele>156.817</ele>
        <time>2014-10-18T08:43:14Z</time>
      </trkpt>
      <trkpt lat="39.678832" lon="-0.336777">
        <ele>148.707</ele>
        <time>2014-10-18T08:43:33Z</time>
      </trkpt>
      <trkpt lat="39.679412" lon="-0.336132">
        <ele>139.579</ele>
        <time>2014-10-18T08:43:59Z</time>
      </trkpt>
      <trkpt lat="39.679810" lon="-0.333511">
        <ele>125.111</ele>
        <time>2014-10-18T08:45:32Z</time>
      </trkpt>
      <trkpt lat="39.679771" lon="-0.330043">
        <ele>103.087</ele>
        <time>2014-10-18T08:47:10Z</time>
      </trkpt>
      <trkpt lat="39.679571" lon="-0.329080">
        <ele>96.825</ele>
        <time>2014-10-18T08:47:41Z</time>
      </trkpt>
      <trkpt lat="39.679397" lon="-0.328983">
        <ele>96.852</ele>
        <time>2014-10-18T08:48:27Z</time>
      </trkpt>
      <trkpt lat="39.679273" lon="-0.327358">
        <ele>99.698</ele>
        <time>2014-10-18T08:49:28Z</time>
      </trkpt>
      <trkpt lat="39.679040" lon="-0.328142">
        <ele>100.649</ele>
        <time>2014-10-18T09:34:15Z</time>
      </trkpt>
      <trkpt lat="39.677085" lon="-0.332347">
        <ele>111.298</ele>
        <time>2014-10-18T09:36:11Z</time>
      </trkpt>
      <trkpt lat="39.674365" lon="-0.333915">
        <ele>118.915</ele>
        <time>2014-10-18T09:37:29Z</time>
      </trkpt>
      <trkpt lat="39.673288" lon="-0.334292">
        <ele>123.726</ele>
        <time>2014-10-18T09:38:00Z</time>
      </trkpt>
      <trkpt lat="39.672390" lon="-0.334190">
        <ele>127.007</ele>
        <time>2014-10-18T09:38:26Z</time>
      </trkpt>
      <trkpt lat="39.672559" lon="-0.333511">
        <ele>129.927</ele>
        <time>2014-10-18T09:38:50Z</time>
      </trkpt>
      <trkpt lat="39.672301" lon="-0.331301">
        <ele>122.759</ele>
        <time>2014-10-18T09:40:24Z</time>
      </trkpt>
      <trkpt lat="39.672500" lon="-0.330293">
        <ele>122.275</ele>
        <time>2014-10-18T09:41:01Z</time>
      </trkpt>
      <trkpt lat="39.672977" lon="-0.329886">
        <ele>128.533</ele>
        <time>2014-10-18T09:41:28Z</time>
      </trkpt>
      <trkpt lat="39.672937" lon="-0.329639">
        <ele>129.950</ele>
        <time>2014-10-18T09:41:35Z</time>
      </trkpt>
      <trkpt lat="39.672568" lon="-0.329450">
        <ele>128.596</ele>
        <time>2014-10-18T09:41:49Z</time>
      </trkpt>
      <trkpt lat="39.672031" lon="-0.328593">
        <ele>117.437</ele>
        <time>2014-10-18T09:42:04Z</time>
      </trkpt>
      <trkpt lat="39.672709" lon="-0.327802">
        <ele>117.445</ele>
        <time>2014-10-18T09:42:24Z</time>
      </trkpt>
      <trkpt lat="39.673541" lon="-0.327411">
        <ele>116.047</ele>
        <time>2014-10-18T09:42:44Z</time>
      </trkpt>
      <trkpt lat="39.673645" lon="-0.326223">
        <ele>118.411</ele>
        <time>2014-10-18T09:43:01Z</time>
      </trkpt>
      <trkpt lat="39.673290" lon="-0.325521">
        <ele>119.807</ele>
        <time>2014-10-18T09:43:23Z</time>
      </trkpt>
      <trkpt lat="39.673416" lon="-0.324932">
        <ele>117.442</ele>
        <time>2014-10-18T09:43:36Z</time>
      </trkpt>
      <trkpt lat="39.673317" lon="-0.323751">
        <ele>113.654</ele>
        <time>2014-10-18T09:43:53Z</time>
      </trkpt>
      <trkpt lat="39.673133" lon="-0.323446">
        <ele>110.280</ele>
        <time>2014-10-18T09:43:58Z</time>
      </trkpt>
      <trkpt lat="39.672977" lon="-0.323579">
        <ele>108.388</ele>
        <time>2014-10-18T09:44:01Z</time>
      </trkpt>
      <trkpt lat="39.672785" lon="-0.323515">
        <ele>105.435</ele>
        <time>2014-10-18T09:44:05Z</time>
      </trkpt>
      <trkpt lat="39.672854" lon="-0.322109">
        <ele>102.591</ele>
        <time>2014-10-18T09:44:22Z</time>
      </trkpt>
      <trkpt lat="39.672611" lon="-0.321235">
        <ele>95.372</ele>
        <time>2014-10-18T09:44:33Z</time>
      </trkpt>
      <trkpt lat="39.672536" lon="-0.321142">
        <ele>94.442</ele>
        <time>2014-10-18T09:44:37Z</time>
      </trkpt>
      <trkpt lat="39.672190" lon="-0.321299">
        <ele>91.522</ele>
        <time>2014-10-18T09:44:48Z</time>
      </trkpt>
      <trkpt lat="39.672001" lon="-0.321156">
        <ele>90.514</ele>
        <time>2014-10-18T09:44:53Z</time>
      </trkpt>
      <trkpt lat="39.671620" lon="-0.320326">
        <ele>83.807</ele>
        <time>2014-10-18T09:45:12Z</time>
      </trkpt>
      <trkpt lat="39.672452" lon="-0.318647">
        <ele>81.472</ele>
        <time>2014-10-18T09:47:22Z</time>
      </trkpt>
      <trkpt lat="39.672570" lon="-0.317550">
        <ele>85.234</ele>
        <time>2014-10-18T09:47:51Z</time>
      </trkpt>
      <trkpt lat="39.672848" lon="-0.316840">
        <ele>87.670</ele>
        <time>2014-10-18T09:48:15Z</time>
      </trkpt>
      <trkpt lat="39.672751" lon="-0.316777">
        <ele>88.678</ele>
        <time>2014-10-18T09:48:21Z</time>
      </trkpt>
      <trkpt lat="39.672128" lon="-0.317615">
        <ele>95.895</ele>
        <time>2014-10-18T09:49:01Z</time>
      </trkpt>
      <trkpt lat="39.671412" lon="-0.319357">
        <ele>102.091</ele>
        <time>2014-10-18T09:50:09Z</time>
      </trkpt>
      <trkpt lat="39.670946" lon="-0.319832">
        <ele>110.782</ele>
        <time>2014-10-18T09:50:55Z</time>
      </trkpt>
      <trkpt lat="39.670998" lon="-0.320204">
        <ele>102.597</ele>
        <time>2014-10-18T09:51:29Z</time>
      </trkpt>
      <trkpt lat="39.670833" lon="-0.320824">
        <ele>100.123</ele>
        <time>2014-10-18T09:51:51Z</time>
      </trkpt>
      <trkpt lat="39.670599" lon="-0.321082">
        <ele>96.325</ele>
        <time>2014-10-18T09:52:12Z</time>
      </trkpt>
      <trkpt lat="39.670659" lon="-0.321411">
        <ele>101.107</ele>
        <time>2014-10-18T09:53:07Z</time>
      </trkpt>
      <trkpt lat="39.671007" lon="-0.321736">
        <ele>101.147</ele>
        <time>2014-10-18T09:53:51Z</time>
      </trkpt>
      <trkpt lat="39.671190" lon="-0.322246">
        <ele>99.279</ele>
        <time>2014-10-18T09:54:08Z</time>
      </trkpt>
      <trkpt lat="39.670903" lon="-0.324249">
        <ele>111.265</ele>
        <time>2014-10-18T09:55:32Z</time>
      </trkpt>
      <trkpt lat="39.670655" lon="-0.324728">
        <ele>112.133</ele>
        <time>2014-10-18T09:55:52Z</time>
      </trkpt>
      <trkpt lat="39.670265" lon="-0.324762">
        <ele>113.150</ele>
        <time>2014-10-18T09:56:08Z</time>
      </trkpt>
      <trkpt lat="39.670241" lon="-0.325098">
        <ele>116.546</ele>
        <time>2014-10-18T09:56:21Z</time>
      </trkpt>
      <trkpt lat="39.670502" lon="-0.325429">
        <ele>116.077</ele>
        <time>2014-10-18T09:56:37Z</time>
      </trkpt>
      <trkpt lat="39.670923" lon="-0.325616">
        <ele>112.162</ele>
        <time>2014-10-18T09:56:48Z</time>
      </trkpt>
      <trkpt lat="39.671429" lon="-0.327023">
        <ele>121.783</ele>
        <time>2014-10-18T09:58:06Z</time>
      </trkpt>
      <trkpt lat="39.671403" lon="-0.327739">
        <ele>115.011</ele>
        <time>2014-10-18T09:58:47Z</time>
      </trkpt>
      <trkpt lat="39.671166" lon="-0.328312">
        <ele>113.107</ele>
        <time>2014-10-18T09:59:40Z</time>
      </trkpt>
      <trkpt lat="39.671585" lon="-0.330623">
        <ele>116.084</ele>
        <time>2014-10-18T10:00:28Z</time>
      </trkpt>
      <trkpt lat="39.671325" lon="-0.331690">
        <ele>117.436</ele>
        <time>2014-10-18T10:00:56Z</time>
      </trkpt>
      <trkpt lat="39.671197" lon="-0.331627">
        <ele>120.322</ele>
        <time>2014-10-18T10:01:08Z</time>
      </trkpt>
      <trkpt lat="39.670773" lon="-0.332087">
        <ele>122.260</ele>
        <time>2014-10-18T10:01:33Z</time>
      </trkpt>
      <trkpt lat="39.670346" lon="-0.332172">
        <ele>119.897</ele>
        <time>2014-10-18T10:01:46Z</time>
      </trkpt>
      <trkpt lat="39.669683" lon="-0.331876">
        <ele>122.293</ele>
        <time>2014-10-18T10:02:16Z</time>
      </trkpt>
      <trkpt lat="39.669114" lon="-0.332027">
        <ele>123.764</ele>
        <time>2014-10-18T10:04:58Z</time>
      </trkpt>
      <trkpt lat="39.668845" lon="-0.331951">
        <ele>129.429</ele>
        <time>2014-10-18T10:05:14Z</time>
      </trkpt>
      <trkpt lat="39.668332" lon="-0.331541">
        <ele>135.200</ele>
        <time>2014-10-18T10:05:54Z</time>
      </trkpt>
      <trkpt lat="39.667237" lon="-0.331136">
        <ele>141.020</ele>
        <time>2014-10-18T10:06:47Z</time>
      </trkpt>
      <trkpt lat="39.666856" lon="-0.330805">
        <ele>138.607</ele>
        <time>2014-10-18T10:07:06Z</time>
      </trkpt>
      <trkpt lat="39.666712" lon="-0.331121">
        <ele>141.510</ele>
        <time>2014-10-18T10:07:23Z</time>
      </trkpt>
      <trkpt lat="39.666143" lon="-0.331359">
        <ele>145.892</ele>
        <time>2014-10-18T10:07:54Z</time>
      </trkpt>
      <trkpt lat="39.666064" lon="-0.331591">
        <ele>146.778</ele>
        <time>2014-10-18T10:08:04Z</time>
      </trkpt>
      <trkpt lat="39.666250" lon="-0.332070">
        <ele>147.796</ele>
        <time>2014-10-18T10:08:25Z</time>
      </trkpt>
      <trkpt lat="39.666720" lon="-0.332137">
        <ele>142.973</ele>
        <time>2014-10-18T10:08:48Z</time>
      </trkpt>
      <trkpt lat="39.666978" lon="-0.331961">
        <ele>141.079</ele>
        <time>2014-10-18T10:09:25Z</time>
      </trkpt>
      <trkpt lat="39.667525" lon="-0.332445">
        <ele>139.110</ele>
        <time>2014-10-18T10:09:47Z</time>
      </trkpt>
      <trkpt lat="39.667689" lon="-0.332374">
        <ele>138.159</ele>
        <time>2014-10-18T10:09:55Z</time>
      </trkpt>
      <trkpt lat="39.668065" lon="-0.332570">
        <ele>134.703</ele>
        <time>2014-10-18T10:10:10Z</time>
      </trkpt>
      <trkpt lat="39.668189" lon="-0.333039">
        <ele>135.723</ele>
        <time>2014-10-18T10:10:25Z</time>
      </trkpt>
      <trkpt lat="39.667757" lon="-0.333333">
        <ele>140.507</ele>
        <time>2014-10-18T10:10:53Z</time>
      </trkpt>
      <trkpt lat="39.666503" lon="-0.333720">
        <ele>148.753</ele>
        <time>2014-10-18T10:11:45Z</time>
      </trkpt>
      <trkpt lat="39.665099" lon="-0.334412">
        <ele>161.225</ele>
        <time>2014-10-18T10:12:57Z</time>
      </trkpt>
      <trkpt lat="39.663710" lon="-0.333814">
        <ele>174.631</ele>
        <time>2014-10-18T10:14:08Z</time>
      </trkpt>
      <trkpt lat="39.662925" lon="-0.334075">
        <ele>180.969</ele>
        <time>2014-10-18T10:14:52Z</time>
      </trkpt>
      <trkpt lat="39.663285" lon="-0.333592">
        <ele>187.696</ele>
        <time>2014-10-18T10:15:31Z</time>
      </trkpt>
      <trkpt lat="39.663326" lon="-0.333241">
        <ele>190.032</ele>
        <time>2014-10-18T10:15:49Z</time>
      </trkpt>
      <trkpt lat="39.662790" lon="-0.332434">
        <ele>199.193</ele>
        <time>2014-10-18T10:16:44Z</time>
      </trkpt>
      <trkpt lat="39.663207" lon="-0.332447">
        <ele>203.967</ele>
        <time>2014-10-18T10:17:15Z</time>
      </trkpt>
      <trkpt lat="39.663503" lon="-0.332255">
        <ele>207.381</ele>
        <time>2014-10-18T10:17:39Z</time>
      </trkpt>
      <trkpt lat="39.663654" lon="-0.331723">
        <ele>210.719</ele>
        <time>2014-10-18T10:18:07Z</time>
      </trkpt>
      <trkpt lat="39.663079" lon="-0.331192">
        <ele>219.307</ele>
        <time>2014-10-18T10:18:55Z</time>
      </trkpt>
      <trkpt lat="39.662714" lon="-0.330261">
        <ele>228.054</ele>
        <time>2014-10-18T10:19:54Z</time>
      </trkpt>
      <trkpt lat="39.661914" lon="-0.329623">
        <ele>237.696</ele>
        <time>2014-10-18T10:21:02Z</time>
      </trkpt>
      <trkpt lat="39.662008" lon="-0.328549">
        <ele>247.742</ele>
        <time>2014-10-18T10:22:03Z</time>
      </trkpt>
      <trkpt lat="39.661690" lon="-0.327621">
        <ele>252.530</ele>
        <time>2014-10-18T10:22:49Z</time>
      </trkpt>
      <trkpt lat="39.661890" lon="-0.327125">
        <ele>258.397</ele>
        <time>2014-10-18T10:23:12Z</time>
      </trkpt>
      <trkpt lat="39.661866" lon="-0.326200">
        <ele>264.583</ele>
        <time>2014-10-18T10:24:02Z</time>
      </trkpt>
      <trkpt lat="39.662094" lon="-0.326027">
        <ele>265.034</ele>
        <time>2014-10-18T10:24:14Z</time>
      </trkpt>
      <trkpt lat="39.662789" lon="-0.326112">
        <ele>266.924</ele>
        <time>2014-10-18T10:24:46Z</time>
      </trkpt>
      <trkpt lat="39.663011" lon="-0.325936">
        <ele>267.904</ele>
        <time>2014-10-18T10:24:57Z</time>
      </trkpt>
      <trkpt lat="39.663139" lon="-0.325544">
        <ele>270.314</ele>
        <time>2014-10-18T10:25:11Z</time>
      </trkpt>
      <trkpt lat="39.663098" lon="-0.324541">
        <ele>274.607</ele>
        <time>2014-10-18T10:25:46Z</time>
      </trkpt>
      <trkpt lat="39.662896" lon="-0.324176">
        <ele>277.530</ele>
        <time>2014-10-18T10:26:03Z</time>
      </trkpt>
      <trkpt lat="39.662236" lon="-0.324155">
        <ele>281.812</ele>
        <time>2014-10-18T10:26:38Z</time>
      </trkpt>
      <trkpt lat="39.661726" lon="-0.323900">
        <ele>283.718</ele>
        <time>2014-10-18T10:27:03Z</time>
      </trkpt>
      <trkpt lat="39.661537" lon="-0.323614">
        <ele>286.666</ele>
        <time>2014-10-18T10:27:20Z</time>
      </trkpt>
      <trkpt lat="39.660720" lon="-0.324510">
        <ele>289.063</ele>
        <time>2014-10-18T10:28:03Z</time>
      </trkpt>
      <trkpt lat="39.660406" lon="-0.324244">
        <ele>291.469</ele>
        <time>2014-10-18T10:28:17Z</time>
      </trkpt>
      <trkpt lat="39.660334" lon="-0.324514">
        <ele>294.870</ele>
        <time>2014-10-18T10:28:34Z</time>
      </trkpt>
      <trkpt lat="39.660126" lon="-0.324641">
        <ele>300.645</ele>
        <time>2014-10-18T10:28:48Z</time>
      </trkpt>
      <trkpt lat="39.659981" lon="-0.326374">
        <ele>329.947</ele>
        <time>2014-10-18T10:31:05Z</time>
      </trkpt>
      <trkpt lat="39.660066" lon="-0.326920">
        <ele>338.011</ele>
        <time>2014-10-18T10:31:59Z</time>
      </trkpt>
      <trkpt lat="39.659498" lon="-0.326959">
        <ele>341.407</ele>
        <time>2014-10-18T10:33:09Z</time>
      </trkpt>
      <trkpt lat="39.657498" lon="-0.326435">
        <ele>357.322</ele>
        <time>2014-10-18T10:35:30Z</time>
      </trkpt>
      <trkpt lat="39.657090" lon="-0.325930">
        <ele>352.594</ele>
        <time>2014-10-18T10:36:01Z</time>
      </trkpt>
      <trkpt lat="39.656725" lon="-0.324698">
        <ele>340.930</ele>
        <time>2014-10-18T10:36:41Z</time>
      </trkpt>
      <trkpt lat="39.656414" lon="-0.324226">
        <ele>336.138</ele>
        <time>2014-10-18T10:37:19Z</time>
      </trkpt>
      <trkpt lat="39.655540" lon="-0.324156">
        <ele>336.645</ele>
        <time>2014-10-18T10:37:55Z</time>
      </trkpt>
      <trkpt lat="39.654955" lon="-0.324403">
        <ele>347.241</ele>
        <time>2014-10-18T10:39:00Z</time>
      </trkpt>
      <trkpt lat="39.654397" lon="-0.324240">
        <ele>356.352</ele>
        <time>2014-10-18T10:40:16Z</time>
      </trkpt>
      <trkpt lat="39.653590" lon="-0.324612">
        <ele>362.621</ele>
        <time>2014-10-18T10:41:13Z</time>
      </trkpt>
      <trkpt lat="39.653246" lon="-0.325242">
        <ele>361.641</ele>
        <time>2014-10-18T10:44:12Z</time>
      </trkpt>
      <trkpt lat="39.651617" lon="-0.326677">
        <ele>360.605</ele>
        <time>2014-10-18T10:45:06Z</time>
      </trkpt>
      <trkpt lat="39.650953" lon="-0.326389">
        <ele>360.207</ele>
        <time>2014-10-18T10:45:40Z</time>
      </trkpt>
      <trkpt lat="39.650815" lon="-0.326507">
        <ele>357.840</ele>
        <time>2014-10-18T10:45:50Z</time>
      </trkpt>
      <trkpt lat="39.650549" lon="-0.327135">
        <ele>363.082</ele>
        <time>2014-10-18T10:46:34Z</time>
      </trkpt>
      <trkpt lat="39.650588" lon="-0.328256">
        <ele>363.588</ele>
        <time>2014-10-18T10:47:30Z</time>
      </trkpt>
      <trkpt lat="39.650036" lon="-0.328984">
        <ele>366.486</ele>
        <time>2014-10-18T10:48:04Z</time>
      </trkpt>
      <trkpt lat="39.649900" lon="-0.329409">
        <ele>369.823</ele>
        <time>2014-10-18T10:48:21Z</time>
      </trkpt>
      <trkpt lat="39.650073" lon="-0.330980">
        <ele>382.749</ele>
        <time>2014-10-18T10:50:11Z</time>
      </trkpt>
      <trkpt lat="39.650394" lon="-0.331461">
        <ele>387.150</ele>
        <time>2014-10-18T10:50:55Z</time>
      </trkpt>
      <trkpt lat="39.651306" lon="-0.332026">
        <ele>389.039</ele>
        <time>2014-10-18T10:52:24Z</time>
      </trkpt>
      <trkpt lat="39.651780" lon="-0.332711">
        <ele>395.201</ele>
        <time>2014-10-18T10:53:10Z</time>
      </trkpt>
      <trkpt lat="39.651904" lon="-0.333412">
        <ele>399.621</ele>
        <time>2014-10-18T10:54:23Z</time>
      </trkpt>
      <trkpt lat="39.652445" lon="-0.333878">
        <ele>397.607</ele>
        <time>2014-10-18T10:54:51Z</time>
      </trkpt>
      <trkpt lat="39.652806" lon="-0.334434">
        <ele>402.051</ele>
        <time>2014-10-18T10:57:17Z</time>
      </trkpt>
      <trkpt lat="39.652481" lon="-0.335105">
        <ele>378.733</ele>
        <time>2019-12-20T14:34:51Z</time>
      </trkpt>
      <trkpt lat="39.652339" lon="-0.336306">
        <ele>347.399</ele>
        <time>2019-12-20T14:35:01Z</time>
      </trkpt>
      <trkpt lat="39.651814" lon="-0.337200">
        <ele>331.737</ele>
        <time>2019-12-20T14:35:11Z</time>
      </trkpt>
      <trkpt lat="39.651785" lon="-0.338026">
        <ele>331.674</ele>
        <time>2019-12-20T14:35:21Z</time>
      </trkpt>
      <trkpt lat="39.652167" lon="-0.338016">
        <ele>340.810</ele>
        <time>2019-12-20T14:35:31Z</time>
      </trkpt>
      <trkpt lat="39.652688" lon="-0.338241">
        <ele>336.081</ele>
        <time>2019-12-20T14:35:41Z</time>
      </trkpt>
      <trkpt lat="39.652728" lon="-0.339686">
        <ele>315.516</ele>
        <time>2019-12-20T14:35:51Z</time>
      </trkpt>
      <trkpt lat="39.652902" lon="-0.340234">
        <ele>301.476</ele>
        <time>2019-12-20T14:36:01Z</time>
      </trkpt>
      <trkpt lat="39.653172" lon="-0.340566">
        <ele>293.613</ele>
        <time>2019-12-20T14:36:11Z</time>
      </trkpt>
      <trkpt lat="39.653199" lon="-0.340949">
        <ele>288.507</ele>
        <time>2019-12-20T14:36:21Z</time>
      </trkpt>
      <trkpt lat="39.653677" lon="-0.341298">
        <ele>281.059</ele>
        <time>2019-12-20T14:36:31Z</time>
      </trkpt>
      <trkpt lat="39.653811" lon="-0.341885">
        <ele>272.261</ele>
        <time>2019-12-20T14:36:41Z</time>
      </trkpt>
      <trkpt lat="39.654017" lon="-0.341850">
        <ele>270.487</ele>
        <time>2019-12-20T14:36:51Z</time>
      </trkpt>
      <trkpt lat="39.654198" lon="-0.341515">
        <ele>271.585</ele>
        <time>2019-12-20T14:37:01Z</time>
      </trkpt>
      <trkpt lat="39.654114" lon="-0.340833">
        <ele>279.382</ele>
        <time>2019-12-20T14:37:11Z</time>
      </trkpt>
      <trkpt lat="39.654254" lon="-0.340255">
        <ele>282.788</ele>
        <time>2019-12-20T14:37:21Z</time>
      </trkpt>
      <trkpt lat="39.654444" lon="-0.340034">
        <ele>275.179</ele>
        <time>2014-10-18T11:08:11Z</time>
      </trkpt>
      <trkpt lat="39.655056" lon="-0.340428">
        <ele>281.845</ele>
        <time>2014-10-18T11:09:00Z</time>
      </trkpt>
      <trkpt lat="39.655589" lon="-0.340090">
        <ele>283.747</ele>
        <time>2014-10-18T11:09:41Z</time>
      </trkpt>
      <trkpt lat="39.656313" lon="-0.339939">
        <ele>284.211</ele>
        <time>2014-10-18T11:10:11Z</time>
      </trkpt>
      <trkpt lat="39.656773" lon="-0.340529">
        <ele>290.007</ele>
        <time>2014-10-18T11:10:38Z</time>
      </trkpt>
      <trkpt lat="39.656937" lon="-0.340579">
        <ele>292.482</ele>
        <time>2014-10-18T11:10:46Z</time>
      </trkpt>
      <trkpt lat="39.657223" lon="-0.340394">
        <ele>295.354</ele>
        <time>2014-10-18T11:11:03Z</time>
      </trkpt>
      <trkpt lat="39.658076" lon="-0.339005">
        <ele>294.320</ele>
        <time>2014-10-18T11:12:04Z</time>
      </trkpt>
      <trkpt lat="39.658243" lon="-0.337927">
        <ele>286.688</ele>
        <time>2014-10-18T11:12:19Z</time>
      </trkpt>
      <trkpt lat="39.658486" lon="-0.337686">
        <ele>283.735</ele>
        <time>2014-10-18T11:12:23Z</time>
      </trkpt>
      <trkpt lat="39.659045" lon="-0.337632">
        <ele>278.981</ele>
        <time>2014-10-18T11:12:33Z</time>
      </trkpt>
      <trkpt lat="39.659602" lon="-0.337035">
        <ele>267.912</ele>
        <time>2014-10-18T11:12:55Z</time>
      </trkpt>
      <trkpt lat="39.659420" lon="-0.338098">
        <ele>262.649</ele>
        <time>2014-10-18T11:13:37Z</time>
      </trkpt>
      <trkpt lat="39.659020" lon="-0.338609">
        <ele>258.702</ele>
        <time>2014-10-18T11:14:11Z</time>
      </trkpt>
      <trkpt lat="39.658675" lon="-0.340063">
        <ele>257.822</ele>
        <time>2014-10-18T11:14:43Z</time>
      </trkpt>
      <trkpt lat="39.658730" lon="-0.340240">
        <ele>253.907</ele>
        <time>2014-10-18T11:14:50Z</time>
      </trkpt>
      <trkpt lat="39.659269" lon="-0.340511">
        <ele>253.072</ele>
        <time>2014-10-18T11:15:07Z</time>
      </trkpt>
      <trkpt lat="39.658547" lon="-0.341122">
        <ele>234.294</ele>
        <time>2014-10-18T11:31:20Z</time>
      </trkpt>
      <trkpt lat="39.658088" lon="-0.342243">
        <ele>215.050</ele>
        <time>2014-10-18T11:32:07Z</time>
      </trkpt>
      <trkpt lat="39.657830" lon="-0.343388">
        <ele>203.948</ele>
        <time>2014-10-18T11:33:00Z</time>
      </trkpt>
      <trkpt lat="39.658053" lon="-0.344254">
        <ele>201.125</ele>
        <time>2014-10-18T11:33:12Z</time>
      </trkpt>
      <trkpt lat="39.657828" lon="-0.346202">
        <ele>191.971</ele>
        <time>2014-10-18T11:33:44Z</time>
      </trkpt>
      <trkpt lat="39.657786" lon="-0.348356">
        <ele>192.912</ele>
        <time>2014-10-18T11:34:17Z</time>
      </trkpt>
      <trkpt lat="39.656590" lon="-0.350028">
        <ele>205.927</ele>
        <time>2014-10-18T11:35:32Z</time>
      </trkpt>
      <trkpt lat="39.656708" lon="-0.350386">
        <ele>203.968</ele>
        <time>2014-10-18T11:35:45Z</time>
      </trkpt>
      <trkpt lat="39.656647" lon="-0.350889">
        <ele>198.714</ele>
        <time>2014-10-18T11:35:58Z</time>
      </trkpt>
      <trkpt lat="39.655959" lon="-0.351142">
        <ele>208.407</ele>
        <time>2019-12-20T14:41:51Z</time>
      </trkpt>
      <trkpt lat="39.655575" lon="-0.351045">
        <ele>214.080</ele>
        <time>2019-12-20T14:42:01Z</time>
      </trkpt>
      <trkpt lat="39.655794" lon="-0.351297">
        <ele>211.272</ele>
        <time>2019-12-20T14:42:11Z</time>
      </trkpt>
      <trkpt lat="39.657397" lon="-0.351005">
        <ele>203.938</ele>
        <time>2014-10-18T11:38:03Z</time>
      </trkpt>
      <trkpt lat="39.658332" lon="-0.351803">
        <ele>207.386</ele>
        <time>2014-10-18T11:39:01Z</time>
      </trkpt>
      <trkpt lat="39.659026" lon="-0.352881">
        <ele>209.773</ele>
        <time>2019-12-20T14:42:41Z</time>
      </trkpt>
      <trkpt lat="39.659165" lon="-0.352283">
        <ele>204.279</ele>
        <time>2019-12-20T14:42:51Z</time>
      </trkpt>
      <trkpt lat="39.659431" lon="-0.352027">
        <ele>202.260</ele>
        <time>2019-12-20T14:43:01Z</time>
      </trkpt>
      <trkpt lat="39.660061" lon="-0.353909">
        <ele>218.978</ele>
        <time>2019-12-20T14:43:11Z</time>
      </trkpt>
      <trkpt lat="39.660775" lon="-0.354793">
        <ele>236.433</ele>
        <time>2019-12-20T14:43:21Z</time>
      </trkpt>
      <trkpt lat="39.660805" lon="-0.355079">
        <ele>238.226</ele>
        <time>2019-12-20T14:43:31Z</time>
      </trkpt>
      <trkpt lat="39.660186" lon="-0.356263">
        <ele>254.407</ele>
        <time>2014-10-18T12:00:26Z</time>
      </trkpt>
      <trkpt lat="39.659672" lon="-0.356767">
        <ele>259.235</ele>
        <time>2014-10-18T12:00:58Z</time>
      </trkpt>
      <trkpt lat="39.658884" lon="-0.357111">
        <ele>265.517</ele>
        <time>2014-10-18T12:01:47Z</time>
      </trkpt>
      <trkpt lat="39.658540" lon="-0.357612">
        <ele>272.233</ele>
        <time>2014-10-18T12:02:15Z</time>
      </trkpt>
      <trkpt lat="39.658560" lon="-0.357842">
        <ele>273.241</ele>
        <time>2014-10-18T12:02:28Z</time>
      </trkpt>
      <trkpt lat="39.659015" lon="-0.358541">
        <ele>276.048</ele>
        <time>2014-10-18T12:05:15Z</time>
      </trkpt>
      <trkpt lat="39.659444" lon="-0.360184">
        <ele>281.844</ele>
        <time>2014-10-18T12:06:09Z</time>
      </trkpt>
      <trkpt lat="39.659918" lon="-0.360290">
        <ele>285.745</ele>
        <time>2014-10-18T12:06:29Z</time>
      </trkpt>
      <trkpt lat="39.660895" lon="-0.359705">
        <ele>293.863</ele>
        <time>2014-10-18T12:07:22Z</time>
      </trkpt>
      <trkpt lat="39.661030" lon="-0.360616">
        <ele>295.344</ele>
        <time>2014-10-18T12:07:52Z</time>
      </trkpt>
      <trkpt lat="39.661429" lon="-0.360802">
        <ele>294.818</ele>
        <time>2014-10-18T12:08:08Z</time>
      </trkpt>
      <trkpt lat="39.661836" lon="-0.360802">
        <ele>291.907</ele>
        <time>2014-10-18T12:08:23Z</time>
      </trkpt>
      <trkpt lat="39.662930" lon="-0.360405">
        <ele>285.284</ele>
        <time>2014-10-18T12:08:42Z</time>
      </trkpt>
      <trkpt lat="39.663126" lon="-0.360406">
        <ele>284.736</ele>
        <time>2014-10-18T12:08:45Z</time>
      </trkpt>
      <trkpt lat="39.663290" lon="-0.360614">
        <ele>283.312</ele>
        <time>2014-10-18T12:08:51Z</time>
      </trkpt>
      <trkpt lat="39.663016" lon="-0.361200">
        <ele>284.710</ele>
        <time>2014-10-18T12:09:04Z</time>
      </trkpt>
      <trkpt lat="39.663258" lon="-0.361855">
        <ele>284.247</ele>
        <time>2014-10-18T12:09:17Z</time>
      </trkpt>
      <trkpt lat="39.663207" lon="-0.362172">
        <ele>284.753</ele>
        <time>2014-10-18T12:09:23Z</time>
      </trkpt>
      <trkpt lat="39.663661" lon="-0.364388">
        <ele>294.814</ele>
        <time>2014-10-18T12:10:18Z</time>
      </trkpt>
      <trkpt lat="39.664004" lon="-0.364973">
        <ele>298.688</ele>
        <time>2014-10-18T12:10:44Z</time>
      </trkpt>
      <trkpt lat="39.663059" lon="-0.367145">
        <ele>303.024</ele>
        <time>2014-10-18T12:11:58Z</time>
      </trkpt>
      <trkpt lat="39.662487" lon="-0.367091">
        <ele>303.026</ele>
        <time>2014-10-18T12:12:18Z</time>
      </trkpt>
      <trkpt lat="39.662053" lon="-0.367568">
        <ele>303.007</ele>
        <time>2014-10-18T12:12:35Z</time>
      </trkpt>
      <trkpt lat="39.661244" lon="-0.367901">
        <ele>307.376</ele>
        <time>2014-10-18T12:12:58Z</time>
      </trkpt>
      <trkpt lat="39.660984" lon="-0.368183">
        <ele>307.828</ele>
        <time>2014-10-18T12:13:08Z</time>
      </trkpt>
      <trkpt lat="39.660893" lon="-0.368946">
        <ele>307.824</ele>
        <time>2014-10-18T12:13:27Z</time>
      </trkpt>
      <trkpt lat="39.660419" lon="-0.369535">
        <ele>316.952</ele>
        <time>2014-10-18T12:13:58Z</time>
      </trkpt>
      <trkpt lat="39.661157" lon="-0.369726">
        <ele>327.599</ele>
        <time>2014-10-18T12:15:04Z</time>
      </trkpt>
      <trkpt lat="39.661714" lon="-0.370057">
        <ele>333.745</ele>
        <time>2014-10-18T12:17:24Z</time>
      </trkpt>
      <trkpt lat="39.662347" lon="-0.369928">
        <ele>329.456</ele>
        <time>2014-10-18T12:18:08Z</time>
      </trkpt>
      <trkpt lat="39.663421" lon="-0.371700">
        <ele>303.933</ele>
        <time>2014-10-18T12:18:45Z</time>
      </trkpt>
      <trkpt lat="39.664148" lon="-0.371245">
        <ele>293.823</ele>
        <time>2014-10-18T12:19:03Z</time>
      </trkpt>
      <trkpt lat="39.664466" lon="-0.371370">
        <ele>287.615</ele>
        <time>2014-10-18T12:19:12Z</time>
      </trkpt>
      <trkpt lat="39.663777" lon="-0.372945">
        <ele>266.907</ele>
        <time>2014-10-18T12:19:44Z</time>
      </trkpt>
      <trkpt lat="39.663313" lon="-0.373326">
        <ele>258.331</ele>
        <time>2014-10-18T12:19:55Z</time>
      </trkpt>
      <trkpt lat="39.662823" lon="-0.375348">
        <ele>242.423</ele>
        <time>2014-10-18T12:20:24Z</time>
      </trkpt>
      <trkpt lat="39.661795" lon="-0.376328">
        <ele>232.829</ele>
        <time>2014-10-18T12:20:44Z</time>
      </trkpt>
      <trkpt lat="39.660775" lon="-0.376241">
        <ele>227.027</ele>
        <time>2014-10-18T12:21:06Z</time>
      </trkpt>
      <trkpt lat="39.660167" lon="-0.377010">
        <ele>227.564</ele>
        <time>2014-10-18T12:21:38Z</time>
      </trkpt>
      <trkpt lat="39.660024" lon="-0.377696">
        <ele>226.150</ele>
        <time>2014-10-18T12:21:52Z</time>
      </trkpt>
      <trkpt lat="39.660320" lon="-0.378583">
        <ele>231.361</ele>
        <time>2014-10-18T12:22:20Z</time>
      </trkpt>
      <trkpt lat="39.660359" lon="-0.380058">
        <ele>237.682</ele>
        <time>2014-10-18T12:23:05Z</time>
      </trkpt>
      <trkpt lat="39.660203" lon="-0.381745">
        <ele>243.443</ele>
        <time>2014-10-18T12:23:59Z</time>
      </trkpt>
      <trkpt lat="39.660903" lon="-0.383297">
        <ele>236.117</ele>
        <time>2014-10-18T12:24:22Z</time>
      </trkpt>
      <trkpt lat="39.662010" lon="-0.384950">
        <ele>236.107</ele>
        <time>2014-10-18T12:24:54Z</time>
      </trkpt>
      <trkpt lat="39.662379" lon="-0.385739">
        <ele>233.746</ele>
        <time>2014-10-18T12:25:05Z</time>
      </trkpt>
      <trkpt lat="39.663035" lon="-0.385937">
        <ele>238.568</ele>
        <time>2014-10-18T12:25:26Z</time>
      </trkpt>
      <trkpt lat="39.662366" lon="-0.386141">
        <ele>243.814</ele>
        <time>2014-10-18T12:25:58Z</time>
      </trkpt>
      <trkpt lat="39.662053" lon="-0.386530">
        <ele>245.812</ele>
        <time>2014-10-18T12:26:16Z</time>
      </trkpt>
      <trkpt lat="39.661509" lon="-0.386303">
        <ele>246.219</ele>
        <time>2014-10-18T12:26:36Z</time>
      </trkpt>
      <trkpt lat="39.660778" lon="-0.386650">
        <ele>247.245</ele>
        <time>2014-10-18T12:26:57Z</time>
      </trkpt>
      <trkpt lat="39.660402" lon="-0.387217">
        <ele>245.326</ele>
        <time>2014-10-18T12:27:10Z</time>
      </trkpt>
      <trkpt lat="39.659139" lon="-0.388057">
        <ele>245.312</ele>
        <time>2014-10-18T12:27:37Z</time>
      </trkpt>
      <trkpt lat="39.658877" lon="-0.388684">
        <ele>245.332</ele>
        <time>2014-10-18T12:27:50Z</time>
      </trkpt>
      <trkpt lat="39.657594" lon="-0.389207">
        <ele>244.805</ele>
        <time>2014-10-18T12:28:20Z</time>
      </trkpt>
      <trkpt lat="39.657059" lon="-0.389592">
        <ele>244.307</ele>
        <time>2014-10-18T12:28:32Z</time>
      </trkpt>
      <trkpt lat="39.656572" lon="-0.390800">
        <ele>240.569</ele>
        <time>2014-10-18T12:28:50Z</time>
      </trkpt>
      <trkpt lat="39.656382" lon="-0.392175">
        <ele>240.081</ele>
        <time>2014-10-18T12:29:08Z</time>
      </trkpt>
      <trkpt lat="39.655623" lon="-0.394550">
        <ele>241.957</ele>
        <time>2014-10-18T12:29:52Z</time>
      </trkpt>
      <trkpt lat="39.653824" lon="-0.396107">
        <ele>235.275</ele>
        <time>2014-10-18T12:30:27Z</time>
      </trkpt>
      <trkpt lat="39.653437" lon="-0.396336">
        <ele>233.312</ele>
        <time>2014-10-18T12:30:32Z</time>
      </trkpt>
      <trkpt lat="39.652559" lon="-0.396512">
        <ele>228.078</ele>
        <time>2014-10-18T12:30:42Z</time>
      </trkpt>
      <trkpt lat="39.652016" lon="-0.396903">
        <ele>221.289</ele>
        <time>2014-10-18T12:30:48Z</time>
      </trkpt>
      <trkpt lat="39.650879" lon="-0.398227">
        <ele>231.819</ele>
        <time>2014-10-18T12:31:26Z</time>
      </trkpt>
      <trkpt lat="39.650100" lon="-0.399634">
        <ele>241.909</ele>
        <time>2014-10-18T12:32:49Z</time>
      </trkpt>
      <trkpt lat="39.649934" lon="-0.401035">
        <ele>241.419</ele>
        <time>2014-10-18T12:33:10Z</time>
      </trkpt>
      <trkpt lat="39.650115" lon="-0.402664">
        <ele>252.007</ele>
        <time>2014-10-18T12:33:58Z</time>
      </trkpt>
      <trkpt lat="39.650668" lon="-0.403467">
        <ele>256.339</ele>
        <time>2014-10-18T12:34:45Z</time>
      </trkpt>
      <trkpt lat="39.651315" lon="-0.403974">
        <ele>254.971</ele>
        <time>2014-10-18T12:35:03Z</time>
      </trkpt>
      <trkpt lat="39.651462" lon="-0.404340">
        <ele>254.957</ele>
        <time>2014-10-18T12:35:11Z</time>
      </trkpt>
      <trkpt lat="39.652103" lon="-0.404773">
        <ele>253.415</ele>
        <time>2014-10-18T12:35:24Z</time>
      </trkpt>
      <trkpt lat="39.652800" lon="-0.404628">
        <ele>252.512</ele>
        <time>2014-10-18T12:35:36Z</time>
      </trkpt>
      <trkpt lat="39.653426" lon="-0.404714">
        <ele>254.498</ele>
        <time>2014-10-18T12:35:49Z</time>
      </trkpt>
      <trkpt lat="39.654355" lon="-0.404506">
        <ele>257.899</ele>
        <time>2014-10-18T12:36:11Z</time>
      </trkpt>
      <trkpt lat="39.654960" lon="-0.404571">
        <ele>256.388</ele>
        <time>2014-10-18T12:36:23Z</time>
      </trkpt>
      <trkpt lat="39.655225" lon="-0.404700">
        <ele>252.024</ele>
        <time>2014-10-18T12:36:27Z</time>
      </trkpt>
      <trkpt lat="39.655412" lon="-0.405393">
        <ele>248.626</ele>
        <time>2014-10-18T12:36:34Z</time>
      </trkpt>
      <trkpt lat="39.655413" lon="-0.406224">
        <ele>244.307</ele>
        <time>2014-10-18T12:36:42Z</time>
      </trkpt>
      <trkpt lat="39.654953" lon="-0.407439">
        <ele>248.296</ele>
        <time>2014-10-18T12:37:00Z</time>
      </trkpt>
      <trkpt lat="39.654464" lon="-0.409574">
        <ele>255.968</ele>
        <time>2014-10-18T12:37:39Z</time>
      </trkpt>
      <trkpt lat="39.654362" lon="-0.411512">
        <ele>257.354</ele>
        <time>2014-10-18T12:38:07Z</time>
      </trkpt>
      <trkpt lat="39.654022" lon="-0.412220">
        <ele>257.832</ele>
        <time>2014-10-18T12:38:26Z</time>
      </trkpt>
      <trkpt lat="39.652313" lon="-0.413697">
        <ele>250.669</ele>
        <time>2014-10-18T12:39:21Z</time>
      </trkpt>
      <trkpt lat="39.651529" lon="-0.415628">
        <ele>237.665</ele>
        <time>2014-10-18T12:39:39Z</time>
      </trkpt>
      <trkpt lat="39.651642" lon="-0.418413">
        <ele>232.886</ele>
        <time>2014-10-18T12:39:59Z</time>
      </trkpt>
      <trkpt lat="39.651256" lon="-0.420173">
        <ele>228.546</ele>
        <time>2014-10-18T12:40:13Z</time>
      </trkpt>
      <trkpt lat="39.651331" lon="-0.421034">
        <ele>224.688</ele>
        <time>2014-10-18T12:40:20Z</time>
      </trkpt>
      <trkpt lat="39.652245" lon="-0.427428">
        <ele>210.216</ele>
        <time>2014-10-18T12:41:17Z</time>
      </trkpt>
      <trkpt lat="39.652526" lon="-0.427726">
        <ele>209.707</ele>
        <time>2014-10-18T12:41:30Z</time>
      </trkpt>
      <trkpt lat="39.652967" lon="-0.427610">
        <ele>210.712</ele>
        <time>2014-10-18T12:41:53Z</time>
      </trkpt>
    </trkseg>
  </trk>
</gpx>
